<?xml version="1.0" encoding="UTF-8" standalone="no" ?>
<gpx xmlns="http://www.topografix.com/GPX/1/1" xmlns:xsi="http://www.w3.org/2001/XMLSchema-instance" xsi:schemaLocation="http://www.topografix.com/GPX/1/1 http://www.topografix.com/GPX/1/1/gpx.xsd" version="1.1" creator="VisuGPX - https://www.visugpx.com">
  <metadata>
    <name>Un coup de pedale avant les courses</name>
    <desc><![CDATA[Un coup de pedale avant les courses]]></desc>
  </metadata>
  <wpt lat="47.49727" lon="6.75742">
    <ele>344</ele>
    <name><![CDATA[Point de cheminement 1]]></name>
    <desc><![CDATA[]]></desc>
  </wpt>
  <wpt lat="47.49345" lon="6.74846">
    <ele>345</ele>
    <name><![CDATA[Point de cheminement 2]]></name>
    <desc><![CDATA[]]></desc>
  </wpt>
  <wpt lat="47.4941" lon="6.71886">
    <ele>435</ele>
    <name><![CDATA[Point de cheminement 3]]></name>
    <desc><![CDATA[]]></desc>
  </wpt>
  <wpt lat="47.48564" lon="6.68684">
    <ele>342</ele>
    <name><![CDATA[Point de cheminement 4]]></name>
    <desc><![CDATA[]]></desc>
  </wpt>
  <wpt lat="47.4942" lon="6.65647">
    <ele>413</ele>
    <name><![CDATA[Point de cheminement 5]]></name>
    <desc><![CDATA[]]></desc>
  </wpt>
  <wpt lat="47.50226" lon="6.63713">
    <ele>457</ele>
    <name><![CDATA[Point de cheminement 6]]></name>
    <desc><![CDATA[]]></desc>
  </wpt>
  <wpt lat="47.49098" lon="6.64332">
    <ele>400</ele>
    <name><![CDATA[Point de cheminement 7]]></name>
    <desc><![CDATA[]]></desc>
  </wpt>
  <wpt lat="47.47462" lon="6.6455">
    <ele>396</ele>
    <name><![CDATA[Point de cheminement 8]]></name>
    <desc><![CDATA[]]></desc>
  </wpt>
  <wpt lat="47.47819" lon="6.67563">
    <ele>445</ele>
    <name><![CDATA[Point de cheminement 9]]></name>
    <desc><![CDATA[]]></desc>
  </wpt>
  <wpt lat="47.48658" lon="6.68907">
    <ele>344</ele>
    <name><![CDATA[Point de cheminement 10]]></name>
    <desc><![CDATA[]]></desc>
  </wpt>
  <wpt lat="47.49621" lon="6.70666">
    <ele>403</ele>
    <name><![CDATA[Point de cheminement 11]]></name>
    <desc><![CDATA[]]></desc>
  </wpt>
  <wpt lat="47.49269" lon="6.75353">
    <ele>341</ele>
    <name><![CDATA[Point de cheminement 12]]></name>
    <desc><![CDATA[]]></desc>
  </wpt>
  <wpt lat="47.49634" lon="6.75795">
    <ele>347</ele>
    <name><![CDATA[Point de cheminement 13]]></name>
    <desc><![CDATA[]]></desc>
  </wpt>
  <wpt lat="47.51225" lon="6.77189">
    <ele>376</ele>
    <name><![CDATA[Point de cheminement 14]]></name>
    <desc><![CDATA[]]></desc>
  </wpt>
  <trk>
    <name><![CDATA[Rue Antoine Coysevox]]></name>
    <desc><![CDATA[]]></desc>
    <trkseg>
      <trkpt lat="47.51792" lon="6.77477">
        <ele>388</ele>
        <time>2015-08-20T11:54:37.424Z</time>
      </trkpt>
      <trkpt lat="47.51794" lon="6.77472">
        <ele>388</ele>
        <time>2015-08-20T11:56:48.000Z</time>
      </trkpt>
      <trkpt lat="47.51795" lon="6.77472">
        <ele>388</ele>
        <time>2015-08-20T11:56:49.000Z</time>
      </trkpt>
      <trkpt lat="47.51799" lon="6.77473">
        <ele>388</ele>
        <time>2015-08-20T11:56:56.000Z</time>
      </trkpt>
      <trkpt lat="47.51799" lon="6.77474">
        <ele>388</ele>
        <time>2015-08-20T11:56:57.000Z</time>
      </trkpt>
      <trkpt lat="47.51802" lon="6.77477">
        <ele>388</ele>
        <time>2015-08-20T11:59:50.000Z</time>
      </trkpt>
      <trkpt lat="47.51805" lon="6.77477">
        <ele>388</ele>
        <time>2015-08-20T11:59:51.000Z</time>
      </trkpt>
      <trkpt lat="47.51806" lon="6.77482">
        <ele>388</ele>
        <time>2015-08-20T11:59:53.000Z</time>
      </trkpt>
      <trkpt lat="47.51807" lon="6.77484">
        <ele>388</ele>
        <time>2015-08-20T11:59:54.000Z</time>
      </trkpt>
      <trkpt lat="47.51805" lon="6.77488">
        <ele>388</ele>
        <time>2015-08-20T11:59:56.000Z</time>
      </trkpt>
      <trkpt lat="47.51804" lon="6.7749">
        <ele>388</ele>
        <time>2015-08-20T11:59:57.000Z</time>
      </trkpt>
      <trkpt lat="47.518" lon="6.7749">
        <ele>388</ele>
        <time>2015-08-20T12:00:00.000Z</time>
      </trkpt>
      <trkpt lat="47.51798" lon="6.77489">
        <ele>388</ele>
        <time>2015-08-20T12:00:00.999Z</time>
      </trkpt>
      <trkpt lat="47.51794" lon="6.77489">
        <ele>388</ele>
        <time>2015-08-20T12:00:13.000Z</time>
      </trkpt>
      <trkpt lat="47.51792" lon="6.77488">
        <ele>388</ele>
        <time>2015-08-20T12:00:14.000Z</time>
      </trkpt>
      <trkpt lat="47.51788" lon="6.77486">
        <ele>388</ele>
        <time>2015-08-20T12:00:16.000Z</time>
      </trkpt>
      <trkpt lat="47.51786" lon="6.77485">
        <ele>388</ele>
        <time>2015-08-20T12:00:17.000Z</time>
      </trkpt>
      <trkpt lat="47.51783" lon="6.77484">
        <ele>388</ele>
        <time>2015-08-20T12:00:18.000Z</time>
      </trkpt>
      <trkpt lat="47.51778" lon="6.77483">
        <ele>388</ele>
        <time>2015-08-20T12:00:19.000Z</time>
      </trkpt>
      <trkpt lat="47.51774" lon="6.77483">
        <ele>388</ele>
        <time>2015-08-20T12:00:20.000Z</time>
      </trkpt>
      <trkpt lat="47.51771" lon="6.77483">
        <ele>388</ele>
        <time>2015-08-20T12:00:21.000Z</time>
      </trkpt>
      <trkpt lat="47.51768" lon="6.77483">
        <ele>389</ele>
        <time>2015-08-20T12:00:22.000Z</time>
      </trkpt>
      <trkpt lat="47.51766" lon="6.77482">
        <ele>389</ele>
        <time>2015-08-20T12:00:23.000Z</time>
      </trkpt>
      <trkpt lat="47.51762" lon="6.7748">
        <ele>389</ele>
        <time>2015-08-20T12:00:25.000Z</time>
      </trkpt>
      <trkpt lat="47.51759" lon="6.77478">
        <ele>389</ele>
        <time>2015-08-20T12:00:26.000Z</time>
      </trkpt>
      <trkpt lat="47.51753" lon="6.77476">
        <ele>389</ele>
        <time>2015-08-20T12:00:27.000Z</time>
      </trkpt>
      <trkpt lat="47.51749" lon="6.77476">
        <ele>389</ele>
        <time>2015-08-20T12:00:28.000Z</time>
      </trkpt>
      <trkpt lat="47.51747" lon="6.77475">
        <ele>389</ele>
        <time>2015-08-20T12:00:28.999Z</time>
      </trkpt>
      <trkpt lat="47.51741" lon="6.77479">
        <ele>389</ele>
        <time>2015-08-20T12:00:30.000Z</time>
      </trkpt>
      <trkpt lat="47.51739" lon="6.77483">
        <ele>389</ele>
        <time>2015-08-20T12:00:31.000Z</time>
      </trkpt>
      <trkpt lat="47.51737" lon="6.77489">
        <ele>389</ele>
        <time>2015-08-20T12:00:32.000Z</time>
      </trkpt>
      <trkpt lat="47.51735" lon="6.77495">
        <ele>389</ele>
        <time>2015-08-20T12:00:32.999Z</time>
      </trkpt>
      <trkpt lat="47.51733" lon="6.77501">
        <ele>390</ele>
        <time>2015-08-20T12:00:34.000Z</time>
      </trkpt>
      <trkpt lat="47.51731" lon="6.77507">
        <ele>390</ele>
        <time>2015-08-20T12:00:35.000Z</time>
      </trkpt>
      <trkpt lat="47.51729" lon="6.77513">
        <ele>390</ele>
        <time>2015-08-20T12:00:36.000Z</time>
      </trkpt>
      <trkpt lat="47.51728" lon="6.77519">
        <ele>390</ele>
        <time>2015-08-20T12:00:37.000Z</time>
      </trkpt>
      <trkpt lat="47.51726" lon="6.77525">
        <ele>390</ele>
        <time>2015-08-20T12:00:38.000Z</time>
      </trkpt>
      <trkpt lat="47.51724" lon="6.7753">
        <ele>390</ele>
        <time>2015-08-20T12:00:39.000Z</time>
      </trkpt>
      <trkpt lat="47.51722" lon="6.77533">
        <ele>390</ele>
        <time>2015-08-20T12:00:40.000Z</time>
      </trkpt>
      <trkpt lat="47.5172" lon="6.77537">
        <ele>390</ele>
        <time>2015-08-20T12:00:41.000Z</time>
      </trkpt>
      <trkpt lat="47.51718" lon="6.77542">
        <ele>390</ele>
        <time>2015-08-20T12:00:42.000Z</time>
      </trkpt>
      <trkpt lat="47.51716" lon="6.77546">
        <ele>390</ele>
        <time>2015-08-20T12:00:43.000Z</time>
      </trkpt>
      <trkpt lat="47.51714" lon="6.77549">
        <ele>390</ele>
        <time>2015-08-20T12:00:44.000Z</time>
      </trkpt>
      <trkpt lat="47.51713" lon="6.77553">
        <ele>390</ele>
        <time>2015-08-20T12:00:45.000Z</time>
      </trkpt>
      <trkpt lat="47.51712" lon="6.77549">
        <ele>390</ele>
        <time>2015-08-20T12:00:46.000Z</time>
      </trkpt>
      <trkpt lat="47.51711" lon="6.77546">
        <ele>390</ele>
        <time>2015-08-20T12:00:47.000Z</time>
      </trkpt>
      <trkpt lat="47.51702" lon="6.77533">
        <ele>390</ele>
        <time>2015-08-20T12:00:48.000Z</time>
      </trkpt>
      <trkpt lat="47.51698" lon="6.77528">
        <ele>390</ele>
        <time>2015-08-20T12:00:49.000Z</time>
      </trkpt>
      <trkpt lat="47.51694" lon="6.77523">
        <ele>390</ele>
        <time>2015-08-20T12:00:50.000Z</time>
      </trkpt>
      <trkpt lat="47.51689" lon="6.77517">
        <ele>390</ele>
        <time>2015-08-20T12:00:51.000Z</time>
      </trkpt>
      <trkpt lat="47.51684" lon="6.77512">
        <ele>390</ele>
        <time>2015-08-20T12:00:52.000Z</time>
      </trkpt>
      <trkpt lat="47.51679" lon="6.77506">
        <ele>389</ele>
        <time>2015-08-20T12:00:53.000Z</time>
      </trkpt>
      <trkpt lat="47.51673" lon="6.775">
        <ele>389</ele>
        <time>2015-08-20T12:00:54.000Z</time>
      </trkpt>
      <trkpt lat="47.51667" lon="6.77494">
        <ele>389</ele>
        <time>2015-08-20T12:00:55.000Z</time>
      </trkpt>
      <trkpt lat="47.51662" lon="6.77487">
        <ele>388</ele>
        <time>2015-08-20T12:00:56.000Z</time>
      </trkpt>
      <trkpt lat="47.51657" lon="6.7748">
        <ele>387</ele>
        <time>2015-08-20T12:00:57.000Z</time>
      </trkpt>
      <trkpt lat="47.5165" lon="6.77474">
        <ele>387</ele>
        <time>2015-08-20T12:00:58.000Z</time>
      </trkpt>
      <trkpt lat="47.51644" lon="6.77468">
        <ele>386</ele>
        <time>2015-08-20T12:00:59.000Z</time>
      </trkpt>
      <trkpt lat="47.51638" lon="6.77462">
        <ele>386</ele>
        <time>2015-08-20T12:01:00.000Z</time>
      </trkpt>
      <trkpt lat="47.51633" lon="6.77455">
        <ele>386</ele>
        <time>2015-08-20T12:01:01.000Z</time>
      </trkpt>
      <trkpt lat="47.51627" lon="6.77449">
        <ele>386</ele>
        <time>2015-08-20T12:01:02.000Z</time>
      </trkpt>
      <trkpt lat="47.51622" lon="6.77442">
        <ele>385</ele>
        <time>2015-08-20T12:01:03.000Z</time>
      </trkpt>
      <trkpt lat="47.51616" lon="6.77436">
        <ele>385</ele>
        <time>2015-08-20T12:01:04.000Z</time>
      </trkpt>
      <trkpt lat="47.5161" lon="6.7743">
        <ele>385</ele>
        <time>2015-08-20T12:01:05.000Z</time>
      </trkpt>
      <trkpt lat="47.51604" lon="6.77423">
        <ele>385</ele>
        <time>2015-08-20T12:01:06.000Z</time>
      </trkpt>
      <trkpt lat="47.51599" lon="6.77416">
        <ele>383</ele>
        <time>2015-08-20T12:01:07.000Z</time>
      </trkpt>
      <trkpt lat="47.51593" lon="6.7741">
        <ele>383</ele>
        <time>2015-08-20T12:01:08.000Z</time>
      </trkpt>
      <trkpt lat="47.51587" lon="6.77403">
        <ele>383</ele>
        <time>2015-08-20T12:01:09.000Z</time>
      </trkpt>
      <trkpt lat="47.51581" lon="6.77397">
        <ele>382</ele>
        <time>2015-08-20T12:01:10.000Z</time>
      </trkpt>
      <trkpt lat="47.51575" lon="6.77389">
        <ele>381</ele>
        <time>2015-08-20T12:01:11.000Z</time>
      </trkpt>
      <trkpt lat="47.51569" lon="6.77382">
        <ele>381</ele>
        <time>2015-08-20T12:01:12.000Z</time>
      </trkpt>
      <trkpt lat="47.51563" lon="6.77375">
        <ele>381</ele>
        <time>2015-08-20T12:01:13.000Z</time>
      </trkpt>
      <trkpt lat="47.51557" lon="6.77367">
        <ele>381</ele>
        <time>2015-08-20T12:01:14.000Z</time>
      </trkpt>
      <trkpt lat="47.51551" lon="6.7736">
        <ele>380</ele>
        <time>2015-08-20T12:01:15.000Z</time>
      </trkpt>
      <trkpt lat="47.51544" lon="6.77353">
        <ele>380</ele>
        <time>2015-08-20T12:01:16.000Z</time>
      </trkpt>
      <trkpt lat="47.51537" lon="6.77346">
        <ele>380</ele>
        <time>2015-08-20T12:01:17.000Z</time>
      </trkpt>
      <trkpt lat="47.51529" lon="6.77338">
        <ele>380</ele>
        <time>2015-08-20T12:01:18.000Z</time>
      </trkpt>
      <trkpt lat="47.51522" lon="6.7733">
        <ele>378</ele>
        <time>2015-08-20T12:01:19.000Z</time>
      </trkpt>
      <trkpt lat="47.51515" lon="6.77322">
        <ele>378</ele>
        <time>2015-08-20T12:01:20.000Z</time>
      </trkpt>
      <trkpt lat="47.51508" lon="6.77313">
        <ele>378</ele>
        <time>2015-08-20T12:01:21.000Z</time>
      </trkpt>
      <trkpt lat="47.51502" lon="6.77303">
        <ele>378</ele>
        <time>2015-08-20T12:01:22.000Z</time>
      </trkpt>
      <trkpt lat="47.51497" lon="6.77292">
        <ele>377</ele>
        <time>2015-08-20T12:01:23.000Z</time>
      </trkpt>
      <trkpt lat="47.51494" lon="6.77281">
        <ele>377</ele>
        <time>2015-08-20T12:01:24.000Z</time>
      </trkpt>
      <trkpt lat="47.51491" lon="6.7727">
        <ele>376</ele>
        <time>2015-08-20T12:01:25.000Z</time>
      </trkpt>
      <trkpt lat="47.51488" lon="6.77258">
        <ele>376</ele>
        <time>2015-08-20T12:01:26.000Z</time>
      </trkpt>
      <trkpt lat="47.51487" lon="6.77246">
        <ele>376</ele>
        <time>2015-08-20T12:01:27.000Z</time>
      </trkpt>
      <trkpt lat="47.51486" lon="6.77234">
        <ele>375</ele>
        <time>2015-08-20T12:01:28.000Z</time>
      </trkpt>
      <trkpt lat="47.51484" lon="6.77223">
        <ele>375</ele>
        <time>2015-08-20T12:01:29.000Z</time>
      </trkpt>
      <trkpt lat="47.51484" lon="6.77212">
        <ele>375</ele>
        <time>2015-08-20T12:01:30.000Z</time>
      </trkpt>
      <trkpt lat="47.51481" lon="6.77203">
        <ele>375</ele>
        <time>2015-08-20T12:01:31.000Z</time>
      </trkpt>
      <trkpt lat="47.51475" lon="6.77198">
        <ele>375</ele>
        <time>2015-08-20T12:01:32.000Z</time>
      </trkpt>
      <trkpt lat="47.51467" lon="6.77198">
        <ele>375</ele>
        <time>2015-08-20T12:01:33.000Z</time>
      </trkpt>
      <trkpt lat="47.5146" lon="6.77199">
        <ele>375</ele>
        <time>2015-08-20T12:01:34.000Z</time>
      </trkpt>
      <trkpt lat="47.51452" lon="6.77204">
        <ele>375</ele>
        <time>2015-08-20T12:01:35.000Z</time>
      </trkpt>
      <trkpt lat="47.51445" lon="6.77207">
        <ele>375</ele>
        <time>2015-08-20T12:01:36.000Z</time>
      </trkpt>
      <trkpt lat="47.51437" lon="6.77211">
        <ele>375</ele>
        <time>2015-08-20T12:01:37.000Z</time>
      </trkpt>
      <trkpt lat="47.51429" lon="6.77214">
        <ele>375</ele>
        <time>2015-08-20T12:01:38.000Z</time>
      </trkpt>
      <trkpt lat="47.51421" lon="6.77218">
        <ele>375</ele>
        <time>2015-08-20T12:01:39.000Z</time>
      </trkpt>
      <trkpt lat="47.51414" lon="6.77221">
        <ele>376</ele>
        <time>2015-08-20T12:01:40.000Z</time>
      </trkpt>
      <trkpt lat="47.51408" lon="6.77224">
        <ele>376</ele>
        <time>2015-08-20T12:01:41.000Z</time>
      </trkpt>
      <trkpt lat="47.51402" lon="6.77227">
        <ele>376</ele>
        <time>2015-08-20T12:01:42.000Z</time>
      </trkpt>
      <trkpt lat="47.51396" lon="6.7723">
        <ele>376</ele>
        <time>2015-08-20T12:01:43.000Z</time>
      </trkpt>
      <trkpt lat="47.5139" lon="6.77233">
        <ele>376</ele>
        <time>2015-08-20T12:01:44.000Z</time>
      </trkpt>
      <trkpt lat="47.51385" lon="6.77237">
        <ele>376</ele>
        <time>2015-08-20T12:01:45.000Z</time>
      </trkpt>
      <trkpt lat="47.51381" lon="6.7724">
        <ele>376</ele>
        <time>2015-08-20T12:01:46.000Z</time>
      </trkpt>
      <trkpt lat="47.51376" lon="6.77242">
        <ele>376</ele>
        <time>2015-08-20T12:01:47.000Z</time>
      </trkpt>
      <trkpt lat="47.51371" lon="6.77245">
        <ele>376</ele>
        <time>2015-08-20T12:01:48.000Z</time>
      </trkpt>
      <trkpt lat="47.51368" lon="6.77247">
        <ele>376</ele>
        <time>2015-08-20T12:01:49.000Z</time>
      </trkpt>
      <trkpt lat="47.51364" lon="6.77249">
        <ele>376</ele>
        <time>2015-08-20T12:01:50.000Z</time>
      </trkpt>
      <trkpt lat="47.51361" lon="6.77251">
        <ele>378</ele>
        <time>2015-08-20T12:01:51.000Z</time>
      </trkpt>
      <trkpt lat="47.51357" lon="6.77253">
        <ele>378</ele>
        <time>2015-08-20T12:01:52.000Z</time>
      </trkpt>
      <trkpt lat="47.51354" lon="6.77256">
        <ele>378</ele>
        <time>2015-08-20T12:01:53.000Z</time>
      </trkpt>
      <trkpt lat="47.51352" lon="6.77258">
        <ele>378</ele>
        <time>2015-08-20T12:01:54.000Z</time>
      </trkpt>
      <trkpt lat="47.51349" lon="6.77261">
        <ele>378</ele>
        <time>2015-08-20T12:01:55.000Z</time>
      </trkpt>
      <trkpt lat="47.51347" lon="6.77264">
        <ele>378</ele>
        <time>2015-08-20T12:01:56.000Z</time>
      </trkpt>
      <trkpt lat="47.51344" lon="6.77265">
        <ele>378</ele>
        <time>2015-08-20T12:01:57.000Z</time>
      </trkpt>
      <trkpt lat="47.51342" lon="6.77268">
        <ele>378</ele>
        <time>2015-08-20T12:01:58.000Z</time>
      </trkpt>
      <trkpt lat="47.51339" lon="6.7727">
        <ele>378</ele>
        <time>2015-08-20T12:01:59.000Z</time>
      </trkpt>
      <trkpt lat="47.51336" lon="6.77271">
        <ele>378</ele>
        <time>2015-08-20T12:02:00.000Z</time>
      </trkpt>
      <trkpt lat="47.51333" lon="6.77273">
        <ele>378</ele>
        <time>2015-08-20T12:02:01.000Z</time>
      </trkpt>
      <trkpt lat="47.51331" lon="6.77274">
        <ele>377</ele>
        <time>2015-08-20T12:02:02.000Z</time>
      </trkpt>
      <trkpt lat="47.51328" lon="6.77275">
        <ele>377</ele>
        <time>2015-08-20T12:02:03.000Z</time>
      </trkpt>
      <trkpt lat="47.51325" lon="6.77275">
        <ele>377</ele>
        <time>2015-08-20T12:02:04.000Z</time>
      </trkpt>
      <trkpt lat="47.51323" lon="6.77276">
        <ele>377</ele>
        <time>2015-08-20T12:02:05.000Z</time>
      </trkpt>
      <trkpt lat="47.5132" lon="6.77276">
        <ele>377</ele>
        <time>2015-08-20T12:02:06.000Z</time>
      </trkpt>
      <trkpt lat="47.51317" lon="6.77275">
        <ele>377</ele>
        <time>2015-08-20T12:02:07.000Z</time>
      </trkpt>
      <trkpt lat="47.51314" lon="6.77273">
        <ele>377</ele>
        <time>2015-08-20T12:02:08.000Z</time>
      </trkpt>
      <trkpt lat="47.51311" lon="6.77272">
        <ele>377</ele>
        <time>2015-08-20T12:02:09.000Z</time>
      </trkpt>
      <trkpt lat="47.51308" lon="6.77271">
        <ele>377</ele>
        <time>2015-08-20T12:02:10.000Z</time>
      </trkpt>
      <trkpt lat="47.51305" lon="6.7727">
        <ele>377</ele>
        <time>2015-08-20T12:02:11.000Z</time>
      </trkpt>
      <trkpt lat="47.51302" lon="6.77268">
        <ele>377</ele>
        <time>2015-08-20T12:02:12.000Z</time>
      </trkpt>
      <trkpt lat="47.51299" lon="6.77266">
        <ele>377</ele>
        <time>2015-08-20T12:02:13.000Z</time>
      </trkpt>
      <trkpt lat="47.51295" lon="6.77264">
        <ele>377</ele>
        <time>2015-08-20T12:02:14.000Z</time>
      </trkpt>
      <trkpt lat="47.51292" lon="6.77263">
        <ele>377</ele>
        <time>2015-08-20T12:02:15.000Z</time>
      </trkpt>
      <trkpt lat="47.51289" lon="6.77261">
        <ele>377</ele>
        <time>2015-08-20T12:02:16.000Z</time>
      </trkpt>
      <trkpt lat="47.51286" lon="6.7726">
        <ele>377</ele>
        <time>2015-08-20T12:02:17.000Z</time>
      </trkpt>
      <trkpt lat="47.51282" lon="6.77259">
        <ele>377</ele>
        <time>2015-08-20T12:02:18.000Z</time>
      </trkpt>
      <trkpt lat="47.51279" lon="6.77257">
        <ele>377</ele>
        <time>2015-08-20T12:02:19.000Z</time>
      </trkpt>
      <trkpt lat="47.51276" lon="6.77255">
        <ele>377</ele>
        <time>2015-08-20T12:02:20.000Z</time>
      </trkpt>
      <trkpt lat="47.51273" lon="6.77253">
        <ele>378</ele>
        <time>2015-08-20T12:02:21.000Z</time>
      </trkpt>
      <trkpt lat="47.51269" lon="6.77251">
        <ele>378</ele>
        <time>2015-08-20T12:02:22.000Z</time>
      </trkpt>
      <trkpt lat="47.51265" lon="6.77248">
        <ele>378</ele>
        <time>2015-08-20T12:02:23.000Z</time>
      </trkpt>
      <trkpt lat="47.51262" lon="6.77245">
        <ele>378</ele>
        <time>2015-08-20T12:02:24.000Z</time>
      </trkpt>
      <trkpt lat="47.51258" lon="6.77241">
        <ele>378</ele>
        <time>2015-08-20T12:02:25.000Z</time>
      </trkpt>
      <trkpt lat="47.51254" lon="6.77237">
        <ele>378</ele>
        <time>2015-08-20T12:02:26.000Z</time>
      </trkpt>
      <trkpt lat="47.5125" lon="6.77229">
        <ele>378</ele>
        <time>2015-08-20T12:02:27.000Z</time>
      </trkpt>
      <trkpt lat="47.51247" lon="6.77223">
        <ele>376</ele>
        <time>2015-08-20T12:02:28.000Z</time>
      </trkpt>
      <trkpt lat="47.51244" lon="6.77218">
        <ele>376</ele>
        <time>2015-08-20T12:02:29.000Z</time>
      </trkpt>
      <trkpt lat="47.51241" lon="6.77213">
        <ele>376</ele>
        <time>2015-08-20T12:02:30.000Z</time>
      </trkpt>
      <trkpt lat="47.51238" lon="6.77207">
        <ele>376</ele>
        <time>2015-08-20T12:02:31.000Z</time>
      </trkpt>
      <trkpt lat="47.51234" lon="6.77201">
        <ele>376</ele>
        <time>2015-08-20T12:02:32.000Z</time>
      </trkpt>
      <trkpt lat="47.5123" lon="6.77196">
        <ele>376</ele>
        <time>2015-08-20T12:02:33.000Z</time>
      </trkpt>
      <trkpt lat="47.51227" lon="6.7719">
        <ele>376</ele>
        <time>2015-08-20T12:02:34.000Z</time>
      </trkpt>
      <trkpt lat="47.51224" lon="6.77183">
        <ele>376</ele>
        <time>2015-08-20T12:02:35.000Z</time>
      </trkpt>
      <trkpt lat="47.5122" lon="6.77177">
        <ele>376</ele>
        <time>2015-08-20T12:02:36.000Z</time>
      </trkpt>
      <trkpt lat="47.51217" lon="6.77171">
        <ele>376</ele>
        <time>2015-08-20T12:02:37.000Z</time>
      </trkpt>
      <trkpt lat="47.51214" lon="6.77164">
        <ele>378</ele>
        <time>2015-08-20T12:02:38.000Z</time>
      </trkpt>
      <trkpt lat="47.5121" lon="6.77157">
        <ele>378</ele>
        <time>2015-08-20T12:02:39.000Z</time>
      </trkpt>
      <trkpt lat="47.51206" lon="6.7715">
        <ele>378</ele>
        <time>2015-08-20T12:02:40.000Z</time>
      </trkpt>
      <trkpt lat="47.51203" lon="6.77143">
        <ele>378</ele>
        <time>2015-08-20T12:02:41.000Z</time>
      </trkpt>
      <trkpt lat="47.51198" lon="6.77135">
        <ele>378</ele>
        <time>2015-08-20T12:02:42.000Z</time>
      </trkpt>
      <trkpt lat="47.51194" lon="6.77126">
        <ele>378</ele>
        <time>2015-08-20T12:02:43.000Z</time>
      </trkpt>
      <trkpt lat="47.51189" lon="6.77118">
        <ele>378</ele>
        <time>2015-08-20T12:02:44.000Z</time>
      </trkpt>
      <trkpt lat="47.51184" lon="6.77109">
        <ele>378</ele>
        <time>2015-08-20T12:02:45.000Z</time>
      </trkpt>
      <trkpt lat="47.51179" lon="6.77101">
        <ele>378</ele>
        <time>2015-08-20T12:02:46.000Z</time>
      </trkpt>
      <trkpt lat="47.51174" lon="6.77092">
        <ele>378</ele>
        <time>2015-08-20T12:02:47.000Z</time>
      </trkpt>
      <trkpt lat="47.51169" lon="6.77083">
        <ele>378</ele>
        <time>2015-08-20T12:02:48.000Z</time>
      </trkpt>
      <trkpt lat="47.51165" lon="6.77075">
        <ele>377</ele>
        <time>2015-08-20T12:02:49.000Z</time>
      </trkpt>
      <trkpt lat="47.51159" lon="6.77068">
        <ele>377</ele>
        <time>2015-08-20T12:02:50.000Z</time>
      </trkpt>
      <trkpt lat="47.51153" lon="6.7706">
        <ele>376</ele>
        <time>2015-08-20T12:02:51.000Z</time>
      </trkpt>
      <trkpt lat="47.51147" lon="6.77054">
        <ele>376</ele>
        <time>2015-08-20T12:02:52.000Z</time>
      </trkpt>
      <trkpt lat="47.51141" lon="6.77048">
        <ele>376</ele>
        <time>2015-08-20T12:02:53.000Z</time>
      </trkpt>
      <trkpt lat="47.51134" lon="6.77042">
        <ele>375</ele>
        <time>2015-08-20T12:02:54.000Z</time>
      </trkpt>
      <trkpt lat="47.51128" lon="6.77036">
        <ele>375</ele>
        <time>2015-08-20T12:02:55.000Z</time>
      </trkpt>
      <trkpt lat="47.51122" lon="6.7703">
        <ele>375</ele>
        <time>2015-08-20T12:02:56.000Z</time>
      </trkpt>
      <trkpt lat="47.51116" lon="6.77025">
        <ele>375</ele>
        <time>2015-08-20T12:02:57.000Z</time>
      </trkpt>
      <trkpt lat="47.51107" lon="6.77022">
        <ele>375</ele>
        <time>2015-08-20T12:02:58.000Z</time>
      </trkpt>
      <trkpt lat="47.511" lon="6.77017">
        <ele>375</ele>
        <time>2015-08-20T12:02:59.000Z</time>
      </trkpt>
      <trkpt lat="47.51094" lon="6.7701">
        <ele>375</ele>
        <time>2015-08-20T12:03:00.000Z</time>
      </trkpt>
      <trkpt lat="47.51089" lon="6.77005">
        <ele>375</ele>
        <time>2015-08-20T12:03:01.000Z</time>
      </trkpt>
      <trkpt lat="47.51084" lon="6.77">
        <ele>375</ele>
        <time>2015-08-20T12:03:02.000Z</time>
      </trkpt>
      <trkpt lat="47.51078" lon="6.76995">
        <ele>375</ele>
        <time>2015-08-20T12:03:03.000Z</time>
      </trkpt>
      <trkpt lat="47.51073" lon="6.7699">
        <ele>375</ele>
        <time>2015-08-20T12:03:04.000Z</time>
      </trkpt>
      <trkpt lat="47.51067" lon="6.76984">
        <ele>375</ele>
        <time>2015-08-20T12:03:05.000Z</time>
      </trkpt>
      <trkpt lat="47.51061" lon="6.76979">
        <ele>375</ele>
        <time>2015-08-20T12:03:06.000Z</time>
      </trkpt>
      <trkpt lat="47.51055" lon="6.76973">
        <ele>375</ele>
        <time>2015-08-20T12:03:07.000Z</time>
      </trkpt>
      <trkpt lat="47.5105" lon="6.76968">
        <ele>375</ele>
        <time>2015-08-20T12:03:08.000Z</time>
      </trkpt>
      <trkpt lat="47.51044" lon="6.76963">
        <ele>375</ele>
        <time>2015-08-20T12:03:09.000Z</time>
      </trkpt>
      <trkpt lat="47.51038" lon="6.76959">
        <ele>375</ele>
        <time>2015-08-20T12:03:10.000Z</time>
      </trkpt>
      <trkpt lat="47.51033" lon="6.76955">
        <ele>375</ele>
        <time>2015-08-20T12:03:11.000Z</time>
      </trkpt>
      <trkpt lat="47.51029" lon="6.7695">
        <ele>375</ele>
        <time>2015-08-20T12:03:12.000Z</time>
      </trkpt>
      <trkpt lat="47.51024" lon="6.76943">
        <ele>375</ele>
        <time>2015-08-20T12:03:13.000Z</time>
      </trkpt>
      <trkpt lat="47.5102" lon="6.76936">
        <ele>375</ele>
        <time>2015-08-20T12:03:14.000Z</time>
      </trkpt>
      <trkpt lat="47.51016" lon="6.76931">
        <ele>375</ele>
        <time>2015-08-20T12:03:15.000Z</time>
      </trkpt>
      <trkpt lat="47.5101" lon="6.76928">
        <ele>375</ele>
        <time>2015-08-20T12:03:16.000Z</time>
      </trkpt>
      <trkpt lat="47.51006" lon="6.76923">
        <ele>376</ele>
        <time>2015-08-20T12:03:17.000Z</time>
      </trkpt>
      <trkpt lat="47.51006" lon="6.76918">
        <ele>376</ele>
        <time>2015-08-20T12:03:18.000Z</time>
      </trkpt>
      <trkpt lat="47.51002" lon="6.76913">
        <ele>376</ele>
        <time>2015-08-20T12:03:19.000Z</time>
      </trkpt>
      <trkpt lat="47.51" lon="6.76907">
        <ele>376</ele>
        <time>2015-08-20T12:03:20.000Z</time>
      </trkpt>
      <trkpt lat="47.50995" lon="6.76903">
        <ele>377</ele>
        <time>2015-08-20T12:03:21.000Z</time>
      </trkpt>
      <trkpt lat="47.5099" lon="6.76899">
        <ele>377</ele>
        <time>2015-08-20T12:03:22.000Z</time>
      </trkpt>
      <trkpt lat="47.50984" lon="6.76895">
        <ele>377</ele>
        <time>2015-08-20T12:03:23.000Z</time>
      </trkpt>
      <trkpt lat="47.50979" lon="6.76895">
        <ele>377</ele>
        <time>2015-08-20T12:03:24.000Z</time>
      </trkpt>
      <trkpt lat="47.50973" lon="6.76895">
        <ele>377</ele>
        <time>2015-08-20T12:03:25.000Z</time>
      </trkpt>
      <trkpt lat="47.50968" lon="6.76893">
        <ele>377</ele>
        <time>2015-08-20T12:03:26.000Z</time>
      </trkpt>
      <trkpt lat="47.50963" lon="6.76891">
        <ele>377</ele>
        <time>2015-08-20T12:03:26.999Z</time>
      </trkpt>
      <trkpt lat="47.5096" lon="6.76887">
        <ele>377</ele>
        <time>2015-08-20T12:03:28.000Z</time>
      </trkpt>
      <trkpt lat="47.50956" lon="6.76883">
        <ele>377</ele>
        <time>2015-08-20T12:03:29.000Z</time>
      </trkpt>
      <trkpt lat="47.50952" lon="6.7688">
        <ele>378</ele>
        <time>2015-08-20T12:03:30.001Z</time>
      </trkpt>
      <trkpt lat="47.50949" lon="6.76877">
        <ele>378</ele>
        <time>2015-08-20T12:03:31.000Z</time>
      </trkpt>
      <trkpt lat="47.50947" lon="6.76873">
        <ele>378</ele>
        <time>2015-08-20T12:03:32.000Z</time>
      </trkpt>
      <trkpt lat="47.50944" lon="6.76871">
        <ele>378</ele>
        <time>2015-08-20T12:03:33.000Z</time>
      </trkpt>
      <trkpt lat="47.50942" lon="6.76867">
        <ele>378</ele>
        <time>2015-08-20T12:03:34.000Z</time>
      </trkpt>
      <trkpt lat="47.50938" lon="6.76863">
        <ele>378</ele>
        <time>2015-08-20T12:03:35.000Z</time>
      </trkpt>
      <trkpt lat="47.50935" lon="6.76859">
        <ele>378</ele>
        <time>2015-08-20T12:03:36.000Z</time>
      </trkpt>
      <trkpt lat="47.50933" lon="6.76855">
        <ele>378</ele>
        <time>2015-08-20T12:03:37.000Z</time>
      </trkpt>
      <trkpt lat="47.5093" lon="6.76851">
        <ele>379</ele>
        <time>2015-08-20T12:03:38.000Z</time>
      </trkpt>
      <trkpt lat="47.50927" lon="6.76847">
        <ele>379</ele>
        <time>2015-08-20T12:03:39.000Z</time>
      </trkpt>
      <trkpt lat="47.50924" lon="6.76842">
        <ele>379</ele>
        <time>2015-08-20T12:03:40.000Z</time>
      </trkpt>
      <trkpt lat="47.50922" lon="6.76838">
        <ele>379</ele>
        <time>2015-08-20T12:03:41.000Z</time>
      </trkpt>
      <trkpt lat="47.5092" lon="6.76833">
        <ele>380</ele>
        <time>2015-08-20T12:03:42.000Z</time>
      </trkpt>
      <trkpt lat="47.50918" lon="6.76828">
        <ele>379</ele>
        <time>2015-08-20T12:03:43.000Z</time>
      </trkpt>
      <trkpt lat="47.50916" lon="6.76823">
        <ele>380</ele>
        <time>2015-08-20T12:03:44.000Z</time>
      </trkpt>
      <trkpt lat="47.50914" lon="6.76818">
        <ele>381</ele>
        <time>2015-08-20T12:03:45.000Z</time>
      </trkpt>
      <trkpt lat="47.50912" lon="6.76813">
        <ele>381</ele>
        <time>2015-08-20T12:03:46.000Z</time>
      </trkpt>
      <trkpt lat="47.5091" lon="6.76808">
        <ele>381</ele>
        <time>2015-08-20T12:03:47.000Z</time>
      </trkpt>
      <trkpt lat="47.50908" lon="6.76803">
        <ele>381</ele>
        <time>2015-08-20T12:03:48.000Z</time>
      </trkpt>
      <trkpt lat="47.50906" lon="6.76799">
        <ele>381</ele>
        <time>2015-08-20T12:03:49.000Z</time>
      </trkpt>
      <trkpt lat="47.50905" lon="6.76794">
        <ele>381</ele>
        <time>2015-08-20T12:03:50.000Z</time>
      </trkpt>
      <trkpt lat="47.50903" lon="6.76788">
        <ele>381</ele>
        <time>2015-08-20T12:03:51.000Z</time>
      </trkpt>
      <trkpt lat="47.50901" lon="6.76783">
        <ele>381</ele>
        <time>2015-08-20T12:03:52.000Z</time>
      </trkpt>
      <trkpt lat="47.509" lon="6.76778">
        <ele>381</ele>
        <time>2015-08-20T12:03:53.001Z</time>
      </trkpt>
      <trkpt lat="47.50897" lon="6.76773">
        <ele>381</ele>
        <time>2015-08-20T12:03:54.000Z</time>
      </trkpt>
      <trkpt lat="47.50895" lon="6.76767">
        <ele>381</ele>
        <time>2015-08-20T12:03:55.000Z</time>
      </trkpt>
      <trkpt lat="47.50893" lon="6.76763">
        <ele>381</ele>
        <time>2015-08-20T12:03:56.000Z</time>
      </trkpt>
      <trkpt lat="47.50891" lon="6.76758">
        <ele>381</ele>
        <time>2015-08-20T12:03:57.000Z</time>
      </trkpt>
      <trkpt lat="47.50889" lon="6.76753">
        <ele>381</ele>
        <time>2015-08-20T12:03:58.000Z</time>
      </trkpt>
      <trkpt lat="47.50888" lon="6.76749">
        <ele>382</ele>
        <time>2015-08-20T12:03:58.999Z</time>
      </trkpt>
      <trkpt lat="47.50884" lon="6.76742">
        <ele>382</ele>
        <time>2015-08-20T12:04:00.000Z</time>
      </trkpt>
      <trkpt lat="47.50883" lon="6.76736">
        <ele>382</ele>
        <time>2015-08-20T12:04:01.000Z</time>
      </trkpt>
      <trkpt lat="47.50881" lon="6.7673">
        <ele>383</ele>
        <time>2015-08-20T12:04:02.000Z</time>
      </trkpt>
      <trkpt lat="47.50879" lon="6.76723">
        <ele>383</ele>
        <time>2015-08-20T12:04:03.000Z</time>
      </trkpt>
      <trkpt lat="47.50878" lon="6.76718">
        <ele>383</ele>
        <time>2015-08-20T12:04:04.000Z</time>
      </trkpt>
      <trkpt lat="47.50876" lon="6.76713">
        <ele>383</ele>
        <time>2015-08-20T12:04:05.000Z</time>
      </trkpt>
      <trkpt lat="47.50875" lon="6.76709">
        <ele>383</ele>
        <time>2015-08-20T12:04:06.000Z</time>
      </trkpt>
      <trkpt lat="47.50872" lon="6.76704">
        <ele>383</ele>
        <time>2015-08-20T12:04:07.000Z</time>
      </trkpt>
      <trkpt lat="47.50871" lon="6.76699">
        <ele>384</ele>
        <time>2015-08-20T12:04:08.000Z</time>
      </trkpt>
      <trkpt lat="47.50869" lon="6.76695">
        <ele>384</ele>
        <time>2015-08-20T12:04:09.001Z</time>
      </trkpt>
      <trkpt lat="47.50867" lon="6.7669">
        <ele>384</ele>
        <time>2015-08-20T12:04:10.000Z</time>
      </trkpt>
      <trkpt lat="47.50865" lon="6.76686">
        <ele>384</ele>
        <time>2015-08-20T12:04:11.000Z</time>
      </trkpt>
      <trkpt lat="47.50863" lon="6.76682">
        <ele>384</ele>
        <time>2015-08-20T12:04:12.000Z</time>
      </trkpt>
      <trkpt lat="47.50862" lon="6.76678">
        <ele>385</ele>
        <time>2015-08-20T12:04:12.999Z</time>
      </trkpt>
      <trkpt lat="47.5086" lon="6.76675">
        <ele>385</ele>
        <time>2015-08-20T12:04:14.000Z</time>
      </trkpt>
      <trkpt lat="47.50859" lon="6.76671">
        <ele>385</ele>
        <time>2015-08-20T12:04:15.000Z</time>
      </trkpt>
      <trkpt lat="47.50856" lon="6.76668">
        <ele>385</ele>
        <time>2015-08-20T12:04:16.000Z</time>
      </trkpt>
      <trkpt lat="47.50854" lon="6.76664">
        <ele>387</ele>
        <time>2015-08-20T12:04:17.001Z</time>
      </trkpt>
      <trkpt lat="47.50851" lon="6.76659">
        <ele>387</ele>
        <time>2015-08-20T12:04:18.000Z</time>
      </trkpt>
      <trkpt lat="47.5085" lon="6.76656">
        <ele>387</ele>
        <time>2015-08-20T12:04:19.000Z</time>
      </trkpt>
      <trkpt lat="47.50849" lon="6.76652">
        <ele>387</ele>
        <time>2015-08-20T12:04:20.001Z</time>
      </trkpt>
      <trkpt lat="47.50847" lon="6.76649">
        <ele>387</ele>
        <time>2015-08-20T12:04:20.999Z</time>
      </trkpt>
      <trkpt lat="47.50844" lon="6.76644">
        <ele>387</ele>
        <time>2015-08-20T12:04:23.000Z</time>
      </trkpt>
      <trkpt lat="47.50843" lon="6.76642">
        <ele>387</ele>
        <time>2015-08-20T12:04:24.000Z</time>
      </trkpt>
      <trkpt lat="47.50842" lon="6.76639">
        <ele>387</ele>
        <time>2015-08-20T12:04:26.000Z</time>
      </trkpt>
      <trkpt lat="47.50841" lon="6.76636">
        <ele>387</ele>
        <time>2015-08-20T12:04:27.000Z</time>
      </trkpt>
      <trkpt lat="47.50838" lon="6.7663">
        <ele>387</ele>
        <time>2015-08-20T12:04:28.999Z</time>
      </trkpt>
      <trkpt lat="47.50837" lon="6.76625">
        <ele>387</ele>
        <time>2015-08-20T12:04:30.000Z</time>
      </trkpt>
      <trkpt lat="47.50835" lon="6.7662">
        <ele>387</ele>
        <time>2015-08-20T12:04:31.000Z</time>
      </trkpt>
      <trkpt lat="47.50834" lon="6.76616">
        <ele>387</ele>
        <time>2015-08-20T12:04:32.000Z</time>
      </trkpt>
      <trkpt lat="47.50832" lon="6.76611">
        <ele>390</ele>
        <time>2015-08-20T12:04:33.000Z</time>
      </trkpt>
      <trkpt lat="47.50831" lon="6.76606">
        <ele>390</ele>
        <time>2015-08-20T12:04:34.000Z</time>
      </trkpt>
      <trkpt lat="47.5083" lon="6.76601">
        <ele>390</ele>
        <time>2015-08-20T12:04:35.000Z</time>
      </trkpt>
      <trkpt lat="47.50828" lon="6.76598">
        <ele>390</ele>
        <time>2015-08-20T12:04:36.000Z</time>
      </trkpt>
      <trkpt lat="47.50824" lon="6.76595">
        <ele>390</ele>
        <time>2015-08-20T12:04:37.999Z</time>
      </trkpt>
      <trkpt lat="47.50823" lon="6.76596">
        <ele>390</ele>
        <time>2015-08-20T12:04:39.000Z</time>
      </trkpt>
      <trkpt lat="47.50819" lon="6.76591">
        <ele>390</ele>
        <time>2015-08-20T12:04:42.000Z</time>
      </trkpt>
      <trkpt lat="47.50818" lon="6.76588">
        <ele>390</ele>
        <time>2015-08-20T12:04:43.000Z</time>
      </trkpt>
      <trkpt lat="47.50816" lon="6.76585">
        <ele>390</ele>
        <time>2015-08-20T12:04:44.000Z</time>
      </trkpt>
      <trkpt lat="47.50813" lon="6.76583">
        <ele>391</ele>
        <time>2015-08-20T12:04:45.000Z</time>
      </trkpt>
      <trkpt lat="47.50811" lon="6.76583">
        <ele>391</ele>
        <time>2015-08-20T12:04:46.000Z</time>
      </trkpt>
      <trkpt lat="47.50808" lon="6.76584">
        <ele>390</ele>
        <time>2015-08-20T12:04:47.000Z</time>
      </trkpt>
      <trkpt lat="47.50806" lon="6.76585">
        <ele>390</ele>
        <time>2015-08-20T12:04:48.000Z</time>
      </trkpt>
      <trkpt lat="47.50804" lon="6.76586">
        <ele>391</ele>
        <time>2015-08-20T12:04:49.000Z</time>
      </trkpt>
      <trkpt lat="47.508" lon="6.76586">
        <ele>391</ele>
        <time>2015-08-20T12:04:51.000Z</time>
      </trkpt>
      <trkpt lat="47.50798" lon="6.76586">
        <ele>391</ele>
        <time>2015-08-20T12:04:52.000Z</time>
      </trkpt>
      <trkpt lat="47.50795" lon="6.76587">
        <ele>391</ele>
        <time>2015-08-20T12:04:53.000Z</time>
      </trkpt>
      <trkpt lat="47.50791" lon="6.76588">
        <ele>391</ele>
        <time>2015-08-20T12:04:54.000Z</time>
      </trkpt>
      <trkpt lat="47.50787" lon="6.76588">
        <ele>391</ele>
        <time>2015-08-20T12:04:55.000Z</time>
      </trkpt>
      <trkpt lat="47.50783" lon="6.7659">
        <ele>391</ele>
        <time>2015-08-20T12:04:56.000Z</time>
      </trkpt>
      <trkpt lat="47.5078" lon="6.76591">
        <ele>392</ele>
        <time>2015-08-20T12:04:57.000Z</time>
      </trkpt>
      <trkpt lat="47.50776" lon="6.76592">
        <ele>392</ele>
        <time>2015-08-20T12:04:58.000Z</time>
      </trkpt>
      <trkpt lat="47.50773" lon="6.76593">
        <ele>392</ele>
        <time>2015-08-20T12:04:59.000Z</time>
      </trkpt>
      <trkpt lat="47.5077" lon="6.76594">
        <ele>392</ele>
        <time>2015-08-20T12:05:00.000Z</time>
      </trkpt>
      <trkpt lat="47.50766" lon="6.76594">
        <ele>392</ele>
        <time>2015-08-20T12:05:01.000Z</time>
      </trkpt>
      <trkpt lat="47.50763" lon="6.76595">
        <ele>392</ele>
        <time>2015-08-20T12:05:02.000Z</time>
      </trkpt>
      <trkpt lat="47.5076" lon="6.76595">
        <ele>392</ele>
        <time>2015-08-20T12:05:03.000Z</time>
      </trkpt>
      <trkpt lat="47.50756" lon="6.76595">
        <ele>393</ele>
        <time>2015-08-20T12:05:04.000Z</time>
      </trkpt>
      <trkpt lat="47.50753" lon="6.76594">
        <ele>393</ele>
        <time>2015-08-20T12:05:05.000Z</time>
      </trkpt>
      <trkpt lat="47.5075" lon="6.76594">
        <ele>394</ele>
        <time>2015-08-20T12:05:06.000Z</time>
      </trkpt>
      <trkpt lat="47.50746" lon="6.76594">
        <ele>394</ele>
        <time>2015-08-20T12:05:07.000Z</time>
      </trkpt>
      <trkpt lat="47.50743" lon="6.76594">
        <ele>394</ele>
        <time>2015-08-20T12:05:08.000Z</time>
      </trkpt>
      <trkpt lat="47.5074" lon="6.76593">
        <ele>394</ele>
        <time>2015-08-20T12:05:09.000Z</time>
      </trkpt>
      <trkpt lat="47.50737" lon="6.76592">
        <ele>394</ele>
        <time>2015-08-20T12:05:10.000Z</time>
      </trkpt>
      <trkpt lat="47.50734" lon="6.76591">
        <ele>394</ele>
        <time>2015-08-20T12:05:11.000Z</time>
      </trkpt>
      <trkpt lat="47.5073" lon="6.7659">
        <ele>394</ele>
        <time>2015-08-20T12:05:12.000Z</time>
      </trkpt>
      <trkpt lat="47.50727" lon="6.76589">
        <ele>394</ele>
        <time>2015-08-20T12:05:13.000Z</time>
      </trkpt>
      <trkpt lat="47.50724" lon="6.76588">
        <ele>394</ele>
        <time>2015-08-20T12:05:14.000Z</time>
      </trkpt>
      <trkpt lat="47.5072" lon="6.76588">
        <ele>394</ele>
        <time>2015-08-20T12:05:15.000Z</time>
      </trkpt>
      <trkpt lat="47.50711" lon="6.76585">
        <ele>395</ele>
        <time>2015-08-20T12:05:16.000Z</time>
      </trkpt>
      <trkpt lat="47.50708" lon="6.76584">
        <ele>395</ele>
        <time>2015-08-20T12:05:17.000Z</time>
      </trkpt>
      <trkpt lat="47.50705" lon="6.76583">
        <ele>395</ele>
        <time>2015-08-20T12:05:18.000Z</time>
      </trkpt>
      <trkpt lat="47.50702" lon="6.76583">
        <ele>395</ele>
        <time>2015-08-20T12:05:19.000Z</time>
      </trkpt>
      <trkpt lat="47.50699" lon="6.76583">
        <ele>395</ele>
        <time>2015-08-20T12:05:20.000Z</time>
      </trkpt>
      <trkpt lat="47.50696" lon="6.76582">
        <ele>396</ele>
        <time>2015-08-20T12:05:21.000Z</time>
      </trkpt>
      <trkpt lat="47.50693" lon="6.76582">
        <ele>396</ele>
        <time>2015-08-20T12:05:22.000Z</time>
      </trkpt>
      <trkpt lat="47.5069" lon="6.76584">
        <ele>395</ele>
        <time>2015-08-20T12:05:23.000Z</time>
      </trkpt>
      <trkpt lat="47.50686" lon="6.76584">
        <ele>396</ele>
        <time>2015-08-20T12:05:24.000Z</time>
      </trkpt>
      <trkpt lat="47.50682" lon="6.76585">
        <ele>396</ele>
        <time>2015-08-20T12:05:25.000Z</time>
      </trkpt>
      <trkpt lat="47.50678" lon="6.76586">
        <ele>396</ele>
        <time>2015-08-20T12:05:26.000Z</time>
      </trkpt>
      <trkpt lat="47.50675" lon="6.76586">
        <ele>396</ele>
        <time>2015-08-20T12:05:27.000Z</time>
      </trkpt>
      <trkpt lat="47.50671" lon="6.76587">
        <ele>396</ele>
        <time>2015-08-20T12:05:28.000Z</time>
      </trkpt>
      <trkpt lat="47.50668" lon="6.76588">
        <ele>397</ele>
        <time>2015-08-20T12:05:29.000Z</time>
      </trkpt>
      <trkpt lat="47.50664" lon="6.76589">
        <ele>397</ele>
        <time>2015-08-20T12:05:30.000Z</time>
      </trkpt>
      <trkpt lat="47.50661" lon="6.76591">
        <ele>397</ele>
        <time>2015-08-20T12:05:31.000Z</time>
      </trkpt>
      <trkpt lat="47.50658" lon="6.76592">
        <ele>397</ele>
        <time>2015-08-20T12:05:32.000Z</time>
      </trkpt>
      <trkpt lat="47.50655" lon="6.76593">
        <ele>397</ele>
        <time>2015-08-20T12:05:33.000Z</time>
      </trkpt>
      <trkpt lat="47.50652" lon="6.76594">
        <ele>397</ele>
        <time>2015-08-20T12:05:34.000Z</time>
      </trkpt>
      <trkpt lat="47.50649" lon="6.76596">
        <ele>397</ele>
        <time>2015-08-20T12:05:35.000Z</time>
      </trkpt>
      <trkpt lat="47.50646" lon="6.76597">
        <ele>397</ele>
        <time>2015-08-20T12:05:36.000Z</time>
      </trkpt>
      <trkpt lat="47.50642" lon="6.76599">
        <ele>397</ele>
        <time>2015-08-20T12:05:37.000Z</time>
      </trkpt>
      <trkpt lat="47.50639" lon="6.766">
        <ele>397</ele>
        <time>2015-08-20T12:05:38.000Z</time>
      </trkpt>
      <trkpt lat="47.50636" lon="6.76601">
        <ele>397</ele>
        <time>2015-08-20T12:05:39.000Z</time>
      </trkpt>
      <trkpt lat="47.50632" lon="6.76602">
        <ele>397</ele>
        <time>2015-08-20T12:05:40.000Z</time>
      </trkpt>
      <trkpt lat="47.50629" lon="6.76602">
        <ele>397</ele>
        <time>2015-08-20T12:05:41.000Z</time>
      </trkpt>
      <trkpt lat="47.50625" lon="6.76603">
        <ele>397</ele>
        <time>2015-08-20T12:05:42.000Z</time>
      </trkpt>
      <trkpt lat="47.50622" lon="6.76604">
        <ele>397</ele>
        <time>2015-08-20T12:05:43.000Z</time>
      </trkpt>
      <trkpt lat="47.50619" lon="6.76605">
        <ele>398</ele>
        <time>2015-08-20T12:05:44.000Z</time>
      </trkpt>
      <trkpt lat="47.50616" lon="6.76607">
        <ele>398</ele>
        <time>2015-08-20T12:05:45.000Z</time>
      </trkpt>
      <trkpt lat="47.50614" lon="6.7661">
        <ele>398</ele>
        <time>2015-08-20T12:05:46.000Z</time>
      </trkpt>
      <trkpt lat="47.50611" lon="6.76613">
        <ele>398</ele>
        <time>2015-08-20T12:05:47.000Z</time>
      </trkpt>
      <trkpt lat="47.50608" lon="6.76616">
        <ele>398</ele>
        <time>2015-08-20T12:05:48.000Z</time>
      </trkpt>
      <trkpt lat="47.50605" lon="6.76619">
        <ele>398</ele>
        <time>2015-08-20T12:05:49.000Z</time>
      </trkpt>
      <trkpt lat="47.50603" lon="6.76621">
        <ele>398</ele>
        <time>2015-08-20T12:05:50.000Z</time>
      </trkpt>
      <trkpt lat="47.50599" lon="6.76622">
        <ele>398</ele>
        <time>2015-08-20T12:05:51.000Z</time>
      </trkpt>
      <trkpt lat="47.50596" lon="6.76624">
        <ele>398</ele>
        <time>2015-08-20T12:05:52.000Z</time>
      </trkpt>
      <trkpt lat="47.50593" lon="6.76625">
        <ele>398</ele>
        <time>2015-08-20T12:05:53.000Z</time>
      </trkpt>
      <trkpt lat="47.5059" lon="6.76626">
        <ele>398</ele>
        <time>2015-08-20T12:05:54.000Z</time>
      </trkpt>
      <trkpt lat="47.50587" lon="6.76627">
        <ele>398</ele>
        <time>2015-08-20T12:05:55.000Z</time>
      </trkpt>
      <trkpt lat="47.50585" lon="6.76628">
        <ele>398</ele>
        <time>2015-08-20T12:05:56.000Z</time>
      </trkpt>
      <trkpt lat="47.50582" lon="6.7663">
        <ele>399</ele>
        <time>2015-08-20T12:05:57.000Z</time>
      </trkpt>
      <trkpt lat="47.50579" lon="6.76631">
        <ele>399</ele>
        <time>2015-08-20T12:05:58.000Z</time>
      </trkpt>
      <trkpt lat="47.50576" lon="6.76632">
        <ele>399</ele>
        <time>2015-08-20T12:05:59.000Z</time>
      </trkpt>
      <trkpt lat="47.50574" lon="6.76631">
        <ele>399</ele>
        <time>2015-08-20T12:06:00.000Z</time>
      </trkpt>
      <trkpt lat="47.50571" lon="6.76631">
        <ele>399</ele>
        <time>2015-08-20T12:06:01.000Z</time>
      </trkpt>
      <trkpt lat="47.50568" lon="6.76631">
        <ele>399</ele>
        <time>2015-08-20T12:06:02.000Z</time>
      </trkpt>
      <trkpt lat="47.50565" lon="6.76631">
        <ele>399</ele>
        <time>2015-08-20T12:06:03.000Z</time>
      </trkpt>
      <trkpt lat="47.50561" lon="6.76631">
        <ele>399</ele>
        <time>2015-08-20T12:06:04.000Z</time>
      </trkpt>
      <trkpt lat="47.50558" lon="6.76631">
        <ele>399</ele>
        <time>2015-08-20T12:06:05.000Z</time>
      </trkpt>
      <trkpt lat="47.50555" lon="6.76632">
        <ele>399</ele>
        <time>2015-08-20T12:06:06.000Z</time>
      </trkpt>
      <trkpt lat="47.50552" lon="6.76632">
        <ele>399</ele>
        <time>2015-08-20T12:06:07.000Z</time>
      </trkpt>
      <trkpt lat="47.50549" lon="6.76633">
        <ele>399</ele>
        <time>2015-08-20T12:06:08.000Z</time>
      </trkpt>
      <trkpt lat="47.50546" lon="6.76633">
        <ele>399</ele>
        <time>2015-08-20T12:06:09.000Z</time>
      </trkpt>
      <trkpt lat="47.50543" lon="6.76634">
        <ele>399</ele>
        <time>2015-08-20T12:06:10.000Z</time>
      </trkpt>
      <trkpt lat="47.5054" lon="6.76635">
        <ele>399</ele>
        <time>2015-08-20T12:06:11.000Z</time>
      </trkpt>
      <trkpt lat="47.50537" lon="6.76636">
        <ele>399</ele>
        <time>2015-08-20T12:06:12.000Z</time>
      </trkpt>
      <trkpt lat="47.50533" lon="6.76637">
        <ele>399</ele>
        <time>2015-08-20T12:06:13.000Z</time>
      </trkpt>
      <trkpt lat="47.5053" lon="6.76639">
        <ele>399</ele>
        <time>2015-08-20T12:06:14.000Z</time>
      </trkpt>
      <trkpt lat="47.50525" lon="6.7664">
        <ele>399</ele>
        <time>2015-08-20T12:06:15.000Z</time>
      </trkpt>
      <trkpt lat="47.50519" lon="6.7664">
        <ele>399</ele>
        <time>2015-08-20T12:06:16.000Z</time>
      </trkpt>
      <trkpt lat="47.50514" lon="6.76641">
        <ele>399</ele>
        <time>2015-08-20T12:06:17.000Z</time>
      </trkpt>
      <trkpt lat="47.5051" lon="6.76642">
        <ele>399</ele>
        <time>2015-08-20T12:06:18.000Z</time>
      </trkpt>
      <trkpt lat="47.50504" lon="6.76643">
        <ele>399</ele>
        <time>2015-08-20T12:06:19.000Z</time>
      </trkpt>
      <trkpt lat="47.50499" lon="6.76643">
        <ele>399</ele>
        <time>2015-08-20T12:06:20.000Z</time>
      </trkpt>
      <trkpt lat="47.50494" lon="6.76644">
        <ele>399</ele>
        <time>2015-08-20T12:06:21.000Z</time>
      </trkpt>
      <trkpt lat="47.50489" lon="6.76645">
        <ele>399</ele>
        <time>2015-08-20T12:06:22.000Z</time>
      </trkpt>
      <trkpt lat="47.50484" lon="6.76648">
        <ele>399</ele>
        <time>2015-08-20T12:06:23.000Z</time>
      </trkpt>
      <trkpt lat="47.50478" lon="6.76649">
        <ele>398</ele>
        <time>2015-08-20T12:06:24.000Z</time>
      </trkpt>
      <trkpt lat="47.50473" lon="6.76651">
        <ele>398</ele>
        <time>2015-08-20T12:06:25.000Z</time>
      </trkpt>
      <trkpt lat="47.50468" lon="6.76653">
        <ele>398</ele>
        <time>2015-08-20T12:06:26.000Z</time>
      </trkpt>
      <trkpt lat="47.50463" lon="6.76657">
        <ele>398</ele>
        <time>2015-08-20T12:06:27.000Z</time>
      </trkpt>
      <trkpt lat="47.50457" lon="6.76658">
        <ele>398</ele>
        <time>2015-08-20T12:06:28.000Z</time>
      </trkpt>
      <trkpt lat="47.50452" lon="6.7666">
        <ele>398</ele>
        <time>2015-08-20T12:06:29.000Z</time>
      </trkpt>
      <trkpt lat="47.50447" lon="6.76662">
        <ele>398</ele>
        <time>2015-08-20T12:06:30.000Z</time>
      </trkpt>
      <trkpt lat="47.50441" lon="6.76664">
        <ele>398</ele>
        <time>2015-08-20T12:06:31.000Z</time>
      </trkpt>
      <trkpt lat="47.50437" lon="6.76667">
        <ele>397</ele>
        <time>2015-08-20T12:06:32.000Z</time>
      </trkpt>
      <trkpt lat="47.50431" lon="6.76669">
        <ele>397</ele>
        <time>2015-08-20T12:06:33.000Z</time>
      </trkpt>
      <trkpt lat="47.50425" lon="6.76671">
        <ele>397</ele>
        <time>2015-08-20T12:06:34.000Z</time>
      </trkpt>
      <trkpt lat="47.50421" lon="6.76673">
        <ele>397</ele>
        <time>2015-08-20T12:06:35.000Z</time>
      </trkpt>
      <trkpt lat="47.50417" lon="6.76674">
        <ele>397</ele>
        <time>2015-08-20T12:06:36.000Z</time>
      </trkpt>
      <trkpt lat="47.50412" lon="6.76675">
        <ele>397</ele>
        <time>2015-08-20T12:06:37.000Z</time>
      </trkpt>
      <trkpt lat="47.50406" lon="6.76677">
        <ele>397</ele>
        <time>2015-08-20T12:06:38.000Z</time>
      </trkpt>
      <trkpt lat="47.50401" lon="6.76679">
        <ele>397</ele>
        <time>2015-08-20T12:06:39.000Z</time>
      </trkpt>
      <trkpt lat="47.50396" lon="6.76681">
        <ele>397</ele>
        <time>2015-08-20T12:06:40.000Z</time>
      </trkpt>
      <trkpt lat="47.50391" lon="6.76685">
        <ele>397</ele>
        <time>2015-08-20T12:06:41.000Z</time>
      </trkpt>
      <trkpt lat="47.50386" lon="6.76688">
        <ele>397</ele>
        <time>2015-08-20T12:06:42.000Z</time>
      </trkpt>
      <trkpt lat="47.50381" lon="6.76692">
        <ele>397</ele>
        <time>2015-08-20T12:06:43.000Z</time>
      </trkpt>
      <trkpt lat="47.50376" lon="6.76693">
        <ele>397</ele>
        <time>2015-08-20T12:06:44.000Z</time>
      </trkpt>
      <trkpt lat="47.50371" lon="6.76696">
        <ele>397</ele>
        <time>2015-08-20T12:06:45.000Z</time>
      </trkpt>
      <trkpt lat="47.50366" lon="6.76699">
        <ele>397</ele>
        <time>2015-08-20T12:06:46.000Z</time>
      </trkpt>
      <trkpt lat="47.50361" lon="6.76701">
        <ele>397</ele>
        <time>2015-08-20T12:06:47.000Z</time>
      </trkpt>
      <trkpt lat="47.50356" lon="6.76703">
        <ele>397</ele>
        <time>2015-08-20T12:06:48.000Z</time>
      </trkpt>
      <trkpt lat="47.50351" lon="6.76705">
        <ele>397</ele>
        <time>2015-08-20T12:06:49.000Z</time>
      </trkpt>
      <trkpt lat="47.50347" lon="6.76707">
        <ele>397</ele>
        <time>2015-08-20T12:06:50.000Z</time>
      </trkpt>
      <trkpt lat="47.50342" lon="6.76709">
        <ele>398</ele>
        <time>2015-08-20T12:06:51.000Z</time>
      </trkpt>
      <trkpt lat="47.50337" lon="6.76711">
        <ele>398</ele>
        <time>2015-08-20T12:06:52.000Z</time>
      </trkpt>
      <trkpt lat="47.50332" lon="6.76714">
        <ele>398</ele>
        <time>2015-08-20T12:06:53.000Z</time>
      </trkpt>
      <trkpt lat="47.50328" lon="6.76718">
        <ele>398</ele>
        <time>2015-08-20T12:06:54.000Z</time>
      </trkpt>
      <trkpt lat="47.50323" lon="6.7672">
        <ele>398</ele>
        <time>2015-08-20T12:06:55.000Z</time>
      </trkpt>
      <trkpt lat="47.50319" lon="6.76721">
        <ele>398</ele>
        <time>2015-08-20T12:06:56.000Z</time>
      </trkpt>
      <trkpt lat="47.50315" lon="6.76724">
        <ele>398</ele>
        <time>2015-08-20T12:06:57.000Z</time>
      </trkpt>
      <trkpt lat="47.50311" lon="6.76728">
        <ele>398</ele>
        <time>2015-08-20T12:06:58.000Z</time>
      </trkpt>
      <trkpt lat="47.50306" lon="6.76731">
        <ele>398</ele>
        <time>2015-08-20T12:06:59.000Z</time>
      </trkpt>
      <trkpt lat="47.50301" lon="6.7673">
        <ele>398</ele>
        <time>2015-08-20T12:07:00.000Z</time>
      </trkpt>
      <trkpt lat="47.50298" lon="6.76731">
        <ele>399</ele>
        <time>2015-08-20T12:07:01.000Z</time>
      </trkpt>
      <trkpt lat="47.50293" lon="6.76732">
        <ele>399</ele>
        <time>2015-08-20T12:07:02.000Z</time>
      </trkpt>
      <trkpt lat="47.50289" lon="6.76732">
        <ele>399</ele>
        <time>2015-08-20T12:07:03.000Z</time>
      </trkpt>
      <trkpt lat="47.50284" lon="6.76733">
        <ele>399</ele>
        <time>2015-08-20T12:07:04.000Z</time>
      </trkpt>
      <trkpt lat="47.5028" lon="6.76735">
        <ele>399</ele>
        <time>2015-08-20T12:07:05.000Z</time>
      </trkpt>
      <trkpt lat="47.50276" lon="6.76736">
        <ele>399</ele>
        <time>2015-08-20T12:07:06.000Z</time>
      </trkpt>
      <trkpt lat="47.50271" lon="6.76737">
        <ele>399</ele>
        <time>2015-08-20T12:07:07.000Z</time>
      </trkpt>
      <trkpt lat="47.50268" lon="6.76739">
        <ele>399</ele>
        <time>2015-08-20T12:07:08.000Z</time>
      </trkpt>
      <trkpt lat="47.50264" lon="6.76739">
        <ele>399</ele>
        <time>2015-08-20T12:07:09.000Z</time>
      </trkpt>
      <trkpt lat="47.50259" lon="6.76741">
        <ele>399</ele>
        <time>2015-08-20T12:07:10.000Z</time>
      </trkpt>
      <trkpt lat="47.50255" lon="6.76742">
        <ele>400</ele>
        <time>2015-08-20T12:07:11.000Z</time>
      </trkpt>
      <trkpt lat="47.50252" lon="6.76742">
        <ele>400</ele>
        <time>2015-08-20T12:07:12.000Z</time>
      </trkpt>
      <trkpt lat="47.50248" lon="6.76742">
        <ele>401</ele>
        <time>2015-08-20T12:07:13.000Z</time>
      </trkpt>
      <trkpt lat="47.50244" lon="6.76741">
        <ele>401</ele>
        <time>2015-08-20T12:07:14.000Z</time>
      </trkpt>
      <trkpt lat="47.50241" lon="6.76739">
        <ele>401</ele>
        <time>2015-08-20T12:07:15.000Z</time>
      </trkpt>
      <trkpt lat="47.50238" lon="6.76736">
        <ele>401</ele>
        <time>2015-08-20T12:07:16.000Z</time>
      </trkpt>
      <trkpt lat="47.50235" lon="6.76728">
        <ele>401</ele>
        <time>2015-08-20T12:07:17.000Z</time>
      </trkpt>
      <trkpt lat="47.50232" lon="6.76725">
        <ele>402</ele>
        <time>2015-08-20T12:07:18.000Z</time>
      </trkpt>
      <trkpt lat="47.5023" lon="6.7672">
        <ele>402</ele>
        <time>2015-08-20T12:07:19.000Z</time>
      </trkpt>
      <trkpt lat="47.50227" lon="6.76716">
        <ele>402</ele>
        <time>2015-08-20T12:07:20.000Z</time>
      </trkpt>
      <trkpt lat="47.50225" lon="6.76711">
        <ele>402</ele>
        <time>2015-08-20T12:07:21.000Z</time>
      </trkpt>
      <trkpt lat="47.50223" lon="6.76706">
        <ele>402</ele>
        <time>2015-08-20T12:07:22.000Z</time>
      </trkpt>
      <trkpt lat="47.50221" lon="6.767">
        <ele>402</ele>
        <time>2015-08-20T12:07:23.000Z</time>
      </trkpt>
      <trkpt lat="47.5022" lon="6.76695">
        <ele>402</ele>
        <time>2015-08-20T12:07:24.000Z</time>
      </trkpt>
      <trkpt lat="47.50218" lon="6.76689">
        <ele>402</ele>
        <time>2015-08-20T12:07:25.000Z</time>
      </trkpt>
      <trkpt lat="47.50216" lon="6.76684">
        <ele>402</ele>
        <time>2015-08-20T12:07:26.000Z</time>
      </trkpt>
      <trkpt lat="47.50215" lon="6.76679">
        <ele>402</ele>
        <time>2015-08-20T12:07:27.000Z</time>
      </trkpt>
      <trkpt lat="47.50213" lon="6.76673">
        <ele>402</ele>
        <time>2015-08-20T12:07:28.000Z</time>
      </trkpt>
      <trkpt lat="47.50212" lon="6.76668">
        <ele>402</ele>
        <time>2015-08-20T12:07:29.000Z</time>
      </trkpt>
      <trkpt lat="47.50211" lon="6.76662">
        <ele>402</ele>
        <time>2015-08-20T12:07:30.000Z</time>
      </trkpt>
      <trkpt lat="47.50209" lon="6.76656">
        <ele>402</ele>
        <time>2015-08-20T12:07:31.000Z</time>
      </trkpt>
      <trkpt lat="47.50208" lon="6.7665">
        <ele>402</ele>
        <time>2015-08-20T12:07:32.000Z</time>
      </trkpt>
      <trkpt lat="47.50206" lon="6.76644">
        <ele>402</ele>
        <time>2015-08-20T12:07:33.000Z</time>
      </trkpt>
      <trkpt lat="47.50204" lon="6.76638">
        <ele>402</ele>
        <time>2015-08-20T12:07:34.000Z</time>
      </trkpt>
      <trkpt lat="47.50202" lon="6.76632">
        <ele>402</ele>
        <time>2015-08-20T12:07:35.000Z</time>
      </trkpt>
      <trkpt lat="47.502" lon="6.76626">
        <ele>402</ele>
        <time>2015-08-20T12:07:36.000Z</time>
      </trkpt>
      <trkpt lat="47.50198" lon="6.7662">
        <ele>403</ele>
        <time>2015-08-20T12:07:37.000Z</time>
      </trkpt>
      <trkpt lat="47.50196" lon="6.76614">
        <ele>403</ele>
        <time>2015-08-20T12:07:38.000Z</time>
      </trkpt>
      <trkpt lat="47.50194" lon="6.76609">
        <ele>403</ele>
        <time>2015-08-20T12:07:39.000Z</time>
      </trkpt>
      <trkpt lat="47.50194" lon="6.76605">
        <ele>403</ele>
        <time>2015-08-20T12:07:40.000Z</time>
      </trkpt>
      <trkpt lat="47.50194" lon="6.766">
        <ele>403</ele>
        <time>2015-08-20T12:07:41.000Z</time>
      </trkpt>
      <trkpt lat="47.50194" lon="6.76597">
        <ele>403</ele>
        <time>2015-08-20T12:07:42.000Z</time>
      </trkpt>
      <trkpt lat="47.50194" lon="6.76594">
        <ele>403</ele>
        <time>2015-08-20T12:07:43.000Z</time>
      </trkpt>
      <trkpt lat="47.50193" lon="6.76588">
        <ele>403</ele>
        <time>2015-08-20T12:07:47.000Z</time>
      </trkpt>
      <trkpt lat="47.50194" lon="6.76587">
        <ele>403</ele>
        <time>2015-08-20T12:07:48.000Z</time>
      </trkpt>
      <trkpt lat="47.50197" lon="6.76587">
        <ele>403</ele>
        <time>2015-08-20T12:07:49.000Z</time>
      </trkpt>
      <trkpt lat="47.50201" lon="6.76587">
        <ele>403</ele>
        <time>2015-08-20T12:07:50.000Z</time>
      </trkpt>
      <trkpt lat="47.50206" lon="6.76587">
        <ele>402</ele>
        <time>2015-08-20T12:07:51.000Z</time>
      </trkpt>
      <trkpt lat="47.50212" lon="6.76587">
        <ele>402</ele>
        <time>2015-08-20T12:07:52.000Z</time>
      </trkpt>
      <trkpt lat="47.50217" lon="6.76586">
        <ele>402</ele>
        <time>2015-08-20T12:07:53.000Z</time>
      </trkpt>
      <trkpt lat="47.50221" lon="6.76583">
        <ele>400</ele>
        <time>2015-08-20T12:07:54.000Z</time>
      </trkpt>
      <trkpt lat="47.50225" lon="6.76577">
        <ele>400</ele>
        <time>2015-08-20T12:07:55.000Z</time>
      </trkpt>
      <trkpt lat="47.50227" lon="6.7657">
        <ele>400</ele>
        <time>2015-08-20T12:07:56.000Z</time>
      </trkpt>
      <trkpt lat="47.50229" lon="6.76561">
        <ele>400</ele>
        <time>2015-08-20T12:07:57.000Z</time>
      </trkpt>
      <trkpt lat="47.5023" lon="6.76553">
        <ele>400</ele>
        <time>2015-08-20T12:07:58.000Z</time>
      </trkpt>
      <trkpt lat="47.50231" lon="6.76546">
        <ele>399</ele>
        <time>2015-08-20T12:07:59.000Z</time>
      </trkpt>
      <trkpt lat="47.50231" lon="6.76538">
        <ele>399</ele>
        <time>2015-08-20T12:08:00.000Z</time>
      </trkpt>
      <trkpt lat="47.50232" lon="6.76531">
        <ele>399</ele>
        <time>2015-08-20T12:08:01.000Z</time>
      </trkpt>
      <trkpt lat="47.50232" lon="6.76508">
        <ele>397</ele>
        <time>2015-08-20T12:08:02.000Z</time>
      </trkpt>
      <trkpt lat="47.50231" lon="6.76495">
        <ele>394</ele>
        <time>2015-08-20T12:08:03.000Z</time>
      </trkpt>
      <trkpt lat="47.50231" lon="6.76483">
        <ele>394</ele>
        <time>2015-08-20T12:08:04.000Z</time>
      </trkpt>
      <trkpt lat="47.50233" lon="6.76471">
        <ele>394</ele>
        <time>2015-08-20T12:08:05.000Z</time>
      </trkpt>
      <trkpt lat="47.50231" lon="6.76458">
        <ele>393</ele>
        <time>2015-08-20T12:08:06.000Z</time>
      </trkpt>
      <trkpt lat="47.50233" lon="6.76446">
        <ele>392</ele>
        <time>2015-08-20T12:08:07.000Z</time>
      </trkpt>
      <trkpt lat="47.5023" lon="6.76434">
        <ele>391</ele>
        <time>2015-08-20T12:08:08.000Z</time>
      </trkpt>
      <trkpt lat="47.50229" lon="6.76425">
        <ele>391</ele>
        <time>2015-08-20T12:08:09.000Z</time>
      </trkpt>
      <trkpt lat="47.50225" lon="6.76413">
        <ele>388</ele>
        <time>2015-08-20T12:08:10.000Z</time>
      </trkpt>
      <trkpt lat="47.50224" lon="6.76402">
        <ele>388</ele>
        <time>2015-08-20T12:08:11.000Z</time>
      </trkpt>
      <trkpt lat="47.50223" lon="6.76393">
        <ele>388</ele>
        <time>2015-08-20T12:08:12.000Z</time>
      </trkpt>
      <trkpt lat="47.50221" lon="6.76383">
        <ele>388</ele>
        <time>2015-08-20T12:08:13.000Z</time>
      </trkpt>
      <trkpt lat="47.50225" lon="6.76369">
        <ele>388</ele>
        <time>2015-08-20T12:08:14.000Z</time>
      </trkpt>
      <trkpt lat="47.50224" lon="6.76355">
        <ele>387</ele>
        <time>2015-08-20T12:08:15.000Z</time>
      </trkpt>
      <trkpt lat="47.50223" lon="6.76343">
        <ele>387</ele>
        <time>2015-08-20T12:08:16.000Z</time>
      </trkpt>
      <trkpt lat="47.50221" lon="6.76331">
        <ele>384</ele>
        <time>2015-08-20T12:08:17.000Z</time>
      </trkpt>
      <trkpt lat="47.50219" lon="6.76319">
        <ele>385</ele>
        <time>2015-08-20T12:08:18.000Z</time>
      </trkpt>
      <trkpt lat="47.50204" lon="6.76307">
        <ele>385</ele>
        <time>2015-08-20T12:08:19.000Z</time>
      </trkpt>
      <trkpt lat="47.50198" lon="6.76296">
        <ele>385</ele>
        <time>2015-08-20T12:08:20.000Z</time>
      </trkpt>
      <trkpt lat="47.50194" lon="6.76284">
        <ele>385</ele>
        <time>2015-08-20T12:08:21.000Z</time>
      </trkpt>
      <trkpt lat="47.5019" lon="6.76272">
        <ele>385</ele>
        <time>2015-08-20T12:08:22.000Z</time>
      </trkpt>
      <trkpt lat="47.50188" lon="6.76262">
        <ele>385</ele>
        <time>2015-08-20T12:08:23.000Z</time>
      </trkpt>
      <trkpt lat="47.50184" lon="6.76256">
        <ele>385</ele>
        <time>2015-08-20T12:08:24.000Z</time>
      </trkpt>
      <trkpt lat="47.50184" lon="6.76248">
        <ele>383</ele>
        <time>2015-08-20T12:08:25.000Z</time>
      </trkpt>
      <trkpt lat="47.50183" lon="6.7624">
        <ele>383</ele>
        <time>2015-08-20T12:08:26.000Z</time>
      </trkpt>
      <trkpt lat="47.50183" lon="6.76226">
        <ele>382</ele>
        <time>2015-08-20T12:08:27.000Z</time>
      </trkpt>
      <trkpt lat="47.50185" lon="6.76213">
        <ele>381</ele>
        <time>2015-08-20T12:08:28.000Z</time>
      </trkpt>
      <trkpt lat="47.50183" lon="6.762">
        <ele>380</ele>
        <time>2015-08-20T12:08:29.000Z</time>
      </trkpt>
      <trkpt lat="47.50182" lon="6.76186">
        <ele>379</ele>
        <time>2015-08-20T12:08:30.000Z</time>
      </trkpt>
      <trkpt lat="47.50181" lon="6.76174">
        <ele>379</ele>
        <time>2015-08-20T12:08:31.000Z</time>
      </trkpt>
      <trkpt lat="47.50178" lon="6.76163">
        <ele>377</ele>
        <time>2015-08-20T12:08:32.000Z</time>
      </trkpt>
      <trkpt lat="47.50176" lon="6.76151">
        <ele>377</ele>
        <time>2015-08-20T12:08:33.000Z</time>
      </trkpt>
      <trkpt lat="47.50173" lon="6.7614">
        <ele>376</ele>
        <time>2015-08-20T12:08:34.000Z</time>
      </trkpt>
      <trkpt lat="47.50173" lon="6.76128">
        <ele>376</ele>
        <time>2015-08-20T12:08:35.000Z</time>
      </trkpt>
      <trkpt lat="47.50169" lon="6.76114">
        <ele>376</ele>
        <time>2015-08-20T12:08:36.000Z</time>
      </trkpt>
      <trkpt lat="47.50157" lon="6.76099">
        <ele>379</ele>
        <time>2015-08-20T12:08:37.000Z</time>
      </trkpt>
      <trkpt lat="47.50151" lon="6.7608">
        <ele>376</ele>
        <time>2015-08-20T12:08:38.000Z</time>
      </trkpt>
      <trkpt lat="47.5015" lon="6.76064">
        <ele>377</ele>
        <time>2015-08-20T12:08:39.000Z</time>
      </trkpt>
      <trkpt lat="47.50145" lon="6.76048">
        <ele>377</ele>
        <time>2015-08-20T12:08:40.000Z</time>
      </trkpt>
      <trkpt lat="47.50145" lon="6.76031">
        <ele>377</ele>
        <time>2015-08-20T12:08:41.000Z</time>
      </trkpt>
      <trkpt lat="47.50136" lon="6.76013">
        <ele>377</ele>
        <time>2015-08-20T12:08:42.000Z</time>
      </trkpt>
      <trkpt lat="47.50128" lon="6.76">
        <ele>377</ele>
        <time>2015-08-20T12:08:43.000Z</time>
      </trkpt>
      <trkpt lat="47.50123" lon="6.75992">
        <ele>373</ele>
        <time>2015-08-20T12:08:44.000Z</time>
      </trkpt>
      <trkpt lat="47.50118" lon="6.75981">
        <ele>373</ele>
        <time>2015-08-20T12:08:45.000Z</time>
      </trkpt>
      <trkpt lat="47.50114" lon="6.75971">
        <ele>373</ele>
        <time>2015-08-20T12:08:46.000Z</time>
      </trkpt>
      <trkpt lat="47.50112" lon="6.75963">
        <ele>373</ele>
        <time>2015-08-20T12:08:47.000Z</time>
      </trkpt>
      <trkpt lat="47.50108" lon="6.7595">
        <ele>373</ele>
        <time>2015-08-20T12:08:48.000Z</time>
      </trkpt>
      <trkpt lat="47.50104" lon="6.7594">
        <ele>373</ele>
        <time>2015-08-20T12:08:49.000Z</time>
      </trkpt>
      <trkpt lat="47.50099" lon="6.75929">
        <ele>373</ele>
        <time>2015-08-20T12:08:50.000Z</time>
      </trkpt>
      <trkpt lat="47.50098" lon="6.75918">
        <ele>373</ele>
        <time>2015-08-20T12:08:51.000Z</time>
      </trkpt>
      <trkpt lat="47.50097" lon="6.75908">
        <ele>371</ele>
        <time>2015-08-20T12:08:52.000Z</time>
      </trkpt>
      <trkpt lat="47.50095" lon="6.75894">
        <ele>370</ele>
        <time>2015-08-20T12:08:53.000Z</time>
      </trkpt>
      <trkpt lat="47.50095" lon="6.75882">
        <ele>369</ele>
        <time>2015-08-20T12:08:54.000Z</time>
      </trkpt>
      <trkpt lat="47.50091" lon="6.7587">
        <ele>369</ele>
        <time>2015-08-20T12:08:55.000Z</time>
      </trkpt>
      <trkpt lat="47.50086" lon="6.75858">
        <ele>370</ele>
        <time>2015-08-20T12:08:56.000Z</time>
      </trkpt>
      <trkpt lat="47.50079" lon="6.75846">
        <ele>374</ele>
        <time>2015-08-20T12:08:57.000Z</time>
      </trkpt>
      <trkpt lat="47.50063" lon="6.75832">
        <ele>374</ele>
        <time>2015-08-20T12:08:58.000Z</time>
      </trkpt>
      <trkpt lat="47.50058" lon="6.75819">
        <ele>374</ele>
        <time>2015-08-20T12:08:59.000Z</time>
      </trkpt>
      <trkpt lat="47.50051" lon="6.7581">
        <ele>374</ele>
        <time>2015-08-20T12:09:00.000Z</time>
      </trkpt>
      <trkpt lat="47.50045" lon="6.75797">
        <ele>374</ele>
        <time>2015-08-20T12:09:01.000Z</time>
      </trkpt>
      <trkpt lat="47.50035" lon="6.75779">
        <ele>374</ele>
        <time>2015-08-20T12:09:02.000Z</time>
      </trkpt>
      <trkpt lat="47.50029" lon="6.75768">
        <ele>374</ele>
        <time>2015-08-20T12:09:03.000Z</time>
      </trkpt>
      <trkpt lat="47.50024" lon="6.75759">
        <ele>375</ele>
        <time>2015-08-20T12:09:04.000Z</time>
      </trkpt>
      <trkpt lat="47.50024" lon="6.75748">
        <ele>371</ele>
        <time>2015-08-20T12:09:05.000Z</time>
      </trkpt>
      <trkpt lat="47.50018" lon="6.75738">
        <ele>371</ele>
        <time>2015-08-20T12:09:06.000Z</time>
      </trkpt>
      <trkpt lat="47.50012" lon="6.75723">
        <ele>369</ele>
        <time>2015-08-20T12:09:07.000Z</time>
      </trkpt>
      <trkpt lat="47.49998" lon="6.75715">
        <ele>372</ele>
        <time>2015-08-20T12:09:08.000Z</time>
      </trkpt>
      <trkpt lat="47.49992" lon="6.75706">
        <ele>371</ele>
        <time>2015-08-20T12:09:09.000Z</time>
      </trkpt>
      <trkpt lat="47.49975" lon="6.75703">
        <ele>370</ele>
        <time>2015-08-20T12:09:10.000Z</time>
      </trkpt>
      <trkpt lat="47.49961" lon="6.75699">
        <ele>370</ele>
        <time>2015-08-20T12:09:11.000Z</time>
      </trkpt>
      <trkpt lat="47.49954" lon="6.75699">
        <ele>370</ele>
        <time>2015-08-20T12:09:12.000Z</time>
      </trkpt>
      <trkpt lat="47.49938" lon="6.75697">
        <ele>370</ele>
        <time>2015-08-20T12:09:13.000Z</time>
      </trkpt>
      <trkpt lat="47.4992" lon="6.75699">
        <ele>369</ele>
        <time>2015-08-20T12:09:14.000Z</time>
      </trkpt>
      <trkpt lat="47.49905" lon="6.75698">
        <ele>364</ele>
        <time>2015-08-20T12:09:15.000Z</time>
      </trkpt>
      <trkpt lat="47.49888" lon="6.75701">
        <ele>363</ele>
        <time>2015-08-20T12:09:16.000Z</time>
      </trkpt>
      <trkpt lat="47.49872" lon="6.75703">
        <ele>362</ele>
        <time>2015-08-20T12:09:17.000Z</time>
      </trkpt>
      <trkpt lat="47.49854" lon="6.75707">
        <ele>361</ele>
        <time>2015-08-20T12:09:18.000Z</time>
      </trkpt>
      <trkpt lat="47.49831" lon="6.75713">
        <ele>353</ele>
        <time>2015-08-20T12:09:19.000Z</time>
      </trkpt>
      <trkpt lat="47.49817" lon="6.75718">
        <ele>353</ele>
        <time>2015-08-20T12:09:20.000Z</time>
      </trkpt>
      <trkpt lat="47.49805" lon="6.7572">
        <ele>352</ele>
        <time>2015-08-20T12:09:21.000Z</time>
      </trkpt>
      <trkpt lat="47.49793" lon="6.75723">
        <ele>351</ele>
        <time>2015-08-20T12:09:22.000Z</time>
      </trkpt>
      <trkpt lat="47.49782" lon="6.75724">
        <ele>351</ele>
        <time>2015-08-20T12:09:23.000Z</time>
      </trkpt>
      <trkpt lat="47.49772" lon="6.75729">
        <ele>350</ele>
        <time>2015-08-20T12:09:24.000Z</time>
      </trkpt>
      <trkpt lat="47.4976" lon="6.75732">
        <ele>350</ele>
        <time>2015-08-20T12:09:25.000Z</time>
      </trkpt>
      <trkpt lat="47.4975" lon="6.75736">
        <ele>346</ele>
        <time>2015-08-20T12:09:26.000Z</time>
      </trkpt>
      <trkpt lat="47.49737" lon="6.75741">
        <ele>346</ele>
        <time>2015-08-20T12:09:27.000Z</time>
      </trkpt>
      <trkpt lat="47.49727" lon="6.75742">
        <ele>344</ele>
        <time>2015-08-20T12:09:28.000Z</time>
      </trkpt>
      <trkpt lat="47.49716" lon="6.75745">
        <ele>343</ele>
        <time>2015-08-20T12:09:29.000Z</time>
      </trkpt>
      <trkpt lat="47.49707" lon="6.75746">
        <ele>343</ele>
        <time>2015-08-20T12:09:30.000Z</time>
      </trkpt>
      <trkpt lat="47.49699" lon="6.7575">
        <ele>342</ele>
        <time>2015-08-20T12:09:31.000Z</time>
      </trkpt>
      <trkpt lat="47.49689" lon="6.75751">
        <ele>350</ele>
        <time>2015-08-20T12:09:32.000Z</time>
      </trkpt>
      <trkpt lat="47.49678" lon="6.75756">
        <ele>348</ele>
        <time>2015-08-20T12:09:33.000Z</time>
      </trkpt>
      <trkpt lat="47.49677" lon="6.75754">
        <ele>348</ele>
        <time>2015-08-20T12:09:34.000Z</time>
      </trkpt>
      <trkpt lat="47.49668" lon="6.75751">
        <ele>345</ele>
        <time>2015-08-20T12:09:35.000Z</time>
      </trkpt>
      <trkpt lat="47.49661" lon="6.75751">
        <ele>344</ele>
        <time>2015-08-20T12:09:36.000Z</time>
      </trkpt>
      <trkpt lat="47.49653" lon="6.75751">
        <ele>345</ele>
        <time>2015-08-20T12:09:37.000Z</time>
      </trkpt>
      <trkpt lat="47.49642" lon="6.75751">
        <ele>345</ele>
        <time>2015-08-20T12:09:38.000Z</time>
      </trkpt>
      <trkpt lat="47.49634" lon="6.75747">
        <ele>335</ele>
        <time>2015-08-20T12:09:39.000Z</time>
      </trkpt>
      <trkpt lat="47.49625" lon="6.75747">
        <ele>334</ele>
        <time>2015-08-20T12:09:40.000Z</time>
      </trkpt>
      <trkpt lat="47.49624" lon="6.75746">
        <ele>334</ele>
        <time>2015-08-20T12:09:41.000Z</time>
      </trkpt>
      <trkpt lat="47.49615" lon="6.75742">
        <ele>333</ele>
        <time>2015-08-20T12:09:42.000Z</time>
      </trkpt>
      <trkpt lat="47.49607" lon="6.7574">
        <ele>333</ele>
        <time>2015-08-20T12:09:43.000Z</time>
      </trkpt>
      <trkpt lat="47.49602" lon="6.75741">
        <ele>333</ele>
        <time>2015-08-20T12:09:44.000Z</time>
      </trkpt>
      <trkpt lat="47.496" lon="6.75741">
        <ele>333</ele>
        <time>2015-08-20T12:09:45.000Z</time>
      </trkpt>
      <trkpt lat="47.49597" lon="6.75738">
        <ele>333</ele>
        <time>2015-08-20T12:09:46.000Z</time>
      </trkpt>
      <trkpt lat="47.49593" lon="6.75736">
        <ele>333</ele>
        <time>2015-08-20T12:09:47.000Z</time>
      </trkpt>
      <trkpt lat="47.49591" lon="6.7573">
        <ele>332</ele>
        <time>2015-08-20T12:09:48.000Z</time>
      </trkpt>
      <trkpt lat="47.4959" lon="6.75724">
        <ele>332</ele>
        <time>2015-08-20T12:09:49.000Z</time>
      </trkpt>
      <trkpt lat="47.49583" lon="6.75729">
        <ele>329</ele>
        <time>2015-08-20T12:09:50.000Z</time>
      </trkpt>
      <trkpt lat="47.49575" lon="6.75746">
        <ele>331</ele>
        <time>2015-08-20T12:09:51.000Z</time>
      </trkpt>
      <trkpt lat="47.49569" lon="6.75753">
        <ele>335</ele>
        <time>2015-08-20T12:09:52.000Z</time>
      </trkpt>
      <trkpt lat="47.49571" lon="6.75751">
        <ele>335</ele>
        <time>2015-08-20T12:09:53.000Z</time>
      </trkpt>
      <trkpt lat="47.49573" lon="6.75749">
        <ele>331</ele>
        <time>2015-08-20T12:09:54.000Z</time>
      </trkpt>
      <trkpt lat="47.49576" lon="6.75746">
        <ele>331</ele>
        <time>2015-08-20T12:09:55.000Z</time>
      </trkpt>
      <trkpt lat="47.49579" lon="6.75744">
        <ele>332</ele>
        <time>2015-08-20T12:09:56.000Z</time>
      </trkpt>
      <trkpt lat="47.49584" lon="6.75737">
        <ele>333</ele>
        <time>2015-08-20T12:09:57.000Z</time>
      </trkpt>
      <trkpt lat="47.49588" lon="6.75732">
        <ele>332</ele>
        <time>2015-08-20T12:09:58.000Z</time>
      </trkpt>
      <trkpt lat="47.49589" lon="6.75731">
        <ele>332</ele>
        <time>2015-08-20T12:09:59.000Z</time>
      </trkpt>
      <trkpt lat="47.49594" lon="6.75726">
        <ele>332</ele>
        <time>2015-08-20T12:10:00.000Z</time>
      </trkpt>
      <trkpt lat="47.49596" lon="6.75721">
        <ele>332</ele>
        <time>2015-08-20T12:10:01.000Z</time>
      </trkpt>
      <trkpt lat="47.49601" lon="6.75716">
        <ele>331</ele>
        <time>2015-08-20T12:10:02.000Z</time>
      </trkpt>
      <trkpt lat="47.49605" lon="6.75712">
        <ele>331</ele>
        <time>2015-08-20T12:10:03.000Z</time>
      </trkpt>
      <trkpt lat="47.49602" lon="6.757">
        <ele>330</ele>
        <time>2015-08-20T12:10:04.000Z</time>
      </trkpt>
      <trkpt lat="47.496" lon="6.75692">
        <ele>328</ele>
        <time>2015-08-20T12:10:05.000Z</time>
      </trkpt>
      <trkpt lat="47.49595" lon="6.75686">
        <ele>327</ele>
        <time>2015-08-20T12:10:06.000Z</time>
      </trkpt>
      <trkpt lat="47.49589" lon="6.75679">
        <ele>325</ele>
        <time>2015-08-20T12:10:07.000Z</time>
      </trkpt>
      <trkpt lat="47.49587" lon="6.75671">
        <ele>323</ele>
        <time>2015-08-20T12:10:08.000Z</time>
      </trkpt>
      <trkpt lat="47.49582" lon="6.75667">
        <ele>321</ele>
        <time>2015-08-20T12:10:09.000Z</time>
      </trkpt>
      <trkpt lat="47.49574" lon="6.75668">
        <ele>322</ele>
        <time>2015-08-20T12:10:10.000Z</time>
      </trkpt>
      <trkpt lat="47.49569" lon="6.75673">
        <ele>323</ele>
        <time>2015-08-20T12:10:11.000Z</time>
      </trkpt>
      <trkpt lat="47.49562" lon="6.75678">
        <ele>324</ele>
        <time>2015-08-20T12:10:12.000Z</time>
      </trkpt>
      <trkpt lat="47.49557" lon="6.75683">
        <ele>324</ele>
        <time>2015-08-20T12:10:13.000Z</time>
      </trkpt>
      <trkpt lat="47.49553" lon="6.75687">
        <ele>324</ele>
        <time>2015-08-20T12:10:14.000Z</time>
      </trkpt>
      <trkpt lat="47.49549" lon="6.75693">
        <ele>324</ele>
        <time>2015-08-20T12:10:15.000Z</time>
      </trkpt>
      <trkpt lat="47.49545" lon="6.75698">
        <ele>325</ele>
        <time>2015-08-20T12:10:16.000Z</time>
      </trkpt>
      <trkpt lat="47.49539" lon="6.75701">
        <ele>325</ele>
        <time>2015-08-20T12:10:17.000Z</time>
      </trkpt>
      <trkpt lat="47.49533" lon="6.75706">
        <ele>325</ele>
        <time>2015-08-20T12:10:18.000Z</time>
      </trkpt>
      <trkpt lat="47.49529" lon="6.75711">
        <ele>325</ele>
        <time>2015-08-20T12:10:19.000Z</time>
      </trkpt>
      <trkpt lat="47.49523" lon="6.75715">
        <ele>325</ele>
        <time>2015-08-20T12:10:20.000Z</time>
      </trkpt>
      <trkpt lat="47.49518" lon="6.75719">
        <ele>325</ele>
        <time>2015-08-20T12:10:21.000Z</time>
      </trkpt>
      <trkpt lat="47.49512" lon="6.75719">
        <ele>325</ele>
        <time>2015-08-20T12:10:22.000Z</time>
      </trkpt>
      <trkpt lat="47.49506" lon="6.75721">
        <ele>324</ele>
        <time>2015-08-20T12:10:23.000Z</time>
      </trkpt>
      <trkpt lat="47.49501" lon="6.75723">
        <ele>324</ele>
        <time>2015-08-20T12:10:24.000Z</time>
      </trkpt>
      <trkpt lat="47.49496" lon="6.75726">
        <ele>322</ele>
        <time>2015-08-20T12:10:25.000Z</time>
      </trkpt>
      <trkpt lat="47.4949" lon="6.75728">
        <ele>322</ele>
        <time>2015-08-20T12:10:26.000Z</time>
      </trkpt>
      <trkpt lat="47.49484" lon="6.7573">
        <ele>322</ele>
        <time>2015-08-20T12:10:27.000Z</time>
      </trkpt>
      <trkpt lat="47.49479" lon="6.7573">
        <ele>322</ele>
        <time>2015-08-20T12:10:28.000Z</time>
      </trkpt>
      <trkpt lat="47.49477" lon="6.75726">
        <ele>322</ele>
        <time>2015-08-20T12:10:29.000Z</time>
      </trkpt>
      <trkpt lat="47.49476" lon="6.7572">
        <ele>322</ele>
        <time>2015-08-20T12:10:30.000Z</time>
      </trkpt>
      <trkpt lat="47.49473" lon="6.75713">
        <ele>321</ele>
        <time>2015-08-20T12:10:31.000Z</time>
      </trkpt>
      <trkpt lat="47.49471" lon="6.75707">
        <ele>321</ele>
        <time>2015-08-20T12:10:32.000Z</time>
      </trkpt>
      <trkpt lat="47.49468" lon="6.757">
        <ele>321</ele>
        <time>2015-08-20T12:10:33.000Z</time>
      </trkpt>
      <trkpt lat="47.49465" lon="6.75694">
        <ele>321</ele>
        <time>2015-08-20T12:10:34.000Z</time>
      </trkpt>
      <trkpt lat="47.49458" lon="6.75695">
        <ele>321</ele>
        <time>2015-08-20T12:10:35.000Z</time>
      </trkpt>
      <trkpt lat="47.49452" lon="6.75697">
        <ele>321</ele>
        <time>2015-08-20T12:10:36.000Z</time>
      </trkpt>
      <trkpt lat="47.49447" lon="6.757">
        <ele>321</ele>
        <time>2015-08-20T12:10:37.000Z</time>
      </trkpt>
      <trkpt lat="47.49441" lon="6.75702">
        <ele>321</ele>
        <time>2015-08-20T12:10:38.000Z</time>
      </trkpt>
      <trkpt lat="47.49439" lon="6.75696">
        <ele>321</ele>
        <time>2015-08-20T12:10:39.000Z</time>
      </trkpt>
      <trkpt lat="47.49437" lon="6.7569">
        <ele>320</ele>
        <time>2015-08-20T12:10:40.000Z</time>
      </trkpt>
      <trkpt lat="47.49434" lon="6.75683">
        <ele>320</ele>
        <time>2015-08-20T12:10:41.000Z</time>
      </trkpt>
      <trkpt lat="47.49432" lon="6.75677">
        <ele>320</ele>
        <time>2015-08-20T12:10:42.000Z</time>
      </trkpt>
      <trkpt lat="47.49431" lon="6.75671">
        <ele>320</ele>
        <time>2015-08-20T12:10:43.000Z</time>
      </trkpt>
      <trkpt lat="47.49429" lon="6.75667">
        <ele>320</ele>
        <time>2015-08-20T12:10:44.000Z</time>
      </trkpt>
      <trkpt lat="47.49423" lon="6.75674">
        <ele>320</ele>
        <time>2015-08-20T12:10:45.000Z</time>
      </trkpt>
      <trkpt lat="47.49421" lon="6.75674">
        <ele>320</ele>
        <time>2015-08-20T12:10:46.000Z</time>
      </trkpt>
      <trkpt lat="47.49418" lon="6.75673">
        <ele>319</ele>
        <time>2015-08-20T12:10:47.000Z</time>
      </trkpt>
      <trkpt lat="47.49413" lon="6.75677">
        <ele>319</ele>
        <time>2015-08-20T12:10:48.000Z</time>
      </trkpt>
      <trkpt lat="47.49407" lon="6.75681">
        <ele>319</ele>
        <time>2015-08-20T12:10:49.000Z</time>
      </trkpt>
      <trkpt lat="47.49402" lon="6.75683">
        <ele>319</ele>
        <time>2015-08-20T12:10:50.000Z</time>
      </trkpt>
      <trkpt lat="47.49397" lon="6.75686">
        <ele>319</ele>
        <time>2015-08-20T12:10:51.000Z</time>
      </trkpt>
      <trkpt lat="47.49392" lon="6.75688">
        <ele>319</ele>
        <time>2015-08-20T12:10:52.000Z</time>
      </trkpt>
      <trkpt lat="47.49387" lon="6.75693">
        <ele>319</ele>
        <time>2015-08-20T12:10:53.000Z</time>
      </trkpt>
      <trkpt lat="47.49382" lon="6.75696">
        <ele>319</ele>
        <time>2015-08-20T12:10:54.000Z</time>
      </trkpt>
      <trkpt lat="47.49378" lon="6.75696">
        <ele>319</ele>
        <time>2015-08-20T12:10:55.000Z</time>
      </trkpt>
      <trkpt lat="47.49374" lon="6.75699">
        <ele>319</ele>
        <time>2015-08-20T12:10:56.000Z</time>
      </trkpt>
      <trkpt lat="47.49372" lon="6.757">
        <ele>319</ele>
        <time>2015-08-20T12:10:57.000Z</time>
      </trkpt>
      <trkpt lat="47.49367" lon="6.75703">
        <ele>319</ele>
        <time>2015-08-20T12:10:58.000Z</time>
      </trkpt>
      <trkpt lat="47.49366" lon="6.75707">
        <ele>319</ele>
        <time>2015-08-20T12:11:00.000Z</time>
      </trkpt>
      <trkpt lat="47.49363" lon="6.75708">
        <ele>319</ele>
        <time>2015-08-20T12:11:01.000Z</time>
      </trkpt>
      <trkpt lat="47.4936" lon="6.75709">
        <ele>319</ele>
        <time>2015-08-20T12:11:02.000Z</time>
      </trkpt>
      <trkpt lat="47.49356" lon="6.75711">
        <ele>319</ele>
        <time>2015-08-20T12:11:03.000Z</time>
      </trkpt>
      <trkpt lat="47.49352" lon="6.75713">
        <ele>319</ele>
        <time>2015-08-20T12:11:04.000Z</time>
      </trkpt>
      <trkpt lat="47.49348" lon="6.75715">
        <ele>319</ele>
        <time>2015-08-20T12:11:05.000Z</time>
      </trkpt>
      <trkpt lat="47.49343" lon="6.75719">
        <ele>318</ele>
        <time>2015-08-20T12:11:06.000Z</time>
      </trkpt>
      <trkpt lat="47.49335" lon="6.75722">
        <ele>318</ele>
        <time>2015-08-20T12:11:07.000Z</time>
      </trkpt>
      <trkpt lat="47.49328" lon="6.75726">
        <ele>319</ele>
        <time>2015-08-20T12:11:08.000Z</time>
      </trkpt>
      <trkpt lat="47.49325" lon="6.75728">
        <ele>319</ele>
        <time>2015-08-20T12:11:09.000Z</time>
      </trkpt>
      <trkpt lat="47.4932" lon="6.75731">
        <ele>319</ele>
        <time>2015-08-20T12:11:10.000Z</time>
      </trkpt>
      <trkpt lat="47.49315" lon="6.75734">
        <ele>319</ele>
        <time>2015-08-20T12:11:11.000Z</time>
      </trkpt>
      <trkpt lat="47.4931" lon="6.75737">
        <ele>319</ele>
        <time>2015-08-20T12:11:12.000Z</time>
      </trkpt>
      <trkpt lat="47.49307" lon="6.75738">
        <ele>319</ele>
        <time>2015-08-20T12:11:13.000Z</time>
      </trkpt>
      <trkpt lat="47.49303" lon="6.75743">
        <ele>319</ele>
        <time>2015-08-20T12:11:14.000Z</time>
      </trkpt>
      <trkpt lat="47.49301" lon="6.75748">
        <ele>319</ele>
        <time>2015-08-20T12:11:15.000Z</time>
      </trkpt>
      <trkpt lat="47.49299" lon="6.75751">
        <ele>318</ele>
        <time>2015-08-20T12:11:16.000Z</time>
      </trkpt>
      <trkpt lat="47.49298" lon="6.75761">
        <ele>318</ele>
        <time>2015-08-20T12:11:17.000Z</time>
      </trkpt>
      <trkpt lat="47.49295" lon="6.75768">
        <ele>318</ele>
        <time>2015-08-20T12:11:18.000Z</time>
      </trkpt>
      <trkpt lat="47.49291" lon="6.75774">
        <ele>318</ele>
        <time>2015-08-20T12:11:19.000Z</time>
      </trkpt>
      <trkpt lat="47.49287" lon="6.75778">
        <ele>318</ele>
        <time>2015-08-20T12:11:20.000Z</time>
      </trkpt>
      <trkpt lat="47.49283" lon="6.75781">
        <ele>318</ele>
        <time>2015-08-20T12:11:21.000Z</time>
      </trkpt>
      <trkpt lat="47.4928" lon="6.75784">
        <ele>318</ele>
        <time>2015-08-20T12:11:22.000Z</time>
      </trkpt>
      <trkpt lat="47.49276" lon="6.75787">
        <ele>318</ele>
        <time>2015-08-20T12:11:23.000Z</time>
      </trkpt>
      <trkpt lat="47.49272" lon="6.7579">
        <ele>318</ele>
        <time>2015-08-20T12:11:24.000Z</time>
      </trkpt>
      <trkpt lat="47.49269" lon="6.75793">
        <ele>317</ele>
        <time>2015-08-20T12:11:25.000Z</time>
      </trkpt>
      <trkpt lat="47.49266" lon="6.75796">
        <ele>317</ele>
        <time>2015-08-20T12:11:26.000Z</time>
      </trkpt>
      <trkpt lat="47.49262" lon="6.758">
        <ele>317</ele>
        <time>2015-08-20T12:11:27.000Z</time>
      </trkpt>
      <trkpt lat="47.49259" lon="6.75804">
        <ele>317</ele>
        <time>2015-08-20T12:11:28.000Z</time>
      </trkpt>
      <trkpt lat="47.49256" lon="6.75809">
        <ele>316</ele>
        <time>2015-08-20T12:11:29.000Z</time>
      </trkpt>
      <trkpt lat="47.49253" lon="6.75815">
        <ele>316</ele>
        <time>2015-08-20T12:11:30.000Z</time>
      </trkpt>
      <trkpt lat="47.49247" lon="6.75834">
        <ele>314</ele>
        <time>2015-08-20T12:11:31.000Z</time>
      </trkpt>
      <trkpt lat="47.49245" lon="6.75837">
        <ele>314</ele>
        <time>2015-08-20T12:11:32.000Z</time>
      </trkpt>
      <trkpt lat="47.49243" lon="6.7584">
        <ele>315</ele>
        <time>2015-08-20T12:11:33.000Z</time>
      </trkpt>
      <trkpt lat="47.4924" lon="6.75845">
        <ele>316</ele>
        <time>2015-08-20T12:11:34.000Z</time>
      </trkpt>
      <trkpt lat="47.49237" lon="6.7585">
        <ele>317</ele>
        <time>2015-08-20T12:11:35.000Z</time>
      </trkpt>
      <trkpt lat="47.49234" lon="6.75854">
        <ele>317</ele>
        <time>2015-08-20T12:11:36.000Z</time>
      </trkpt>
      <trkpt lat="47.49231" lon="6.75857">
        <ele>318</ele>
        <time>2015-08-20T12:11:37.000Z</time>
      </trkpt>
      <trkpt lat="47.49229" lon="6.75863">
        <ele>318</ele>
        <time>2015-08-20T12:11:38.000Z</time>
      </trkpt>
      <trkpt lat="47.49226" lon="6.75868">
        <ele>318</ele>
        <time>2015-08-20T12:11:39.000Z</time>
      </trkpt>
      <trkpt lat="47.49225" lon="6.75874">
        <ele>319</ele>
        <time>2015-08-20T12:11:40.000Z</time>
      </trkpt>
      <trkpt lat="47.49223" lon="6.75878">
        <ele>319</ele>
        <time>2015-08-20T12:11:41.000Z</time>
      </trkpt>
      <trkpt lat="47.49221" lon="6.75884">
        <ele>319</ele>
        <time>2015-08-20T12:11:42.000Z</time>
      </trkpt>
      <trkpt lat="47.4922" lon="6.7589">
        <ele>319</ele>
        <time>2015-08-20T12:11:43.000Z</time>
      </trkpt>
      <trkpt lat="47.49219" lon="6.75897">
        <ele>319</ele>
        <time>2015-08-20T12:11:44.000Z</time>
      </trkpt>
      <trkpt lat="47.49218" lon="6.75904">
        <ele>319</ele>
        <time>2015-08-20T12:11:45.000Z</time>
      </trkpt>
      <trkpt lat="47.49216" lon="6.7591">
        <ele>319</ele>
        <time>2015-08-20T12:11:46.000Z</time>
      </trkpt>
      <trkpt lat="47.49206" lon="6.75927">
        <ele>320</ele>
        <time>2015-08-20T12:11:47.000Z</time>
      </trkpt>
      <trkpt lat="47.49202" lon="6.75933">
        <ele>320</ele>
        <time>2015-08-20T12:11:48.000Z</time>
      </trkpt>
      <trkpt lat="47.49198" lon="6.75938">
        <ele>320</ele>
        <time>2015-08-20T12:11:49.000Z</time>
      </trkpt>
      <trkpt lat="47.49194" lon="6.75947">
        <ele>320</ele>
        <time>2015-08-20T12:11:50.000Z</time>
      </trkpt>
      <trkpt lat="47.49191" lon="6.75956">
        <ele>320</ele>
        <time>2015-08-20T12:11:51.000Z</time>
      </trkpt>
      <trkpt lat="47.49188" lon="6.75963">
        <ele>320</ele>
        <time>2015-08-20T12:11:52.000Z</time>
      </trkpt>
      <trkpt lat="47.49184" lon="6.75972">
        <ele>320</ele>
        <time>2015-08-20T12:11:53.000Z</time>
      </trkpt>
      <trkpt lat="47.49179" lon="6.75978">
        <ele>320</ele>
        <time>2015-08-20T12:11:54.000Z</time>
      </trkpt>
      <trkpt lat="47.49174" lon="6.75985">
        <ele>320</ele>
        <time>2015-08-20T12:11:55.000Z</time>
      </trkpt>
      <trkpt lat="47.49173" lon="6.75993">
        <ele>320</ele>
        <time>2015-08-20T12:11:56.000Z</time>
      </trkpt>
      <trkpt lat="47.4917" lon="6.75999">
        <ele>319</ele>
        <time>2015-08-20T12:11:57.000Z</time>
      </trkpt>
      <trkpt lat="47.49167" lon="6.76005">
        <ele>320</ele>
        <time>2015-08-20T12:11:58.000Z</time>
      </trkpt>
      <trkpt lat="47.4916" lon="6.76018">
        <ele>322</ele>
        <time>2015-08-20T12:11:59.000Z</time>
      </trkpt>
      <trkpt lat="47.49155" lon="6.76027">
        <ele>323</ele>
        <time>2015-08-20T12:12:00.000Z</time>
      </trkpt>
      <trkpt lat="47.49151" lon="6.76033">
        <ele>323</ele>
        <time>2015-08-20T12:12:01.000Z</time>
      </trkpt>
      <trkpt lat="47.49147" lon="6.76041">
        <ele>323</ele>
        <time>2015-08-20T12:12:02.000Z</time>
      </trkpt>
      <trkpt lat="47.49143" lon="6.76048">
        <ele>323</ele>
        <time>2015-08-20T12:12:03.000Z</time>
      </trkpt>
      <trkpt lat="47.4914" lon="6.76055">
        <ele>323</ele>
        <time>2015-08-20T12:12:04.000Z</time>
      </trkpt>
      <trkpt lat="47.49137" lon="6.76064">
        <ele>323</ele>
        <time>2015-08-20T12:12:05.000Z</time>
      </trkpt>
      <trkpt lat="47.49136" lon="6.76075">
        <ele>323</ele>
        <time>2015-08-20T12:12:06.000Z</time>
      </trkpt>
      <trkpt lat="47.49132" lon="6.76082">
        <ele>323</ele>
        <time>2015-08-20T12:12:07.000Z</time>
      </trkpt>
      <trkpt lat="47.49131" lon="6.76092">
        <ele>322</ele>
        <time>2015-08-20T12:12:08.000Z</time>
      </trkpt>
      <trkpt lat="47.49129" lon="6.76099">
        <ele>322</ele>
        <time>2015-08-20T12:12:09.000Z</time>
      </trkpt>
      <trkpt lat="47.49127" lon="6.76108">
        <ele>322</ele>
        <time>2015-08-20T12:12:10.000Z</time>
      </trkpt>
      <trkpt lat="47.49127" lon="6.76119">
        <ele>322</ele>
        <time>2015-08-20T12:12:11.000Z</time>
      </trkpt>
      <trkpt lat="47.49125" lon="6.76127">
        <ele>322</ele>
        <time>2015-08-20T12:12:12.000Z</time>
      </trkpt>
      <trkpt lat="47.49124" lon="6.76136">
        <ele>322</ele>
        <time>2015-08-20T12:12:13.000Z</time>
      </trkpt>
      <trkpt lat="47.49126" lon="6.76142">
        <ele>322</ele>
        <time>2015-08-20T12:12:14.000Z</time>
      </trkpt>
      <trkpt lat="47.49124" lon="6.76148">
        <ele>322</ele>
        <time>2015-08-20T12:12:15.000Z</time>
      </trkpt>
      <trkpt lat="47.49124" lon="6.76156">
        <ele>322</ele>
        <time>2015-08-20T12:12:16.000Z</time>
      </trkpt>
      <trkpt lat="47.49124" lon="6.76162">
        <ele>322</ele>
        <time>2015-08-20T12:12:17.000Z</time>
      </trkpt>
      <trkpt lat="47.4912" lon="6.76167">
        <ele>321</ele>
        <time>2015-08-20T12:12:18.000Z</time>
      </trkpt>
      <trkpt lat="47.49119" lon="6.76173">
        <ele>321</ele>
        <time>2015-08-20T12:12:19.000Z</time>
      </trkpt>
      <trkpt lat="47.49116" lon="6.76178">
        <ele>322</ele>
        <time>2015-08-20T12:12:20.000Z</time>
      </trkpt>
      <trkpt lat="47.49115" lon="6.76181">
        <ele>322</ele>
        <time>2015-08-20T12:12:21.000Z</time>
      </trkpt>
      <trkpt lat="47.49115" lon="6.76185">
        <ele>322</ele>
        <time>2015-08-20T12:12:22.000Z</time>
      </trkpt>
      <trkpt lat="47.4911" lon="6.76192">
        <ele>322</ele>
        <time>2015-08-20T12:12:23.000Z</time>
      </trkpt>
      <trkpt lat="47.49106" lon="6.76199">
        <ele>322</ele>
        <time>2015-08-20T12:12:24.000Z</time>
      </trkpt>
      <trkpt lat="47.49103" lon="6.76203">
        <ele>322</ele>
        <time>2015-08-20T12:12:25.000Z</time>
      </trkpt>
      <trkpt lat="47.49101" lon="6.76207">
        <ele>322</ele>
        <time>2015-08-20T12:12:26.000Z</time>
      </trkpt>
      <trkpt lat="47.49099" lon="6.7621">
        <ele>322</ele>
        <time>2015-08-20T12:12:27.000Z</time>
      </trkpt>
      <trkpt lat="47.49098" lon="6.76214">
        <ele>322</ele>
        <time>2015-08-20T12:12:28.000Z</time>
      </trkpt>
      <trkpt lat="47.49097" lon="6.76218">
        <ele>322</ele>
        <time>2015-08-20T12:12:29.000Z</time>
      </trkpt>
      <trkpt lat="47.49096" lon="6.76223">
        <ele>322</ele>
        <time>2015-08-20T12:12:30.000Z</time>
      </trkpt>
      <trkpt lat="47.49095" lon="6.76229">
        <ele>323</ele>
        <time>2015-08-20T12:12:31.000Z</time>
      </trkpt>
      <trkpt lat="47.49095" lon="6.76234">
        <ele>323</ele>
        <time>2015-08-20T12:12:32.000Z</time>
      </trkpt>
      <trkpt lat="47.49094" lon="6.76241">
        <ele>323</ele>
        <time>2015-08-20T12:12:33.000Z</time>
      </trkpt>
      <trkpt lat="47.49094" lon="6.76248">
        <ele>324</ele>
        <time>2015-08-20T12:12:34.000Z</time>
      </trkpt>
      <trkpt lat="47.49094" lon="6.76255">
        <ele>323</ele>
        <time>2015-08-20T12:12:35.000Z</time>
      </trkpt>
      <trkpt lat="47.49095" lon="6.76263">
        <ele>322</ele>
        <time>2015-08-20T12:12:36.000Z</time>
      </trkpt>
      <trkpt lat="47.49095" lon="6.7627">
        <ele>322</ele>
        <time>2015-08-20T12:12:37.000Z</time>
      </trkpt>
      <trkpt lat="47.49094" lon="6.76278">
        <ele>321</ele>
        <time>2015-08-20T12:12:38.000Z</time>
      </trkpt>
      <trkpt lat="47.49093" lon="6.76285">
        <ele>321</ele>
        <time>2015-08-20T12:12:39.000Z</time>
      </trkpt>
      <trkpt lat="47.49092" lon="6.76291">
        <ele>321</ele>
        <time>2015-08-20T12:12:40.000Z</time>
      </trkpt>
      <trkpt lat="47.49091" lon="6.76298">
        <ele>321</ele>
        <time>2015-08-20T12:12:41.000Z</time>
      </trkpt>
      <trkpt lat="47.4909" lon="6.76304">
        <ele>321</ele>
        <time>2015-08-20T12:12:42.000Z</time>
      </trkpt>
      <trkpt lat="47.4909" lon="6.76311">
        <ele>321</ele>
        <time>2015-08-20T12:12:43.000Z</time>
      </trkpt>
      <trkpt lat="47.4909" lon="6.76318">
        <ele>321</ele>
        <time>2015-08-20T12:12:44.000Z</time>
      </trkpt>
      <trkpt lat="47.49096" lon="6.76349">
        <ele>320</ele>
        <time>2015-08-20T12:12:45.000Z</time>
      </trkpt>
      <trkpt lat="47.49096" lon="6.76363">
        <ele>319</ele>
        <time>2015-08-20T12:12:46.000Z</time>
      </trkpt>
      <trkpt lat="47.49096" lon="6.76377">
        <ele>319</ele>
        <time>2015-08-20T12:12:47.000Z</time>
      </trkpt>
      <trkpt lat="47.49099" lon="6.76386">
        <ele>319</ele>
        <time>2015-08-20T12:12:48.000Z</time>
      </trkpt>
      <trkpt lat="47.49099" lon="6.76396">
        <ele>319</ele>
        <time>2015-08-20T12:12:49.000Z</time>
      </trkpt>
      <trkpt lat="47.49101" lon="6.76405">
        <ele>319</ele>
        <time>2015-08-20T12:12:50.000Z</time>
      </trkpt>
      <trkpt lat="47.49103" lon="6.76415">
        <ele>319</ele>
        <time>2015-08-20T12:12:51.000Z</time>
      </trkpt>
      <trkpt lat="47.49105" lon="6.76421">
        <ele>318</ele>
        <time>2015-08-20T12:12:52.000Z</time>
      </trkpt>
      <trkpt lat="47.49107" lon="6.7643">
        <ele>318</ele>
        <time>2015-08-20T12:12:53.000Z</time>
      </trkpt>
      <trkpt lat="47.49107" lon="6.76439">
        <ele>318</ele>
        <time>2015-08-20T12:12:54.000Z</time>
      </trkpt>
      <trkpt lat="47.49107" lon="6.76446">
        <ele>318</ele>
        <time>2015-08-20T12:12:55.000Z</time>
      </trkpt>
      <trkpt lat="47.49106" lon="6.76452">
        <ele>318</ele>
        <time>2015-08-20T12:12:56.000Z</time>
      </trkpt>
      <trkpt lat="47.49107" lon="6.76457">
        <ele>318</ele>
        <time>2015-08-20T12:12:57.000Z</time>
      </trkpt>
      <trkpt lat="47.49107" lon="6.76461">
        <ele>318</ele>
        <time>2015-08-20T12:12:58.000Z</time>
      </trkpt>
      <trkpt lat="47.49107" lon="6.76465">
        <ele>318</ele>
        <time>2015-08-20T12:12:59.000Z</time>
      </trkpt>
      <trkpt lat="47.49108" lon="6.7647">
        <ele>318</ele>
        <time>2015-08-20T12:13:00.000Z</time>
      </trkpt>
      <trkpt lat="47.49109" lon="6.76476">
        <ele>318</ele>
        <time>2015-08-20T12:13:01.000Z</time>
      </trkpt>
      <trkpt lat="47.49112" lon="6.76494">
        <ele>318</ele>
        <time>2015-08-20T12:13:02.000Z</time>
      </trkpt>
      <trkpt lat="47.49112" lon="6.76506">
        <ele>317</ele>
        <time>2015-08-20T12:13:03.000Z</time>
      </trkpt>
      <trkpt lat="47.49113" lon="6.76515">
        <ele>317</ele>
        <time>2015-08-20T12:13:04.000Z</time>
      </trkpt>
      <trkpt lat="47.49112" lon="6.76524">
        <ele>317</ele>
        <time>2015-08-20T12:13:05.000Z</time>
      </trkpt>
      <trkpt lat="47.49111" lon="6.76532">
        <ele>317</ele>
        <time>2015-08-20T12:13:06.000Z</time>
      </trkpt>
      <trkpt lat="47.4911" lon="6.76541">
        <ele>316</ele>
        <time>2015-08-20T12:13:07.000Z</time>
      </trkpt>
      <trkpt lat="47.49111" lon="6.76544">
        <ele>316</ele>
        <time>2015-08-20T12:13:08.000Z</time>
      </trkpt>
      <trkpt lat="47.49116" lon="6.76548">
        <ele>316</ele>
        <time>2015-08-20T12:13:09.000Z</time>
      </trkpt>
      <trkpt lat="47.4912" lon="6.7655">
        <ele>316</ele>
        <time>2015-08-20T12:13:10.000Z</time>
      </trkpt>
      <trkpt lat="47.49122" lon="6.76551">
        <ele>316</ele>
        <time>2015-08-20T12:13:11.000Z</time>
      </trkpt>
      <trkpt lat="47.49125" lon="6.76554">
        <ele>316</ele>
        <time>2015-08-20T12:13:38.000Z</time>
      </trkpt>
      <trkpt lat="47.49126" lon="6.76555">
        <ele>316</ele>
        <time>2015-08-20T12:13:39.000Z</time>
      </trkpt>
      <trkpt lat="47.49127" lon="6.76561">
        <ele>315</ele>
        <time>2015-08-20T12:15:25.999Z</time>
      </trkpt>
      <trkpt lat="47.49127" lon="6.76561">
        <ele>315</ele>
        <time>2015-08-20T12:15:27.000Z</time>
      </trkpt>
      <trkpt lat="47.49126" lon="6.76561">
        <ele>315</ele>
        <time>2015-08-20T12:15:35.000Z</time>
      </trkpt>
      <trkpt lat="47.4911" lon="6.76571">
        <ele>316</ele>
        <time>2015-08-20T12:15:35.431Z</time>
      </trkpt>
      <trkpt lat="47.49109" lon="6.76586">
        <ele>315</ele>
        <time>2015-08-20T12:15:37.431Z</time>
      </trkpt>
      <trkpt lat="47.49126" lon="6.76561">
        <ele>315</ele>
        <time>2015-08-20T12:15:38.000Z</time>
      </trkpt>
      <trkpt lat="47.49123" lon="6.76557">
        <ele>316</ele>
        <time>2015-08-20T12:17:56.001Z</time>
      </trkpt>
      <trkpt lat="47.49123" lon="6.76552">
        <ele>316</ele>
        <time>2015-08-20T12:17:57.000Z</time>
      </trkpt>
      <trkpt lat="47.49123" lon="6.76549">
        <ele>316</ele>
        <time>2015-08-20T12:17:58.000Z</time>
      </trkpt>
      <trkpt lat="47.49123" lon="6.76544">
        <ele>316</ele>
        <time>2015-08-20T12:17:59.001Z</time>
      </trkpt>
      <trkpt lat="47.49123" lon="6.76538">
        <ele>316</ele>
        <time>2015-08-20T12:18:00.000Z</time>
      </trkpt>
      <trkpt lat="47.49123" lon="6.76533">
        <ele>316</ele>
        <time>2015-08-20T12:18:01.000Z</time>
      </trkpt>
      <trkpt lat="47.49123" lon="6.76529">
        <ele>316</ele>
        <time>2015-08-20T12:18:02.000Z</time>
      </trkpt>
      <trkpt lat="47.49122" lon="6.76524">
        <ele>316</ele>
        <time>2015-08-20T12:18:03.000Z</time>
      </trkpt>
      <trkpt lat="47.49121" lon="6.76519">
        <ele>316</ele>
        <time>2015-08-20T12:18:04.000Z</time>
      </trkpt>
      <trkpt lat="47.49121" lon="6.76514">
        <ele>316</ele>
        <time>2015-08-20T12:18:05.000Z</time>
      </trkpt>
      <trkpt lat="47.4912" lon="6.76509">
        <ele>317</ele>
        <time>2015-08-20T12:18:06.000Z</time>
      </trkpt>
      <trkpt lat="47.4912" lon="6.76505">
        <ele>317</ele>
        <time>2015-08-20T12:18:07.000Z</time>
      </trkpt>
      <trkpt lat="47.4912" lon="6.76501">
        <ele>317</ele>
        <time>2015-08-20T12:18:08.000Z</time>
      </trkpt>
      <trkpt lat="47.4912" lon="6.76497">
        <ele>317</ele>
        <time>2015-08-20T12:18:09.000Z</time>
      </trkpt>
      <trkpt lat="47.49122" lon="6.76492">
        <ele>317</ele>
        <time>2015-08-20T12:18:12.000Z</time>
      </trkpt>
      <trkpt lat="47.49122" lon="6.76488">
        <ele>317</ele>
        <time>2015-08-20T12:18:13.000Z</time>
      </trkpt>
      <trkpt lat="47.49123" lon="6.76484">
        <ele>317</ele>
        <time>2015-08-20T12:18:14.000Z</time>
      </trkpt>
      <trkpt lat="47.49123" lon="6.76474">
        <ele>317</ele>
        <time>2015-08-20T12:18:15.000Z</time>
      </trkpt>
      <trkpt lat="47.49123" lon="6.76465">
        <ele>317</ele>
        <time>2015-08-20T12:18:16.000Z</time>
      </trkpt>
      <trkpt lat="47.49123" lon="6.76456">
        <ele>317</ele>
        <time>2015-08-20T12:18:16.999Z</time>
      </trkpt>
      <trkpt lat="47.49122" lon="6.76451">
        <ele>317</ele>
        <time>2015-08-20T12:18:21.999Z</time>
      </trkpt>
      <trkpt lat="47.49122" lon="6.76446">
        <ele>317</ele>
        <time>2015-08-20T12:18:23.000Z</time>
      </trkpt>
      <trkpt lat="47.49122" lon="6.76441">
        <ele>317</ele>
        <time>2015-08-20T12:18:24.999Z</time>
      </trkpt>
      <trkpt lat="47.49122" lon="6.76436">
        <ele>317</ele>
        <time>2015-08-20T12:18:26.000Z</time>
      </trkpt>
      <trkpt lat="47.4912" lon="6.7643">
        <ele>317</ele>
        <time>2015-08-20T12:18:30.000Z</time>
      </trkpt>
      <trkpt lat="47.49119" lon="6.76429">
        <ele>317</ele>
        <time>2015-08-20T12:18:31.000Z</time>
      </trkpt>
      <trkpt lat="47.49115" lon="6.7643">
        <ele>318</ele>
        <time>2015-08-20T12:18:34.000Z</time>
      </trkpt>
      <trkpt lat="47.49113" lon="6.76429">
        <ele>318</ele>
        <time>2015-08-20T12:18:35.000Z</time>
      </trkpt>
      <trkpt lat="47.49109" lon="6.76428">
        <ele>318</ele>
        <time>2015-08-20T12:18:37.000Z</time>
      </trkpt>
      <trkpt lat="47.49107" lon="6.76428">
        <ele>318</ele>
        <time>2015-08-20T12:18:38.000Z</time>
      </trkpt>
      <trkpt lat="47.49104" lon="6.76425">
        <ele>318</ele>
        <time>2015-08-20T12:18:41.000Z</time>
      </trkpt>
      <trkpt lat="47.49104" lon="6.76422">
        <ele>319</ele>
        <time>2015-08-20T12:18:42.000Z</time>
      </trkpt>
      <trkpt lat="47.49105" lon="6.76419">
        <ele>319</ele>
        <time>2015-08-20T12:18:43.000Z</time>
      </trkpt>
      <trkpt lat="47.49106" lon="6.76415">
        <ele>319</ele>
        <time>2015-08-20T12:18:44.000Z</time>
      </trkpt>
      <trkpt lat="47.49107" lon="6.7641">
        <ele>319</ele>
        <time>2015-08-20T12:18:46.000Z</time>
      </trkpt>
      <trkpt lat="47.49106" lon="6.76407">
        <ele>319</ele>
        <time>2015-08-20T12:18:47.000Z</time>
      </trkpt>
      <trkpt lat="47.49107" lon="6.76402">
        <ele>319</ele>
        <time>2015-08-20T12:18:49.000Z</time>
      </trkpt>
      <trkpt lat="47.49107" lon="6.76399">
        <ele>319</ele>
        <time>2015-08-20T12:18:50.000Z</time>
      </trkpt>
      <trkpt lat="47.49108" lon="6.76395">
        <ele>319</ele>
        <time>2015-08-20T12:18:51.000Z</time>
      </trkpt>
      <trkpt lat="47.49109" lon="6.76392">
        <ele>318</ele>
        <time>2015-08-20T12:18:52.000Z</time>
      </trkpt>
      <trkpt lat="47.4911" lon="6.76388">
        <ele>318</ele>
        <time>2015-08-20T12:18:53.000Z</time>
      </trkpt>
      <trkpt lat="47.49111" lon="6.76384">
        <ele>318</ele>
        <time>2015-08-20T12:18:54.000Z</time>
      </trkpt>
      <trkpt lat="47.49112" lon="6.7638">
        <ele>318</ele>
        <time>2015-08-20T12:18:55.000Z</time>
      </trkpt>
      <trkpt lat="47.49112" lon="6.76375">
        <ele>318</ele>
        <time>2015-08-20T12:18:56.000Z</time>
      </trkpt>
      <trkpt lat="47.49111" lon="6.7637">
        <ele>319</ele>
        <time>2015-08-20T12:18:57.000Z</time>
      </trkpt>
      <trkpt lat="47.4911" lon="6.76365">
        <ele>319</ele>
        <time>2015-08-20T12:18:58.000Z</time>
      </trkpt>
      <trkpt lat="47.49109" lon="6.76359">
        <ele>319</ele>
        <time>2015-08-20T12:18:59.000Z</time>
      </trkpt>
      <trkpt lat="47.49108" lon="6.76352">
        <ele>319</ele>
        <time>2015-08-20T12:19:00.000Z</time>
      </trkpt>
      <trkpt lat="47.49107" lon="6.76346">
        <ele>319</ele>
        <time>2015-08-20T12:19:01.000Z</time>
      </trkpt>
      <trkpt lat="47.49107" lon="6.7634">
        <ele>320</ele>
        <time>2015-08-20T12:19:02.000Z</time>
      </trkpt>
      <trkpt lat="47.49107" lon="6.76334">
        <ele>320</ele>
        <time>2015-08-20T12:19:03.000Z</time>
      </trkpt>
      <trkpt lat="47.49106" lon="6.76328">
        <ele>321</ele>
        <time>2015-08-20T12:19:04.000Z</time>
      </trkpt>
      <trkpt lat="47.49106" lon="6.76323">
        <ele>321</ele>
        <time>2015-08-20T12:19:05.000Z</time>
      </trkpt>
      <trkpt lat="47.49106" lon="6.76317">
        <ele>320</ele>
        <time>2015-08-20T12:19:06.000Z</time>
      </trkpt>
      <trkpt lat="47.49106" lon="6.7631">
        <ele>320</ele>
        <time>2015-08-20T12:19:07.000Z</time>
      </trkpt>
      <trkpt lat="47.49106" lon="6.76304">
        <ele>320</ele>
        <time>2015-08-20T12:19:08.000Z</time>
      </trkpt>
      <trkpt lat="47.49106" lon="6.76298">
        <ele>320</ele>
        <time>2015-08-20T12:19:09.000Z</time>
      </trkpt>
      <trkpt lat="47.49106" lon="6.76293">
        <ele>320</ele>
        <time>2015-08-20T12:19:10.000Z</time>
      </trkpt>
      <trkpt lat="47.49105" lon="6.76287">
        <ele>321</ele>
        <time>2015-08-20T12:19:11.000Z</time>
      </trkpt>
      <trkpt lat="47.49105" lon="6.76281">
        <ele>321</ele>
        <time>2015-08-20T12:19:12.000Z</time>
      </trkpt>
      <trkpt lat="47.49106" lon="6.76276">
        <ele>321</ele>
        <time>2015-08-20T12:19:13.000Z</time>
      </trkpt>
      <trkpt lat="47.49106" lon="6.76272">
        <ele>321</ele>
        <time>2015-08-20T12:19:14.000Z</time>
      </trkpt>
      <trkpt lat="47.49106" lon="6.76267">
        <ele>321</ele>
        <time>2015-08-20T12:19:15.000Z</time>
      </trkpt>
      <trkpt lat="47.49107" lon="6.76263">
        <ele>321</ele>
        <time>2015-08-20T12:19:16.000Z</time>
      </trkpt>
      <trkpt lat="47.49107" lon="6.76259">
        <ele>321</ele>
        <time>2015-08-20T12:19:17.000Z</time>
      </trkpt>
      <trkpt lat="47.49107" lon="6.76255">
        <ele>321</ele>
        <time>2015-08-20T12:19:18.000Z</time>
      </trkpt>
      <trkpt lat="47.49107" lon="6.76251">
        <ele>321</ele>
        <time>2015-08-20T12:19:19.000Z</time>
      </trkpt>
      <trkpt lat="47.49106" lon="6.76248">
        <ele>322</ele>
        <time>2015-08-20T12:19:20.000Z</time>
      </trkpt>
      <trkpt lat="47.49106" lon="6.76244">
        <ele>322</ele>
        <time>2015-08-20T12:19:21.000Z</time>
      </trkpt>
      <trkpt lat="47.49105" lon="6.7624">
        <ele>322</ele>
        <time>2015-08-20T12:19:22.000Z</time>
      </trkpt>
      <trkpt lat="47.49104" lon="6.76234">
        <ele>322</ele>
        <time>2015-08-20T12:19:23.000Z</time>
      </trkpt>
      <trkpt lat="47.49103" lon="6.76228">
        <ele>322</ele>
        <time>2015-08-20T12:19:24.000Z</time>
      </trkpt>
      <trkpt lat="47.49103" lon="6.76222">
        <ele>322</ele>
        <time>2015-08-20T12:19:25.000Z</time>
      </trkpt>
      <trkpt lat="47.49103" lon="6.76216">
        <ele>322</ele>
        <time>2015-08-20T12:19:26.000Z</time>
      </trkpt>
      <trkpt lat="47.49103" lon="6.7621">
        <ele>322</ele>
        <time>2015-08-20T12:19:27.000Z</time>
      </trkpt>
      <trkpt lat="47.49102" lon="6.76205">
        <ele>322</ele>
        <time>2015-08-20T12:19:28.000Z</time>
      </trkpt>
      <trkpt lat="47.49102" lon="6.762">
        <ele>322</ele>
        <time>2015-08-20T12:19:29.000Z</time>
      </trkpt>
      <trkpt lat="47.49102" lon="6.76195">
        <ele>322</ele>
        <time>2015-08-20T12:19:30.000Z</time>
      </trkpt>
      <trkpt lat="47.49102" lon="6.7619">
        <ele>322</ele>
        <time>2015-08-20T12:19:31.000Z</time>
      </trkpt>
      <trkpt lat="47.49102" lon="6.76184">
        <ele>322</ele>
        <time>2015-08-20T12:19:32.000Z</time>
      </trkpt>
      <trkpt lat="47.49102" lon="6.76178">
        <ele>322</ele>
        <time>2015-08-20T12:19:33.000Z</time>
      </trkpt>
      <trkpt lat="47.49102" lon="6.76172">
        <ele>322</ele>
        <time>2015-08-20T12:19:34.000Z</time>
      </trkpt>
      <trkpt lat="47.49102" lon="6.76167">
        <ele>323</ele>
        <time>2015-08-20T12:19:35.000Z</time>
      </trkpt>
      <trkpt lat="47.49103" lon="6.7616">
        <ele>323</ele>
        <time>2015-08-20T12:19:36.000Z</time>
      </trkpt>
      <trkpt lat="47.49103" lon="6.76154">
        <ele>323</ele>
        <time>2015-08-20T12:19:37.000Z</time>
      </trkpt>
      <trkpt lat="47.49103" lon="6.76147">
        <ele>323</ele>
        <time>2015-08-20T12:19:38.000Z</time>
      </trkpt>
      <trkpt lat="47.49103" lon="6.76141">
        <ele>323</ele>
        <time>2015-08-20T12:19:39.000Z</time>
      </trkpt>
      <trkpt lat="47.49103" lon="6.76136">
        <ele>323</ele>
        <time>2015-08-20T12:19:40.000Z</time>
      </trkpt>
      <trkpt lat="47.49102" lon="6.76131">
        <ele>323</ele>
        <time>2015-08-20T12:19:41.000Z</time>
      </trkpt>
      <trkpt lat="47.49101" lon="6.76126">
        <ele>323</ele>
        <time>2015-08-20T12:19:42.000Z</time>
      </trkpt>
      <trkpt lat="47.49101" lon="6.76121">
        <ele>323</ele>
        <time>2015-08-20T12:19:43.000Z</time>
      </trkpt>
      <trkpt lat="47.49101" lon="6.76117">
        <ele>324</ele>
        <time>2015-08-20T12:19:44.000Z</time>
      </trkpt>
      <trkpt lat="47.49101" lon="6.76113">
        <ele>324</ele>
        <time>2015-08-20T12:19:45.000Z</time>
      </trkpt>
      <trkpt lat="47.49103" lon="6.76109">
        <ele>324</ele>
        <time>2015-08-20T12:19:46.000Z</time>
      </trkpt>
      <trkpt lat="47.49104" lon="6.76105">
        <ele>324</ele>
        <time>2015-08-20T12:19:47.000Z</time>
      </trkpt>
      <trkpt lat="47.49106" lon="6.76101">
        <ele>324</ele>
        <time>2015-08-20T12:19:48.000Z</time>
      </trkpt>
      <trkpt lat="47.49108" lon="6.76097">
        <ele>324</ele>
        <time>2015-08-20T12:19:49.000Z</time>
      </trkpt>
      <trkpt lat="47.49109" lon="6.76094">
        <ele>324</ele>
        <time>2015-08-20T12:19:50.000Z</time>
      </trkpt>
      <trkpt lat="47.49111" lon="6.76091">
        <ele>324</ele>
        <time>2015-08-20T12:19:51.000Z</time>
      </trkpt>
      <trkpt lat="47.49112" lon="6.76088">
        <ele>324</ele>
        <time>2015-08-20T12:19:52.000Z</time>
      </trkpt>
      <trkpt lat="47.49114" lon="6.76084">
        <ele>324</ele>
        <time>2015-08-20T12:19:53.000Z</time>
      </trkpt>
      <trkpt lat="47.49115" lon="6.76079">
        <ele>325</ele>
        <time>2015-08-20T12:19:54.000Z</time>
      </trkpt>
      <trkpt lat="47.49116" lon="6.76073">
        <ele>325</ele>
        <time>2015-08-20T12:19:55.000Z</time>
      </trkpt>
      <trkpt lat="47.49117" lon="6.76068">
        <ele>325</ele>
        <time>2015-08-20T12:19:56.000Z</time>
      </trkpt>
      <trkpt lat="47.49118" lon="6.76063">
        <ele>325</ele>
        <time>2015-08-20T12:19:57.000Z</time>
      </trkpt>
      <trkpt lat="47.49119" lon="6.76057">
        <ele>325</ele>
        <time>2015-08-20T12:19:58.000Z</time>
      </trkpt>
      <trkpt lat="47.4912" lon="6.76051">
        <ele>325</ele>
        <time>2015-08-20T12:19:59.000Z</time>
      </trkpt>
      <trkpt lat="47.49121" lon="6.76045">
        <ele>325</ele>
        <time>2015-08-20T12:20:00.000Z</time>
      </trkpt>
      <trkpt lat="47.49122" lon="6.76039">
        <ele>325</ele>
        <time>2015-08-20T12:20:01.000Z</time>
      </trkpt>
      <trkpt lat="47.49123" lon="6.76033">
        <ele>325</ele>
        <time>2015-08-20T12:20:02.000Z</time>
      </trkpt>
      <trkpt lat="47.49124" lon="6.76029">
        <ele>325</ele>
        <time>2015-08-20T12:20:03.000Z</time>
      </trkpt>
      <trkpt lat="47.49125" lon="6.76026">
        <ele>325</ele>
        <time>2015-08-20T12:20:04.000Z</time>
      </trkpt>
      <trkpt lat="47.49127" lon="6.76023">
        <ele>325</ele>
        <time>2015-08-20T12:20:05.000Z</time>
      </trkpt>
      <trkpt lat="47.49127" lon="6.76019">
        <ele>325</ele>
        <time>2015-08-20T12:20:06.000Z</time>
      </trkpt>
      <trkpt lat="47.49128" lon="6.76015">
        <ele>325</ele>
        <time>2015-08-20T12:20:07.000Z</time>
      </trkpt>
      <trkpt lat="47.49129" lon="6.76012">
        <ele>325</ele>
        <time>2015-08-20T12:20:08.000Z</time>
      </trkpt>
      <trkpt lat="47.4913" lon="6.76009">
        <ele>324</ele>
        <time>2015-08-20T12:20:09.000Z</time>
      </trkpt>
      <trkpt lat="47.49132" lon="6.76006">
        <ele>324</ele>
        <time>2015-08-20T12:20:10.000Z</time>
      </trkpt>
      <trkpt lat="47.49133" lon="6.76002">
        <ele>324</ele>
        <time>2015-08-20T12:20:11.000Z</time>
      </trkpt>
      <trkpt lat="47.49135" lon="6.75999">
        <ele>326</ele>
        <time>2015-08-20T12:20:12.000Z</time>
      </trkpt>
      <trkpt lat="47.49136" lon="6.75996">
        <ele>326</ele>
        <time>2015-08-20T12:20:13.000Z</time>
      </trkpt>
      <trkpt lat="47.49137" lon="6.75992">
        <ele>326</ele>
        <time>2015-08-20T12:20:14.000Z</time>
      </trkpt>
      <trkpt lat="47.49138" lon="6.75989">
        <ele>326</ele>
        <time>2015-08-20T12:20:15.000Z</time>
      </trkpt>
      <trkpt lat="47.49139" lon="6.75986">
        <ele>326</ele>
        <time>2015-08-20T12:20:16.000Z</time>
      </trkpt>
      <trkpt lat="47.4914" lon="6.75983">
        <ele>326</ele>
        <time>2015-08-20T12:20:17.000Z</time>
      </trkpt>
      <trkpt lat="47.49141" lon="6.75979">
        <ele>326</ele>
        <time>2015-08-20T12:20:18.000Z</time>
      </trkpt>
      <trkpt lat="47.49142" lon="6.75975">
        <ele>326</ele>
        <time>2015-08-20T12:20:19.000Z</time>
      </trkpt>
      <trkpt lat="47.49142" lon="6.75971">
        <ele>326</ele>
        <time>2015-08-20T12:20:20.000Z</time>
      </trkpt>
      <trkpt lat="47.49142" lon="6.75966">
        <ele>327</ele>
        <time>2015-08-20T12:20:21.000Z</time>
      </trkpt>
      <trkpt lat="47.49143" lon="6.75961">
        <ele>327</ele>
        <time>2015-08-20T12:20:22.000Z</time>
      </trkpt>
      <trkpt lat="47.49144" lon="6.75956">
        <ele>327</ele>
        <time>2015-08-20T12:20:23.000Z</time>
      </trkpt>
      <trkpt lat="47.49145" lon="6.7595">
        <ele>327</ele>
        <time>2015-08-20T12:20:24.000Z</time>
      </trkpt>
      <trkpt lat="47.49145" lon="6.75945">
        <ele>327</ele>
        <time>2015-08-20T12:20:25.000Z</time>
      </trkpt>
      <trkpt lat="47.49146" lon="6.75939">
        <ele>327</ele>
        <time>2015-08-20T12:20:26.000Z</time>
      </trkpt>
      <trkpt lat="47.49147" lon="6.75934">
        <ele>327</ele>
        <time>2015-08-20T12:20:27.000Z</time>
      </trkpt>
      <trkpt lat="47.49147" lon="6.7593">
        <ele>326</ele>
        <time>2015-08-20T12:20:28.000Z</time>
      </trkpt>
      <trkpt lat="47.49149" lon="6.75925">
        <ele>326</ele>
        <time>2015-08-20T12:20:29.000Z</time>
      </trkpt>
      <trkpt lat="47.4915" lon="6.7592">
        <ele>326</ele>
        <time>2015-08-20T12:20:30.000Z</time>
      </trkpt>
      <trkpt lat="47.49152" lon="6.75915">
        <ele>327</ele>
        <time>2015-08-20T12:20:31.000Z</time>
      </trkpt>
      <trkpt lat="47.49154" lon="6.7591">
        <ele>327</ele>
        <time>2015-08-20T12:20:32.000Z</time>
      </trkpt>
      <trkpt lat="47.49156" lon="6.75905">
        <ele>328</ele>
        <time>2015-08-20T12:20:33.000Z</time>
      </trkpt>
      <trkpt lat="47.49158" lon="6.759">
        <ele>328</ele>
        <time>2015-08-20T12:20:34.000Z</time>
      </trkpt>
      <trkpt lat="47.4916" lon="6.75895">
        <ele>329</ele>
        <time>2015-08-20T12:20:35.000Z</time>
      </trkpt>
      <trkpt lat="47.49162" lon="6.7589">
        <ele>329</ele>
        <time>2015-08-20T12:20:36.000Z</time>
      </trkpt>
      <trkpt lat="47.49164" lon="6.75885">
        <ele>329</ele>
        <time>2015-08-20T12:20:37.000Z</time>
      </trkpt>
      <trkpt lat="47.49165" lon="6.7588">
        <ele>330</ele>
        <time>2015-08-20T12:20:38.000Z</time>
      </trkpt>
      <trkpt lat="47.49167" lon="6.75874">
        <ele>321</ele>
        <time>2015-08-20T12:20:39.000Z</time>
      </trkpt>
      <trkpt lat="47.49168" lon="6.75868">
        <ele>322</ele>
        <time>2015-08-20T12:20:40.000Z</time>
      </trkpt>
      <trkpt lat="47.4917" lon="6.75862">
        <ele>322</ele>
        <time>2015-08-20T12:20:41.000Z</time>
      </trkpt>
      <trkpt lat="47.49171" lon="6.75857">
        <ele>322</ele>
        <time>2015-08-20T12:20:42.000Z</time>
      </trkpt>
      <trkpt lat="47.49173" lon="6.75852">
        <ele>323</ele>
        <time>2015-08-20T12:20:43.000Z</time>
      </trkpt>
      <trkpt lat="47.49175" lon="6.75847">
        <ele>323</ele>
        <time>2015-08-20T12:20:44.000Z</time>
      </trkpt>
      <trkpt lat="47.49177" lon="6.75841">
        <ele>323</ele>
        <time>2015-08-20T12:20:45.000Z</time>
      </trkpt>
      <trkpt lat="47.4918" lon="6.75826">
        <ele>325</ele>
        <time>2015-08-20T12:20:46.000Z</time>
      </trkpt>
      <trkpt lat="47.49182" lon="6.7582">
        <ele>324</ele>
        <time>2015-08-20T12:20:47.000Z</time>
      </trkpt>
      <trkpt lat="47.49184" lon="6.75811">
        <ele>324</ele>
        <time>2015-08-20T12:20:48.000Z</time>
      </trkpt>
      <trkpt lat="47.49183" lon="6.75801">
        <ele>325</ele>
        <time>2015-08-20T12:20:49.000Z</time>
      </trkpt>
      <trkpt lat="47.49184" lon="6.75792">
        <ele>325</ele>
        <time>2015-08-20T12:20:50.000Z</time>
      </trkpt>
      <trkpt lat="47.49186" lon="6.75786">
        <ele>325</ele>
        <time>2015-08-20T12:20:51.000Z</time>
      </trkpt>
      <trkpt lat="47.49189" lon="6.75779">
        <ele>326</ele>
        <time>2015-08-20T12:20:52.000Z</time>
      </trkpt>
      <trkpt lat="47.49193" lon="6.75774">
        <ele>326</ele>
        <time>2015-08-20T12:20:53.000Z</time>
      </trkpt>
      <trkpt lat="47.49195" lon="6.75767">
        <ele>326</ele>
        <time>2015-08-20T12:20:54.000Z</time>
      </trkpt>
      <trkpt lat="47.49198" lon="6.75761">
        <ele>326</ele>
        <time>2015-08-20T12:20:55.000Z</time>
      </trkpt>
      <trkpt lat="47.49196" lon="6.75753">
        <ele>326</ele>
        <time>2015-08-20T12:20:56.000Z</time>
      </trkpt>
      <trkpt lat="47.49196" lon="6.75746">
        <ele>331</ele>
        <time>2015-08-20T12:20:57.000Z</time>
      </trkpt>
      <trkpt lat="47.49198" lon="6.75742">
        <ele>331</ele>
        <time>2015-08-20T12:20:58.000Z</time>
      </trkpt>
      <trkpt lat="47.49199" lon="6.75738">
        <ele>331</ele>
        <time>2015-08-20T12:20:59.000Z</time>
      </trkpt>
      <trkpt lat="47.49201" lon="6.75734">
        <ele>331</ele>
        <time>2015-08-20T12:21:00.000Z</time>
      </trkpt>
      <trkpt lat="47.49204" lon="6.75729">
        <ele>331</ele>
        <time>2015-08-20T12:21:01.000Z</time>
      </trkpt>
      <trkpt lat="47.49206" lon="6.75725">
        <ele>331</ele>
        <time>2015-08-20T12:21:02.000Z</time>
      </trkpt>
      <trkpt lat="47.49207" lon="6.75717">
        <ele>331</ele>
        <time>2015-08-20T12:21:03.000Z</time>
      </trkpt>
      <trkpt lat="47.49209" lon="6.75712">
        <ele>331</ele>
        <time>2015-08-20T12:21:04.000Z</time>
      </trkpt>
      <trkpt lat="47.4921" lon="6.75707">
        <ele>331</ele>
        <time>2015-08-20T12:21:05.000Z</time>
      </trkpt>
      <trkpt lat="47.49212" lon="6.75702">
        <ele>331</ele>
        <time>2015-08-20T12:21:06.000Z</time>
      </trkpt>
      <trkpt lat="47.49213" lon="6.75698">
        <ele>331</ele>
        <time>2015-08-20T12:21:07.000Z</time>
      </trkpt>
      <trkpt lat="47.49214" lon="6.75694">
        <ele>331</ele>
        <time>2015-08-20T12:21:08.000Z</time>
      </trkpt>
      <trkpt lat="47.49215" lon="6.7569">
        <ele>331</ele>
        <time>2015-08-20T12:21:09.000Z</time>
      </trkpt>
      <trkpt lat="47.49216" lon="6.75686">
        <ele>331</ele>
        <time>2015-08-20T12:21:10.000Z</time>
      </trkpt>
      <trkpt lat="47.49217" lon="6.75682">
        <ele>331</ele>
        <time>2015-08-20T12:21:11.000Z</time>
      </trkpt>
      <trkpt lat="47.49219" lon="6.75679">
        <ele>330</ele>
        <time>2015-08-20T12:21:12.000Z</time>
      </trkpt>
      <trkpt lat="47.49221" lon="6.75675">
        <ele>330</ele>
        <time>2015-08-20T12:21:13.000Z</time>
      </trkpt>
      <trkpt lat="47.49223" lon="6.75669">
        <ele>330</ele>
        <time>2015-08-20T12:21:14.000Z</time>
      </trkpt>
      <trkpt lat="47.49225" lon="6.75664">
        <ele>334</ele>
        <time>2015-08-20T12:21:15.000Z</time>
      </trkpt>
      <trkpt lat="47.49226" lon="6.7566">
        <ele>334</ele>
        <time>2015-08-20T12:21:16.000Z</time>
      </trkpt>
      <trkpt lat="47.49228" lon="6.75655">
        <ele>334</ele>
        <time>2015-08-20T12:21:17.000Z</time>
      </trkpt>
      <trkpt lat="47.4923" lon="6.75649">
        <ele>334</ele>
        <time>2015-08-20T12:21:18.000Z</time>
      </trkpt>
      <trkpt lat="47.49231" lon="6.75644">
        <ele>335</ele>
        <time>2015-08-20T12:21:19.000Z</time>
      </trkpt>
      <trkpt lat="47.49232" lon="6.75639">
        <ele>335</ele>
        <time>2015-08-20T12:21:20.000Z</time>
      </trkpt>
      <trkpt lat="47.49233" lon="6.75634">
        <ele>336</ele>
        <time>2015-08-20T12:21:21.000Z</time>
      </trkpt>
      <trkpt lat="47.49232" lon="6.75628">
        <ele>336</ele>
        <time>2015-08-20T12:21:22.000Z</time>
      </trkpt>
      <trkpt lat="47.49231" lon="6.75621">
        <ele>337</ele>
        <time>2015-08-20T12:21:23.000Z</time>
      </trkpt>
      <trkpt lat="47.4923" lon="6.75615">
        <ele>337</ele>
        <time>2015-08-20T12:21:24.000Z</time>
      </trkpt>
      <trkpt lat="47.49229" lon="6.75609">
        <ele>338</ele>
        <time>2015-08-20T12:21:25.000Z</time>
      </trkpt>
      <trkpt lat="47.49229" lon="6.75602">
        <ele>338</ele>
        <time>2015-08-20T12:21:26.000Z</time>
      </trkpt>
      <trkpt lat="47.4923" lon="6.75595">
        <ele>337</ele>
        <time>2015-08-20T12:21:27.000Z</time>
      </trkpt>
      <trkpt lat="47.49231" lon="6.7559">
        <ele>337</ele>
        <time>2015-08-20T12:21:28.000Z</time>
      </trkpt>
      <trkpt lat="47.49233" lon="6.75583">
        <ele>337</ele>
        <time>2015-08-20T12:21:29.000Z</time>
      </trkpt>
      <trkpt lat="47.49235" lon="6.75577">
        <ele>340</ele>
        <time>2015-08-20T12:21:30.000Z</time>
      </trkpt>
      <trkpt lat="47.49237" lon="6.75571">
        <ele>340</ele>
        <time>2015-08-20T12:21:31.000Z</time>
      </trkpt>
      <trkpt lat="47.49239" lon="6.75565">
        <ele>341</ele>
        <time>2015-08-20T12:21:32.000Z</time>
      </trkpt>
      <trkpt lat="47.49241" lon="6.75559">
        <ele>342</ele>
        <time>2015-08-20T12:21:33.000Z</time>
      </trkpt>
      <trkpt lat="47.49243" lon="6.75555">
        <ele>342</ele>
        <time>2015-08-20T12:21:34.000Z</time>
      </trkpt>
      <trkpt lat="47.49245" lon="6.75548">
        <ele>343</ele>
        <time>2015-08-20T12:21:35.000Z</time>
      </trkpt>
      <trkpt lat="47.49246" lon="6.75541">
        <ele>343</ele>
        <time>2015-08-20T12:21:36.000Z</time>
      </trkpt>
      <trkpt lat="47.49247" lon="6.75534">
        <ele>343</ele>
        <time>2015-08-20T12:21:37.000Z</time>
      </trkpt>
      <trkpt lat="47.49249" lon="6.75527">
        <ele>343</ele>
        <time>2015-08-20T12:21:38.000Z</time>
      </trkpt>
      <trkpt lat="47.4925" lon="6.75521">
        <ele>343</ele>
        <time>2015-08-20T12:21:39.000Z</time>
      </trkpt>
      <trkpt lat="47.49251" lon="6.75515">
        <ele>335</ele>
        <time>2015-08-20T12:21:40.000Z</time>
      </trkpt>
      <trkpt lat="47.49253" lon="6.75508">
        <ele>336</ele>
        <time>2015-08-20T12:21:41.000Z</time>
      </trkpt>
      <trkpt lat="47.49255" lon="6.75501">
        <ele>337</ele>
        <time>2015-08-20T12:21:42.000Z</time>
      </trkpt>
      <trkpt lat="47.49257" lon="6.75494">
        <ele>338</ele>
        <time>2015-08-20T12:21:43.000Z</time>
      </trkpt>
      <trkpt lat="47.49259" lon="6.75487">
        <ele>337</ele>
        <time>2015-08-20T12:21:44.000Z</time>
      </trkpt>
      <trkpt lat="47.49259" lon="6.75481">
        <ele>337</ele>
        <time>2015-08-20T12:21:45.000Z</time>
      </trkpt>
      <trkpt lat="47.49259" lon="6.75474">
        <ele>337</ele>
        <time>2015-08-20T12:21:46.000Z</time>
      </trkpt>
      <trkpt lat="47.49257" lon="6.75461">
        <ele>337</ele>
        <time>2015-08-20T12:21:47.000Z</time>
      </trkpt>
      <trkpt lat="47.4926" lon="6.75461">
        <ele>337</ele>
        <time>2015-08-20T12:21:48.000Z</time>
      </trkpt>
      <trkpt lat="47.49262" lon="6.75458">
        <ele>337</ele>
        <time>2015-08-20T12:21:49.000Z</time>
      </trkpt>
      <trkpt lat="47.49265" lon="6.75454">
        <ele>337</ele>
        <time>2015-08-20T12:21:50.000Z</time>
      </trkpt>
      <trkpt lat="47.49267" lon="6.75448">
        <ele>337</ele>
        <time>2015-08-20T12:21:51.000Z</time>
      </trkpt>
      <trkpt lat="47.49269" lon="6.75445">
        <ele>337</ele>
        <time>2015-08-20T12:21:52.000Z</time>
      </trkpt>
      <trkpt lat="47.49271" lon="6.75442">
        <ele>337</ele>
        <time>2015-08-20T12:21:53.000Z</time>
      </trkpt>
      <trkpt lat="47.49273" lon="6.75439">
        <ele>337</ele>
        <time>2015-08-20T12:21:54.000Z</time>
      </trkpt>
      <trkpt lat="47.49274" lon="6.75435">
        <ele>337</ele>
        <time>2015-08-20T12:21:55.000Z</time>
      </trkpt>
      <trkpt lat="47.49276" lon="6.75429">
        <ele>338</ele>
        <time>2015-08-20T12:21:57.000Z</time>
      </trkpt>
      <trkpt lat="47.49276" lon="6.75427">
        <ele>338</ele>
        <time>2015-08-20T12:21:58.000Z</time>
      </trkpt>
      <trkpt lat="47.49277" lon="6.75421">
        <ele>338</ele>
        <time>2015-08-20T12:22:00.000Z</time>
      </trkpt>
      <trkpt lat="47.49278" lon="6.75418">
        <ele>338</ele>
        <time>2015-08-20T12:22:01.000Z</time>
      </trkpt>
      <trkpt lat="47.49279" lon="6.75415">
        <ele>340</ele>
        <time>2015-08-20T12:22:02.000Z</time>
      </trkpt>
      <trkpt lat="47.49281" lon="6.75412">
        <ele>339</ele>
        <time>2015-08-20T12:22:03.000Z</time>
      </trkpt>
      <trkpt lat="47.49283" lon="6.75408">
        <ele>339</ele>
        <time>2015-08-20T12:22:04.000Z</time>
      </trkpt>
      <trkpt lat="47.49285" lon="6.75402">
        <ele>339</ele>
        <time>2015-08-20T12:22:05.000Z</time>
      </trkpt>
      <trkpt lat="47.49287" lon="6.75396">
        <ele>339</ele>
        <time>2015-08-20T12:22:06.000Z</time>
      </trkpt>
      <trkpt lat="47.49288" lon="6.75391">
        <ele>339</ele>
        <time>2015-08-20T12:22:07.000Z</time>
      </trkpt>
      <trkpt lat="47.49288" lon="6.75388">
        <ele>338</ele>
        <time>2015-08-20T12:22:08.000Z</time>
      </trkpt>
      <trkpt lat="47.49289" lon="6.75382">
        <ele>338</ele>
        <time>2015-08-20T12:22:09.000Z</time>
      </trkpt>
      <trkpt lat="47.49289" lon="6.75378">
        <ele>338</ele>
        <time>2015-08-20T12:22:10.000Z</time>
      </trkpt>
      <trkpt lat="47.4929" lon="6.75373">
        <ele>338</ele>
        <time>2015-08-20T12:22:11.000Z</time>
      </trkpt>
      <trkpt lat="47.49291" lon="6.75368">
        <ele>338</ele>
        <time>2015-08-20T12:22:12.000Z</time>
      </trkpt>
      <trkpt lat="47.49292" lon="6.75362">
        <ele>338</ele>
        <time>2015-08-20T12:22:13.000Z</time>
      </trkpt>
      <trkpt lat="47.49293" lon="6.75356">
        <ele>338</ele>
        <time>2015-08-20T12:22:14.000Z</time>
      </trkpt>
      <trkpt lat="47.49294" lon="6.75351">
        <ele>338</ele>
        <time>2015-08-20T12:22:15.000Z</time>
      </trkpt>
      <trkpt lat="47.49295" lon="6.75346">
        <ele>338</ele>
        <time>2015-08-20T12:22:16.000Z</time>
      </trkpt>
      <trkpt lat="47.49295" lon="6.7534">
        <ele>338</ele>
        <time>2015-08-20T12:22:17.000Z</time>
      </trkpt>
      <trkpt lat="47.49296" lon="6.75335">
        <ele>338</ele>
        <time>2015-08-20T12:22:18.000Z</time>
      </trkpt>
      <trkpt lat="47.49296" lon="6.7533">
        <ele>339</ele>
        <time>2015-08-20T12:22:19.000Z</time>
      </trkpt>
      <trkpt lat="47.49296" lon="6.75324">
        <ele>339</ele>
        <time>2015-08-20T12:22:20.000Z</time>
      </trkpt>
      <trkpt lat="47.49297" lon="6.75319">
        <ele>339</ele>
        <time>2015-08-20T12:22:21.000Z</time>
      </trkpt>
      <trkpt lat="47.49297" lon="6.75314">
        <ele>339</ele>
        <time>2015-08-20T12:22:22.000Z</time>
      </trkpt>
      <trkpt lat="47.49297" lon="6.7531">
        <ele>339</ele>
        <time>2015-08-20T12:22:23.000Z</time>
      </trkpt>
      <trkpt lat="47.49298" lon="6.75307">
        <ele>339</ele>
        <time>2015-08-20T12:22:24.000Z</time>
      </trkpt>
      <trkpt lat="47.49299" lon="6.75303">
        <ele>339</ele>
        <time>2015-08-20T12:22:25.000Z</time>
      </trkpt>
      <trkpt lat="47.49301" lon="6.75299">
        <ele>339</ele>
        <time>2015-08-20T12:22:26.000Z</time>
      </trkpt>
      <trkpt lat="47.49302" lon="6.75295">
        <ele>339</ele>
        <time>2015-08-20T12:22:27.000Z</time>
      </trkpt>
      <trkpt lat="47.49302" lon="6.75291">
        <ele>339</ele>
        <time>2015-08-20T12:22:28.000Z</time>
      </trkpt>
      <trkpt lat="47.49303" lon="6.75287">
        <ele>339</ele>
        <time>2015-08-20T12:22:29.000Z</time>
      </trkpt>
      <trkpt lat="47.49303" lon="6.75284">
        <ele>339</ele>
        <time>2015-08-20T12:22:30.000Z</time>
      </trkpt>
      <trkpt lat="47.49303" lon="6.75278">
        <ele>339</ele>
        <time>2015-08-20T12:22:32.000Z</time>
      </trkpt>
      <trkpt lat="47.49303" lon="6.75275">
        <ele>339</ele>
        <time>2015-08-20T12:22:33.000Z</time>
      </trkpt>
      <trkpt lat="47.49304" lon="6.7527">
        <ele>338</ele>
        <time>2015-08-20T12:22:35.000Z</time>
      </trkpt>
      <trkpt lat="47.49304" lon="6.75267">
        <ele>338</ele>
        <time>2015-08-20T12:22:36.000Z</time>
      </trkpt>
      <trkpt lat="47.49304" lon="6.75263">
        <ele>338</ele>
        <time>2015-08-20T12:22:38.000Z</time>
      </trkpt>
      <trkpt lat="47.49305" lon="6.7526">
        <ele>338</ele>
        <time>2015-08-20T12:22:39.000Z</time>
      </trkpt>
      <trkpt lat="47.49305" lon="6.75255">
        <ele>338</ele>
        <time>2015-08-20T12:22:41.000Z</time>
      </trkpt>
      <trkpt lat="47.49305" lon="6.75252">
        <ele>338</ele>
        <time>2015-08-20T12:22:42.000Z</time>
      </trkpt>
      <trkpt lat="47.49305" lon="6.75248">
        <ele>340</ele>
        <time>2015-08-20T12:22:43.000Z</time>
      </trkpt>
      <trkpt lat="47.49306" lon="6.75244">
        <ele>340</ele>
        <time>2015-08-20T12:22:44.000Z</time>
      </trkpt>
      <trkpt lat="47.49306" lon="6.75239">
        <ele>340</ele>
        <time>2015-08-20T12:22:45.000Z</time>
      </trkpt>
      <trkpt lat="47.49307" lon="6.75235">
        <ele>340</ele>
        <time>2015-08-20T12:22:46.000Z</time>
      </trkpt>
      <trkpt lat="47.49308" lon="6.75231">
        <ele>340</ele>
        <time>2015-08-20T12:22:47.000Z</time>
      </trkpt>
      <trkpt lat="47.4931" lon="6.75228">
        <ele>340</ele>
        <time>2015-08-20T12:22:48.000Z</time>
      </trkpt>
      <trkpt lat="47.49311" lon="6.75224">
        <ele>340</ele>
        <time>2015-08-20T12:22:49.000Z</time>
      </trkpt>
      <trkpt lat="47.49312" lon="6.75221">
        <ele>340</ele>
        <time>2015-08-20T12:22:50.000Z</time>
      </trkpt>
      <trkpt lat="47.49313" lon="6.75217">
        <ele>341</ele>
        <time>2015-08-20T12:22:51.000Z</time>
      </trkpt>
      <trkpt lat="47.49313" lon="6.75213">
        <ele>341</ele>
        <time>2015-08-20T12:22:52.000Z</time>
      </trkpt>
      <trkpt lat="47.49314" lon="6.75208">
        <ele>341</ele>
        <time>2015-08-20T12:22:53.000Z</time>
      </trkpt>
      <trkpt lat="47.49314" lon="6.75203">
        <ele>341</ele>
        <time>2015-08-20T12:22:54.000Z</time>
      </trkpt>
      <trkpt lat="47.49315" lon="6.75197">
        <ele>341</ele>
        <time>2015-08-20T12:22:55.000Z</time>
      </trkpt>
      <trkpt lat="47.49315" lon="6.75192">
        <ele>341</ele>
        <time>2015-08-20T12:22:56.000Z</time>
      </trkpt>
      <trkpt lat="47.49316" lon="6.75186">
        <ele>341</ele>
        <time>2015-08-20T12:22:57.000Z</time>
      </trkpt>
      <trkpt lat="47.49316" lon="6.7518">
        <ele>341</ele>
        <time>2015-08-20T12:22:58.000Z</time>
      </trkpt>
      <trkpt lat="47.49316" lon="6.75174">
        <ele>340</ele>
        <time>2015-08-20T12:22:59.000Z</time>
      </trkpt>
      <trkpt lat="47.49317" lon="6.75168">
        <ele>340</ele>
        <time>2015-08-20T12:23:00.000Z</time>
      </trkpt>
      <trkpt lat="47.49318" lon="6.75161">
        <ele>342</ele>
        <time>2015-08-20T12:23:01.000Z</time>
      </trkpt>
      <trkpt lat="47.4932" lon="6.75155">
        <ele>342</ele>
        <time>2015-08-20T12:23:02.000Z</time>
      </trkpt>
      <trkpt lat="47.49323" lon="6.75148">
        <ele>342</ele>
        <time>2015-08-20T12:23:03.000Z</time>
      </trkpt>
      <trkpt lat="47.49325" lon="6.75142">
        <ele>343</ele>
        <time>2015-08-20T12:23:04.000Z</time>
      </trkpt>
      <trkpt lat="47.49332" lon="6.75129">
        <ele>343</ele>
        <time>2015-08-20T12:23:05.000Z</time>
      </trkpt>
      <trkpt lat="47.49335" lon="6.75126">
        <ele>337</ele>
        <time>2015-08-20T12:23:06.000Z</time>
      </trkpt>
      <trkpt lat="47.4933" lon="6.75114">
        <ele>343</ele>
        <time>2015-08-20T12:23:07.000Z</time>
      </trkpt>
      <trkpt lat="47.49327" lon="6.75098">
        <ele>342</ele>
        <time>2015-08-20T12:23:08.000Z</time>
      </trkpt>
      <trkpt lat="47.4933" lon="6.75092">
        <ele>341</ele>
        <time>2015-08-20T12:23:09.000Z</time>
      </trkpt>
      <trkpt lat="47.49332" lon="6.75085">
        <ele>339</ele>
        <time>2015-08-20T12:23:10.000Z</time>
      </trkpt>
      <trkpt lat="47.49335" lon="6.7508">
        <ele>338</ele>
        <time>2015-08-20T12:23:11.000Z</time>
      </trkpt>
      <trkpt lat="47.49337" lon="6.75075">
        <ele>338</ele>
        <time>2015-08-20T12:23:12.000Z</time>
      </trkpt>
      <trkpt lat="47.4934" lon="6.75073">
        <ele>338</ele>
        <time>2015-08-20T12:23:13.000Z</time>
      </trkpt>
      <trkpt lat="47.4934" lon="6.75065">
        <ele>338</ele>
        <time>2015-08-20T12:23:14.000Z</time>
      </trkpt>
      <trkpt lat="47.49338" lon="6.75054">
        <ele>338</ele>
        <time>2015-08-20T12:23:15.000Z</time>
      </trkpt>
      <trkpt lat="47.49338" lon="6.75046">
        <ele>339</ele>
        <time>2015-08-20T12:23:16.000Z</time>
      </trkpt>
      <trkpt lat="47.49339" lon="6.75042">
        <ele>339</ele>
        <time>2015-08-20T12:23:17.000Z</time>
      </trkpt>
      <trkpt lat="47.49339" lon="6.75039">
        <ele>339</ele>
        <time>2015-08-20T12:23:18.000Z</time>
      </trkpt>
      <trkpt lat="47.4934" lon="6.75034">
        <ele>339</ele>
        <time>2015-08-20T12:23:20.000Z</time>
      </trkpt>
      <trkpt lat="47.4934" lon="6.75032">
        <ele>339</ele>
        <time>2015-08-20T12:23:21.000Z</time>
      </trkpt>
      <trkpt lat="47.49341" lon="6.75027">
        <ele>340</ele>
        <time>2015-08-20T12:23:23.000Z</time>
      </trkpt>
      <trkpt lat="47.4934" lon="6.75025">
        <ele>340</ele>
        <time>2015-08-20T12:23:24.000Z</time>
      </trkpt>
      <trkpt lat="47.4934" lon="6.75019">
        <ele>340</ele>
        <time>2015-08-20T12:23:26.000Z</time>
      </trkpt>
      <trkpt lat="47.4934" lon="6.75016">
        <ele>340</ele>
        <time>2015-08-20T12:23:27.000Z</time>
      </trkpt>
      <trkpt lat="47.4934" lon="6.75011">
        <ele>341</ele>
        <time>2015-08-20T12:23:29.000Z</time>
      </trkpt>
      <trkpt lat="47.49341" lon="6.75009">
        <ele>341</ele>
        <time>2015-08-20T12:23:30.000Z</time>
      </trkpt>
      <trkpt lat="47.49341" lon="6.75003">
        <ele>342</ele>
        <time>2015-08-20T12:23:33.000Z</time>
      </trkpt>
      <trkpt lat="47.49342" lon="6.75001">
        <ele>342</ele>
        <time>2015-08-20T12:23:34.000Z</time>
      </trkpt>
      <trkpt lat="47.49342" lon="6.74997">
        <ele>342</ele>
        <time>2015-08-20T12:23:36.000Z</time>
      </trkpt>
      <trkpt lat="47.49342" lon="6.74993">
        <ele>342</ele>
        <time>2015-08-20T12:23:37.000Z</time>
      </trkpt>
      <trkpt lat="47.49342" lon="6.74989">
        <ele>342</ele>
        <time>2015-08-20T12:23:38.000Z</time>
      </trkpt>
      <trkpt lat="47.49343" lon="6.74984">
        <ele>342</ele>
        <time>2015-08-20T12:23:39.000Z</time>
      </trkpt>
      <trkpt lat="47.49344" lon="6.7498">
        <ele>342</ele>
        <time>2015-08-20T12:23:40.000Z</time>
      </trkpt>
      <trkpt lat="47.49344" lon="6.74977">
        <ele>342</ele>
        <time>2015-08-20T12:23:41.000Z</time>
      </trkpt>
      <trkpt lat="47.49345" lon="6.74973">
        <ele>341</ele>
        <time>2015-08-20T12:23:42.000Z</time>
      </trkpt>
      <trkpt lat="47.49345" lon="6.7497">
        <ele>342</ele>
        <time>2015-08-20T12:23:43.000Z</time>
      </trkpt>
      <trkpt lat="47.49344" lon="6.74963">
        <ele>342</ele>
        <time>2015-08-20T12:23:45.000Z</time>
      </trkpt>
      <trkpt lat="47.49344" lon="6.7496">
        <ele>342</ele>
        <time>2015-08-20T12:23:46.000Z</time>
      </trkpt>
      <trkpt lat="47.49344" lon="6.74954">
        <ele>342</ele>
        <time>2015-08-20T12:23:48.000Z</time>
      </trkpt>
      <trkpt lat="47.49345" lon="6.74951">
        <ele>342</ele>
        <time>2015-08-20T12:23:49.000Z</time>
      </trkpt>
      <trkpt lat="47.49345" lon="6.74947">
        <ele>342</ele>
        <time>2015-08-20T12:23:50.000Z</time>
      </trkpt>
      <trkpt lat="47.49346" lon="6.74943">
        <ele>343</ele>
        <time>2015-08-20T12:23:51.000Z</time>
      </trkpt>
      <trkpt lat="47.49347" lon="6.74937">
        <ele>343</ele>
        <time>2015-08-20T12:23:53.000Z</time>
      </trkpt>
      <trkpt lat="47.49347" lon="6.74935">
        <ele>343</ele>
        <time>2015-08-20T12:23:54.000Z</time>
      </trkpt>
      <trkpt lat="47.49348" lon="6.74929">
        <ele>344</ele>
        <time>2015-08-20T12:23:56.000Z</time>
      </trkpt>
      <trkpt lat="47.49349" lon="6.74925">
        <ele>344</ele>
        <time>2015-08-20T12:23:57.000Z</time>
      </trkpt>
      <trkpt lat="47.49349" lon="6.74922">
        <ele>344</ele>
        <time>2015-08-20T12:23:58.000Z</time>
      </trkpt>
      <trkpt lat="47.49349" lon="6.74918">
        <ele>344</ele>
        <time>2015-08-20T12:23:59.000Z</time>
      </trkpt>
      <trkpt lat="47.49349" lon="6.74915">
        <ele>345</ele>
        <time>2015-08-20T12:24:00.000Z</time>
      </trkpt>
      <trkpt lat="47.4935" lon="6.74912">
        <ele>344</ele>
        <time>2015-08-20T12:24:01.000Z</time>
      </trkpt>
      <trkpt lat="47.49351" lon="6.74909">
        <ele>344</ele>
        <time>2015-08-20T12:24:02.000Z</time>
      </trkpt>
      <trkpt lat="47.49353" lon="6.74906">
        <ele>344</ele>
        <time>2015-08-20T12:24:03.000Z</time>
      </trkpt>
      <trkpt lat="47.49355" lon="6.74901">
        <ele>343</ele>
        <time>2015-08-20T12:24:05.000Z</time>
      </trkpt>
      <trkpt lat="47.49356" lon="6.74899">
        <ele>343</ele>
        <time>2015-08-20T12:24:06.000Z</time>
      </trkpt>
      <trkpt lat="47.49355" lon="6.74893">
        <ele>343</ele>
        <time>2015-08-20T12:24:08.000Z</time>
      </trkpt>
      <trkpt lat="47.49355" lon="6.74891">
        <ele>343</ele>
        <time>2015-08-20T12:24:09.000Z</time>
      </trkpt>
      <trkpt lat="47.49353" lon="6.74886">
        <ele>343</ele>
        <time>2015-08-20T12:24:11.000Z</time>
      </trkpt>
      <trkpt lat="47.49351" lon="6.74882">
        <ele>343</ele>
        <time>2015-08-20T12:24:12.000Z</time>
      </trkpt>
      <trkpt lat="47.4935" lon="6.74879">
        <ele>343</ele>
        <time>2015-08-20T12:24:13.000Z</time>
      </trkpt>
      <trkpt lat="47.49348" lon="6.74875">
        <ele>343</ele>
        <time>2015-08-20T12:24:14.000Z</time>
      </trkpt>
      <trkpt lat="47.49348" lon="6.74869">
        <ele>343</ele>
        <time>2015-08-20T12:24:17.000Z</time>
      </trkpt>
      <trkpt lat="47.49349" lon="6.74867">
        <ele>343</ele>
        <time>2015-08-20T12:24:18.000Z</time>
      </trkpt>
      <trkpt lat="47.49349" lon="6.74863">
        <ele>343</ele>
        <time>2015-08-20T12:24:20.000Z</time>
      </trkpt>
      <trkpt lat="47.49349" lon="6.7486">
        <ele>344</ele>
        <time>2015-08-20T12:24:21.000Z</time>
      </trkpt>
      <trkpt lat="47.49349" lon="6.74856">
        <ele>344</ele>
        <time>2015-08-20T12:24:22.000Z</time>
      </trkpt>
      <trkpt lat="47.49348" lon="6.74853">
        <ele>344</ele>
        <time>2015-08-20T12:24:23.000Z</time>
      </trkpt>
      <trkpt lat="47.49346" lon="6.74848">
        <ele>345</ele>
        <time>2015-08-20T12:24:25.000Z</time>
      </trkpt>
      <trkpt lat="47.49345" lon="6.74846">
        <ele>345</ele>
        <time>2015-08-20T12:24:26.000Z</time>
      </trkpt>
      <trkpt lat="47.49345" lon="6.74842">
        <ele>345</ele>
        <time>2015-08-20T12:24:28.000Z</time>
      </trkpt>
      <trkpt lat="47.49345" lon="6.7484">
        <ele>346</ele>
        <time>2015-08-20T12:24:29.000Z</time>
      </trkpt>
      <trkpt lat="47.49345" lon="6.74834">
        <ele>346</ele>
        <time>2015-08-20T12:24:31.000Z</time>
      </trkpt>
      <trkpt lat="47.49345" lon="6.74831">
        <ele>347</ele>
        <time>2015-08-20T12:24:32.000Z</time>
      </trkpt>
      <trkpt lat="47.49345" lon="6.74827">
        <ele>347</ele>
        <time>2015-08-20T12:24:33.000Z</time>
      </trkpt>
      <trkpt lat="47.49345" lon="6.74822">
        <ele>347</ele>
        <time>2015-08-20T12:24:34.000Z</time>
      </trkpt>
      <trkpt lat="47.49345" lon="6.74815">
        <ele>346</ele>
        <time>2015-08-20T12:24:35.000Z</time>
      </trkpt>
      <trkpt lat="47.49344" lon="6.74809">
        <ele>346</ele>
        <time>2015-08-20T12:24:36.000Z</time>
      </trkpt>
      <trkpt lat="47.49343" lon="6.74803">
        <ele>346</ele>
        <time>2015-08-20T12:24:37.000Z</time>
      </trkpt>
      <trkpt lat="47.49342" lon="6.74797">
        <ele>346</ele>
        <time>2015-08-20T12:24:38.000Z</time>
      </trkpt>
      <trkpt lat="47.49342" lon="6.74792">
        <ele>347</ele>
        <time>2015-08-20T12:24:39.000Z</time>
      </trkpt>
      <trkpt lat="47.49342" lon="6.74787">
        <ele>347</ele>
        <time>2015-08-20T12:24:40.000Z</time>
      </trkpt>
      <trkpt lat="47.49342" lon="6.74782">
        <ele>347</ele>
        <time>2015-08-20T12:24:41.000Z</time>
      </trkpt>
      <trkpt lat="47.49341" lon="6.74777">
        <ele>348</ele>
        <time>2015-08-20T12:24:42.000Z</time>
      </trkpt>
      <trkpt lat="47.49341" lon="6.74774">
        <ele>348</ele>
        <time>2015-08-20T12:24:44.000Z</time>
      </trkpt>
      <trkpt lat="47.49341" lon="6.74771">
        <ele>349</ele>
        <time>2015-08-20T12:24:45.000Z</time>
      </trkpt>
      <trkpt lat="47.4934" lon="6.74766">
        <ele>349</ele>
        <time>2015-08-20T12:24:47.000Z</time>
      </trkpt>
      <trkpt lat="47.4934" lon="6.74763">
        <ele>350</ele>
        <time>2015-08-20T12:24:48.000Z</time>
      </trkpt>
      <trkpt lat="47.49341" lon="6.74758">
        <ele>351</ele>
        <time>2015-08-20T12:24:49.000Z</time>
      </trkpt>
      <trkpt lat="47.49341" lon="6.74755">
        <ele>351</ele>
        <time>2015-08-20T12:24:50.000Z</time>
      </trkpt>
      <trkpt lat="47.49342" lon="6.7475">
        <ele>351</ele>
        <time>2015-08-20T12:24:51.000Z</time>
      </trkpt>
      <trkpt lat="47.49342" lon="6.74747">
        <ele>352</ele>
        <time>2015-08-20T12:24:52.000Z</time>
      </trkpt>
      <trkpt lat="47.49342" lon="6.74744">
        <ele>352</ele>
        <time>2015-08-20T12:24:53.000Z</time>
      </trkpt>
      <trkpt lat="47.49343" lon="6.7474">
        <ele>352</ele>
        <time>2015-08-20T12:24:54.000Z</time>
      </trkpt>
      <trkpt lat="47.49344" lon="6.74736">
        <ele>351</ele>
        <time>2015-08-20T12:24:55.000Z</time>
      </trkpt>
      <trkpt lat="47.49345" lon="6.74731">
        <ele>351</ele>
        <time>2015-08-20T12:24:56.000Z</time>
      </trkpt>
      <trkpt lat="47.49345" lon="6.74727">
        <ele>351</ele>
        <time>2015-08-20T12:24:57.000Z</time>
      </trkpt>
      <trkpt lat="47.49347" lon="6.74723">
        <ele>351</ele>
        <time>2015-08-20T12:24:58.000Z</time>
      </trkpt>
      <trkpt lat="47.49348" lon="6.74719">
        <ele>351</ele>
        <time>2015-08-20T12:24:59.000Z</time>
      </trkpt>
      <trkpt lat="47.49349" lon="6.74714">
        <ele>351</ele>
        <time>2015-08-20T12:25:00.000Z</time>
      </trkpt>
      <trkpt lat="47.4935" lon="6.74707">
        <ele>351</ele>
        <time>2015-08-20T12:25:01.000Z</time>
      </trkpt>
      <trkpt lat="47.4935" lon="6.74702">
        <ele>351</ele>
        <time>2015-08-20T12:25:02.000Z</time>
      </trkpt>
      <trkpt lat="47.49351" lon="6.74696">
        <ele>351</ele>
        <time>2015-08-20T12:25:03.000Z</time>
      </trkpt>
      <trkpt lat="47.49352" lon="6.74692">
        <ele>352</ele>
        <time>2015-08-20T12:25:04.000Z</time>
      </trkpt>
      <trkpt lat="47.49352" lon="6.74688">
        <ele>352</ele>
        <time>2015-08-20T12:25:05.000Z</time>
      </trkpt>
      <trkpt lat="47.49351" lon="6.74684">
        <ele>353</ele>
        <time>2015-08-20T12:25:06.000Z</time>
      </trkpt>
      <trkpt lat="47.4935" lon="6.74678">
        <ele>353</ele>
        <time>2015-08-20T12:25:08.000Z</time>
      </trkpt>
      <trkpt lat="47.4935" lon="6.74675">
        <ele>354</ele>
        <time>2015-08-20T12:25:09.000Z</time>
      </trkpt>
      <trkpt lat="47.49349" lon="6.74672">
        <ele>354</ele>
        <time>2015-08-20T12:25:10.000Z</time>
      </trkpt>
      <trkpt lat="47.49349" lon="6.74668">
        <ele>355</ele>
        <time>2015-08-20T12:25:11.000Z</time>
      </trkpt>
      <trkpt lat="47.49348" lon="6.74665">
        <ele>356</ele>
        <time>2015-08-20T12:25:12.000Z</time>
      </trkpt>
      <trkpt lat="47.49348" lon="6.74661">
        <ele>355</ele>
        <time>2015-08-20T12:25:13.000Z</time>
      </trkpt>
      <trkpt lat="47.49347" lon="6.74656">
        <ele>355</ele>
        <time>2015-08-20T12:25:14.000Z</time>
      </trkpt>
      <trkpt lat="47.49347" lon="6.74651">
        <ele>355</ele>
        <time>2015-08-20T12:25:15.000Z</time>
      </trkpt>
      <trkpt lat="47.49347" lon="6.74647">
        <ele>354</ele>
        <time>2015-08-20T12:25:16.000Z</time>
      </trkpt>
      <trkpt lat="47.49347" lon="6.74643">
        <ele>354</ele>
        <time>2015-08-20T12:25:17.000Z</time>
      </trkpt>
      <trkpt lat="47.49348" lon="6.74639">
        <ele>354</ele>
        <time>2015-08-20T12:25:18.000Z</time>
      </trkpt>
      <trkpt lat="47.49348" lon="6.74635">
        <ele>353</ele>
        <time>2015-08-20T12:25:19.000Z</time>
      </trkpt>
      <trkpt lat="47.49349" lon="6.74632">
        <ele>353</ele>
        <time>2015-08-20T12:25:20.000Z</time>
      </trkpt>
      <trkpt lat="47.49349" lon="6.74628">
        <ele>353</ele>
        <time>2015-08-20T12:25:21.000Z</time>
      </trkpt>
      <trkpt lat="47.4935" lon="6.74624">
        <ele>353</ele>
        <time>2015-08-20T12:25:22.000Z</time>
      </trkpt>
      <trkpt lat="47.49351" lon="6.74621">
        <ele>353</ele>
        <time>2015-08-20T12:25:23.000Z</time>
      </trkpt>
      <trkpt lat="47.49352" lon="6.74617">
        <ele>353</ele>
        <time>2015-08-20T12:25:24.000Z</time>
      </trkpt>
      <trkpt lat="47.49353" lon="6.74614">
        <ele>353</ele>
        <time>2015-08-20T12:25:25.000Z</time>
      </trkpt>
      <trkpt lat="47.49354" lon="6.7461">
        <ele>353</ele>
        <time>2015-08-20T12:25:26.000Z</time>
      </trkpt>
      <trkpt lat="47.49356" lon="6.74607">
        <ele>353</ele>
        <time>2015-08-20T12:25:27.000Z</time>
      </trkpt>
      <trkpt lat="47.49357" lon="6.74603">
        <ele>353</ele>
        <time>2015-08-20T12:25:28.000Z</time>
      </trkpt>
      <trkpt lat="47.49359" lon="6.74592">
        <ele>353</ele>
        <time>2015-08-20T12:25:30.000Z</time>
      </trkpt>
      <trkpt lat="47.4936" lon="6.74586">
        <ele>353</ele>
        <time>2015-08-20T12:25:31.000Z</time>
      </trkpt>
      <trkpt lat="47.4936" lon="6.74579">
        <ele>354</ele>
        <time>2015-08-20T12:25:32.000Z</time>
      </trkpt>
      <trkpt lat="47.4936" lon="6.74572">
        <ele>354</ele>
        <time>2015-08-20T12:25:33.000Z</time>
      </trkpt>
      <trkpt lat="47.4936" lon="6.74565">
        <ele>354</ele>
        <time>2015-08-20T12:25:34.000Z</time>
      </trkpt>
      <trkpt lat="47.49361" lon="6.74558">
        <ele>354</ele>
        <time>2015-08-20T12:25:35.000Z</time>
      </trkpt>
      <trkpt lat="47.4936" lon="6.74551">
        <ele>354</ele>
        <time>2015-08-20T12:25:36.000Z</time>
      </trkpt>
      <trkpt lat="47.49359" lon="6.74542">
        <ele>354</ele>
        <time>2015-08-20T12:25:37.000Z</time>
      </trkpt>
      <trkpt lat="47.49359" lon="6.74534">
        <ele>355</ele>
        <time>2015-08-20T12:25:38.000Z</time>
      </trkpt>
      <trkpt lat="47.49358" lon="6.74527">
        <ele>355</ele>
        <time>2015-08-20T12:25:39.000Z</time>
      </trkpt>
      <trkpt lat="47.49358" lon="6.74521">
        <ele>355</ele>
        <time>2015-08-20T12:25:40.000Z</time>
      </trkpt>
      <trkpt lat="47.49359" lon="6.74517">
        <ele>355</ele>
        <time>2015-08-20T12:25:41.000Z</time>
      </trkpt>
      <trkpt lat="47.4936" lon="6.74513">
        <ele>355</ele>
        <time>2015-08-20T12:25:42.000Z</time>
      </trkpt>
      <trkpt lat="47.4936" lon="6.74508">
        <ele>355</ele>
        <time>2015-08-20T12:25:43.000Z</time>
      </trkpt>
      <trkpt lat="47.49361" lon="6.74504">
        <ele>355</ele>
        <time>2015-08-20T12:25:44.000Z</time>
      </trkpt>
      <trkpt lat="47.49361" lon="6.74499">
        <ele>357</ele>
        <time>2015-08-20T12:25:45.000Z</time>
      </trkpt>
      <trkpt lat="47.49362" lon="6.74495">
        <ele>357</ele>
        <time>2015-08-20T12:25:46.000Z</time>
      </trkpt>
      <trkpt lat="47.49363" lon="6.74491">
        <ele>356</ele>
        <time>2015-08-20T12:25:47.000Z</time>
      </trkpt>
      <trkpt lat="47.49365" lon="6.74486">
        <ele>356</ele>
        <time>2015-08-20T12:25:48.000Z</time>
      </trkpt>
      <trkpt lat="47.49366" lon="6.74482">
        <ele>356</ele>
        <time>2015-08-20T12:25:49.000Z</time>
      </trkpt>
      <trkpt lat="47.49368" lon="6.74478">
        <ele>356</ele>
        <time>2015-08-20T12:25:50.000Z</time>
      </trkpt>
      <trkpt lat="47.49369" lon="6.74473">
        <ele>355</ele>
        <time>2015-08-20T12:25:51.000Z</time>
      </trkpt>
      <trkpt lat="47.49369" lon="6.74468">
        <ele>355</ele>
        <time>2015-08-20T12:25:52.000Z</time>
      </trkpt>
      <trkpt lat="47.49368" lon="6.74464">
        <ele>355</ele>
        <time>2015-08-20T12:25:53.000Z</time>
      </trkpt>
      <trkpt lat="47.49368" lon="6.74459">
        <ele>355</ele>
        <time>2015-08-20T12:25:54.000Z</time>
      </trkpt>
      <trkpt lat="47.49368" lon="6.74453">
        <ele>355</ele>
        <time>2015-08-20T12:25:55.000Z</time>
      </trkpt>
      <trkpt lat="47.49368" lon="6.74448">
        <ele>356</ele>
        <time>2015-08-20T12:25:56.000Z</time>
      </trkpt>
      <trkpt lat="47.49367" lon="6.74444">
        <ele>356</ele>
        <time>2015-08-20T12:25:57.000Z</time>
      </trkpt>
      <trkpt lat="47.49366" lon="6.7444">
        <ele>356</ele>
        <time>2015-08-20T12:25:58.000Z</time>
      </trkpt>
      <trkpt lat="47.49365" lon="6.74435">
        <ele>356</ele>
        <time>2015-08-20T12:25:59.000Z</time>
      </trkpt>
      <trkpt lat="47.49365" lon="6.74431">
        <ele>356</ele>
        <time>2015-08-20T12:26:00.000Z</time>
      </trkpt>
      <trkpt lat="47.49364" lon="6.74426">
        <ele>356</ele>
        <time>2015-08-20T12:26:01.000Z</time>
      </trkpt>
      <trkpt lat="47.49364" lon="6.7442">
        <ele>357</ele>
        <time>2015-08-20T12:26:02.000Z</time>
      </trkpt>
      <trkpt lat="47.49364" lon="6.74414">
        <ele>357</ele>
        <time>2015-08-20T12:26:03.000Z</time>
      </trkpt>
      <trkpt lat="47.49363" lon="6.74408">
        <ele>357</ele>
        <time>2015-08-20T12:26:04.000Z</time>
      </trkpt>
      <trkpt lat="47.49363" lon="6.74403">
        <ele>357</ele>
        <time>2015-08-20T12:26:05.000Z</time>
      </trkpt>
      <trkpt lat="47.49363" lon="6.74398">
        <ele>357</ele>
        <time>2015-08-20T12:26:06.000Z</time>
      </trkpt>
      <trkpt lat="47.49362" lon="6.74394">
        <ele>357</ele>
        <time>2015-08-20T12:26:07.000Z</time>
      </trkpt>
      <trkpt lat="47.49362" lon="6.7439">
        <ele>357</ele>
        <time>2015-08-20T12:26:08.000Z</time>
      </trkpt>
      <trkpt lat="47.49362" lon="6.74386">
        <ele>357</ele>
        <time>2015-08-20T12:26:09.000Z</time>
      </trkpt>
      <trkpt lat="47.49362" lon="6.74382">
        <ele>357</ele>
        <time>2015-08-20T12:26:10.000Z</time>
      </trkpt>
      <trkpt lat="47.49363" lon="6.74377">
        <ele>357</ele>
        <time>2015-08-20T12:26:11.000Z</time>
      </trkpt>
      <trkpt lat="47.49365" lon="6.74373">
        <ele>357</ele>
        <time>2015-08-20T12:26:12.000Z</time>
      </trkpt>
      <trkpt lat="47.49366" lon="6.74368">
        <ele>357</ele>
        <time>2015-08-20T12:26:13.000Z</time>
      </trkpt>
      <trkpt lat="47.49367" lon="6.74363">
        <ele>357</ele>
        <time>2015-08-20T12:26:14.000Z</time>
      </trkpt>
      <trkpt lat="47.49368" lon="6.74358">
        <ele>357</ele>
        <time>2015-08-20T12:26:15.000Z</time>
      </trkpt>
      <trkpt lat="47.49369" lon="6.74352">
        <ele>357</ele>
        <time>2015-08-20T12:26:16.000Z</time>
      </trkpt>
      <trkpt lat="47.4937" lon="6.74346">
        <ele>357</ele>
        <time>2015-08-20T12:26:17.000Z</time>
      </trkpt>
      <trkpt lat="47.4937" lon="6.74341">
        <ele>357</ele>
        <time>2015-08-20T12:26:18.000Z</time>
      </trkpt>
      <trkpt lat="47.49371" lon="6.74335">
        <ele>356</ele>
        <time>2015-08-20T12:26:19.000Z</time>
      </trkpt>
      <trkpt lat="47.49371" lon="6.74329">
        <ele>357</ele>
        <time>2015-08-20T12:26:20.000Z</time>
      </trkpt>
      <trkpt lat="47.4937" lon="6.74322">
        <ele>357</ele>
        <time>2015-08-20T12:26:21.000Z</time>
      </trkpt>
      <trkpt lat="47.49369" lon="6.74316">
        <ele>357</ele>
        <time>2015-08-20T12:26:22.000Z</time>
      </trkpt>
      <trkpt lat="47.4937" lon="6.74311">
        <ele>357</ele>
        <time>2015-08-20T12:26:23.000Z</time>
      </trkpt>
      <trkpt lat="47.4937" lon="6.74306">
        <ele>357</ele>
        <time>2015-08-20T12:26:24.000Z</time>
      </trkpt>
      <trkpt lat="47.49371" lon="6.743">
        <ele>357</ele>
        <time>2015-08-20T12:26:25.000Z</time>
      </trkpt>
      <trkpt lat="47.49372" lon="6.74294">
        <ele>357</ele>
        <time>2015-08-20T12:26:26.000Z</time>
      </trkpt>
      <trkpt lat="47.49373" lon="6.74288">
        <ele>357</ele>
        <time>2015-08-20T12:26:27.000Z</time>
      </trkpt>
      <trkpt lat="47.49373" lon="6.74283">
        <ele>357</ele>
        <time>2015-08-20T12:26:28.000Z</time>
      </trkpt>
      <trkpt lat="47.49373" lon="6.74278">
        <ele>357</ele>
        <time>2015-08-20T12:26:29.000Z</time>
      </trkpt>
      <trkpt lat="47.49373" lon="6.74275">
        <ele>357</ele>
        <time>2015-08-20T12:26:30.000Z</time>
      </trkpt>
      <trkpt lat="47.49374" lon="6.74271">
        <ele>357</ele>
        <time>2015-08-20T12:26:31.000Z</time>
      </trkpt>
      <trkpt lat="47.49375" lon="6.74266">
        <ele>357</ele>
        <time>2015-08-20T12:26:34.000Z</time>
      </trkpt>
      <trkpt lat="47.49375" lon="6.74264">
        <ele>357</ele>
        <time>2015-08-20T12:26:35.000Z</time>
      </trkpt>
      <trkpt lat="47.49375" lon="6.74258">
        <ele>357</ele>
        <time>2015-08-20T12:26:37.000Z</time>
      </trkpt>
      <trkpt lat="47.49376" lon="6.74255">
        <ele>357</ele>
        <time>2015-08-20T12:26:38.000Z</time>
      </trkpt>
      <trkpt lat="47.49377" lon="6.74251">
        <ele>356</ele>
        <time>2015-08-20T12:26:39.000Z</time>
      </trkpt>
      <trkpt lat="47.49379" lon="6.74245">
        <ele>357</ele>
        <time>2015-08-20T12:26:40.000Z</time>
      </trkpt>
      <trkpt lat="47.49381" lon="6.74237">
        <ele>356</ele>
        <time>2015-08-20T12:26:41.000Z</time>
      </trkpt>
      <trkpt lat="47.49383" lon="6.74228">
        <ele>356</ele>
        <time>2015-08-20T12:26:42.000Z</time>
      </trkpt>
      <trkpt lat="47.49386" lon="6.7422">
        <ele>356</ele>
        <time>2015-08-20T12:26:43.000Z</time>
      </trkpt>
      <trkpt lat="47.49387" lon="6.74213">
        <ele>356</ele>
        <time>2015-08-20T12:26:44.000Z</time>
      </trkpt>
      <trkpt lat="47.49389" lon="6.74206">
        <ele>356</ele>
        <time>2015-08-20T12:26:45.000Z</time>
      </trkpt>
      <trkpt lat="47.49391" lon="6.74184">
        <ele>355</ele>
        <time>2015-08-20T12:26:46.000Z</time>
      </trkpt>
      <trkpt lat="47.49394" lon="6.74175">
        <ele>354</ele>
        <time>2015-08-20T12:26:47.000Z</time>
      </trkpt>
      <trkpt lat="47.49396" lon="6.74168">
        <ele>353</ele>
        <time>2015-08-20T12:26:48.000Z</time>
      </trkpt>
      <trkpt lat="47.49398" lon="6.74159">
        <ele>353</ele>
        <time>2015-08-20T12:26:49.000Z</time>
      </trkpt>
      <trkpt lat="47.49398" lon="6.74151">
        <ele>353</ele>
        <time>2015-08-20T12:26:50.000Z</time>
      </trkpt>
      <trkpt lat="47.49399" lon="6.74144">
        <ele>354</ele>
        <time>2015-08-20T12:26:51.000Z</time>
      </trkpt>
      <trkpt lat="47.49398" lon="6.74138">
        <ele>354</ele>
        <time>2015-08-20T12:26:52.000Z</time>
      </trkpt>
      <trkpt lat="47.49403" lon="6.74135">
        <ele>354</ele>
        <time>2015-08-20T12:26:53.000Z</time>
      </trkpt>
      <trkpt lat="47.49406" lon="6.74119">
        <ele>354</ele>
        <time>2015-08-20T12:26:54.000Z</time>
      </trkpt>
      <trkpt lat="47.49409" lon="6.74109">
        <ele>353</ele>
        <time>2015-08-20T12:26:55.000Z</time>
      </trkpt>
      <trkpt lat="47.49411" lon="6.74099">
        <ele>352</ele>
        <time>2015-08-20T12:26:56.000Z</time>
      </trkpt>
      <trkpt lat="47.49413" lon="6.7409">
        <ele>350</ele>
        <time>2015-08-20T12:26:57.000Z</time>
      </trkpt>
      <trkpt lat="47.49413" lon="6.7408">
        <ele>349</ele>
        <time>2015-08-20T12:26:58.000Z</time>
      </trkpt>
      <trkpt lat="47.49414" lon="6.74074">
        <ele>350</ele>
        <time>2015-08-20T12:26:59.000Z</time>
      </trkpt>
      <trkpt lat="47.49416" lon="6.74069">
        <ele>351</ele>
        <time>2015-08-20T12:27:00.000Z</time>
      </trkpt>
      <trkpt lat="47.49416" lon="6.74064">
        <ele>352</ele>
        <time>2015-08-20T12:27:01.000Z</time>
      </trkpt>
      <trkpt lat="47.49417" lon="6.7406">
        <ele>349</ele>
        <time>2015-08-20T12:27:02.000Z</time>
      </trkpt>
      <trkpt lat="47.49417" lon="6.74055">
        <ele>350</ele>
        <time>2015-08-20T12:27:03.000Z</time>
      </trkpt>
      <trkpt lat="47.49418" lon="6.7405">
        <ele>350</ele>
        <time>2015-08-20T12:27:04.000Z</time>
      </trkpt>
      <trkpt lat="47.49418" lon="6.74045">
        <ele>350</ele>
        <time>2015-08-20T12:27:05.000Z</time>
      </trkpt>
      <trkpt lat="47.49418" lon="6.7404">
        <ele>350</ele>
        <time>2015-08-20T12:27:06.000Z</time>
      </trkpt>
      <trkpt lat="47.49418" lon="6.74035">
        <ele>350</ele>
        <time>2015-08-20T12:27:07.000Z</time>
      </trkpt>
      <trkpt lat="47.49418" lon="6.7403">
        <ele>350</ele>
        <time>2015-08-20T12:27:08.000Z</time>
      </trkpt>
      <trkpt lat="47.49418" lon="6.74025">
        <ele>350</ele>
        <time>2015-08-20T12:27:09.000Z</time>
      </trkpt>
      <trkpt lat="47.49418" lon="6.7402">
        <ele>350</ele>
        <time>2015-08-20T12:27:10.000Z</time>
      </trkpt>
      <trkpt lat="47.49419" lon="6.74014">
        <ele>350</ele>
        <time>2015-08-20T12:27:11.000Z</time>
      </trkpt>
      <trkpt lat="47.49419" lon="6.74009">
        <ele>349</ele>
        <time>2015-08-20T12:27:12.000Z</time>
      </trkpt>
      <trkpt lat="47.49419" lon="6.74004">
        <ele>349</ele>
        <time>2015-08-20T12:27:13.000Z</time>
      </trkpt>
      <trkpt lat="47.49418" lon="6.73999">
        <ele>349</ele>
        <time>2015-08-20T12:27:14.000Z</time>
      </trkpt>
      <trkpt lat="47.49418" lon="6.73993">
        <ele>349</ele>
        <time>2015-08-20T12:27:15.000Z</time>
      </trkpt>
      <trkpt lat="47.49417" lon="6.73988">
        <ele>348</ele>
        <time>2015-08-20T12:27:16.000Z</time>
      </trkpt>
      <trkpt lat="47.49416" lon="6.73983">
        <ele>351</ele>
        <time>2015-08-20T12:27:17.000Z</time>
      </trkpt>
      <trkpt lat="47.49415" lon="6.73979">
        <ele>351</ele>
        <time>2015-08-20T12:27:18.000Z</time>
      </trkpt>
      <trkpt lat="47.49414" lon="6.73974">
        <ele>352</ele>
        <time>2015-08-20T12:27:19.000Z</time>
      </trkpt>
      <trkpt lat="47.49413" lon="6.7397">
        <ele>352</ele>
        <time>2015-08-20T12:27:20.000Z</time>
      </trkpt>
      <trkpt lat="47.49413" lon="6.73965">
        <ele>352</ele>
        <time>2015-08-20T12:27:21.000Z</time>
      </trkpt>
      <trkpt lat="47.49412" lon="6.73959">
        <ele>352</ele>
        <time>2015-08-20T12:27:22.000Z</time>
      </trkpt>
      <trkpt lat="47.49411" lon="6.73954">
        <ele>352</ele>
        <time>2015-08-20T12:27:23.000Z</time>
      </trkpt>
      <trkpt lat="47.4941" lon="6.73949">
        <ele>351</ele>
        <time>2015-08-20T12:27:24.000Z</time>
      </trkpt>
      <trkpt lat="47.49408" lon="6.73943">
        <ele>351</ele>
        <time>2015-08-20T12:27:25.000Z</time>
      </trkpt>
      <trkpt lat="47.49407" lon="6.73937">
        <ele>351</ele>
        <time>2015-08-20T12:27:26.000Z</time>
      </trkpt>
      <trkpt lat="47.49405" lon="6.73932">
        <ele>350</ele>
        <time>2015-08-20T12:27:27.000Z</time>
      </trkpt>
      <trkpt lat="47.49406" lon="6.73927">
        <ele>350</ele>
        <time>2015-08-20T12:27:28.000Z</time>
      </trkpt>
      <trkpt lat="47.49408" lon="6.73922">
        <ele>349</ele>
        <time>2015-08-20T12:27:29.000Z</time>
      </trkpt>
      <trkpt lat="47.4941" lon="6.73917">
        <ele>348</ele>
        <time>2015-08-20T12:27:30.000Z</time>
      </trkpt>
      <trkpt lat="47.49412" lon="6.7391">
        <ele>347</ele>
        <time>2015-08-20T12:27:31.000Z</time>
      </trkpt>
      <trkpt lat="47.49412" lon="6.73903">
        <ele>348</ele>
        <time>2015-08-20T12:27:32.000Z</time>
      </trkpt>
      <trkpt lat="47.4941" lon="6.73894">
        <ele>349</ele>
        <time>2015-08-20T12:27:33.000Z</time>
      </trkpt>
      <trkpt lat="47.49408" lon="6.73885">
        <ele>349</ele>
        <time>2015-08-20T12:27:34.000Z</time>
      </trkpt>
      <trkpt lat="47.49406" lon="6.73877">
        <ele>349</ele>
        <time>2015-08-20T12:27:35.000Z</time>
      </trkpt>
      <trkpt lat="47.49405" lon="6.7387">
        <ele>349</ele>
        <time>2015-08-20T12:27:36.000Z</time>
      </trkpt>
      <trkpt lat="47.49403" lon="6.73863">
        <ele>349</ele>
        <time>2015-08-20T12:27:37.000Z</time>
      </trkpt>
      <trkpt lat="47.49401" lon="6.73858">
        <ele>348</ele>
        <time>2015-08-20T12:27:38.000Z</time>
      </trkpt>
      <trkpt lat="47.49381" lon="6.73857">
        <ele>350</ele>
        <time>2015-08-20T12:27:39.000Z</time>
      </trkpt>
      <trkpt lat="47.49377" lon="6.73857">
        <ele>350</ele>
        <time>2015-08-20T12:27:40.000Z</time>
      </trkpt>
      <trkpt lat="47.49374" lon="6.73855">
        <ele>350</ele>
        <time>2015-08-20T12:27:41.000Z</time>
      </trkpt>
      <trkpt lat="47.4937" lon="6.73852">
        <ele>351</ele>
        <time>2015-08-20T12:27:43.000Z</time>
      </trkpt>
      <trkpt lat="47.49368" lon="6.7385">
        <ele>351</ele>
        <time>2015-08-20T12:27:44.000Z</time>
      </trkpt>
      <trkpt lat="47.49366" lon="6.73848">
        <ele>351</ele>
        <time>2015-08-20T12:27:45.000Z</time>
      </trkpt>
      <trkpt lat="47.49364" lon="6.73845">
        <ele>351</ele>
        <time>2015-08-20T12:27:46.000Z</time>
      </trkpt>
      <trkpt lat="47.49361" lon="6.73842">
        <ele>351</ele>
        <time>2015-08-20T12:27:47.000Z</time>
      </trkpt>
      <trkpt lat="47.49358" lon="6.73839">
        <ele>352</ele>
        <time>2015-08-20T12:27:48.000Z</time>
      </trkpt>
      <trkpt lat="47.49355" lon="6.73836">
        <ele>352</ele>
        <time>2015-08-20T12:27:49.000Z</time>
      </trkpt>
      <trkpt lat="47.49353" lon="6.73833">
        <ele>352</ele>
        <time>2015-08-20T12:27:50.000Z</time>
      </trkpt>
      <trkpt lat="47.4935" lon="6.7383">
        <ele>352</ele>
        <time>2015-08-20T12:27:51.000Z</time>
      </trkpt>
      <trkpt lat="47.49348" lon="6.73828">
        <ele>352</ele>
        <time>2015-08-20T12:27:52.000Z</time>
      </trkpt>
      <trkpt lat="47.49345" lon="6.73826">
        <ele>352</ele>
        <time>2015-08-20T12:27:53.000Z</time>
      </trkpt>
      <trkpt lat="47.49338" lon="6.73823">
        <ele>353</ele>
        <time>2015-08-20T12:27:54.000Z</time>
      </trkpt>
      <trkpt lat="47.49334" lon="6.73822">
        <ele>353</ele>
        <time>2015-08-20T12:27:55.000Z</time>
      </trkpt>
      <trkpt lat="47.49332" lon="6.73821">
        <ele>355</ele>
        <time>2015-08-20T12:27:56.000Z</time>
      </trkpt>
      <trkpt lat="47.49331" lon="6.73816">
        <ele>355</ele>
        <time>2015-08-20T12:27:58.000Z</time>
      </trkpt>
      <trkpt lat="47.49331" lon="6.73815">
        <ele>355</ele>
        <time>2015-08-20T12:27:59.000Z</time>
      </trkpt>
      <trkpt lat="47.49328" lon="6.7381">
        <ele>356</ele>
        <time>2015-08-20T12:28:02.000Z</time>
      </trkpt>
      <trkpt lat="47.49328" lon="6.73808">
        <ele>356</ele>
        <time>2015-08-20T12:28:03.000Z</time>
      </trkpt>
      <trkpt lat="47.49328" lon="6.73802">
        <ele>356</ele>
        <time>2015-08-20T12:28:06.000Z</time>
      </trkpt>
      <trkpt lat="47.49328" lon="6.738">
        <ele>356</ele>
        <time>2015-08-20T12:28:07.000Z</time>
      </trkpt>
      <trkpt lat="47.49329" lon="6.73795">
        <ele>356</ele>
        <time>2015-08-20T12:28:10.000Z</time>
      </trkpt>
      <trkpt lat="47.49329" lon="6.73792">
        <ele>356</ele>
        <time>2015-08-20T12:28:11.000Z</time>
      </trkpt>
      <trkpt lat="47.49328" lon="6.73786">
        <ele>356</ele>
        <time>2015-08-20T12:28:14.000Z</time>
      </trkpt>
      <trkpt lat="47.49328" lon="6.73784">
        <ele>356</ele>
        <time>2015-08-20T12:28:15.000Z</time>
      </trkpt>
      <trkpt lat="47.49328" lon="6.73781">
        <ele>356</ele>
        <time>2015-08-20T12:28:16.000Z</time>
      </trkpt>
      <trkpt lat="47.49328" lon="6.73777">
        <ele>356</ele>
        <time>2015-08-20T12:28:17.000Z</time>
      </trkpt>
      <trkpt lat="47.49328" lon="6.73773">
        <ele>356</ele>
        <time>2015-08-20T12:28:18.000Z</time>
      </trkpt>
      <trkpt lat="47.49328" lon="6.73768">
        <ele>356</ele>
        <time>2015-08-20T12:28:19.000Z</time>
      </trkpt>
      <trkpt lat="47.49329" lon="6.73764">
        <ele>356</ele>
        <time>2015-08-20T12:28:20.000Z</time>
      </trkpt>
      <trkpt lat="47.49329" lon="6.7376">
        <ele>356</ele>
        <time>2015-08-20T12:28:21.000Z</time>
      </trkpt>
      <trkpt lat="47.49328" lon="6.73754">
        <ele>356</ele>
        <time>2015-08-20T12:28:23.000Z</time>
      </trkpt>
      <trkpt lat="47.49328" lon="6.7375">
        <ele>356</ele>
        <time>2015-08-20T12:28:24.000Z</time>
      </trkpt>
      <trkpt lat="47.49327" lon="6.73747">
        <ele>357</ele>
        <time>2015-08-20T12:28:25.000Z</time>
      </trkpt>
      <trkpt lat="47.49327" lon="6.73743">
        <ele>357</ele>
        <time>2015-08-20T12:28:26.000Z</time>
      </trkpt>
      <trkpt lat="47.49326" lon="6.73737">
        <ele>357</ele>
        <time>2015-08-20T12:28:28.000Z</time>
      </trkpt>
      <trkpt lat="47.49325" lon="6.73735">
        <ele>358</ele>
        <time>2015-08-20T12:28:29.000Z</time>
      </trkpt>
      <trkpt lat="47.49323" lon="6.73729">
        <ele>358</ele>
        <time>2015-08-20T12:28:33.000Z</time>
      </trkpt>
      <trkpt lat="47.49323" lon="6.73727">
        <ele>358</ele>
        <time>2015-08-20T12:28:34.000Z</time>
      </trkpt>
      <trkpt lat="47.49322" lon="6.73722">
        <ele>358</ele>
        <time>2015-08-20T12:28:37.000Z</time>
      </trkpt>
      <trkpt lat="47.49322" lon="6.7372">
        <ele>358</ele>
        <time>2015-08-20T12:28:38.000Z</time>
      </trkpt>
      <trkpt lat="47.49321" lon="6.73714">
        <ele>359</ele>
        <time>2015-08-20T12:28:42.000Z</time>
      </trkpt>
      <trkpt lat="47.4932" lon="6.73712">
        <ele>359</ele>
        <time>2015-08-20T12:28:43.000Z</time>
      </trkpt>
      <trkpt lat="47.49318" lon="6.73707">
        <ele>359</ele>
        <time>2015-08-20T12:28:46.000Z</time>
      </trkpt>
      <trkpt lat="47.49317" lon="6.73705">
        <ele>359</ele>
        <time>2015-08-20T12:28:47.000Z</time>
      </trkpt>
      <trkpt lat="47.49315" lon="6.737">
        <ele>359</ele>
        <time>2015-08-20T12:28:49.000Z</time>
      </trkpt>
      <trkpt lat="47.49315" lon="6.73698">
        <ele>359</ele>
        <time>2015-08-20T12:28:50.000Z</time>
      </trkpt>
      <trkpt lat="47.49313" lon="6.73693">
        <ele>359</ele>
        <time>2015-08-20T12:28:52.000Z</time>
      </trkpt>
      <trkpt lat="47.49312" lon="6.73691">
        <ele>359</ele>
        <time>2015-08-20T12:28:53.000Z</time>
      </trkpt>
      <trkpt lat="47.49311" lon="6.73685">
        <ele>359</ele>
        <time>2015-08-20T12:28:55.000Z</time>
      </trkpt>
      <trkpt lat="47.49311" lon="6.73682">
        <ele>359</ele>
        <time>2015-08-20T12:28:56.000Z</time>
      </trkpt>
      <trkpt lat="47.49311" lon="6.73678">
        <ele>359</ele>
        <time>2015-08-20T12:28:57.000Z</time>
      </trkpt>
      <trkpt lat="47.49311" lon="6.73674">
        <ele>359</ele>
        <time>2015-08-20T12:28:58.000Z</time>
      </trkpt>
      <trkpt lat="47.49311" lon="6.73669">
        <ele>359</ele>
        <time>2015-08-20T12:28:59.000Z</time>
      </trkpt>
      <trkpt lat="47.49311" lon="6.73664">
        <ele>360</ele>
        <time>2015-08-20T12:29:00.000Z</time>
      </trkpt>
      <trkpt lat="47.4931" lon="6.73658">
        <ele>360</ele>
        <time>2015-08-20T12:29:01.000Z</time>
      </trkpt>
      <trkpt lat="47.4931" lon="6.73653">
        <ele>361</ele>
        <time>2015-08-20T12:29:02.000Z</time>
      </trkpt>
      <trkpt lat="47.4931" lon="6.73647">
        <ele>361</ele>
        <time>2015-08-20T12:29:03.000Z</time>
      </trkpt>
      <trkpt lat="47.4931" lon="6.73642">
        <ele>361</ele>
        <time>2015-08-20T12:29:04.000Z</time>
      </trkpt>
      <trkpt lat="47.49309" lon="6.73638">
        <ele>361</ele>
        <time>2015-08-20T12:29:05.000Z</time>
      </trkpt>
      <trkpt lat="47.49308" lon="6.73634">
        <ele>361</ele>
        <time>2015-08-20T12:29:06.000Z</time>
      </trkpt>
      <trkpt lat="47.49306" lon="6.73628">
        <ele>361</ele>
        <time>2015-08-20T12:29:08.000Z</time>
      </trkpt>
      <trkpt lat="47.49305" lon="6.73626">
        <ele>361</ele>
        <time>2015-08-20T12:29:09.000Z</time>
      </trkpt>
      <trkpt lat="47.49303" lon="6.73623">
        <ele>361</ele>
        <time>2015-08-20T12:29:11.000Z</time>
      </trkpt>
      <trkpt lat="47.49302" lon="6.73621">
        <ele>361</ele>
        <time>2015-08-20T12:29:12.000Z</time>
      </trkpt>
      <trkpt lat="47.49299" lon="6.73618">
        <ele>361</ele>
        <time>2015-08-20T12:29:14.000Z</time>
      </trkpt>
      <trkpt lat="47.49298" lon="6.73616">
        <ele>361</ele>
        <time>2015-08-20T12:29:15.000Z</time>
      </trkpt>
      <trkpt lat="47.49296" lon="6.73611">
        <ele>361</ele>
        <time>2015-08-20T12:29:18.000Z</time>
      </trkpt>
      <trkpt lat="47.49295" lon="6.73609">
        <ele>362</ele>
        <time>2015-08-20T12:29:19.000Z</time>
      </trkpt>
      <trkpt lat="47.49292" lon="6.73605">
        <ele>362</ele>
        <time>2015-08-20T12:29:23.000Z</time>
      </trkpt>
      <trkpt lat="47.49291" lon="6.73605">
        <ele>362</ele>
        <time>2015-08-20T12:29:24.000Z</time>
      </trkpt>
      <trkpt lat="47.49287" lon="6.73603">
        <ele>362</ele>
        <time>2015-08-20T12:29:27.000Z</time>
      </trkpt>
      <trkpt lat="47.49285" lon="6.73603">
        <ele>362</ele>
        <time>2015-08-20T12:29:28.000Z</time>
      </trkpt>
      <trkpt lat="47.49281" lon="6.73602">
        <ele>363</ele>
        <time>2015-08-20T12:29:30.000Z</time>
      </trkpt>
      <trkpt lat="47.4928" lon="6.73601">
        <ele>363</ele>
        <time>2015-08-20T12:29:31.000Z</time>
      </trkpt>
      <trkpt lat="47.49276" lon="6.73598">
        <ele>363</ele>
        <time>2015-08-20T12:29:34.000Z</time>
      </trkpt>
      <trkpt lat="47.49275" lon="6.73597">
        <ele>363</ele>
        <time>2015-08-20T12:29:35.000Z</time>
      </trkpt>
      <trkpt lat="47.49274" lon="6.73591">
        <ele>364</ele>
        <time>2015-08-20T12:29:41.000Z</time>
      </trkpt>
      <trkpt lat="47.49273" lon="6.73591">
        <ele>364</ele>
        <time>2015-08-20T12:29:42.000Z</time>
      </trkpt>
      <trkpt lat="47.4927" lon="6.73586">
        <ele>364</ele>
        <time>2015-08-20T12:29:49.000Z</time>
      </trkpt>
      <trkpt lat="47.49269" lon="6.73586">
        <ele>364</ele>
        <time>2015-08-20T12:29:50.000Z</time>
      </trkpt>
      <trkpt lat="47.49266" lon="6.73585">
        <ele>365</ele>
        <time>2015-08-20T12:29:53.000Z</time>
      </trkpt>
      <trkpt lat="47.49265" lon="6.73584">
        <ele>365</ele>
        <time>2015-08-20T12:29:54.000Z</time>
      </trkpt>
      <trkpt lat="47.49262" lon="6.7358">
        <ele>367</ele>
        <time>2015-08-20T12:29:57.000Z</time>
      </trkpt>
      <trkpt lat="47.49261" lon="6.73579">
        <ele>367</ele>
        <time>2015-08-20T12:29:58.000Z</time>
      </trkpt>
      <trkpt lat="47.49258" lon="6.73576">
        <ele>367</ele>
        <time>2015-08-20T12:30:01.000Z</time>
      </trkpt>
      <trkpt lat="47.49257" lon="6.73575">
        <ele>367</ele>
        <time>2015-08-20T12:30:02.000Z</time>
      </trkpt>
      <trkpt lat="47.49255" lon="6.73572">
        <ele>367</ele>
        <time>2015-08-20T12:30:05.000Z</time>
      </trkpt>
      <trkpt lat="47.49253" lon="6.73571">
        <ele>367</ele>
        <time>2015-08-20T12:30:06.000Z</time>
      </trkpt>
      <trkpt lat="47.4925" lon="6.73568">
        <ele>371</ele>
        <time>2015-08-20T12:30:08.000Z</time>
      </trkpt>
      <trkpt lat="47.49249" lon="6.73566">
        <ele>371</ele>
        <time>2015-08-20T12:30:09.000Z</time>
      </trkpt>
      <trkpt lat="47.49246" lon="6.73563">
        <ele>372</ele>
        <time>2015-08-20T12:30:11.000Z</time>
      </trkpt>
      <trkpt lat="47.49244" lon="6.73562">
        <ele>372</ele>
        <time>2015-08-20T12:30:12.000Z</time>
      </trkpt>
      <trkpt lat="47.49241" lon="6.7356">
        <ele>372</ele>
        <time>2015-08-20T12:30:14.000Z</time>
      </trkpt>
      <trkpt lat="47.49239" lon="6.73559">
        <ele>372</ele>
        <time>2015-08-20T12:30:15.000Z</time>
      </trkpt>
      <trkpt lat="47.49236" lon="6.73557">
        <ele>372</ele>
        <time>2015-08-20T12:30:17.000Z</time>
      </trkpt>
      <trkpt lat="47.49234" lon="6.73556">
        <ele>373</ele>
        <time>2015-08-20T12:30:18.000Z</time>
      </trkpt>
      <trkpt lat="47.49231" lon="6.73554">
        <ele>373</ele>
        <time>2015-08-20T12:30:20.000Z</time>
      </trkpt>
      <trkpt lat="47.4923" lon="6.73554">
        <ele>373</ele>
        <time>2015-08-20T12:30:21.000Z</time>
      </trkpt>
      <trkpt lat="47.49226" lon="6.7355">
        <ele>373</ele>
        <time>2015-08-20T12:30:25.000Z</time>
      </trkpt>
      <trkpt lat="47.49226" lon="6.73548">
        <ele>373</ele>
        <time>2015-08-20T12:30:26.000Z</time>
      </trkpt>
      <trkpt lat="47.49224" lon="6.73542">
        <ele>374</ele>
        <time>2015-08-20T12:30:29.000Z</time>
      </trkpt>
      <trkpt lat="47.49223" lon="6.7354">
        <ele>374</ele>
        <time>2015-08-20T12:30:30.000Z</time>
      </trkpt>
      <trkpt lat="47.49221" lon="6.73535">
        <ele>374</ele>
        <time>2015-08-20T12:30:33.000Z</time>
      </trkpt>
      <trkpt lat="47.49221" lon="6.73534">
        <ele>374</ele>
        <time>2015-08-20T12:30:34.000Z</time>
      </trkpt>
      <trkpt lat="47.49218" lon="6.7353">
        <ele>374</ele>
        <time>2015-08-20T12:30:38.000Z</time>
      </trkpt>
      <trkpt lat="47.49218" lon="6.73528">
        <ele>374</ele>
        <time>2015-08-20T12:30:39.000Z</time>
      </trkpt>
      <trkpt lat="47.49217" lon="6.73522">
        <ele>375</ele>
        <time>2015-08-20T12:30:41.000Z</time>
      </trkpt>
      <trkpt lat="47.49217" lon="6.73518">
        <ele>375</ele>
        <time>2015-08-20T12:30:42.000Z</time>
      </trkpt>
      <trkpt lat="47.49216" lon="6.73515">
        <ele>375</ele>
        <time>2015-08-20T12:30:43.000Z</time>
      </trkpt>
      <trkpt lat="47.49214" lon="6.73511">
        <ele>375</ele>
        <time>2015-08-20T12:30:44.000Z</time>
      </trkpt>
      <trkpt lat="47.49212" lon="6.73506">
        <ele>375</ele>
        <time>2015-08-20T12:30:46.000Z</time>
      </trkpt>
      <trkpt lat="47.49212" lon="6.73501">
        <ele>375</ele>
        <time>2015-08-20T12:30:47.000Z</time>
      </trkpt>
      <trkpt lat="47.49211" lon="6.73498">
        <ele>378</ele>
        <time>2015-08-20T12:30:48.000Z</time>
      </trkpt>
      <trkpt lat="47.49211" lon="6.73494">
        <ele>378</ele>
        <time>2015-08-20T12:30:49.000Z</time>
      </trkpt>
      <trkpt lat="47.49208" lon="6.73489">
        <ele>379</ele>
        <time>2015-08-20T12:30:51.000Z</time>
      </trkpt>
      <trkpt lat="47.49207" lon="6.73487">
        <ele>379</ele>
        <time>2015-08-20T12:30:52.000Z</time>
      </trkpt>
      <trkpt lat="47.49205" lon="6.73482">
        <ele>379</ele>
        <time>2015-08-20T12:30:54.000Z</time>
      </trkpt>
      <trkpt lat="47.49204" lon="6.7348">
        <ele>379</ele>
        <time>2015-08-20T12:30:55.000Z</time>
      </trkpt>
      <trkpt lat="47.49201" lon="6.73476">
        <ele>379</ele>
        <time>2015-08-20T12:30:57.000Z</time>
      </trkpt>
      <trkpt lat="47.492" lon="6.73475">
        <ele>379</ele>
        <time>2015-08-20T12:30:58.000Z</time>
      </trkpt>
      <trkpt lat="47.49199" lon="6.7347">
        <ele>379</ele>
        <time>2015-08-20T12:31:01.000Z</time>
      </trkpt>
      <trkpt lat="47.49198" lon="6.73468">
        <ele>379</ele>
        <time>2015-08-20T12:31:02.000Z</time>
      </trkpt>
      <trkpt lat="47.49196" lon="6.73463">
        <ele>380</ele>
        <time>2015-08-20T12:31:04.000Z</time>
      </trkpt>
      <trkpt lat="47.49195" lon="6.73461">
        <ele>380</ele>
        <time>2015-08-20T12:31:05.000Z</time>
      </trkpt>
      <trkpt lat="47.49194" lon="6.73456">
        <ele>380</ele>
        <time>2015-08-20T12:31:07.000Z</time>
      </trkpt>
      <trkpt lat="47.49194" lon="6.73454">
        <ele>380</ele>
        <time>2015-08-20T12:31:08.000Z</time>
      </trkpt>
      <trkpt lat="47.49194" lon="6.73447">
        <ele>380</ele>
        <time>2015-08-20T12:31:11.000Z</time>
      </trkpt>
      <trkpt lat="47.49193" lon="6.73445">
        <ele>380</ele>
        <time>2015-08-20T12:31:12.000Z</time>
      </trkpt>
      <trkpt lat="47.49193" lon="6.7344">
        <ele>381</ele>
        <time>2015-08-20T12:31:14.000Z</time>
      </trkpt>
      <trkpt lat="47.49192" lon="6.73437">
        <ele>381</ele>
        <time>2015-08-20T12:31:15.000Z</time>
      </trkpt>
      <trkpt lat="47.49191" lon="6.73432">
        <ele>381</ele>
        <time>2015-08-20T12:31:17.000Z</time>
      </trkpt>
      <trkpt lat="47.4919" lon="6.7343">
        <ele>381</ele>
        <time>2015-08-20T12:31:18.000Z</time>
      </trkpt>
      <trkpt lat="47.49188" lon="6.73426">
        <ele>381</ele>
        <time>2015-08-20T12:31:20.000Z</time>
      </trkpt>
      <trkpt lat="47.49188" lon="6.73424">
        <ele>381</ele>
        <time>2015-08-20T12:31:21.000Z</time>
      </trkpt>
      <trkpt lat="47.49185" lon="6.73419">
        <ele>382</ele>
        <time>2015-08-20T12:31:24.000Z</time>
      </trkpt>
      <trkpt lat="47.49184" lon="6.73417">
        <ele>382</ele>
        <time>2015-08-20T12:31:25.000Z</time>
      </trkpt>
      <trkpt lat="47.49181" lon="6.73412">
        <ele>384</ele>
        <time>2015-08-20T12:31:28.000Z</time>
      </trkpt>
      <trkpt lat="47.4918" lon="6.7341">
        <ele>384</ele>
        <time>2015-08-20T12:31:29.000Z</time>
      </trkpt>
      <trkpt lat="47.49178" lon="6.73407">
        <ele>384</ele>
        <time>2015-08-20T12:31:31.000Z</time>
      </trkpt>
      <trkpt lat="47.49177" lon="6.73404">
        <ele>384</ele>
        <time>2015-08-20T12:31:32.000Z</time>
      </trkpt>
      <trkpt lat="47.49175" lon="6.73399">
        <ele>384</ele>
        <time>2015-08-20T12:31:34.000Z</time>
      </trkpt>
      <trkpt lat="47.49174" lon="6.73397">
        <ele>384</ele>
        <time>2015-08-20T12:31:35.000Z</time>
      </trkpt>
      <trkpt lat="47.49171" lon="6.73394">
        <ele>385</ele>
        <time>2015-08-20T12:31:37.000Z</time>
      </trkpt>
      <trkpt lat="47.49169" lon="6.73393">
        <ele>385</ele>
        <time>2015-08-20T12:31:38.000Z</time>
      </trkpt>
      <trkpt lat="47.49166" lon="6.73391">
        <ele>386</ele>
        <time>2015-08-20T12:31:40.000Z</time>
      </trkpt>
      <trkpt lat="47.49164" lon="6.73389">
        <ele>386</ele>
        <time>2015-08-20T12:31:41.000Z</time>
      </trkpt>
      <trkpt lat="47.49161" lon="6.73387">
        <ele>386</ele>
        <time>2015-08-20T12:31:43.000Z</time>
      </trkpt>
      <trkpt lat="47.49159" lon="6.73385">
        <ele>386</ele>
        <time>2015-08-20T12:31:44.000Z</time>
      </trkpt>
      <trkpt lat="47.49157" lon="6.73382">
        <ele>386</ele>
        <time>2015-08-20T12:31:46.000Z</time>
      </trkpt>
      <trkpt lat="47.49155" lon="6.7338">
        <ele>386</ele>
        <time>2015-08-20T12:31:47.000Z</time>
      </trkpt>
      <trkpt lat="47.49152" lon="6.73378">
        <ele>386</ele>
        <time>2015-08-20T12:31:49.000Z</time>
      </trkpt>
      <trkpt lat="47.4915" lon="6.73376">
        <ele>386</ele>
        <time>2015-08-20T12:31:50.000Z</time>
      </trkpt>
      <trkpt lat="47.49146" lon="6.73373">
        <ele>386</ele>
        <time>2015-08-20T12:31:52.000Z</time>
      </trkpt>
      <trkpt lat="47.49145" lon="6.73372">
        <ele>386</ele>
        <time>2015-08-20T12:31:53.000Z</time>
      </trkpt>
      <trkpt lat="47.49141" lon="6.73369">
        <ele>386</ele>
        <time>2015-08-20T12:31:55.000Z</time>
      </trkpt>
      <trkpt lat="47.49139" lon="6.73368">
        <ele>386</ele>
        <time>2015-08-20T12:31:56.000Z</time>
      </trkpt>
      <trkpt lat="47.49136" lon="6.73366">
        <ele>386</ele>
        <time>2015-08-20T12:31:58.000Z</time>
      </trkpt>
      <trkpt lat="47.49135" lon="6.73365">
        <ele>387</ele>
        <time>2015-08-20T12:31:59.000Z</time>
      </trkpt>
      <trkpt lat="47.49132" lon="6.73363">
        <ele>387</ele>
        <time>2015-08-20T12:32:01.000Z</time>
      </trkpt>
      <trkpt lat="47.4913" lon="6.73362">
        <ele>387</ele>
        <time>2015-08-20T12:32:02.000Z</time>
      </trkpt>
      <trkpt lat="47.49127" lon="6.7336">
        <ele>387</ele>
        <time>2015-08-20T12:32:04.000Z</time>
      </trkpt>
      <trkpt lat="47.49126" lon="6.73359">
        <ele>387</ele>
        <time>2015-08-20T12:32:05.000Z</time>
      </trkpt>
      <trkpt lat="47.49122" lon="6.73356">
        <ele>387</ele>
        <time>2015-08-20T12:32:07.000Z</time>
      </trkpt>
      <trkpt lat="47.4912" lon="6.73354">
        <ele>387</ele>
        <time>2015-08-20T12:32:08.000Z</time>
      </trkpt>
      <trkpt lat="47.49118" lon="6.73349">
        <ele>387</ele>
        <time>2015-08-20T12:32:10.000Z</time>
      </trkpt>
      <trkpt lat="47.49118" lon="6.73347">
        <ele>387</ele>
        <time>2015-08-20T12:32:11.000Z</time>
      </trkpt>
      <trkpt lat="47.49119" lon="6.73343">
        <ele>387</ele>
        <time>2015-08-20T12:32:14.000Z</time>
      </trkpt>
      <trkpt lat="47.4912" lon="6.7334">
        <ele>387</ele>
        <time>2015-08-20T12:32:15.000Z</time>
      </trkpt>
      <trkpt lat="47.49121" lon="6.73337">
        <ele>387</ele>
        <time>2015-08-20T12:32:16.000Z</time>
      </trkpt>
      <trkpt lat="47.49122" lon="6.73333">
        <ele>388</ele>
        <time>2015-08-20T12:32:17.000Z</time>
      </trkpt>
      <trkpt lat="47.49123" lon="6.73329">
        <ele>388</ele>
        <time>2015-08-20T12:32:18.000Z</time>
      </trkpt>
      <trkpt lat="47.49124" lon="6.73326">
        <ele>388</ele>
        <time>2015-08-20T12:32:19.000Z</time>
      </trkpt>
      <trkpt lat="47.49125" lon="6.7332">
        <ele>389</ele>
        <time>2015-08-20T12:32:21.000Z</time>
      </trkpt>
      <trkpt lat="47.49125" lon="6.73318">
        <ele>389</ele>
        <time>2015-08-20T12:32:22.000Z</time>
      </trkpt>
      <trkpt lat="47.49124" lon="6.73312">
        <ele>389</ele>
        <time>2015-08-20T12:32:25.000Z</time>
      </trkpt>
      <trkpt lat="47.49124" lon="6.73311">
        <ele>389</ele>
        <time>2015-08-20T12:32:26.000Z</time>
      </trkpt>
      <trkpt lat="47.49126" lon="6.73306">
        <ele>389</ele>
        <time>2015-08-20T12:32:30.000Z</time>
      </trkpt>
      <trkpt lat="47.49127" lon="6.73304">
        <ele>389</ele>
        <time>2015-08-20T12:32:31.000Z</time>
      </trkpt>
      <trkpt lat="47.49128" lon="6.73301">
        <ele>389</ele>
        <time>2015-08-20T12:32:33.000Z</time>
      </trkpt>
      <trkpt lat="47.49129" lon="6.73298">
        <ele>389</ele>
        <time>2015-08-20T12:32:34.000Z</time>
      </trkpt>
      <trkpt lat="47.49131" lon="6.73293">
        <ele>389</ele>
        <time>2015-08-20T12:32:36.000Z</time>
      </trkpt>
      <trkpt lat="47.49132" lon="6.7329">
        <ele>389</ele>
        <time>2015-08-20T12:32:37.000Z</time>
      </trkpt>
      <trkpt lat="47.49133" lon="6.73284">
        <ele>389</ele>
        <time>2015-08-20T12:32:41.000Z</time>
      </trkpt>
      <trkpt lat="47.49134" lon="6.73282">
        <ele>389</ele>
        <time>2015-08-20T12:32:42.000Z</time>
      </trkpt>
      <trkpt lat="47.49136" lon="6.73276">
        <ele>390</ele>
        <time>2015-08-20T12:32:44.000Z</time>
      </trkpt>
      <trkpt lat="47.49137" lon="6.73273">
        <ele>390</ele>
        <time>2015-08-20T12:32:45.000Z</time>
      </trkpt>
      <trkpt lat="47.49139" lon="6.73269">
        <ele>390</ele>
        <time>2015-08-20T12:32:47.000Z</time>
      </trkpt>
      <trkpt lat="47.4914" lon="6.73267">
        <ele>390</ele>
        <time>2015-08-20T12:32:47.968Z</time>
      </trkpt>
      <trkpt lat="47.49142" lon="6.73263">
        <ele>390</ele>
        <time>2015-08-20T12:32:49.000Z</time>
      </trkpt>
      <trkpt lat="47.49144" lon="6.73259">
        <ele>391</ele>
        <time>2015-08-20T12:32:50.000Z</time>
      </trkpt>
      <trkpt lat="47.49146" lon="6.73256">
        <ele>391</ele>
        <time>2015-08-20T12:32:51.000Z</time>
      </trkpt>
      <trkpt lat="47.49147" lon="6.73253">
        <ele>391</ele>
        <time>2015-08-20T12:32:52.000Z</time>
      </trkpt>
      <trkpt lat="47.49148" lon="6.7325">
        <ele>393</ele>
        <time>2015-08-20T12:32:53.000Z</time>
      </trkpt>
      <trkpt lat="47.4915" lon="6.73247">
        <ele>393</ele>
        <time>2015-08-20T12:32:54.000Z</time>
      </trkpt>
      <trkpt lat="47.49151" lon="6.73244">
        <ele>393</ele>
        <time>2015-08-20T12:32:55.000Z</time>
      </trkpt>
      <trkpt lat="47.49152" lon="6.73241">
        <ele>393</ele>
        <time>2015-08-20T12:32:56.000Z</time>
      </trkpt>
      <trkpt lat="47.49154" lon="6.73238">
        <ele>393</ele>
        <time>2015-08-20T12:32:57.000Z</time>
      </trkpt>
      <trkpt lat="47.49156" lon="6.73234">
        <ele>393</ele>
        <time>2015-08-20T12:32:58.000Z</time>
      </trkpt>
      <trkpt lat="47.49158" lon="6.7323">
        <ele>393</ele>
        <time>2015-08-20T12:32:59.000Z</time>
      </trkpt>
      <trkpt lat="47.4916" lon="6.73227">
        <ele>393</ele>
        <time>2015-08-20T12:33:00.000Z</time>
      </trkpt>
      <trkpt lat="47.49162" lon="6.73223">
        <ele>393</ele>
        <time>2015-08-20T12:33:01.000Z</time>
      </trkpt>
      <trkpt lat="47.49163" lon="6.7322">
        <ele>393</ele>
        <time>2015-08-20T12:33:02.000Z</time>
      </trkpt>
      <trkpt lat="47.49164" lon="6.73214">
        <ele>393</ele>
        <time>2015-08-20T12:33:04.000Z</time>
      </trkpt>
      <trkpt lat="47.49164" lon="6.73211">
        <ele>393</ele>
        <time>2015-08-20T12:33:05.000Z</time>
      </trkpt>
      <trkpt lat="47.49164" lon="6.73206">
        <ele>393</ele>
        <time>2015-08-20T12:33:07.000Z</time>
      </trkpt>
      <trkpt lat="47.49164" lon="6.73204">
        <ele>393</ele>
        <time>2015-08-20T12:33:08.000Z</time>
      </trkpt>
      <trkpt lat="47.49164" lon="6.73198">
        <ele>394</ele>
        <time>2015-08-20T12:33:11.000Z</time>
      </trkpt>
      <trkpt lat="47.49165" lon="6.73194">
        <ele>394</ele>
        <time>2015-08-20T12:33:12.000Z</time>
      </trkpt>
      <trkpt lat="47.49165" lon="6.73189">
        <ele>394</ele>
        <time>2015-08-20T12:33:13.000Z</time>
      </trkpt>
      <trkpt lat="47.49166" lon="6.73183">
        <ele>395</ele>
        <time>2015-08-20T12:33:14.000Z</time>
      </trkpt>
      <trkpt lat="47.49167" lon="6.73178">
        <ele>397</ele>
        <time>2015-08-20T12:33:15.000Z</time>
      </trkpt>
      <trkpt lat="47.49168" lon="6.73172">
        <ele>397</ele>
        <time>2015-08-20T12:33:16.000Z</time>
      </trkpt>
      <trkpt lat="47.49169" lon="6.73168">
        <ele>398</ele>
        <time>2015-08-20T12:33:17.000Z</time>
      </trkpt>
      <trkpt lat="47.4917" lon="6.73163">
        <ele>398</ele>
        <time>2015-08-20T12:33:18.000Z</time>
      </trkpt>
      <trkpt lat="47.4917" lon="6.73159">
        <ele>397</ele>
        <time>2015-08-20T12:33:19.000Z</time>
      </trkpt>
      <trkpt lat="47.49172" lon="6.73154">
        <ele>397</ele>
        <time>2015-08-20T12:33:20.000Z</time>
      </trkpt>
      <trkpt lat="47.49174" lon="6.73149">
        <ele>397</ele>
        <time>2015-08-20T12:33:21.000Z</time>
      </trkpt>
      <trkpt lat="47.49176" lon="6.73144">
        <ele>397</ele>
        <time>2015-08-20T12:33:22.000Z</time>
      </trkpt>
      <trkpt lat="47.49178" lon="6.7314">
        <ele>396</ele>
        <time>2015-08-20T12:33:23.000Z</time>
      </trkpt>
      <trkpt lat="47.49179" lon="6.73136">
        <ele>396</ele>
        <time>2015-08-20T12:33:24.000Z</time>
      </trkpt>
      <trkpt lat="47.4918" lon="6.73132">
        <ele>396</ele>
        <time>2015-08-20T12:33:25.000Z</time>
      </trkpt>
      <trkpt lat="47.49181" lon="6.73127">
        <ele>396</ele>
        <time>2015-08-20T12:33:26.000Z</time>
      </trkpt>
      <trkpt lat="47.49182" lon="6.73122">
        <ele>396</ele>
        <time>2015-08-20T12:33:27.000Z</time>
      </trkpt>
      <trkpt lat="47.49182" lon="6.73116">
        <ele>396</ele>
        <time>2015-08-20T12:33:28.000Z</time>
      </trkpt>
      <trkpt lat="47.49182" lon="6.73109">
        <ele>396</ele>
        <time>2015-08-20T12:33:29.000Z</time>
      </trkpt>
      <trkpt lat="47.49182" lon="6.73104">
        <ele>395</ele>
        <time>2015-08-20T12:33:30.000Z</time>
      </trkpt>
      <trkpt lat="47.49182" lon="6.73098">
        <ele>395</ele>
        <time>2015-08-20T12:33:31.000Z</time>
      </trkpt>
      <trkpt lat="47.49182" lon="6.73094">
        <ele>395</ele>
        <time>2015-08-20T12:33:32.000Z</time>
      </trkpt>
      <trkpt lat="47.49182" lon="6.7309">
        <ele>395</ele>
        <time>2015-08-20T12:33:33.000Z</time>
      </trkpt>
      <trkpt lat="47.49182" lon="6.73086">
        <ele>395</ele>
        <time>2015-08-20T12:33:34.000Z</time>
      </trkpt>
      <trkpt lat="47.49182" lon="6.73082">
        <ele>395</ele>
        <time>2015-08-20T12:33:35.000Z</time>
      </trkpt>
      <trkpt lat="47.49182" lon="6.73078">
        <ele>395</ele>
        <time>2015-08-20T12:33:36.000Z</time>
      </trkpt>
      <trkpt lat="47.49182" lon="6.73075">
        <ele>395</ele>
        <time>2015-08-20T12:33:37.000Z</time>
      </trkpt>
      <trkpt lat="47.49183" lon="6.73071">
        <ele>395</ele>
        <time>2015-08-20T12:33:38.000Z</time>
      </trkpt>
      <trkpt lat="47.49183" lon="6.73066">
        <ele>395</ele>
        <time>2015-08-20T12:33:39.000Z</time>
      </trkpt>
      <trkpt lat="47.49184" lon="6.73061">
        <ele>395</ele>
        <time>2015-08-20T12:33:40.000Z</time>
      </trkpt>
      <trkpt lat="47.49185" lon="6.73057">
        <ele>395</ele>
        <time>2015-08-20T12:33:41.000Z</time>
      </trkpt>
      <trkpt lat="47.49185" lon="6.73053">
        <ele>395</ele>
        <time>2015-08-20T12:33:42.000Z</time>
      </trkpt>
      <trkpt lat="47.49186" lon="6.73049">
        <ele>395</ele>
        <time>2015-08-20T12:33:43.000Z</time>
      </trkpt>
      <trkpt lat="47.49186" lon="6.73046">
        <ele>395</ele>
        <time>2015-08-20T12:33:44.000Z</time>
      </trkpt>
      <trkpt lat="47.49186" lon="6.73041">
        <ele>395</ele>
        <time>2015-08-20T12:33:46.000Z</time>
      </trkpt>
      <trkpt lat="47.49186" lon="6.73038">
        <ele>395</ele>
        <time>2015-08-20T12:33:47.000Z</time>
      </trkpt>
      <trkpt lat="47.49185" lon="6.73032">
        <ele>394</ele>
        <time>2015-08-20T12:33:49.000Z</time>
      </trkpt>
      <trkpt lat="47.49184" lon="6.73029">
        <ele>394</ele>
        <time>2015-08-20T12:33:50.000Z</time>
      </trkpt>
      <trkpt lat="47.49184" lon="6.73025">
        <ele>394</ele>
        <time>2015-08-20T12:33:51.000Z</time>
      </trkpt>
      <trkpt lat="47.49185" lon="6.73022">
        <ele>394</ele>
        <time>2015-08-20T12:33:52.000Z</time>
      </trkpt>
      <trkpt lat="47.49186" lon="6.73017">
        <ele>394</ele>
        <time>2015-08-20T12:33:53.000Z</time>
      </trkpt>
      <trkpt lat="47.49187" lon="6.73012">
        <ele>394</ele>
        <time>2015-08-20T12:33:54.000Z</time>
      </trkpt>
      <trkpt lat="47.49188" lon="6.73006">
        <ele>394</ele>
        <time>2015-08-20T12:33:55.000Z</time>
      </trkpt>
      <trkpt lat="47.49189" lon="6.73001">
        <ele>394</ele>
        <time>2015-08-20T12:33:56.000Z</time>
      </trkpt>
      <trkpt lat="47.4919" lon="6.72998">
        <ele>394</ele>
        <time>2015-08-20T12:33:57.000Z</time>
      </trkpt>
      <trkpt lat="47.49191" lon="6.72995">
        <ele>394</ele>
        <time>2015-08-20T12:33:58.000Z</time>
      </trkpt>
      <trkpt lat="47.49194" lon="6.72992">
        <ele>394</ele>
        <time>2015-08-20T12:34:00.000Z</time>
      </trkpt>
      <trkpt lat="47.49195" lon="6.72991">
        <ele>394</ele>
        <time>2015-08-20T12:34:01.000Z</time>
      </trkpt>
      <trkpt lat="47.49196" lon="6.72986">
        <ele>394</ele>
        <time>2015-08-20T12:34:04.000Z</time>
      </trkpt>
      <trkpt lat="47.49197" lon="6.72984">
        <ele>394</ele>
        <time>2015-08-20T12:34:05.000Z</time>
      </trkpt>
      <trkpt lat="47.49197" lon="6.72981">
        <ele>395</ele>
        <time>2015-08-20T12:34:06.000Z</time>
      </trkpt>
      <trkpt lat="47.49199" lon="6.72977">
        <ele>395</ele>
        <time>2015-08-20T12:34:07.000Z</time>
      </trkpt>
      <trkpt lat="47.492" lon="6.72974">
        <ele>395</ele>
        <time>2015-08-20T12:34:08.000Z</time>
      </trkpt>
      <trkpt lat="47.49201" lon="6.72971">
        <ele>395</ele>
        <time>2015-08-20T12:34:09.000Z</time>
      </trkpt>
      <trkpt lat="47.49202" lon="6.72967">
        <ele>395</ele>
        <time>2015-08-20T12:34:10.000Z</time>
      </trkpt>
      <trkpt lat="47.49204" lon="6.72965">
        <ele>395</ele>
        <time>2015-08-20T12:34:11.000Z</time>
      </trkpt>
      <trkpt lat="47.49206" lon="6.72961">
        <ele>395</ele>
        <time>2015-08-20T12:34:13.000Z</time>
      </trkpt>
      <trkpt lat="47.49208" lon="6.7296">
        <ele>395</ele>
        <time>2015-08-20T12:34:14.000Z</time>
      </trkpt>
      <trkpt lat="47.49211" lon="6.72956">
        <ele>395</ele>
        <time>2015-08-20T12:34:17.000Z</time>
      </trkpt>
      <trkpt lat="47.49213" lon="6.72953">
        <ele>395</ele>
        <time>2015-08-20T12:34:18.000Z</time>
      </trkpt>
      <trkpt lat="47.49215" lon="6.7295">
        <ele>396</ele>
        <time>2015-08-20T12:34:19.000Z</time>
      </trkpt>
      <trkpt lat="47.49218" lon="6.72946">
        <ele>396</ele>
        <time>2015-08-20T12:34:20.000Z</time>
      </trkpt>
      <trkpt lat="47.49222" lon="6.72942">
        <ele>396</ele>
        <time>2015-08-20T12:34:21.000Z</time>
      </trkpt>
      <trkpt lat="47.49224" lon="6.7294">
        <ele>396</ele>
        <time>2015-08-20T12:34:22.000Z</time>
      </trkpt>
      <trkpt lat="47.49226" lon="6.72937">
        <ele>396</ele>
        <time>2015-08-20T12:34:23.000Z</time>
      </trkpt>
      <trkpt lat="47.49228" lon="6.72934">
        <ele>396</ele>
        <time>2015-08-20T12:34:24.000Z</time>
      </trkpt>
      <trkpt lat="47.4923" lon="6.72932">
        <ele>397</ele>
        <time>2015-08-20T12:34:25.000Z</time>
      </trkpt>
      <trkpt lat="47.49232" lon="6.72929">
        <ele>397</ele>
        <time>2015-08-20T12:34:26.000Z</time>
      </trkpt>
      <trkpt lat="47.49235" lon="6.72925">
        <ele>397</ele>
        <time>2015-08-20T12:34:27.000Z</time>
      </trkpt>
      <trkpt lat="47.49239" lon="6.72921">
        <ele>398</ele>
        <time>2015-08-20T12:34:28.000Z</time>
      </trkpt>
      <trkpt lat="47.49242" lon="6.72918">
        <ele>398</ele>
        <time>2015-08-20T12:34:29.000Z</time>
      </trkpt>
      <trkpt lat="47.49246" lon="6.72915">
        <ele>398</ele>
        <time>2015-08-20T12:34:30.000Z</time>
      </trkpt>
      <trkpt lat="47.49249" lon="6.72912">
        <ele>398</ele>
        <time>2015-08-20T12:34:31.000Z</time>
      </trkpt>
      <trkpt lat="47.49257" lon="6.72905">
        <ele>398</ele>
        <time>2015-08-20T12:34:32.000Z</time>
      </trkpt>
      <trkpt lat="47.49262" lon="6.72902">
        <ele>397</ele>
        <time>2015-08-20T12:34:33.000Z</time>
      </trkpt>
      <trkpt lat="47.49266" lon="6.72897">
        <ele>397</ele>
        <time>2015-08-20T12:34:34.000Z</time>
      </trkpt>
      <trkpt lat="47.49267" lon="6.72894">
        <ele>397</ele>
        <time>2015-08-20T12:34:35.000Z</time>
      </trkpt>
      <trkpt lat="47.4927" lon="6.72887">
        <ele>397</ele>
        <time>2015-08-20T12:34:36.000Z</time>
      </trkpt>
      <trkpt lat="47.49272" lon="6.72886">
        <ele>397</ele>
        <time>2015-08-20T12:34:37.000Z</time>
      </trkpt>
      <trkpt lat="47.49275" lon="6.72883">
        <ele>397</ele>
        <time>2015-08-20T12:34:38.000Z</time>
      </trkpt>
      <trkpt lat="47.49277" lon="6.72881">
        <ele>397</ele>
        <time>2015-08-20T12:34:39.000Z</time>
      </trkpt>
      <trkpt lat="47.49278" lon="6.72872">
        <ele>396</ele>
        <time>2015-08-20T12:34:40.000Z</time>
      </trkpt>
      <trkpt lat="47.49281" lon="6.72867">
        <ele>396</ele>
        <time>2015-08-20T12:34:42.000Z</time>
      </trkpt>
      <trkpt lat="47.49282" lon="6.72865">
        <ele>396</ele>
        <time>2015-08-20T12:34:43.000Z</time>
      </trkpt>
      <trkpt lat="47.49283" lon="6.72862">
        <ele>396</ele>
        <time>2015-08-20T12:34:44.000Z</time>
      </trkpt>
      <trkpt lat="47.49284" lon="6.72858">
        <ele>396</ele>
        <time>2015-08-20T12:34:45.000Z</time>
      </trkpt>
      <trkpt lat="47.49286" lon="6.72854">
        <ele>396</ele>
        <time>2015-08-20T12:34:46.000Z</time>
      </trkpt>
      <trkpt lat="47.49287" lon="6.7285">
        <ele>396</ele>
        <time>2015-08-20T12:34:47.000Z</time>
      </trkpt>
      <trkpt lat="47.49289" lon="6.72847">
        <ele>396</ele>
        <time>2015-08-20T12:34:48.000Z</time>
      </trkpt>
      <trkpt lat="47.49291" lon="6.72843">
        <ele>396</ele>
        <time>2015-08-20T12:34:49.000Z</time>
      </trkpt>
      <trkpt lat="47.49293" lon="6.72838">
        <ele>396</ele>
        <time>2015-08-20T12:34:50.000Z</time>
      </trkpt>
      <trkpt lat="47.49296" lon="6.72834">
        <ele>396</ele>
        <time>2015-08-20T12:34:51.000Z</time>
      </trkpt>
      <trkpt lat="47.49298" lon="6.72831">
        <ele>397</ele>
        <time>2015-08-20T12:34:52.000Z</time>
      </trkpt>
      <trkpt lat="47.49301" lon="6.72826">
        <ele>397</ele>
        <time>2015-08-20T12:34:53.000Z</time>
      </trkpt>
      <trkpt lat="47.49303" lon="6.72822">
        <ele>397</ele>
        <time>2015-08-20T12:34:54.000Z</time>
      </trkpt>
      <trkpt lat="47.49304" lon="6.72818">
        <ele>397</ele>
        <time>2015-08-20T12:34:55.000Z</time>
      </trkpt>
      <trkpt lat="47.49304" lon="6.72815">
        <ele>397</ele>
        <time>2015-08-20T12:34:56.000Z</time>
      </trkpt>
      <trkpt lat="47.49303" lon="6.72811">
        <ele>397</ele>
        <time>2015-08-20T12:34:57.000Z</time>
      </trkpt>
      <trkpt lat="47.49303" lon="6.72808">
        <ele>397</ele>
        <time>2015-08-20T12:34:58.000Z</time>
      </trkpt>
      <trkpt lat="47.49303" lon="6.72804">
        <ele>397</ele>
        <time>2015-08-20T12:34:59.000Z</time>
      </trkpt>
      <trkpt lat="47.49303" lon="6.728">
        <ele>397</ele>
        <time>2015-08-20T12:35:00.000Z</time>
      </trkpt>
      <trkpt lat="47.49304" lon="6.72795">
        <ele>397</ele>
        <time>2015-08-20T12:35:01.000Z</time>
      </trkpt>
      <trkpt lat="47.49305" lon="6.7279">
        <ele>397</ele>
        <time>2015-08-20T12:35:02.000Z</time>
      </trkpt>
      <trkpt lat="47.49306" lon="6.72784">
        <ele>398</ele>
        <time>2015-08-20T12:35:03.000Z</time>
      </trkpt>
      <trkpt lat="47.49306" lon="6.72778">
        <ele>398</ele>
        <time>2015-08-20T12:35:04.000Z</time>
      </trkpt>
      <trkpt lat="47.49306" lon="6.72771">
        <ele>398</ele>
        <time>2015-08-20T12:35:05.000Z</time>
      </trkpt>
      <trkpt lat="47.49306" lon="6.72765">
        <ele>398</ele>
        <time>2015-08-20T12:35:06.000Z</time>
      </trkpt>
      <trkpt lat="47.49306" lon="6.72759">
        <ele>398</ele>
        <time>2015-08-20T12:35:07.000Z</time>
      </trkpt>
      <trkpt lat="47.49307" lon="6.72753">
        <ele>398</ele>
        <time>2015-08-20T12:35:08.000Z</time>
      </trkpt>
      <trkpt lat="47.49307" lon="6.72748">
        <ele>399</ele>
        <time>2015-08-20T12:35:09.000Z</time>
      </trkpt>
      <trkpt lat="47.49308" lon="6.72743">
        <ele>399</ele>
        <time>2015-08-20T12:35:10.000Z</time>
      </trkpt>
      <trkpt lat="47.49309" lon="6.7274">
        <ele>399</ele>
        <time>2015-08-20T12:35:11.000Z</time>
      </trkpt>
      <trkpt lat="47.4931" lon="6.72737">
        <ele>399</ele>
        <time>2015-08-20T12:35:12.000Z</time>
      </trkpt>
      <trkpt lat="47.4931" lon="6.72733">
        <ele>399</ele>
        <time>2015-08-20T12:35:13.000Z</time>
      </trkpt>
      <trkpt lat="47.49311" lon="6.72727">
        <ele>399</ele>
        <time>2015-08-20T12:35:14.000Z</time>
      </trkpt>
      <trkpt lat="47.49312" lon="6.72721">
        <ele>400</ele>
        <time>2015-08-20T12:35:15.000Z</time>
      </trkpt>
      <trkpt lat="47.49313" lon="6.72716">
        <ele>400</ele>
        <time>2015-08-20T12:35:16.000Z</time>
      </trkpt>
      <trkpt lat="47.49314" lon="6.72711">
        <ele>400</ele>
        <time>2015-08-20T12:35:17.000Z</time>
      </trkpt>
      <trkpt lat="47.49315" lon="6.72707">
        <ele>400</ele>
        <time>2015-08-20T12:35:18.000Z</time>
      </trkpt>
      <trkpt lat="47.49316" lon="6.72703">
        <ele>400</ele>
        <time>2015-08-20T12:35:19.000Z</time>
      </trkpt>
      <trkpt lat="47.49317" lon="6.72699">
        <ele>400</ele>
        <time>2015-08-20T12:35:20.000Z</time>
      </trkpt>
      <trkpt lat="47.49317" lon="6.72694">
        <ele>400</ele>
        <time>2015-08-20T12:35:21.000Z</time>
      </trkpt>
      <trkpt lat="47.49317" lon="6.72688">
        <ele>401</ele>
        <time>2015-08-20T12:35:22.000Z</time>
      </trkpt>
      <trkpt lat="47.49318" lon="6.72682">
        <ele>401</ele>
        <time>2015-08-20T12:35:23.000Z</time>
      </trkpt>
      <trkpt lat="47.49319" lon="6.72677">
        <ele>401</ele>
        <time>2015-08-20T12:35:24.000Z</time>
      </trkpt>
      <trkpt lat="47.4932" lon="6.72673">
        <ele>402</ele>
        <time>2015-08-20T12:35:25.000Z</time>
      </trkpt>
      <trkpt lat="47.4932" lon="6.72667">
        <ele>402</ele>
        <time>2015-08-20T12:35:27.000Z</time>
      </trkpt>
      <trkpt lat="47.49321" lon="6.72665">
        <ele>403</ele>
        <time>2015-08-20T12:35:28.000Z</time>
      </trkpt>
      <trkpt lat="47.49323" lon="6.72661">
        <ele>403</ele>
        <time>2015-08-20T12:35:30.000Z</time>
      </trkpt>
      <trkpt lat="47.49324" lon="6.72657">
        <ele>403</ele>
        <time>2015-08-20T12:35:31.000Z</time>
      </trkpt>
      <trkpt lat="47.49324" lon="6.72653">
        <ele>403</ele>
        <time>2015-08-20T12:35:32.000Z</time>
      </trkpt>
      <trkpt lat="47.49325" lon="6.72648">
        <ele>403</ele>
        <time>2015-08-20T12:35:33.000Z</time>
      </trkpt>
      <trkpt lat="47.49325" lon="6.72643">
        <ele>402</ele>
        <time>2015-08-20T12:35:34.000Z</time>
      </trkpt>
      <trkpt lat="47.49326" lon="6.72639">
        <ele>402</ele>
        <time>2015-08-20T12:35:35.000Z</time>
      </trkpt>
      <trkpt lat="47.49327" lon="6.72635">
        <ele>402</ele>
        <time>2015-08-20T12:35:36.000Z</time>
      </trkpt>
      <trkpt lat="47.49328" lon="6.72631">
        <ele>403</ele>
        <time>2015-08-20T12:35:37.000Z</time>
      </trkpt>
      <trkpt lat="47.49329" lon="6.72626">
        <ele>403</ele>
        <time>2015-08-20T12:35:38.000Z</time>
      </trkpt>
      <trkpt lat="47.4933" lon="6.72623">
        <ele>403</ele>
        <time>2015-08-20T12:35:39.000Z</time>
      </trkpt>
      <trkpt lat="47.49331" lon="6.72618">
        <ele>403</ele>
        <time>2015-08-20T12:35:40.000Z</time>
      </trkpt>
      <trkpt lat="47.49332" lon="6.72613">
        <ele>403</ele>
        <time>2015-08-20T12:35:41.000Z</time>
      </trkpt>
      <trkpt lat="47.49333" lon="6.72607">
        <ele>403</ele>
        <time>2015-08-20T12:35:42.000Z</time>
      </trkpt>
      <trkpt lat="47.49334" lon="6.72602">
        <ele>404</ele>
        <time>2015-08-20T12:35:43.000Z</time>
      </trkpt>
      <trkpt lat="47.49335" lon="6.72597">
        <ele>404</ele>
        <time>2015-08-20T12:35:44.000Z</time>
      </trkpt>
      <trkpt lat="47.49335" lon="6.72592">
        <ele>405</ele>
        <time>2015-08-20T12:35:45.000Z</time>
      </trkpt>
      <trkpt lat="47.49336" lon="6.72587">
        <ele>405</ele>
        <time>2015-08-20T12:35:46.000Z</time>
      </trkpt>
      <trkpt lat="47.49337" lon="6.72583">
        <ele>406</ele>
        <time>2015-08-20T12:35:47.000Z</time>
      </trkpt>
      <trkpt lat="47.49337" lon="6.72578">
        <ele>406</ele>
        <time>2015-08-20T12:35:48.000Z</time>
      </trkpt>
      <trkpt lat="47.49337" lon="6.72574">
        <ele>405</ele>
        <time>2015-08-20T12:35:49.000Z</time>
      </trkpt>
      <trkpt lat="47.49338" lon="6.72569">
        <ele>405</ele>
        <time>2015-08-20T12:35:50.000Z</time>
      </trkpt>
      <trkpt lat="47.49338" lon="6.72565">
        <ele>405</ele>
        <time>2015-08-20T12:35:51.000Z</time>
      </trkpt>
      <trkpt lat="47.49339" lon="6.72561">
        <ele>405</ele>
        <time>2015-08-20T12:35:52.000Z</time>
      </trkpt>
      <trkpt lat="47.4934" lon="6.72557">
        <ele>405</ele>
        <time>2015-08-20T12:35:53.000Z</time>
      </trkpt>
      <trkpt lat="47.49341" lon="6.72553">
        <ele>405</ele>
        <time>2015-08-20T12:35:54.000Z</time>
      </trkpt>
      <trkpt lat="47.49342" lon="6.72548">
        <ele>405</ele>
        <time>2015-08-20T12:35:55.000Z</time>
      </trkpt>
      <trkpt lat="47.49343" lon="6.72544">
        <ele>405</ele>
        <time>2015-08-20T12:35:56.000Z</time>
      </trkpt>
      <trkpt lat="47.49343" lon="6.7254">
        <ele>405</ele>
        <time>2015-08-20T12:35:57.000Z</time>
      </trkpt>
      <trkpt lat="47.49343" lon="6.72534">
        <ele>405</ele>
        <time>2015-08-20T12:35:59.000Z</time>
      </trkpt>
      <trkpt lat="47.49343" lon="6.72531">
        <ele>406</ele>
        <time>2015-08-20T12:36:00.000Z</time>
      </trkpt>
      <trkpt lat="47.49343" lon="6.72527">
        <ele>406</ele>
        <time>2015-08-20T12:36:01.000Z</time>
      </trkpt>
      <trkpt lat="47.49343" lon="6.72523">
        <ele>406</ele>
        <time>2015-08-20T12:36:02.000Z</time>
      </trkpt>
      <trkpt lat="47.49343" lon="6.72519">
        <ele>406</ele>
        <time>2015-08-20T12:36:03.000Z</time>
      </trkpt>
      <trkpt lat="47.49343" lon="6.72515">
        <ele>406</ele>
        <time>2015-08-20T12:36:04.000Z</time>
      </trkpt>
      <trkpt lat="47.49343" lon="6.72511">
        <ele>407</ele>
        <time>2015-08-20T12:36:05.000Z</time>
      </trkpt>
      <trkpt lat="47.49343" lon="6.72508">
        <ele>407</ele>
        <time>2015-08-20T12:36:06.000Z</time>
      </trkpt>
      <trkpt lat="47.49345" lon="6.72502">
        <ele>407</ele>
        <time>2015-08-20T12:36:08.000Z</time>
      </trkpt>
      <trkpt lat="47.49346" lon="6.72499">
        <ele>408</ele>
        <time>2015-08-20T12:36:09.000Z</time>
      </trkpt>
      <trkpt lat="47.49346" lon="6.72494">
        <ele>408</ele>
        <time>2015-08-20T12:36:10.000Z</time>
      </trkpt>
      <trkpt lat="47.49346" lon="6.7249">
        <ele>408</ele>
        <time>2015-08-20T12:36:11.000Z</time>
      </trkpt>
      <trkpt lat="47.49345" lon="6.72485">
        <ele>408</ele>
        <time>2015-08-20T12:36:12.000Z</time>
      </trkpt>
      <trkpt lat="47.49343" lon="6.7248">
        <ele>408</ele>
        <time>2015-08-20T12:36:13.000Z</time>
      </trkpt>
      <trkpt lat="47.49342" lon="6.72476">
        <ele>408</ele>
        <time>2015-08-20T12:36:14.000Z</time>
      </trkpt>
      <trkpt lat="47.49341" lon="6.72472">
        <ele>408</ele>
        <time>2015-08-20T12:36:15.000Z</time>
      </trkpt>
      <trkpt lat="47.4934" lon="6.72467">
        <ele>408</ele>
        <time>2015-08-20T12:36:16.000Z</time>
      </trkpt>
      <trkpt lat="47.49338" lon="6.72462">
        <ele>408</ele>
        <time>2015-08-20T12:36:17.000Z</time>
      </trkpt>
      <trkpt lat="47.49336" lon="6.72458">
        <ele>408</ele>
        <time>2015-08-20T12:36:18.000Z</time>
      </trkpt>
      <trkpt lat="47.49335" lon="6.72454">
        <ele>408</ele>
        <time>2015-08-20T12:36:19.000Z</time>
      </trkpt>
      <trkpt lat="47.49335" lon="6.72449">
        <ele>408</ele>
        <time>2015-08-20T12:36:21.000Z</time>
      </trkpt>
      <trkpt lat="47.49336" lon="6.72446">
        <ele>409</ele>
        <time>2015-08-20T12:36:22.000Z</time>
      </trkpt>
      <trkpt lat="47.49337" lon="6.72441">
        <ele>409</ele>
        <time>2015-08-20T12:36:23.000Z</time>
      </trkpt>
      <trkpt lat="47.49337" lon="6.72437">
        <ele>409</ele>
        <time>2015-08-20T12:36:24.000Z</time>
      </trkpt>
      <trkpt lat="47.49338" lon="6.72432">
        <ele>410</ele>
        <time>2015-08-20T12:36:25.000Z</time>
      </trkpt>
      <trkpt lat="47.49339" lon="6.72429">
        <ele>410</ele>
        <time>2015-08-20T12:36:26.000Z</time>
      </trkpt>
      <trkpt lat="47.49341" lon="6.72425">
        <ele>410</ele>
        <time>2015-08-20T12:36:27.000Z</time>
      </trkpt>
      <trkpt lat="47.49342" lon="6.72422">
        <ele>410</ele>
        <time>2015-08-20T12:36:28.000Z</time>
      </trkpt>
      <trkpt lat="47.49344" lon="6.72419">
        <ele>410</ele>
        <time>2015-08-20T12:36:29.000Z</time>
      </trkpt>
      <trkpt lat="47.49345" lon="6.72416">
        <ele>411</ele>
        <time>2015-08-20T12:36:30.000Z</time>
      </trkpt>
      <trkpt lat="47.49346" lon="6.72413">
        <ele>411</ele>
        <time>2015-08-20T12:36:31.000Z</time>
      </trkpt>
      <trkpt lat="47.49347" lon="6.72409">
        <ele>411</ele>
        <time>2015-08-20T12:36:32.000Z</time>
      </trkpt>
      <trkpt lat="47.49349" lon="6.72405">
        <ele>411</ele>
        <time>2015-08-20T12:36:33.000Z</time>
      </trkpt>
      <trkpt lat="47.49351" lon="6.724">
        <ele>411</ele>
        <time>2015-08-20T12:36:34.000Z</time>
      </trkpt>
      <trkpt lat="47.49354" lon="6.72394">
        <ele>411</ele>
        <time>2015-08-20T12:36:35.000Z</time>
      </trkpt>
      <trkpt lat="47.49357" lon="6.72389">
        <ele>411</ele>
        <time>2015-08-20T12:36:36.000Z</time>
      </trkpt>
      <trkpt lat="47.49359" lon="6.72384">
        <ele>411</ele>
        <time>2015-08-20T12:36:37.000Z</time>
      </trkpt>
      <trkpt lat="47.4936" lon="6.72379">
        <ele>411</ele>
        <time>2015-08-20T12:36:38.000Z</time>
      </trkpt>
      <trkpt lat="47.4936" lon="6.72374">
        <ele>411</ele>
        <time>2015-08-20T12:36:39.000Z</time>
      </trkpt>
      <trkpt lat="47.4936" lon="6.72369">
        <ele>411</ele>
        <time>2015-08-20T12:36:40.000Z</time>
      </trkpt>
      <trkpt lat="47.4936" lon="6.72364">
        <ele>411</ele>
        <time>2015-08-20T12:36:41.000Z</time>
      </trkpt>
      <trkpt lat="47.49359" lon="6.7236">
        <ele>411</ele>
        <time>2015-08-20T12:36:42.000Z</time>
      </trkpt>
      <trkpt lat="47.49359" lon="6.72355">
        <ele>411</ele>
        <time>2015-08-20T12:36:43.000Z</time>
      </trkpt>
      <trkpt lat="47.49359" lon="6.72351">
        <ele>412</ele>
        <time>2015-08-20T12:36:44.000Z</time>
      </trkpt>
      <trkpt lat="47.49358" lon="6.72347">
        <ele>412</ele>
        <time>2015-08-20T12:36:45.000Z</time>
      </trkpt>
      <trkpt lat="47.49358" lon="6.72344">
        <ele>412</ele>
        <time>2015-08-20T12:36:46.000Z</time>
      </trkpt>
      <trkpt lat="47.49358" lon="6.72339">
        <ele>412</ele>
        <time>2015-08-20T12:36:48.000Z</time>
      </trkpt>
      <trkpt lat="47.49357" lon="6.72335">
        <ele>412</ele>
        <time>2015-08-20T12:36:49.000Z</time>
      </trkpt>
      <trkpt lat="47.49357" lon="6.7233">
        <ele>414</ele>
        <time>2015-08-20T12:36:51.000Z</time>
      </trkpt>
      <trkpt lat="47.49357" lon="6.72328">
        <ele>414</ele>
        <time>2015-08-20T12:36:52.000Z</time>
      </trkpt>
      <trkpt lat="47.49358" lon="6.72323">
        <ele>414</ele>
        <time>2015-08-20T12:36:54.000Z</time>
      </trkpt>
      <trkpt lat="47.49357" lon="6.72321">
        <ele>414</ele>
        <time>2015-08-20T12:36:55.000Z</time>
      </trkpt>
      <trkpt lat="47.49357" lon="6.72316">
        <ele>415</ele>
        <time>2015-08-20T12:36:57.000Z</time>
      </trkpt>
      <trkpt lat="47.49357" lon="6.72314">
        <ele>415</ele>
        <time>2015-08-20T12:36:58.000Z</time>
      </trkpt>
      <trkpt lat="47.49357" lon="6.72308">
        <ele>415</ele>
        <time>2015-08-20T12:37:00.000Z</time>
      </trkpt>
      <trkpt lat="47.49357" lon="6.72305">
        <ele>415</ele>
        <time>2015-08-20T12:37:01.000Z</time>
      </trkpt>
      <trkpt lat="47.49358" lon="6.72302">
        <ele>415</ele>
        <time>2015-08-20T12:37:02.000Z</time>
      </trkpt>
      <trkpt lat="47.49358" lon="6.72298">
        <ele>415</ele>
        <time>2015-08-20T12:37:03.000Z</time>
      </trkpt>
      <trkpt lat="47.49357" lon="6.72293">
        <ele>415</ele>
        <time>2015-08-20T12:37:06.000Z</time>
      </trkpt>
      <trkpt lat="47.49357" lon="6.72292">
        <ele>415</ele>
        <time>2015-08-20T12:37:07.000Z</time>
      </trkpt>
      <trkpt lat="47.49356" lon="6.72287">
        <ele>415</ele>
        <time>2015-08-20T12:37:09.000Z</time>
      </trkpt>
      <trkpt lat="47.49356" lon="6.72284">
        <ele>415</ele>
        <time>2015-08-20T12:37:10.000Z</time>
      </trkpt>
      <trkpt lat="47.49356" lon="6.72278">
        <ele>416</ele>
        <time>2015-08-20T12:37:14.000Z</time>
      </trkpt>
      <trkpt lat="47.49356" lon="6.72276">
        <ele>416</ele>
        <time>2015-08-20T12:37:15.000Z</time>
      </trkpt>
      <trkpt lat="47.49357" lon="6.72271">
        <ele>416</ele>
        <time>2015-08-20T12:37:17.000Z</time>
      </trkpt>
      <trkpt lat="47.49357" lon="6.72268">
        <ele>416</ele>
        <time>2015-08-20T12:37:18.000Z</time>
      </trkpt>
      <trkpt lat="47.49359" lon="6.72265">
        <ele>416</ele>
        <time>2015-08-20T12:37:20.000Z</time>
      </trkpt>
      <trkpt lat="47.49361" lon="6.72263">
        <ele>416</ele>
        <time>2015-08-20T12:37:21.000Z</time>
      </trkpt>
      <trkpt lat="47.49365" lon="6.72262">
        <ele>416</ele>
        <time>2015-08-20T12:37:23.000Z</time>
      </trkpt>
      <trkpt lat="47.49366" lon="6.72261">
        <ele>416</ele>
        <time>2015-08-20T12:37:24.000Z</time>
      </trkpt>
      <trkpt lat="47.49367" lon="6.72255">
        <ele>416</ele>
        <time>2015-08-20T12:37:27.000Z</time>
      </trkpt>
      <trkpt lat="47.49368" lon="6.7225">
        <ele>416</ele>
        <time>2015-08-20T12:37:28.000Z</time>
      </trkpt>
      <trkpt lat="47.49368" lon="6.72247">
        <ele>419</ele>
        <time>2015-08-20T12:37:29.000Z</time>
      </trkpt>
      <trkpt lat="47.49369" lon="6.72243">
        <ele>419</ele>
        <time>2015-08-20T12:37:30.000Z</time>
      </trkpt>
      <trkpt lat="47.4937" lon="6.72235">
        <ele>419</ele>
        <time>2015-08-20T12:37:31.000Z</time>
      </trkpt>
      <trkpt lat="47.49371" lon="6.7223">
        <ele>419</ele>
        <time>2015-08-20T12:37:33.000Z</time>
      </trkpt>
      <trkpt lat="47.49371" lon="6.72229">
        <ele>419</ele>
        <time>2015-08-20T12:37:34.000Z</time>
      </trkpt>
      <trkpt lat="47.49374" lon="6.72225">
        <ele>419</ele>
        <time>2015-08-20T12:37:37.001Z</time>
      </trkpt>
      <trkpt lat="47.49374" lon="6.7222">
        <ele>419</ele>
        <time>2015-08-20T12:37:38.000Z</time>
      </trkpt>
      <trkpt lat="47.49374" lon="6.72216">
        <ele>419</ele>
        <time>2015-08-20T12:37:39.000Z</time>
      </trkpt>
      <trkpt lat="47.49375" lon="6.72212">
        <ele>419</ele>
        <time>2015-08-20T12:37:40.000Z</time>
      </trkpt>
      <trkpt lat="47.49375" lon="6.72208">
        <ele>419</ele>
        <time>2015-08-20T12:37:41.000Z</time>
      </trkpt>
      <trkpt lat="47.49375" lon="6.72204">
        <ele>419</ele>
        <time>2015-08-20T12:37:42.000Z</time>
      </trkpt>
      <trkpt lat="47.49376" lon="6.722">
        <ele>419</ele>
        <time>2015-08-20T12:37:43.000Z</time>
      </trkpt>
      <trkpt lat="47.49377" lon="6.72194">
        <ele>420</ele>
        <time>2015-08-20T12:37:44.000Z</time>
      </trkpt>
      <trkpt lat="47.49377" lon="6.72188">
        <ele>420</ele>
        <time>2015-08-20T12:37:45.000Z</time>
      </trkpt>
      <trkpt lat="47.49378" lon="6.72182">
        <ele>420</ele>
        <time>2015-08-20T12:37:46.000Z</time>
      </trkpt>
      <trkpt lat="47.49378" lon="6.72176">
        <ele>420</ele>
        <time>2015-08-20T12:37:47.000Z</time>
      </trkpt>
      <trkpt lat="47.49379" lon="6.72171">
        <ele>420</ele>
        <time>2015-08-20T12:37:48.000Z</time>
      </trkpt>
      <trkpt lat="47.49379" lon="6.72166">
        <ele>422</ele>
        <time>2015-08-20T12:37:49.000Z</time>
      </trkpt>
      <trkpt lat="47.4938" lon="6.72162">
        <ele>422</ele>
        <time>2015-08-20T12:37:50.000Z</time>
      </trkpt>
      <trkpt lat="47.4938" lon="6.72158">
        <ele>422</ele>
        <time>2015-08-20T12:37:51.000Z</time>
      </trkpt>
      <trkpt lat="47.4938" lon="6.72154">
        <ele>422</ele>
        <time>2015-08-20T12:37:52.000Z</time>
      </trkpt>
      <trkpt lat="47.4938" lon="6.7215">
        <ele>422</ele>
        <time>2015-08-20T12:37:53.000Z</time>
      </trkpt>
      <trkpt lat="47.4938" lon="6.72145">
        <ele>422</ele>
        <time>2015-08-20T12:37:54.000Z</time>
      </trkpt>
      <trkpt lat="47.49381" lon="6.7214">
        <ele>422</ele>
        <time>2015-08-20T12:37:55.000Z</time>
      </trkpt>
      <trkpt lat="47.49381" lon="6.72136">
        <ele>422</ele>
        <time>2015-08-20T12:37:56.000Z</time>
      </trkpt>
      <trkpt lat="47.49381" lon="6.72132">
        <ele>423</ele>
        <time>2015-08-20T12:37:57.000Z</time>
      </trkpt>
      <trkpt lat="47.49381" lon="6.72128">
        <ele>423</ele>
        <time>2015-08-20T12:37:58.000Z</time>
      </trkpt>
      <trkpt lat="47.49381" lon="6.72122">
        <ele>423</ele>
        <time>2015-08-20T12:38:00.000Z</time>
      </trkpt>
      <trkpt lat="47.49381" lon="6.72119">
        <ele>423</ele>
        <time>2015-08-20T12:38:01.000Z</time>
      </trkpt>
      <trkpt lat="47.4938" lon="6.72112">
        <ele>423</ele>
        <time>2015-08-20T12:38:03.000Z</time>
      </trkpt>
      <trkpt lat="47.4938" lon="6.72109">
        <ele>423</ele>
        <time>2015-08-20T12:38:04.000Z</time>
      </trkpt>
      <trkpt lat="47.4938" lon="6.72104">
        <ele>423</ele>
        <time>2015-08-20T12:38:06.000Z</time>
      </trkpt>
      <trkpt lat="47.4938" lon="6.72102">
        <ele>423</ele>
        <time>2015-08-20T12:38:07.000Z</time>
      </trkpt>
      <trkpt lat="47.49381" lon="6.72096">
        <ele>423</ele>
        <time>2015-08-20T12:38:10.000Z</time>
      </trkpt>
      <trkpt lat="47.49381" lon="6.72094">
        <ele>423</ele>
        <time>2015-08-20T12:38:11.000Z</time>
      </trkpt>
      <trkpt lat="47.49382" lon="6.7209">
        <ele>423</ele>
        <time>2015-08-20T12:38:13.000Z</time>
      </trkpt>
      <trkpt lat="47.49383" lon="6.72087">
        <ele>423</ele>
        <time>2015-08-20T12:38:14.000Z</time>
      </trkpt>
      <trkpt lat="47.49384" lon="6.72084">
        <ele>423</ele>
        <time>2015-08-20T12:38:15.000Z</time>
      </trkpt>
      <trkpt lat="47.49384" lon="6.7208">
        <ele>425</ele>
        <time>2015-08-20T12:38:16.000Z</time>
      </trkpt>
      <trkpt lat="47.49385" lon="6.72074">
        <ele>425</ele>
        <time>2015-08-20T12:38:18.000Z</time>
      </trkpt>
      <trkpt lat="47.49385" lon="6.72072">
        <ele>425</ele>
        <time>2015-08-20T12:38:19.000Z</time>
      </trkpt>
      <trkpt lat="47.49387" lon="6.72067">
        <ele>425</ele>
        <time>2015-08-20T12:38:21.000Z</time>
      </trkpt>
      <trkpt lat="47.49388" lon="6.72064">
        <ele>425</ele>
        <time>2015-08-20T12:38:22.000Z</time>
      </trkpt>
      <trkpt lat="47.49389" lon="6.7206">
        <ele>425</ele>
        <time>2015-08-20T12:38:23.000Z</time>
      </trkpt>
      <trkpt lat="47.49389" lon="6.72056">
        <ele>425</ele>
        <time>2015-08-20T12:38:24.000Z</time>
      </trkpt>
      <trkpt lat="47.49389" lon="6.72052">
        <ele>426</ele>
        <time>2015-08-20T12:38:25.000Z</time>
      </trkpt>
      <trkpt lat="47.49389" lon="6.72048">
        <ele>426</ele>
        <time>2015-08-20T12:38:26.000Z</time>
      </trkpt>
      <trkpt lat="47.49391" lon="6.72043">
        <ele>426</ele>
        <time>2015-08-20T12:38:29.000Z</time>
      </trkpt>
      <trkpt lat="47.49392" lon="6.72043">
        <ele>426</ele>
        <time>2015-08-20T12:38:30.000Z</time>
      </trkpt>
      <trkpt lat="47.49394" lon="6.72038">
        <ele>426</ele>
        <time>2015-08-20T12:38:34.000Z</time>
      </trkpt>
      <trkpt lat="47.49393" lon="6.72036">
        <ele>426</ele>
        <time>2015-08-20T12:38:35.000Z</time>
      </trkpt>
      <trkpt lat="47.49393" lon="6.7203">
        <ele>426</ele>
        <time>2015-08-20T12:38:37.000Z</time>
      </trkpt>
      <trkpt lat="47.49393" lon="6.72027">
        <ele>426</ele>
        <time>2015-08-20T12:38:38.000Z</time>
      </trkpt>
      <trkpt lat="47.49394" lon="6.72021">
        <ele>426</ele>
        <time>2015-08-20T12:38:40.000Z</time>
      </trkpt>
      <trkpt lat="47.49395" lon="6.72018">
        <ele>426</ele>
        <time>2015-08-20T12:38:41.000Z</time>
      </trkpt>
      <trkpt lat="47.49397" lon="6.72015">
        <ele>426</ele>
        <time>2015-08-20T12:38:42.000Z</time>
      </trkpt>
      <trkpt lat="47.49398" lon="6.72013">
        <ele>426</ele>
        <time>2015-08-20T12:38:43.000Z</time>
      </trkpt>
      <trkpt lat="47.494" lon="6.72008">
        <ele>426</ele>
        <time>2015-08-20T12:38:46.000Z</time>
      </trkpt>
      <trkpt lat="47.49401" lon="6.72006">
        <ele>426</ele>
        <time>2015-08-20T12:38:47.000Z</time>
      </trkpt>
      <trkpt lat="47.49401" lon="6.72001">
        <ele>426</ele>
        <time>2015-08-20T12:38:49.000Z</time>
      </trkpt>
      <trkpt lat="47.49401" lon="6.71999">
        <ele>428</ele>
        <time>2015-08-20T12:38:50.000Z</time>
      </trkpt>
      <trkpt lat="47.49401" lon="6.71995">
        <ele>428</ele>
        <time>2015-08-20T12:38:51.000Z</time>
      </trkpt>
      <trkpt lat="47.49402" lon="6.71991">
        <ele>429</ele>
        <time>2015-08-20T12:38:52.000Z</time>
      </trkpt>
      <trkpt lat="47.49402" lon="6.71987">
        <ele>429</ele>
        <time>2015-08-20T12:38:53.000Z</time>
      </trkpt>
      <trkpt lat="47.49402" lon="6.71982">
        <ele>429</ele>
        <time>2015-08-20T12:38:54.000Z</time>
      </trkpt>
      <trkpt lat="47.49402" lon="6.71979">
        <ele>429</ele>
        <time>2015-08-20T12:38:55.000Z</time>
      </trkpt>
      <trkpt lat="47.49402" lon="6.71976">
        <ele>429</ele>
        <time>2015-08-20T12:38:56.000Z</time>
      </trkpt>
      <trkpt lat="47.49404" lon="6.71972">
        <ele>430</ele>
        <time>2015-08-20T12:38:58.000Z</time>
      </trkpt>
      <trkpt lat="47.49404" lon="6.71969">
        <ele>430</ele>
        <time>2015-08-20T12:38:59.000Z</time>
      </trkpt>
      <trkpt lat="47.49405" lon="6.71966">
        <ele>430</ele>
        <time>2015-08-20T12:39:00.000Z</time>
      </trkpt>
      <trkpt lat="47.49404" lon="6.71962">
        <ele>430</ele>
        <time>2015-08-20T12:39:01.000Z</time>
      </trkpt>
      <trkpt lat="47.49404" lon="6.71957">
        <ele>430</ele>
        <time>2015-08-20T12:39:02.000Z</time>
      </trkpt>
      <trkpt lat="47.49404" lon="6.71952">
        <ele>431</ele>
        <time>2015-08-20T12:39:03.000Z</time>
      </trkpt>
      <trkpt lat="47.49403" lon="6.71946">
        <ele>431</ele>
        <time>2015-08-20T12:39:04.000Z</time>
      </trkpt>
      <trkpt lat="47.49404" lon="6.71941">
        <ele>431</ele>
        <time>2015-08-20T12:39:05.000Z</time>
      </trkpt>
      <trkpt lat="47.49404" lon="6.71937">
        <ele>432</ele>
        <time>2015-08-20T12:39:07.000Z</time>
      </trkpt>
      <trkpt lat="47.49404" lon="6.71934">
        <ele>432</ele>
        <time>2015-08-20T12:39:08.000Z</time>
      </trkpt>
      <trkpt lat="47.49405" lon="6.71928">
        <ele>432</ele>
        <time>2015-08-20T12:39:11.000Z</time>
      </trkpt>
      <trkpt lat="47.49405" lon="6.71925">
        <ele>432</ele>
        <time>2015-08-20T12:39:12.000Z</time>
      </trkpt>
      <trkpt lat="47.49405" lon="6.71921">
        <ele>433</ele>
        <time>2015-08-20T12:39:13.000Z</time>
      </trkpt>
      <trkpt lat="47.49405" lon="6.71917">
        <ele>433</ele>
        <time>2015-08-20T12:39:14.000Z</time>
      </trkpt>
      <trkpt lat="47.49406" lon="6.71913">
        <ele>434</ele>
        <time>2015-08-20T12:39:15.000Z</time>
      </trkpt>
      <trkpt lat="47.49407" lon="6.71909">
        <ele>434</ele>
        <time>2015-08-20T12:39:16.000Z</time>
      </trkpt>
      <trkpt lat="47.49407" lon="6.71905">
        <ele>434</ele>
        <time>2015-08-20T12:39:17.000Z</time>
      </trkpt>
      <trkpt lat="47.49407" lon="6.71902">
        <ele>434</ele>
        <time>2015-08-20T12:39:18.000Z</time>
      </trkpt>
      <trkpt lat="47.49409" lon="6.71896">
        <ele>435</ele>
        <time>2015-08-20T12:39:21.000Z</time>
      </trkpt>
      <trkpt lat="47.4941" lon="6.71894">
        <ele>435</ele>
        <time>2015-08-20T12:39:22.000Z</time>
      </trkpt>
      <trkpt lat="47.4941" lon="6.71889">
        <ele>435</ele>
        <time>2015-08-20T12:39:25.000Z</time>
      </trkpt>
      <trkpt lat="47.4941" lon="6.71886">
        <ele>435</ele>
        <time>2015-08-20T12:39:26.000Z</time>
      </trkpt>
      <trkpt lat="47.4941" lon="6.71883">
        <ele>435</ele>
        <time>2015-08-20T12:39:28.000Z</time>
      </trkpt>
      <trkpt lat="47.49411" lon="6.71879">
        <ele>435</ele>
        <time>2015-08-20T12:39:29.000Z</time>
      </trkpt>
      <trkpt lat="47.49412" lon="6.71876">
        <ele>435</ele>
        <time>2015-08-20T12:39:30.000Z</time>
      </trkpt>
      <trkpt lat="47.49413" lon="6.71873">
        <ele>435</ele>
        <time>2015-08-20T12:39:31.000Z</time>
      </trkpt>
      <trkpt lat="47.49416" lon="6.71868">
        <ele>435</ele>
        <time>2015-08-20T12:39:33.000Z</time>
      </trkpt>
      <trkpt lat="47.49418" lon="6.71865">
        <ele>435</ele>
        <time>2015-08-20T12:39:34.000Z</time>
      </trkpt>
      <trkpt lat="47.4942" lon="6.71861">
        <ele>435</ele>
        <time>2015-08-20T12:39:36.000Z</time>
      </trkpt>
      <trkpt lat="47.49421" lon="6.71857">
        <ele>436</ele>
        <time>2015-08-20T12:39:37.000Z</time>
      </trkpt>
      <trkpt lat="47.49422" lon="6.71853">
        <ele>436</ele>
        <time>2015-08-20T12:39:38.000Z</time>
      </trkpt>
      <trkpt lat="47.49422" lon="6.7185">
        <ele>436</ele>
        <time>2015-08-20T12:39:39.000Z</time>
      </trkpt>
      <trkpt lat="47.49423" lon="6.71846">
        <ele>436</ele>
        <time>2015-08-20T12:39:40.000Z</time>
      </trkpt>
      <trkpt lat="47.49423" lon="6.71842">
        <ele>437</ele>
        <time>2015-08-20T12:39:41.000Z</time>
      </trkpt>
      <trkpt lat="47.49423" lon="6.71837">
        <ele>437</ele>
        <time>2015-08-20T12:39:42.000Z</time>
      </trkpt>
      <trkpt lat="47.49422" lon="6.71833">
        <ele>438</ele>
        <time>2015-08-20T12:39:43.000Z</time>
      </trkpt>
      <trkpt lat="47.49423" lon="6.71829">
        <ele>439</ele>
        <time>2015-08-20T12:39:44.000Z</time>
      </trkpt>
      <trkpt lat="47.49424" lon="6.71826">
        <ele>439</ele>
        <time>2015-08-20T12:39:45.000Z</time>
      </trkpt>
      <trkpt lat="47.49425" lon="6.71822">
        <ele>439</ele>
        <time>2015-08-20T12:39:46.000Z</time>
      </trkpt>
      <trkpt lat="47.49426" lon="6.71818">
        <ele>439</ele>
        <time>2015-08-20T12:39:47.000Z</time>
      </trkpt>
      <trkpt lat="47.49426" lon="6.71814">
        <ele>440</ele>
        <time>2015-08-20T12:39:48.000Z</time>
      </trkpt>
      <trkpt lat="47.49426" lon="6.71811">
        <ele>440</ele>
        <time>2015-08-20T12:39:49.000Z</time>
      </trkpt>
      <trkpt lat="47.49426" lon="6.71805">
        <ele>440</ele>
        <time>2015-08-20T12:39:51.000Z</time>
      </trkpt>
      <trkpt lat="47.49426" lon="6.71801">
        <ele>440</ele>
        <time>2015-08-20T12:39:52.000Z</time>
      </trkpt>
      <trkpt lat="47.49426" lon="6.71797">
        <ele>441</ele>
        <time>2015-08-20T12:39:53.000Z</time>
      </trkpt>
      <trkpt lat="47.49427" lon="6.71793">
        <ele>441</ele>
        <time>2015-08-20T12:39:54.000Z</time>
      </trkpt>
      <trkpt lat="47.49427" lon="6.71789">
        <ele>441</ele>
        <time>2015-08-20T12:39:55.000Z</time>
      </trkpt>
      <trkpt lat="47.49428" lon="6.71785">
        <ele>441</ele>
        <time>2015-08-20T12:39:56.000Z</time>
      </trkpt>
      <trkpt lat="47.4943" lon="6.71779">
        <ele>442</ele>
        <time>2015-08-20T12:39:58.000Z</time>
      </trkpt>
      <trkpt lat="47.4943" lon="6.71776">
        <ele>442</ele>
        <time>2015-08-20T12:39:59.000Z</time>
      </trkpt>
      <trkpt lat="47.49429" lon="6.71772">
        <ele>442</ele>
        <time>2015-08-20T12:40:01.000Z</time>
      </trkpt>
      <trkpt lat="47.49429" lon="6.71768">
        <ele>443</ele>
        <time>2015-08-20T12:40:02.000Z</time>
      </trkpt>
      <trkpt lat="47.49428" lon="6.71763">
        <ele>443</ele>
        <time>2015-08-20T12:40:04.000Z</time>
      </trkpt>
      <trkpt lat="47.49427" lon="6.71759">
        <ele>444</ele>
        <time>2015-08-20T12:40:05.000Z</time>
      </trkpt>
      <trkpt lat="47.49426" lon="6.71754">
        <ele>444</ele>
        <time>2015-08-20T12:40:07.000Z</time>
      </trkpt>
      <trkpt lat="47.49425" lon="6.71751">
        <ele>445</ele>
        <time>2015-08-20T12:40:08.000Z</time>
      </trkpt>
      <trkpt lat="47.49425" lon="6.71747">
        <ele>446</ele>
        <time>2015-08-20T12:40:09.000Z</time>
      </trkpt>
      <trkpt lat="47.49425" lon="6.71742">
        <ele>447</ele>
        <time>2015-08-20T12:40:10.000Z</time>
      </trkpt>
      <trkpt lat="47.49425" lon="6.71739">
        <ele>447</ele>
        <time>2015-08-20T12:40:11.000Z</time>
      </trkpt>
      <trkpt lat="47.49425" lon="6.71735">
        <ele>447</ele>
        <time>2015-08-20T12:40:12.000Z</time>
      </trkpt>
      <trkpt lat="47.49425" lon="6.71728">
        <ele>447</ele>
        <time>2015-08-20T12:40:14.000Z</time>
      </trkpt>
      <trkpt lat="47.49425" lon="6.71725">
        <ele>447</ele>
        <time>2015-08-20T12:40:15.000Z</time>
      </trkpt>
      <trkpt lat="47.49426" lon="6.71719">
        <ele>448</ele>
        <time>2015-08-20T12:40:17.000Z</time>
      </trkpt>
      <trkpt lat="47.49426" lon="6.71716">
        <ele>448</ele>
        <time>2015-08-20T12:40:18.000Z</time>
      </trkpt>
      <trkpt lat="47.49426" lon="6.7171">
        <ele>448</ele>
        <time>2015-08-20T12:40:20.000Z</time>
      </trkpt>
      <trkpt lat="47.49426" lon="6.71707">
        <ele>448</ele>
        <time>2015-08-20T12:40:21.000Z</time>
      </trkpt>
      <trkpt lat="47.49425" lon="6.71703">
        <ele>448</ele>
        <time>2015-08-20T12:40:23.000Z</time>
      </trkpt>
      <trkpt lat="47.49424" lon="6.717">
        <ele>448</ele>
        <time>2015-08-20T12:40:24.000Z</time>
      </trkpt>
      <trkpt lat="47.49425" lon="6.71694">
        <ele>449</ele>
        <time>2015-08-20T12:40:27.000Z</time>
      </trkpt>
      <trkpt lat="47.49427" lon="6.71691">
        <ele>449</ele>
        <time>2015-08-20T12:40:28.000Z</time>
      </trkpt>
      <trkpt lat="47.49428" lon="6.71688">
        <ele>449</ele>
        <time>2015-08-20T12:40:29.000Z</time>
      </trkpt>
      <trkpt lat="47.49429" lon="6.71684">
        <ele>449</ele>
        <time>2015-08-20T12:40:30.000Z</time>
      </trkpt>
      <trkpt lat="47.49429" lon="6.71679">
        <ele>449</ele>
        <time>2015-08-20T12:40:31.000Z</time>
      </trkpt>
      <trkpt lat="47.49429" lon="6.71675">
        <ele>450</ele>
        <time>2015-08-20T12:40:32.000Z</time>
      </trkpt>
      <trkpt lat="47.4943" lon="6.71672">
        <ele>450</ele>
        <time>2015-08-20T12:40:33.000Z</time>
      </trkpt>
      <trkpt lat="47.4943" lon="6.71668">
        <ele>450</ele>
        <time>2015-08-20T12:40:34.000Z</time>
      </trkpt>
      <trkpt lat="47.4943" lon="6.71664">
        <ele>451</ele>
        <time>2015-08-20T12:40:35.000Z</time>
      </trkpt>
      <trkpt lat="47.49431" lon="6.71659">
        <ele>451</ele>
        <time>2015-08-20T12:40:36.000Z</time>
      </trkpt>
      <trkpt lat="47.49431" lon="6.71655">
        <ele>451</ele>
        <time>2015-08-20T12:40:37.000Z</time>
      </trkpt>
      <trkpt lat="47.49431" lon="6.71652">
        <ele>451</ele>
        <time>2015-08-20T12:40:38.000Z</time>
      </trkpt>
      <trkpt lat="47.49432" lon="6.71648">
        <ele>451</ele>
        <time>2015-08-20T12:40:39.000Z</time>
      </trkpt>
      <trkpt lat="47.49432" lon="6.71644">
        <ele>451</ele>
        <time>2015-08-20T12:40:40.000Z</time>
      </trkpt>
      <trkpt lat="47.49432" lon="6.7164">
        <ele>451</ele>
        <time>2015-08-20T12:40:41.000Z</time>
      </trkpt>
      <trkpt lat="47.49432" lon="6.71637">
        <ele>452</ele>
        <time>2015-08-20T12:40:42.000Z</time>
      </trkpt>
      <trkpt lat="47.49432" lon="6.7163">
        <ele>452</ele>
        <time>2015-08-20T12:40:44.000Z</time>
      </trkpt>
      <trkpt lat="47.49432" lon="6.71627">
        <ele>452</ele>
        <time>2015-08-20T12:40:45.000Z</time>
      </trkpt>
      <trkpt lat="47.49432" lon="6.71621">
        <ele>452</ele>
        <time>2015-08-20T12:40:47.000Z</time>
      </trkpt>
      <trkpt lat="47.49432" lon="6.71618">
        <ele>452</ele>
        <time>2015-08-20T12:40:48.000Z</time>
      </trkpt>
      <trkpt lat="47.49431" lon="6.71612">
        <ele>452</ele>
        <time>2015-08-20T12:40:50.000Z</time>
      </trkpt>
      <trkpt lat="47.49432" lon="6.71609">
        <ele>452</ele>
        <time>2015-08-20T12:40:51.000Z</time>
      </trkpt>
      <trkpt lat="47.49432" lon="6.71606">
        <ele>452</ele>
        <time>2015-08-20T12:40:52.000Z</time>
      </trkpt>
      <trkpt lat="47.49432" lon="6.71602">
        <ele>452</ele>
        <time>2015-08-20T12:40:53.000Z</time>
      </trkpt>
      <trkpt lat="47.49432" lon="6.71598">
        <ele>453</ele>
        <time>2015-08-20T12:40:54.000Z</time>
      </trkpt>
      <trkpt lat="47.49431" lon="6.71595">
        <ele>453</ele>
        <time>2015-08-20T12:40:55.000Z</time>
      </trkpt>
      <trkpt lat="47.49431" lon="6.71591">
        <ele>453</ele>
        <time>2015-08-20T12:40:56.000Z</time>
      </trkpt>
      <trkpt lat="47.49431" lon="6.71587">
        <ele>453</ele>
        <time>2015-08-20T12:40:57.000Z</time>
      </trkpt>
      <trkpt lat="47.4943" lon="6.71583">
        <ele>454</ele>
        <time>2015-08-20T12:40:58.000Z</time>
      </trkpt>
      <trkpt lat="47.4943" lon="6.71579">
        <ele>454</ele>
        <time>2015-08-20T12:40:59.000Z</time>
      </trkpt>
      <trkpt lat="47.4943" lon="6.71575">
        <ele>454</ele>
        <time>2015-08-20T12:41:00.000Z</time>
      </trkpt>
      <trkpt lat="47.4943" lon="6.71572">
        <ele>454</ele>
        <time>2015-08-20T12:41:01.000Z</time>
      </trkpt>
      <trkpt lat="47.4943" lon="6.71565">
        <ele>454</ele>
        <time>2015-08-20T12:41:03.000Z</time>
      </trkpt>
      <trkpt lat="47.4943" lon="6.71562">
        <ele>454</ele>
        <time>2015-08-20T12:41:04.000Z</time>
      </trkpt>
      <trkpt lat="47.4943" lon="6.71557">
        <ele>454</ele>
        <time>2015-08-20T12:41:05.000Z</time>
      </trkpt>
      <trkpt lat="47.4943" lon="6.71553">
        <ele>454</ele>
        <time>2015-08-20T12:41:06.000Z</time>
      </trkpt>
      <trkpt lat="47.49429" lon="6.71549">
        <ele>455</ele>
        <time>2015-08-20T12:41:07.000Z</time>
      </trkpt>
      <trkpt lat="47.49429" lon="6.71544">
        <ele>455</ele>
        <time>2015-08-20T12:41:08.000Z</time>
      </trkpt>
      <trkpt lat="47.49428" lon="6.7154">
        <ele>455</ele>
        <time>2015-08-20T12:41:09.000Z</time>
      </trkpt>
      <trkpt lat="47.49428" lon="6.71536">
        <ele>455</ele>
        <time>2015-08-20T12:41:10.000Z</time>
      </trkpt>
      <trkpt lat="47.49428" lon="6.7153">
        <ele>455</ele>
        <time>2015-08-20T12:41:12.000Z</time>
      </trkpt>
      <trkpt lat="47.49428" lon="6.71528">
        <ele>455</ele>
        <time>2015-08-20T12:41:13.000Z</time>
      </trkpt>
      <trkpt lat="47.49429" lon="6.71523">
        <ele>456</ele>
        <time>2015-08-20T12:41:15.000Z</time>
      </trkpt>
      <trkpt lat="47.49429" lon="6.7152">
        <ele>456</ele>
        <time>2015-08-20T12:41:16.000Z</time>
      </trkpt>
      <trkpt lat="47.4943" lon="6.71517">
        <ele>456</ele>
        <time>2015-08-20T12:41:17.000Z</time>
      </trkpt>
      <trkpt lat="47.4943" lon="6.71513">
        <ele>456</ele>
        <time>2015-08-20T12:41:18.000Z</time>
      </trkpt>
      <trkpt lat="47.4943" lon="6.71509">
        <ele>456</ele>
        <time>2015-08-20T12:41:19.000Z</time>
      </trkpt>
      <trkpt lat="47.4943" lon="6.71503">
        <ele>456</ele>
        <time>2015-08-20T12:41:20.000Z</time>
      </trkpt>
      <trkpt lat="47.4943" lon="6.71497">
        <ele>457</ele>
        <time>2015-08-20T12:41:21.000Z</time>
      </trkpt>
      <trkpt lat="47.49429" lon="6.71491">
        <ele>457</ele>
        <time>2015-08-20T12:41:22.000Z</time>
      </trkpt>
      <trkpt lat="47.49429" lon="6.71485">
        <ele>457</ele>
        <time>2015-08-20T12:41:23.000Z</time>
      </trkpt>
      <trkpt lat="47.49428" lon="6.7148">
        <ele>457</ele>
        <time>2015-08-20T12:41:24.000Z</time>
      </trkpt>
      <trkpt lat="47.49428" lon="6.71476">
        <ele>457</ele>
        <time>2015-08-20T12:41:25.000Z</time>
      </trkpt>
      <trkpt lat="47.49428" lon="6.71471">
        <ele>457</ele>
        <time>2015-08-20T12:41:26.000Z</time>
      </trkpt>
      <trkpt lat="47.49427" lon="6.71467">
        <ele>457</ele>
        <time>2015-08-20T12:41:27.000Z</time>
      </trkpt>
      <trkpt lat="47.49427" lon="6.71463">
        <ele>457</ele>
        <time>2015-08-20T12:41:28.000Z</time>
      </trkpt>
      <trkpt lat="47.49426" lon="6.71459">
        <ele>457</ele>
        <time>2015-08-20T12:41:29.000Z</time>
      </trkpt>
      <trkpt lat="47.49426" lon="6.71455">
        <ele>457</ele>
        <time>2015-08-20T12:41:30.000Z</time>
      </trkpt>
      <trkpt lat="47.49426" lon="6.71451">
        <ele>457</ele>
        <time>2015-08-20T12:41:31.000Z</time>
      </trkpt>
      <trkpt lat="47.49425" lon="6.71447">
        <ele>457</ele>
        <time>2015-08-20T12:41:32.000Z</time>
      </trkpt>
      <trkpt lat="47.49425" lon="6.71442">
        <ele>457</ele>
        <time>2015-08-20T12:41:33.000Z</time>
      </trkpt>
      <trkpt lat="47.49425" lon="6.71438">
        <ele>457</ele>
        <time>2015-08-20T12:41:34.000Z</time>
      </trkpt>
      <trkpt lat="47.49425" lon="6.71434">
        <ele>458</ele>
        <time>2015-08-20T12:41:35.000Z</time>
      </trkpt>
      <trkpt lat="47.49425" lon="6.7143">
        <ele>458</ele>
        <time>2015-08-20T12:41:36.000Z</time>
      </trkpt>
      <trkpt lat="47.49424" lon="6.71424">
        <ele>458</ele>
        <time>2015-08-20T12:41:37.000Z</time>
      </trkpt>
      <trkpt lat="47.49424" lon="6.71418">
        <ele>458</ele>
        <time>2015-08-20T12:41:38.000Z</time>
      </trkpt>
      <trkpt lat="47.49423" lon="6.7141">
        <ele>459</ele>
        <time>2015-08-20T12:41:39.000Z</time>
      </trkpt>
      <trkpt lat="47.49423" lon="6.71403">
        <ele>459</ele>
        <time>2015-08-20T12:41:40.000Z</time>
      </trkpt>
      <trkpt lat="47.49423" lon="6.71395">
        <ele>459</ele>
        <time>2015-08-20T12:41:41.000Z</time>
      </trkpt>
      <trkpt lat="47.49422" lon="6.71388">
        <ele>459</ele>
        <time>2015-08-20T12:41:42.000Z</time>
      </trkpt>
      <trkpt lat="47.49422" lon="6.71382">
        <ele>460</ele>
        <time>2015-08-20T12:41:43.000Z</time>
      </trkpt>
      <trkpt lat="47.49422" lon="6.71376">
        <ele>460</ele>
        <time>2015-08-20T12:41:44.000Z</time>
      </trkpt>
      <trkpt lat="47.49421" lon="6.71371">
        <ele>460</ele>
        <time>2015-08-20T12:41:45.000Z</time>
      </trkpt>
      <trkpt lat="47.4942" lon="6.71366">
        <ele>460</ele>
        <time>2015-08-20T12:41:46.000Z</time>
      </trkpt>
      <trkpt lat="47.49419" lon="6.71361">
        <ele>460</ele>
        <time>2015-08-20T12:41:47.000Z</time>
      </trkpt>
      <trkpt lat="47.49419" lon="6.71356">
        <ele>461</ele>
        <time>2015-08-20T12:41:48.000Z</time>
      </trkpt>
      <trkpt lat="47.49418" lon="6.7135">
        <ele>461</ele>
        <time>2015-08-20T12:41:49.000Z</time>
      </trkpt>
      <trkpt lat="47.49417" lon="6.71344">
        <ele>461</ele>
        <time>2015-08-20T12:41:50.000Z</time>
      </trkpt>
      <trkpt lat="47.49417" lon="6.71338">
        <ele>462</ele>
        <time>2015-08-20T12:41:51.000Z</time>
      </trkpt>
      <trkpt lat="47.49416" lon="6.71333">
        <ele>462</ele>
        <time>2015-08-20T12:41:52.000Z</time>
      </trkpt>
      <trkpt lat="47.49415" lon="6.71328">
        <ele>461</ele>
        <time>2015-08-20T12:41:53.000Z</time>
      </trkpt>
      <trkpt lat="47.49415" lon="6.71324">
        <ele>461</ele>
        <time>2015-08-20T12:41:54.000Z</time>
      </trkpt>
      <trkpt lat="47.49414" lon="6.7132">
        <ele>461</ele>
        <time>2015-08-20T12:41:55.000Z</time>
      </trkpt>
      <trkpt lat="47.49413" lon="6.71314">
        <ele>460</ele>
        <time>2015-08-20T12:41:56.000Z</time>
      </trkpt>
      <trkpt lat="47.49412" lon="6.71309">
        <ele>460</ele>
        <time>2015-08-20T12:41:57.000Z</time>
      </trkpt>
      <trkpt lat="47.49412" lon="6.71303">
        <ele>460</ele>
        <time>2015-08-20T12:41:58.000Z</time>
      </trkpt>
      <trkpt lat="47.49412" lon="6.71298">
        <ele>460</ele>
        <time>2015-08-20T12:41:59.000Z</time>
      </trkpt>
      <trkpt lat="47.49412" lon="6.71294">
        <ele>460</ele>
        <time>2015-08-20T12:42:00.000Z</time>
      </trkpt>
      <trkpt lat="47.49411" lon="6.7129">
        <ele>460</ele>
        <time>2015-08-20T12:42:01.000Z</time>
      </trkpt>
      <trkpt lat="47.4941" lon="6.71285">
        <ele>460</ele>
        <time>2015-08-20T12:42:02.000Z</time>
      </trkpt>
      <trkpt lat="47.49408" lon="6.7128">
        <ele>460</ele>
        <time>2015-08-20T12:42:03.000Z</time>
      </trkpt>
      <trkpt lat="47.49407" lon="6.71276">
        <ele>461</ele>
        <time>2015-08-20T12:42:04.000Z</time>
      </trkpt>
      <trkpt lat="47.49405" lon="6.71271">
        <ele>461</ele>
        <time>2015-08-20T12:42:05.000Z</time>
      </trkpt>
      <trkpt lat="47.49405" lon="6.71267">
        <ele>461</ele>
        <time>2015-08-20T12:42:06.000Z</time>
      </trkpt>
      <trkpt lat="47.49405" lon="6.71263">
        <ele>462</ele>
        <time>2015-08-20T12:42:07.000Z</time>
      </trkpt>
      <trkpt lat="47.49404" lon="6.71259">
        <ele>462</ele>
        <time>2015-08-20T12:42:08.000Z</time>
      </trkpt>
      <trkpt lat="47.49403" lon="6.71256">
        <ele>462</ele>
        <time>2015-08-20T12:42:09.000Z</time>
      </trkpt>
      <trkpt lat="47.49401" lon="6.71253">
        <ele>462</ele>
        <time>2015-08-20T12:42:10.000Z</time>
      </trkpt>
      <trkpt lat="47.49399" lon="6.71248">
        <ele>463</ele>
        <time>2015-08-20T12:42:11.000Z</time>
      </trkpt>
      <trkpt lat="47.49398" lon="6.71244">
        <ele>462</ele>
        <time>2015-08-20T12:42:12.000Z</time>
      </trkpt>
      <trkpt lat="47.49397" lon="6.71238">
        <ele>462</ele>
        <time>2015-08-20T12:42:13.000Z</time>
      </trkpt>
      <trkpt lat="47.49395" lon="6.71232">
        <ele>462</ele>
        <time>2015-08-20T12:42:14.000Z</time>
      </trkpt>
      <trkpt lat="47.49393" lon="6.71226">
        <ele>462</ele>
        <time>2015-08-20T12:42:15.000Z</time>
      </trkpt>
      <trkpt lat="47.49392" lon="6.71221">
        <ele>461</ele>
        <time>2015-08-20T12:42:16.000Z</time>
      </trkpt>
      <trkpt lat="47.49391" lon="6.71217">
        <ele>461</ele>
        <time>2015-08-20T12:42:17.000Z</time>
      </trkpt>
      <trkpt lat="47.4939" lon="6.71214">
        <ele>461</ele>
        <time>2015-08-20T12:42:18.000Z</time>
      </trkpt>
      <trkpt lat="47.49389" lon="6.7121">
        <ele>461</ele>
        <time>2015-08-20T12:42:19.000Z</time>
      </trkpt>
      <trkpt lat="47.49389" lon="6.71206">
        <ele>461</ele>
        <time>2015-08-20T12:42:20.000Z</time>
      </trkpt>
      <trkpt lat="47.49389" lon="6.71202">
        <ele>461</ele>
        <time>2015-08-20T12:42:21.000Z</time>
      </trkpt>
      <trkpt lat="47.49389" lon="6.71197">
        <ele>461</ele>
        <time>2015-08-20T12:42:22.000Z</time>
      </trkpt>
      <trkpt lat="47.49388" lon="6.71192">
        <ele>462</ele>
        <time>2015-08-20T12:42:23.000Z</time>
      </trkpt>
      <trkpt lat="47.49388" lon="6.71187">
        <ele>462</ele>
        <time>2015-08-20T12:42:24.000Z</time>
      </trkpt>
      <trkpt lat="47.49388" lon="6.71183">
        <ele>462</ele>
        <time>2015-08-20T12:42:25.000Z</time>
      </trkpt>
      <trkpt lat="47.49387" lon="6.71179">
        <ele>462</ele>
        <time>2015-08-20T12:42:26.000Z</time>
      </trkpt>
      <trkpt lat="47.49387" lon="6.71175">
        <ele>462</ele>
        <time>2015-08-20T12:42:27.000Z</time>
      </trkpt>
      <trkpt lat="47.49386" lon="6.7117">
        <ele>462</ele>
        <time>2015-08-20T12:42:28.000Z</time>
      </trkpt>
      <trkpt lat="47.49386" lon="6.71167">
        <ele>462</ele>
        <time>2015-08-20T12:42:29.000Z</time>
      </trkpt>
      <trkpt lat="47.49386" lon="6.71164">
        <ele>462</ele>
        <time>2015-08-20T12:42:30.000Z</time>
      </trkpt>
      <trkpt lat="47.49384" lon="6.7116">
        <ele>461</ele>
        <time>2015-08-20T12:42:32.000Z</time>
      </trkpt>
      <trkpt lat="47.49382" lon="6.7116">
        <ele>461</ele>
        <time>2015-08-20T12:42:33.000Z</time>
      </trkpt>
      <trkpt lat="47.49379" lon="6.71159">
        <ele>461</ele>
        <time>2015-08-20T12:42:35.000Z</time>
      </trkpt>
      <trkpt lat="47.49377" lon="6.71159">
        <ele>461</ele>
        <time>2015-08-20T12:42:36.000Z</time>
      </trkpt>
      <trkpt lat="47.49373" lon="6.71159">
        <ele>460</ele>
        <time>2015-08-20T12:42:40.000Z</time>
      </trkpt>
      <trkpt lat="47.49373" lon="6.71159">
        <ele>460</ele>
        <time>2015-08-20T12:42:41.000Z</time>
      </trkpt>
      <trkpt lat="47.49369" lon="6.71162">
        <ele>460</ele>
        <time>2015-08-20T12:42:49.000Z</time>
      </trkpt>
      <trkpt lat="47.49368" lon="6.71162">
        <ele>460</ele>
        <time>2015-08-20T12:42:50.000Z</time>
      </trkpt>
      <trkpt lat="47.49364" lon="6.7116">
        <ele>460</ele>
        <time>2015-08-20T12:45:22.000Z</time>
      </trkpt>
      <trkpt lat="47.49364" lon="6.71158">
        <ele>460</ele>
        <time>2015-08-20T12:45:23.000Z</time>
      </trkpt>
      <trkpt lat="47.49362" lon="6.71153">
        <ele>460</ele>
        <time>2015-08-20T12:45:25.000Z</time>
      </trkpt>
      <trkpt lat="47.49361" lon="6.7115">
        <ele>460</ele>
        <time>2015-08-20T12:45:26.000Z</time>
      </trkpt>
      <trkpt lat="47.4936" lon="6.71146">
        <ele>460</ele>
        <time>2015-08-20T12:45:27.000Z</time>
      </trkpt>
      <trkpt lat="47.49359" lon="6.71139">
        <ele>460</ele>
        <time>2015-08-20T12:45:29.000Z</time>
      </trkpt>
      <trkpt lat="47.49359" lon="6.71133">
        <ele>460</ele>
        <time>2015-08-20T12:45:31.000Z</time>
      </trkpt>
      <trkpt lat="47.49358" lon="6.7113">
        <ele>460</ele>
        <time>2015-08-20T12:45:32.000Z</time>
      </trkpt>
      <trkpt lat="47.49359" lon="6.71127">
        <ele>460</ele>
        <time>2015-08-20T12:45:33.000Z</time>
      </trkpt>
      <trkpt lat="47.49358" lon="6.71123">
        <ele>460</ele>
        <time>2015-08-20T12:45:34.000Z</time>
      </trkpt>
      <trkpt lat="47.49358" lon="6.71119">
        <ele>460</ele>
        <time>2015-08-20T12:45:35.000Z</time>
      </trkpt>
      <trkpt lat="47.49357" lon="6.71115">
        <ele>460</ele>
        <time>2015-08-20T12:45:36.000Z</time>
      </trkpt>
      <trkpt lat="47.49357" lon="6.71111">
        <ele>460</ele>
        <time>2015-08-20T12:45:37.000Z</time>
      </trkpt>
      <trkpt lat="47.49356" lon="6.71106">
        <ele>459</ele>
        <time>2015-08-20T12:45:38.000Z</time>
      </trkpt>
      <trkpt lat="47.49355" lon="6.711">
        <ele>459</ele>
        <time>2015-08-20T12:45:39.000Z</time>
      </trkpt>
      <trkpt lat="47.49354" lon="6.71095">
        <ele>459</ele>
        <time>2015-08-20T12:45:40.000Z</time>
      </trkpt>
      <trkpt lat="47.49354" lon="6.7109">
        <ele>459</ele>
        <time>2015-08-20T12:45:41.000Z</time>
      </trkpt>
      <trkpt lat="47.49353" lon="6.71085">
        <ele>459</ele>
        <time>2015-08-20T12:45:42.000Z</time>
      </trkpt>
      <trkpt lat="47.49352" lon="6.7108">
        <ele>459</ele>
        <time>2015-08-20T12:45:43.000Z</time>
      </trkpt>
      <trkpt lat="47.49352" lon="6.71074">
        <ele>459</ele>
        <time>2015-08-20T12:45:44.000Z</time>
      </trkpt>
      <trkpt lat="47.49351" lon="6.71069">
        <ele>459</ele>
        <time>2015-08-20T12:45:45.000Z</time>
      </trkpt>
      <trkpt lat="47.49349" lon="6.71063">
        <ele>459</ele>
        <time>2015-08-20T12:45:46.000Z</time>
      </trkpt>
      <trkpt lat="47.49347" lon="6.71057">
        <ele>459</ele>
        <time>2015-08-20T12:45:47.000Z</time>
      </trkpt>
      <trkpt lat="47.49345" lon="6.71051">
        <ele>459</ele>
        <time>2015-08-20T12:45:48.000Z</time>
      </trkpt>
      <trkpt lat="47.49342" lon="6.71046">
        <ele>459</ele>
        <time>2015-08-20T12:45:49.000Z</time>
      </trkpt>
      <trkpt lat="47.4934" lon="6.71041">
        <ele>459</ele>
        <time>2015-08-20T12:45:50.000Z</time>
      </trkpt>
      <trkpt lat="47.49338" lon="6.71036">
        <ele>459</ele>
        <time>2015-08-20T12:45:51.000Z</time>
      </trkpt>
      <trkpt lat="47.49335" lon="6.7103">
        <ele>459</ele>
        <time>2015-08-20T12:45:52.000Z</time>
      </trkpt>
      <trkpt lat="47.49332" lon="6.71024">
        <ele>456</ele>
        <time>2015-08-20T12:45:53.000Z</time>
      </trkpt>
      <trkpt lat="47.4933" lon="6.71019">
        <ele>456</ele>
        <time>2015-08-20T12:45:54.000Z</time>
      </trkpt>
      <trkpt lat="47.49328" lon="6.71014">
        <ele>456</ele>
        <time>2015-08-20T12:45:55.000Z</time>
      </trkpt>
      <trkpt lat="47.49327" lon="6.7101">
        <ele>457</ele>
        <time>2015-08-20T12:45:56.000Z</time>
      </trkpt>
      <trkpt lat="47.49327" lon="6.71005">
        <ele>457</ele>
        <time>2015-08-20T12:45:57.000Z</time>
      </trkpt>
      <trkpt lat="47.49327" lon="6.71">
        <ele>458</ele>
        <time>2015-08-20T12:45:58.000Z</time>
      </trkpt>
      <trkpt lat="47.49327" lon="6.70994">
        <ele>458</ele>
        <time>2015-08-20T12:45:59.000Z</time>
      </trkpt>
      <trkpt lat="47.49327" lon="6.70989">
        <ele>457</ele>
        <time>2015-08-20T12:46:00.000Z</time>
      </trkpt>
      <trkpt lat="47.49325" lon="6.70984">
        <ele>457</ele>
        <time>2015-08-20T12:46:01.000Z</time>
      </trkpt>
      <trkpt lat="47.49323" lon="6.7098">
        <ele>456</ele>
        <time>2015-08-20T12:46:02.000Z</time>
      </trkpt>
      <trkpt lat="47.49321" lon="6.70975">
        <ele>456</ele>
        <time>2015-08-20T12:46:03.000Z</time>
      </trkpt>
      <trkpt lat="47.4932" lon="6.7097">
        <ele>456</ele>
        <time>2015-08-20T12:46:04.000Z</time>
      </trkpt>
      <trkpt lat="47.49319" lon="6.70964">
        <ele>456</ele>
        <time>2015-08-20T12:46:05.000Z</time>
      </trkpt>
      <trkpt lat="47.49318" lon="6.70959">
        <ele>456</ele>
        <time>2015-08-20T12:46:06.000Z</time>
      </trkpt>
      <trkpt lat="47.49316" lon="6.70954">
        <ele>456</ele>
        <time>2015-08-20T12:46:07.000Z</time>
      </trkpt>
      <trkpt lat="47.49315" lon="6.7095">
        <ele>456</ele>
        <time>2015-08-20T12:46:08.000Z</time>
      </trkpt>
      <trkpt lat="47.49314" lon="6.70946">
        <ele>456</ele>
        <time>2015-08-20T12:46:09.000Z</time>
      </trkpt>
      <trkpt lat="47.49312" lon="6.70942">
        <ele>456</ele>
        <time>2015-08-20T12:46:10.000Z</time>
      </trkpt>
      <trkpt lat="47.4931" lon="6.70937">
        <ele>456</ele>
        <time>2015-08-20T12:46:11.000Z</time>
      </trkpt>
      <trkpt lat="47.49308" lon="6.70933">
        <ele>456</ele>
        <time>2015-08-20T12:46:12.000Z</time>
      </trkpt>
      <trkpt lat="47.49305" lon="6.70928">
        <ele>456</ele>
        <time>2015-08-20T12:46:13.000Z</time>
      </trkpt>
      <trkpt lat="47.49302" lon="6.70922">
        <ele>456</ele>
        <time>2015-08-20T12:46:14.000Z</time>
      </trkpt>
      <trkpt lat="47.49298" lon="6.70916">
        <ele>456</ele>
        <time>2015-08-20T12:46:15.000Z</time>
      </trkpt>
      <trkpt lat="47.49294" lon="6.7091">
        <ele>455</ele>
        <time>2015-08-20T12:46:16.000Z</time>
      </trkpt>
      <trkpt lat="47.4929" lon="6.70906">
        <ele>455</ele>
        <time>2015-08-20T12:46:17.000Z</time>
      </trkpt>
      <trkpt lat="47.49287" lon="6.70902">
        <ele>455</ele>
        <time>2015-08-20T12:46:18.000Z</time>
      </trkpt>
      <trkpt lat="47.49284" lon="6.70898">
        <ele>455</ele>
        <time>2015-08-20T12:46:19.000Z</time>
      </trkpt>
      <trkpt lat="47.4928" lon="6.70894">
        <ele>455</ele>
        <time>2015-08-20T12:46:20.000Z</time>
      </trkpt>
      <trkpt lat="47.49277" lon="6.70891">
        <ele>455</ele>
        <time>2015-08-20T12:46:21.000Z</time>
      </trkpt>
      <trkpt lat="47.49275" lon="6.70887">
        <ele>455</ele>
        <time>2015-08-20T12:46:22.000Z</time>
      </trkpt>
      <trkpt lat="47.49272" lon="6.70883">
        <ele>455</ele>
        <time>2015-08-20T12:46:23.000Z</time>
      </trkpt>
      <trkpt lat="47.49268" lon="6.70879">
        <ele>455</ele>
        <time>2015-08-20T12:46:24.000Z</time>
      </trkpt>
      <trkpt lat="47.49266" lon="6.70875">
        <ele>455</ele>
        <time>2015-08-20T12:46:25.000Z</time>
      </trkpt>
      <trkpt lat="47.49262" lon="6.7087">
        <ele>455</ele>
        <time>2015-08-20T12:46:26.000Z</time>
      </trkpt>
      <trkpt lat="47.49259" lon="6.70865">
        <ele>455</ele>
        <time>2015-08-20T12:46:27.000Z</time>
      </trkpt>
      <trkpt lat="47.49256" lon="6.7086">
        <ele>455</ele>
        <time>2015-08-20T12:46:28.000Z</time>
      </trkpt>
      <trkpt lat="47.49253" lon="6.70854">
        <ele>454</ele>
        <time>2015-08-20T12:46:29.000Z</time>
      </trkpt>
      <trkpt lat="47.49249" lon="6.70849">
        <ele>452</ele>
        <time>2015-08-20T12:46:30.000Z</time>
      </trkpt>
      <trkpt lat="47.49246" lon="6.70844">
        <ele>452</ele>
        <time>2015-08-20T12:46:31.000Z</time>
      </trkpt>
      <trkpt lat="47.49243" lon="6.70839">
        <ele>453</ele>
        <time>2015-08-20T12:46:32.000Z</time>
      </trkpt>
      <trkpt lat="47.4924" lon="6.70835">
        <ele>453</ele>
        <time>2015-08-20T12:46:33.000Z</time>
      </trkpt>
      <trkpt lat="47.49238" lon="6.7083">
        <ele>453</ele>
        <time>2015-08-20T12:46:34.000Z</time>
      </trkpt>
      <trkpt lat="47.49235" lon="6.70825">
        <ele>453</ele>
        <time>2015-08-20T12:46:35.000Z</time>
      </trkpt>
      <trkpt lat="47.49232" lon="6.70821">
        <ele>453</ele>
        <time>2015-08-20T12:46:36.000Z</time>
      </trkpt>
      <trkpt lat="47.49229" lon="6.70816">
        <ele>453</ele>
        <time>2015-08-20T12:46:37.000Z</time>
      </trkpt>
      <trkpt lat="47.49226" lon="6.70811">
        <ele>453</ele>
        <time>2015-08-20T12:46:38.000Z</time>
      </trkpt>
      <trkpt lat="47.49223" lon="6.70806">
        <ele>453</ele>
        <time>2015-08-20T12:46:39.000Z</time>
      </trkpt>
      <trkpt lat="47.4922" lon="6.70801">
        <ele>453</ele>
        <time>2015-08-20T12:46:40.000Z</time>
      </trkpt>
      <trkpt lat="47.49216" lon="6.70796">
        <ele>453</ele>
        <time>2015-08-20T12:46:41.000Z</time>
      </trkpt>
      <trkpt lat="47.49213" lon="6.70791">
        <ele>453</ele>
        <time>2015-08-20T12:46:42.000Z</time>
      </trkpt>
      <trkpt lat="47.4921" lon="6.70786">
        <ele>453</ele>
        <time>2015-08-20T12:46:43.000Z</time>
      </trkpt>
      <trkpt lat="47.49207" lon="6.7078">
        <ele>453</ele>
        <time>2015-08-20T12:46:44.000Z</time>
      </trkpt>
      <trkpt lat="47.49205" lon="6.70774">
        <ele>453</ele>
        <time>2015-08-20T12:46:45.000Z</time>
      </trkpt>
      <trkpt lat="47.49202" lon="6.70768">
        <ele>453</ele>
        <time>2015-08-20T12:46:46.000Z</time>
      </trkpt>
      <trkpt lat="47.492" lon="6.70762">
        <ele>453</ele>
        <time>2015-08-20T12:46:47.000Z</time>
      </trkpt>
      <trkpt lat="47.49197" lon="6.70756">
        <ele>453</ele>
        <time>2015-08-20T12:46:48.000Z</time>
      </trkpt>
      <trkpt lat="47.49194" lon="6.70751">
        <ele>453</ele>
        <time>2015-08-20T12:46:49.000Z</time>
      </trkpt>
      <trkpt lat="47.49192" lon="6.70745">
        <ele>454</ele>
        <time>2015-08-20T12:46:50.000Z</time>
      </trkpt>
      <trkpt lat="47.49189" lon="6.7074">
        <ele>454</ele>
        <time>2015-08-20T12:46:51.000Z</time>
      </trkpt>
      <trkpt lat="47.49186" lon="6.70734">
        <ele>454</ele>
        <time>2015-08-20T12:46:52.000Z</time>
      </trkpt>
      <trkpt lat="47.49183" lon="6.70728">
        <ele>454</ele>
        <time>2015-08-20T12:46:53.000Z</time>
      </trkpt>
      <trkpt lat="47.49179" lon="6.70723">
        <ele>454</ele>
        <time>2015-08-20T12:46:54.000Z</time>
      </trkpt>
      <trkpt lat="47.49176" lon="6.70717">
        <ele>454</ele>
        <time>2015-08-20T12:46:55.000Z</time>
      </trkpt>
      <trkpt lat="47.49173" lon="6.70712">
        <ele>454</ele>
        <time>2015-08-20T12:46:56.000Z</time>
      </trkpt>
      <trkpt lat="47.4917" lon="6.70706">
        <ele>455</ele>
        <time>2015-08-20T12:46:57.000Z</time>
      </trkpt>
      <trkpt lat="47.49167" lon="6.70701">
        <ele>455</ele>
        <time>2015-08-20T12:46:58.000Z</time>
      </trkpt>
      <trkpt lat="47.49164" lon="6.70695">
        <ele>452</ele>
        <time>2015-08-20T12:46:59.000Z</time>
      </trkpt>
      <trkpt lat="47.49161" lon="6.70689">
        <ele>452</ele>
        <time>2015-08-20T12:47:00.000Z</time>
      </trkpt>
      <trkpt lat="47.49158" lon="6.70684">
        <ele>453</ele>
        <time>2015-08-20T12:47:01.000Z</time>
      </trkpt>
      <trkpt lat="47.49155" lon="6.70679">
        <ele>453</ele>
        <time>2015-08-20T12:47:02.000Z</time>
      </trkpt>
      <trkpt lat="47.49153" lon="6.70674">
        <ele>453</ele>
        <time>2015-08-20T12:47:03.000Z</time>
      </trkpt>
      <trkpt lat="47.4915" lon="6.7067">
        <ele>453</ele>
        <time>2015-08-20T12:47:04.000Z</time>
      </trkpt>
      <trkpt lat="47.49148" lon="6.70665">
        <ele>454</ele>
        <time>2015-08-20T12:47:05.000Z</time>
      </trkpt>
      <trkpt lat="47.49146" lon="6.7066">
        <ele>454</ele>
        <time>2015-08-20T12:47:06.000Z</time>
      </trkpt>
      <trkpt lat="47.49144" lon="6.70655">
        <ele>454</ele>
        <time>2015-08-20T12:47:07.000Z</time>
      </trkpt>
      <trkpt lat="47.49142" lon="6.7065">
        <ele>454</ele>
        <time>2015-08-20T12:47:08.000Z</time>
      </trkpt>
      <trkpt lat="47.49139" lon="6.70645">
        <ele>453</ele>
        <time>2015-08-20T12:47:09.000Z</time>
      </trkpt>
      <trkpt lat="47.49137" lon="6.7064">
        <ele>453</ele>
        <time>2015-08-20T12:47:10.000Z</time>
      </trkpt>
      <trkpt lat="47.49134" lon="6.70634">
        <ele>453</ele>
        <time>2015-08-20T12:47:11.000Z</time>
      </trkpt>
      <trkpt lat="47.49131" lon="6.70629">
        <ele>453</ele>
        <time>2015-08-20T12:47:12.000Z</time>
      </trkpt>
      <trkpt lat="47.49129" lon="6.70623">
        <ele>453</ele>
        <time>2015-08-20T12:47:13.000Z</time>
      </trkpt>
      <trkpt lat="47.49126" lon="6.70617">
        <ele>453</ele>
        <time>2015-08-20T12:47:14.000Z</time>
      </trkpt>
      <trkpt lat="47.49123" lon="6.70612">
        <ele>453</ele>
        <time>2015-08-20T12:47:15.000Z</time>
      </trkpt>
      <trkpt lat="47.49121" lon="6.70605">
        <ele>453</ele>
        <time>2015-08-20T12:47:16.000Z</time>
      </trkpt>
      <trkpt lat="47.49118" lon="6.70599">
        <ele>453</ele>
        <time>2015-08-20T12:47:17.000Z</time>
      </trkpt>
      <trkpt lat="47.49116" lon="6.70593">
        <ele>453</ele>
        <time>2015-08-20T12:47:18.000Z</time>
      </trkpt>
      <trkpt lat="47.49114" lon="6.70586">
        <ele>453</ele>
        <time>2015-08-20T12:47:19.000Z</time>
      </trkpt>
      <trkpt lat="47.49112" lon="6.70581">
        <ele>453</ele>
        <time>2015-08-20T12:47:20.000Z</time>
      </trkpt>
      <trkpt lat="47.4911" lon="6.70576">
        <ele>453</ele>
        <time>2015-08-20T12:47:21.000Z</time>
      </trkpt>
      <trkpt lat="47.49109" lon="6.70571">
        <ele>453</ele>
        <time>2015-08-20T12:47:22.000Z</time>
      </trkpt>
      <trkpt lat="47.49107" lon="6.70566">
        <ele>453</ele>
        <time>2015-08-20T12:47:23.000Z</time>
      </trkpt>
      <trkpt lat="47.49105" lon="6.7056">
        <ele>453</ele>
        <time>2015-08-20T12:47:24.000Z</time>
      </trkpt>
      <trkpt lat="47.49103" lon="6.70555">
        <ele>453</ele>
        <time>2015-08-20T12:47:25.000Z</time>
      </trkpt>
      <trkpt lat="47.49101" lon="6.7055">
        <ele>453</ele>
        <time>2015-08-20T12:47:26.000Z</time>
      </trkpt>
      <trkpt lat="47.49099" lon="6.70544">
        <ele>453</ele>
        <time>2015-08-20T12:47:27.000Z</time>
      </trkpt>
      <trkpt lat="47.49096" lon="6.70539">
        <ele>453</ele>
        <time>2015-08-20T12:47:28.000Z</time>
      </trkpt>
      <trkpt lat="47.49094" lon="6.70534">
        <ele>453</ele>
        <time>2015-08-20T12:47:29.000Z</time>
      </trkpt>
      <trkpt lat="47.49092" lon="6.70529">
        <ele>453</ele>
        <time>2015-08-20T12:47:30.000Z</time>
      </trkpt>
      <trkpt lat="47.49089" lon="6.70523">
        <ele>453</ele>
        <time>2015-08-20T12:47:31.000Z</time>
      </trkpt>
      <trkpt lat="47.49087" lon="6.70516">
        <ele>453</ele>
        <time>2015-08-20T12:47:32.000Z</time>
      </trkpt>
      <trkpt lat="47.49085" lon="6.70509">
        <ele>453</ele>
        <time>2015-08-20T12:47:33.000Z</time>
      </trkpt>
      <trkpt lat="47.49083" lon="6.70501">
        <ele>453</ele>
        <time>2015-08-20T12:47:34.000Z</time>
      </trkpt>
      <trkpt lat="47.49081" lon="6.70494">
        <ele>452</ele>
        <time>2015-08-20T12:47:35.000Z</time>
      </trkpt>
      <trkpt lat="47.49079" lon="6.70487">
        <ele>451</ele>
        <time>2015-08-20T12:47:36.000Z</time>
      </trkpt>
      <trkpt lat="47.49077" lon="6.70481">
        <ele>450</ele>
        <time>2015-08-20T12:47:37.000Z</time>
      </trkpt>
      <trkpt lat="47.49074" lon="6.70474">
        <ele>450</ele>
        <time>2015-08-20T12:47:38.000Z</time>
      </trkpt>
      <trkpt lat="47.49072" lon="6.70468">
        <ele>450</ele>
        <time>2015-08-20T12:47:39.000Z</time>
      </trkpt>
      <trkpt lat="47.4907" lon="6.70462">
        <ele>449</ele>
        <time>2015-08-20T12:47:40.000Z</time>
      </trkpt>
      <trkpt lat="47.49069" lon="6.70456">
        <ele>449</ele>
        <time>2015-08-20T12:47:41.000Z</time>
      </trkpt>
      <trkpt lat="47.49068" lon="6.70449">
        <ele>449</ele>
        <time>2015-08-20T12:47:42.000Z</time>
      </trkpt>
      <trkpt lat="47.49063" lon="6.70429">
        <ele>449</ele>
        <time>2015-08-20T12:47:43.000Z</time>
      </trkpt>
      <trkpt lat="47.49058" lon="6.70419">
        <ele>449</ele>
        <time>2015-08-20T12:47:44.000Z</time>
      </trkpt>
      <trkpt lat="47.49055" lon="6.70412">
        <ele>449</ele>
        <time>2015-08-20T12:47:45.000Z</time>
      </trkpt>
      <trkpt lat="47.49053" lon="6.70406">
        <ele>449</ele>
        <time>2015-08-20T12:47:46.000Z</time>
      </trkpt>
      <trkpt lat="47.49052" lon="6.70396">
        <ele>449</ele>
        <time>2015-08-20T12:47:47.000Z</time>
      </trkpt>
      <trkpt lat="47.4905" lon="6.70382">
        <ele>449</ele>
        <time>2015-08-20T12:47:48.000Z</time>
      </trkpt>
      <trkpt lat="47.49046" lon="6.70374">
        <ele>449</ele>
        <time>2015-08-20T12:47:49.000Z</time>
      </trkpt>
      <trkpt lat="47.49042" lon="6.70364">
        <ele>449</ele>
        <time>2015-08-20T12:47:50.000Z</time>
      </trkpt>
      <trkpt lat="47.49038" lon="6.7035">
        <ele>448</ele>
        <time>2015-08-20T12:47:51.000Z</time>
      </trkpt>
      <trkpt lat="47.49036" lon="6.70338">
        <ele>448</ele>
        <time>2015-08-20T12:47:52.000Z</time>
      </trkpt>
      <trkpt lat="47.49034" lon="6.70329">
        <ele>448</ele>
        <time>2015-08-20T12:47:53.000Z</time>
      </trkpt>
      <trkpt lat="47.49031" lon="6.70321">
        <ele>448</ele>
        <time>2015-08-20T12:47:54.000Z</time>
      </trkpt>
      <trkpt lat="47.49028" lon="6.70311">
        <ele>448</ele>
        <time>2015-08-20T12:47:55.000Z</time>
      </trkpt>
      <trkpt lat="47.4902" lon="6.70302">
        <ele>448</ele>
        <time>2015-08-20T12:47:56.000Z</time>
      </trkpt>
      <trkpt lat="47.49018" lon="6.70295">
        <ele>448</ele>
        <time>2015-08-20T12:47:57.000Z</time>
      </trkpt>
      <trkpt lat="47.49018" lon="6.70288">
        <ele>448</ele>
        <time>2015-08-20T12:47:58.000Z</time>
      </trkpt>
      <trkpt lat="47.49016" lon="6.70277">
        <ele>448</ele>
        <time>2015-08-20T12:47:59.000Z</time>
      </trkpt>
      <trkpt lat="47.49015" lon="6.70271">
        <ele>447</ele>
        <time>2015-08-20T12:48:00.000Z</time>
      </trkpt>
      <trkpt lat="47.49014" lon="6.70265">
        <ele>447</ele>
        <time>2015-08-20T12:48:01.000Z</time>
      </trkpt>
      <trkpt lat="47.49013" lon="6.70257">
        <ele>447</ele>
        <time>2015-08-20T12:48:02.000Z</time>
      </trkpt>
      <trkpt lat="47.49011" lon="6.70248">
        <ele>446</ele>
        <time>2015-08-20T12:48:03.000Z</time>
      </trkpt>
      <trkpt lat="47.4901" lon="6.70238">
        <ele>446</ele>
        <time>2015-08-20T12:48:04.000Z</time>
      </trkpt>
      <trkpt lat="47.4901" lon="6.70232">
        <ele>446</ele>
        <time>2015-08-20T12:48:05.000Z</time>
      </trkpt>
      <trkpt lat="47.4901" lon="6.70219">
        <ele>446</ele>
        <time>2015-08-20T12:48:06.000Z</time>
      </trkpt>
      <trkpt lat="47.49008" lon="6.70213">
        <ele>446</ele>
        <time>2015-08-20T12:48:07.000Z</time>
      </trkpt>
      <trkpt lat="47.49006" lon="6.70207">
        <ele>446</ele>
        <time>2015-08-20T12:48:08.000Z</time>
      </trkpt>
      <trkpt lat="47.49006" lon="6.702">
        <ele>446</ele>
        <time>2015-08-20T12:48:09.000Z</time>
      </trkpt>
      <trkpt lat="47.49009" lon="6.70196">
        <ele>446</ele>
        <time>2015-08-20T12:48:10.000Z</time>
      </trkpt>
      <trkpt lat="47.49009" lon="6.70191">
        <ele>445</ele>
        <time>2015-08-20T12:48:11.000Z</time>
      </trkpt>
      <trkpt lat="47.49007" lon="6.70185">
        <ele>445</ele>
        <time>2015-08-20T12:48:13.000Z</time>
      </trkpt>
      <trkpt lat="47.49006" lon="6.70182">
        <ele>444</ele>
        <time>2015-08-20T12:48:14.000Z</time>
      </trkpt>
      <trkpt lat="47.49005" lon="6.70178">
        <ele>444</ele>
        <time>2015-08-20T12:48:15.000Z</time>
      </trkpt>
      <trkpt lat="47.49004" lon="6.70174">
        <ele>443</ele>
        <time>2015-08-20T12:48:16.000Z</time>
      </trkpt>
      <trkpt lat="47.49002" lon="6.70168">
        <ele>442</ele>
        <time>2015-08-20T12:48:17.000Z</time>
      </trkpt>
      <trkpt lat="47.48998" lon="6.70153">
        <ele>439</ele>
        <time>2015-08-20T12:48:18.000Z</time>
      </trkpt>
      <trkpt lat="47.48998" lon="6.70145">
        <ele>437</ele>
        <time>2015-08-20T12:48:19.000Z</time>
      </trkpt>
      <trkpt lat="47.49" lon="6.70138">
        <ele>436</ele>
        <time>2015-08-20T12:48:20.000Z</time>
      </trkpt>
      <trkpt lat="47.49" lon="6.7013">
        <ele>436</ele>
        <time>2015-08-20T12:48:21.000Z</time>
      </trkpt>
      <trkpt lat="47.48994" lon="6.70122">
        <ele>435</ele>
        <time>2015-08-20T12:48:22.000Z</time>
      </trkpt>
      <trkpt lat="47.48983" lon="6.70115">
        <ele>434</ele>
        <time>2015-08-20T12:48:23.000Z</time>
      </trkpt>
      <trkpt lat="47.4898" lon="6.70107">
        <ele>434</ele>
        <time>2015-08-20T12:48:24.000Z</time>
      </trkpt>
      <trkpt lat="47.48976" lon="6.701">
        <ele>433</ele>
        <time>2015-08-20T12:48:25.000Z</time>
      </trkpt>
      <trkpt lat="47.48975" lon="6.70091">
        <ele>433</ele>
        <time>2015-08-20T12:48:26.000Z</time>
      </trkpt>
      <trkpt lat="47.48972" lon="6.70083">
        <ele>429</ele>
        <time>2015-08-20T12:48:27.000Z</time>
      </trkpt>
      <trkpt lat="47.48962" lon="6.70066">
        <ele>428</ele>
        <time>2015-08-20T12:48:29.000Z</time>
      </trkpt>
      <trkpt lat="47.48958" lon="6.70059">
        <ele>428</ele>
        <time>2015-08-20T12:48:30.000Z</time>
      </trkpt>
      <trkpt lat="47.48954" lon="6.7005">
        <ele>428</ele>
        <time>2015-08-20T12:48:31.000Z</time>
      </trkpt>
      <trkpt lat="47.48951" lon="6.70047">
        <ele>427</ele>
        <time>2015-08-20T12:48:32.000Z</time>
      </trkpt>
      <trkpt lat="47.48945" lon="6.70037">
        <ele>427</ele>
        <time>2015-08-20T12:48:33.000Z</time>
      </trkpt>
      <trkpt lat="47.48941" lon="6.70028">
        <ele>427</ele>
        <time>2015-08-20T12:48:34.000Z</time>
      </trkpt>
      <trkpt lat="47.48935" lon="6.70019">
        <ele>426</ele>
        <time>2015-08-20T12:48:35.000Z</time>
      </trkpt>
      <trkpt lat="47.48929" lon="6.70011">
        <ele>425</ele>
        <time>2015-08-20T12:48:36.000Z</time>
      </trkpt>
      <trkpt lat="47.48923" lon="6.7">
        <ele>423</ele>
        <time>2015-08-20T12:48:37.000Z</time>
      </trkpt>
      <trkpt lat="47.48915" lon="6.69987">
        <ele>422</ele>
        <time>2015-08-20T12:48:38.000Z</time>
      </trkpt>
      <trkpt lat="47.48909" lon="6.69977">
        <ele>421</ele>
        <time>2015-08-20T12:48:39.000Z</time>
      </trkpt>
      <trkpt lat="47.48901" lon="6.69965">
        <ele>421</ele>
        <time>2015-08-20T12:48:40.000Z</time>
      </trkpt>
      <trkpt lat="47.48896" lon="6.69952">
        <ele>420</ele>
        <time>2015-08-20T12:48:41.000Z</time>
      </trkpt>
      <trkpt lat="47.4889" lon="6.6994">
        <ele>420</ele>
        <time>2015-08-20T12:48:42.000Z</time>
      </trkpt>
      <trkpt lat="47.48883" lon="6.69929">
        <ele>420</ele>
        <time>2015-08-20T12:48:43.000Z</time>
      </trkpt>
      <trkpt lat="47.48876" lon="6.69911">
        <ele>415</ele>
        <time>2015-08-20T12:48:44.000Z</time>
      </trkpt>
      <trkpt lat="47.4887" lon="6.69899">
        <ele>415</ele>
        <time>2015-08-20T12:48:45.000Z</time>
      </trkpt>
      <trkpt lat="47.48864" lon="6.69886">
        <ele>414</ele>
        <time>2015-08-20T12:48:46.000Z</time>
      </trkpt>
      <trkpt lat="47.48855" lon="6.69877">
        <ele>414</ele>
        <time>2015-08-20T12:48:47.000Z</time>
      </trkpt>
      <trkpt lat="47.48848" lon="6.69867">
        <ele>413</ele>
        <time>2015-08-20T12:48:48.000Z</time>
      </trkpt>
      <trkpt lat="47.4884" lon="6.69856">
        <ele>412</ele>
        <time>2015-08-20T12:48:49.000Z</time>
      </trkpt>
      <trkpt lat="47.48832" lon="6.69845">
        <ele>409</ele>
        <time>2015-08-20T12:48:50.000Z</time>
      </trkpt>
      <trkpt lat="47.48824" lon="6.69834">
        <ele>409</ele>
        <time>2015-08-20T12:48:51.000Z</time>
      </trkpt>
      <trkpt lat="47.48818" lon="6.69823">
        <ele>406</ele>
        <time>2015-08-20T12:48:52.000Z</time>
      </trkpt>
      <trkpt lat="47.48813" lon="6.69811">
        <ele>405</ele>
        <time>2015-08-20T12:48:53.000Z</time>
      </trkpt>
      <trkpt lat="47.48804" lon="6.69797">
        <ele>404</ele>
        <time>2015-08-20T12:48:54.000Z</time>
      </trkpt>
      <trkpt lat="47.48797" lon="6.69781">
        <ele>403</ele>
        <time>2015-08-20T12:48:55.000Z</time>
      </trkpt>
      <trkpt lat="47.48789" lon="6.69767">
        <ele>403</ele>
        <time>2015-08-20T12:48:56.000Z</time>
      </trkpt>
      <trkpt lat="47.48781" lon="6.69757">
        <ele>402</ele>
        <time>2015-08-20T12:48:57.000Z</time>
      </trkpt>
      <trkpt lat="47.48773" lon="6.69748">
        <ele>399</ele>
        <time>2015-08-20T12:48:58.000Z</time>
      </trkpt>
      <trkpt lat="47.48767" lon="6.69736">
        <ele>399</ele>
        <time>2015-08-20T12:48:59.000Z</time>
      </trkpt>
      <trkpt lat="47.48761" lon="6.69724">
        <ele>398</ele>
        <time>2015-08-20T12:49:00.000Z</time>
      </trkpt>
      <trkpt lat="47.48753" lon="6.69714">
        <ele>398</ele>
        <time>2015-08-20T12:49:01.000Z</time>
      </trkpt>
      <trkpt lat="47.48749" lon="6.69704">
        <ele>396</ele>
        <time>2015-08-20T12:49:02.000Z</time>
      </trkpt>
      <trkpt lat="47.48745" lon="6.69692">
        <ele>396</ele>
        <time>2015-08-20T12:49:03.000Z</time>
      </trkpt>
      <trkpt lat="47.48738" lon="6.69682">
        <ele>395</ele>
        <time>2015-08-20T12:49:04.000Z</time>
      </trkpt>
      <trkpt lat="47.48734" lon="6.69671">
        <ele>395</ele>
        <time>2015-08-20T12:49:05.000Z</time>
      </trkpt>
      <trkpt lat="47.4873" lon="6.69657">
        <ele>392</ele>
        <time>2015-08-20T12:49:06.000Z</time>
      </trkpt>
      <trkpt lat="47.48726" lon="6.69643">
        <ele>392</ele>
        <time>2015-08-20T12:49:07.000Z</time>
      </trkpt>
      <trkpt lat="47.48716" lon="6.69632">
        <ele>391</ele>
        <time>2015-08-20T12:49:08.000Z</time>
      </trkpt>
      <trkpt lat="47.48707" lon="6.69621">
        <ele>391</ele>
        <time>2015-08-20T12:49:09.000Z</time>
      </trkpt>
      <trkpt lat="47.48697" lon="6.69613">
        <ele>390</ele>
        <time>2015-08-20T12:49:10.000Z</time>
      </trkpt>
      <trkpt lat="47.48689" lon="6.69599">
        <ele>390</ele>
        <time>2015-08-20T12:49:11.000Z</time>
      </trkpt>
      <trkpt lat="47.48684" lon="6.6959">
        <ele>389</ele>
        <time>2015-08-20T12:49:12.000Z</time>
      </trkpt>
      <trkpt lat="47.48677" lon="6.69577">
        <ele>387</ele>
        <time>2015-08-20T12:49:13.000Z</time>
      </trkpt>
      <trkpt lat="47.48672" lon="6.69564">
        <ele>386</ele>
        <time>2015-08-20T12:49:14.000Z</time>
      </trkpt>
      <trkpt lat="47.48667" lon="6.69555">
        <ele>385</ele>
        <time>2015-08-20T12:49:15.000Z</time>
      </trkpt>
      <trkpt lat="47.48662" lon="6.69543">
        <ele>385</ele>
        <time>2015-08-20T12:49:16.000Z</time>
      </trkpt>
      <trkpt lat="47.48656" lon="6.69532">
        <ele>384</ele>
        <time>2015-08-20T12:49:17.000Z</time>
      </trkpt>
      <trkpt lat="47.48651" lon="6.69521">
        <ele>383</ele>
        <time>2015-08-20T12:49:18.000Z</time>
      </trkpt>
      <trkpt lat="47.48639" lon="6.69511">
        <ele>383</ele>
        <time>2015-08-20T12:49:19.000Z</time>
      </trkpt>
      <trkpt lat="47.48627" lon="6.69504">
        <ele>383</ele>
        <time>2015-08-20T12:49:20.000Z</time>
      </trkpt>
      <trkpt lat="47.48619" lon="6.69493">
        <ele>380</ele>
        <time>2015-08-20T12:49:21.000Z</time>
      </trkpt>
      <trkpt lat="47.4861" lon="6.69487">
        <ele>380</ele>
        <time>2015-08-20T12:49:22.000Z</time>
      </trkpt>
      <trkpt lat="47.48603" lon="6.69481">
        <ele>380</ele>
        <time>2015-08-20T12:49:23.000Z</time>
      </trkpt>
      <trkpt lat="47.48596" lon="6.6947">
        <ele>380</ele>
        <time>2015-08-20T12:49:24.000Z</time>
      </trkpt>
      <trkpt lat="47.48589" lon="6.69461">
        <ele>379</ele>
        <time>2015-08-20T12:49:25.000Z</time>
      </trkpt>
      <trkpt lat="47.48582" lon="6.69449">
        <ele>379</ele>
        <time>2015-08-20T12:49:26.000Z</time>
      </trkpt>
      <trkpt lat="47.48576" lon="6.69439">
        <ele>379</ele>
        <time>2015-08-20T12:49:27.000Z</time>
      </trkpt>
      <trkpt lat="47.48565" lon="6.6942">
        <ele>379</ele>
        <time>2015-08-20T12:49:29.000Z</time>
      </trkpt>
      <trkpt lat="47.48562" lon="6.6941">
        <ele>376</ele>
        <time>2015-08-20T12:49:30.000Z</time>
      </trkpt>
      <trkpt lat="47.48555" lon="6.69399">
        <ele>375</ele>
        <time>2015-08-20T12:49:31.000Z</time>
      </trkpt>
      <trkpt lat="47.48547" lon="6.69389">
        <ele>375</ele>
        <time>2015-08-20T12:49:32.000Z</time>
      </trkpt>
      <trkpt lat="47.48544" lon="6.69382">
        <ele>375</ele>
        <time>2015-08-20T12:49:32.999Z</time>
      </trkpt>
      <trkpt lat="47.48538" lon="6.69368">
        <ele>374</ele>
        <time>2015-08-20T12:49:34.000Z</time>
      </trkpt>
      <trkpt lat="47.48531" lon="6.69359">
        <ele>374</ele>
        <time>2015-08-20T12:49:35.000Z</time>
      </trkpt>
      <trkpt lat="47.48525" lon="6.69349">
        <ele>373</ele>
        <time>2015-08-20T12:49:36.000Z</time>
      </trkpt>
      <trkpt lat="47.48514" lon="6.69339">
        <ele>373</ele>
        <time>2015-08-20T12:49:37.000Z</time>
      </trkpt>
      <trkpt lat="47.48508" lon="6.69327">
        <ele>370</ele>
        <time>2015-08-20T12:49:38.000Z</time>
      </trkpt>
      <trkpt lat="47.48501" lon="6.69315">
        <ele>369</ele>
        <time>2015-08-20T12:49:39.000Z</time>
      </trkpt>
      <trkpt lat="47.48496" lon="6.69305">
        <ele>370</ele>
        <time>2015-08-20T12:49:40.000Z</time>
      </trkpt>
      <trkpt lat="47.48485" lon="6.69296">
        <ele>369</ele>
        <time>2015-08-20T12:49:41.000Z</time>
      </trkpt>
      <trkpt lat="47.48478" lon="6.69287">
        <ele>369</ele>
        <time>2015-08-20T12:49:42.000Z</time>
      </trkpt>
      <trkpt lat="47.48473" lon="6.69276">
        <ele>369</ele>
        <time>2015-08-20T12:49:43.000Z</time>
      </trkpt>
      <trkpt lat="47.48469" lon="6.69266">
        <ele>369</ele>
        <time>2015-08-20T12:49:44.000Z</time>
      </trkpt>
      <trkpt lat="47.48459" lon="6.69255">
        <ele>369</ele>
        <time>2015-08-20T12:49:45.000Z</time>
      </trkpt>
      <trkpt lat="47.48449" lon="6.69245">
        <ele>369</ele>
        <time>2015-08-20T12:49:46.000Z</time>
      </trkpt>
      <trkpt lat="47.48442" lon="6.69235">
        <ele>369</ele>
        <time>2015-08-20T12:49:47.000Z</time>
      </trkpt>
      <trkpt lat="47.48438" lon="6.69231">
        <ele>369</ele>
        <time>2015-08-20T12:49:48.000Z</time>
      </trkpt>
      <trkpt lat="47.48433" lon="6.69227">
        <ele>369</ele>
        <time>2015-08-20T12:49:49.000Z</time>
      </trkpt>
      <trkpt lat="47.48428" lon="6.69222">
        <ele>369</ele>
        <time>2015-08-20T12:49:50.000Z</time>
      </trkpt>
      <trkpt lat="47.48424" lon="6.69219">
        <ele>370</ele>
        <time>2015-08-20T12:49:51.000Z</time>
      </trkpt>
      <trkpt lat="47.48419" lon="6.69215">
        <ele>370</ele>
        <time>2015-08-20T12:49:52.000Z</time>
      </trkpt>
      <trkpt lat="47.48414" lon="6.69212">
        <ele>370</ele>
        <time>2015-08-20T12:49:53.000Z</time>
      </trkpt>
      <trkpt lat="47.4841" lon="6.69208">
        <ele>370</ele>
        <time>2015-08-20T12:49:54.000Z</time>
      </trkpt>
      <trkpt lat="47.48404" lon="6.69206">
        <ele>370</ele>
        <time>2015-08-20T12:49:55.000Z</time>
      </trkpt>
      <trkpt lat="47.48398" lon="6.69201">
        <ele>370</ele>
        <time>2015-08-20T12:49:56.000Z</time>
      </trkpt>
      <trkpt lat="47.48388" lon="6.69196">
        <ele>369</ele>
        <time>2015-08-20T12:49:57.000Z</time>
      </trkpt>
      <trkpt lat="47.48379" lon="6.69194">
        <ele>369</ele>
        <time>2015-08-20T12:49:58.000Z</time>
      </trkpt>
      <trkpt lat="47.48373" lon="6.69193">
        <ele>369</ele>
        <time>2015-08-20T12:49:59.000Z</time>
      </trkpt>
      <trkpt lat="47.48365" lon="6.69195">
        <ele>369</ele>
        <time>2015-08-20T12:50:00.000Z</time>
      </trkpt>
      <trkpt lat="47.48353" lon="6.69201">
        <ele>368</ele>
        <time>2015-08-20T12:50:01.000Z</time>
      </trkpt>
      <trkpt lat="47.48335" lon="6.69205">
        <ele>368</ele>
        <time>2015-08-20T12:50:02.000Z</time>
      </trkpt>
      <trkpt lat="47.48326" lon="6.69208">
        <ele>363</ele>
        <time>2015-08-20T12:50:03.000Z</time>
      </trkpt>
      <trkpt lat="47.48318" lon="6.69208">
        <ele>363</ele>
        <time>2015-08-20T12:50:04.000Z</time>
      </trkpt>
      <trkpt lat="47.48312" lon="6.69206">
        <ele>362</ele>
        <time>2015-08-20T12:50:05.000Z</time>
      </trkpt>
      <trkpt lat="47.48309" lon="6.69204">
        <ele>362</ele>
        <time>2015-08-20T12:50:06.000Z</time>
      </trkpt>
      <trkpt lat="47.48303" lon="6.69206">
        <ele>362</ele>
        <time>2015-08-20T12:50:07.000Z</time>
      </trkpt>
      <trkpt lat="47.48285" lon="6.69207">
        <ele>361</ele>
        <time>2015-08-20T12:50:08.000Z</time>
      </trkpt>
      <trkpt lat="47.48275" lon="6.69204">
        <ele>360</ele>
        <time>2015-08-20T12:50:09.000Z</time>
      </trkpt>
      <trkpt lat="47.48269" lon="6.69197">
        <ele>359</ele>
        <time>2015-08-20T12:50:10.000Z</time>
      </trkpt>
      <trkpt lat="47.48266" lon="6.69189">
        <ele>359</ele>
        <time>2015-08-20T12:50:11.000Z</time>
      </trkpt>
      <trkpt lat="47.48262" lon="6.69181">
        <ele>358</ele>
        <time>2015-08-20T12:50:12.000Z</time>
      </trkpt>
      <trkpt lat="47.48256" lon="6.69174">
        <ele>357</ele>
        <time>2015-08-20T12:50:13.000Z</time>
      </trkpt>
      <trkpt lat="47.48252" lon="6.69167">
        <ele>355</ele>
        <time>2015-08-20T12:50:14.000Z</time>
      </trkpt>
      <trkpt lat="47.48247" lon="6.6916">
        <ele>355</ele>
        <time>2015-08-20T12:50:15.000Z</time>
      </trkpt>
      <trkpt lat="47.48244" lon="6.69153">
        <ele>354</ele>
        <time>2015-08-20T12:50:16.000Z</time>
      </trkpt>
      <trkpt lat="47.48241" lon="6.69145">
        <ele>354</ele>
        <time>2015-08-20T12:50:17.000Z</time>
      </trkpt>
      <trkpt lat="47.48237" lon="6.69138">
        <ele>354</ele>
        <time>2015-08-20T12:50:18.000Z</time>
      </trkpt>
      <trkpt lat="47.48234" lon="6.69131">
        <ele>354</ele>
        <time>2015-08-20T12:50:19.000Z</time>
      </trkpt>
      <trkpt lat="47.48232" lon="6.69127">
        <ele>354</ele>
        <time>2015-08-20T12:50:20.000Z</time>
      </trkpt>
      <trkpt lat="47.48229" lon="6.69123">
        <ele>354</ele>
        <time>2015-08-20T12:50:21.000Z</time>
      </trkpt>
      <trkpt lat="47.48227" lon="6.69119">
        <ele>354</ele>
        <time>2015-08-20T12:50:23.000Z</time>
      </trkpt>
      <trkpt lat="47.48226" lon="6.69118">
        <ele>354</ele>
        <time>2015-08-20T12:50:24.000Z</time>
      </trkpt>
      <trkpt lat="47.48223" lon="6.69114">
        <ele>354</ele>
        <time>2015-08-20T12:50:26.000Z</time>
      </trkpt>
      <trkpt lat="47.48222" lon="6.69112">
        <ele>354</ele>
        <time>2015-08-20T12:50:27.000Z</time>
      </trkpt>
      <trkpt lat="47.48219" lon="6.69108">
        <ele>354</ele>
        <time>2015-08-20T12:50:29.000Z</time>
      </trkpt>
      <trkpt lat="47.48218" lon="6.69107">
        <ele>354</ele>
        <time>2015-08-20T12:50:30.000Z</time>
      </trkpt>
      <trkpt lat="47.48214" lon="6.6911">
        <ele>354</ele>
        <time>2015-08-20T12:51:12.000Z</time>
      </trkpt>
      <trkpt lat="47.48213" lon="6.6911">
        <ele>354</ele>
        <time>2015-08-20T12:51:13.000Z</time>
      </trkpt>
      <trkpt lat="47.48211" lon="6.69104">
        <ele>354</ele>
        <time>2015-08-20T12:52:05.000Z</time>
      </trkpt>
      <trkpt lat="47.48211" lon="6.69102">
        <ele>354</ele>
        <time>2015-08-20T12:52:06.000Z</time>
      </trkpt>
      <trkpt lat="47.48213" lon="6.69097">
        <ele>354</ele>
        <time>2015-08-20T12:52:09.000Z</time>
      </trkpt>
      <trkpt lat="47.48214" lon="6.69096">
        <ele>354</ele>
        <time>2015-08-20T12:52:10.000Z</time>
      </trkpt>
      <trkpt lat="47.48218" lon="6.69095">
        <ele>354</ele>
        <time>2015-08-20T12:52:13.000Z</time>
      </trkpt>
      <trkpt lat="47.48219" lon="6.69093">
        <ele>354</ele>
        <time>2015-08-20T12:52:14.000Z</time>
      </trkpt>
      <trkpt lat="47.48221" lon="6.69091">
        <ele>354</ele>
        <time>2015-08-20T12:52:15.000Z</time>
      </trkpt>
      <trkpt lat="47.48222" lon="6.69088">
        <ele>354</ele>
        <time>2015-08-20T12:52:16.000Z</time>
      </trkpt>
      <trkpt lat="47.48224" lon="6.69084">
        <ele>355</ele>
        <time>2015-08-20T12:52:18.000Z</time>
      </trkpt>
      <trkpt lat="47.48225" lon="6.69081">
        <ele>355</ele>
        <time>2015-08-20T12:52:19.000Z</time>
      </trkpt>
      <trkpt lat="47.48227" lon="6.69078">
        <ele>355</ele>
        <time>2015-08-20T12:52:21.000Z</time>
      </trkpt>
      <trkpt lat="47.48229" lon="6.69076">
        <ele>355</ele>
        <time>2015-08-20T12:52:22.000Z</time>
      </trkpt>
      <trkpt lat="47.48233" lon="6.69073">
        <ele>355</ele>
        <time>2015-08-20T12:52:24.000Z</time>
      </trkpt>
      <trkpt lat="47.48235" lon="6.69071">
        <ele>355</ele>
        <time>2015-08-20T12:52:25.000Z</time>
      </trkpt>
      <trkpt lat="47.48237" lon="6.69069">
        <ele>355</ele>
        <time>2015-08-20T12:52:26.000Z</time>
      </trkpt>
      <trkpt lat="47.4824" lon="6.69065">
        <ele>355</ele>
        <time>2015-08-20T12:52:27.000Z</time>
      </trkpt>
      <trkpt lat="47.48243" lon="6.69059">
        <ele>355</ele>
        <time>2015-08-20T12:52:29.000Z</time>
      </trkpt>
      <trkpt lat="47.48245" lon="6.69055">
        <ele>355</ele>
        <time>2015-08-20T12:52:30.000Z</time>
      </trkpt>
      <trkpt lat="47.48247" lon="6.69051">
        <ele>355</ele>
        <time>2015-08-20T12:52:31.000Z</time>
      </trkpt>
      <trkpt lat="47.48249" lon="6.69047">
        <ele>355</ele>
        <time>2015-08-20T12:52:32.000Z</time>
      </trkpt>
      <trkpt lat="47.4825" lon="6.69043">
        <ele>357</ele>
        <time>2015-08-20T12:52:33.000Z</time>
      </trkpt>
      <trkpt lat="47.48252" lon="6.6904">
        <ele>357</ele>
        <time>2015-08-20T12:52:34.000Z</time>
      </trkpt>
      <trkpt lat="47.48255" lon="6.69037">
        <ele>357</ele>
        <time>2015-08-20T12:52:35.000Z</time>
      </trkpt>
      <trkpt lat="47.48257" lon="6.69036">
        <ele>357</ele>
        <time>2015-08-20T12:52:36.000Z</time>
      </trkpt>
      <trkpt lat="47.48259" lon="6.69035">
        <ele>357</ele>
        <time>2015-08-20T12:52:37.000Z</time>
      </trkpt>
      <trkpt lat="47.48262" lon="6.69034">
        <ele>357</ele>
        <time>2015-08-20T12:52:39.000Z</time>
      </trkpt>
      <trkpt lat="47.48264" lon="6.69034">
        <ele>357</ele>
        <time>2015-08-20T12:52:40.000Z</time>
      </trkpt>
      <trkpt lat="47.48266" lon="6.69034">
        <ele>357</ele>
        <time>2015-08-20T12:52:42.000Z</time>
      </trkpt>
      <trkpt lat="47.48268" lon="6.69034">
        <ele>357</ele>
        <time>2015-08-20T12:52:43.000Z</time>
      </trkpt>
      <trkpt lat="47.48272" lon="6.69034">
        <ele>357</ele>
        <time>2015-08-20T12:52:45.000Z</time>
      </trkpt>
      <trkpt lat="47.48275" lon="6.69034">
        <ele>357</ele>
        <time>2015-08-20T12:52:46.000Z</time>
      </trkpt>
      <trkpt lat="47.48279" lon="6.69035">
        <ele>357</ele>
        <time>2015-08-20T12:52:48.000Z</time>
      </trkpt>
      <trkpt lat="47.48282" lon="6.69035">
        <ele>357</ele>
        <time>2015-08-20T12:52:49.000Z</time>
      </trkpt>
      <trkpt lat="47.48284" lon="6.69035">
        <ele>357</ele>
        <time>2015-08-20T12:52:50.000Z</time>
      </trkpt>
      <trkpt lat="47.48287" lon="6.69034">
        <ele>357</ele>
        <time>2015-08-20T12:52:51.000Z</time>
      </trkpt>
      <trkpt lat="47.48289" lon="6.69034">
        <ele>357</ele>
        <time>2015-08-20T12:52:52.000Z</time>
      </trkpt>
      <trkpt lat="47.48292" lon="6.69033">
        <ele>357</ele>
        <time>2015-08-20T12:52:53.000Z</time>
      </trkpt>
      <trkpt lat="47.48294" lon="6.69034">
        <ele>357</ele>
        <time>2015-08-20T12:52:53.990Z</time>
      </trkpt>
      <trkpt lat="47.48298" lon="6.69032">
        <ele>357</ele>
        <time>2015-08-20T12:52:55.000Z</time>
      </trkpt>
      <trkpt lat="47.48301" lon="6.69032">
        <ele>357</ele>
        <time>2015-08-20T12:52:56.000Z</time>
      </trkpt>
      <trkpt lat="47.48303" lon="6.69032">
        <ele>357</ele>
        <time>2015-08-20T12:52:57.000Z</time>
      </trkpt>
      <trkpt lat="47.48306" lon="6.69031">
        <ele>357</ele>
        <time>2015-08-20T12:52:58.000Z</time>
      </trkpt>
      <trkpt lat="47.48309" lon="6.69031">
        <ele>357</ele>
        <time>2015-08-20T12:52:59.000Z</time>
      </trkpt>
      <trkpt lat="47.48313" lon="6.6903">
        <ele>357</ele>
        <time>2015-08-20T12:53:01.000Z</time>
      </trkpt>
      <trkpt lat="47.48315" lon="6.69029">
        <ele>357</ele>
        <time>2015-08-20T12:53:02.000Z</time>
      </trkpt>
      <trkpt lat="47.48318" lon="6.69028">
        <ele>357</ele>
        <time>2015-08-20T12:53:03.000Z</time>
      </trkpt>
      <trkpt lat="47.4832" lon="6.69028">
        <ele>357</ele>
        <time>2015-08-20T12:53:04.000Z</time>
      </trkpt>
      <trkpt lat="47.48324" lon="6.69027">
        <ele>357</ele>
        <time>2015-08-20T12:53:05.000Z</time>
      </trkpt>
      <trkpt lat="47.48328" lon="6.69027">
        <ele>357</ele>
        <time>2015-08-20T12:53:06.000Z</time>
      </trkpt>
      <trkpt lat="47.48333" lon="6.69028">
        <ele>357</ele>
        <time>2015-08-20T12:53:07.000Z</time>
      </trkpt>
      <trkpt lat="47.48339" lon="6.69026">
        <ele>359</ele>
        <time>2015-08-20T12:53:08.000Z</time>
      </trkpt>
      <trkpt lat="47.48345" lon="6.69023">
        <ele>359</ele>
        <time>2015-08-20T12:53:09.000Z</time>
      </trkpt>
      <trkpt lat="47.4835" lon="6.6902">
        <ele>359</ele>
        <time>2015-08-20T12:53:10.000Z</time>
      </trkpt>
      <trkpt lat="47.48356" lon="6.69016">
        <ele>359</ele>
        <time>2015-08-20T12:53:11.000Z</time>
      </trkpt>
      <trkpt lat="47.48361" lon="6.69013">
        <ele>360</ele>
        <time>2015-08-20T12:53:12.000Z</time>
      </trkpt>
      <trkpt lat="47.48365" lon="6.69009">
        <ele>360</ele>
        <time>2015-08-20T12:53:13.000Z</time>
      </trkpt>
      <trkpt lat="47.48369" lon="6.69004">
        <ele>360</ele>
        <time>2015-08-20T12:53:14.000Z</time>
      </trkpt>
      <trkpt lat="47.48373" lon="6.68999">
        <ele>355</ele>
        <time>2015-08-20T12:53:15.000Z</time>
      </trkpt>
      <trkpt lat="47.48377" lon="6.68995">
        <ele>356</ele>
        <time>2015-08-20T12:53:16.000Z</time>
      </trkpt>
      <trkpt lat="47.4838" lon="6.68991">
        <ele>356</ele>
        <time>2015-08-20T12:53:17.000Z</time>
      </trkpt>
      <trkpt lat="47.48383" lon="6.68987">
        <ele>356</ele>
        <time>2015-08-20T12:53:18.000Z</time>
      </trkpt>
      <trkpt lat="47.48387" lon="6.68983">
        <ele>356</ele>
        <time>2015-08-20T12:53:19.000Z</time>
      </trkpt>
      <trkpt lat="47.4839" lon="6.68979">
        <ele>356</ele>
        <time>2015-08-20T12:53:20.000Z</time>
      </trkpt>
      <trkpt lat="47.48393" lon="6.68974">
        <ele>356</ele>
        <time>2015-08-20T12:53:21.000Z</time>
      </trkpt>
      <trkpt lat="47.48396" lon="6.6897">
        <ele>355</ele>
        <time>2015-08-20T12:53:22.000Z</time>
      </trkpt>
      <trkpt lat="47.484" lon="6.68965">
        <ele>355</ele>
        <time>2015-08-20T12:53:23.000Z</time>
      </trkpt>
      <trkpt lat="47.48404" lon="6.68961">
        <ele>355</ele>
        <time>2015-08-20T12:53:24.000Z</time>
      </trkpt>
      <trkpt lat="47.48407" lon="6.68958">
        <ele>355</ele>
        <time>2015-08-20T12:53:25.000Z</time>
      </trkpt>
      <trkpt lat="47.4841" lon="6.68955">
        <ele>355</ele>
        <time>2015-08-20T12:53:26.000Z</time>
      </trkpt>
      <trkpt lat="47.48412" lon="6.68951">
        <ele>354</ele>
        <time>2015-08-20T12:53:27.000Z</time>
      </trkpt>
      <trkpt lat="47.48415" lon="6.68947">
        <ele>354</ele>
        <time>2015-08-20T12:53:28.000Z</time>
      </trkpt>
      <trkpt lat="47.48417" lon="6.68943">
        <ele>355</ele>
        <time>2015-08-20T12:53:29.000Z</time>
      </trkpt>
      <trkpt lat="47.48419" lon="6.68939">
        <ele>354</ele>
        <time>2015-08-20T12:53:30.000Z</time>
      </trkpt>
      <trkpt lat="47.48421" lon="6.68934">
        <ele>354</ele>
        <time>2015-08-20T12:53:31.000Z</time>
      </trkpt>
      <trkpt lat="47.48423" lon="6.68928">
        <ele>354</ele>
        <time>2015-08-20T12:53:32.000Z</time>
      </trkpt>
      <trkpt lat="47.48425" lon="6.68922">
        <ele>353</ele>
        <time>2015-08-20T12:53:33.000Z</time>
      </trkpt>
      <trkpt lat="47.48428" lon="6.68905">
        <ele>351</ele>
        <time>2015-08-20T12:53:34.000Z</time>
      </trkpt>
      <trkpt lat="47.4843" lon="6.68899">
        <ele>351</ele>
        <time>2015-08-20T12:53:35.000Z</time>
      </trkpt>
      <trkpt lat="47.48433" lon="6.68892">
        <ele>351</ele>
        <time>2015-08-20T12:53:36.000Z</time>
      </trkpt>
      <trkpt lat="47.48436" lon="6.68892">
        <ele>351</ele>
        <time>2015-08-20T12:53:37.000Z</time>
      </trkpt>
      <trkpt lat="47.4844" lon="6.68881">
        <ele>351</ele>
        <time>2015-08-20T12:53:38.000Z</time>
      </trkpt>
      <trkpt lat="47.48444" lon="6.68873">
        <ele>351</ele>
        <time>2015-08-20T12:53:39.000Z</time>
      </trkpt>
      <trkpt lat="47.48446" lon="6.68863">
        <ele>350</ele>
        <time>2015-08-20T12:53:40.000Z</time>
      </trkpt>
      <trkpt lat="47.48448" lon="6.68855">
        <ele>350</ele>
        <time>2015-08-20T12:53:41.000Z</time>
      </trkpt>
      <trkpt lat="47.4845" lon="6.68847">
        <ele>350</ele>
        <time>2015-08-20T12:53:42.000Z</time>
      </trkpt>
      <trkpt lat="47.48454" lon="6.68848">
        <ele>350</ele>
        <time>2015-08-20T12:53:44.000Z</time>
      </trkpt>
      <trkpt lat="47.48455" lon="6.68842">
        <ele>350</ele>
        <time>2015-08-20T12:53:45.000Z</time>
      </trkpt>
      <trkpt lat="47.48457" lon="6.68837">
        <ele>350</ele>
        <time>2015-08-20T12:53:46.000Z</time>
      </trkpt>
      <trkpt lat="47.4846" lon="6.6883">
        <ele>348</ele>
        <time>2015-08-20T12:53:47.000Z</time>
      </trkpt>
      <trkpt lat="47.48463" lon="6.68819">
        <ele>348</ele>
        <time>2015-08-20T12:53:48.000Z</time>
      </trkpt>
      <trkpt lat="47.48466" lon="6.68814">
        <ele>348</ele>
        <time>2015-08-20T12:53:49.000Z</time>
      </trkpt>
      <trkpt lat="47.4847" lon="6.68808">
        <ele>347</ele>
        <time>2015-08-20T12:53:50.000Z</time>
      </trkpt>
      <trkpt lat="47.48474" lon="6.68803">
        <ele>347</ele>
        <time>2015-08-20T12:53:51.000Z</time>
      </trkpt>
      <trkpt lat="47.48478" lon="6.68798">
        <ele>347</ele>
        <time>2015-08-20T12:53:52.000Z</time>
      </trkpt>
      <trkpt lat="47.48481" lon="6.68794">
        <ele>347</ele>
        <time>2015-08-20T12:53:53.000Z</time>
      </trkpt>
      <trkpt lat="47.48484" lon="6.68789">
        <ele>347</ele>
        <time>2015-08-20T12:53:54.000Z</time>
      </trkpt>
      <trkpt lat="47.48488" lon="6.68785">
        <ele>347</ele>
        <time>2015-08-20T12:53:55.000Z</time>
      </trkpt>
      <trkpt lat="47.48491" lon="6.68781">
        <ele>346</ele>
        <time>2015-08-20T12:53:56.000Z</time>
      </trkpt>
      <trkpt lat="47.48494" lon="6.68775">
        <ele>346</ele>
        <time>2015-08-20T12:53:57.000Z</time>
      </trkpt>
      <trkpt lat="47.48497" lon="6.68769">
        <ele>346</ele>
        <time>2015-08-20T12:53:58.000Z</time>
      </trkpt>
      <trkpt lat="47.48499" lon="6.68763">
        <ele>345</ele>
        <time>2015-08-20T12:53:59.000Z</time>
      </trkpt>
      <trkpt lat="47.48501" lon="6.68756">
        <ele>344</ele>
        <time>2015-08-20T12:54:00.000Z</time>
      </trkpt>
      <trkpt lat="47.48503" lon="6.6875">
        <ele>344</ele>
        <time>2015-08-20T12:54:01.000Z</time>
      </trkpt>
      <trkpt lat="47.48504" lon="6.68744">
        <ele>343</ele>
        <time>2015-08-20T12:54:02.000Z</time>
      </trkpt>
      <trkpt lat="47.48505" lon="6.6874">
        <ele>343</ele>
        <time>2015-08-20T12:54:03.000Z</time>
      </trkpt>
      <trkpt lat="47.48506" lon="6.68736">
        <ele>343</ele>
        <time>2015-08-20T12:54:04.000Z</time>
      </trkpt>
      <trkpt lat="47.48508" lon="6.68734">
        <ele>343</ele>
        <time>2015-08-20T12:54:05.000Z</time>
      </trkpt>
      <trkpt lat="47.4851" lon="6.68732">
        <ele>343</ele>
        <time>2015-08-20T12:54:06.000Z</time>
      </trkpt>
      <trkpt lat="47.48512" lon="6.68729">
        <ele>343</ele>
        <time>2015-08-20T12:54:07.000Z</time>
      </trkpt>
      <trkpt lat="47.48516" lon="6.68727">
        <ele>342</ele>
        <time>2015-08-20T12:54:08.000Z</time>
      </trkpt>
      <trkpt lat="47.48529" lon="6.68718">
        <ele>342</ele>
        <time>2015-08-20T12:54:09.000Z</time>
      </trkpt>
      <trkpt lat="47.48536" lon="6.68715">
        <ele>342</ele>
        <time>2015-08-20T12:54:10.000Z</time>
      </trkpt>
      <trkpt lat="47.48542" lon="6.68711">
        <ele>342</ele>
        <time>2015-08-20T12:54:11.000Z</time>
      </trkpt>
      <trkpt lat="47.48546" lon="6.6871">
        <ele>342</ele>
        <time>2015-08-20T12:54:12.000Z</time>
      </trkpt>
      <trkpt lat="47.48549" lon="6.68707">
        <ele>342</ele>
        <time>2015-08-20T12:54:13.000Z</time>
      </trkpt>
      <trkpt lat="47.48551" lon="6.68706">
        <ele>342</ele>
        <time>2015-08-20T12:54:14.000Z</time>
      </trkpt>
      <trkpt lat="47.48554" lon="6.68703">
        <ele>342</ele>
        <time>2015-08-20T12:54:16.000Z</time>
      </trkpt>
      <trkpt lat="47.48556" lon="6.68702">
        <ele>342</ele>
        <time>2015-08-20T12:54:17.000Z</time>
      </trkpt>
      <trkpt lat="47.48558" lon="6.68698">
        <ele>342</ele>
        <time>2015-08-20T12:54:21.000Z</time>
      </trkpt>
      <trkpt lat="47.48559" lon="6.68696">
        <ele>342</ele>
        <time>2015-08-20T12:54:22.000Z</time>
      </trkpt>
      <trkpt lat="47.4856" lon="6.68693">
        <ele>342</ele>
        <time>2015-08-20T12:54:23.000Z</time>
      </trkpt>
      <trkpt lat="47.48561" lon="6.68689">
        <ele>342</ele>
        <time>2015-08-20T12:54:24.000Z</time>
      </trkpt>
      <trkpt lat="47.48562" lon="6.68687">
        <ele>342</ele>
        <time>2015-08-20T12:54:25.000Z</time>
      </trkpt>
      <trkpt lat="47.48564" lon="6.68684">
        <ele>342</ele>
        <time>2015-08-20T12:54:26.000Z</time>
      </trkpt>
      <trkpt lat="47.48565" lon="6.68682">
        <ele>342</ele>
        <time>2015-08-20T12:54:27.000Z</time>
      </trkpt>
      <trkpt lat="47.48567" lon="6.68678">
        <ele>342</ele>
        <time>2015-08-20T12:54:29.000Z</time>
      </trkpt>
      <trkpt lat="47.48571" lon="6.68675">
        <ele>342</ele>
        <time>2015-08-20T12:54:32.000Z</time>
      </trkpt>
      <trkpt lat="47.48572" lon="6.68675">
        <ele>342</ele>
        <time>2015-08-20T12:54:33.000Z</time>
      </trkpt>
      <trkpt lat="47.48576" lon="6.68671">
        <ele>343</ele>
        <time>2015-08-20T12:54:36.000Z</time>
      </trkpt>
      <trkpt lat="47.48577" lon="6.68668">
        <ele>343</ele>
        <time>2015-08-20T12:54:37.000Z</time>
      </trkpt>
      <trkpt lat="47.48579" lon="6.68663">
        <ele>343</ele>
        <time>2015-08-20T12:54:39.000Z</time>
      </trkpt>
      <trkpt lat="47.4858" lon="6.68661">
        <ele>343</ele>
        <time>2015-08-20T12:54:40.000Z</time>
      </trkpt>
      <trkpt lat="47.48582" lon="6.68656">
        <ele>343</ele>
        <time>2015-08-20T12:54:42.000Z</time>
      </trkpt>
      <trkpt lat="47.48583" lon="6.68653">
        <ele>343</ele>
        <time>2015-08-20T12:54:43.000Z</time>
      </trkpt>
      <trkpt lat="47.48584" lon="6.68649">
        <ele>345</ele>
        <time>2015-08-20T12:54:45.000Z</time>
      </trkpt>
      <trkpt lat="47.48585" lon="6.68647">
        <ele>345</ele>
        <time>2015-08-20T12:54:46.000Z</time>
      </trkpt>
      <trkpt lat="47.48587" lon="6.68642">
        <ele>345</ele>
        <time>2015-08-20T12:54:49.000Z</time>
      </trkpt>
      <trkpt lat="47.48587" lon="6.6864">
        <ele>345</ele>
        <time>2015-08-20T12:54:50.000Z</time>
      </trkpt>
      <trkpt lat="47.48588" lon="6.68634">
        <ele>345</ele>
        <time>2015-08-20T12:54:53.000Z</time>
      </trkpt>
      <trkpt lat="47.48588" lon="6.68631">
        <ele>345</ele>
        <time>2015-08-20T12:54:54.000Z</time>
      </trkpt>
      <trkpt lat="47.48588" lon="6.68626">
        <ele>346</ele>
        <time>2015-08-20T12:54:55.000Z</time>
      </trkpt>
      <trkpt lat="47.48588" lon="6.68622">
        <ele>346</ele>
        <time>2015-08-20T12:54:56.000Z</time>
      </trkpt>
      <trkpt lat="47.48588" lon="6.68618">
        <ele>346</ele>
        <time>2015-08-20T12:54:57.000Z</time>
      </trkpt>
      <trkpt lat="47.48589" lon="6.68615">
        <ele>346</ele>
        <time>2015-08-20T12:54:58.000Z</time>
      </trkpt>
      <trkpt lat="47.4859" lon="6.68611">
        <ele>346</ele>
        <time>2015-08-20T12:54:59.000Z</time>
      </trkpt>
      <trkpt lat="47.4859" lon="6.68607">
        <ele>346</ele>
        <time>2015-08-20T12:55:00.000Z</time>
      </trkpt>
      <trkpt lat="47.48591" lon="6.68603">
        <ele>346</ele>
        <time>2015-08-20T12:55:01.000Z</time>
      </trkpt>
      <trkpt lat="47.48591" lon="6.686">
        <ele>346</ele>
        <time>2015-08-20T12:55:02.000Z</time>
      </trkpt>
      <trkpt lat="47.48591" lon="6.68597">
        <ele>346</ele>
        <time>2015-08-20T12:55:03.000Z</time>
      </trkpt>
      <trkpt lat="47.48591" lon="6.68593">
        <ele>346</ele>
        <time>2015-08-20T12:55:04.000Z</time>
      </trkpt>
      <trkpt lat="47.48591" lon="6.68587">
        <ele>346</ele>
        <time>2015-08-20T12:55:06.000Z</time>
      </trkpt>
      <trkpt lat="47.48591" lon="6.68584">
        <ele>346</ele>
        <time>2015-08-20T12:55:07.000Z</time>
      </trkpt>
      <trkpt lat="47.4859" lon="6.6858">
        <ele>347</ele>
        <time>2015-08-20T12:55:09.000Z</time>
      </trkpt>
      <trkpt lat="47.4859" lon="6.68578">
        <ele>347</ele>
        <time>2015-08-20T12:55:10.000Z</time>
      </trkpt>
      <trkpt lat="47.4859" lon="6.68573">
        <ele>347</ele>
        <time>2015-08-20T12:55:12.000Z</time>
      </trkpt>
      <trkpt lat="47.48591" lon="6.6857">
        <ele>347</ele>
        <time>2015-08-20T12:55:13.000Z</time>
      </trkpt>
      <trkpt lat="47.48591" lon="6.68565">
        <ele>347</ele>
        <time>2015-08-20T12:55:15.000Z</time>
      </trkpt>
      <trkpt lat="47.48591" lon="6.68563">
        <ele>347</ele>
        <time>2015-08-20T12:55:16.000Z</time>
      </trkpt>
      <trkpt lat="47.48589" lon="6.68558">
        <ele>347</ele>
        <time>2015-08-20T12:55:18.000Z</time>
      </trkpt>
      <trkpt lat="47.48588" lon="6.68555">
        <ele>347</ele>
        <time>2015-08-20T12:55:19.000Z</time>
      </trkpt>
      <trkpt lat="47.48588" lon="6.6855">
        <ele>348</ele>
        <time>2015-08-20T12:55:22.000Z</time>
      </trkpt>
      <trkpt lat="47.48588" lon="6.68548">
        <ele>348</ele>
        <time>2015-08-20T12:55:23.000Z</time>
      </trkpt>
      <trkpt lat="47.48591" lon="6.68546">
        <ele>348</ele>
        <time>2015-08-20T12:55:25.000Z</time>
      </trkpt>
      <trkpt lat="47.48592" lon="6.68544">
        <ele>348</ele>
        <time>2015-08-20T12:55:26.000Z</time>
      </trkpt>
      <trkpt lat="47.48594" lon="6.68543">
        <ele>348</ele>
        <time>2015-08-20T12:55:27.000Z</time>
      </trkpt>
      <trkpt lat="47.48598" lon="6.68541">
        <ele>348</ele>
        <time>2015-08-20T12:55:29.000Z</time>
      </trkpt>
      <trkpt lat="47.48601" lon="6.68538">
        <ele>348</ele>
        <time>2015-08-20T12:55:31.000Z</time>
      </trkpt>
      <trkpt lat="47.48602" lon="6.68536">
        <ele>348</ele>
        <time>2015-08-20T12:55:32.000Z</time>
      </trkpt>
      <trkpt lat="47.48603" lon="6.6853">
        <ele>348</ele>
        <time>2015-08-20T12:55:34.000Z</time>
      </trkpt>
      <trkpt lat="47.48604" lon="6.68526">
        <ele>348</ele>
        <time>2015-08-20T12:55:35.000Z</time>
      </trkpt>
      <trkpt lat="47.48604" lon="6.68522">
        <ele>348</ele>
        <time>2015-08-20T12:55:36.000Z</time>
      </trkpt>
      <trkpt lat="47.48604" lon="6.68518">
        <ele>348</ele>
        <time>2015-08-20T12:55:37.000Z</time>
      </trkpt>
      <trkpt lat="47.48605" lon="6.68514">
        <ele>348</ele>
        <time>2015-08-20T12:55:38.000Z</time>
      </trkpt>
      <trkpt lat="47.48605" lon="6.6851">
        <ele>348</ele>
        <time>2015-08-20T12:55:39.000Z</time>
      </trkpt>
      <trkpt lat="47.48605" lon="6.68505">
        <ele>348</ele>
        <time>2015-08-20T12:55:40.000Z</time>
      </trkpt>
      <trkpt lat="47.48606" lon="6.685">
        <ele>348</ele>
        <time>2015-08-20T12:55:41.000Z</time>
      </trkpt>
      <trkpt lat="47.48606" lon="6.68495">
        <ele>348</ele>
        <time>2015-08-20T12:55:42.000Z</time>
      </trkpt>
      <trkpt lat="47.48606" lon="6.68491">
        <ele>348</ele>
        <time>2015-08-20T12:55:43.000Z</time>
      </trkpt>
      <trkpt lat="47.48607" lon="6.68487">
        <ele>348</ele>
        <time>2015-08-20T12:55:44.000Z</time>
      </trkpt>
      <trkpt lat="47.48607" lon="6.68484">
        <ele>348</ele>
        <time>2015-08-20T12:55:45.000Z</time>
      </trkpt>
      <trkpt lat="47.48607" lon="6.6848">
        <ele>348</ele>
        <time>2015-08-20T12:55:46.000Z</time>
      </trkpt>
      <trkpt lat="47.48608" lon="6.68477">
        <ele>348</ele>
        <time>2015-08-20T12:55:47.000Z</time>
      </trkpt>
      <trkpt lat="47.48608" lon="6.68473">
        <ele>348</ele>
        <time>2015-08-20T12:55:48.000Z</time>
      </trkpt>
      <trkpt lat="47.48609" lon="6.68469">
        <ele>348</ele>
        <time>2015-08-20T12:55:49.000Z</time>
      </trkpt>
      <trkpt lat="47.48609" lon="6.68465">
        <ele>348</ele>
        <time>2015-08-20T12:55:50.000Z</time>
      </trkpt>
      <trkpt lat="47.4861" lon="6.68461">
        <ele>348</ele>
        <time>2015-08-20T12:55:51.000Z</time>
      </trkpt>
      <trkpt lat="47.4861" lon="6.68457">
        <ele>348</ele>
        <time>2015-08-20T12:55:52.000Z</time>
      </trkpt>
      <trkpt lat="47.48611" lon="6.68453">
        <ele>348</ele>
        <time>2015-08-20T12:55:53.000Z</time>
      </trkpt>
      <trkpt lat="47.48612" lon="6.68448">
        <ele>348</ele>
        <time>2015-08-20T12:55:54.000Z</time>
      </trkpt>
      <trkpt lat="47.48612" lon="6.68444">
        <ele>348</ele>
        <time>2015-08-20T12:55:55.000Z</time>
      </trkpt>
      <trkpt lat="47.48614" lon="6.6844">
        <ele>348</ele>
        <time>2015-08-20T12:55:56.000Z</time>
      </trkpt>
      <trkpt lat="47.48615" lon="6.68435">
        <ele>348</ele>
        <time>2015-08-20T12:55:57.000Z</time>
      </trkpt>
      <trkpt lat="47.48617" lon="6.68432">
        <ele>348</ele>
        <time>2015-08-20T12:55:58.000Z</time>
      </trkpt>
      <trkpt lat="47.48619" lon="6.68428">
        <ele>348</ele>
        <time>2015-08-20T12:55:59.000Z</time>
      </trkpt>
      <trkpt lat="47.4862" lon="6.68425">
        <ele>348</ele>
        <time>2015-08-20T12:56:00.000Z</time>
      </trkpt>
      <trkpt lat="47.48622" lon="6.68421">
        <ele>348</ele>
        <time>2015-08-20T12:56:01.000Z</time>
      </trkpt>
      <trkpt lat="47.48623" lon="6.68418">
        <ele>348</ele>
        <time>2015-08-20T12:56:02.000Z</time>
      </trkpt>
      <trkpt lat="47.48624" lon="6.68415">
        <ele>347</ele>
        <time>2015-08-20T12:56:03.000Z</time>
      </trkpt>
      <trkpt lat="47.48625" lon="6.68412">
        <ele>347</ele>
        <time>2015-08-20T12:56:04.000Z</time>
      </trkpt>
      <trkpt lat="47.48626" lon="6.68409">
        <ele>347</ele>
        <time>2015-08-20T12:56:05.000Z</time>
      </trkpt>
      <trkpt lat="47.48627" lon="6.68406">
        <ele>347</ele>
        <time>2015-08-20T12:56:06.000Z</time>
      </trkpt>
      <trkpt lat="47.48628" lon="6.68402">
        <ele>347</ele>
        <time>2015-08-20T12:56:07.000Z</time>
      </trkpt>
      <trkpt lat="47.48629" lon="6.68399">
        <ele>347</ele>
        <time>2015-08-20T12:56:08.000Z</time>
      </trkpt>
      <trkpt lat="47.4863" lon="6.68396">
        <ele>347</ele>
        <time>2015-08-20T12:56:09.000Z</time>
      </trkpt>
      <trkpt lat="47.48632" lon="6.6839">
        <ele>347</ele>
        <time>2015-08-20T12:56:11.000Z</time>
      </trkpt>
      <trkpt lat="47.48634" lon="6.68387">
        <ele>347</ele>
        <time>2015-08-20T12:56:12.000Z</time>
      </trkpt>
      <trkpt lat="47.48635" lon="6.68384">
        <ele>347</ele>
        <time>2015-08-20T12:56:13.000Z</time>
      </trkpt>
      <trkpt lat="47.48637" lon="6.6838">
        <ele>347</ele>
        <time>2015-08-20T12:56:14.000Z</time>
      </trkpt>
      <trkpt lat="47.48639" lon="6.68376">
        <ele>347</ele>
        <time>2015-08-20T12:56:15.000Z</time>
      </trkpt>
      <trkpt lat="47.48641" lon="6.68371">
        <ele>347</ele>
        <time>2015-08-20T12:56:16.000Z</time>
      </trkpt>
      <trkpt lat="47.48643" lon="6.68368">
        <ele>347</ele>
        <time>2015-08-20T12:56:17.000Z</time>
      </trkpt>
      <trkpt lat="47.48645" lon="6.68366">
        <ele>347</ele>
        <time>2015-08-20T12:56:18.000Z</time>
      </trkpt>
      <trkpt lat="47.48649" lon="6.68366">
        <ele>347</ele>
        <time>2015-08-20T12:56:20.000Z</time>
      </trkpt>
      <trkpt lat="47.48651" lon="6.68367">
        <ele>347</ele>
        <time>2015-08-20T12:56:21.000Z</time>
      </trkpt>
      <trkpt lat="47.48653" lon="6.68371">
        <ele>347</ele>
        <time>2015-08-20T12:56:23.000Z</time>
      </trkpt>
      <trkpt lat="47.48655" lon="6.68373">
        <ele>347</ele>
        <time>2015-08-20T12:56:24.000Z</time>
      </trkpt>
      <trkpt lat="47.48657" lon="6.68377">
        <ele>347</ele>
        <time>2015-08-20T12:56:26.000Z</time>
      </trkpt>
      <trkpt lat="47.48659" lon="6.68379">
        <ele>347</ele>
        <time>2015-08-20T12:56:27.000Z</time>
      </trkpt>
      <trkpt lat="47.48662" lon="6.68384">
        <ele>347</ele>
        <time>2015-08-20T12:56:29.000Z</time>
      </trkpt>
      <trkpt lat="47.48663" lon="6.68386">
        <ele>347</ele>
        <time>2015-08-20T12:56:30.000Z</time>
      </trkpt>
      <trkpt lat="47.48665" lon="6.68389">
        <ele>347</ele>
        <time>2015-08-20T12:56:31.000Z</time>
      </trkpt>
      <trkpt lat="47.48666" lon="6.68391">
        <ele>347</ele>
        <time>2015-08-20T12:56:32.000Z</time>
      </trkpt>
      <trkpt lat="47.48668" lon="6.68393">
        <ele>350</ele>
        <time>2015-08-20T12:56:33.000Z</time>
      </trkpt>
      <trkpt lat="47.4867" lon="6.68396">
        <ele>349</ele>
        <time>2015-08-20T12:56:34.000Z</time>
      </trkpt>
      <trkpt lat="47.48672" lon="6.68397">
        <ele>349</ele>
        <time>2015-08-20T12:56:35.000Z</time>
      </trkpt>
      <trkpt lat="47.48675" lon="6.68398">
        <ele>349</ele>
        <time>2015-08-20T12:56:36.000Z</time>
      </trkpt>
      <trkpt lat="47.48677" lon="6.68398">
        <ele>350</ele>
        <time>2015-08-20T12:56:37.000Z</time>
      </trkpt>
      <trkpt lat="47.4868" lon="6.68397">
        <ele>350</ele>
        <time>2015-08-20T12:56:38.000Z</time>
      </trkpt>
      <trkpt lat="47.48683" lon="6.68394">
        <ele>350</ele>
        <time>2015-08-20T12:56:39.000Z</time>
      </trkpt>
      <trkpt lat="47.48686" lon="6.68392">
        <ele>350</ele>
        <time>2015-08-20T12:56:40.000Z</time>
      </trkpt>
      <trkpt lat="47.48688" lon="6.68389">
        <ele>350</ele>
        <time>2015-08-20T12:56:41.000Z</time>
      </trkpt>
      <trkpt lat="47.4869" lon="6.68386">
        <ele>350</ele>
        <time>2015-08-20T12:56:42.000Z</time>
      </trkpt>
      <trkpt lat="47.48692" lon="6.68384">
        <ele>350</ele>
        <time>2015-08-20T12:56:43.000Z</time>
      </trkpt>
      <trkpt lat="47.48695" lon="6.68381">
        <ele>350</ele>
        <time>2015-08-20T12:56:44.000Z</time>
      </trkpt>
      <trkpt lat="47.48697" lon="6.68379">
        <ele>350</ele>
        <time>2015-08-20T12:56:45.000Z</time>
      </trkpt>
      <trkpt lat="47.48699" lon="6.68377">
        <ele>350</ele>
        <time>2015-08-20T12:56:46.000Z</time>
      </trkpt>
      <trkpt lat="47.48701" lon="6.68375">
        <ele>351</ele>
        <time>2015-08-20T12:56:47.000Z</time>
      </trkpt>
      <trkpt lat="47.48703" lon="6.68374">
        <ele>351</ele>
        <time>2015-08-20T12:56:48.000Z</time>
      </trkpt>
      <trkpt lat="47.48707" lon="6.68371">
        <ele>351</ele>
        <time>2015-08-20T12:56:50.000Z</time>
      </trkpt>
      <trkpt lat="47.48708" lon="6.68369">
        <ele>351</ele>
        <time>2015-08-20T12:56:51.000Z</time>
      </trkpt>
      <trkpt lat="47.48711" lon="6.68365">
        <ele>351</ele>
        <time>2015-08-20T12:56:53.000Z</time>
      </trkpt>
      <trkpt lat="47.48712" lon="6.68362">
        <ele>351</ele>
        <time>2015-08-20T12:56:54.000Z</time>
      </trkpt>
      <trkpt lat="47.48714" lon="6.6836">
        <ele>351</ele>
        <time>2015-08-20T12:56:55.000Z</time>
      </trkpt>
      <trkpt lat="47.48716" lon="6.68357">
        <ele>351</ele>
        <time>2015-08-20T12:56:56.000Z</time>
      </trkpt>
      <trkpt lat="47.48718" lon="6.68356">
        <ele>351</ele>
        <time>2015-08-20T12:56:57.000Z</time>
      </trkpt>
      <trkpt lat="47.4872" lon="6.68354">
        <ele>351</ele>
        <time>2015-08-20T12:56:58.000Z</time>
      </trkpt>
      <trkpt lat="47.48724" lon="6.68352">
        <ele>352</ele>
        <time>2015-08-20T12:57:00.000Z</time>
      </trkpt>
      <trkpt lat="47.48725" lon="6.68352">
        <ele>352</ele>
        <time>2015-08-20T12:57:01.000Z</time>
      </trkpt>
      <trkpt lat="47.48729" lon="6.68351">
        <ele>352</ele>
        <time>2015-08-20T12:57:03.000Z</time>
      </trkpt>
      <trkpt lat="47.4873" lon="6.68351">
        <ele>352</ele>
        <time>2015-08-20T12:57:04.000Z</time>
      </trkpt>
      <trkpt lat="47.48733" lon="6.6835">
        <ele>352</ele>
        <time>2015-08-20T12:57:06.000Z</time>
      </trkpt>
      <trkpt lat="47.48735" lon="6.6835">
        <ele>352</ele>
        <time>2015-08-20T12:57:07.000Z</time>
      </trkpt>
      <trkpt lat="47.48738" lon="6.6835">
        <ele>352</ele>
        <time>2015-08-20T12:57:09.000Z</time>
      </trkpt>
      <trkpt lat="47.4874" lon="6.68351">
        <ele>352</ele>
        <time>2015-08-20T12:57:10.000Z</time>
      </trkpt>
      <trkpt lat="47.48744" lon="6.68351">
        <ele>352</ele>
        <time>2015-08-20T12:57:12.000Z</time>
      </trkpt>
      <trkpt lat="47.48746" lon="6.6835">
        <ele>352</ele>
        <time>2015-08-20T12:57:13.000Z</time>
      </trkpt>
      <trkpt lat="47.4875" lon="6.6835">
        <ele>353</ele>
        <time>2015-08-20T12:57:15.000Z</time>
      </trkpt>
      <trkpt lat="47.48752" lon="6.6835">
        <ele>354</ele>
        <time>2015-08-20T12:57:16.000Z</time>
      </trkpt>
      <trkpt lat="47.48756" lon="6.6835">
        <ele>354</ele>
        <time>2015-08-20T12:57:18.000Z</time>
      </trkpt>
      <trkpt lat="47.48759" lon="6.6835">
        <ele>354</ele>
        <time>2015-08-20T12:57:19.000Z</time>
      </trkpt>
      <trkpt lat="47.48761" lon="6.68351">
        <ele>354</ele>
        <time>2015-08-20T12:57:20.000Z</time>
      </trkpt>
      <trkpt lat="47.48763" lon="6.68351">
        <ele>354</ele>
        <time>2015-08-20T12:57:21.000Z</time>
      </trkpt>
      <trkpt lat="47.48766" lon="6.68351">
        <ele>354</ele>
        <time>2015-08-20T12:57:22.000Z</time>
      </trkpt>
      <trkpt lat="47.48769" lon="6.6835">
        <ele>354</ele>
        <time>2015-08-20T12:57:23.000Z</time>
      </trkpt>
      <trkpt lat="47.48772" lon="6.68348">
        <ele>354</ele>
        <time>2015-08-20T12:57:24.000Z</time>
      </trkpt>
      <trkpt lat="47.48775" lon="6.68346">
        <ele>354</ele>
        <time>2015-08-20T12:57:25.000Z</time>
      </trkpt>
      <trkpt lat="47.48778" lon="6.68344">
        <ele>354</ele>
        <time>2015-08-20T12:57:26.000Z</time>
      </trkpt>
      <trkpt lat="47.4878" lon="6.68342">
        <ele>354</ele>
        <time>2015-08-20T12:57:27.000Z</time>
      </trkpt>
      <trkpt lat="47.48786" lon="6.68338">
        <ele>354</ele>
        <time>2015-08-20T12:57:29.000Z</time>
      </trkpt>
      <trkpt lat="47.48789" lon="6.68336">
        <ele>354</ele>
        <time>2015-08-20T12:57:30.000Z</time>
      </trkpt>
      <trkpt lat="47.48792" lon="6.68333">
        <ele>355</ele>
        <time>2015-08-20T12:57:31.000Z</time>
      </trkpt>
      <trkpt lat="47.48795" lon="6.68331">
        <ele>355</ele>
        <time>2015-08-20T12:57:32.000Z</time>
      </trkpt>
      <trkpt lat="47.48798" lon="6.6833">
        <ele>355</ele>
        <time>2015-08-20T12:57:33.000Z</time>
      </trkpt>
      <trkpt lat="47.48801" lon="6.68327">
        <ele>355</ele>
        <time>2015-08-20T12:57:34.000Z</time>
      </trkpt>
      <trkpt lat="47.48804" lon="6.68324">
        <ele>355</ele>
        <time>2015-08-20T12:57:35.000Z</time>
      </trkpt>
      <trkpt lat="47.48807" lon="6.68321">
        <ele>355</ele>
        <time>2015-08-20T12:57:36.000Z</time>
      </trkpt>
      <trkpt lat="47.48809" lon="6.68317">
        <ele>355</ele>
        <time>2015-08-20T12:57:37.000Z</time>
      </trkpt>
      <trkpt lat="47.48812" lon="6.68313">
        <ele>355</ele>
        <time>2015-08-20T12:57:38.000Z</time>
      </trkpt>
      <trkpt lat="47.48814" lon="6.6831">
        <ele>355</ele>
        <time>2015-08-20T12:57:39.000Z</time>
      </trkpt>
      <trkpt lat="47.48816" lon="6.68306">
        <ele>356</ele>
        <time>2015-08-20T12:57:40.000Z</time>
      </trkpt>
      <trkpt lat="47.48818" lon="6.68303">
        <ele>356</ele>
        <time>2015-08-20T12:57:41.000Z</time>
      </trkpt>
      <trkpt lat="47.4882" lon="6.683">
        <ele>356</ele>
        <time>2015-08-20T12:57:42.000Z</time>
      </trkpt>
      <trkpt lat="47.48822" lon="6.68296">
        <ele>356</ele>
        <time>2015-08-20T12:57:43.000Z</time>
      </trkpt>
      <trkpt lat="47.48824" lon="6.68291">
        <ele>356</ele>
        <time>2015-08-20T12:57:44.000Z</time>
      </trkpt>
      <trkpt lat="47.48825" lon="6.68287">
        <ele>356</ele>
        <time>2015-08-20T12:57:45.000Z</time>
      </trkpt>
      <trkpt lat="47.48827" lon="6.68283">
        <ele>356</ele>
        <time>2015-08-20T12:57:46.000Z</time>
      </trkpt>
      <trkpt lat="47.48828" lon="6.68278">
        <ele>356</ele>
        <time>2015-08-20T12:57:47.000Z</time>
      </trkpt>
      <trkpt lat="47.48829" lon="6.68274">
        <ele>357</ele>
        <time>2015-08-20T12:57:48.000Z</time>
      </trkpt>
      <trkpt lat="47.4883" lon="6.6827">
        <ele>357</ele>
        <time>2015-08-20T12:57:49.000Z</time>
      </trkpt>
      <trkpt lat="47.48831" lon="6.68266">
        <ele>357</ele>
        <time>2015-08-20T12:57:50.000Z</time>
      </trkpt>
      <trkpt lat="47.48832" lon="6.68263">
        <ele>357</ele>
        <time>2015-08-20T12:57:51.000Z</time>
      </trkpt>
      <trkpt lat="47.48834" lon="6.68259">
        <ele>357</ele>
        <time>2015-08-20T12:57:52.000Z</time>
      </trkpt>
      <trkpt lat="47.48835" lon="6.68255">
        <ele>358</ele>
        <time>2015-08-20T12:57:53.000Z</time>
      </trkpt>
      <trkpt lat="47.48836" lon="6.68251">
        <ele>358</ele>
        <time>2015-08-20T12:57:54.000Z</time>
      </trkpt>
      <trkpt lat="47.48838" lon="6.68247">
        <ele>358</ele>
        <time>2015-08-20T12:57:55.000Z</time>
      </trkpt>
      <trkpt lat="47.48839" lon="6.68243">
        <ele>358</ele>
        <time>2015-08-20T12:57:56.000Z</time>
      </trkpt>
      <trkpt lat="47.4884" lon="6.68239">
        <ele>358</ele>
        <time>2015-08-20T12:57:57.000Z</time>
      </trkpt>
      <trkpt lat="47.48841" lon="6.68235">
        <ele>359</ele>
        <time>2015-08-20T12:57:58.000Z</time>
      </trkpt>
      <trkpt lat="47.48843" lon="6.68232">
        <ele>359</ele>
        <time>2015-08-20T12:57:59.000Z</time>
      </trkpt>
      <trkpt lat="47.48845" lon="6.68227">
        <ele>359</ele>
        <time>2015-08-20T12:58:00.000Z</time>
      </trkpt>
      <trkpt lat="47.48846" lon="6.68223">
        <ele>359</ele>
        <time>2015-08-20T12:58:01.000Z</time>
      </trkpt>
      <trkpt lat="47.48848" lon="6.68219">
        <ele>359</ele>
        <time>2015-08-20T12:58:02.000Z</time>
      </trkpt>
      <trkpt lat="47.4885" lon="6.68215">
        <ele>359</ele>
        <time>2015-08-20T12:58:03.000Z</time>
      </trkpt>
      <trkpt lat="47.48852" lon="6.68211">
        <ele>359</ele>
        <time>2015-08-20T12:58:04.000Z</time>
      </trkpt>
      <trkpt lat="47.48853" lon="6.68208">
        <ele>359</ele>
        <time>2015-08-20T12:58:05.000Z</time>
      </trkpt>
      <trkpt lat="47.48855" lon="6.68205">
        <ele>359</ele>
        <time>2015-08-20T12:58:06.000Z</time>
      </trkpt>
      <trkpt lat="47.48857" lon="6.68202">
        <ele>359</ele>
        <time>2015-08-20T12:58:07.000Z</time>
      </trkpt>
      <trkpt lat="47.48858" lon="6.68199">
        <ele>359</ele>
        <time>2015-08-20T12:58:08.000Z</time>
      </trkpt>
      <trkpt lat="47.4886" lon="6.68196">
        <ele>359</ele>
        <time>2015-08-20T12:58:09.000Z</time>
      </trkpt>
      <trkpt lat="47.48861" lon="6.68193">
        <ele>360</ele>
        <time>2015-08-20T12:58:10.000Z</time>
      </trkpt>
      <trkpt lat="47.48863" lon="6.6819">
        <ele>360</ele>
        <time>2015-08-20T12:58:11.000Z</time>
      </trkpt>
      <trkpt lat="47.48864" lon="6.68187">
        <ele>360</ele>
        <time>2015-08-20T12:58:12.000Z</time>
      </trkpt>
      <trkpt lat="47.48866" lon="6.68184">
        <ele>360</ele>
        <time>2015-08-20T12:58:13.000Z</time>
      </trkpt>
      <trkpt lat="47.48867" lon="6.68181">
        <ele>360</ele>
        <time>2015-08-20T12:58:14.000Z</time>
      </trkpt>
      <trkpt lat="47.48868" lon="6.68177">
        <ele>360</ele>
        <time>2015-08-20T12:58:15.000Z</time>
      </trkpt>
      <trkpt lat="47.48869" lon="6.68173">
        <ele>360</ele>
        <time>2015-08-20T12:58:16.000Z</time>
      </trkpt>
      <trkpt lat="47.48871" lon="6.6817">
        <ele>360</ele>
        <time>2015-08-20T12:58:17.000Z</time>
      </trkpt>
      <trkpt lat="47.48873" lon="6.68166">
        <ele>362</ele>
        <time>2015-08-20T12:58:18.001Z</time>
      </trkpt>
      <trkpt lat="47.48875" lon="6.68163">
        <ele>362</ele>
        <time>2015-08-20T12:58:19.000Z</time>
      </trkpt>
      <trkpt lat="47.48877" lon="6.68159">
        <ele>362</ele>
        <time>2015-08-20T12:58:20.000Z</time>
      </trkpt>
      <trkpt lat="47.48879" lon="6.68155">
        <ele>362</ele>
        <time>2015-08-20T12:58:21.000Z</time>
      </trkpt>
      <trkpt lat="47.4888" lon="6.68151">
        <ele>362</ele>
        <time>2015-08-20T12:58:22.000Z</time>
      </trkpt>
      <trkpt lat="47.48882" lon="6.68146">
        <ele>362</ele>
        <time>2015-08-20T12:58:23.000Z</time>
      </trkpt>
      <trkpt lat="47.48883" lon="6.68142">
        <ele>362</ele>
        <time>2015-08-20T12:58:24.000Z</time>
      </trkpt>
      <trkpt lat="47.48885" lon="6.68138">
        <ele>362</ele>
        <time>2015-08-20T12:58:25.000Z</time>
      </trkpt>
      <trkpt lat="47.48887" lon="6.68133">
        <ele>362</ele>
        <time>2015-08-20T12:58:26.000Z</time>
      </trkpt>
      <trkpt lat="47.48889" lon="6.68129">
        <ele>362</ele>
        <time>2015-08-20T12:58:27.000Z</time>
      </trkpt>
      <trkpt lat="47.48891" lon="6.68124">
        <ele>362</ele>
        <time>2015-08-20T12:58:28.000Z</time>
      </trkpt>
      <trkpt lat="47.48893" lon="6.6812">
        <ele>362</ele>
        <time>2015-08-20T12:58:29.000Z</time>
      </trkpt>
      <trkpt lat="47.48895" lon="6.68115">
        <ele>362</ele>
        <time>2015-08-20T12:58:30.000Z</time>
      </trkpt>
      <trkpt lat="47.48897" lon="6.68111">
        <ele>362</ele>
        <time>2015-08-20T12:58:31.000Z</time>
      </trkpt>
      <trkpt lat="47.48899" lon="6.68105">
        <ele>362</ele>
        <time>2015-08-20T12:58:32.000Z</time>
      </trkpt>
      <trkpt lat="47.48902" lon="6.681">
        <ele>362</ele>
        <time>2015-08-20T12:58:33.000Z</time>
      </trkpt>
      <trkpt lat="47.48904" lon="6.68095">
        <ele>362</ele>
        <time>2015-08-20T12:58:34.000Z</time>
      </trkpt>
      <trkpt lat="47.48907" lon="6.68087">
        <ele>362</ele>
        <time>2015-08-20T12:58:35.000Z</time>
      </trkpt>
      <trkpt lat="47.4891" lon="6.68082">
        <ele>363</ele>
        <time>2015-08-20T12:58:36.000Z</time>
      </trkpt>
      <trkpt lat="47.48913" lon="6.68076">
        <ele>363</ele>
        <time>2015-08-20T12:58:37.000Z</time>
      </trkpt>
      <trkpt lat="47.48916" lon="6.6807">
        <ele>363</ele>
        <time>2015-08-20T12:58:38.000Z</time>
      </trkpt>
      <trkpt lat="47.48919" lon="6.68063">
        <ele>361</ele>
        <time>2015-08-20T12:58:39.000Z</time>
      </trkpt>
      <trkpt lat="47.48923" lon="6.68056">
        <ele>361</ele>
        <time>2015-08-20T12:58:40.000Z</time>
      </trkpt>
      <trkpt lat="47.48926" lon="6.6805">
        <ele>361</ele>
        <time>2015-08-20T12:58:41.000Z</time>
      </trkpt>
      <trkpt lat="47.48928" lon="6.68043">
        <ele>361</ele>
        <time>2015-08-20T12:58:42.000Z</time>
      </trkpt>
      <trkpt lat="47.48932" lon="6.68035">
        <ele>361</ele>
        <time>2015-08-20T12:58:43.000Z</time>
      </trkpt>
      <trkpt lat="47.48934" lon="6.68028">
        <ele>361</ele>
        <time>2015-08-20T12:58:44.000Z</time>
      </trkpt>
      <trkpt lat="47.48937" lon="6.68021">
        <ele>361</ele>
        <time>2015-08-20T12:58:45.000Z</time>
      </trkpt>
      <trkpt lat="47.4894" lon="6.68015">
        <ele>361</ele>
        <time>2015-08-20T12:58:46.000Z</time>
      </trkpt>
      <trkpt lat="47.48943" lon="6.68009">
        <ele>361</ele>
        <time>2015-08-20T12:58:47.000Z</time>
      </trkpt>
      <trkpt lat="47.48946" lon="6.68003">
        <ele>361</ele>
        <time>2015-08-20T12:58:48.000Z</time>
      </trkpt>
      <trkpt lat="47.48948" lon="6.67998">
        <ele>362</ele>
        <time>2015-08-20T12:58:49.000Z</time>
      </trkpt>
      <trkpt lat="47.4895" lon="6.67993">
        <ele>362</ele>
        <time>2015-08-20T12:58:50.000Z</time>
      </trkpt>
      <trkpt lat="47.48952" lon="6.67988">
        <ele>362</ele>
        <time>2015-08-20T12:58:51.000Z</time>
      </trkpt>
      <trkpt lat="47.48954" lon="6.67984">
        <ele>362</ele>
        <time>2015-08-20T12:58:52.000Z</time>
      </trkpt>
      <trkpt lat="47.48956" lon="6.6798">
        <ele>362</ele>
        <time>2015-08-20T12:58:53.000Z</time>
      </trkpt>
      <trkpt lat="47.48959" lon="6.67975">
        <ele>362</ele>
        <time>2015-08-20T12:58:54.000Z</time>
      </trkpt>
      <trkpt lat="47.48963" lon="6.67969">
        <ele>362</ele>
        <time>2015-08-20T12:58:55.000Z</time>
      </trkpt>
      <trkpt lat="47.48967" lon="6.67963">
        <ele>362</ele>
        <time>2015-08-20T12:58:56.000Z</time>
      </trkpt>
      <trkpt lat="47.4897" lon="6.67957">
        <ele>362</ele>
        <time>2015-08-20T12:58:57.000Z</time>
      </trkpt>
      <trkpt lat="47.48974" lon="6.6795">
        <ele>361</ele>
        <time>2015-08-20T12:58:58.000Z</time>
      </trkpt>
      <trkpt lat="47.48979" lon="6.67942">
        <ele>361</ele>
        <time>2015-08-20T12:58:59.000Z</time>
      </trkpt>
      <trkpt lat="47.48983" lon="6.67935">
        <ele>361</ele>
        <time>2015-08-20T12:59:00.000Z</time>
      </trkpt>
      <trkpt lat="47.48988" lon="6.67928">
        <ele>360</ele>
        <time>2015-08-20T12:59:01.000Z</time>
      </trkpt>
      <trkpt lat="47.48992" lon="6.6792">
        <ele>359</ele>
        <time>2015-08-20T12:59:02.000Z</time>
      </trkpt>
      <trkpt lat="47.48997" lon="6.67913">
        <ele>360</ele>
        <time>2015-08-20T12:59:03.000Z</time>
      </trkpt>
      <trkpt lat="47.49" lon="6.67907">
        <ele>357</ele>
        <time>2015-08-20T12:59:04.000Z</time>
      </trkpt>
      <trkpt lat="47.49004" lon="6.679">
        <ele>357</ele>
        <time>2015-08-20T12:59:05.000Z</time>
      </trkpt>
      <trkpt lat="47.49008" lon="6.67893">
        <ele>357</ele>
        <time>2015-08-20T12:59:06.000Z</time>
      </trkpt>
      <trkpt lat="47.49012" lon="6.67885">
        <ele>357</ele>
        <time>2015-08-20T12:59:07.000Z</time>
      </trkpt>
      <trkpt lat="47.49016" lon="6.67879">
        <ele>357</ele>
        <time>2015-08-20T12:59:08.000Z</time>
      </trkpt>
      <trkpt lat="47.49019" lon="6.67873">
        <ele>357</ele>
        <time>2015-08-20T12:59:09.000Z</time>
      </trkpt>
      <trkpt lat="47.49023" lon="6.67865">
        <ele>357</ele>
        <time>2015-08-20T12:59:10.000Z</time>
      </trkpt>
      <trkpt lat="47.49027" lon="6.67858">
        <ele>357</ele>
        <time>2015-08-20T12:59:11.000Z</time>
      </trkpt>
      <trkpt lat="47.49031" lon="6.67852">
        <ele>357</ele>
        <time>2015-08-20T12:59:12.000Z</time>
      </trkpt>
      <trkpt lat="47.49035" lon="6.67847">
        <ele>357</ele>
        <time>2015-08-20T12:59:13.000Z</time>
      </trkpt>
      <trkpt lat="47.49038" lon="6.6784">
        <ele>356</ele>
        <time>2015-08-20T12:59:14.000Z</time>
      </trkpt>
      <trkpt lat="47.49042" lon="6.67833">
        <ele>359</ele>
        <time>2015-08-20T12:59:15.000Z</time>
      </trkpt>
      <trkpt lat="47.49045" lon="6.67826">
        <ele>359</ele>
        <time>2015-08-20T12:59:16.000Z</time>
      </trkpt>
      <trkpt lat="47.49049" lon="6.6782">
        <ele>358</ele>
        <time>2015-08-20T12:59:17.000Z</time>
      </trkpt>
      <trkpt lat="47.49053" lon="6.67812">
        <ele>358</ele>
        <time>2015-08-20T12:59:18.000Z</time>
      </trkpt>
      <trkpt lat="47.49056" lon="6.67804">
        <ele>358</ele>
        <time>2015-08-20T12:59:19.000Z</time>
      </trkpt>
      <trkpt lat="47.4906" lon="6.67797">
        <ele>358</ele>
        <time>2015-08-20T12:59:20.000Z</time>
      </trkpt>
      <trkpt lat="47.49063" lon="6.67791">
        <ele>358</ele>
        <time>2015-08-20T12:59:21.000Z</time>
      </trkpt>
      <trkpt lat="47.49066" lon="6.67786">
        <ele>358</ele>
        <time>2015-08-20T12:59:22.000Z</time>
      </trkpt>
      <trkpt lat="47.4907" lon="6.6778">
        <ele>358</ele>
        <time>2015-08-20T12:59:23.000Z</time>
      </trkpt>
      <trkpt lat="47.49073" lon="6.67775">
        <ele>358</ele>
        <time>2015-08-20T12:59:24.000Z</time>
      </trkpt>
      <trkpt lat="47.49076" lon="6.6777">
        <ele>358</ele>
        <time>2015-08-20T12:59:25.000Z</time>
      </trkpt>
      <trkpt lat="47.49079" lon="6.67766">
        <ele>358</ele>
        <time>2015-08-20T12:59:26.000Z</time>
      </trkpt>
      <trkpt lat="47.49081" lon="6.67761">
        <ele>358</ele>
        <time>2015-08-20T12:59:27.000Z</time>
      </trkpt>
      <trkpt lat="47.49084" lon="6.67756">
        <ele>356</ele>
        <time>2015-08-20T12:59:28.000Z</time>
      </trkpt>
      <trkpt lat="47.49086" lon="6.67751">
        <ele>357</ele>
        <time>2015-08-20T12:59:29.000Z</time>
      </trkpt>
      <trkpt lat="47.49088" lon="6.67749">
        <ele>357</ele>
        <time>2015-08-20T12:59:30.000Z</time>
      </trkpt>
      <trkpt lat="47.49091" lon="6.67746">
        <ele>357</ele>
        <time>2015-08-20T12:59:31.000Z</time>
      </trkpt>
      <trkpt lat="47.49092" lon="6.67743">
        <ele>357</ele>
        <time>2015-08-20T12:59:32.000Z</time>
      </trkpt>
      <trkpt lat="47.49095" lon="6.67739">
        <ele>357</ele>
        <time>2015-08-20T12:59:34.000Z</time>
      </trkpt>
      <trkpt lat="47.49096" lon="6.67737">
        <ele>357</ele>
        <time>2015-08-20T12:59:35.000Z</time>
      </trkpt>
      <trkpt lat="47.49098" lon="6.67732">
        <ele>358</ele>
        <time>2015-08-20T12:59:37.000Z</time>
      </trkpt>
      <trkpt lat="47.49099" lon="6.6773">
        <ele>358</ele>
        <time>2015-08-20T12:59:38.000Z</time>
      </trkpt>
      <trkpt lat="47.49101" lon="6.67724">
        <ele>358</ele>
        <time>2015-08-20T12:59:42.000Z</time>
      </trkpt>
      <trkpt lat="47.49101" lon="6.67722">
        <ele>358</ele>
        <time>2015-08-20T12:59:43.000Z</time>
      </trkpt>
      <trkpt lat="47.49101" lon="6.67716">
        <ele>358</ele>
        <time>2015-08-20T12:59:46.000Z</time>
      </trkpt>
      <trkpt lat="47.49101" lon="6.67714">
        <ele>358</ele>
        <time>2015-08-20T12:59:47.000Z</time>
      </trkpt>
      <trkpt lat="47.49101" lon="6.67709">
        <ele>358</ele>
        <time>2015-08-20T12:59:49.000Z</time>
      </trkpt>
      <trkpt lat="47.49101" lon="6.67707">
        <ele>358</ele>
        <time>2015-08-20T12:59:50.000Z</time>
      </trkpt>
      <trkpt lat="47.49101" lon="6.67702">
        <ele>358</ele>
        <time>2015-08-20T12:59:52.000Z</time>
      </trkpt>
      <trkpt lat="47.49101" lon="6.677">
        <ele>359</ele>
        <time>2015-08-20T12:59:53.000Z</time>
      </trkpt>
      <trkpt lat="47.49101" lon="6.67695">
        <ele>359</ele>
        <time>2015-08-20T12:59:55.000Z</time>
      </trkpt>
      <trkpt lat="47.49101" lon="6.67693">
        <ele>359</ele>
        <time>2015-08-20T12:59:56.000Z</time>
      </trkpt>
      <trkpt lat="47.49101" lon="6.67687">
        <ele>359</ele>
        <time>2015-08-20T12:59:58.000Z</time>
      </trkpt>
      <trkpt lat="47.49101" lon="6.67684">
        <ele>359</ele>
        <time>2015-08-20T12:59:59.000Z</time>
      </trkpt>
      <trkpt lat="47.49101" lon="6.67679">
        <ele>360</ele>
        <time>2015-08-20T13:00:01.000Z</time>
      </trkpt>
      <trkpt lat="47.49101" lon="6.67677">
        <ele>360</ele>
        <time>2015-08-20T13:00:02.000Z</time>
      </trkpt>
      <trkpt lat="47.49102" lon="6.67672">
        <ele>360</ele>
        <time>2015-08-20T13:00:04.000Z</time>
      </trkpt>
      <trkpt lat="47.49102" lon="6.67669">
        <ele>360</ele>
        <time>2015-08-20T13:00:05.000Z</time>
      </trkpt>
      <trkpt lat="47.49102" lon="6.67664">
        <ele>361</ele>
        <time>2015-08-20T13:00:07.000Z</time>
      </trkpt>
      <trkpt lat="47.49103" lon="6.67661">
        <ele>361</ele>
        <time>2015-08-20T13:00:08.000Z</time>
      </trkpt>
      <trkpt lat="47.49103" lon="6.67655">
        <ele>361</ele>
        <time>2015-08-20T13:00:10.000Z</time>
      </trkpt>
      <trkpt lat="47.49103" lon="6.67652">
        <ele>361</ele>
        <time>2015-08-20T13:00:11.000Z</time>
      </trkpt>
      <trkpt lat="47.49103" lon="6.67649">
        <ele>361</ele>
        <time>2015-08-20T13:00:12.000Z</time>
      </trkpt>
      <trkpt lat="47.49103" lon="6.67645">
        <ele>361</ele>
        <time>2015-08-20T13:00:13.000Z</time>
      </trkpt>
      <trkpt lat="47.49103" lon="6.67642">
        <ele>361</ele>
        <time>2015-08-20T13:00:14.000Z</time>
      </trkpt>
      <trkpt lat="47.49104" lon="6.67638">
        <ele>361</ele>
        <time>2015-08-20T13:00:15.000Z</time>
      </trkpt>
      <trkpt lat="47.49103" lon="6.67633">
        <ele>361</ele>
        <time>2015-08-20T13:00:16.000Z</time>
      </trkpt>
      <trkpt lat="47.49103" lon="6.67629">
        <ele>361</ele>
        <time>2015-08-20T13:00:17.000Z</time>
      </trkpt>
      <trkpt lat="47.49103" lon="6.67625">
        <ele>361</ele>
        <time>2015-08-20T13:00:18.000Z</time>
      </trkpt>
      <trkpt lat="47.49103" lon="6.67621">
        <ele>361</ele>
        <time>2015-08-20T13:00:19.000Z</time>
      </trkpt>
      <trkpt lat="47.49103" lon="6.67617">
        <ele>361</ele>
        <time>2015-08-20T13:00:20.000Z</time>
      </trkpt>
      <trkpt lat="47.49103" lon="6.67613">
        <ele>361</ele>
        <time>2015-08-20T13:00:21.000Z</time>
      </trkpt>
      <trkpt lat="47.49102" lon="6.67608">
        <ele>361</ele>
        <time>2015-08-20T13:00:30.000Z</time>
      </trkpt>
      <trkpt lat="47.49101" lon="6.67606">
        <ele>361</ele>
        <time>2015-08-20T13:00:31.000Z</time>
      </trkpt>
      <trkpt lat="47.491" lon="6.676">
        <ele>362</ele>
        <time>2015-08-20T13:00:33.000Z</time>
      </trkpt>
      <trkpt lat="47.49099" lon="6.67596">
        <ele>362</ele>
        <time>2015-08-20T13:00:34.000Z</time>
      </trkpt>
      <trkpt lat="47.49098" lon="6.67593">
        <ele>362</ele>
        <time>2015-08-20T13:00:35.000Z</time>
      </trkpt>
      <trkpt lat="47.49098" lon="6.67589">
        <ele>362</ele>
        <time>2015-08-20T13:00:35.999Z</time>
      </trkpt>
      <trkpt lat="47.49096" lon="6.67585">
        <ele>362</ele>
        <time>2015-08-20T13:00:37.000Z</time>
      </trkpt>
      <trkpt lat="47.49095" lon="6.67582">
        <ele>362</ele>
        <time>2015-08-20T13:00:38.000Z</time>
      </trkpt>
      <trkpt lat="47.49095" lon="6.67578">
        <ele>362</ele>
        <time>2015-08-20T13:00:39.000Z</time>
      </trkpt>
      <trkpt lat="47.49095" lon="6.67575">
        <ele>362</ele>
        <time>2015-08-20T13:00:40.000Z</time>
      </trkpt>
      <trkpt lat="47.49096" lon="6.67571">
        <ele>362</ele>
        <time>2015-08-20T13:00:41.000Z</time>
      </trkpt>
      <trkpt lat="47.49096" lon="6.67566">
        <ele>362</ele>
        <time>2015-08-20T13:00:42.000Z</time>
      </trkpt>
      <trkpt lat="47.49097" lon="6.6756">
        <ele>361</ele>
        <time>2015-08-20T13:00:43.000Z</time>
      </trkpt>
      <trkpt lat="47.49097" lon="6.67548">
        <ele>361</ele>
        <time>2015-08-20T13:00:44.000Z</time>
      </trkpt>
      <trkpt lat="47.49096" lon="6.67541">
        <ele>361</ele>
        <time>2015-08-20T13:00:45.000Z</time>
      </trkpt>
      <trkpt lat="47.49094" lon="6.67533">
        <ele>361</ele>
        <time>2015-08-20T13:00:46.000Z</time>
      </trkpt>
      <trkpt lat="47.49092" lon="6.67525">
        <ele>360</ele>
        <time>2015-08-20T13:00:47.000Z</time>
      </trkpt>
      <trkpt lat="47.49088" lon="6.67518">
        <ele>360</ele>
        <time>2015-08-20T13:00:48.000Z</time>
      </trkpt>
      <trkpt lat="47.49085" lon="6.67512">
        <ele>360</ele>
        <time>2015-08-20T13:00:49.000Z</time>
      </trkpt>
      <trkpt lat="47.49079" lon="6.67508">
        <ele>361</ele>
        <time>2015-08-20T13:00:50.000Z</time>
      </trkpt>
      <trkpt lat="47.49074" lon="6.67503">
        <ele>361</ele>
        <time>2015-08-20T13:00:51.000Z</time>
      </trkpt>
      <trkpt lat="47.4907" lon="6.67498">
        <ele>360</ele>
        <time>2015-08-20T13:00:52.000Z</time>
      </trkpt>
      <trkpt lat="47.49068" lon="6.67492">
        <ele>360</ele>
        <time>2015-08-20T13:00:53.000Z</time>
      </trkpt>
      <trkpt lat="47.49065" lon="6.67483">
        <ele>359</ele>
        <time>2015-08-20T13:00:54.000Z</time>
      </trkpt>
      <trkpt lat="47.49062" lon="6.67474">
        <ele>359</ele>
        <time>2015-08-20T13:00:55.000Z</time>
      </trkpt>
      <trkpt lat="47.49064" lon="6.67464">
        <ele>359</ele>
        <time>2015-08-20T13:00:56.000Z</time>
      </trkpt>
      <trkpt lat="47.49063" lon="6.67456">
        <ele>359</ele>
        <time>2015-08-20T13:00:57.000Z</time>
      </trkpt>
      <trkpt lat="47.49063" lon="6.67448">
        <ele>358</ele>
        <time>2015-08-20T13:00:58.000Z</time>
      </trkpt>
      <trkpt lat="47.49064" lon="6.6744">
        <ele>358</ele>
        <time>2015-08-20T13:00:59.000Z</time>
      </trkpt>
      <trkpt lat="47.49065" lon="6.67431">
        <ele>358</ele>
        <time>2015-08-20T13:01:00.000Z</time>
      </trkpt>
      <trkpt lat="47.49066" lon="6.67423">
        <ele>357</ele>
        <time>2015-08-20T13:01:01.000Z</time>
      </trkpt>
      <trkpt lat="47.49067" lon="6.67415">
        <ele>356</ele>
        <time>2015-08-20T13:01:02.000Z</time>
      </trkpt>
      <trkpt lat="47.49068" lon="6.67407">
        <ele>356</ele>
        <time>2015-08-20T13:01:03.000Z</time>
      </trkpt>
      <trkpt lat="47.49068" lon="6.674">
        <ele>356</ele>
        <time>2015-08-20T13:01:04.000Z</time>
      </trkpt>
      <trkpt lat="47.49069" lon="6.67393">
        <ele>356</ele>
        <time>2015-08-20T13:01:05.000Z</time>
      </trkpt>
      <trkpt lat="47.49071" lon="6.67387">
        <ele>356</ele>
        <time>2015-08-20T13:01:06.000Z</time>
      </trkpt>
      <trkpt lat="47.49072" lon="6.67381">
        <ele>356</ele>
        <time>2015-08-20T13:01:07.000Z</time>
      </trkpt>
      <trkpt lat="47.49073" lon="6.67375">
        <ele>356</ele>
        <time>2015-08-20T13:01:08.000Z</time>
      </trkpt>
      <trkpt lat="47.49074" lon="6.6737">
        <ele>355</ele>
        <time>2015-08-20T13:01:09.000Z</time>
      </trkpt>
      <trkpt lat="47.49076" lon="6.67363">
        <ele>355</ele>
        <time>2015-08-20T13:01:10.000Z</time>
      </trkpt>
      <trkpt lat="47.49077" lon="6.67359">
        <ele>355</ele>
        <time>2015-08-20T13:01:11.000Z</time>
      </trkpt>
      <trkpt lat="47.49078" lon="6.67353">
        <ele>355</ele>
        <time>2015-08-20T13:01:12.000Z</time>
      </trkpt>
      <trkpt lat="47.4908" lon="6.67347">
        <ele>355</ele>
        <time>2015-08-20T13:01:13.000Z</time>
      </trkpt>
      <trkpt lat="47.49081" lon="6.67343">
        <ele>355</ele>
        <time>2015-08-20T13:01:14.000Z</time>
      </trkpt>
      <trkpt lat="47.49082" lon="6.67338">
        <ele>354</ele>
        <time>2015-08-20T13:01:15.000Z</time>
      </trkpt>
      <trkpt lat="47.49083" lon="6.67333">
        <ele>354</ele>
        <time>2015-08-20T13:01:16.000Z</time>
      </trkpt>
      <trkpt lat="47.49084" lon="6.67328">
        <ele>354</ele>
        <time>2015-08-20T13:01:17.000Z</time>
      </trkpt>
      <trkpt lat="47.49086" lon="6.67323">
        <ele>355</ele>
        <time>2015-08-20T13:01:18.000Z</time>
      </trkpt>
      <trkpt lat="47.49087" lon="6.67317">
        <ele>355</ele>
        <time>2015-08-20T13:01:19.000Z</time>
      </trkpt>
      <trkpt lat="47.49087" lon="6.67312">
        <ele>355</ele>
        <time>2015-08-20T13:01:20.000Z</time>
      </trkpt>
      <trkpt lat="47.49088" lon="6.67307">
        <ele>356</ele>
        <time>2015-08-20T13:01:21.000Z</time>
      </trkpt>
      <trkpt lat="47.49089" lon="6.67303">
        <ele>356</ele>
        <time>2015-08-20T13:01:22.000Z</time>
      </trkpt>
      <trkpt lat="47.4909" lon="6.67299">
        <ele>356</ele>
        <time>2015-08-20T13:01:23.000Z</time>
      </trkpt>
      <trkpt lat="47.4909" lon="6.67295">
        <ele>356</ele>
        <time>2015-08-20T13:01:24.000Z</time>
      </trkpt>
      <trkpt lat="47.49091" lon="6.67291">
        <ele>356</ele>
        <time>2015-08-20T13:01:25.000Z</time>
      </trkpt>
      <trkpt lat="47.49092" lon="6.67287">
        <ele>356</ele>
        <time>2015-08-20T13:01:26.000Z</time>
      </trkpt>
      <trkpt lat="47.49093" lon="6.67282">
        <ele>356</ele>
        <time>2015-08-20T13:01:27.000Z</time>
      </trkpt>
      <trkpt lat="47.49094" lon="6.67278">
        <ele>356</ele>
        <time>2015-08-20T13:01:28.000Z</time>
      </trkpt>
      <trkpt lat="47.49095" lon="6.67273">
        <ele>356</ele>
        <time>2015-08-20T13:01:29.000Z</time>
      </trkpt>
      <trkpt lat="47.49096" lon="6.67269">
        <ele>356</ele>
        <time>2015-08-20T13:01:30.000Z</time>
      </trkpt>
      <trkpt lat="47.49097" lon="6.67264">
        <ele>356</ele>
        <time>2015-08-20T13:01:31.000Z</time>
      </trkpt>
      <trkpt lat="47.49099" lon="6.6726">
        <ele>356</ele>
        <time>2015-08-20T13:01:32.000Z</time>
      </trkpt>
      <trkpt lat="47.49101" lon="6.67256">
        <ele>356</ele>
        <time>2015-08-20T13:01:33.000Z</time>
      </trkpt>
      <trkpt lat="47.49102" lon="6.67248">
        <ele>358</ele>
        <time>2015-08-20T13:01:34.000Z</time>
      </trkpt>
      <trkpt lat="47.49104" lon="6.67243">
        <ele>358</ele>
        <time>2015-08-20T13:01:35.000Z</time>
      </trkpt>
      <trkpt lat="47.49105" lon="6.67241">
        <ele>358</ele>
        <time>2015-08-20T13:01:36.000Z</time>
      </trkpt>
      <trkpt lat="47.49107" lon="6.67237">
        <ele>358</ele>
        <time>2015-08-20T13:01:37.000Z</time>
      </trkpt>
      <trkpt lat="47.49107" lon="6.67228">
        <ele>359</ele>
        <time>2015-08-20T13:01:38.000Z</time>
      </trkpt>
      <trkpt lat="47.49108" lon="6.6722">
        <ele>359</ele>
        <time>2015-08-20T13:01:39.000Z</time>
      </trkpt>
      <trkpt lat="47.49109" lon="6.67214">
        <ele>359</ele>
        <time>2015-08-20T13:01:40.000Z</time>
      </trkpt>
      <trkpt lat="47.49109" lon="6.67207">
        <ele>359</ele>
        <time>2015-08-20T13:01:41.000Z</time>
      </trkpt>
      <trkpt lat="47.49109" lon="6.67202">
        <ele>360</ele>
        <time>2015-08-20T13:01:42.000Z</time>
      </trkpt>
      <trkpt lat="47.4911" lon="6.67196">
        <ele>360</ele>
        <time>2015-08-20T13:01:43.000Z</time>
      </trkpt>
      <trkpt lat="47.4911" lon="6.67193">
        <ele>360</ele>
        <time>2015-08-20T13:01:44.000Z</time>
      </trkpt>
      <trkpt lat="47.4911" lon="6.67189">
        <ele>360</ele>
        <time>2015-08-20T13:01:45.000Z</time>
      </trkpt>
      <trkpt lat="47.49111" lon="6.67184">
        <ele>360</ele>
        <time>2015-08-20T13:01:46.000Z</time>
      </trkpt>
      <trkpt lat="47.49112" lon="6.6718">
        <ele>360</ele>
        <time>2015-08-20T13:01:47.000Z</time>
      </trkpt>
      <trkpt lat="47.49111" lon="6.67175">
        <ele>360</ele>
        <time>2015-08-20T13:01:48.000Z</time>
      </trkpt>
      <trkpt lat="47.49111" lon="6.67171">
        <ele>360</ele>
        <time>2015-08-20T13:01:49.000Z</time>
      </trkpt>
      <trkpt lat="47.49111" lon="6.67168">
        <ele>360</ele>
        <time>2015-08-20T13:01:50.000Z</time>
      </trkpt>
      <trkpt lat="47.49111" lon="6.67164">
        <ele>363</ele>
        <time>2015-08-20T13:01:51.000Z</time>
      </trkpt>
      <trkpt lat="47.49111" lon="6.6716">
        <ele>363</ele>
        <time>2015-08-20T13:01:52.000Z</time>
      </trkpt>
      <trkpt lat="47.49111" lon="6.67155">
        <ele>363</ele>
        <time>2015-08-20T13:01:53.000Z</time>
      </trkpt>
      <trkpt lat="47.49111" lon="6.67151">
        <ele>363</ele>
        <time>2015-08-20T13:01:54.000Z</time>
      </trkpt>
      <trkpt lat="47.49111" lon="6.67146">
        <ele>363</ele>
        <time>2015-08-20T13:01:55.000Z</time>
      </trkpt>
      <trkpt lat="47.4911" lon="6.67141">
        <ele>363</ele>
        <time>2015-08-20T13:01:56.000Z</time>
      </trkpt>
      <trkpt lat="47.4911" lon="6.67136">
        <ele>363</ele>
        <time>2015-08-20T13:01:57.000Z</time>
      </trkpt>
      <trkpt lat="47.4911" lon="6.67131">
        <ele>364</ele>
        <time>2015-08-20T13:01:58.000Z</time>
      </trkpt>
      <trkpt lat="47.4911" lon="6.67126">
        <ele>364</ele>
        <time>2015-08-20T13:01:58.998Z</time>
      </trkpt>
      <trkpt lat="47.4911" lon="6.67122">
        <ele>364</ele>
        <time>2015-08-20T13:02:00.000Z</time>
      </trkpt>
      <trkpt lat="47.49109" lon="6.67118">
        <ele>364</ele>
        <time>2015-08-20T13:02:01.000Z</time>
      </trkpt>
      <trkpt lat="47.49109" lon="6.67115">
        <ele>364</ele>
        <time>2015-08-20T13:02:02.000Z</time>
      </trkpt>
      <trkpt lat="47.49108" lon="6.67111">
        <ele>364</ele>
        <time>2015-08-20T13:02:03.000Z</time>
      </trkpt>
      <trkpt lat="47.49108" lon="6.67107">
        <ele>364</ele>
        <time>2015-08-20T13:02:04.000Z</time>
      </trkpt>
      <trkpt lat="47.49108" lon="6.67103">
        <ele>365</ele>
        <time>2015-08-20T13:02:05.000Z</time>
      </trkpt>
      <trkpt lat="47.49108" lon="6.671">
        <ele>365</ele>
        <time>2015-08-20T13:02:06.000Z</time>
      </trkpt>
      <trkpt lat="47.49108" lon="6.67096">
        <ele>365</ele>
        <time>2015-08-20T13:02:07.000Z</time>
      </trkpt>
      <trkpt lat="47.49108" lon="6.67092">
        <ele>365</ele>
        <time>2015-08-20T13:02:08.000Z</time>
      </trkpt>
      <trkpt lat="47.49109" lon="6.67088">
        <ele>365</ele>
        <time>2015-08-20T13:02:09.000Z</time>
      </trkpt>
      <trkpt lat="47.49109" lon="6.67083">
        <ele>368</ele>
        <time>2015-08-20T13:02:10.000Z</time>
      </trkpt>
      <trkpt lat="47.4911" lon="6.67079">
        <ele>368</ele>
        <time>2015-08-20T13:02:11.000Z</time>
      </trkpt>
      <trkpt lat="47.4911" lon="6.67075">
        <ele>368</ele>
        <time>2015-08-20T13:02:12.000Z</time>
      </trkpt>
      <trkpt lat="47.4911" lon="6.67071">
        <ele>368</ele>
        <time>2015-08-20T13:02:13.000Z</time>
      </trkpt>
      <trkpt lat="47.4911" lon="6.67067">
        <ele>368</ele>
        <time>2015-08-20T13:02:14.000Z</time>
      </trkpt>
      <trkpt lat="47.4911" lon="6.67064">
        <ele>368</ele>
        <time>2015-08-20T13:02:15.000Z</time>
      </trkpt>
      <trkpt lat="47.49108" lon="6.67058">
        <ele>368</ele>
        <time>2015-08-20T13:02:17.000Z</time>
      </trkpt>
      <trkpt lat="47.49108" lon="6.67056">
        <ele>368</ele>
        <time>2015-08-20T13:02:18.000Z</time>
      </trkpt>
      <trkpt lat="47.49107" lon="6.67052">
        <ele>369</ele>
        <time>2015-08-20T13:02:19.000Z</time>
      </trkpt>
      <trkpt lat="47.49106" lon="6.67048">
        <ele>369</ele>
        <time>2015-08-20T13:02:20.000Z</time>
      </trkpt>
      <trkpt lat="47.49105" lon="6.67044">
        <ele>369</ele>
        <time>2015-08-20T13:02:21.000Z</time>
      </trkpt>
      <trkpt lat="47.49105" lon="6.6704">
        <ele>369</ele>
        <time>2015-08-20T13:02:22.000Z</time>
      </trkpt>
      <trkpt lat="47.49104" lon="6.67036">
        <ele>369</ele>
        <time>2015-08-20T13:02:23.000Z</time>
      </trkpt>
      <trkpt lat="47.49103" lon="6.67032">
        <ele>369</ele>
        <time>2015-08-20T13:02:24.000Z</time>
      </trkpt>
      <trkpt lat="47.49102" lon="6.67028">
        <ele>369</ele>
        <time>2015-08-20T13:02:25.000Z</time>
      </trkpt>
      <trkpt lat="47.49101" lon="6.67025">
        <ele>370</ele>
        <time>2015-08-20T13:02:26.000Z</time>
      </trkpt>
      <trkpt lat="47.49101" lon="6.67021">
        <ele>370</ele>
        <time>2015-08-20T13:02:27.000Z</time>
      </trkpt>
      <trkpt lat="47.49099" lon="6.67013">
        <ele>370</ele>
        <time>2015-08-20T13:02:29.000Z</time>
      </trkpt>
      <trkpt lat="47.49098" lon="6.67009">
        <ele>370</ele>
        <time>2015-08-20T13:02:30.000Z</time>
      </trkpt>
      <trkpt lat="47.49098" lon="6.67005">
        <ele>371</ele>
        <time>2015-08-20T13:02:31.000Z</time>
      </trkpt>
      <trkpt lat="47.49097" lon="6.67001">
        <ele>371</ele>
        <time>2015-08-20T13:02:32.000Z</time>
      </trkpt>
      <trkpt lat="47.49097" lon="6.66998">
        <ele>373</ele>
        <time>2015-08-20T13:02:33.000Z</time>
      </trkpt>
      <trkpt lat="47.49096" lon="6.66994">
        <ele>373</ele>
        <time>2015-08-20T13:02:34.000Z</time>
      </trkpt>
      <trkpt lat="47.49096" lon="6.66991">
        <ele>373</ele>
        <time>2015-08-20T13:02:35.000Z</time>
      </trkpt>
      <trkpt lat="47.49095" lon="6.66985">
        <ele>373</ele>
        <time>2015-08-20T13:02:37.000Z</time>
      </trkpt>
      <trkpt lat="47.49095" lon="6.66981">
        <ele>373</ele>
        <time>2015-08-20T13:02:38.000Z</time>
      </trkpt>
      <trkpt lat="47.49094" lon="6.66978">
        <ele>373</ele>
        <time>2015-08-20T13:02:39.000Z</time>
      </trkpt>
      <trkpt lat="47.49094" lon="6.66974">
        <ele>374</ele>
        <time>2015-08-20T13:02:40.000Z</time>
      </trkpt>
      <trkpt lat="47.49094" lon="6.66968">
        <ele>374</ele>
        <time>2015-08-20T13:02:42.000Z</time>
      </trkpt>
      <trkpt lat="47.49093" lon="6.66965">
        <ele>374</ele>
        <time>2015-08-20T13:02:43.000Z</time>
      </trkpt>
      <trkpt lat="47.49092" lon="6.66959">
        <ele>374</ele>
        <time>2015-08-20T13:02:45.000Z</time>
      </trkpt>
      <trkpt lat="47.49091" lon="6.66957">
        <ele>374</ele>
        <time>2015-08-20T13:02:46.000Z</time>
      </trkpt>
      <trkpt lat="47.4909" lon="6.66952">
        <ele>374</ele>
        <time>2015-08-20T13:02:48.000Z</time>
      </trkpt>
      <trkpt lat="47.49089" lon="6.6695">
        <ele>375</ele>
        <time>2015-08-20T13:02:49.000Z</time>
      </trkpt>
      <trkpt lat="47.49087" lon="6.66945">
        <ele>375</ele>
        <time>2015-08-20T13:02:51.000Z</time>
      </trkpt>
      <trkpt lat="47.49085" lon="6.66943">
        <ele>375</ele>
        <time>2015-08-20T13:02:52.000Z</time>
      </trkpt>
      <trkpt lat="47.49083" lon="6.6694">
        <ele>376</ele>
        <time>2015-08-20T13:02:53.000Z</time>
      </trkpt>
      <trkpt lat="47.49081" lon="6.66938">
        <ele>376</ele>
        <time>2015-08-20T13:02:54.000Z</time>
      </trkpt>
      <trkpt lat="47.49079" lon="6.66936">
        <ele>376</ele>
        <time>2015-08-20T13:02:55.000Z</time>
      </trkpt>
      <trkpt lat="47.49077" lon="6.66934">
        <ele>376</ele>
        <time>2015-08-20T13:02:56.000Z</time>
      </trkpt>
      <trkpt lat="47.49073" lon="6.6693">
        <ele>377</ele>
        <time>2015-08-20T13:02:58.000Z</time>
      </trkpt>
      <trkpt lat="47.49072" lon="6.66928">
        <ele>377</ele>
        <time>2015-08-20T13:02:59.000Z</time>
      </trkpt>
      <trkpt lat="47.49069" lon="6.66924">
        <ele>377</ele>
        <time>2015-08-20T13:03:01.000Z</time>
      </trkpt>
      <trkpt lat="47.49067" lon="6.66921">
        <ele>377</ele>
        <time>2015-08-20T13:03:02.000Z</time>
      </trkpt>
      <trkpt lat="47.49065" lon="6.66916">
        <ele>379</ele>
        <time>2015-08-20T13:03:04.000Z</time>
      </trkpt>
      <trkpt lat="47.49064" lon="6.66913">
        <ele>379</ele>
        <time>2015-08-20T13:03:05.000Z</time>
      </trkpt>
      <trkpt lat="47.4906" lon="6.66909">
        <ele>379</ele>
        <time>2015-08-20T13:03:07.000Z</time>
      </trkpt>
      <trkpt lat="47.49059" lon="6.66907">
        <ele>379</ele>
        <time>2015-08-20T13:03:08.000Z</time>
      </trkpt>
      <trkpt lat="47.49057" lon="6.66904">
        <ele>380</ele>
        <time>2015-08-20T13:03:10.000Z</time>
      </trkpt>
      <trkpt lat="47.49056" lon="6.66902">
        <ele>380</ele>
        <time>2015-08-20T13:03:11.000Z</time>
      </trkpt>
      <trkpt lat="47.49053" lon="6.66898">
        <ele>380</ele>
        <time>2015-08-20T13:03:13.000Z</time>
      </trkpt>
      <trkpt lat="47.49052" lon="6.66897">
        <ele>380</ele>
        <time>2015-08-20T13:03:14.000Z</time>
      </trkpt>
      <trkpt lat="47.49049" lon="6.66893">
        <ele>380</ele>
        <time>2015-08-20T13:03:17.000Z</time>
      </trkpt>
      <trkpt lat="47.49048" lon="6.66891">
        <ele>380</ele>
        <time>2015-08-20T13:03:18.000Z</time>
      </trkpt>
      <trkpt lat="47.49045" lon="6.66888">
        <ele>380</ele>
        <time>2015-08-20T13:03:20.000Z</time>
      </trkpt>
      <trkpt lat="47.49044" lon="6.66887">
        <ele>380</ele>
        <time>2015-08-20T13:03:21.000Z</time>
      </trkpt>
      <trkpt lat="47.49041" lon="6.66884">
        <ele>380</ele>
        <time>2015-08-20T13:03:23.000Z</time>
      </trkpt>
      <trkpt lat="47.49039" lon="6.66882">
        <ele>381</ele>
        <time>2015-08-20T13:03:24.000Z</time>
      </trkpt>
      <trkpt lat="47.49038" lon="6.66876">
        <ele>381</ele>
        <time>2015-08-20T13:03:27.000Z</time>
      </trkpt>
      <trkpt lat="47.4904" lon="6.66872">
        <ele>381</ele>
        <time>2015-08-20T13:03:29.000Z</time>
      </trkpt>
      <trkpt lat="47.49043" lon="6.66871">
        <ele>381</ele>
        <time>2015-08-20T13:03:30.000Z</time>
      </trkpt>
      <trkpt lat="47.49045" lon="6.6687">
        <ele>381</ele>
        <time>2015-08-20T13:03:31.000Z</time>
      </trkpt>
      <trkpt lat="47.49048" lon="6.66869">
        <ele>381</ele>
        <time>2015-08-20T13:03:32.000Z</time>
      </trkpt>
      <trkpt lat="47.4905" lon="6.66869">
        <ele>381</ele>
        <time>2015-08-20T13:03:33.000Z</time>
      </trkpt>
      <trkpt lat="47.49053" lon="6.66868">
        <ele>381</ele>
        <time>2015-08-20T13:03:34.000Z</time>
      </trkpt>
      <trkpt lat="47.49055" lon="6.66867">
        <ele>381</ele>
        <time>2015-08-20T13:03:35.000Z</time>
      </trkpt>
      <trkpt lat="47.49058" lon="6.66867">
        <ele>381</ele>
        <time>2015-08-20T13:03:37.000Z</time>
      </trkpt>
      <trkpt lat="47.49059" lon="6.66867">
        <ele>381</ele>
        <time>2015-08-20T13:03:38.000Z</time>
      </trkpt>
      <trkpt lat="47.49063" lon="6.66865">
        <ele>381</ele>
        <time>2015-08-20T13:03:41.000Z</time>
      </trkpt>
      <trkpt lat="47.49065" lon="6.66863">
        <ele>381</ele>
        <time>2015-08-20T13:03:42.000Z</time>
      </trkpt>
      <trkpt lat="47.49066" lon="6.6686">
        <ele>382</ele>
        <time>2015-08-20T13:03:43.000Z</time>
      </trkpt>
      <trkpt lat="47.49068" lon="6.66858">
        <ele>382</ele>
        <time>2015-08-20T13:03:44.000Z</time>
      </trkpt>
      <trkpt lat="47.4907" lon="6.66856">
        <ele>382</ele>
        <time>2015-08-20T13:03:45.000Z</time>
      </trkpt>
      <trkpt lat="47.49072" lon="6.66854">
        <ele>382</ele>
        <time>2015-08-20T13:03:46.000Z</time>
      </trkpt>
      <trkpt lat="47.49074" lon="6.66851">
        <ele>382</ele>
        <time>2015-08-20T13:03:47.000Z</time>
      </trkpt>
      <trkpt lat="47.49076" lon="6.66849">
        <ele>383</ele>
        <time>2015-08-20T13:03:48.000Z</time>
      </trkpt>
      <trkpt lat="47.49078" lon="6.66846">
        <ele>383</ele>
        <time>2015-08-20T13:03:49.000Z</time>
      </trkpt>
      <trkpt lat="47.4908" lon="6.66844">
        <ele>383</ele>
        <time>2015-08-20T13:03:50.000Z</time>
      </trkpt>
      <trkpt lat="47.49083" lon="6.66843">
        <ele>384</ele>
        <time>2015-08-20T13:03:51.000Z</time>
      </trkpt>
      <trkpt lat="47.49085" lon="6.66841">
        <ele>384</ele>
        <time>2015-08-20T13:03:52.000Z</time>
      </trkpt>
      <trkpt lat="47.49088" lon="6.66838">
        <ele>384</ele>
        <time>2015-08-20T13:03:54.000Z</time>
      </trkpt>
      <trkpt lat="47.4909" lon="6.66836">
        <ele>384</ele>
        <time>2015-08-20T13:03:55.000Z</time>
      </trkpt>
      <trkpt lat="47.49093" lon="6.66833">
        <ele>386</ele>
        <time>2015-08-20T13:03:57.000Z</time>
      </trkpt>
      <trkpt lat="47.49094" lon="6.66831">
        <ele>386</ele>
        <time>2015-08-20T13:03:58.000Z</time>
      </trkpt>
      <trkpt lat="47.49096" lon="6.66829">
        <ele>387</ele>
        <time>2015-08-20T13:04:00.000Z</time>
      </trkpt>
      <trkpt lat="47.49097" lon="6.66827">
        <ele>387</ele>
        <time>2015-08-20T13:04:01.000Z</time>
      </trkpt>
      <trkpt lat="47.49101" lon="6.66823">
        <ele>387</ele>
        <time>2015-08-20T13:04:03.000Z</time>
      </trkpt>
      <trkpt lat="47.49102" lon="6.66821">
        <ele>388</ele>
        <time>2015-08-20T13:04:04.000Z</time>
      </trkpt>
      <trkpt lat="47.49105" lon="6.66817">
        <ele>388</ele>
        <time>2015-08-20T13:04:06.000Z</time>
      </trkpt>
      <trkpt lat="47.49106" lon="6.66815">
        <ele>388</ele>
        <time>2015-08-20T13:04:07.000Z</time>
      </trkpt>
      <trkpt lat="47.49109" lon="6.66812">
        <ele>388</ele>
        <time>2015-08-20T13:04:09.000Z</time>
      </trkpt>
      <trkpt lat="47.49111" lon="6.6681">
        <ele>388</ele>
        <time>2015-08-20T13:04:10.000Z</time>
      </trkpt>
      <trkpt lat="47.49114" lon="6.66807">
        <ele>389</ele>
        <time>2015-08-20T13:04:12.000Z</time>
      </trkpt>
      <trkpt lat="47.49116" lon="6.66806">
        <ele>389</ele>
        <time>2015-08-20T13:04:13.000Z</time>
      </trkpt>
      <trkpt lat="47.49118" lon="6.66803">
        <ele>389</ele>
        <time>2015-08-20T13:04:15.000Z</time>
      </trkpt>
      <trkpt lat="47.49119" lon="6.66801">
        <ele>389</ele>
        <time>2015-08-20T13:04:16.000Z</time>
      </trkpt>
      <trkpt lat="47.49121" lon="6.66795">
        <ele>389</ele>
        <time>2015-08-20T13:04:19.000Z</time>
      </trkpt>
      <trkpt lat="47.49122" lon="6.66793">
        <ele>389</ele>
        <time>2015-08-20T13:04:20.001Z</time>
      </trkpt>
      <trkpt lat="47.49123" lon="6.66788">
        <ele>390</ele>
        <time>2015-08-20T13:04:22.000Z</time>
      </trkpt>
      <trkpt lat="47.49125" lon="6.66786">
        <ele>390</ele>
        <time>2015-08-20T13:04:23.000Z</time>
      </trkpt>
      <trkpt lat="47.49128" lon="6.66785">
        <ele>390</ele>
        <time>2015-08-20T13:04:25.000Z</time>
      </trkpt>
      <trkpt lat="47.49129" lon="6.66783">
        <ele>390</ele>
        <time>2015-08-20T13:04:26.000Z</time>
      </trkpt>
      <trkpt lat="47.4913" lon="6.66781">
        <ele>390</ele>
        <time>2015-08-20T13:04:27.000Z</time>
      </trkpt>
      <trkpt lat="47.49132" lon="6.66777">
        <ele>390</ele>
        <time>2015-08-20T13:04:29.000Z</time>
      </trkpt>
      <trkpt lat="47.49133" lon="6.66773">
        <ele>391</ele>
        <time>2015-08-20T13:04:31.000Z</time>
      </trkpt>
      <trkpt lat="47.49133" lon="6.66771">
        <ele>391</ele>
        <time>2015-08-20T13:04:32.000Z</time>
      </trkpt>
      <trkpt lat="47.49133" lon="6.66765">
        <ele>391</ele>
        <time>2015-08-20T13:04:34.000Z</time>
      </trkpt>
      <trkpt lat="47.49133" lon="6.66763">
        <ele>391</ele>
        <time>2015-08-20T13:04:35.000Z</time>
      </trkpt>
      <trkpt lat="47.49134" lon="6.66757">
        <ele>391</ele>
        <time>2015-08-20T13:04:37.000Z</time>
      </trkpt>
      <trkpt lat="47.49134" lon="6.66755">
        <ele>391</ele>
        <time>2015-08-20T13:04:38.000Z</time>
      </trkpt>
      <trkpt lat="47.49134" lon="6.66749">
        <ele>396</ele>
        <time>2015-08-20T13:04:40.000Z</time>
      </trkpt>
      <trkpt lat="47.49135" lon="6.66746">
        <ele>396</ele>
        <time>2015-08-20T13:04:41.000Z</time>
      </trkpt>
      <trkpt lat="47.49135" lon="6.66742">
        <ele>396</ele>
        <time>2015-08-20T13:04:43.000Z</time>
      </trkpt>
      <trkpt lat="47.49135" lon="6.66739">
        <ele>396</ele>
        <time>2015-08-20T13:04:44.000Z</time>
      </trkpt>
      <trkpt lat="47.49135" lon="6.66734">
        <ele>396</ele>
        <time>2015-08-20T13:04:46.000Z</time>
      </trkpt>
      <trkpt lat="47.49136" lon="6.66732">
        <ele>396</ele>
        <time>2015-08-20T13:04:47.000Z</time>
      </trkpt>
      <trkpt lat="47.49137" lon="6.66727">
        <ele>396</ele>
        <time>2015-08-20T13:04:49.000Z</time>
      </trkpt>
      <trkpt lat="47.49138" lon="6.66726">
        <ele>397</ele>
        <time>2015-08-20T13:04:50.000Z</time>
      </trkpt>
      <trkpt lat="47.49142" lon="6.66723">
        <ele>397</ele>
        <time>2015-08-20T13:04:52.000Z</time>
      </trkpt>
      <trkpt lat="47.49144" lon="6.66722">
        <ele>397</ele>
        <time>2015-08-20T13:04:53.000Z</time>
      </trkpt>
      <trkpt lat="47.49147" lon="6.66719">
        <ele>397</ele>
        <time>2015-08-20T13:04:55.000Z</time>
      </trkpt>
      <trkpt lat="47.49148" lon="6.66717">
        <ele>397</ele>
        <time>2015-08-20T13:04:56.000Z</time>
      </trkpt>
      <trkpt lat="47.49151" lon="6.66715">
        <ele>397</ele>
        <time>2015-08-20T13:04:58.000Z</time>
      </trkpt>
      <trkpt lat="47.49153" lon="6.66714">
        <ele>397</ele>
        <time>2015-08-20T13:04:59.000Z</time>
      </trkpt>
      <trkpt lat="47.49156" lon="6.66712">
        <ele>397</ele>
        <time>2015-08-20T13:05:01.000Z</time>
      </trkpt>
      <trkpt lat="47.49157" lon="6.6671">
        <ele>398</ele>
        <time>2015-08-20T13:05:02.000Z</time>
      </trkpt>
      <trkpt lat="47.4916" lon="6.66706">
        <ele>398</ele>
        <time>2015-08-20T13:05:04.000Z</time>
      </trkpt>
      <trkpt lat="47.49161" lon="6.66704">
        <ele>398</ele>
        <time>2015-08-20T13:05:05.000Z</time>
      </trkpt>
      <trkpt lat="47.49164" lon="6.66699">
        <ele>398</ele>
        <time>2015-08-20T13:05:07.000Z</time>
      </trkpt>
      <trkpt lat="47.49166" lon="6.66697">
        <ele>399</ele>
        <time>2015-08-20T13:05:08.000Z</time>
      </trkpt>
      <trkpt lat="47.49168" lon="6.66694">
        <ele>400</ele>
        <time>2015-08-20T13:05:10.000Z</time>
      </trkpt>
      <trkpt lat="47.4917" lon="6.66692">
        <ele>400</ele>
        <time>2015-08-20T13:05:11.000Z</time>
      </trkpt>
      <trkpt lat="47.49172" lon="6.66688">
        <ele>401</ele>
        <time>2015-08-20T13:05:13.000Z</time>
      </trkpt>
      <trkpt lat="47.49174" lon="6.66686">
        <ele>401</ele>
        <time>2015-08-20T13:05:14.000Z</time>
      </trkpt>
      <trkpt lat="47.49176" lon="6.66682">
        <ele>401</ele>
        <time>2015-08-20T13:05:16.000Z</time>
      </trkpt>
      <trkpt lat="47.49178" lon="6.6668">
        <ele>401</ele>
        <time>2015-08-20T13:05:17.000Z</time>
      </trkpt>
      <trkpt lat="47.49181" lon="6.66677">
        <ele>401</ele>
        <time>2015-08-20T13:05:19.000Z</time>
      </trkpt>
      <trkpt lat="47.49182" lon="6.66675">
        <ele>401</ele>
        <time>2015-08-20T13:05:20.000Z</time>
      </trkpt>
      <trkpt lat="47.49186" lon="6.66673">
        <ele>401</ele>
        <time>2015-08-20T13:05:23.000Z</time>
      </trkpt>
      <trkpt lat="47.49187" lon="6.66671">
        <ele>401</ele>
        <time>2015-08-20T13:05:24.000Z</time>
      </trkpt>
      <trkpt lat="47.4919" lon="6.66667">
        <ele>401</ele>
        <time>2015-08-20T13:05:26.000Z</time>
      </trkpt>
      <trkpt lat="47.49191" lon="6.66664">
        <ele>405</ele>
        <time>2015-08-20T13:05:27.000Z</time>
      </trkpt>
      <trkpt lat="47.49194" lon="6.66659">
        <ele>405</ele>
        <time>2015-08-20T13:05:29.000Z</time>
      </trkpt>
      <trkpt lat="47.49195" lon="6.66657">
        <ele>405</ele>
        <time>2015-08-20T13:05:30.000Z</time>
      </trkpt>
      <trkpt lat="47.49198" lon="6.66653">
        <ele>405</ele>
        <time>2015-08-20T13:05:32.000Z</time>
      </trkpt>
      <trkpt lat="47.492" lon="6.66651">
        <ele>405</ele>
        <time>2015-08-20T13:05:33.000Z</time>
      </trkpt>
      <trkpt lat="47.49203" lon="6.66649">
        <ele>405</ele>
        <time>2015-08-20T13:05:35.000Z</time>
      </trkpt>
      <trkpt lat="47.49205" lon="6.66648">
        <ele>406</ele>
        <time>2015-08-20T13:05:36.000Z</time>
      </trkpt>
      <trkpt lat="47.49209" lon="6.66646">
        <ele>406</ele>
        <time>2015-08-20T13:05:38.000Z</time>
      </trkpt>
      <trkpt lat="47.49211" lon="6.66644">
        <ele>406</ele>
        <time>2015-08-20T13:05:39.000Z</time>
      </trkpt>
      <trkpt lat="47.49215" lon="6.66642">
        <ele>406</ele>
        <time>2015-08-20T13:05:41.000Z</time>
      </trkpt>
      <trkpt lat="47.49217" lon="6.6664">
        <ele>406</ele>
        <time>2015-08-20T13:05:42.000Z</time>
      </trkpt>
      <trkpt lat="47.49219" lon="6.66638">
        <ele>406</ele>
        <time>2015-08-20T13:05:43.000Z</time>
      </trkpt>
      <trkpt lat="47.49221" lon="6.66637">
        <ele>406</ele>
        <time>2015-08-20T13:05:44.000Z</time>
      </trkpt>
      <trkpt lat="47.49223" lon="6.66635">
        <ele>406</ele>
        <time>2015-08-20T13:05:45.000Z</time>
      </trkpt>
      <trkpt lat="47.49225" lon="6.66633">
        <ele>406</ele>
        <time>2015-08-20T13:05:46.000Z</time>
      </trkpt>
      <trkpt lat="47.49227" lon="6.66632">
        <ele>406</ele>
        <time>2015-08-20T13:05:47.000Z</time>
      </trkpt>
      <trkpt lat="47.49229" lon="6.6663">
        <ele>406</ele>
        <time>2015-08-20T13:05:48.000Z</time>
      </trkpt>
      <trkpt lat="47.49231" lon="6.66629">
        <ele>406</ele>
        <time>2015-08-20T13:05:49.000Z</time>
      </trkpt>
      <trkpt lat="47.49233" lon="6.66627">
        <ele>406</ele>
        <time>2015-08-20T13:05:50.000Z</time>
      </trkpt>
      <trkpt lat="47.49235" lon="6.66625">
        <ele>406</ele>
        <time>2015-08-20T13:05:51.000Z</time>
      </trkpt>
      <trkpt lat="47.49237" lon="6.66624">
        <ele>407</ele>
        <time>2015-08-20T13:05:52.000Z</time>
      </trkpt>
      <trkpt lat="47.49241" lon="6.66621">
        <ele>407</ele>
        <time>2015-08-20T13:05:54.000Z</time>
      </trkpt>
      <trkpt lat="47.49243" lon="6.6662">
        <ele>407</ele>
        <time>2015-08-20T13:05:55.000Z</time>
      </trkpt>
      <trkpt lat="47.49247" lon="6.66617">
        <ele>407</ele>
        <time>2015-08-20T13:05:57.000Z</time>
      </trkpt>
      <trkpt lat="47.49248" lon="6.66616">
        <ele>407</ele>
        <time>2015-08-20T13:05:58.000Z</time>
      </trkpt>
      <trkpt lat="47.49252" lon="6.66612">
        <ele>408</ele>
        <time>2015-08-20T13:06:00.000Z</time>
      </trkpt>
      <trkpt lat="47.49254" lon="6.66611">
        <ele>408</ele>
        <time>2015-08-20T13:06:01.000Z</time>
      </trkpt>
      <trkpt lat="47.49257" lon="6.66608">
        <ele>408</ele>
        <time>2015-08-20T13:06:03.000Z</time>
      </trkpt>
      <trkpt lat="47.49258" lon="6.66606">
        <ele>408</ele>
        <time>2015-08-20T13:06:04.000Z</time>
      </trkpt>
      <trkpt lat="47.4926" lon="6.66603">
        <ele>408</ele>
        <time>2015-08-20T13:06:05.000Z</time>
      </trkpt>
      <trkpt lat="47.49261" lon="6.66599">
        <ele>409</ele>
        <time>2015-08-20T13:06:06.000Z</time>
      </trkpt>
      <trkpt lat="47.49261" lon="6.66595">
        <ele>409</ele>
        <time>2015-08-20T13:06:07.000Z</time>
      </trkpt>
      <trkpt lat="47.49261" lon="6.66591">
        <ele>409</ele>
        <time>2015-08-20T13:06:08.000Z</time>
      </trkpt>
      <trkpt lat="47.49262" lon="6.66586">
        <ele>409</ele>
        <time>2015-08-20T13:06:10.000Z</time>
      </trkpt>
      <trkpt lat="47.49262" lon="6.66584">
        <ele>409</ele>
        <time>2015-08-20T13:06:11.000Z</time>
      </trkpt>
      <trkpt lat="47.49266" lon="6.66581">
        <ele>411</ele>
        <time>2015-08-20T13:06:13.000Z</time>
      </trkpt>
      <trkpt lat="47.49268" lon="6.6658">
        <ele>411</ele>
        <time>2015-08-20T13:06:14.000Z</time>
      </trkpt>
      <trkpt lat="47.4927" lon="6.66579">
        <ele>411</ele>
        <time>2015-08-20T13:06:15.000Z</time>
      </trkpt>
      <trkpt lat="47.49273" lon="6.66578">
        <ele>411</ele>
        <time>2015-08-20T13:06:16.000Z</time>
      </trkpt>
      <trkpt lat="47.49275" lon="6.66577">
        <ele>411</ele>
        <time>2015-08-20T13:06:17.000Z</time>
      </trkpt>
      <trkpt lat="47.49277" lon="6.66577">
        <ele>412</ele>
        <time>2015-08-20T13:06:18.000Z</time>
      </trkpt>
      <trkpt lat="47.4928" lon="6.66576">
        <ele>412</ele>
        <time>2015-08-20T13:06:19.000Z</time>
      </trkpt>
      <trkpt lat="47.49282" lon="6.66575">
        <ele>412</ele>
        <time>2015-08-20T13:06:20.000Z</time>
      </trkpt>
      <trkpt lat="47.49285" lon="6.66574">
        <ele>412</ele>
        <time>2015-08-20T13:06:21.000Z</time>
      </trkpt>
      <trkpt lat="47.49288" lon="6.66572">
        <ele>412</ele>
        <time>2015-08-20T13:06:22.000Z</time>
      </trkpt>
      <trkpt lat="47.49291" lon="6.6657">
        <ele>412</ele>
        <time>2015-08-20T13:06:23.000Z</time>
      </trkpt>
      <trkpt lat="47.49295" lon="6.66569">
        <ele>412</ele>
        <time>2015-08-20T13:06:24.000Z</time>
      </trkpt>
      <trkpt lat="47.49298" lon="6.66567">
        <ele>412</ele>
        <time>2015-08-20T13:06:25.000Z</time>
      </trkpt>
      <trkpt lat="47.49301" lon="6.66565">
        <ele>412</ele>
        <time>2015-08-20T13:06:26.000Z</time>
      </trkpt>
      <trkpt lat="47.49304" lon="6.66564">
        <ele>412</ele>
        <time>2015-08-20T13:06:27.000Z</time>
      </trkpt>
      <trkpt lat="47.49308" lon="6.66563">
        <ele>412</ele>
        <time>2015-08-20T13:06:28.000Z</time>
      </trkpt>
      <trkpt lat="47.49311" lon="6.66561">
        <ele>412</ele>
        <time>2015-08-20T13:06:29.000Z</time>
      </trkpt>
      <trkpt lat="47.49313" lon="6.6656">
        <ele>412</ele>
        <time>2015-08-20T13:06:30.000Z</time>
      </trkpt>
      <trkpt lat="47.49316" lon="6.66559">
        <ele>412</ele>
        <time>2015-08-20T13:06:31.000Z</time>
      </trkpt>
      <trkpt lat="47.49319" lon="6.66557">
        <ele>412</ele>
        <time>2015-08-20T13:06:32.000Z</time>
      </trkpt>
      <trkpt lat="47.49322" lon="6.66556">
        <ele>412</ele>
        <time>2015-08-20T13:06:33.000Z</time>
      </trkpt>
      <trkpt lat="47.49324" lon="6.66555">
        <ele>412</ele>
        <time>2015-08-20T13:06:34.000Z</time>
      </trkpt>
      <trkpt lat="47.49327" lon="6.66554">
        <ele>412</ele>
        <time>2015-08-20T13:06:35.000Z</time>
      </trkpt>
      <trkpt lat="47.4933" lon="6.66552">
        <ele>412</ele>
        <time>2015-08-20T13:06:36.000Z</time>
      </trkpt>
      <trkpt lat="47.49333" lon="6.6655">
        <ele>412</ele>
        <time>2015-08-20T13:06:37.000Z</time>
      </trkpt>
      <trkpt lat="47.49336" lon="6.66548">
        <ele>412</ele>
        <time>2015-08-20T13:06:38.000Z</time>
      </trkpt>
      <trkpt lat="47.49338" lon="6.66546">
        <ele>412</ele>
        <time>2015-08-20T13:06:39.000Z</time>
      </trkpt>
      <trkpt lat="47.49341" lon="6.66543">
        <ele>412</ele>
        <time>2015-08-20T13:06:40.000Z</time>
      </trkpt>
      <trkpt lat="47.49344" lon="6.6654">
        <ele>412</ele>
        <time>2015-08-20T13:06:41.000Z</time>
      </trkpt>
      <trkpt lat="47.49346" lon="6.66536">
        <ele>412</ele>
        <time>2015-08-20T13:06:42.000Z</time>
      </trkpt>
      <trkpt lat="47.49348" lon="6.66532">
        <ele>412</ele>
        <time>2015-08-20T13:06:43.000Z</time>
      </trkpt>
      <trkpt lat="47.4935" lon="6.66529">
        <ele>412</ele>
        <time>2015-08-20T13:06:44.000Z</time>
      </trkpt>
      <trkpt lat="47.49352" lon="6.66526">
        <ele>412</ele>
        <time>2015-08-20T13:06:45.000Z</time>
      </trkpt>
      <trkpt lat="47.49354" lon="6.66525">
        <ele>412</ele>
        <time>2015-08-20T13:06:46.000Z</time>
      </trkpt>
      <trkpt lat="47.49357" lon="6.66524">
        <ele>412</ele>
        <time>2015-08-20T13:06:47.000Z</time>
      </trkpt>
      <trkpt lat="47.49359" lon="6.66524">
        <ele>412</ele>
        <time>2015-08-20T13:06:48.000Z</time>
      </trkpt>
      <trkpt lat="47.49362" lon="6.66523">
        <ele>412</ele>
        <time>2015-08-20T13:06:49.000Z</time>
      </trkpt>
      <trkpt lat="47.49365" lon="6.66521">
        <ele>412</ele>
        <time>2015-08-20T13:06:50.000Z</time>
      </trkpt>
      <trkpt lat="47.49368" lon="6.66519">
        <ele>412</ele>
        <time>2015-08-20T13:06:51.000Z</time>
      </trkpt>
      <trkpt lat="47.4937" lon="6.66518">
        <ele>412</ele>
        <time>2015-08-20T13:06:52.000Z</time>
      </trkpt>
      <trkpt lat="47.49373" lon="6.66516">
        <ele>412</ele>
        <time>2015-08-20T13:06:53.000Z</time>
      </trkpt>
      <trkpt lat="47.49375" lon="6.66515">
        <ele>412</ele>
        <time>2015-08-20T13:06:54.000Z</time>
      </trkpt>
      <trkpt lat="47.49378" lon="6.66513">
        <ele>412</ele>
        <time>2015-08-20T13:06:55.000Z</time>
      </trkpt>
      <trkpt lat="47.4938" lon="6.66512">
        <ele>412</ele>
        <time>2015-08-20T13:06:56.000Z</time>
      </trkpt>
      <trkpt lat="47.49382" lon="6.6651">
        <ele>412</ele>
        <time>2015-08-20T13:06:57.000Z</time>
      </trkpt>
      <trkpt lat="47.49385" lon="6.66508">
        <ele>412</ele>
        <time>2015-08-20T13:06:58.000Z</time>
      </trkpt>
      <trkpt lat="47.49387" lon="6.66506">
        <ele>412</ele>
        <time>2015-08-20T13:06:59.000Z</time>
      </trkpt>
      <trkpt lat="47.49389" lon="6.66504">
        <ele>412</ele>
        <time>2015-08-20T13:07:00.000Z</time>
      </trkpt>
      <trkpt lat="47.49392" lon="6.66501">
        <ele>413</ele>
        <time>2015-08-20T13:07:01.000Z</time>
      </trkpt>
      <trkpt lat="47.49394" lon="6.66498">
        <ele>415</ele>
        <time>2015-08-20T13:07:02.000Z</time>
      </trkpt>
      <trkpt lat="47.49396" lon="6.66495">
        <ele>415</ele>
        <time>2015-08-20T13:07:03.000Z</time>
      </trkpt>
      <trkpt lat="47.49397" lon="6.66492">
        <ele>415</ele>
        <time>2015-08-20T13:07:04.000Z</time>
      </trkpt>
      <trkpt lat="47.49398" lon="6.66488">
        <ele>415</ele>
        <time>2015-08-20T13:07:05.000Z</time>
      </trkpt>
      <trkpt lat="47.49397" lon="6.66483">
        <ele>416</ele>
        <time>2015-08-20T13:07:06.000Z</time>
      </trkpt>
      <trkpt lat="47.49396" lon="6.66478">
        <ele>416</ele>
        <time>2015-08-20T13:07:07.000Z</time>
      </trkpt>
      <trkpt lat="47.49394" lon="6.66473">
        <ele>416</ele>
        <time>2015-08-20T13:07:08.000Z</time>
      </trkpt>
      <trkpt lat="47.49392" lon="6.66469">
        <ele>416</ele>
        <time>2015-08-20T13:07:09.000Z</time>
      </trkpt>
      <trkpt lat="47.4939" lon="6.66465">
        <ele>416</ele>
        <time>2015-08-20T13:07:10.000Z</time>
      </trkpt>
      <trkpt lat="47.49388" lon="6.6646">
        <ele>416</ele>
        <time>2015-08-20T13:07:11.000Z</time>
      </trkpt>
      <trkpt lat="47.49387" lon="6.66456">
        <ele>416</ele>
        <time>2015-08-20T13:07:12.000Z</time>
      </trkpt>
      <trkpt lat="47.49385" lon="6.66451">
        <ele>416</ele>
        <time>2015-08-20T13:07:13.000Z</time>
      </trkpt>
      <trkpt lat="47.49384" lon="6.66447">
        <ele>417</ele>
        <time>2015-08-20T13:07:14.000Z</time>
      </trkpt>
      <trkpt lat="47.49382" lon="6.66442">
        <ele>417</ele>
        <time>2015-08-20T13:07:15.000Z</time>
      </trkpt>
      <trkpt lat="47.4938" lon="6.66439">
        <ele>417</ele>
        <time>2015-08-20T13:07:16.000Z</time>
      </trkpt>
      <trkpt lat="47.49378" lon="6.66435">
        <ele>417</ele>
        <time>2015-08-20T13:07:17.000Z</time>
      </trkpt>
      <trkpt lat="47.49377" lon="6.66431">
        <ele>417</ele>
        <time>2015-08-20T13:07:18.000Z</time>
      </trkpt>
      <trkpt lat="47.49376" lon="6.66426">
        <ele>417</ele>
        <time>2015-08-20T13:07:19.000Z</time>
      </trkpt>
      <trkpt lat="47.49374" lon="6.66421">
        <ele>417</ele>
        <time>2015-08-20T13:07:20.000Z</time>
      </trkpt>
      <trkpt lat="47.49373" lon="6.66417">
        <ele>417</ele>
        <time>2015-08-20T13:07:21.000Z</time>
      </trkpt>
      <trkpt lat="47.49371" lon="6.66413">
        <ele>418</ele>
        <time>2015-08-20T13:07:22.000Z</time>
      </trkpt>
      <trkpt lat="47.4937" lon="6.66409">
        <ele>418</ele>
        <time>2015-08-20T13:07:23.000Z</time>
      </trkpt>
      <trkpt lat="47.49368" lon="6.66405">
        <ele>418</ele>
        <time>2015-08-20T13:07:24.000Z</time>
      </trkpt>
      <trkpt lat="47.49367" lon="6.66401">
        <ele>418</ele>
        <time>2015-08-20T13:07:25.000Z</time>
      </trkpt>
      <trkpt lat="47.49366" lon="6.66398">
        <ele>418</ele>
        <time>2015-08-20T13:07:26.000Z</time>
      </trkpt>
      <trkpt lat="47.49365" lon="6.66394">
        <ele>418</ele>
        <time>2015-08-20T13:07:27.000Z</time>
      </trkpt>
      <trkpt lat="47.49362" lon="6.66388">
        <ele>418</ele>
        <time>2015-08-20T13:07:29.000Z</time>
      </trkpt>
      <trkpt lat="47.49361" lon="6.66385">
        <ele>418</ele>
        <time>2015-08-20T13:07:30.000Z</time>
      </trkpt>
      <trkpt lat="47.4936" lon="6.66381">
        <ele>418</ele>
        <time>2015-08-20T13:07:31.000Z</time>
      </trkpt>
      <trkpt lat="47.49358" lon="6.66378">
        <ele>418</ele>
        <time>2015-08-20T13:07:32.000Z</time>
      </trkpt>
      <trkpt lat="47.49357" lon="6.66375">
        <ele>418</ele>
        <time>2015-08-20T13:07:33.000Z</time>
      </trkpt>
      <trkpt lat="47.49356" lon="6.66371">
        <ele>418</ele>
        <time>2015-08-20T13:07:34.000Z</time>
      </trkpt>
      <trkpt lat="47.49355" lon="6.66366">
        <ele>418</ele>
        <time>2015-08-20T13:07:35.000Z</time>
      </trkpt>
      <trkpt lat="47.49354" lon="6.66361">
        <ele>418</ele>
        <time>2015-08-20T13:07:36.000Z</time>
      </trkpt>
      <trkpt lat="47.49353" lon="6.66356">
        <ele>418</ele>
        <time>2015-08-20T13:07:37.000Z</time>
      </trkpt>
      <trkpt lat="47.49352" lon="6.66351">
        <ele>418</ele>
        <time>2015-08-20T13:07:38.000Z</time>
      </trkpt>
      <trkpt lat="47.49351" lon="6.66347">
        <ele>418</ele>
        <time>2015-08-20T13:07:39.000Z</time>
      </trkpt>
      <trkpt lat="47.4935" lon="6.66343">
        <ele>418</ele>
        <time>2015-08-20T13:07:40.000Z</time>
      </trkpt>
      <trkpt lat="47.49349" lon="6.66339">
        <ele>418</ele>
        <time>2015-08-20T13:07:41.000Z</time>
      </trkpt>
      <trkpt lat="47.49348" lon="6.66335">
        <ele>418</ele>
        <time>2015-08-20T13:07:42.000Z</time>
      </trkpt>
      <trkpt lat="47.49347" lon="6.6633">
        <ele>418</ele>
        <time>2015-08-20T13:07:43.000Z</time>
      </trkpt>
      <trkpt lat="47.49346" lon="6.66325">
        <ele>418</ele>
        <time>2015-08-20T13:07:44.000Z</time>
      </trkpt>
      <trkpt lat="47.49344" lon="6.66319">
        <ele>419</ele>
        <time>2015-08-20T13:07:45.000Z</time>
      </trkpt>
      <trkpt lat="47.49342" lon="6.66314">
        <ele>419</ele>
        <time>2015-08-20T13:07:46.000Z</time>
      </trkpt>
      <trkpt lat="47.4934" lon="6.66308">
        <ele>419</ele>
        <time>2015-08-20T13:07:47.000Z</time>
      </trkpt>
      <trkpt lat="47.49337" lon="6.66301">
        <ele>419</ele>
        <time>2015-08-20T13:07:48.000Z</time>
      </trkpt>
      <trkpt lat="47.49335" lon="6.66295">
        <ele>419</ele>
        <time>2015-08-20T13:07:49.000Z</time>
      </trkpt>
      <trkpt lat="47.49333" lon="6.66289">
        <ele>417</ele>
        <time>2015-08-20T13:07:50.000Z</time>
      </trkpt>
      <trkpt lat="47.49331" lon="6.66283">
        <ele>417</ele>
        <time>2015-08-20T13:07:51.000Z</time>
      </trkpt>
      <trkpt lat="47.4933" lon="6.66276">
        <ele>417</ele>
        <time>2015-08-20T13:07:52.000Z</time>
      </trkpt>
      <trkpt lat="47.49328" lon="6.66267">
        <ele>418</ele>
        <time>2015-08-20T13:07:53.000Z</time>
      </trkpt>
      <trkpt lat="47.49327" lon="6.66264">
        <ele>418</ele>
        <time>2015-08-20T13:07:54.000Z</time>
      </trkpt>
      <trkpt lat="47.49325" lon="6.66257">
        <ele>418</ele>
        <time>2015-08-20T13:07:55.000Z</time>
      </trkpt>
      <trkpt lat="47.49324" lon="6.66251">
        <ele>418</ele>
        <time>2015-08-20T13:07:56.000Z</time>
      </trkpt>
      <trkpt lat="47.49321" lon="6.66242">
        <ele>418</ele>
        <time>2015-08-20T13:07:57.000Z</time>
      </trkpt>
      <trkpt lat="47.4932" lon="6.66236">
        <ele>418</ele>
        <time>2015-08-20T13:07:58.000Z</time>
      </trkpt>
      <trkpt lat="47.49319" lon="6.66229">
        <ele>417</ele>
        <time>2015-08-20T13:07:59.000Z</time>
      </trkpt>
      <trkpt lat="47.49318" lon="6.66223">
        <ele>417</ele>
        <time>2015-08-20T13:08:00.000Z</time>
      </trkpt>
      <trkpt lat="47.49318" lon="6.66217">
        <ele>417</ele>
        <time>2015-08-20T13:08:01.000Z</time>
      </trkpt>
      <trkpt lat="47.49319" lon="6.66212">
        <ele>417</ele>
        <time>2015-08-20T13:08:02.000Z</time>
      </trkpt>
      <trkpt lat="47.49321" lon="6.66206">
        <ele>417</ele>
        <time>2015-08-20T13:08:03.000Z</time>
      </trkpt>
      <trkpt lat="47.49322" lon="6.66201">
        <ele>417</ele>
        <time>2015-08-20T13:08:04.000Z</time>
      </trkpt>
      <trkpt lat="47.49324" lon="6.66196">
        <ele>417</ele>
        <time>2015-08-20T13:08:05.000Z</time>
      </trkpt>
      <trkpt lat="47.49327" lon="6.6619">
        <ele>417</ele>
        <time>2015-08-20T13:08:06.000Z</time>
      </trkpt>
      <trkpt lat="47.4933" lon="6.66186">
        <ele>417</ele>
        <time>2015-08-20T13:08:07.000Z</time>
      </trkpt>
      <trkpt lat="47.49332" lon="6.66181">
        <ele>417</ele>
        <time>2015-08-20T13:08:08.000Z</time>
      </trkpt>
      <trkpt lat="47.49335" lon="6.66174">
        <ele>418</ele>
        <time>2015-08-20T13:08:09.000Z</time>
      </trkpt>
      <trkpt lat="47.49337" lon="6.66167">
        <ele>418</ele>
        <time>2015-08-20T13:08:10.000Z</time>
      </trkpt>
      <trkpt lat="47.49341" lon="6.66163">
        <ele>418</ele>
        <time>2015-08-20T13:08:11.000Z</time>
      </trkpt>
      <trkpt lat="47.49343" lon="6.66158">
        <ele>418</ele>
        <time>2015-08-20T13:08:12.000Z</time>
      </trkpt>
      <trkpt lat="47.49346" lon="6.66153">
        <ele>418</ele>
        <time>2015-08-20T13:08:13.000Z</time>
      </trkpt>
      <trkpt lat="47.49347" lon="6.66145">
        <ele>418</ele>
        <time>2015-08-20T13:08:14.000Z</time>
      </trkpt>
      <trkpt lat="47.49349" lon="6.6614">
        <ele>418</ele>
        <time>2015-08-20T13:08:15.000Z</time>
      </trkpt>
      <trkpt lat="47.49351" lon="6.66136">
        <ele>418</ele>
        <time>2015-08-20T13:08:16.000Z</time>
      </trkpt>
      <trkpt lat="47.49352" lon="6.6613">
        <ele>418</ele>
        <time>2015-08-20T13:08:17.000Z</time>
      </trkpt>
      <trkpt lat="47.49354" lon="6.66124">
        <ele>418</ele>
        <time>2015-08-20T13:08:18.000Z</time>
      </trkpt>
      <trkpt lat="47.49356" lon="6.66118">
        <ele>418</ele>
        <time>2015-08-20T13:08:19.000Z</time>
      </trkpt>
      <trkpt lat="47.49357" lon="6.66112">
        <ele>418</ele>
        <time>2015-08-20T13:08:20.000Z</time>
      </trkpt>
      <trkpt lat="47.49358" lon="6.66106">
        <ele>418</ele>
        <time>2015-08-20T13:08:21.000Z</time>
      </trkpt>
      <trkpt lat="47.49359" lon="6.661">
        <ele>418</ele>
        <time>2015-08-20T13:08:22.000Z</time>
      </trkpt>
      <trkpt lat="47.4936" lon="6.66093">
        <ele>418</ele>
        <time>2015-08-20T13:08:23.000Z</time>
      </trkpt>
      <trkpt lat="47.49361" lon="6.66086">
        <ele>418</ele>
        <time>2015-08-20T13:08:24.000Z</time>
      </trkpt>
      <trkpt lat="47.49362" lon="6.66079">
        <ele>417</ele>
        <time>2015-08-20T13:08:25.000Z</time>
      </trkpt>
      <trkpt lat="47.49364" lon="6.66073">
        <ele>417</ele>
        <time>2015-08-20T13:08:26.000Z</time>
      </trkpt>
      <trkpt lat="47.49365" lon="6.66068">
        <ele>417</ele>
        <time>2015-08-20T13:08:27.000Z</time>
      </trkpt>
      <trkpt lat="47.4937" lon="6.66055">
        <ele>417</ele>
        <time>2015-08-20T13:08:29.000Z</time>
      </trkpt>
      <trkpt lat="47.49372" lon="6.66048">
        <ele>417</ele>
        <time>2015-08-20T13:08:30.000Z</time>
      </trkpt>
      <trkpt lat="47.49374" lon="6.66042">
        <ele>417</ele>
        <time>2015-08-20T13:08:31.000Z</time>
      </trkpt>
      <trkpt lat="47.49374" lon="6.66035">
        <ele>417</ele>
        <time>2015-08-20T13:08:32.000Z</time>
      </trkpt>
      <trkpt lat="47.49376" lon="6.66026">
        <ele>417</ele>
        <time>2015-08-20T13:08:33.000Z</time>
      </trkpt>
      <trkpt lat="47.49377" lon="6.66019">
        <ele>417</ele>
        <time>2015-08-20T13:08:34.000Z</time>
      </trkpt>
      <trkpt lat="47.49378" lon="6.66012">
        <ele>417</ele>
        <time>2015-08-20T13:08:35.000Z</time>
      </trkpt>
      <trkpt lat="47.4938" lon="6.66006">
        <ele>417</ele>
        <time>2015-08-20T13:08:35.999Z</time>
      </trkpt>
      <trkpt lat="47.49381" lon="6.65999">
        <ele>416</ele>
        <time>2015-08-20T13:08:37.000Z</time>
      </trkpt>
      <trkpt lat="47.49382" lon="6.65991">
        <ele>416</ele>
        <time>2015-08-20T13:08:38.000Z</time>
      </trkpt>
      <trkpt lat="47.49383" lon="6.65983">
        <ele>416</ele>
        <time>2015-08-20T13:08:39.000Z</time>
      </trkpt>
      <trkpt lat="47.49384" lon="6.65976">
        <ele>416</ele>
        <time>2015-08-20T13:08:40.000Z</time>
      </trkpt>
      <trkpt lat="47.49384" lon="6.65969">
        <ele>416</ele>
        <time>2015-08-20T13:08:41.000Z</time>
      </trkpt>
      <trkpt lat="47.49385" lon="6.65962">
        <ele>416</ele>
        <time>2015-08-20T13:08:42.000Z</time>
      </trkpt>
      <trkpt lat="47.49386" lon="6.65954">
        <ele>416</ele>
        <time>2015-08-20T13:08:43.000Z</time>
      </trkpt>
      <trkpt lat="47.49387" lon="6.65947">
        <ele>416</ele>
        <time>2015-08-20T13:08:44.000Z</time>
      </trkpt>
      <trkpt lat="47.49388" lon="6.65942">
        <ele>416</ele>
        <time>2015-08-20T13:08:45.000Z</time>
      </trkpt>
      <trkpt lat="47.49388" lon="6.65934">
        <ele>416</ele>
        <time>2015-08-20T13:08:46.000Z</time>
      </trkpt>
      <trkpt lat="47.49389" lon="6.65928">
        <ele>416</ele>
        <time>2015-08-20T13:08:47.000Z</time>
      </trkpt>
      <trkpt lat="47.49389" lon="6.65921">
        <ele>416</ele>
        <time>2015-08-20T13:08:48.000Z</time>
      </trkpt>
      <trkpt lat="47.4939" lon="6.65917">
        <ele>416</ele>
        <time>2015-08-20T13:08:49.000Z</time>
      </trkpt>
      <trkpt lat="47.4939" lon="6.6591">
        <ele>415</ele>
        <time>2015-08-20T13:08:50.000Z</time>
      </trkpt>
      <trkpt lat="47.49389" lon="6.65905">
        <ele>415</ele>
        <time>2015-08-20T13:08:51.000Z</time>
      </trkpt>
      <trkpt lat="47.49389" lon="6.65901">
        <ele>415</ele>
        <time>2015-08-20T13:08:52.000Z</time>
      </trkpt>
      <trkpt lat="47.49389" lon="6.65895">
        <ele>415</ele>
        <time>2015-08-20T13:08:53.000Z</time>
      </trkpt>
      <trkpt lat="47.49392" lon="6.65885">
        <ele>415</ele>
        <time>2015-08-20T13:08:54.000Z</time>
      </trkpt>
      <trkpt lat="47.49392" lon="6.65879">
        <ele>415</ele>
        <time>2015-08-20T13:08:55.000Z</time>
      </trkpt>
      <trkpt lat="47.49391" lon="6.65873">
        <ele>415</ele>
        <time>2015-08-20T13:08:56.000Z</time>
      </trkpt>
      <trkpt lat="47.4939" lon="6.65865">
        <ele>415</ele>
        <time>2015-08-20T13:08:57.000Z</time>
      </trkpt>
      <trkpt lat="47.4939" lon="6.65859">
        <ele>415</ele>
        <time>2015-08-20T13:08:58.000Z</time>
      </trkpt>
      <trkpt lat="47.4939" lon="6.65852">
        <ele>415</ele>
        <time>2015-08-20T13:08:59.000Z</time>
      </trkpt>
      <trkpt lat="47.49389" lon="6.65844">
        <ele>415</ele>
        <time>2015-08-20T13:09:00.000Z</time>
      </trkpt>
      <trkpt lat="47.4939" lon="6.65837">
        <ele>416</ele>
        <time>2015-08-20T13:09:01.000Z</time>
      </trkpt>
      <trkpt lat="47.4939" lon="6.6583">
        <ele>415</ele>
        <time>2015-08-20T13:09:02.000Z</time>
      </trkpt>
      <trkpt lat="47.49391" lon="6.65823">
        <ele>415</ele>
        <time>2015-08-20T13:09:03.000Z</time>
      </trkpt>
      <trkpt lat="47.49391" lon="6.65816">
        <ele>415</ele>
        <time>2015-08-20T13:09:04.000Z</time>
      </trkpt>
      <trkpt lat="47.49391" lon="6.65808">
        <ele>415</ele>
        <time>2015-08-20T13:09:05.000Z</time>
      </trkpt>
      <trkpt lat="47.49393" lon="6.65802">
        <ele>415</ele>
        <time>2015-08-20T13:09:06.000Z</time>
      </trkpt>
      <trkpt lat="47.49394" lon="6.65794">
        <ele>415</ele>
        <time>2015-08-20T13:09:07.000Z</time>
      </trkpt>
      <trkpt lat="47.49395" lon="6.65787">
        <ele>415</ele>
        <time>2015-08-20T13:09:08.000Z</time>
      </trkpt>
      <trkpt lat="47.49396" lon="6.65779">
        <ele>414</ele>
        <time>2015-08-20T13:09:09.000Z</time>
      </trkpt>
      <trkpt lat="47.49397" lon="6.65772">
        <ele>414</ele>
        <time>2015-08-20T13:09:10.000Z</time>
      </trkpt>
      <trkpt lat="47.49399" lon="6.65765">
        <ele>414</ele>
        <time>2015-08-20T13:09:11.000Z</time>
      </trkpt>
      <trkpt lat="47.494" lon="6.65758">
        <ele>414</ele>
        <time>2015-08-20T13:09:12.000Z</time>
      </trkpt>
      <trkpt lat="47.49402" lon="6.65751">
        <ele>414</ele>
        <time>2015-08-20T13:09:13.000Z</time>
      </trkpt>
      <trkpt lat="47.49403" lon="6.65744">
        <ele>414</ele>
        <time>2015-08-20T13:09:14.000Z</time>
      </trkpt>
      <trkpt lat="47.49404" lon="6.65737">
        <ele>414</ele>
        <time>2015-08-20T13:09:15.000Z</time>
      </trkpt>
      <trkpt lat="47.49406" lon="6.65731">
        <ele>414</ele>
        <time>2015-08-20T13:09:16.000Z</time>
      </trkpt>
      <trkpt lat="47.49407" lon="6.65725">
        <ele>413</ele>
        <time>2015-08-20T13:09:17.000Z</time>
      </trkpt>
      <trkpt lat="47.49408" lon="6.65718">
        <ele>413</ele>
        <time>2015-08-20T13:09:18.000Z</time>
      </trkpt>
      <trkpt lat="47.4941" lon="6.65711">
        <ele>413</ele>
        <time>2015-08-20T13:09:19.000Z</time>
      </trkpt>
      <trkpt lat="47.49411" lon="6.65704">
        <ele>413</ele>
        <time>2015-08-20T13:09:20.000Z</time>
      </trkpt>
      <trkpt lat="47.49412" lon="6.65697">
        <ele>413</ele>
        <time>2015-08-20T13:09:21.000Z</time>
      </trkpt>
      <trkpt lat="47.49414" lon="6.6569">
        <ele>413</ele>
        <time>2015-08-20T13:09:22.000Z</time>
      </trkpt>
      <trkpt lat="47.49415" lon="6.65681">
        <ele>413</ele>
        <time>2015-08-20T13:09:23.000Z</time>
      </trkpt>
      <trkpt lat="47.49417" lon="6.65673">
        <ele>413</ele>
        <time>2015-08-20T13:09:24.000Z</time>
      </trkpt>
      <trkpt lat="47.49418" lon="6.65664">
        <ele>413</ele>
        <time>2015-08-20T13:09:25.000Z</time>
      </trkpt>
      <trkpt lat="47.49419" lon="6.65656">
        <ele>413</ele>
        <time>2015-08-20T13:09:26.000Z</time>
      </trkpt>
      <trkpt lat="47.4942" lon="6.65647">
        <ele>413</ele>
        <time>2015-08-20T13:09:27.000Z</time>
      </trkpt>
      <trkpt lat="47.49421" lon="6.65639">
        <ele>413</ele>
        <time>2015-08-20T13:09:28.000Z</time>
      </trkpt>
      <trkpt lat="47.49447" lon="6.65502">
        <ele>411</ele>
        <time>2015-08-20T13:09:46.000Z</time>
      </trkpt>
      <trkpt lat="47.49446" lon="6.65489">
        <ele>410</ele>
        <time>2015-08-20T13:09:47.000Z</time>
      </trkpt>
      <trkpt lat="47.49446" lon="6.65478">
        <ele>410</ele>
        <time>2015-08-20T13:09:48.000Z</time>
      </trkpt>
      <trkpt lat="47.49446" lon="6.6547">
        <ele>410</ele>
        <time>2015-08-20T13:09:49.000Z</time>
      </trkpt>
      <trkpt lat="47.49445" lon="6.65461">
        <ele>410</ele>
        <time>2015-08-20T13:09:50.000Z</time>
      </trkpt>
      <trkpt lat="47.49445" lon="6.65452">
        <ele>410</ele>
        <time>2015-08-20T13:09:51.000Z</time>
      </trkpt>
      <trkpt lat="47.49444" lon="6.65444">
        <ele>409</ele>
        <time>2015-08-20T13:09:52.000Z</time>
      </trkpt>
      <trkpt lat="47.49443" lon="6.65437">
        <ele>409</ele>
        <time>2015-08-20T13:09:53.000Z</time>
      </trkpt>
      <trkpt lat="47.49443" lon="6.65429">
        <ele>409</ele>
        <time>2015-08-20T13:09:54.000Z</time>
      </trkpt>
      <trkpt lat="47.49442" lon="6.65423">
        <ele>409</ele>
        <time>2015-08-20T13:09:55.000Z</time>
      </trkpt>
      <trkpt lat="47.49442" lon="6.65414">
        <ele>408</ele>
        <time>2015-08-20T13:09:56.000Z</time>
      </trkpt>
      <trkpt lat="47.49441" lon="6.65407">
        <ele>408</ele>
        <time>2015-08-20T13:09:57.000Z</time>
      </trkpt>
      <trkpt lat="47.4944" lon="6.654">
        <ele>408</ele>
        <time>2015-08-20T13:09:58.000Z</time>
      </trkpt>
      <trkpt lat="47.4944" lon="6.65392">
        <ele>408</ele>
        <time>2015-08-20T13:09:59.000Z</time>
      </trkpt>
      <trkpt lat="47.4944" lon="6.65383">
        <ele>408</ele>
        <time>2015-08-20T13:10:00.000Z</time>
      </trkpt>
      <trkpt lat="47.4944" lon="6.65376">
        <ele>408</ele>
        <time>2015-08-20T13:10:01.000Z</time>
      </trkpt>
      <trkpt lat="47.4944" lon="6.65368">
        <ele>408</ele>
        <time>2015-08-20T13:10:02.000Z</time>
      </trkpt>
      <trkpt lat="47.4944" lon="6.65361">
        <ele>408</ele>
        <time>2015-08-20T13:10:03.000Z</time>
      </trkpt>
      <trkpt lat="47.4944" lon="6.65353">
        <ele>407</ele>
        <time>2015-08-20T13:10:04.000Z</time>
      </trkpt>
      <trkpt lat="47.4944" lon="6.65345">
        <ele>407</ele>
        <time>2015-08-20T13:10:05.000Z</time>
      </trkpt>
      <trkpt lat="47.49442" lon="6.65338">
        <ele>407</ele>
        <time>2015-08-20T13:10:06.000Z</time>
      </trkpt>
      <trkpt lat="47.49443" lon="6.65329">
        <ele>406</ele>
        <time>2015-08-20T13:10:07.000Z</time>
      </trkpt>
      <trkpt lat="47.49444" lon="6.65322">
        <ele>405</ele>
        <time>2015-08-20T13:10:08.000Z</time>
      </trkpt>
      <trkpt lat="47.49447" lon="6.65314">
        <ele>405</ele>
        <time>2015-08-20T13:10:09.000Z</time>
      </trkpt>
      <trkpt lat="47.49449" lon="6.65305">
        <ele>405</ele>
        <time>2015-08-20T13:10:10.000Z</time>
      </trkpt>
      <trkpt lat="47.49451" lon="6.65298">
        <ele>405</ele>
        <time>2015-08-20T13:10:11.000Z</time>
      </trkpt>
      <trkpt lat="47.49454" lon="6.6529">
        <ele>405</ele>
        <time>2015-08-20T13:10:12.000Z</time>
      </trkpt>
      <trkpt lat="47.49457" lon="6.65282">
        <ele>405</ele>
        <time>2015-08-20T13:10:13.000Z</time>
      </trkpt>
      <trkpt lat="47.4946" lon="6.65275">
        <ele>405</ele>
        <time>2015-08-20T13:10:14.000Z</time>
      </trkpt>
      <trkpt lat="47.49462" lon="6.65268">
        <ele>405</ele>
        <time>2015-08-20T13:10:15.000Z</time>
      </trkpt>
      <trkpt lat="47.49466" lon="6.6526">
        <ele>404</ele>
        <time>2015-08-20T13:10:16.000Z</time>
      </trkpt>
      <trkpt lat="47.49469" lon="6.65253">
        <ele>404</ele>
        <time>2015-08-20T13:10:17.000Z</time>
      </trkpt>
      <trkpt lat="47.49472" lon="6.65245">
        <ele>402</ele>
        <time>2015-08-20T13:10:18.000Z</time>
      </trkpt>
      <trkpt lat="47.49474" lon="6.65239">
        <ele>402</ele>
        <time>2015-08-20T13:10:19.000Z</time>
      </trkpt>
      <trkpt lat="47.49478" lon="6.65233">
        <ele>402</ele>
        <time>2015-08-20T13:10:20.000Z</time>
      </trkpt>
      <trkpt lat="47.49481" lon="6.65226">
        <ele>402</ele>
        <time>2015-08-20T13:10:21.000Z</time>
      </trkpt>
      <trkpt lat="47.49484" lon="6.65219">
        <ele>402</ele>
        <time>2015-08-20T13:10:22.000Z</time>
      </trkpt>
      <trkpt lat="47.49488" lon="6.65211">
        <ele>402</ele>
        <time>2015-08-20T13:10:23.000Z</time>
      </trkpt>
      <trkpt lat="47.49491" lon="6.65204">
        <ele>402</ele>
        <time>2015-08-20T13:10:24.000Z</time>
      </trkpt>
      <trkpt lat="47.49493" lon="6.65196">
        <ele>401</ele>
        <time>2015-08-20T13:10:25.000Z</time>
      </trkpt>
      <trkpt lat="47.49496" lon="6.6519">
        <ele>401</ele>
        <time>2015-08-20T13:10:26.000Z</time>
      </trkpt>
      <trkpt lat="47.49499" lon="6.65182">
        <ele>401</ele>
        <time>2015-08-20T13:10:27.000Z</time>
      </trkpt>
      <trkpt lat="47.49502" lon="6.65175">
        <ele>402</ele>
        <time>2015-08-20T13:10:28.000Z</time>
      </trkpt>
      <trkpt lat="47.49508" lon="6.65159">
        <ele>401</ele>
        <time>2015-08-20T13:10:30.000Z</time>
      </trkpt>
      <trkpt lat="47.4951" lon="6.65154">
        <ele>401</ele>
        <time>2015-08-20T13:10:31.000Z</time>
      </trkpt>
      <trkpt lat="47.49513" lon="6.65148">
        <ele>402</ele>
        <time>2015-08-20T13:10:32.000Z</time>
      </trkpt>
      <trkpt lat="47.49515" lon="6.65141">
        <ele>402</ele>
        <time>2015-08-20T13:10:33.000Z</time>
      </trkpt>
      <trkpt lat="47.49518" lon="6.65136">
        <ele>402</ele>
        <time>2015-08-20T13:10:34.000Z</time>
      </trkpt>
      <trkpt lat="47.49521" lon="6.6513">
        <ele>402</ele>
        <time>2015-08-20T13:10:35.000Z</time>
      </trkpt>
      <trkpt lat="47.49523" lon="6.65124">
        <ele>402</ele>
        <time>2015-08-20T13:10:36.000Z</time>
      </trkpt>
      <trkpt lat="47.49525" lon="6.65118">
        <ele>402</ele>
        <time>2015-08-20T13:10:37.000Z</time>
      </trkpt>
      <trkpt lat="47.49529" lon="6.65115">
        <ele>402</ele>
        <time>2015-08-20T13:10:38.000Z</time>
      </trkpt>
      <trkpt lat="47.49533" lon="6.65109">
        <ele>402</ele>
        <time>2015-08-20T13:10:39.000Z</time>
      </trkpt>
      <trkpt lat="47.49535" lon="6.65103">
        <ele>402</ele>
        <time>2015-08-20T13:10:40.000Z</time>
      </trkpt>
      <trkpt lat="47.49538" lon="6.65097">
        <ele>402</ele>
        <time>2015-08-20T13:10:41.000Z</time>
      </trkpt>
      <trkpt lat="47.4954" lon="6.65093">
        <ele>402</ele>
        <time>2015-08-20T13:10:42.000Z</time>
      </trkpt>
      <trkpt lat="47.49543" lon="6.65086">
        <ele>402</ele>
        <time>2015-08-20T13:10:43.000Z</time>
      </trkpt>
      <trkpt lat="47.49545" lon="6.6508">
        <ele>401</ele>
        <time>2015-08-20T13:10:44.000Z</time>
      </trkpt>
      <trkpt lat="47.49547" lon="6.65072">
        <ele>401</ele>
        <time>2015-08-20T13:10:45.000Z</time>
      </trkpt>
      <trkpt lat="47.4955" lon="6.65066">
        <ele>401</ele>
        <time>2015-08-20T13:10:46.000Z</time>
      </trkpt>
      <trkpt lat="47.49553" lon="6.6506">
        <ele>401</ele>
        <time>2015-08-20T13:10:47.000Z</time>
      </trkpt>
      <trkpt lat="47.49555" lon="6.65053">
        <ele>401</ele>
        <time>2015-08-20T13:10:48.000Z</time>
      </trkpt>
      <trkpt lat="47.49557" lon="6.65046">
        <ele>401</ele>
        <time>2015-08-20T13:10:49.000Z</time>
      </trkpt>
      <trkpt lat="47.49558" lon="6.65042">
        <ele>401</ele>
        <time>2015-08-20T13:10:50.000Z</time>
      </trkpt>
      <trkpt lat="47.4956" lon="6.65036">
        <ele>401</ele>
        <time>2015-08-20T13:10:51.000Z</time>
      </trkpt>
      <trkpt lat="47.49562" lon="6.65031">
        <ele>401</ele>
        <time>2015-08-20T13:10:52.000Z</time>
      </trkpt>
      <trkpt lat="47.49563" lon="6.65024">
        <ele>401</ele>
        <time>2015-08-20T13:10:53.000Z</time>
      </trkpt>
      <trkpt lat="47.49566" lon="6.65018">
        <ele>401</ele>
        <time>2015-08-20T13:10:54.000Z</time>
      </trkpt>
      <trkpt lat="47.49568" lon="6.65011">
        <ele>401</ele>
        <time>2015-08-20T13:10:55.000Z</time>
      </trkpt>
      <trkpt lat="47.49569" lon="6.65005">
        <ele>402</ele>
        <time>2015-08-20T13:10:56.000Z</time>
      </trkpt>
      <trkpt lat="47.49571" lon="6.65">
        <ele>401</ele>
        <time>2015-08-20T13:10:57.000Z</time>
      </trkpt>
      <trkpt lat="47.49573" lon="6.64995">
        <ele>401</ele>
        <time>2015-08-20T13:10:58.000Z</time>
      </trkpt>
      <trkpt lat="47.49575" lon="6.6499">
        <ele>401</ele>
        <time>2015-08-20T13:10:59.000Z</time>
      </trkpt>
      <trkpt lat="47.49577" lon="6.64984">
        <ele>401</ele>
        <time>2015-08-20T13:11:00.000Z</time>
      </trkpt>
      <trkpt lat="47.49579" lon="6.64978">
        <ele>401</ele>
        <time>2015-08-20T13:11:01.000Z</time>
      </trkpt>
      <trkpt lat="47.49581" lon="6.64973">
        <ele>401</ele>
        <time>2015-08-20T13:11:02.000Z</time>
      </trkpt>
      <trkpt lat="47.49583" lon="6.64967">
        <ele>401</ele>
        <time>2015-08-20T13:11:03.000Z</time>
      </trkpt>
      <trkpt lat="47.49584" lon="6.64961">
        <ele>402</ele>
        <time>2015-08-20T13:11:04.000Z</time>
      </trkpt>
      <trkpt lat="47.49585" lon="6.64956">
        <ele>401</ele>
        <time>2015-08-20T13:11:05.000Z</time>
      </trkpt>
      <trkpt lat="47.49588" lon="6.64949">
        <ele>401</ele>
        <time>2015-08-20T13:11:06.000Z</time>
      </trkpt>
      <trkpt lat="47.4959" lon="6.64943">
        <ele>401</ele>
        <time>2015-08-20T13:11:07.000Z</time>
      </trkpt>
      <trkpt lat="47.49592" lon="6.64937">
        <ele>401</ele>
        <time>2015-08-20T13:11:08.000Z</time>
      </trkpt>
      <trkpt lat="47.49593" lon="6.64931">
        <ele>401</ele>
        <time>2015-08-20T13:11:09.000Z</time>
      </trkpt>
      <trkpt lat="47.49595" lon="6.64925">
        <ele>401</ele>
        <time>2015-08-20T13:11:09.999Z</time>
      </trkpt>
      <trkpt lat="47.49597" lon="6.6492">
        <ele>401</ele>
        <time>2015-08-20T13:11:11.001Z</time>
      </trkpt>
      <trkpt lat="47.49597" lon="6.64915">
        <ele>401</ele>
        <time>2015-08-20T13:11:12.000Z</time>
      </trkpt>
      <trkpt lat="47.496" lon="6.6491">
        <ele>401</ele>
        <time>2015-08-20T13:11:13.000Z</time>
      </trkpt>
      <trkpt lat="47.49602" lon="6.64903">
        <ele>401</ele>
        <time>2015-08-20T13:11:14.000Z</time>
      </trkpt>
      <trkpt lat="47.49603" lon="6.64897">
        <ele>401</ele>
        <time>2015-08-20T13:11:15.000Z</time>
      </trkpt>
      <trkpt lat="47.49604" lon="6.64891">
        <ele>401</ele>
        <time>2015-08-20T13:11:15.999Z</time>
      </trkpt>
      <trkpt lat="47.49606" lon="6.64884">
        <ele>401</ele>
        <time>2015-08-20T13:11:17.000Z</time>
      </trkpt>
      <trkpt lat="47.49609" lon="6.64877">
        <ele>401</ele>
        <time>2015-08-20T13:11:18.000Z</time>
      </trkpt>
      <trkpt lat="47.49611" lon="6.64871">
        <ele>401</ele>
        <time>2015-08-20T13:11:19.000Z</time>
      </trkpt>
      <trkpt lat="47.49612" lon="6.64864">
        <ele>401</ele>
        <time>2015-08-20T13:11:20.000Z</time>
      </trkpt>
      <trkpt lat="47.49614" lon="6.64858">
        <ele>401</ele>
        <time>2015-08-20T13:11:21.000Z</time>
      </trkpt>
      <trkpt lat="47.49615" lon="6.64852">
        <ele>401</ele>
        <time>2015-08-20T13:11:22.000Z</time>
      </trkpt>
      <trkpt lat="47.49616" lon="6.64846">
        <ele>401</ele>
        <time>2015-08-20T13:11:23.000Z</time>
      </trkpt>
      <trkpt lat="47.49618" lon="6.6484">
        <ele>401</ele>
        <time>2015-08-20T13:11:24.000Z</time>
      </trkpt>
      <trkpt lat="47.49619" lon="6.64834">
        <ele>401</ele>
        <time>2015-08-20T13:11:25.000Z</time>
      </trkpt>
      <trkpt lat="47.49621" lon="6.64827">
        <ele>400</ele>
        <time>2015-08-20T13:11:26.000Z</time>
      </trkpt>
      <trkpt lat="47.49623" lon="6.6482">
        <ele>400</ele>
        <time>2015-08-20T13:11:27.000Z</time>
      </trkpt>
      <trkpt lat="47.49628" lon="6.64805">
        <ele>400</ele>
        <time>2015-08-20T13:11:29.000Z</time>
      </trkpt>
      <trkpt lat="47.49631" lon="6.6479">
        <ele>400</ele>
        <time>2015-08-20T13:11:31.000Z</time>
      </trkpt>
      <trkpt lat="47.49633" lon="6.64783">
        <ele>400</ele>
        <time>2015-08-20T13:11:32.000Z</time>
      </trkpt>
      <trkpt lat="47.49636" lon="6.64776">
        <ele>400</ele>
        <time>2015-08-20T13:11:33.000Z</time>
      </trkpt>
      <trkpt lat="47.49639" lon="6.64769">
        <ele>400</ele>
        <time>2015-08-20T13:11:34.000Z</time>
      </trkpt>
      <trkpt lat="47.49641" lon="6.64761">
        <ele>400</ele>
        <time>2015-08-20T13:11:35.000Z</time>
      </trkpt>
      <trkpt lat="47.49644" lon="6.64754">
        <ele>400</ele>
        <time>2015-08-20T13:11:35.999Z</time>
      </trkpt>
      <trkpt lat="47.49646" lon="6.64745">
        <ele>399</ele>
        <time>2015-08-20T13:11:37.000Z</time>
      </trkpt>
      <trkpt lat="47.49649" lon="6.64738">
        <ele>399</ele>
        <time>2015-08-20T13:11:38.000Z</time>
      </trkpt>
      <trkpt lat="47.49653" lon="6.6473">
        <ele>399</ele>
        <time>2015-08-20T13:11:39.000Z</time>
      </trkpt>
      <trkpt lat="47.49656" lon="6.64723">
        <ele>399</ele>
        <time>2015-08-20T13:11:40.001Z</time>
      </trkpt>
      <trkpt lat="47.4966" lon="6.64717">
        <ele>399</ele>
        <time>2015-08-20T13:11:41.000Z</time>
      </trkpt>
      <trkpt lat="47.49663" lon="6.6471">
        <ele>399</ele>
        <time>2015-08-20T13:11:42.000Z</time>
      </trkpt>
      <trkpt lat="47.49666" lon="6.64701">
        <ele>398</ele>
        <time>2015-08-20T13:11:43.000Z</time>
      </trkpt>
      <trkpt lat="47.49669" lon="6.64693">
        <ele>398</ele>
        <time>2015-08-20T13:11:44.000Z</time>
      </trkpt>
      <trkpt lat="47.49673" lon="6.64684">
        <ele>398</ele>
        <time>2015-08-20T13:11:45.000Z</time>
      </trkpt>
      <trkpt lat="47.49676" lon="6.64675">
        <ele>398</ele>
        <time>2015-08-20T13:11:46.000Z</time>
      </trkpt>
      <trkpt lat="47.49679" lon="6.64666">
        <ele>398</ele>
        <time>2015-08-20T13:11:47.000Z</time>
      </trkpt>
      <trkpt lat="47.49683" lon="6.64657">
        <ele>398</ele>
        <time>2015-08-20T13:11:48.000Z</time>
      </trkpt>
      <trkpt lat="47.49686" lon="6.64649">
        <ele>397</ele>
        <time>2015-08-20T13:11:49.000Z</time>
      </trkpt>
      <trkpt lat="47.49689" lon="6.6464">
        <ele>397</ele>
        <time>2015-08-20T13:11:50.000Z</time>
      </trkpt>
      <trkpt lat="47.49693" lon="6.64632">
        <ele>397</ele>
        <time>2015-08-20T13:11:51.000Z</time>
      </trkpt>
      <trkpt lat="47.49697" lon="6.64624">
        <ele>397</ele>
        <time>2015-08-20T13:11:52.000Z</time>
      </trkpt>
      <trkpt lat="47.497" lon="6.64616">
        <ele>397</ele>
        <time>2015-08-20T13:11:53.000Z</time>
      </trkpt>
      <trkpt lat="47.49703" lon="6.64609">
        <ele>397</ele>
        <time>2015-08-20T13:11:54.000Z</time>
      </trkpt>
      <trkpt lat="47.49706" lon="6.64601">
        <ele>397</ele>
        <time>2015-08-20T13:11:55.000Z</time>
      </trkpt>
      <trkpt lat="47.49709" lon="6.64594">
        <ele>397</ele>
        <time>2015-08-20T13:11:56.000Z</time>
      </trkpt>
      <trkpt lat="47.49712" lon="6.64585">
        <ele>397</ele>
        <time>2015-08-20T13:11:57.001Z</time>
      </trkpt>
      <trkpt lat="47.49714" lon="6.64577">
        <ele>397</ele>
        <time>2015-08-20T13:11:58.000Z</time>
      </trkpt>
      <trkpt lat="47.49716" lon="6.6457">
        <ele>397</ele>
        <time>2015-08-20T13:11:59.000Z</time>
      </trkpt>
      <trkpt lat="47.49718" lon="6.64563">
        <ele>397</ele>
        <time>2015-08-20T13:12:00.000Z</time>
      </trkpt>
      <trkpt lat="47.49721" lon="6.64555">
        <ele>397</ele>
        <time>2015-08-20T13:12:01.000Z</time>
      </trkpt>
      <trkpt lat="47.49724" lon="6.64548">
        <ele>397</ele>
        <time>2015-08-20T13:12:02.000Z</time>
      </trkpt>
      <trkpt lat="47.49727" lon="6.64541">
        <ele>397</ele>
        <time>2015-08-20T13:12:03.000Z</time>
      </trkpt>
      <trkpt lat="47.4973" lon="6.64534">
        <ele>397</ele>
        <time>2015-08-20T13:12:04.000Z</time>
      </trkpt>
      <trkpt lat="47.49733" lon="6.64526">
        <ele>397</ele>
        <time>2015-08-20T13:12:05.000Z</time>
      </trkpt>
      <trkpt lat="47.49736" lon="6.6452">
        <ele>396</ele>
        <time>2015-08-20T13:12:06.000Z</time>
      </trkpt>
      <trkpt lat="47.49738" lon="6.64513">
        <ele>396</ele>
        <time>2015-08-20T13:12:07.000Z</time>
      </trkpt>
      <trkpt lat="47.49741" lon="6.64506">
        <ele>396</ele>
        <time>2015-08-20T13:12:08.000Z</time>
      </trkpt>
      <trkpt lat="47.49743" lon="6.64499">
        <ele>396</ele>
        <time>2015-08-20T13:12:09.000Z</time>
      </trkpt>
      <trkpt lat="47.49745" lon="6.64492">
        <ele>396</ele>
        <time>2015-08-20T13:12:10.000Z</time>
      </trkpt>
      <trkpt lat="47.49748" lon="6.64485">
        <ele>396</ele>
        <time>2015-08-20T13:12:11.000Z</time>
      </trkpt>
      <trkpt lat="47.49751" lon="6.64478">
        <ele>395</ele>
        <time>2015-08-20T13:12:12.000Z</time>
      </trkpt>
      <trkpt lat="47.49754" lon="6.64471">
        <ele>394</ele>
        <time>2015-08-20T13:12:13.000Z</time>
      </trkpt>
      <trkpt lat="47.49757" lon="6.64464">
        <ele>394</ele>
        <time>2015-08-20T13:12:14.000Z</time>
      </trkpt>
      <trkpt lat="47.4976" lon="6.64457">
        <ele>394</ele>
        <time>2015-08-20T13:12:15.000Z</time>
      </trkpt>
      <trkpt lat="47.49762" lon="6.64451">
        <ele>394</ele>
        <time>2015-08-20T13:12:16.000Z</time>
      </trkpt>
      <trkpt lat="47.49765" lon="6.64444">
        <ele>394</ele>
        <time>2015-08-20T13:12:17.000Z</time>
      </trkpt>
      <trkpt lat="47.49769" lon="6.64437">
        <ele>394</ele>
        <time>2015-08-20T13:12:18.000Z</time>
      </trkpt>
      <trkpt lat="47.49772" lon="6.6443">
        <ele>393</ele>
        <time>2015-08-20T13:12:19.000Z</time>
      </trkpt>
      <trkpt lat="47.49776" lon="6.64424">
        <ele>393</ele>
        <time>2015-08-20T13:12:20.000Z</time>
      </trkpt>
      <trkpt lat="47.4978" lon="6.64417">
        <ele>393</ele>
        <time>2015-08-20T13:12:21.000Z</time>
      </trkpt>
      <trkpt lat="47.49785" lon="6.64413">
        <ele>392</ele>
        <time>2015-08-20T13:12:22.000Z</time>
      </trkpt>
      <trkpt lat="47.4979" lon="6.64407">
        <ele>392</ele>
        <time>2015-08-20T13:12:23.000Z</time>
      </trkpt>
      <trkpt lat="47.49795" lon="6.64402">
        <ele>392</ele>
        <time>2015-08-20T13:12:24.000Z</time>
      </trkpt>
      <trkpt lat="47.49799" lon="6.64397">
        <ele>392</ele>
        <time>2015-08-20T13:12:25.000Z</time>
      </trkpt>
      <trkpt lat="47.49803" lon="6.64392">
        <ele>392</ele>
        <time>2015-08-20T13:12:26.000Z</time>
      </trkpt>
      <trkpt lat="47.49807" lon="6.64387">
        <ele>392</ele>
        <time>2015-08-20T13:12:27.000Z</time>
      </trkpt>
      <trkpt lat="47.4981" lon="6.64378">
        <ele>392</ele>
        <time>2015-08-20T13:12:28.000Z</time>
      </trkpt>
      <trkpt lat="47.49813" lon="6.64369">
        <ele>392</ele>
        <time>2015-08-20T13:12:29.000Z</time>
      </trkpt>
      <trkpt lat="47.49816" lon="6.64348">
        <ele>391</ele>
        <time>2015-08-20T13:12:31.000Z</time>
      </trkpt>
      <trkpt lat="47.49817" lon="6.64339">
        <ele>391</ele>
        <time>2015-08-20T13:12:32.000Z</time>
      </trkpt>
      <trkpt lat="47.49818" lon="6.6433">
        <ele>391</ele>
        <time>2015-08-20T13:12:33.000Z</time>
      </trkpt>
      <trkpt lat="47.49819" lon="6.64322">
        <ele>391</ele>
        <time>2015-08-20T13:12:34.000Z</time>
      </trkpt>
      <trkpt lat="47.49821" lon="6.64317">
        <ele>391</ele>
        <time>2015-08-20T13:12:36.000Z</time>
      </trkpt>
      <trkpt lat="47.49821" lon="6.64315">
        <ele>391</ele>
        <time>2015-08-20T13:12:37.000Z</time>
      </trkpt>
      <trkpt lat="47.49818" lon="6.64311">
        <ele>392</ele>
        <time>2015-08-20T13:12:57.000Z</time>
      </trkpt>
      <trkpt lat="47.49817" lon="6.64311">
        <ele>392</ele>
        <time>2015-08-20T13:12:58.000Z</time>
      </trkpt>
      <trkpt lat="47.49821" lon="6.64314">
        <ele>391</ele>
        <time>2015-08-20T13:15:03.000Z</time>
      </trkpt>
      <trkpt lat="47.49821" lon="6.64314">
        <ele>391</ele>
        <time>2015-08-20T13:15:04.000Z</time>
      </trkpt>
      <trkpt lat="47.49819" lon="6.6432">
        <ele>391</ele>
        <time>2015-08-20T13:18:22.000Z</time>
      </trkpt>
      <trkpt lat="47.49818" lon="6.6432">
        <ele>391</ele>
        <time>2015-08-20T13:18:23.000Z</time>
      </trkpt>
      <trkpt lat="47.4982" lon="6.64314">
        <ele>392</ele>
        <time>2015-08-20T13:19:05.000Z</time>
      </trkpt>
      <trkpt lat="47.4982" lon="6.64313">
        <ele>392</ele>
        <time>2015-08-20T13:19:06.000Z</time>
      </trkpt>
      <trkpt lat="47.4982" lon="6.64307">
        <ele>392</ele>
        <time>2015-08-20T13:19:10.000Z</time>
      </trkpt>
      <trkpt lat="47.4982" lon="6.64304">
        <ele>392</ele>
        <time>2015-08-20T13:19:11.000Z</time>
      </trkpt>
      <trkpt lat="47.4982" lon="6.643">
        <ele>392</ele>
        <time>2015-08-20T13:19:12.000Z</time>
      </trkpt>
      <trkpt lat="47.4982" lon="6.64297">
        <ele>392</ele>
        <time>2015-08-20T13:19:13.000Z</time>
      </trkpt>
      <trkpt lat="47.49821" lon="6.64292">
        <ele>392</ele>
        <time>2015-08-20T13:19:14.000Z</time>
      </trkpt>
      <trkpt lat="47.49821" lon="6.64287">
        <ele>392</ele>
        <time>2015-08-20T13:19:15.000Z</time>
      </trkpt>
      <trkpt lat="47.49822" lon="6.64282">
        <ele>392</ele>
        <time>2015-08-20T13:19:16.000Z</time>
      </trkpt>
      <trkpt lat="47.49823" lon="6.64278">
        <ele>392</ele>
        <time>2015-08-20T13:19:17.000Z</time>
      </trkpt>
      <trkpt lat="47.49823" lon="6.64273">
        <ele>392</ele>
        <time>2015-08-20T13:19:18.000Z</time>
      </trkpt>
      <trkpt lat="47.49823" lon="6.64269">
        <ele>392</ele>
        <time>2015-08-20T13:19:19.000Z</time>
      </trkpt>
      <trkpt lat="47.49824" lon="6.64265">
        <ele>392</ele>
        <time>2015-08-20T13:19:20.000Z</time>
      </trkpt>
      <trkpt lat="47.49824" lon="6.64262">
        <ele>392</ele>
        <time>2015-08-20T13:19:21.000Z</time>
      </trkpt>
      <trkpt lat="47.49825" lon="6.64258">
        <ele>393</ele>
        <time>2015-08-20T13:19:22.000Z</time>
      </trkpt>
      <trkpt lat="47.49826" lon="6.64254">
        <ele>393</ele>
        <time>2015-08-20T13:19:23.000Z</time>
      </trkpt>
      <trkpt lat="47.49826" lon="6.64249">
        <ele>394</ele>
        <time>2015-08-20T13:19:24.000Z</time>
      </trkpt>
      <trkpt lat="47.49827" lon="6.64245">
        <ele>394</ele>
        <time>2015-08-20T13:19:25.000Z</time>
      </trkpt>
      <trkpt lat="47.49828" lon="6.6424">
        <ele>394</ele>
        <time>2015-08-20T13:19:26.000Z</time>
      </trkpt>
      <trkpt lat="47.49829" lon="6.64236">
        <ele>395</ele>
        <time>2015-08-20T13:19:27.000Z</time>
      </trkpt>
      <trkpt lat="47.4983" lon="6.64232">
        <ele>395</ele>
        <time>2015-08-20T13:19:28.000Z</time>
      </trkpt>
      <trkpt lat="47.49831" lon="6.64228">
        <ele>396</ele>
        <time>2015-08-20T13:19:29.000Z</time>
      </trkpt>
      <trkpt lat="47.49832" lon="6.64223">
        <ele>396</ele>
        <time>2015-08-20T13:19:30.000Z</time>
      </trkpt>
      <trkpt lat="47.49832" lon="6.64219">
        <ele>396</ele>
        <time>2015-08-20T13:19:31.000Z</time>
      </trkpt>
      <trkpt lat="47.49833" lon="6.64214">
        <ele>397</ele>
        <time>2015-08-20T13:19:32.000Z</time>
      </trkpt>
      <trkpt lat="47.49834" lon="6.6421">
        <ele>397</ele>
        <time>2015-08-20T13:19:33.000Z</time>
      </trkpt>
      <trkpt lat="47.49835" lon="6.64206">
        <ele>397</ele>
        <time>2015-08-20T13:19:34.000Z</time>
      </trkpt>
      <trkpt lat="47.49836" lon="6.64202">
        <ele>398</ele>
        <time>2015-08-20T13:19:35.000Z</time>
      </trkpt>
      <trkpt lat="47.49837" lon="6.64198">
        <ele>398</ele>
        <time>2015-08-20T13:19:36.000Z</time>
      </trkpt>
      <trkpt lat="47.49837" lon="6.64195">
        <ele>398</ele>
        <time>2015-08-20T13:19:37.000Z</time>
      </trkpt>
      <trkpt lat="47.49838" lon="6.64191">
        <ele>399</ele>
        <time>2015-08-20T13:19:38.000Z</time>
      </trkpt>
      <trkpt lat="47.49839" lon="6.64187">
        <ele>399</ele>
        <time>2015-08-20T13:19:39.000Z</time>
      </trkpt>
      <trkpt lat="47.49839" lon="6.64184">
        <ele>399</ele>
        <time>2015-08-20T13:19:40.000Z</time>
      </trkpt>
      <trkpt lat="47.4984" lon="6.64181">
        <ele>399</ele>
        <time>2015-08-20T13:19:41.000Z</time>
      </trkpt>
      <trkpt lat="47.4984" lon="6.64177">
        <ele>400</ele>
        <time>2015-08-20T13:19:42.000Z</time>
      </trkpt>
      <trkpt lat="47.49841" lon="6.64174">
        <ele>400</ele>
        <time>2015-08-20T13:19:43.000Z</time>
      </trkpt>
      <trkpt lat="47.49841" lon="6.64171">
        <ele>400</ele>
        <time>2015-08-20T13:19:44.000Z</time>
      </trkpt>
      <trkpt lat="47.49842" lon="6.64167">
        <ele>400</ele>
        <time>2015-08-20T13:19:45.000Z</time>
      </trkpt>
      <trkpt lat="47.49842" lon="6.64164">
        <ele>403</ele>
        <time>2015-08-20T13:19:46.000Z</time>
      </trkpt>
      <trkpt lat="47.49842" lon="6.6416">
        <ele>404</ele>
        <time>2015-08-20T13:19:47.000Z</time>
      </trkpt>
      <trkpt lat="47.49842" lon="6.64154">
        <ele>405</ele>
        <time>2015-08-20T13:19:49.000Z</time>
      </trkpt>
      <trkpt lat="47.49842" lon="6.64151">
        <ele>405</ele>
        <time>2015-08-20T13:19:50.000Z</time>
      </trkpt>
      <trkpt lat="47.49841" lon="6.64146">
        <ele>406</ele>
        <time>2015-08-20T13:19:52.000Z</time>
      </trkpt>
      <trkpt lat="47.4984" lon="6.64144">
        <ele>406</ele>
        <time>2015-08-20T13:19:53.000Z</time>
      </trkpt>
      <trkpt lat="47.49838" lon="6.64138">
        <ele>407</ele>
        <time>2015-08-20T13:19:55.000Z</time>
      </trkpt>
      <trkpt lat="47.49837" lon="6.64136">
        <ele>407</ele>
        <time>2015-08-20T13:19:56.000Z</time>
      </trkpt>
      <trkpt lat="47.49835" lon="6.6413">
        <ele>407</ele>
        <time>2015-08-20T13:19:58.000Z</time>
      </trkpt>
      <trkpt lat="47.49834" lon="6.64127">
        <ele>408</ele>
        <time>2015-08-20T13:19:59.000Z</time>
      </trkpt>
      <trkpt lat="47.49833" lon="6.64122">
        <ele>407</ele>
        <time>2015-08-20T13:20:01.000Z</time>
      </trkpt>
      <trkpt lat="47.49831" lon="6.6412">
        <ele>407</ele>
        <time>2015-08-20T13:20:02.000Z</time>
      </trkpt>
      <trkpt lat="47.49829" lon="6.64116">
        <ele>408</ele>
        <time>2015-08-20T13:20:04.000Z</time>
      </trkpt>
      <trkpt lat="47.49828" lon="6.64114">
        <ele>408</ele>
        <time>2015-08-20T13:20:05.000Z</time>
      </trkpt>
      <trkpt lat="47.49825" lon="6.64109">
        <ele>409</ele>
        <time>2015-08-20T13:20:08.000Z</time>
      </trkpt>
      <trkpt lat="47.49825" lon="6.64107">
        <ele>409</ele>
        <time>2015-08-20T13:20:09.000Z</time>
      </trkpt>
      <trkpt lat="47.49826" lon="6.64101">
        <ele>409</ele>
        <time>2015-08-20T13:20:12.000Z</time>
      </trkpt>
      <trkpt lat="47.49826" lon="6.64099">
        <ele>410</ele>
        <time>2015-08-20T13:20:13.000Z</time>
      </trkpt>
      <trkpt lat="47.49827" lon="6.64093">
        <ele>411</ele>
        <time>2015-08-20T13:20:16.000Z</time>
      </trkpt>
      <trkpt lat="47.49827" lon="6.6409">
        <ele>411</ele>
        <time>2015-08-20T13:20:17.000Z</time>
      </trkpt>
      <trkpt lat="47.49828" lon="6.64085">
        <ele>412</ele>
        <time>2015-08-20T13:20:19.000Z</time>
      </trkpt>
      <trkpt lat="47.49828" lon="6.64083">
        <ele>413</ele>
        <time>2015-08-20T13:20:20.000Z</time>
      </trkpt>
      <trkpt lat="47.49828" lon="6.64078">
        <ele>413</ele>
        <time>2015-08-20T13:20:22.000Z</time>
      </trkpt>
      <trkpt lat="47.49828" lon="6.64075">
        <ele>414</ele>
        <time>2015-08-20T13:20:23.000Z</time>
      </trkpt>
      <trkpt lat="47.49828" lon="6.64069">
        <ele>414</ele>
        <time>2015-08-20T13:20:25.000Z</time>
      </trkpt>
      <trkpt lat="47.49828" lon="6.64066">
        <ele>414</ele>
        <time>2015-08-20T13:20:26.000Z</time>
      </trkpt>
      <trkpt lat="47.49829" lon="6.64063">
        <ele>414</ele>
        <time>2015-08-20T13:20:27.000Z</time>
      </trkpt>
      <trkpt lat="47.49829" lon="6.64057">
        <ele>414</ele>
        <time>2015-08-20T13:20:29.000Z</time>
      </trkpt>
      <trkpt lat="47.49829" lon="6.64052">
        <ele>415</ele>
        <time>2015-08-20T13:20:31.000Z</time>
      </trkpt>
      <trkpt lat="47.49828" lon="6.64049">
        <ele>415</ele>
        <time>2015-08-20T13:20:32.000Z</time>
      </trkpt>
      <trkpt lat="47.49828" lon="6.64044">
        <ele>415</ele>
        <time>2015-08-20T13:20:34.000Z</time>
      </trkpt>
      <trkpt lat="47.49827" lon="6.64041">
        <ele>415</ele>
        <time>2015-08-20T13:20:35.000Z</time>
      </trkpt>
      <trkpt lat="47.49827" lon="6.64035">
        <ele>415</ele>
        <time>2015-08-20T13:20:37.000Z</time>
      </trkpt>
      <trkpt lat="47.49826" lon="6.64033">
        <ele>416</ele>
        <time>2015-08-20T13:20:38.000Z</time>
      </trkpt>
      <trkpt lat="47.49826" lon="6.64029">
        <ele>416</ele>
        <time>2015-08-20T13:20:39.000Z</time>
      </trkpt>
      <trkpt lat="47.49826" lon="6.64026">
        <ele>416</ele>
        <time>2015-08-20T13:20:40.000Z</time>
      </trkpt>
      <trkpt lat="47.49825" lon="6.64022">
        <ele>416</ele>
        <time>2015-08-20T13:20:41.000Z</time>
      </trkpt>
      <trkpt lat="47.49825" lon="6.64019">
        <ele>416</ele>
        <time>2015-08-20T13:20:42.000Z</time>
      </trkpt>
      <trkpt lat="47.49825" lon="6.64014">
        <ele>417</ele>
        <time>2015-08-20T13:20:44.000Z</time>
      </trkpt>
      <trkpt lat="47.49826" lon="6.64012">
        <ele>417</ele>
        <time>2015-08-20T13:20:45.000Z</time>
      </trkpt>
      <trkpt lat="47.49829" lon="6.64007">
        <ele>418</ele>
        <time>2015-08-20T13:20:48.000Z</time>
      </trkpt>
      <trkpt lat="47.4983" lon="6.64006">
        <ele>418</ele>
        <time>2015-08-20T13:20:49.000Z</time>
      </trkpt>
      <trkpt lat="47.49834" lon="6.64003">
        <ele>419</ele>
        <time>2015-08-20T13:20:51.000Z</time>
      </trkpt>
      <trkpt lat="47.49836" lon="6.64002">
        <ele>419</ele>
        <time>2015-08-20T13:20:52.000Z</time>
      </trkpt>
      <trkpt lat="47.49839" lon="6.63999">
        <ele>420</ele>
        <time>2015-08-20T13:20:55.000Z</time>
      </trkpt>
      <trkpt lat="47.4984" lon="6.63998">
        <ele>420</ele>
        <time>2015-08-20T13:20:56.000Z</time>
      </trkpt>
      <trkpt lat="47.49844" lon="6.63998">
        <ele>421</ele>
        <time>2015-08-20T13:21:00.000Z</time>
      </trkpt>
      <trkpt lat="47.49845" lon="6.63998">
        <ele>421</ele>
        <time>2015-08-20T13:21:01.000Z</time>
      </trkpt>
      <trkpt lat="47.49849" lon="6.64001">
        <ele>419</ele>
        <time>2015-08-20T13:21:04.000Z</time>
      </trkpt>
      <trkpt lat="47.49851" lon="6.64002">
        <ele>419</ele>
        <time>2015-08-20T13:21:05.000Z</time>
      </trkpt>
      <trkpt lat="47.49855" lon="6.64003">
        <ele>420</ele>
        <time>2015-08-20T13:21:08.000Z</time>
      </trkpt>
      <trkpt lat="47.49856" lon="6.64004">
        <ele>420</ele>
        <time>2015-08-20T13:21:09.000Z</time>
      </trkpt>
      <trkpt lat="47.4986" lon="6.64004">
        <ele>420</ele>
        <time>2015-08-20T13:21:11.000Z</time>
      </trkpt>
      <trkpt lat="47.49861" lon="6.64004">
        <ele>420</ele>
        <time>2015-08-20T13:21:12.000Z</time>
      </trkpt>
      <trkpt lat="47.49865" lon="6.64003">
        <ele>420</ele>
        <time>2015-08-20T13:21:15.000Z</time>
      </trkpt>
      <trkpt lat="47.49867" lon="6.64003">
        <ele>420</ele>
        <time>2015-08-20T13:21:16.000Z</time>
      </trkpt>
      <trkpt lat="47.4987" lon="6.64004">
        <ele>420</ele>
        <time>2015-08-20T13:21:18.000Z</time>
      </trkpt>
      <trkpt lat="47.49872" lon="6.64004">
        <ele>420</ele>
        <time>2015-08-20T13:21:19.000Z</time>
      </trkpt>
      <trkpt lat="47.49875" lon="6.64006">
        <ele>421</ele>
        <time>2015-08-20T13:21:21.000Z</time>
      </trkpt>
      <trkpt lat="47.49877" lon="6.64006">
        <ele>421</ele>
        <time>2015-08-20T13:21:22.000Z</time>
      </trkpt>
      <trkpt lat="47.49881" lon="6.64005">
        <ele>421</ele>
        <time>2015-08-20T13:21:25.000Z</time>
      </trkpt>
      <trkpt lat="47.49882" lon="6.64004">
        <ele>421</ele>
        <time>2015-08-20T13:21:26.000Z</time>
      </trkpt>
      <trkpt lat="47.49884" lon="6.64003">
        <ele>421</ele>
        <time>2015-08-20T13:21:27.000Z</time>
      </trkpt>
      <trkpt lat="47.49887" lon="6.63998">
        <ele>424</ele>
        <time>2015-08-20T13:21:29.000Z</time>
      </trkpt>
      <trkpt lat="47.49888" lon="6.63995">
        <ele>425</ele>
        <time>2015-08-20T13:21:30.000Z</time>
      </trkpt>
      <trkpt lat="47.4989" lon="6.63992">
        <ele>425</ele>
        <time>2015-08-20T13:21:31.000Z</time>
      </trkpt>
      <trkpt lat="47.49892" lon="6.63986">
        <ele>425</ele>
        <time>2015-08-20T13:21:33.000Z</time>
      </trkpt>
      <trkpt lat="47.49893" lon="6.63983">
        <ele>425</ele>
        <time>2015-08-20T13:21:34.000Z</time>
      </trkpt>
      <trkpt lat="47.49895" lon="6.6398">
        <ele>425</ele>
        <time>2015-08-20T13:21:35.000Z</time>
      </trkpt>
      <trkpt lat="47.49896" lon="6.63978">
        <ele>425</ele>
        <time>2015-08-20T13:21:36.000Z</time>
      </trkpt>
      <trkpt lat="47.49898" lon="6.63975">
        <ele>425</ele>
        <time>2015-08-20T13:21:37.000Z</time>
      </trkpt>
      <trkpt lat="47.49899" lon="6.63972">
        <ele>425</ele>
        <time>2015-08-20T13:21:38.000Z</time>
      </trkpt>
      <trkpt lat="47.49902" lon="6.63967">
        <ele>425</ele>
        <time>2015-08-20T13:21:40.000Z</time>
      </trkpt>
      <trkpt lat="47.49903" lon="6.63964">
        <ele>425</ele>
        <time>2015-08-20T13:21:41.000Z</time>
      </trkpt>
      <trkpt lat="47.49904" lon="6.63961">
        <ele>425</ele>
        <time>2015-08-20T13:21:42.000Z</time>
      </trkpt>
      <trkpt lat="47.49905" lon="6.63958">
        <ele>426</ele>
        <time>2015-08-20T13:21:43.000Z</time>
      </trkpt>
      <trkpt lat="47.49906" lon="6.63955">
        <ele>426</ele>
        <time>2015-08-20T13:21:44.000Z</time>
      </trkpt>
      <trkpt lat="47.49908" lon="6.63951">
        <ele>426</ele>
        <time>2015-08-20T13:21:45.000Z</time>
      </trkpt>
      <trkpt lat="47.4991" lon="6.63948">
        <ele>426</ele>
        <time>2015-08-20T13:21:46.000Z</time>
      </trkpt>
      <trkpt lat="47.49913" lon="6.63944">
        <ele>426</ele>
        <time>2015-08-20T13:21:47.000Z</time>
      </trkpt>
      <trkpt lat="47.49915" lon="6.63941">
        <ele>427</ele>
        <time>2015-08-20T13:21:48.000Z</time>
      </trkpt>
      <trkpt lat="47.49917" lon="6.63937">
        <ele>430</ele>
        <time>2015-08-20T13:21:49.000Z</time>
      </trkpt>
      <trkpt lat="47.4992" lon="6.63934">
        <ele>430</ele>
        <time>2015-08-20T13:21:50.000Z</time>
      </trkpt>
      <trkpt lat="47.49922" lon="6.63932">
        <ele>430</ele>
        <time>2015-08-20T13:21:51.000Z</time>
      </trkpt>
      <trkpt lat="47.49925" lon="6.63927">
        <ele>430</ele>
        <time>2015-08-20T13:21:53.000Z</time>
      </trkpt>
      <trkpt lat="47.49927" lon="6.63926">
        <ele>430</ele>
        <time>2015-08-20T13:21:54.000Z</time>
      </trkpt>
      <trkpt lat="47.4993" lon="6.63923">
        <ele>430</ele>
        <time>2015-08-20T13:21:56.000Z</time>
      </trkpt>
      <trkpt lat="47.49932" lon="6.63922">
        <ele>430</ele>
        <time>2015-08-20T13:21:57.000Z</time>
      </trkpt>
      <trkpt lat="47.49935" lon="6.63919">
        <ele>430</ele>
        <time>2015-08-20T13:21:59.000Z</time>
      </trkpt>
      <trkpt lat="47.49938" lon="6.63918">
        <ele>430</ele>
        <time>2015-08-20T13:22:00.000Z</time>
      </trkpt>
      <trkpt lat="47.4994" lon="6.63916">
        <ele>433</ele>
        <time>2015-08-20T13:22:01.000Z</time>
      </trkpt>
      <trkpt lat="47.49943" lon="6.63915">
        <ele>433</ele>
        <time>2015-08-20T13:22:02.000Z</time>
      </trkpt>
      <trkpt lat="47.49945" lon="6.63914">
        <ele>433</ele>
        <time>2015-08-20T13:22:03.000Z</time>
      </trkpt>
      <trkpt lat="47.49948" lon="6.63914">
        <ele>433</ele>
        <time>2015-08-20T13:22:04.000Z</time>
      </trkpt>
      <trkpt lat="47.4995" lon="6.63912">
        <ele>433</ele>
        <time>2015-08-20T13:22:05.000Z</time>
      </trkpt>
      <trkpt lat="47.49953" lon="6.63911">
        <ele>434</ele>
        <time>2015-08-20T13:22:06.000Z</time>
      </trkpt>
      <trkpt lat="47.49956" lon="6.6391">
        <ele>434</ele>
        <time>2015-08-20T13:22:07.000Z</time>
      </trkpt>
      <trkpt lat="47.49959" lon="6.63909">
        <ele>434</ele>
        <time>2015-08-20T13:22:08.000Z</time>
      </trkpt>
      <trkpt lat="47.49962" lon="6.63908">
        <ele>434</ele>
        <time>2015-08-20T13:22:09.000Z</time>
      </trkpt>
      <trkpt lat="47.49965" lon="6.63907">
        <ele>434</ele>
        <time>2015-08-20T13:22:10.000Z</time>
      </trkpt>
      <trkpt lat="47.49967" lon="6.63906">
        <ele>434</ele>
        <time>2015-08-20T13:22:11.000Z</time>
      </trkpt>
      <trkpt lat="47.4997" lon="6.63905">
        <ele>434</ele>
        <time>2015-08-20T13:22:12.000Z</time>
      </trkpt>
      <trkpt lat="47.49972" lon="6.63904">
        <ele>434</ele>
        <time>2015-08-20T13:22:13.000Z</time>
      </trkpt>
      <trkpt lat="47.49975" lon="6.63902">
        <ele>434</ele>
        <time>2015-08-20T13:22:14.000Z</time>
      </trkpt>
      <trkpt lat="47.49978" lon="6.63901">
        <ele>434</ele>
        <time>2015-08-20T13:22:15.000Z</time>
      </trkpt>
      <trkpt lat="47.4998" lon="6.639">
        <ele>434</ele>
        <time>2015-08-20T13:22:16.000Z</time>
      </trkpt>
      <trkpt lat="47.49983" lon="6.63898">
        <ele>435</ele>
        <time>2015-08-20T13:22:17.000Z</time>
      </trkpt>
      <trkpt lat="47.49986" lon="6.63897">
        <ele>435</ele>
        <time>2015-08-20T13:22:18.000Z</time>
      </trkpt>
      <trkpt lat="47.49988" lon="6.63896">
        <ele>435</ele>
        <time>2015-08-20T13:22:19.000Z</time>
      </trkpt>
      <trkpt lat="47.4999" lon="6.63895">
        <ele>435</ele>
        <time>2015-08-20T13:22:20.000Z</time>
      </trkpt>
      <trkpt lat="47.49992" lon="6.63893">
        <ele>435</ele>
        <time>2015-08-20T13:22:21.000Z</time>
      </trkpt>
      <trkpt lat="47.49994" lon="6.63891">
        <ele>435</ele>
        <time>2015-08-20T13:22:22.000Z</time>
      </trkpt>
      <trkpt lat="47.49996" lon="6.63889">
        <ele>435</ele>
        <time>2015-08-20T13:22:23.000Z</time>
      </trkpt>
      <trkpt lat="47.49998" lon="6.63888">
        <ele>435</ele>
        <time>2015-08-20T13:22:24.000Z</time>
      </trkpt>
      <trkpt lat="47.5" lon="6.63886">
        <ele>436</ele>
        <time>2015-08-20T13:22:25.000Z</time>
      </trkpt>
      <trkpt lat="47.50002" lon="6.63884">
        <ele>436</ele>
        <time>2015-08-20T13:22:26.000Z</time>
      </trkpt>
      <trkpt lat="47.50005" lon="6.63882">
        <ele>436</ele>
        <time>2015-08-20T13:22:27.000Z</time>
      </trkpt>
      <trkpt lat="47.50007" lon="6.6388">
        <ele>437</ele>
        <time>2015-08-20T13:22:28.000Z</time>
      </trkpt>
      <trkpt lat="47.50009" lon="6.63879">
        <ele>437</ele>
        <time>2015-08-20T13:22:29.000Z</time>
      </trkpt>
      <trkpt lat="47.50011" lon="6.63877">
        <ele>437</ele>
        <time>2015-08-20T13:22:30.000Z</time>
      </trkpt>
      <trkpt lat="47.50013" lon="6.63875">
        <ele>437</ele>
        <time>2015-08-20T13:22:31.000Z</time>
      </trkpt>
      <trkpt lat="47.50016" lon="6.63872">
        <ele>437</ele>
        <time>2015-08-20T13:22:32.000Z</time>
      </trkpt>
      <trkpt lat="47.50018" lon="6.6387">
        <ele>437</ele>
        <time>2015-08-20T13:22:33.000Z</time>
      </trkpt>
      <trkpt lat="47.5002" lon="6.63867">
        <ele>437</ele>
        <time>2015-08-20T13:22:34.000Z</time>
      </trkpt>
      <trkpt lat="47.50022" lon="6.63865">
        <ele>437</ele>
        <time>2015-08-20T13:22:35.000Z</time>
      </trkpt>
      <trkpt lat="47.50024" lon="6.63863">
        <ele>437</ele>
        <time>2015-08-20T13:22:36.000Z</time>
      </trkpt>
      <trkpt lat="47.50026" lon="6.63861">
        <ele>437</ele>
        <time>2015-08-20T13:22:37.000Z</time>
      </trkpt>
      <trkpt lat="47.50029" lon="6.6386">
        <ele>437</ele>
        <time>2015-08-20T13:22:38.000Z</time>
      </trkpt>
      <trkpt lat="47.50031" lon="6.63859">
        <ele>437</ele>
        <time>2015-08-20T13:22:39.000Z</time>
      </trkpt>
      <trkpt lat="47.50033" lon="6.63858">
        <ele>437</ele>
        <time>2015-08-20T13:22:40.000Z</time>
      </trkpt>
      <trkpt lat="47.50037" lon="6.63857">
        <ele>437</ele>
        <time>2015-08-20T13:22:42.000Z</time>
      </trkpt>
      <trkpt lat="47.5004" lon="6.63857">
        <ele>437</ele>
        <time>2015-08-20T13:22:43.000Z</time>
      </trkpt>
      <trkpt lat="47.50043" lon="6.63856">
        <ele>437</ele>
        <time>2015-08-20T13:22:44.000Z</time>
      </trkpt>
      <trkpt lat="47.50045" lon="6.63856">
        <ele>437</ele>
        <time>2015-08-20T13:22:45.000Z</time>
      </trkpt>
      <trkpt lat="47.50048" lon="6.63856">
        <ele>437</ele>
        <time>2015-08-20T13:22:46.000Z</time>
      </trkpt>
      <trkpt lat="47.50051" lon="6.63856">
        <ele>437</ele>
        <time>2015-08-20T13:22:47.000Z</time>
      </trkpt>
      <trkpt lat="47.50053" lon="6.63857">
        <ele>437</ele>
        <time>2015-08-20T13:22:48.000Z</time>
      </trkpt>
      <trkpt lat="47.50056" lon="6.63858">
        <ele>437</ele>
        <time>2015-08-20T13:22:49.000Z</time>
      </trkpt>
      <trkpt lat="47.50058" lon="6.63858">
        <ele>437</ele>
        <time>2015-08-20T13:22:50.000Z</time>
      </trkpt>
      <trkpt lat="47.50061" lon="6.63859">
        <ele>437</ele>
        <time>2015-08-20T13:22:51.000Z</time>
      </trkpt>
      <trkpt lat="47.50063" lon="6.63859">
        <ele>437</ele>
        <time>2015-08-20T13:22:52.000Z</time>
      </trkpt>
      <trkpt lat="47.50066" lon="6.6386">
        <ele>437</ele>
        <time>2015-08-20T13:22:53.000Z</time>
      </trkpt>
      <trkpt lat="47.50068" lon="6.63861">
        <ele>437</ele>
        <time>2015-08-20T13:22:54.000Z</time>
      </trkpt>
      <trkpt lat="47.5007" lon="6.63862">
        <ele>437</ele>
        <time>2015-08-20T13:22:55.000Z</time>
      </trkpt>
      <trkpt lat="47.50072" lon="6.63862">
        <ele>437</ele>
        <time>2015-08-20T13:22:56.000Z</time>
      </trkpt>
      <trkpt lat="47.50075" lon="6.63863">
        <ele>437</ele>
        <time>2015-08-20T13:22:57.000Z</time>
      </trkpt>
      <trkpt lat="47.50077" lon="6.63864">
        <ele>437</ele>
        <time>2015-08-20T13:22:58.000Z</time>
      </trkpt>
      <trkpt lat="47.50079" lon="6.63864">
        <ele>437</ele>
        <time>2015-08-20T13:22:59.000Z</time>
      </trkpt>
      <trkpt lat="47.50082" lon="6.63865">
        <ele>437</ele>
        <time>2015-08-20T13:23:00.000Z</time>
      </trkpt>
      <trkpt lat="47.50085" lon="6.63866">
        <ele>437</ele>
        <time>2015-08-20T13:23:01.000Z</time>
      </trkpt>
      <trkpt lat="47.50089" lon="6.63868">
        <ele>437</ele>
        <time>2015-08-20T13:23:02.000Z</time>
      </trkpt>
      <trkpt lat="47.50092" lon="6.63869">
        <ele>437</ele>
        <time>2015-08-20T13:23:03.000Z</time>
      </trkpt>
      <trkpt lat="47.50096" lon="6.63871">
        <ele>437</ele>
        <time>2015-08-20T13:23:04.000Z</time>
      </trkpt>
      <trkpt lat="47.50099" lon="6.63873">
        <ele>437</ele>
        <time>2015-08-20T13:23:05.000Z</time>
      </trkpt>
      <trkpt lat="47.50102" lon="6.63874">
        <ele>437</ele>
        <time>2015-08-20T13:23:06.000Z</time>
      </trkpt>
      <trkpt lat="47.50106" lon="6.63876">
        <ele>437</ele>
        <time>2015-08-20T13:23:07.000Z</time>
      </trkpt>
      <trkpt lat="47.50109" lon="6.63877">
        <ele>437</ele>
        <time>2015-08-20T13:23:08.000Z</time>
      </trkpt>
      <trkpt lat="47.50111" lon="6.63878">
        <ele>437</ele>
        <time>2015-08-20T13:23:08.998Z</time>
      </trkpt>
      <trkpt lat="47.50115" lon="6.6388">
        <ele>437</ele>
        <time>2015-08-20T13:23:10.000Z</time>
      </trkpt>
      <trkpt lat="47.50118" lon="6.63882">
        <ele>437</ele>
        <time>2015-08-20T13:23:11.000Z</time>
      </trkpt>
      <trkpt lat="47.50121" lon="6.63883">
        <ele>437</ele>
        <time>2015-08-20T13:23:12.000Z</time>
      </trkpt>
      <trkpt lat="47.50123" lon="6.63884">
        <ele>437</ele>
        <time>2015-08-20T13:23:13.000Z</time>
      </trkpt>
      <trkpt lat="47.50126" lon="6.63886">
        <ele>437</ele>
        <time>2015-08-20T13:23:14.000Z</time>
      </trkpt>
      <trkpt lat="47.50129" lon="6.63887">
        <ele>437</ele>
        <time>2015-08-20T13:23:15.000Z</time>
      </trkpt>
      <trkpt lat="47.50132" lon="6.63889">
        <ele>437</ele>
        <time>2015-08-20T13:23:16.000Z</time>
      </trkpt>
      <trkpt lat="47.50135" lon="6.63891">
        <ele>437</ele>
        <time>2015-08-20T13:23:17.000Z</time>
      </trkpt>
      <trkpt lat="47.50138" lon="6.63892">
        <ele>437</ele>
        <time>2015-08-20T13:23:18.000Z</time>
      </trkpt>
      <trkpt lat="47.50141" lon="6.63893">
        <ele>437</ele>
        <time>2015-08-20T13:23:19.000Z</time>
      </trkpt>
      <trkpt lat="47.50144" lon="6.63894">
        <ele>437</ele>
        <time>2015-08-20T13:23:20.000Z</time>
      </trkpt>
      <trkpt lat="47.50147" lon="6.63895">
        <ele>437</ele>
        <time>2015-08-20T13:23:21.000Z</time>
      </trkpt>
      <trkpt lat="47.50151" lon="6.63898">
        <ele>437</ele>
        <time>2015-08-20T13:23:23.000Z</time>
      </trkpt>
      <trkpt lat="47.50152" lon="6.63899">
        <ele>437</ele>
        <time>2015-08-20T13:23:24.000Z</time>
      </trkpt>
      <trkpt lat="47.50156" lon="6.63901">
        <ele>437</ele>
        <time>2015-08-20T13:23:26.000Z</time>
      </trkpt>
      <trkpt lat="47.50158" lon="6.63903">
        <ele>437</ele>
        <time>2015-08-20T13:23:27.000Z</time>
      </trkpt>
      <trkpt lat="47.50161" lon="6.63904">
        <ele>437</ele>
        <time>2015-08-20T13:23:28.000Z</time>
      </trkpt>
      <trkpt lat="47.50163" lon="6.63905">
        <ele>437</ele>
        <time>2015-08-20T13:23:29.000Z</time>
      </trkpt>
      <trkpt lat="47.50165" lon="6.63906">
        <ele>437</ele>
        <time>2015-08-20T13:23:30.000Z</time>
      </trkpt>
      <trkpt lat="47.50168" lon="6.63908">
        <ele>439</ele>
        <time>2015-08-20T13:23:31.000Z</time>
      </trkpt>
      <trkpt lat="47.5017" lon="6.6391">
        <ele>438</ele>
        <time>2015-08-20T13:23:32.000Z</time>
      </trkpt>
      <trkpt lat="47.50173" lon="6.63912">
        <ele>438</ele>
        <time>2015-08-20T13:23:33.000Z</time>
      </trkpt>
      <trkpt lat="47.50176" lon="6.63914">
        <ele>439</ele>
        <time>2015-08-20T13:23:34.000Z</time>
      </trkpt>
      <trkpt lat="47.50179" lon="6.63915">
        <ele>439</ele>
        <time>2015-08-20T13:23:35.000Z</time>
      </trkpt>
      <trkpt lat="47.50182" lon="6.63916">
        <ele>440</ele>
        <time>2015-08-20T13:23:36.000Z</time>
      </trkpt>
      <trkpt lat="47.50185" lon="6.63917">
        <ele>438</ele>
        <time>2015-08-20T13:23:37.000Z</time>
      </trkpt>
      <trkpt lat="47.50188" lon="6.63918">
        <ele>438</ele>
        <time>2015-08-20T13:23:38.000Z</time>
      </trkpt>
      <trkpt lat="47.50191" lon="6.63919">
        <ele>438</ele>
        <time>2015-08-20T13:23:39.000Z</time>
      </trkpt>
      <trkpt lat="47.50195" lon="6.63919">
        <ele>439</ele>
        <time>2015-08-20T13:23:40.000Z</time>
      </trkpt>
      <trkpt lat="47.50198" lon="6.63919">
        <ele>439</ele>
        <time>2015-08-20T13:23:41.000Z</time>
      </trkpt>
      <trkpt lat="47.50202" lon="6.63917">
        <ele>439</ele>
        <time>2015-08-20T13:23:42.000Z</time>
      </trkpt>
      <trkpt lat="47.50205" lon="6.63915">
        <ele>443</ele>
        <time>2015-08-20T13:23:43.000Z</time>
      </trkpt>
      <trkpt lat="47.50207" lon="6.63912">
        <ele>444</ele>
        <time>2015-08-20T13:23:44.000Z</time>
      </trkpt>
      <trkpt lat="47.50209" lon="6.63908">
        <ele>444</ele>
        <time>2015-08-20T13:23:45.000Z</time>
      </trkpt>
      <trkpt lat="47.5021" lon="6.63903">
        <ele>444</ele>
        <time>2015-08-20T13:23:46.000Z</time>
      </trkpt>
      <trkpt lat="47.50211" lon="6.63898">
        <ele>444</ele>
        <time>2015-08-20T13:23:47.000Z</time>
      </trkpt>
      <trkpt lat="47.50212" lon="6.63894">
        <ele>445</ele>
        <time>2015-08-20T13:23:48.000Z</time>
      </trkpt>
      <trkpt lat="47.50213" lon="6.63889">
        <ele>445</ele>
        <time>2015-08-20T13:23:49.000Z</time>
      </trkpt>
      <trkpt lat="47.50214" lon="6.63884">
        <ele>445</ele>
        <time>2015-08-20T13:23:50.000Z</time>
      </trkpt>
      <trkpt lat="47.50214" lon="6.6388">
        <ele>445</ele>
        <time>2015-08-20T13:23:51.000Z</time>
      </trkpt>
      <trkpt lat="47.50215" lon="6.63875">
        <ele>446</ele>
        <time>2015-08-20T13:23:52.000Z</time>
      </trkpt>
      <trkpt lat="47.50216" lon="6.6387">
        <ele>446</ele>
        <time>2015-08-20T13:23:53.000Z</time>
      </trkpt>
      <trkpt lat="47.50216" lon="6.63866">
        <ele>446</ele>
        <time>2015-08-20T13:23:54.000Z</time>
      </trkpt>
      <trkpt lat="47.50214" lon="6.63853">
        <ele>446</ele>
        <time>2015-08-20T13:23:55.000Z</time>
      </trkpt>
      <trkpt lat="47.50214" lon="6.63848">
        <ele>446</ele>
        <time>2015-08-20T13:23:56.000Z</time>
      </trkpt>
      <trkpt lat="47.50214" lon="6.63845">
        <ele>447</ele>
        <time>2015-08-20T13:23:57.000Z</time>
      </trkpt>
      <trkpt lat="47.50214" lon="6.6384">
        <ele>447</ele>
        <time>2015-08-20T13:23:58.000Z</time>
      </trkpt>
      <trkpt lat="47.50215" lon="6.63834">
        <ele>447</ele>
        <time>2015-08-20T13:23:59.000Z</time>
      </trkpt>
      <trkpt lat="47.50215" lon="6.6383">
        <ele>450</ele>
        <time>2015-08-20T13:24:00.000Z</time>
      </trkpt>
      <trkpt lat="47.50216" lon="6.63824">
        <ele>451</ele>
        <time>2015-08-20T13:24:01.000Z</time>
      </trkpt>
      <trkpt lat="47.50216" lon="6.63821">
        <ele>451</ele>
        <time>2015-08-20T13:24:02.000Z</time>
      </trkpt>
      <trkpt lat="47.50217" lon="6.63818">
        <ele>451</ele>
        <time>2015-08-20T13:24:03.000Z</time>
      </trkpt>
      <trkpt lat="47.50217" lon="6.63812">
        <ele>451</ele>
        <time>2015-08-20T13:24:05.000Z</time>
      </trkpt>
      <trkpt lat="47.50218" lon="6.63808">
        <ele>451</ele>
        <time>2015-08-20T13:24:06.000Z</time>
      </trkpt>
      <trkpt lat="47.50218" lon="6.63804">
        <ele>451</ele>
        <time>2015-08-20T13:24:07.000Z</time>
      </trkpt>
      <trkpt lat="47.50218" lon="6.63801">
        <ele>451</ele>
        <time>2015-08-20T13:24:08.000Z</time>
      </trkpt>
      <trkpt lat="47.50218" lon="6.63797">
        <ele>451</ele>
        <time>2015-08-20T13:24:09.000Z</time>
      </trkpt>
      <trkpt lat="47.50218" lon="6.63794">
        <ele>451</ele>
        <time>2015-08-20T13:24:10.000Z</time>
      </trkpt>
      <trkpt lat="47.50218" lon="6.6379">
        <ele>451</ele>
        <time>2015-08-20T13:24:11.000Z</time>
      </trkpt>
      <trkpt lat="47.50218" lon="6.63787">
        <ele>451</ele>
        <time>2015-08-20T13:24:12.000Z</time>
      </trkpt>
      <trkpt lat="47.50218" lon="6.63781">
        <ele>452</ele>
        <time>2015-08-20T13:24:14.000Z</time>
      </trkpt>
      <trkpt lat="47.50218" lon="6.63777">
        <ele>452</ele>
        <time>2015-08-20T13:24:15.000Z</time>
      </trkpt>
      <trkpt lat="47.50219" lon="6.63774">
        <ele>452</ele>
        <time>2015-08-20T13:24:16.000Z</time>
      </trkpt>
      <trkpt lat="47.50219" lon="6.6377">
        <ele>452</ele>
        <time>2015-08-20T13:24:17.000Z</time>
      </trkpt>
      <trkpt lat="47.50219" lon="6.63766">
        <ele>452</ele>
        <time>2015-08-20T13:24:18.000Z</time>
      </trkpt>
      <trkpt lat="47.5022" lon="6.6376">
        <ele>453</ele>
        <time>2015-08-20T13:24:19.000Z</time>
      </trkpt>
      <trkpt lat="47.5022" lon="6.63753">
        <ele>453</ele>
        <time>2015-08-20T13:24:20.000Z</time>
      </trkpt>
      <trkpt lat="47.50221" lon="6.63747">
        <ele>456</ele>
        <time>2015-08-20T13:24:21.000Z</time>
      </trkpt>
      <trkpt lat="47.50221" lon="6.63741">
        <ele>456</ele>
        <time>2015-08-20T13:24:22.000Z</time>
      </trkpt>
      <trkpt lat="47.50222" lon="6.63734">
        <ele>456</ele>
        <time>2015-08-20T13:24:23.000Z</time>
      </trkpt>
      <trkpt lat="47.50223" lon="6.63729">
        <ele>456</ele>
        <time>2015-08-20T13:24:24.000Z</time>
      </trkpt>
      <trkpt lat="47.50225" lon="6.63723">
        <ele>457</ele>
        <time>2015-08-20T13:24:25.000Z</time>
      </trkpt>
      <trkpt lat="47.50226" lon="6.63718">
        <ele>457</ele>
        <time>2015-08-20T13:24:26.000Z</time>
      </trkpt>
      <trkpt lat="47.50226" lon="6.63713">
        <ele>457</ele>
        <time>2015-08-20T13:24:27.000Z</time>
      </trkpt>
      <trkpt lat="47.50226" lon="6.63708">
        <ele>457</ele>
        <time>2015-08-20T13:24:28.000Z</time>
      </trkpt>
      <trkpt lat="47.50226" lon="6.63703">
        <ele>457</ele>
        <time>2015-08-20T13:24:29.000Z</time>
      </trkpt>
      <trkpt lat="47.50226" lon="6.63699">
        <ele>457</ele>
        <time>2015-08-20T13:24:30.000Z</time>
      </trkpt>
      <trkpt lat="47.50226" lon="6.63695">
        <ele>458</ele>
        <time>2015-08-20T13:24:31.000Z</time>
      </trkpt>
      <trkpt lat="47.50226" lon="6.63691">
        <ele>458</ele>
        <time>2015-08-20T13:24:32.000Z</time>
      </trkpt>
      <trkpt lat="47.50226" lon="6.63688">
        <ele>458</ele>
        <time>2015-08-20T13:24:33.000Z</time>
      </trkpt>
      <trkpt lat="47.50225" lon="6.63682">
        <ele>458</ele>
        <time>2015-08-20T13:24:35.000Z</time>
      </trkpt>
      <trkpt lat="47.50225" lon="6.63678">
        <ele>459</ele>
        <time>2015-08-20T13:24:36.000Z</time>
      </trkpt>
      <trkpt lat="47.50225" lon="6.63675">
        <ele>459</ele>
        <time>2015-08-20T13:24:37.000Z</time>
      </trkpt>
      <trkpt lat="47.50224" lon="6.6367">
        <ele>459</ele>
        <time>2015-08-20T13:24:38.000Z</time>
      </trkpt>
      <trkpt lat="47.50224" lon="6.63664">
        <ele>462</ele>
        <time>2015-08-20T13:24:39.000Z</time>
      </trkpt>
      <trkpt lat="47.50224" lon="6.63658">
        <ele>462</ele>
        <time>2015-08-20T13:24:40.000Z</time>
      </trkpt>
      <trkpt lat="47.50224" lon="6.63651">
        <ele>462</ele>
        <time>2015-08-20T13:24:41.000Z</time>
      </trkpt>
      <trkpt lat="47.50224" lon="6.63646">
        <ele>462</ele>
        <time>2015-08-20T13:24:42.000Z</time>
      </trkpt>
      <trkpt lat="47.50224" lon="6.6364">
        <ele>462</ele>
        <time>2015-08-20T13:24:43.000Z</time>
      </trkpt>
      <trkpt lat="47.50225" lon="6.63634">
        <ele>462</ele>
        <time>2015-08-20T13:24:44.000Z</time>
      </trkpt>
      <trkpt lat="47.50225" lon="6.63629">
        <ele>462</ele>
        <time>2015-08-20T13:24:45.000Z</time>
      </trkpt>
      <trkpt lat="47.50226" lon="6.63624">
        <ele>462</ele>
        <time>2015-08-20T13:24:46.000Z</time>
      </trkpt>
      <trkpt lat="47.50227" lon="6.63619">
        <ele>462</ele>
        <time>2015-08-20T13:24:47.000Z</time>
      </trkpt>
      <trkpt lat="47.50227" lon="6.63615">
        <ele>462</ele>
        <time>2015-08-20T13:24:48.000Z</time>
      </trkpt>
      <trkpt lat="47.50226" lon="6.63611">
        <ele>463</ele>
        <time>2015-08-20T13:24:49.000Z</time>
      </trkpt>
      <trkpt lat="47.50226" lon="6.63607">
        <ele>463</ele>
        <time>2015-08-20T13:24:50.000Z</time>
      </trkpt>
      <trkpt lat="47.50226" lon="6.63603">
        <ele>463</ele>
        <time>2015-08-20T13:24:51.000Z</time>
      </trkpt>
      <trkpt lat="47.50226" lon="6.63599">
        <ele>463</ele>
        <time>2015-08-20T13:24:52.000Z</time>
      </trkpt>
      <trkpt lat="47.50226" lon="6.63596">
        <ele>463</ele>
        <time>2015-08-20T13:24:53.000Z</time>
      </trkpt>
      <trkpt lat="47.50225" lon="6.63592">
        <ele>463</ele>
        <time>2015-08-20T13:24:54.000Z</time>
      </trkpt>
      <trkpt lat="47.50225" lon="6.63588">
        <ele>464</ele>
        <time>2015-08-20T13:24:55.000Z</time>
      </trkpt>
      <trkpt lat="47.50224" lon="6.63583">
        <ele>466</ele>
        <time>2015-08-20T13:24:56.000Z</time>
      </trkpt>
      <trkpt lat="47.50224" lon="6.63578">
        <ele>466</ele>
        <time>2015-08-20T13:24:57.000Z</time>
      </trkpt>
      <trkpt lat="47.50224" lon="6.63572">
        <ele>466</ele>
        <time>2015-08-20T13:24:58.000Z</time>
      </trkpt>
      <trkpt lat="47.50224" lon="6.63566">
        <ele>466</ele>
        <time>2015-08-20T13:24:59.000Z</time>
      </trkpt>
      <trkpt lat="47.50224" lon="6.63561">
        <ele>466</ele>
        <time>2015-08-20T13:25:00.000Z</time>
      </trkpt>
      <trkpt lat="47.50224" lon="6.63556">
        <ele>466</ele>
        <time>2015-08-20T13:25:01.000Z</time>
      </trkpt>
      <trkpt lat="47.50223" lon="6.63551">
        <ele>466</ele>
        <time>2015-08-20T13:25:02.000Z</time>
      </trkpt>
      <trkpt lat="47.50222" lon="6.63546">
        <ele>466</ele>
        <time>2015-08-20T13:25:03.000Z</time>
      </trkpt>
      <trkpt lat="47.50221" lon="6.63541">
        <ele>466</ele>
        <time>2015-08-20T13:25:04.000Z</time>
      </trkpt>
      <trkpt lat="47.5022" lon="6.63536">
        <ele>466</ele>
        <time>2015-08-20T13:25:05.000Z</time>
      </trkpt>
      <trkpt lat="47.50218" lon="6.63532">
        <ele>466</ele>
        <time>2015-08-20T13:25:06.000Z</time>
      </trkpt>
      <trkpt lat="47.50216" lon="6.63526">
        <ele>466</ele>
        <time>2015-08-20T13:25:07.000Z</time>
      </trkpt>
      <trkpt lat="47.50214" lon="6.63519">
        <ele>466</ele>
        <time>2015-08-20T13:25:08.000Z</time>
      </trkpt>
      <trkpt lat="47.50212" lon="6.63513">
        <ele>466</ele>
        <time>2015-08-20T13:25:09.000Z</time>
      </trkpt>
      <trkpt lat="47.50209" lon="6.63506">
        <ele>465</ele>
        <time>2015-08-20T13:25:10.000Z</time>
      </trkpt>
      <trkpt lat="47.50206" lon="6.635">
        <ele>468</ele>
        <time>2015-08-20T13:25:11.000Z</time>
      </trkpt>
      <trkpt lat="47.50204" lon="6.63495">
        <ele>467</ele>
        <time>2015-08-20T13:25:12.000Z</time>
      </trkpt>
      <trkpt lat="47.50201" lon="6.63489">
        <ele>467</ele>
        <time>2015-08-20T13:25:13.000Z</time>
      </trkpt>
      <trkpt lat="47.50199" lon="6.63484">
        <ele>467</ele>
        <time>2015-08-20T13:25:14.000Z</time>
      </trkpt>
      <trkpt lat="47.50196" lon="6.63478">
        <ele>467</ele>
        <time>2015-08-20T13:25:15.000Z</time>
      </trkpt>
      <trkpt lat="47.50193" lon="6.63473">
        <ele>467</ele>
        <time>2015-08-20T13:25:16.000Z</time>
      </trkpt>
      <trkpt lat="47.5019" lon="6.63467">
        <ele>467</ele>
        <time>2015-08-20T13:25:17.000Z</time>
      </trkpt>
      <trkpt lat="47.50187" lon="6.63463">
        <ele>467</ele>
        <time>2015-08-20T13:25:18.000Z</time>
      </trkpt>
      <trkpt lat="47.50184" lon="6.63458">
        <ele>467</ele>
        <time>2015-08-20T13:25:19.000Z</time>
      </trkpt>
      <trkpt lat="47.50181" lon="6.63454">
        <ele>467</ele>
        <time>2015-08-20T13:25:20.000Z</time>
      </trkpt>
      <trkpt lat="47.50179" lon="6.6345">
        <ele>467</ele>
        <time>2015-08-20T13:25:21.000Z</time>
      </trkpt>
      <trkpt lat="47.50176" lon="6.63445">
        <ele>467</ele>
        <time>2015-08-20T13:25:22.000Z</time>
      </trkpt>
      <trkpt lat="47.50174" lon="6.63441">
        <ele>467</ele>
        <time>2015-08-20T13:25:23.000Z</time>
      </trkpt>
      <trkpt lat="47.50172" lon="6.63436">
        <ele>467</ele>
        <time>2015-08-20T13:25:24.000Z</time>
      </trkpt>
      <trkpt lat="47.5017" lon="6.63431">
        <ele>467</ele>
        <time>2015-08-20T13:25:25.000Z</time>
      </trkpt>
      <trkpt lat="47.50168" lon="6.63427">
        <ele>467</ele>
        <time>2015-08-20T13:25:26.000Z</time>
      </trkpt>
      <trkpt lat="47.50166" lon="6.63422">
        <ele>465</ele>
        <time>2015-08-20T13:25:27.000Z</time>
      </trkpt>
      <trkpt lat="47.50164" lon="6.63417">
        <ele>466</ele>
        <time>2015-08-20T13:25:28.000Z</time>
      </trkpt>
      <trkpt lat="47.50161" lon="6.63413">
        <ele>466</ele>
        <time>2015-08-20T13:25:29.000Z</time>
      </trkpt>
      <trkpt lat="47.50159" lon="6.63409">
        <ele>466</ele>
        <time>2015-08-20T13:25:30.000Z</time>
      </trkpt>
      <trkpt lat="47.50157" lon="6.63404">
        <ele>466</ele>
        <time>2015-08-20T13:25:31.000Z</time>
      </trkpt>
      <trkpt lat="47.50155" lon="6.634">
        <ele>466</ele>
        <time>2015-08-20T13:25:32.000Z</time>
      </trkpt>
      <trkpt lat="47.50153" lon="6.63396">
        <ele>466</ele>
        <time>2015-08-20T13:25:33.000Z</time>
      </trkpt>
      <trkpt lat="47.50151" lon="6.63392">
        <ele>466</ele>
        <time>2015-08-20T13:25:34.000Z</time>
      </trkpt>
      <trkpt lat="47.50148" lon="6.63388">
        <ele>466</ele>
        <time>2015-08-20T13:25:35.000Z</time>
      </trkpt>
      <trkpt lat="47.50146" lon="6.63383">
        <ele>466</ele>
        <time>2015-08-20T13:25:36.000Z</time>
      </trkpt>
      <trkpt lat="47.50143" lon="6.63378">
        <ele>466</ele>
        <time>2015-08-20T13:25:37.000Z</time>
      </trkpt>
      <trkpt lat="47.5014" lon="6.63374">
        <ele>466</ele>
        <time>2015-08-20T13:25:38.000Z</time>
      </trkpt>
      <trkpt lat="47.50138" lon="6.63368">
        <ele>466</ele>
        <time>2015-08-20T13:25:39.000Z</time>
      </trkpt>
      <trkpt lat="47.50136" lon="6.63363">
        <ele>466</ele>
        <time>2015-08-20T13:25:40.000Z</time>
      </trkpt>
      <trkpt lat="47.50134" lon="6.63358">
        <ele>466</ele>
        <time>2015-08-20T13:25:41.000Z</time>
      </trkpt>
      <trkpt lat="47.50132" lon="6.63354">
        <ele>466</ele>
        <time>2015-08-20T13:25:42.000Z</time>
      </trkpt>
      <trkpt lat="47.5013" lon="6.6335">
        <ele>466</ele>
        <time>2015-08-20T13:25:43.000Z</time>
      </trkpt>
      <trkpt lat="47.50127" lon="6.63345">
        <ele>466</ele>
        <time>2015-08-20T13:25:44.000Z</time>
      </trkpt>
      <trkpt lat="47.50124" lon="6.63341">
        <ele>466</ele>
        <time>2015-08-20T13:25:45.000Z</time>
      </trkpt>
      <trkpt lat="47.50122" lon="6.63336">
        <ele>466</ele>
        <time>2015-08-20T13:25:46.000Z</time>
      </trkpt>
      <trkpt lat="47.50119" lon="6.63332">
        <ele>466</ele>
        <time>2015-08-20T13:25:47.000Z</time>
      </trkpt>
      <trkpt lat="47.50116" lon="6.63327">
        <ele>466</ele>
        <time>2015-08-20T13:25:48.000Z</time>
      </trkpt>
      <trkpt lat="47.50113" lon="6.63323">
        <ele>466</ele>
        <time>2015-08-20T13:25:49.000Z</time>
      </trkpt>
      <trkpt lat="47.50109" lon="6.63318">
        <ele>466</ele>
        <time>2015-08-20T13:25:50.000Z</time>
      </trkpt>
      <trkpt lat="47.50106" lon="6.63313">
        <ele>466</ele>
        <time>2015-08-20T13:25:51.000Z</time>
      </trkpt>
      <trkpt lat="47.50103" lon="6.63308">
        <ele>465</ele>
        <time>2015-08-20T13:25:52.000Z</time>
      </trkpt>
      <trkpt lat="47.501" lon="6.63303">
        <ele>465</ele>
        <time>2015-08-20T13:25:53.000Z</time>
      </trkpt>
      <trkpt lat="47.50092" lon="6.63294">
        <ele>465</ele>
        <time>2015-08-20T13:25:54.000Z</time>
      </trkpt>
      <trkpt lat="47.50088" lon="6.63288">
        <ele>465</ele>
        <time>2015-08-20T13:25:55.000Z</time>
      </trkpt>
      <trkpt lat="47.50083" lon="6.63281">
        <ele>468</ele>
        <time>2015-08-20T13:25:56.000Z</time>
      </trkpt>
      <trkpt lat="47.50079" lon="6.63275">
        <ele>468</ele>
        <time>2015-08-20T13:25:57.000Z</time>
      </trkpt>
      <trkpt lat="47.50075" lon="6.63269">
        <ele>468</ele>
        <time>2015-08-20T13:25:58.000Z</time>
      </trkpt>
      <trkpt lat="47.5007" lon="6.63264">
        <ele>468</ele>
        <time>2015-08-20T13:25:59.000Z</time>
      </trkpt>
      <trkpt lat="47.50067" lon="6.63258">
        <ele>468</ele>
        <time>2015-08-20T13:26:00.000Z</time>
      </trkpt>
      <trkpt lat="47.50062" lon="6.63251">
        <ele>468</ele>
        <time>2015-08-20T13:26:01.000Z</time>
      </trkpt>
      <trkpt lat="47.50055" lon="6.63245">
        <ele>465</ele>
        <time>2015-08-20T13:26:02.000Z</time>
      </trkpt>
      <trkpt lat="47.50049" lon="6.6324">
        <ele>465</ele>
        <time>2015-08-20T13:26:03.000Z</time>
      </trkpt>
      <trkpt lat="47.50044" lon="6.63234">
        <ele>465</ele>
        <time>2015-08-20T13:26:04.000Z</time>
      </trkpt>
      <trkpt lat="47.50038" lon="6.63228">
        <ele>466</ele>
        <time>2015-08-20T13:26:05.000Z</time>
      </trkpt>
      <trkpt lat="47.50036" lon="6.63222">
        <ele>465</ele>
        <time>2015-08-20T13:26:06.000Z</time>
      </trkpt>
      <trkpt lat="47.50032" lon="6.63217">
        <ele>465</ele>
        <time>2015-08-20T13:26:07.000Z</time>
      </trkpt>
      <trkpt lat="47.50026" lon="6.63214">
        <ele>465</ele>
        <time>2015-08-20T13:26:08.000Z</time>
      </trkpt>
      <trkpt lat="47.50022" lon="6.63216">
        <ele>466</ele>
        <time>2015-08-20T13:28:08.000Z</time>
      </trkpt>
      <trkpt lat="47.50021" lon="6.63216">
        <ele>466</ele>
        <time>2015-08-20T13:28:09.000Z</time>
      </trkpt>
      <trkpt lat="47.50019" lon="6.63213">
        <ele>466</ele>
        <time>2015-08-20T13:29:25.000Z</time>
      </trkpt>
      <trkpt lat="47.50017" lon="6.63213">
        <ele>466</ele>
        <time>2015-08-20T13:29:26.000Z</time>
      </trkpt>
      <trkpt lat="47.50014" lon="6.63212">
        <ele>466</ele>
        <time>2015-08-20T13:29:28.000Z</time>
      </trkpt>
      <trkpt lat="47.50012" lon="6.63211">
        <ele>466</ele>
        <time>2015-08-20T13:29:29.000Z</time>
      </trkpt>
      <trkpt lat="47.50008" lon="6.63209">
        <ele>466</ele>
        <time>2015-08-20T13:29:31.000Z</time>
      </trkpt>
      <trkpt lat="47.50006" lon="6.63207">
        <ele>466</ele>
        <time>2015-08-20T13:29:32.000Z</time>
      </trkpt>
      <trkpt lat="47.50004" lon="6.63205">
        <ele>466</ele>
        <time>2015-08-20T13:29:33.000Z</time>
      </trkpt>
      <trkpt lat="47.50002" lon="6.63203">
        <ele>465</ele>
        <time>2015-08-20T13:29:34.000Z</time>
      </trkpt>
      <trkpt lat="47.49999" lon="6.63201">
        <ele>469</ele>
        <time>2015-08-20T13:29:35.000Z</time>
      </trkpt>
      <trkpt lat="47.49996" lon="6.63199">
        <ele>469</ele>
        <time>2015-08-20T13:29:36.000Z</time>
      </trkpt>
      <trkpt lat="47.49993" lon="6.63197">
        <ele>469</ele>
        <time>2015-08-20T13:29:37.000Z</time>
      </trkpt>
      <trkpt lat="47.4999" lon="6.63196">
        <ele>469</ele>
        <time>2015-08-20T13:29:38.000Z</time>
      </trkpt>
      <trkpt lat="47.49987" lon="6.63194">
        <ele>469</ele>
        <time>2015-08-20T13:29:39.000Z</time>
      </trkpt>
      <trkpt lat="47.49984" lon="6.63193">
        <ele>469</ele>
        <time>2015-08-20T13:29:40.000Z</time>
      </trkpt>
      <trkpt lat="47.49981" lon="6.6319">
        <ele>469</ele>
        <time>2015-08-20T13:29:41.000Z</time>
      </trkpt>
      <trkpt lat="47.49978" lon="6.63189">
        <ele>469</ele>
        <time>2015-08-20T13:29:42.000Z</time>
      </trkpt>
      <trkpt lat="47.49975" lon="6.63187">
        <ele>469</ele>
        <time>2015-08-20T13:29:43.000Z</time>
      </trkpt>
      <trkpt lat="47.49972" lon="6.63186">
        <ele>469</ele>
        <time>2015-08-20T13:29:44.000Z</time>
      </trkpt>
      <trkpt lat="47.4997" lon="6.63184">
        <ele>469</ele>
        <time>2015-08-20T13:29:45.000Z</time>
      </trkpt>
      <trkpt lat="47.49968" lon="6.63182">
        <ele>469</ele>
        <time>2015-08-20T13:29:46.000Z</time>
      </trkpt>
      <trkpt lat="47.49965" lon="6.63179">
        <ele>469</ele>
        <time>2015-08-20T13:29:47.000Z</time>
      </trkpt>
      <trkpt lat="47.49963" lon="6.63176">
        <ele>469</ele>
        <time>2015-08-20T13:29:48.000Z</time>
      </trkpt>
      <trkpt lat="47.4996" lon="6.63174">
        <ele>469</ele>
        <time>2015-08-20T13:29:49.000Z</time>
      </trkpt>
      <trkpt lat="47.49957" lon="6.63172">
        <ele>469</ele>
        <time>2015-08-20T13:29:50.000Z</time>
      </trkpt>
      <trkpt lat="47.49954" lon="6.6317">
        <ele>469</ele>
        <time>2015-08-20T13:29:51.000Z</time>
      </trkpt>
      <trkpt lat="47.49951" lon="6.63168">
        <ele>469</ele>
        <time>2015-08-20T13:29:52.000Z</time>
      </trkpt>
      <trkpt lat="47.49948" lon="6.63166">
        <ele>464</ele>
        <time>2015-08-20T13:29:53.000Z</time>
      </trkpt>
      <trkpt lat="47.49945" lon="6.63164">
        <ele>464</ele>
        <time>2015-08-20T13:29:54.000Z</time>
      </trkpt>
      <trkpt lat="47.49942" lon="6.63162">
        <ele>464</ele>
        <time>2015-08-20T13:29:55.000Z</time>
      </trkpt>
      <trkpt lat="47.49939" lon="6.6316">
        <ele>464</ele>
        <time>2015-08-20T13:29:56.000Z</time>
      </trkpt>
      <trkpt lat="47.49936" lon="6.63159">
        <ele>465</ele>
        <time>2015-08-20T13:29:57.000Z</time>
      </trkpt>
      <trkpt lat="47.49933" lon="6.63157">
        <ele>465</ele>
        <time>2015-08-20T13:29:58.000Z</time>
      </trkpt>
      <trkpt lat="47.4993" lon="6.63155">
        <ele>465</ele>
        <time>2015-08-20T13:29:59.000Z</time>
      </trkpt>
      <trkpt lat="47.49927" lon="6.63153">
        <ele>465</ele>
        <time>2015-08-20T13:30:00.000Z</time>
      </trkpt>
      <trkpt lat="47.49925" lon="6.63151">
        <ele>465</ele>
        <time>2015-08-20T13:30:01.000Z</time>
      </trkpt>
      <trkpt lat="47.49923" lon="6.63149">
        <ele>465</ele>
        <time>2015-08-20T13:30:02.000Z</time>
      </trkpt>
      <trkpt lat="47.4992" lon="6.63147">
        <ele>465</ele>
        <time>2015-08-20T13:30:03.000Z</time>
      </trkpt>
      <trkpt lat="47.49918" lon="6.63146">
        <ele>465</ele>
        <time>2015-08-20T13:30:04.000Z</time>
      </trkpt>
      <trkpt lat="47.49915" lon="6.63144">
        <ele>466</ele>
        <time>2015-08-20T13:30:05.000Z</time>
      </trkpt>
      <trkpt lat="47.49912" lon="6.63143">
        <ele>466</ele>
        <time>2015-08-20T13:30:06.000Z</time>
      </trkpt>
      <trkpt lat="47.49908" lon="6.63142">
        <ele>466</ele>
        <time>2015-08-20T13:30:07.000Z</time>
      </trkpt>
      <trkpt lat="47.49905" lon="6.63141">
        <ele>466</ele>
        <time>2015-08-20T13:30:08.000Z</time>
      </trkpt>
      <trkpt lat="47.49901" lon="6.63141">
        <ele>466</ele>
        <time>2015-08-20T13:30:09.000Z</time>
      </trkpt>
      <trkpt lat="47.49898" lon="6.6314">
        <ele>466</ele>
        <time>2015-08-20T13:30:10.000Z</time>
      </trkpt>
      <trkpt lat="47.49895" lon="6.63139">
        <ele>466</ele>
        <time>2015-08-20T13:30:11.000Z</time>
      </trkpt>
      <trkpt lat="47.49892" lon="6.63139">
        <ele>466</ele>
        <time>2015-08-20T13:30:12.000Z</time>
      </trkpt>
      <trkpt lat="47.49888" lon="6.63139">
        <ele>466</ele>
        <time>2015-08-20T13:30:13.000Z</time>
      </trkpt>
      <trkpt lat="47.49885" lon="6.63139">
        <ele>466</ele>
        <time>2015-08-20T13:30:14.000Z</time>
      </trkpt>
      <trkpt lat="47.49882" lon="6.63139">
        <ele>466</ele>
        <time>2015-08-20T13:30:15.000Z</time>
      </trkpt>
      <trkpt lat="47.49879" lon="6.63139">
        <ele>466</ele>
        <time>2015-08-20T13:30:16.000Z</time>
      </trkpt>
      <trkpt lat="47.49876" lon="6.63139">
        <ele>466</ele>
        <time>2015-08-20T13:30:17.000Z</time>
      </trkpt>
      <trkpt lat="47.49873" lon="6.63139">
        <ele>466</ele>
        <time>2015-08-20T13:30:18.000Z</time>
      </trkpt>
      <trkpt lat="47.49869" lon="6.63139">
        <ele>466</ele>
        <time>2015-08-20T13:30:19.000Z</time>
      </trkpt>
      <trkpt lat="47.49866" lon="6.63139">
        <ele>466</ele>
        <time>2015-08-20T13:30:20.000Z</time>
      </trkpt>
      <trkpt lat="47.49862" lon="6.63139">
        <ele>466</ele>
        <time>2015-08-20T13:30:21.000Z</time>
      </trkpt>
      <trkpt lat="47.49858" lon="6.63139">
        <ele>466</ele>
        <time>2015-08-20T13:30:22.000Z</time>
      </trkpt>
      <trkpt lat="47.49855" lon="6.6314">
        <ele>466</ele>
        <time>2015-08-20T13:30:23.000Z</time>
      </trkpt>
      <trkpt lat="47.49852" lon="6.6314">
        <ele>466</ele>
        <time>2015-08-20T13:30:24.000Z</time>
      </trkpt>
      <trkpt lat="47.49849" lon="6.6314">
        <ele>466</ele>
        <time>2015-08-20T13:30:25.000Z</time>
      </trkpt>
      <trkpt lat="47.49847" lon="6.6314">
        <ele>466</ele>
        <time>2015-08-20T13:30:26.000Z</time>
      </trkpt>
      <trkpt lat="47.49843" lon="6.63139">
        <ele>466</ele>
        <time>2015-08-20T13:30:28.000Z</time>
      </trkpt>
      <trkpt lat="47.49841" lon="6.63138">
        <ele>466</ele>
        <time>2015-08-20T13:30:29.000Z</time>
      </trkpt>
      <trkpt lat="47.49838" lon="6.63138">
        <ele>466</ele>
        <time>2015-08-20T13:30:30.000Z</time>
      </trkpt>
      <trkpt lat="47.49835" lon="6.63137">
        <ele>466</ele>
        <time>2015-08-20T13:30:31.000Z</time>
      </trkpt>
      <trkpt lat="47.49831" lon="6.63136">
        <ele>465</ele>
        <time>2015-08-20T13:30:32.000Z</time>
      </trkpt>
      <trkpt lat="47.49828" lon="6.63135">
        <ele>465</ele>
        <time>2015-08-20T13:30:33.000Z</time>
      </trkpt>
      <trkpt lat="47.49825" lon="6.63134">
        <ele>465</ele>
        <time>2015-08-20T13:30:34.000Z</time>
      </trkpt>
      <trkpt lat="47.49821" lon="6.63132">
        <ele>465</ele>
        <time>2015-08-20T13:30:35.000Z</time>
      </trkpt>
      <trkpt lat="47.49818" lon="6.6313">
        <ele>465</ele>
        <time>2015-08-20T13:30:36.000Z</time>
      </trkpt>
      <trkpt lat="47.49814" lon="6.63129">
        <ele>464</ele>
        <time>2015-08-20T13:30:37.000Z</time>
      </trkpt>
      <trkpt lat="47.4981" lon="6.63127">
        <ele>464</ele>
        <time>2015-08-20T13:30:38.000Z</time>
      </trkpt>
      <trkpt lat="47.49806" lon="6.63125">
        <ele>464</ele>
        <time>2015-08-20T13:30:39.000Z</time>
      </trkpt>
      <trkpt lat="47.49801" lon="6.63124">
        <ele>464</ele>
        <time>2015-08-20T13:30:40.000Z</time>
      </trkpt>
      <trkpt lat="47.49797" lon="6.63122">
        <ele>464</ele>
        <time>2015-08-20T13:30:41.000Z</time>
      </trkpt>
      <trkpt lat="47.49791" lon="6.6312">
        <ele>464</ele>
        <time>2015-08-20T13:30:42.000Z</time>
      </trkpt>
      <trkpt lat="47.49786" lon="6.63117">
        <ele>463</ele>
        <time>2015-08-20T13:30:43.000Z</time>
      </trkpt>
      <trkpt lat="47.49779" lon="6.63114">
        <ele>463</ele>
        <time>2015-08-20T13:30:44.000Z</time>
      </trkpt>
      <trkpt lat="47.49761" lon="6.63106">
        <ele>463</ele>
        <time>2015-08-20T13:30:45.000Z</time>
      </trkpt>
      <trkpt lat="47.49754" lon="6.63104">
        <ele>463</ele>
        <time>2015-08-20T13:30:46.000Z</time>
      </trkpt>
      <trkpt lat="47.49744" lon="6.63104">
        <ele>462</ele>
        <time>2015-08-20T13:30:47.000Z</time>
      </trkpt>
      <trkpt lat="47.49737" lon="6.63102">
        <ele>462</ele>
        <time>2015-08-20T13:30:48.000Z</time>
      </trkpt>
      <trkpt lat="47.49731" lon="6.63101">
        <ele>463</ele>
        <time>2015-08-20T13:30:49.000Z</time>
      </trkpt>
      <trkpt lat="47.49726" lon="6.63099">
        <ele>463</ele>
        <time>2015-08-20T13:30:50.000Z</time>
      </trkpt>
      <trkpt lat="47.49718" lon="6.63096">
        <ele>463</ele>
        <time>2015-08-20T13:30:51.000Z</time>
      </trkpt>
      <trkpt lat="47.49713" lon="6.63094">
        <ele>463</ele>
        <time>2015-08-20T13:30:52.000Z</time>
      </trkpt>
      <trkpt lat="47.49708" lon="6.63092">
        <ele>463</ele>
        <time>2015-08-20T13:30:53.000Z</time>
      </trkpt>
      <trkpt lat="47.49699" lon="6.63088">
        <ele>463</ele>
        <time>2015-08-20T13:30:54.000Z</time>
      </trkpt>
      <trkpt lat="47.49692" lon="6.63083">
        <ele>461</ele>
        <time>2015-08-20T13:30:55.000Z</time>
      </trkpt>
      <trkpt lat="47.49685" lon="6.63079">
        <ele>461</ele>
        <time>2015-08-20T13:30:56.000Z</time>
      </trkpt>
      <trkpt lat="47.49677" lon="6.63075">
        <ele>462</ele>
        <time>2015-08-20T13:30:57.000Z</time>
      </trkpt>
      <trkpt lat="47.49669" lon="6.63072">
        <ele>462</ele>
        <time>2015-08-20T13:30:58.000Z</time>
      </trkpt>
      <trkpt lat="47.49661" lon="6.6307">
        <ele>462</ele>
        <time>2015-08-20T13:30:59.000Z</time>
      </trkpt>
      <trkpt lat="47.49653" lon="6.63068">
        <ele>462</ele>
        <time>2015-08-20T13:31:00.000Z</time>
      </trkpt>
      <trkpt lat="47.49645" lon="6.63062">
        <ele>461</ele>
        <time>2015-08-20T13:31:01.000Z</time>
      </trkpt>
      <trkpt lat="47.49636" lon="6.63058">
        <ele>460</ele>
        <time>2015-08-20T13:31:02.000Z</time>
      </trkpt>
      <trkpt lat="47.49627" lon="6.63054">
        <ele>460</ele>
        <time>2015-08-20T13:31:03.000Z</time>
      </trkpt>
      <trkpt lat="47.49616" lon="6.6305">
        <ele>460</ele>
        <time>2015-08-20T13:31:04.000Z</time>
      </trkpt>
      <trkpt lat="47.49607" lon="6.63049">
        <ele>460</ele>
        <time>2015-08-20T13:31:05.000Z</time>
      </trkpt>
      <trkpt lat="47.49599" lon="6.63045">
        <ele>459</ele>
        <time>2015-08-20T13:31:06.000Z</time>
      </trkpt>
      <trkpt lat="47.49589" lon="6.63043">
        <ele>459</ele>
        <time>2015-08-20T13:31:07.000Z</time>
      </trkpt>
      <trkpt lat="47.49583" lon="6.6304">
        <ele>459</ele>
        <time>2015-08-20T13:31:08.000Z</time>
      </trkpt>
      <trkpt lat="47.49574" lon="6.63036">
        <ele>459</ele>
        <time>2015-08-20T13:31:09.000Z</time>
      </trkpt>
      <trkpt lat="47.49565" lon="6.63033">
        <ele>459</ele>
        <time>2015-08-20T13:31:10.000Z</time>
      </trkpt>
      <trkpt lat="47.49556" lon="6.6303">
        <ele>459</ele>
        <time>2015-08-20T13:31:11.000Z</time>
      </trkpt>
      <trkpt lat="47.49549" lon="6.63028">
        <ele>459</ele>
        <time>2015-08-20T13:31:12.000Z</time>
      </trkpt>
      <trkpt lat="47.49543" lon="6.63025">
        <ele>458</ele>
        <time>2015-08-20T13:31:13.000Z</time>
      </trkpt>
      <trkpt lat="47.49536" lon="6.63021">
        <ele>458</ele>
        <time>2015-08-20T13:31:14.000Z</time>
      </trkpt>
      <trkpt lat="47.49527" lon="6.63015">
        <ele>458</ele>
        <time>2015-08-20T13:31:15.000Z</time>
      </trkpt>
      <trkpt lat="47.49518" lon="6.63012">
        <ele>458</ele>
        <time>2015-08-20T13:31:16.000Z</time>
      </trkpt>
      <trkpt lat="47.49506" lon="6.63009">
        <ele>457</ele>
        <time>2015-08-20T13:31:17.000Z</time>
      </trkpt>
      <trkpt lat="47.49495" lon="6.63007">
        <ele>456</ele>
        <time>2015-08-20T13:31:18.000Z</time>
      </trkpt>
      <trkpt lat="47.49483" lon="6.63009">
        <ele>456</ele>
        <time>2015-08-20T13:31:19.000Z</time>
      </trkpt>
      <trkpt lat="47.49472" lon="6.6301">
        <ele>456</ele>
        <time>2015-08-20T13:31:20.000Z</time>
      </trkpt>
      <trkpt lat="47.49464" lon="6.63007">
        <ele>456</ele>
        <time>2015-08-20T13:31:21.000Z</time>
      </trkpt>
      <trkpt lat="47.49458" lon="6.63004">
        <ele>456</ele>
        <time>2015-08-20T13:31:22.000Z</time>
      </trkpt>
      <trkpt lat="47.49452" lon="6.63001">
        <ele>456</ele>
        <time>2015-08-20T13:31:23.000Z</time>
      </trkpt>
      <trkpt lat="47.49445" lon="6.62998">
        <ele>451</ele>
        <time>2015-08-20T13:31:24.000Z</time>
      </trkpt>
      <trkpt lat="47.49438" lon="6.62995">
        <ele>452</ele>
        <time>2015-08-20T13:31:25.000Z</time>
      </trkpt>
      <trkpt lat="47.49431" lon="6.62993">
        <ele>452</ele>
        <time>2015-08-20T13:31:26.000Z</time>
      </trkpt>
      <trkpt lat="47.49422" lon="6.62989">
        <ele>452</ele>
        <time>2015-08-20T13:31:27.000Z</time>
      </trkpt>
      <trkpt lat="47.49413" lon="6.62986">
        <ele>451</ele>
        <time>2015-08-20T13:31:28.000Z</time>
      </trkpt>
      <trkpt lat="47.49405" lon="6.62983">
        <ele>451</ele>
        <time>2015-08-20T13:31:29.000Z</time>
      </trkpt>
      <trkpt lat="47.49397" lon="6.6298">
        <ele>450</ele>
        <time>2015-08-20T13:31:30.000Z</time>
      </trkpt>
      <trkpt lat="47.49389" lon="6.62976">
        <ele>450</ele>
        <time>2015-08-20T13:31:31.000Z</time>
      </trkpt>
      <trkpt lat="47.4938" lon="6.62972">
        <ele>449</ele>
        <time>2015-08-20T13:31:32.000Z</time>
      </trkpt>
      <trkpt lat="47.49371" lon="6.62971">
        <ele>449</ele>
        <time>2015-08-20T13:31:33.000Z</time>
      </trkpt>
      <trkpt lat="47.49364" lon="6.62966">
        <ele>449</ele>
        <time>2015-08-20T13:31:34.000Z</time>
      </trkpt>
      <trkpt lat="47.49355" lon="6.62962">
        <ele>448</ele>
        <time>2015-08-20T13:31:35.000Z</time>
      </trkpt>
      <trkpt lat="47.49348" lon="6.62959">
        <ele>448</ele>
        <time>2015-08-20T13:31:36.000Z</time>
      </trkpt>
      <trkpt lat="47.49341" lon="6.62957">
        <ele>448</ele>
        <time>2015-08-20T13:31:37.000Z</time>
      </trkpt>
      <trkpt lat="47.49334" lon="6.62956">
        <ele>448</ele>
        <time>2015-08-20T13:31:38.000Z</time>
      </trkpt>
      <trkpt lat="47.49325" lon="6.62953">
        <ele>446</ele>
        <time>2015-08-20T13:31:39.000Z</time>
      </trkpt>
      <trkpt lat="47.49317" lon="6.62948">
        <ele>445</ele>
        <time>2015-08-20T13:31:40.000Z</time>
      </trkpt>
      <trkpt lat="47.49309" lon="6.62942">
        <ele>445</ele>
        <time>2015-08-20T13:31:41.000Z</time>
      </trkpt>
      <trkpt lat="47.49303" lon="6.62939">
        <ele>445</ele>
        <time>2015-08-20T13:31:42.000Z</time>
      </trkpt>
      <trkpt lat="47.49295" lon="6.62935">
        <ele>445</ele>
        <time>2015-08-20T13:31:43.000Z</time>
      </trkpt>
      <trkpt lat="47.49286" lon="6.62931">
        <ele>445</ele>
        <time>2015-08-20T13:31:44.000Z</time>
      </trkpt>
      <trkpt lat="47.49278" lon="6.62927">
        <ele>444</ele>
        <time>2015-08-20T13:31:45.000Z</time>
      </trkpt>
      <trkpt lat="47.49268" lon="6.62923">
        <ele>444</ele>
        <time>2015-08-20T13:31:46.000Z</time>
      </trkpt>
      <trkpt lat="47.49259" lon="6.62919">
        <ele>444</ele>
        <time>2015-08-20T13:31:47.000Z</time>
      </trkpt>
      <trkpt lat="47.4925" lon="6.62915">
        <ele>443</ele>
        <time>2015-08-20T13:31:48.000Z</time>
      </trkpt>
      <trkpt lat="47.49242" lon="6.6291">
        <ele>441</ele>
        <time>2015-08-20T13:31:49.000Z</time>
      </trkpt>
      <trkpt lat="47.49236" lon="6.62908">
        <ele>440</ele>
        <time>2015-08-20T13:31:50.000Z</time>
      </trkpt>
      <trkpt lat="47.49227" lon="6.62905">
        <ele>439</ele>
        <time>2015-08-20T13:31:51.000Z</time>
      </trkpt>
      <trkpt lat="47.49219" lon="6.62899">
        <ele>438</ele>
        <time>2015-08-20T13:31:52.000Z</time>
      </trkpt>
      <trkpt lat="47.49209" lon="6.62895">
        <ele>437</ele>
        <time>2015-08-20T13:31:53.000Z</time>
      </trkpt>
      <trkpt lat="47.49201" lon="6.62892">
        <ele>437</ele>
        <time>2015-08-20T13:31:54.000Z</time>
      </trkpt>
      <trkpt lat="47.49191" lon="6.62889">
        <ele>436</ele>
        <time>2015-08-20T13:31:55.000Z</time>
      </trkpt>
      <trkpt lat="47.49183" lon="6.62884">
        <ele>436</ele>
        <time>2015-08-20T13:31:56.000Z</time>
      </trkpt>
      <trkpt lat="47.49175" lon="6.62882">
        <ele>436</ele>
        <time>2015-08-20T13:31:57.000Z</time>
      </trkpt>
      <trkpt lat="47.49167" lon="6.62878">
        <ele>435</ele>
        <time>2015-08-20T13:31:58.000Z</time>
      </trkpt>
      <trkpt lat="47.49159" lon="6.62878">
        <ele>432</ele>
        <time>2015-08-20T13:31:59.000Z</time>
      </trkpt>
      <trkpt lat="47.49152" lon="6.62877">
        <ele>432</ele>
        <time>2015-08-20T13:32:00.000Z</time>
      </trkpt>
      <trkpt lat="47.49148" lon="6.62875">
        <ele>432</ele>
        <time>2015-08-20T13:32:01.000Z</time>
      </trkpt>
      <trkpt lat="47.49143" lon="6.62873">
        <ele>432</ele>
        <time>2015-08-20T13:32:02.000Z</time>
      </trkpt>
      <trkpt lat="47.49139" lon="6.62873">
        <ele>432</ele>
        <time>2015-08-20T13:32:03.000Z</time>
      </trkpt>
      <trkpt lat="47.49135" lon="6.62875">
        <ele>432</ele>
        <time>2015-08-20T13:32:04.000Z</time>
      </trkpt>
      <trkpt lat="47.49127" lon="6.62876">
        <ele>432</ele>
        <time>2015-08-20T13:32:05.000Z</time>
      </trkpt>
      <trkpt lat="47.4912" lon="6.62874">
        <ele>431</ele>
        <time>2015-08-20T13:32:06.000Z</time>
      </trkpt>
      <trkpt lat="47.49113" lon="6.62872">
        <ele>431</ele>
        <time>2015-08-20T13:32:07.000Z</time>
      </trkpt>
      <trkpt lat="47.49108" lon="6.62872">
        <ele>431</ele>
        <time>2015-08-20T13:32:08.000Z</time>
      </trkpt>
      <trkpt lat="47.491" lon="6.6287">
        <ele>431</ele>
        <time>2015-08-20T13:32:09.000Z</time>
      </trkpt>
      <trkpt lat="47.49093" lon="6.62869">
        <ele>431</ele>
        <time>2015-08-20T13:32:10.000Z</time>
      </trkpt>
      <trkpt lat="47.49085" lon="6.62869">
        <ele>431</ele>
        <time>2015-08-20T13:32:11.000Z</time>
      </trkpt>
      <trkpt lat="47.49078" lon="6.62869">
        <ele>429</ele>
        <time>2015-08-20T13:32:12.000Z</time>
      </trkpt>
      <trkpt lat="47.49072" lon="6.62868">
        <ele>429</ele>
        <time>2015-08-20T13:32:13.000Z</time>
      </trkpt>
      <trkpt lat="47.49064" lon="6.62865">
        <ele>429</ele>
        <time>2015-08-20T13:32:14.000Z</time>
      </trkpt>
      <trkpt lat="47.49057" lon="6.62863">
        <ele>429</ele>
        <time>2015-08-20T13:32:15.000Z</time>
      </trkpt>
      <trkpt lat="47.49051" lon="6.62863">
        <ele>429</ele>
        <time>2015-08-20T13:32:16.000Z</time>
      </trkpt>
      <trkpt lat="47.49055" lon="6.62863">
        <ele>429</ele>
        <time>2015-08-20T13:32:24.000Z</time>
      </trkpt>
      <trkpt lat="47.49055" lon="6.62866">
        <ele>429</ele>
        <time>2015-08-20T13:32:25.000Z</time>
      </trkpt>
      <trkpt lat="47.49051" lon="6.62868">
        <ele>429</ele>
        <time>2015-08-20T13:34:47.000Z</time>
      </trkpt>
      <trkpt lat="47.49052" lon="6.62871">
        <ele>429</ele>
        <time>2015-08-20T13:34:48.000Z</time>
      </trkpt>
      <trkpt lat="47.49053" lon="6.62874">
        <ele>429</ele>
        <time>2015-08-20T13:34:49.000Z</time>
      </trkpt>
      <trkpt lat="47.49054" lon="6.62878">
        <ele>429</ele>
        <time>2015-08-20T13:34:50.000Z</time>
      </trkpt>
      <trkpt lat="47.49054" lon="6.62881">
        <ele>428</ele>
        <time>2015-08-20T13:34:51.000Z</time>
      </trkpt>
      <trkpt lat="47.49054" lon="6.62885">
        <ele>428</ele>
        <time>2015-08-20T13:34:52.000Z</time>
      </trkpt>
      <trkpt lat="47.49054" lon="6.62889">
        <ele>428</ele>
        <time>2015-08-20T13:34:53.000Z</time>
      </trkpt>
      <trkpt lat="47.49054" lon="6.62894">
        <ele>428</ele>
        <time>2015-08-20T13:34:54.000Z</time>
      </trkpt>
      <trkpt lat="47.49054" lon="6.62899">
        <ele>428</ele>
        <time>2015-08-20T13:34:55.000Z</time>
      </trkpt>
      <trkpt lat="47.49055" lon="6.62905">
        <ele>428</ele>
        <time>2015-08-20T13:34:56.000Z</time>
      </trkpt>
      <trkpt lat="47.49056" lon="6.62912">
        <ele>428</ele>
        <time>2015-08-20T13:34:57.000Z</time>
      </trkpt>
      <trkpt lat="47.49057" lon="6.62919">
        <ele>426</ele>
        <time>2015-08-20T13:34:58.000Z</time>
      </trkpt>
      <trkpt lat="47.49061" lon="6.62935">
        <ele>426</ele>
        <time>2015-08-20T13:34:59.000Z</time>
      </trkpt>
      <trkpt lat="47.49061" lon="6.62942">
        <ele>426</ele>
        <time>2015-08-20T13:35:00.000Z</time>
      </trkpt>
      <trkpt lat="47.49062" lon="6.62949">
        <ele>426</ele>
        <time>2015-08-20T13:35:00.999Z</time>
      </trkpt>
      <trkpt lat="47.49064" lon="6.62959">
        <ele>426</ele>
        <time>2015-08-20T13:35:01.999Z</time>
      </trkpt>
      <trkpt lat="47.49065" lon="6.62966">
        <ele>426</ele>
        <time>2015-08-20T13:35:03.000Z</time>
      </trkpt>
      <trkpt lat="47.49067" lon="6.62977">
        <ele>426</ele>
        <time>2015-08-20T13:35:04.000Z</time>
      </trkpt>
      <trkpt lat="47.49067" lon="6.62987">
        <ele>425</ele>
        <time>2015-08-20T13:35:05.000Z</time>
      </trkpt>
      <trkpt lat="47.49068" lon="6.62995">
        <ele>425</ele>
        <time>2015-08-20T13:35:06.000Z</time>
      </trkpt>
      <trkpt lat="47.49068" lon="6.63002">
        <ele>425</ele>
        <time>2015-08-20T13:35:07.000Z</time>
      </trkpt>
      <trkpt lat="47.49067" lon="6.6301">
        <ele>425</ele>
        <time>2015-08-20T13:35:08.000Z</time>
      </trkpt>
      <trkpt lat="47.49069" lon="6.63021">
        <ele>425</ele>
        <time>2015-08-20T13:35:09.000Z</time>
      </trkpt>
      <trkpt lat="47.49068" lon="6.63031">
        <ele>425</ele>
        <time>2015-08-20T13:35:10.000Z</time>
      </trkpt>
      <trkpt lat="47.49067" lon="6.63039">
        <ele>425</ele>
        <time>2015-08-20T13:35:10.999Z</time>
      </trkpt>
      <trkpt lat="47.49068" lon="6.63048">
        <ele>425</ele>
        <time>2015-08-20T13:35:12.000Z</time>
      </trkpt>
      <trkpt lat="47.49068" lon="6.63057">
        <ele>425</ele>
        <time>2015-08-20T13:35:12.999Z</time>
      </trkpt>
      <trkpt lat="47.49068" lon="6.63064">
        <ele>425</ele>
        <time>2015-08-20T13:35:14.000Z</time>
      </trkpt>
      <trkpt lat="47.49068" lon="6.63071">
        <ele>425</ele>
        <time>2015-08-20T13:35:15.000Z</time>
      </trkpt>
      <trkpt lat="47.49068" lon="6.63077">
        <ele>425</ele>
        <time>2015-08-20T13:35:16.000Z</time>
      </trkpt>
      <trkpt lat="47.49073" lon="6.63085">
        <ele>426</ele>
        <time>2015-08-20T13:35:17.000Z</time>
      </trkpt>
      <trkpt lat="47.49075" lon="6.63092">
        <ele>426</ele>
        <time>2015-08-20T13:35:18.000Z</time>
      </trkpt>
      <trkpt lat="47.49076" lon="6.631">
        <ele>426</ele>
        <time>2015-08-20T13:35:19.000Z</time>
      </trkpt>
      <trkpt lat="47.49075" lon="6.63107">
        <ele>426</ele>
        <time>2015-08-20T13:35:20.000Z</time>
      </trkpt>
      <trkpt lat="47.49076" lon="6.63114">
        <ele>426</ele>
        <time>2015-08-20T13:35:21.000Z</time>
      </trkpt>
      <trkpt lat="47.49076" lon="6.63124">
        <ele>427</ele>
        <time>2015-08-20T13:35:22.000Z</time>
      </trkpt>
      <trkpt lat="47.49074" lon="6.63133">
        <ele>427</ele>
        <time>2015-08-20T13:35:23.000Z</time>
      </trkpt>
      <trkpt lat="47.49074" lon="6.63141">
        <ele>427</ele>
        <time>2015-08-20T13:35:24.000Z</time>
      </trkpt>
      <trkpt lat="47.49074" lon="6.63147">
        <ele>427</ele>
        <time>2015-08-20T13:35:25.001Z</time>
      </trkpt>
      <trkpt lat="47.49073" lon="6.63153">
        <ele>427</ele>
        <time>2015-08-20T13:35:26.000Z</time>
      </trkpt>
      <trkpt lat="47.49072" lon="6.63159">
        <ele>428</ele>
        <time>2015-08-20T13:35:27.000Z</time>
      </trkpt>
      <trkpt lat="47.49072" lon="6.63171">
        <ele>428</ele>
        <time>2015-08-20T13:35:28.000Z</time>
      </trkpt>
      <trkpt lat="47.49073" lon="6.63179">
        <ele>428</ele>
        <time>2015-08-20T13:35:29.000Z</time>
      </trkpt>
      <trkpt lat="47.49073" lon="6.63186">
        <ele>428</ele>
        <time>2015-08-20T13:35:30.000Z</time>
      </trkpt>
      <trkpt lat="47.49075" lon="6.63199">
        <ele>428</ele>
        <time>2015-08-20T13:35:31.000Z</time>
      </trkpt>
      <trkpt lat="47.49076" lon="6.63206">
        <ele>428</ele>
        <time>2015-08-20T13:35:32.000Z</time>
      </trkpt>
      <trkpt lat="47.49076" lon="6.63214">
        <ele>428</ele>
        <time>2015-08-20T13:35:32.999Z</time>
      </trkpt>
      <trkpt lat="47.49076" lon="6.63221">
        <ele>428</ele>
        <time>2015-08-20T13:35:34.000Z</time>
      </trkpt>
      <trkpt lat="47.49078" lon="6.63228">
        <ele>427</ele>
        <time>2015-08-20T13:35:35.000Z</time>
      </trkpt>
      <trkpt lat="47.4908" lon="6.63235">
        <ele>427</ele>
        <time>2015-08-20T13:35:36.000Z</time>
      </trkpt>
      <trkpt lat="47.49081" lon="6.63246">
        <ele>427</ele>
        <time>2015-08-20T13:35:37.000Z</time>
      </trkpt>
      <trkpt lat="47.49083" lon="6.63253">
        <ele>427</ele>
        <time>2015-08-20T13:35:38.000Z</time>
      </trkpt>
      <trkpt lat="47.49082" lon="6.6326">
        <ele>426</ele>
        <time>2015-08-20T13:35:39.000Z</time>
      </trkpt>
      <trkpt lat="47.49081" lon="6.63268">
        <ele>426</ele>
        <time>2015-08-20T13:35:40.000Z</time>
      </trkpt>
      <trkpt lat="47.49081" lon="6.63275">
        <ele>425</ele>
        <time>2015-08-20T13:35:41.000Z</time>
      </trkpt>
      <trkpt lat="47.49081" lon="6.63283">
        <ele>425</ele>
        <time>2015-08-20T13:35:42.000Z</time>
      </trkpt>
      <trkpt lat="47.49079" lon="6.63289">
        <ele>425</ele>
        <time>2015-08-20T13:35:43.000Z</time>
      </trkpt>
      <trkpt lat="47.49079" lon="6.63297">
        <ele>424</ele>
        <time>2015-08-20T13:35:44.000Z</time>
      </trkpt>
      <trkpt lat="47.4908" lon="6.63309">
        <ele>424</ele>
        <time>2015-08-20T13:35:45.000Z</time>
      </trkpt>
      <trkpt lat="47.49081" lon="6.63321">
        <ele>424</ele>
        <time>2015-08-20T13:35:46.000Z</time>
      </trkpt>
      <trkpt lat="47.49084" lon="6.63336">
        <ele>423</ele>
        <time>2015-08-20T13:35:47.000Z</time>
      </trkpt>
      <trkpt lat="47.49087" lon="6.63349">
        <ele>423</ele>
        <time>2015-08-20T13:35:48.000Z</time>
      </trkpt>
      <trkpt lat="47.49087" lon="6.6336">
        <ele>422</ele>
        <time>2015-08-20T13:35:49.000Z</time>
      </trkpt>
      <trkpt lat="47.49087" lon="6.63368">
        <ele>422</ele>
        <time>2015-08-20T13:35:50.000Z</time>
      </trkpt>
      <trkpt lat="47.49088" lon="6.63377">
        <ele>422</ele>
        <time>2015-08-20T13:35:51.000Z</time>
      </trkpt>
      <trkpt lat="47.49089" lon="6.63388">
        <ele>421</ele>
        <time>2015-08-20T13:35:52.000Z</time>
      </trkpt>
      <trkpt lat="47.49092" lon="6.63401">
        <ele>421</ele>
        <time>2015-08-20T13:35:53.000Z</time>
      </trkpt>
      <trkpt lat="47.49095" lon="6.63415">
        <ele>420</ele>
        <time>2015-08-20T13:35:54.000Z</time>
      </trkpt>
      <trkpt lat="47.491" lon="6.63433">
        <ele>419</ele>
        <time>2015-08-20T13:35:55.000Z</time>
      </trkpt>
      <trkpt lat="47.49102" lon="6.63445">
        <ele>419</ele>
        <time>2015-08-20T13:35:56.000Z</time>
      </trkpt>
      <trkpt lat="47.49105" lon="6.63457">
        <ele>419</ele>
        <time>2015-08-20T13:35:57.000Z</time>
      </trkpt>
      <trkpt lat="47.49108" lon="6.63466">
        <ele>418</ele>
        <time>2015-08-20T13:35:58.000Z</time>
      </trkpt>
      <trkpt lat="47.49108" lon="6.63471">
        <ele>418</ele>
        <time>2015-08-20T13:35:59.000Z</time>
      </trkpt>
      <trkpt lat="47.49106" lon="6.63473">
        <ele>418</ele>
        <time>2015-08-20T13:36:00.000Z</time>
      </trkpt>
      <trkpt lat="47.49104" lon="6.63476">
        <ele>418</ele>
        <time>2015-08-20T13:36:01.000Z</time>
      </trkpt>
      <trkpt lat="47.49102" lon="6.63479">
        <ele>418</ele>
        <time>2015-08-20T13:36:02.000Z</time>
      </trkpt>
      <trkpt lat="47.49099" lon="6.63483">
        <ele>417</ele>
        <time>2015-08-20T13:36:03.000Z</time>
      </trkpt>
      <trkpt lat="47.49095" lon="6.6349">
        <ele>417</ele>
        <time>2015-08-20T13:36:04.000Z</time>
      </trkpt>
      <trkpt lat="47.49092" lon="6.63498">
        <ele>416</ele>
        <time>2015-08-20T13:36:05.000Z</time>
      </trkpt>
      <trkpt lat="47.49089" lon="6.63509">
        <ele>416</ele>
        <time>2015-08-20T13:36:06.000Z</time>
      </trkpt>
      <trkpt lat="47.49083" lon="6.63516">
        <ele>416</ele>
        <time>2015-08-20T13:36:07.000Z</time>
      </trkpt>
      <trkpt lat="47.49079" lon="6.63523">
        <ele>415</ele>
        <time>2015-08-20T13:36:08.000Z</time>
      </trkpt>
      <trkpt lat="47.49074" lon="6.63528">
        <ele>415</ele>
        <time>2015-08-20T13:36:09.000Z</time>
      </trkpt>
      <trkpt lat="47.49069" lon="6.63536">
        <ele>415</ele>
        <time>2015-08-20T13:36:10.000Z</time>
      </trkpt>
      <trkpt lat="47.49064" lon="6.63544">
        <ele>416</ele>
        <time>2015-08-20T13:36:11.000Z</time>
      </trkpt>
      <trkpt lat="47.49063" lon="6.63558">
        <ele>416</ele>
        <time>2015-08-20T13:36:12.000Z</time>
      </trkpt>
      <trkpt lat="47.49064" lon="6.6357">
        <ele>416</ele>
        <time>2015-08-20T13:36:13.000Z</time>
      </trkpt>
      <trkpt lat="47.49065" lon="6.63581">
        <ele>416</ele>
        <time>2015-08-20T13:36:14.000Z</time>
      </trkpt>
      <trkpt lat="47.49065" lon="6.63594">
        <ele>417</ele>
        <time>2015-08-20T13:36:15.000Z</time>
      </trkpt>
      <trkpt lat="47.49065" lon="6.63609">
        <ele>417</ele>
        <time>2015-08-20T13:36:16.000Z</time>
      </trkpt>
      <trkpt lat="47.49067" lon="6.6362">
        <ele>417</ele>
        <time>2015-08-20T13:36:17.000Z</time>
      </trkpt>
      <trkpt lat="47.49069" lon="6.63632">
        <ele>417</ele>
        <time>2015-08-20T13:36:18.000Z</time>
      </trkpt>
      <trkpt lat="47.49068" lon="6.63637">
        <ele>417</ele>
        <time>2015-08-20T13:36:19.000Z</time>
      </trkpt>
      <trkpt lat="47.49069" lon="6.63645">
        <ele>417</ele>
        <time>2015-08-20T13:36:20.000Z</time>
      </trkpt>
      <trkpt lat="47.49069" lon="6.63653">
        <ele>417</ele>
        <time>2015-08-20T13:36:21.000Z</time>
      </trkpt>
      <trkpt lat="47.4907" lon="6.63661">
        <ele>417</ele>
        <time>2015-08-20T13:36:22.000Z</time>
      </trkpt>
      <trkpt lat="47.49072" lon="6.63674">
        <ele>418</ele>
        <time>2015-08-20T13:36:23.000Z</time>
      </trkpt>
      <trkpt lat="47.49074" lon="6.63686">
        <ele>418</ele>
        <time>2015-08-20T13:36:24.000Z</time>
      </trkpt>
      <trkpt lat="47.49076" lon="6.63693">
        <ele>418</ele>
        <time>2015-08-20T13:36:25.000Z</time>
      </trkpt>
      <trkpt lat="47.49078" lon="6.63701">
        <ele>418</ele>
        <time>2015-08-20T13:36:26.000Z</time>
      </trkpt>
      <trkpt lat="47.49079" lon="6.63708">
        <ele>418</ele>
        <time>2015-08-20T13:36:27.000Z</time>
      </trkpt>
      <trkpt lat="47.4908" lon="6.63715">
        <ele>418</ele>
        <time>2015-08-20T13:36:28.000Z</time>
      </trkpt>
      <trkpt lat="47.4908" lon="6.63722">
        <ele>419</ele>
        <time>2015-08-20T13:36:29.000Z</time>
      </trkpt>
      <trkpt lat="47.49082" lon="6.63728">
        <ele>419</ele>
        <time>2015-08-20T13:36:30.000Z</time>
      </trkpt>
      <trkpt lat="47.49082" lon="6.63733">
        <ele>419</ele>
        <time>2015-08-20T13:36:31.000Z</time>
      </trkpt>
      <trkpt lat="47.49082" lon="6.63739">
        <ele>419</ele>
        <time>2015-08-20T13:36:32.000Z</time>
      </trkpt>
      <trkpt lat="47.49081" lon="6.63744">
        <ele>419</ele>
        <time>2015-08-20T13:36:33.000Z</time>
      </trkpt>
      <trkpt lat="47.49081" lon="6.6375">
        <ele>419</ele>
        <time>2015-08-20T13:36:34.000Z</time>
      </trkpt>
      <trkpt lat="47.4908" lon="6.63755">
        <ele>419</ele>
        <time>2015-08-20T13:36:35.000Z</time>
      </trkpt>
      <trkpt lat="47.4908" lon="6.63761">
        <ele>418</ele>
        <time>2015-08-20T13:36:36.000Z</time>
      </trkpt>
      <trkpt lat="47.4908" lon="6.63766">
        <ele>418</ele>
        <time>2015-08-20T13:36:37.000Z</time>
      </trkpt>
      <trkpt lat="47.4908" lon="6.63773">
        <ele>418</ele>
        <time>2015-08-20T13:36:38.000Z</time>
      </trkpt>
      <trkpt lat="47.4908" lon="6.63779">
        <ele>418</ele>
        <time>2015-08-20T13:36:39.000Z</time>
      </trkpt>
      <trkpt lat="47.49081" lon="6.63786">
        <ele>417</ele>
        <time>2015-08-20T13:36:40.000Z</time>
      </trkpt>
      <trkpt lat="47.49081" lon="6.63793">
        <ele>417</ele>
        <time>2015-08-20T13:36:41.000Z</time>
      </trkpt>
      <trkpt lat="47.49082" lon="6.638">
        <ele>417</ele>
        <time>2015-08-20T13:36:42.000Z</time>
      </trkpt>
      <trkpt lat="47.49083" lon="6.63809">
        <ele>417</ele>
        <time>2015-08-20T13:36:43.000Z</time>
      </trkpt>
      <trkpt lat="47.49084" lon="6.63818">
        <ele>417</ele>
        <time>2015-08-20T13:36:44.000Z</time>
      </trkpt>
      <trkpt lat="47.49089" lon="6.63843">
        <ele>416</ele>
        <time>2015-08-20T13:36:45.000Z</time>
      </trkpt>
      <trkpt lat="47.49088" lon="6.63853">
        <ele>416</ele>
        <time>2015-08-20T13:36:46.000Z</time>
      </trkpt>
      <trkpt lat="47.49089" lon="6.63865">
        <ele>416</ele>
        <time>2015-08-20T13:36:47.000Z</time>
      </trkpt>
      <trkpt lat="47.49091" lon="6.63873">
        <ele>415</ele>
        <time>2015-08-20T13:36:48.000Z</time>
      </trkpt>
      <trkpt lat="47.49093" lon="6.63884">
        <ele>415</ele>
        <time>2015-08-20T13:36:49.000Z</time>
      </trkpt>
      <trkpt lat="47.49094" lon="6.63893">
        <ele>415</ele>
        <time>2015-08-20T13:36:50.000Z</time>
      </trkpt>
      <trkpt lat="47.49095" lon="6.63901">
        <ele>414</ele>
        <time>2015-08-20T13:36:51.000Z</time>
      </trkpt>
      <trkpt lat="47.49098" lon="6.63913">
        <ele>414</ele>
        <time>2015-08-20T13:36:52.000Z</time>
      </trkpt>
      <trkpt lat="47.49099" lon="6.63922">
        <ele>414</ele>
        <time>2015-08-20T13:36:53.000Z</time>
      </trkpt>
      <trkpt lat="47.49101" lon="6.63932">
        <ele>414</ele>
        <time>2015-08-20T13:36:54.000Z</time>
      </trkpt>
      <trkpt lat="47.49103" lon="6.63943">
        <ele>414</ele>
        <time>2015-08-20T13:36:55.000Z</time>
      </trkpt>
      <trkpt lat="47.49105" lon="6.63949">
        <ele>414</ele>
        <time>2015-08-20T13:36:56.000Z</time>
      </trkpt>
      <trkpt lat="47.49106" lon="6.63952">
        <ele>414</ele>
        <time>2015-08-20T13:36:57.000Z</time>
      </trkpt>
      <trkpt lat="47.49107" lon="6.63957">
        <ele>414</ele>
        <time>2015-08-20T13:36:58.000Z</time>
      </trkpt>
      <trkpt lat="47.49108" lon="6.63962">
        <ele>414</ele>
        <time>2015-08-20T13:36:59.000Z</time>
      </trkpt>
      <trkpt lat="47.49109" lon="6.63967">
        <ele>414</ele>
        <time>2015-08-20T13:37:01.000Z</time>
      </trkpt>
      <trkpt lat="47.49109" lon="6.6397">
        <ele>414</ele>
        <time>2015-08-20T13:37:02.000Z</time>
      </trkpt>
      <trkpt lat="47.49109" lon="6.63974">
        <ele>413</ele>
        <time>2015-08-20T13:37:04.000Z</time>
      </trkpt>
      <trkpt lat="47.4911" lon="6.63977">
        <ele>413</ele>
        <time>2015-08-20T13:37:05.000Z</time>
      </trkpt>
      <trkpt lat="47.4911" lon="6.63982">
        <ele>413</ele>
        <time>2015-08-20T13:37:07.000Z</time>
      </trkpt>
      <trkpt lat="47.49111" lon="6.63984">
        <ele>413</ele>
        <time>2015-08-20T13:37:08.000Z</time>
      </trkpt>
      <trkpt lat="47.49115" lon="6.63985">
        <ele>414</ele>
        <time>2015-08-20T13:37:33.001Z</time>
      </trkpt>
      <trkpt lat="47.49116" lon="6.63986">
        <ele>414</ele>
        <time>2015-08-20T13:37:33.999Z</time>
      </trkpt>
      <trkpt lat="47.49116" lon="6.6399">
        <ele>414</ele>
        <time>2015-08-20T13:37:35.000Z</time>
      </trkpt>
      <trkpt lat="47.49116" lon="6.63993">
        <ele>414</ele>
        <time>2015-08-20T13:37:36.000Z</time>
      </trkpt>
      <trkpt lat="47.49115" lon="6.63996">
        <ele>413</ele>
        <time>2015-08-20T13:37:37.000Z</time>
      </trkpt>
      <trkpt lat="47.49115" lon="6.64001">
        <ele>414</ele>
        <time>2015-08-20T13:37:38.000Z</time>
      </trkpt>
      <trkpt lat="47.49115" lon="6.64005">
        <ele>414</ele>
        <time>2015-08-20T13:37:39.000Z</time>
      </trkpt>
      <trkpt lat="47.49116" lon="6.64009">
        <ele>414</ele>
        <time>2015-08-20T13:37:40.000Z</time>
      </trkpt>
      <trkpt lat="47.49117" lon="6.64014">
        <ele>414</ele>
        <time>2015-08-20T13:37:41.000Z</time>
      </trkpt>
      <trkpt lat="47.49118" lon="6.64018">
        <ele>414</ele>
        <time>2015-08-20T13:37:42.000Z</time>
      </trkpt>
      <trkpt lat="47.4912" lon="6.64024">
        <ele>414</ele>
        <time>2015-08-20T13:37:43.000Z</time>
      </trkpt>
      <trkpt lat="47.4912" lon="6.64028">
        <ele>414</ele>
        <time>2015-08-20T13:37:44.000Z</time>
      </trkpt>
      <trkpt lat="47.49121" lon="6.64032">
        <ele>414</ele>
        <time>2015-08-20T13:37:45.000Z</time>
      </trkpt>
      <trkpt lat="47.49121" lon="6.64036">
        <ele>414</ele>
        <time>2015-08-20T13:37:46.000Z</time>
      </trkpt>
      <trkpt lat="47.49121" lon="6.64039">
        <ele>414</ele>
        <time>2015-08-20T13:37:46.999Z</time>
      </trkpt>
      <trkpt lat="47.49124" lon="6.64049">
        <ele>415</ele>
        <time>2015-08-20T13:37:48.000Z</time>
      </trkpt>
      <trkpt lat="47.49126" lon="6.64056">
        <ele>415</ele>
        <time>2015-08-20T13:37:49.000Z</time>
      </trkpt>
      <trkpt lat="47.49129" lon="6.64064">
        <ele>415</ele>
        <time>2015-08-20T13:37:50.000Z</time>
      </trkpt>
      <trkpt lat="47.49131" lon="6.64071">
        <ele>415</ele>
        <time>2015-08-20T13:37:51.000Z</time>
      </trkpt>
      <trkpt lat="47.49133" lon="6.64076">
        <ele>415</ele>
        <time>2015-08-20T13:37:52.000Z</time>
      </trkpt>
      <trkpt lat="47.49135" lon="6.64081">
        <ele>415</ele>
        <time>2015-08-20T13:37:52.999Z</time>
      </trkpt>
      <trkpt lat="47.49137" lon="6.64086">
        <ele>415</ele>
        <time>2015-08-20T13:37:57.002Z</time>
      </trkpt>
      <trkpt lat="47.49138" lon="6.6409">
        <ele>415</ele>
        <time>2015-08-20T13:37:58.000Z</time>
      </trkpt>
      <trkpt lat="47.49139" lon="6.64095">
        <ele>415</ele>
        <time>2015-08-20T13:38:00.000Z</time>
      </trkpt>
      <trkpt lat="47.4914" lon="6.64098">
        <ele>415</ele>
        <time>2015-08-20T13:38:01.000Z</time>
      </trkpt>
      <trkpt lat="47.49141" lon="6.64102">
        <ele>415</ele>
        <time>2015-08-20T13:38:02.000Z</time>
      </trkpt>
      <trkpt lat="47.49142" lon="6.64105">
        <ele>415</ele>
        <time>2015-08-20T13:38:03.000Z</time>
      </trkpt>
      <trkpt lat="47.49142" lon="6.64109">
        <ele>415</ele>
        <time>2015-08-20T13:38:04.000Z</time>
      </trkpt>
      <trkpt lat="47.49143" lon="6.64114">
        <ele>415</ele>
        <time>2015-08-20T13:38:05.000Z</time>
      </trkpt>
      <trkpt lat="47.49144" lon="6.64118">
        <ele>415</ele>
        <time>2015-08-20T13:38:06.000Z</time>
      </trkpt>
      <trkpt lat="47.49144" lon="6.64122">
        <ele>415</ele>
        <time>2015-08-20T13:38:07.000Z</time>
      </trkpt>
      <trkpt lat="47.49145" lon="6.64129">
        <ele>415</ele>
        <time>2015-08-20T13:38:09.000Z</time>
      </trkpt>
      <trkpt lat="47.49145" lon="6.64132">
        <ele>415</ele>
        <time>2015-08-20T13:38:10.002Z</time>
      </trkpt>
      <trkpt lat="47.49146" lon="6.64137">
        <ele>416</ele>
        <time>2015-08-20T13:38:11.000Z</time>
      </trkpt>
      <trkpt lat="47.49146" lon="6.6414">
        <ele>416</ele>
        <time>2015-08-20T13:38:12.000Z</time>
      </trkpt>
      <trkpt lat="47.49147" lon="6.64147">
        <ele>416</ele>
        <time>2015-08-20T13:38:13.000Z</time>
      </trkpt>
      <trkpt lat="47.49148" lon="6.64153">
        <ele>416</ele>
        <time>2015-08-20T13:38:14.000Z</time>
      </trkpt>
      <trkpt lat="47.49148" lon="6.64158">
        <ele>416</ele>
        <time>2015-08-20T13:38:15.000Z</time>
      </trkpt>
      <trkpt lat="47.49149" lon="6.64162">
        <ele>416</ele>
        <time>2015-08-20T13:38:16.000Z</time>
      </trkpt>
      <trkpt lat="47.49149" lon="6.64166">
        <ele>416</ele>
        <time>2015-08-20T13:38:17.001Z</time>
      </trkpt>
      <trkpt lat="47.4915" lon="6.64171">
        <ele>415</ele>
        <time>2015-08-20T13:38:18.001Z</time>
      </trkpt>
      <trkpt lat="47.49151" lon="6.64177">
        <ele>415</ele>
        <time>2015-08-20T13:38:19.000Z</time>
      </trkpt>
      <trkpt lat="47.49151" lon="6.64182">
        <ele>415</ele>
        <time>2015-08-20T13:38:20.000Z</time>
      </trkpt>
      <trkpt lat="47.49152" lon="6.64185">
        <ele>415</ele>
        <time>2015-08-20T13:38:21.001Z</time>
      </trkpt>
      <trkpt lat="47.49152" lon="6.64191">
        <ele>414</ele>
        <time>2015-08-20T13:38:23.000Z</time>
      </trkpt>
      <trkpt lat="47.49152" lon="6.64192">
        <ele>414</ele>
        <time>2015-08-20T13:38:24.000Z</time>
      </trkpt>
      <trkpt lat="47.49148" lon="6.6419">
        <ele>414</ele>
        <time>2015-08-20T13:38:59.000Z</time>
      </trkpt>
      <trkpt lat="47.49147" lon="6.64189">
        <ele>414</ele>
        <time>2015-08-20T13:39:00.000Z</time>
      </trkpt>
      <trkpt lat="47.49144" lon="6.64191">
        <ele>414</ele>
        <time>2015-08-20T13:39:03.000Z</time>
      </trkpt>
      <trkpt lat="47.49142" lon="6.64193">
        <ele>414</ele>
        <time>2015-08-20T13:39:04.000Z</time>
      </trkpt>
      <trkpt lat="47.49141" lon="6.64196">
        <ele>414</ele>
        <time>2015-08-20T13:39:05.000Z</time>
      </trkpt>
      <trkpt lat="47.49139" lon="6.64199">
        <ele>414</ele>
        <time>2015-08-20T13:39:06.000Z</time>
      </trkpt>
      <trkpt lat="47.49138" lon="6.64203">
        <ele>413</ele>
        <time>2015-08-20T13:39:07.000Z</time>
      </trkpt>
      <trkpt lat="47.49137" lon="6.64208">
        <ele>413</ele>
        <time>2015-08-20T13:39:08.000Z</time>
      </trkpt>
      <trkpt lat="47.49135" lon="6.64213">
        <ele>413</ele>
        <time>2015-08-20T13:39:09.000Z</time>
      </trkpt>
      <trkpt lat="47.49133" lon="6.64218">
        <ele>413</ele>
        <time>2015-08-20T13:39:09.999Z</time>
      </trkpt>
      <trkpt lat="47.4913" lon="6.64223">
        <ele>413</ele>
        <time>2015-08-20T13:39:11.000Z</time>
      </trkpt>
      <trkpt lat="47.49126" lon="6.64228">
        <ele>413</ele>
        <time>2015-08-20T13:39:12.000Z</time>
      </trkpt>
      <trkpt lat="47.49124" lon="6.64232">
        <ele>412</ele>
        <time>2015-08-20T13:39:13.000Z</time>
      </trkpt>
      <trkpt lat="47.49121" lon="6.64237">
        <ele>412</ele>
        <time>2015-08-20T13:39:14.000Z</time>
      </trkpt>
      <trkpt lat="47.49118" lon="6.6424">
        <ele>412</ele>
        <time>2015-08-20T13:39:15.000Z</time>
      </trkpt>
      <trkpt lat="47.49117" lon="6.64247">
        <ele>412</ele>
        <time>2015-08-20T13:39:16.001Z</time>
      </trkpt>
      <trkpt lat="47.49114" lon="6.64255">
        <ele>407</ele>
        <time>2015-08-20T13:39:17.000Z</time>
      </trkpt>
      <trkpt lat="47.49112" lon="6.64262">
        <ele>407</ele>
        <time>2015-08-20T13:39:18.000Z</time>
      </trkpt>
      <trkpt lat="47.49109" lon="6.64268">
        <ele>406</ele>
        <time>2015-08-20T13:39:19.000Z</time>
      </trkpt>
      <trkpt lat="47.49106" lon="6.64273">
        <ele>406</ele>
        <time>2015-08-20T13:39:20.000Z</time>
      </trkpt>
      <trkpt lat="47.49104" lon="6.64279">
        <ele>406</ele>
        <time>2015-08-20T13:39:21.000Z</time>
      </trkpt>
      <trkpt lat="47.49101" lon="6.643">
        <ele>404</ele>
        <time>2015-08-20T13:39:22.000Z</time>
      </trkpt>
      <trkpt lat="47.49099" lon="6.64309">
        <ele>403</ele>
        <time>2015-08-20T13:39:23.000Z</time>
      </trkpt>
      <trkpt lat="47.49096" lon="6.64317">
        <ele>401</ele>
        <time>2015-08-20T13:39:24.000Z</time>
      </trkpt>
      <trkpt lat="47.49094" lon="6.64321">
        <ele>401</ele>
        <time>2015-08-20T13:39:25.000Z</time>
      </trkpt>
      <trkpt lat="47.49098" lon="6.64326">
        <ele>400</ele>
        <time>2015-08-20T13:39:26.000Z</time>
      </trkpt>
      <trkpt lat="47.49098" lon="6.64332">
        <ele>400</ele>
        <time>2015-08-20T13:39:27.000Z</time>
      </trkpt>
      <trkpt lat="47.49097" lon="6.64328">
        <ele>400</ele>
        <time>2015-08-20T13:39:28.000Z</time>
      </trkpt>
      <trkpt lat="47.49095" lon="6.64326">
        <ele>400</ele>
        <time>2015-08-20T13:39:29.000Z</time>
      </trkpt>
      <trkpt lat="47.49094" lon="6.64322">
        <ele>400</ele>
        <time>2015-08-20T13:39:30.000Z</time>
      </trkpt>
      <trkpt lat="47.49093" lon="6.6432">
        <ele>401</ele>
        <time>2015-08-20T13:39:31.000Z</time>
      </trkpt>
      <trkpt lat="47.49091" lon="6.64316">
        <ele>401</ele>
        <time>2015-08-20T13:39:32.000Z</time>
      </trkpt>
      <trkpt lat="47.4909" lon="6.64314">
        <ele>401</ele>
        <time>2015-08-20T13:39:33.000Z</time>
      </trkpt>
      <trkpt lat="47.49088" lon="6.64311">
        <ele>402</ele>
        <time>2015-08-20T13:39:34.000Z</time>
      </trkpt>
      <trkpt lat="47.49086" lon="6.64308">
        <ele>402</ele>
        <time>2015-08-20T13:39:35.000Z</time>
      </trkpt>
      <trkpt lat="47.49084" lon="6.64305">
        <ele>403</ele>
        <time>2015-08-20T13:39:36.000Z</time>
      </trkpt>
      <trkpt lat="47.49081" lon="6.64301">
        <ele>398</ele>
        <time>2015-08-20T13:39:37.000Z</time>
      </trkpt>
      <trkpt lat="47.49079" lon="6.64299">
        <ele>398</ele>
        <time>2015-08-20T13:39:38.000Z</time>
      </trkpt>
      <trkpt lat="47.49078" lon="6.64296">
        <ele>398</ele>
        <time>2015-08-20T13:39:39.000Z</time>
      </trkpt>
      <trkpt lat="47.49075" lon="6.64293">
        <ele>398</ele>
        <time>2015-08-20T13:39:41.000Z</time>
      </trkpt>
      <trkpt lat="47.49073" lon="6.64292">
        <ele>398</ele>
        <time>2015-08-20T13:39:42.000Z</time>
      </trkpt>
      <trkpt lat="47.49071" lon="6.64287">
        <ele>399</ele>
        <time>2015-08-20T13:39:45.000Z</time>
      </trkpt>
      <trkpt lat="47.4907" lon="6.64285">
        <ele>399</ele>
        <time>2015-08-20T13:39:46.000Z</time>
      </trkpt>
      <trkpt lat="47.49069" lon="6.6428">
        <ele>400</ele>
        <time>2015-08-20T13:39:49.000Z</time>
      </trkpt>
      <trkpt lat="47.49069" lon="6.64278">
        <ele>400</ele>
        <time>2015-08-20T13:39:50.000Z</time>
      </trkpt>
      <trkpt lat="47.49067" lon="6.64273">
        <ele>400</ele>
        <time>2015-08-20T13:39:52.000Z</time>
      </trkpt>
      <trkpt lat="47.49066" lon="6.64271">
        <ele>401</ele>
        <time>2015-08-20T13:39:53.000Z</time>
      </trkpt>
      <trkpt lat="47.49062" lon="6.64266">
        <ele>401</ele>
        <time>2015-08-20T13:39:55.000Z</time>
      </trkpt>
      <trkpt lat="47.4906" lon="6.64265">
        <ele>401</ele>
        <time>2015-08-20T13:39:56.000Z</time>
      </trkpt>
      <trkpt lat="47.49058" lon="6.64264">
        <ele>400</ele>
        <time>2015-08-20T13:39:57.000Z</time>
      </trkpt>
      <trkpt lat="47.49056" lon="6.64262">
        <ele>400</ele>
        <time>2015-08-20T13:39:58.000Z</time>
      </trkpt>
      <trkpt lat="47.49053" lon="6.64258">
        <ele>400</ele>
        <time>2015-08-20T13:40:00.000Z</time>
      </trkpt>
      <trkpt lat="47.49051" lon="6.64256">
        <ele>400</ele>
        <time>2015-08-20T13:40:01.000Z</time>
      </trkpt>
      <trkpt lat="47.49049" lon="6.64254">
        <ele>399</ele>
        <time>2015-08-20T13:40:02.000Z</time>
      </trkpt>
      <trkpt lat="47.49046" lon="6.64251">
        <ele>399</ele>
        <time>2015-08-20T13:40:03.000Z</time>
      </trkpt>
      <trkpt lat="47.49046" lon="6.64251">
        <ele>399</ele>
        <time>2015-08-20T13:40:03.103Z</time>
      </trkpt>
      <trkpt lat="47.49033" lon="6.64248">
        <ele>403</ele>
        <time>2015-08-20T13:40:05.000Z</time>
      </trkpt>
      <trkpt lat="47.49028" lon="6.64248">
        <ele>402</ele>
        <time>2015-08-20T13:40:06.000Z</time>
      </trkpt>
      <trkpt lat="47.49021" lon="6.64246">
        <ele>401</ele>
        <time>2015-08-20T13:40:07.000Z</time>
      </trkpt>
      <trkpt lat="47.49018" lon="6.64237">
        <ele>401</ele>
        <time>2015-08-20T13:40:08.000Z</time>
      </trkpt>
      <trkpt lat="47.49013" lon="6.64234">
        <ele>401</ele>
        <time>2015-08-20T13:40:09.000Z</time>
      </trkpt>
      <trkpt lat="47.49009" lon="6.64229">
        <ele>401</ele>
        <time>2015-08-20T13:40:10.000Z</time>
      </trkpt>
      <trkpt lat="47.49005" lon="6.64224">
        <ele>401</ele>
        <time>2015-08-20T13:40:11.000Z</time>
      </trkpt>
      <trkpt lat="47.49" lon="6.6422">
        <ele>402</ele>
        <time>2015-08-20T13:40:12.000Z</time>
      </trkpt>
      <trkpt lat="47.48995" lon="6.64216">
        <ele>397</ele>
        <time>2015-08-20T13:40:13.000Z</time>
      </trkpt>
      <trkpt lat="47.48991" lon="6.64213">
        <ele>397</ele>
        <time>2015-08-20T13:40:14.000Z</time>
      </trkpt>
      <trkpt lat="47.48986" lon="6.64211">
        <ele>397</ele>
        <time>2015-08-20T13:40:15.000Z</time>
      </trkpt>
      <trkpt lat="47.48982" lon="6.64208">
        <ele>397</ele>
        <time>2015-08-20T13:40:16.000Z</time>
      </trkpt>
      <trkpt lat="47.48978" lon="6.64207">
        <ele>397</ele>
        <time>2015-08-20T13:40:17.000Z</time>
      </trkpt>
      <trkpt lat="47.48975" lon="6.64205">
        <ele>397</ele>
        <time>2015-08-20T13:40:18.000Z</time>
      </trkpt>
      <trkpt lat="47.48971" lon="6.64204">
        <ele>397</ele>
        <time>2015-08-20T13:40:19.000Z</time>
      </trkpt>
      <trkpt lat="47.48965" lon="6.64206">
        <ele>396</ele>
        <time>2015-08-20T13:40:20.000Z</time>
      </trkpt>
      <trkpt lat="47.48957" lon="6.64207">
        <ele>396</ele>
        <time>2015-08-20T13:40:21.000Z</time>
      </trkpt>
      <trkpt lat="47.48952" lon="6.64208">
        <ele>396</ele>
        <time>2015-08-20T13:40:22.000Z</time>
      </trkpt>
      <trkpt lat="47.48947" lon="6.64209">
        <ele>396</ele>
        <time>2015-08-20T13:40:23.000Z</time>
      </trkpt>
      <trkpt lat="47.48941" lon="6.64209">
        <ele>395</ele>
        <time>2015-08-20T13:40:24.000Z</time>
      </trkpt>
      <trkpt lat="47.48935" lon="6.64207">
        <ele>395</ele>
        <time>2015-08-20T13:40:25.000Z</time>
      </trkpt>
      <trkpt lat="47.48928" lon="6.64208">
        <ele>395</ele>
        <time>2015-08-20T13:40:26.000Z</time>
      </trkpt>
      <trkpt lat="47.4892" lon="6.64207">
        <ele>395</ele>
        <time>2015-08-20T13:40:27.000Z</time>
      </trkpt>
      <trkpt lat="47.48914" lon="6.64205">
        <ele>391</ele>
        <time>2015-08-20T13:40:28.000Z</time>
      </trkpt>
      <trkpt lat="47.48908" lon="6.64204">
        <ele>391</ele>
        <time>2015-08-20T13:40:29.000Z</time>
      </trkpt>
      <trkpt lat="47.48902" lon="6.64199">
        <ele>392</ele>
        <time>2015-08-20T13:40:30.000Z</time>
      </trkpt>
      <trkpt lat="47.48897" lon="6.64196">
        <ele>392</ele>
        <time>2015-08-20T13:40:31.000Z</time>
      </trkpt>
      <trkpt lat="47.48892" lon="6.64195">
        <ele>392</ele>
        <time>2015-08-20T13:40:32.000Z</time>
      </trkpt>
      <trkpt lat="47.48887" lon="6.64193">
        <ele>392</ele>
        <time>2015-08-20T13:40:33.000Z</time>
      </trkpt>
      <trkpt lat="47.48881" lon="6.64191">
        <ele>391</ele>
        <time>2015-08-20T13:40:34.000Z</time>
      </trkpt>
      <trkpt lat="47.48875" lon="6.6419">
        <ele>391</ele>
        <time>2015-08-20T13:40:35.000Z</time>
      </trkpt>
      <trkpt lat="47.4887" lon="6.6419">
        <ele>391</ele>
        <time>2015-08-20T13:40:36.000Z</time>
      </trkpt>
      <trkpt lat="47.48863" lon="6.64189">
        <ele>391</ele>
        <time>2015-08-20T13:40:37.000Z</time>
      </trkpt>
      <trkpt lat="47.48855" lon="6.64188">
        <ele>391</ele>
        <time>2015-08-20T13:40:38.000Z</time>
      </trkpt>
      <trkpt lat="47.48849" lon="6.64185">
        <ele>391</ele>
        <time>2015-08-20T13:40:39.000Z</time>
      </trkpt>
      <trkpt lat="47.48842" lon="6.64185">
        <ele>391</ele>
        <time>2015-08-20T13:40:40.000Z</time>
      </trkpt>
      <trkpt lat="47.48834" lon="6.64184">
        <ele>391</ele>
        <time>2015-08-20T13:40:41.000Z</time>
      </trkpt>
      <trkpt lat="47.48826" lon="6.64179">
        <ele>388</ele>
        <time>2015-08-20T13:40:42.000Z</time>
      </trkpt>
      <trkpt lat="47.48819" lon="6.64176">
        <ele>388</ele>
        <time>2015-08-20T13:40:43.000Z</time>
      </trkpt>
      <trkpt lat="47.48814" lon="6.64175">
        <ele>387</ele>
        <time>2015-08-20T13:40:44.000Z</time>
      </trkpt>
      <trkpt lat="47.48806" lon="6.64172">
        <ele>386</ele>
        <time>2015-08-20T13:40:45.000Z</time>
      </trkpt>
      <trkpt lat="47.48798" lon="6.64167">
        <ele>385</ele>
        <time>2015-08-20T13:40:46.000Z</time>
      </trkpt>
      <trkpt lat="47.4879" lon="6.64163">
        <ele>390</ele>
        <time>2015-08-20T13:40:47.000Z</time>
      </trkpt>
      <trkpt lat="47.48782" lon="6.64161">
        <ele>389</ele>
        <time>2015-08-20T13:40:48.000Z</time>
      </trkpt>
      <trkpt lat="47.48774" lon="6.64155">
        <ele>388</ele>
        <time>2015-08-20T13:40:49.000Z</time>
      </trkpt>
      <trkpt lat="47.48766" lon="6.64149">
        <ele>387</ele>
        <time>2015-08-20T13:40:50.000Z</time>
      </trkpt>
      <trkpt lat="47.48757" lon="6.64143">
        <ele>388</ele>
        <time>2015-08-20T13:40:51.000Z</time>
      </trkpt>
      <trkpt lat="47.4875" lon="6.64138">
        <ele>383</ele>
        <time>2015-08-20T13:40:52.000Z</time>
      </trkpt>
      <trkpt lat="47.48743" lon="6.64134">
        <ele>383</ele>
        <time>2015-08-20T13:40:53.000Z</time>
      </trkpt>
      <trkpt lat="47.48735" lon="6.6413">
        <ele>383</ele>
        <time>2015-08-20T13:40:54.000Z</time>
      </trkpt>
      <trkpt lat="47.48727" lon="6.64125">
        <ele>383</ele>
        <time>2015-08-20T13:40:55.000Z</time>
      </trkpt>
      <trkpt lat="47.4872" lon="6.64119">
        <ele>383</ele>
        <time>2015-08-20T13:40:56.000Z</time>
      </trkpt>
      <trkpt lat="47.48712" lon="6.64115">
        <ele>383</ele>
        <time>2015-08-20T13:40:57.000Z</time>
      </trkpt>
      <trkpt lat="47.48707" lon="6.64112">
        <ele>383</ele>
        <time>2015-08-20T13:40:58.000Z</time>
      </trkpt>
      <trkpt lat="47.487" lon="6.64107">
        <ele>383</ele>
        <time>2015-08-20T13:40:59.000Z</time>
      </trkpt>
      <trkpt lat="47.48694" lon="6.64103">
        <ele>383</ele>
        <time>2015-08-20T13:41:00.000Z</time>
      </trkpt>
      <trkpt lat="47.48688" lon="6.64096">
        <ele>383</ele>
        <time>2015-08-20T13:41:01.000Z</time>
      </trkpt>
      <trkpt lat="47.48682" lon="6.64092">
        <ele>382</ele>
        <time>2015-08-20T13:41:02.000Z</time>
      </trkpt>
      <trkpt lat="47.48675" lon="6.64089">
        <ele>382</ele>
        <time>2015-08-20T13:41:03.000Z</time>
      </trkpt>
      <trkpt lat="47.4867" lon="6.64085">
        <ele>382</ele>
        <time>2015-08-20T13:41:04.000Z</time>
      </trkpt>
      <trkpt lat="47.48663" lon="6.6408">
        <ele>383</ele>
        <time>2015-08-20T13:41:05.000Z</time>
      </trkpt>
      <trkpt lat="47.48657" lon="6.64076">
        <ele>384</ele>
        <time>2015-08-20T13:41:06.000Z</time>
      </trkpt>
      <trkpt lat="47.48651" lon="6.64073">
        <ele>385</ele>
        <time>2015-08-20T13:41:07.000Z</time>
      </trkpt>
      <trkpt lat="47.48645" lon="6.64068">
        <ele>385</ele>
        <time>2015-08-20T13:41:08.000Z</time>
      </trkpt>
      <trkpt lat="47.4864" lon="6.64059">
        <ele>386</ele>
        <time>2015-08-20T13:41:09.000Z</time>
      </trkpt>
      <trkpt lat="47.48635" lon="6.6405">
        <ele>386</ele>
        <time>2015-08-20T13:41:10.000Z</time>
      </trkpt>
      <trkpt lat="47.48631" lon="6.64044">
        <ele>386</ele>
        <time>2015-08-20T13:41:11.000Z</time>
      </trkpt>
      <trkpt lat="47.48625" lon="6.64044">
        <ele>386</ele>
        <time>2015-08-20T13:41:12.000Z</time>
      </trkpt>
      <trkpt lat="47.4862" lon="6.64044">
        <ele>386</ele>
        <time>2015-08-20T13:41:13.000Z</time>
      </trkpt>
      <trkpt lat="47.48617" lon="6.64045">
        <ele>386</ele>
        <time>2015-08-20T13:41:14.000Z</time>
      </trkpt>
      <trkpt lat="47.48615" lon="6.64052">
        <ele>386</ele>
        <time>2015-08-20T13:41:17.000Z</time>
      </trkpt>
      <trkpt lat="47.48615" lon="6.64054">
        <ele>386</ele>
        <time>2015-08-20T13:41:18.000Z</time>
      </trkpt>
      <trkpt lat="47.48617" lon="6.64059">
        <ele>386</ele>
        <time>2015-08-20T13:41:21.000Z</time>
      </trkpt>
      <trkpt lat="47.48617" lon="6.64064">
        <ele>387</ele>
        <time>2015-08-20T13:41:22.000Z</time>
      </trkpt>
      <trkpt lat="47.48617" lon="6.6407">
        <ele>387</ele>
        <time>2015-08-20T13:41:24.000Z</time>
      </trkpt>
      <trkpt lat="47.48617" lon="6.64073">
        <ele>387</ele>
        <time>2015-08-20T13:41:25.000Z</time>
      </trkpt>
      <trkpt lat="47.48616" lon="6.64076">
        <ele>387</ele>
        <time>2015-08-20T13:41:26.000Z</time>
      </trkpt>
      <trkpt lat="47.48615" lon="6.6408">
        <ele>387</ele>
        <time>2015-08-20T13:41:27.000Z</time>
      </trkpt>
      <trkpt lat="47.48615" lon="6.64084">
        <ele>385</ele>
        <time>2015-08-20T13:41:27.999Z</time>
      </trkpt>
      <trkpt lat="47.48615" lon="6.64088">
        <ele>385</ele>
        <time>2015-08-20T13:41:29.000Z</time>
      </trkpt>
      <trkpt lat="47.48614" lon="6.64094">
        <ele>385</ele>
        <time>2015-08-20T13:41:30.000Z</time>
      </trkpt>
      <trkpt lat="47.48614" lon="6.64098">
        <ele>385</ele>
        <time>2015-08-20T13:41:31.000Z</time>
      </trkpt>
      <trkpt lat="47.48612" lon="6.64102">
        <ele>385</ele>
        <time>2015-08-20T13:41:32.000Z</time>
      </trkpt>
      <trkpt lat="47.48611" lon="6.64106">
        <ele>385</ele>
        <time>2015-08-20T13:41:33.000Z</time>
      </trkpt>
      <trkpt lat="47.48611" lon="6.6411">
        <ele>385</ele>
        <time>2015-08-20T13:41:34.000Z</time>
      </trkpt>
      <trkpt lat="47.4861" lon="6.64113">
        <ele>385</ele>
        <time>2015-08-20T13:41:35.001Z</time>
      </trkpt>
      <trkpt lat="47.48611" lon="6.64119">
        <ele>385</ele>
        <time>2015-08-20T13:41:36.000Z</time>
      </trkpt>
      <trkpt lat="47.48611" lon="6.64123">
        <ele>385</ele>
        <time>2015-08-20T13:41:37.000Z</time>
      </trkpt>
      <trkpt lat="47.48613" lon="6.64128">
        <ele>384</ele>
        <time>2015-08-20T13:41:38.000Z</time>
      </trkpt>
      <trkpt lat="47.48613" lon="6.64132">
        <ele>384</ele>
        <time>2015-08-20T13:41:39.000Z</time>
      </trkpt>
      <trkpt lat="47.48611" lon="6.64138">
        <ele>384</ele>
        <time>2015-08-20T13:41:41.000Z</time>
      </trkpt>
      <trkpt lat="47.48608" lon="6.6414">
        <ele>384</ele>
        <time>2015-08-20T13:41:42.000Z</time>
      </trkpt>
      <trkpt lat="47.48606" lon="6.64143">
        <ele>385</ele>
        <time>2015-08-20T13:41:43.000Z</time>
      </trkpt>
      <trkpt lat="47.48603" lon="6.64146">
        <ele>385</ele>
        <time>2015-08-20T13:41:44.000Z</time>
      </trkpt>
      <trkpt lat="47.48601" lon="6.64149">
        <ele>385</ele>
        <time>2015-08-20T13:41:45.000Z</time>
      </trkpt>
      <trkpt lat="47.486" lon="6.64151">
        <ele>385</ele>
        <time>2015-08-20T13:41:46.000Z</time>
      </trkpt>
      <trkpt lat="47.48597" lon="6.64156">
        <ele>385</ele>
        <time>2015-08-20T13:41:48.000Z</time>
      </trkpt>
      <trkpt lat="47.48596" lon="6.64159">
        <ele>385</ele>
        <time>2015-08-20T13:41:49.000Z</time>
      </trkpt>
      <trkpt lat="47.48595" lon="6.64163">
        <ele>386</ele>
        <time>2015-08-20T13:41:50.000Z</time>
      </trkpt>
      <trkpt lat="47.48593" lon="6.64166">
        <ele>386</ele>
        <time>2015-08-20T13:41:51.000Z</time>
      </trkpt>
      <trkpt lat="47.48591" lon="6.64169">
        <ele>386</ele>
        <time>2015-08-20T13:41:52.000Z</time>
      </trkpt>
      <trkpt lat="47.48588" lon="6.64172">
        <ele>386</ele>
        <time>2015-08-20T13:41:53.000Z</time>
      </trkpt>
      <trkpt lat="47.48586" lon="6.64175">
        <ele>386</ele>
        <time>2015-08-20T13:41:54.000Z</time>
      </trkpt>
      <trkpt lat="47.48584" lon="6.64177">
        <ele>385</ele>
        <time>2015-08-20T13:41:55.000Z</time>
      </trkpt>
      <trkpt lat="47.48582" lon="6.64183">
        <ele>387</ele>
        <time>2015-08-20T13:41:57.000Z</time>
      </trkpt>
      <trkpt lat="47.48582" lon="6.64185">
        <ele>386</ele>
        <time>2015-08-20T13:41:58.000Z</time>
      </trkpt>
      <trkpt lat="47.48581" lon="6.64191">
        <ele>386</ele>
        <time>2015-08-20T13:42:00.000Z</time>
      </trkpt>
      <trkpt lat="47.4858" lon="6.64194">
        <ele>386</ele>
        <time>2015-08-20T13:42:01.000Z</time>
      </trkpt>
      <trkpt lat="47.48578" lon="6.64199">
        <ele>386</ele>
        <time>2015-08-20T13:42:03.000Z</time>
      </trkpt>
      <trkpt lat="47.48577" lon="6.64202">
        <ele>386</ele>
        <time>2015-08-20T13:42:04.000Z</time>
      </trkpt>
      <trkpt lat="47.48575" lon="6.64207">
        <ele>386</ele>
        <time>2015-08-20T13:42:06.000Z</time>
      </trkpt>
      <trkpt lat="47.48573" lon="6.6421">
        <ele>386</ele>
        <time>2015-08-20T13:42:07.000Z</time>
      </trkpt>
      <trkpt lat="47.48572" lon="6.64214">
        <ele>386</ele>
        <time>2015-08-20T13:42:08.000Z</time>
      </trkpt>
      <trkpt lat="47.48572" lon="6.64218">
        <ele>386</ele>
        <time>2015-08-20T13:42:09.000Z</time>
      </trkpt>
      <trkpt lat="47.48572" lon="6.64222">
        <ele>386</ele>
        <time>2015-08-20T13:42:10.000Z</time>
      </trkpt>
      <trkpt lat="47.48572" lon="6.64227">
        <ele>386</ele>
        <time>2015-08-20T13:42:11.000Z</time>
      </trkpt>
      <trkpt lat="47.48572" lon="6.64231">
        <ele>386</ele>
        <time>2015-08-20T13:42:12.000Z</time>
      </trkpt>
      <trkpt lat="47.48571" lon="6.64236">
        <ele>386</ele>
        <time>2015-08-20T13:42:13.000Z</time>
      </trkpt>
      <trkpt lat="47.48571" lon="6.6424">
        <ele>385</ele>
        <time>2015-08-20T13:42:14.000Z</time>
      </trkpt>
      <trkpt lat="47.48569" lon="6.64244">
        <ele>385</ele>
        <time>2015-08-20T13:42:15.000Z</time>
      </trkpt>
      <trkpt lat="47.48568" lon="6.64248">
        <ele>385</ele>
        <time>2015-08-20T13:42:16.000Z</time>
      </trkpt>
      <trkpt lat="47.48566" lon="6.64253">
        <ele>386</ele>
        <time>2015-08-20T13:42:17.000Z</time>
      </trkpt>
      <trkpt lat="47.48565" lon="6.64257">
        <ele>386</ele>
        <time>2015-08-20T13:42:18.000Z</time>
      </trkpt>
      <trkpt lat="47.48564" lon="6.64261">
        <ele>386</ele>
        <time>2015-08-20T13:42:19.000Z</time>
      </trkpt>
      <trkpt lat="47.48563" lon="6.64265">
        <ele>386</ele>
        <time>2015-08-20T13:42:20.000Z</time>
      </trkpt>
      <trkpt lat="47.48562" lon="6.6427">
        <ele>386</ele>
        <time>2015-08-20T13:42:21.000Z</time>
      </trkpt>
      <trkpt lat="47.48561" lon="6.64274">
        <ele>386</ele>
        <time>2015-08-20T13:42:22.000Z</time>
      </trkpt>
      <trkpt lat="47.48559" lon="6.64279">
        <ele>386</ele>
        <time>2015-08-20T13:42:23.000Z</time>
      </trkpt>
      <trkpt lat="47.48558" lon="6.64283">
        <ele>387</ele>
        <time>2015-08-20T13:42:24.000Z</time>
      </trkpt>
      <trkpt lat="47.48556" lon="6.64288">
        <ele>387</ele>
        <time>2015-08-20T13:42:25.000Z</time>
      </trkpt>
      <trkpt lat="47.48553" lon="6.64294">
        <ele>387</ele>
        <time>2015-08-20T13:42:26.000Z</time>
      </trkpt>
      <trkpt lat="47.48551" lon="6.64299">
        <ele>387</ele>
        <time>2015-08-20T13:42:27.000Z</time>
      </trkpt>
      <trkpt lat="47.48548" lon="6.64303">
        <ele>387</ele>
        <time>2015-08-20T13:42:28.000Z</time>
      </trkpt>
      <trkpt lat="47.48546" lon="6.64307">
        <ele>387</ele>
        <time>2015-08-20T13:42:29.000Z</time>
      </trkpt>
      <trkpt lat="47.48544" lon="6.64311">
        <ele>387</ele>
        <time>2015-08-20T13:42:30.000Z</time>
      </trkpt>
      <trkpt lat="47.48542" lon="6.64314">
        <ele>387</ele>
        <time>2015-08-20T13:42:31.000Z</time>
      </trkpt>
      <trkpt lat="47.4854" lon="6.64317">
        <ele>388</ele>
        <time>2015-08-20T13:42:31.999Z</time>
      </trkpt>
      <trkpt lat="47.48539" lon="6.64322">
        <ele>388</ele>
        <time>2015-08-20T13:42:35.000Z</time>
      </trkpt>
      <trkpt lat="47.48538" lon="6.64324">
        <ele>388</ele>
        <time>2015-08-20T13:42:36.000Z</time>
      </trkpt>
      <trkpt lat="47.48537" lon="6.6433">
        <ele>388</ele>
        <time>2015-08-20T13:42:40.000Z</time>
      </trkpt>
      <trkpt lat="47.48536" lon="6.64331">
        <ele>388</ele>
        <time>2015-08-20T13:42:41.000Z</time>
      </trkpt>
      <trkpt lat="47.48534" lon="6.64336">
        <ele>393</ele>
        <time>2015-08-20T13:42:43.000Z</time>
      </trkpt>
      <trkpt lat="47.48533" lon="6.64338">
        <ele>393</ele>
        <time>2015-08-20T13:42:44.000Z</time>
      </trkpt>
      <trkpt lat="47.48532" lon="6.6434">
        <ele>393</ele>
        <time>2015-08-20T13:42:44.999Z</time>
      </trkpt>
      <trkpt lat="47.48531" lon="6.64344">
        <ele>393</ele>
        <time>2015-08-20T13:42:46.000Z</time>
      </trkpt>
      <trkpt lat="47.4853" lon="6.64348">
        <ele>393</ele>
        <time>2015-08-20T13:42:47.000Z</time>
      </trkpt>
      <trkpt lat="47.48529" lon="6.64351">
        <ele>393</ele>
        <time>2015-08-20T13:42:48.000Z</time>
      </trkpt>
      <trkpt lat="47.48527" lon="6.64354">
        <ele>393</ele>
        <time>2015-08-20T13:42:49.000Z</time>
      </trkpt>
      <trkpt lat="47.48526" lon="6.64357">
        <ele>394</ele>
        <time>2015-08-20T13:42:50.000Z</time>
      </trkpt>
      <trkpt lat="47.48525" lon="6.64361">
        <ele>394</ele>
        <time>2015-08-20T13:42:51.000Z</time>
      </trkpt>
      <trkpt lat="47.48524" lon="6.64364">
        <ele>394</ele>
        <time>2015-08-20T13:42:52.002Z</time>
      </trkpt>
      <trkpt lat="47.48523" lon="6.6437">
        <ele>394</ele>
        <time>2015-08-20T13:42:55.000Z</time>
      </trkpt>
      <trkpt lat="47.48523" lon="6.64371">
        <ele>395</ele>
        <time>2015-08-20T13:42:56.000Z</time>
      </trkpt>
      <trkpt lat="47.48522" lon="6.64377">
        <ele>395</ele>
        <time>2015-08-20T13:42:59.000Z</time>
      </trkpt>
      <trkpt lat="47.48521" lon="6.64379">
        <ele>395</ele>
        <time>2015-08-20T13:43:00.000Z</time>
      </trkpt>
      <trkpt lat="47.48519" lon="6.64384">
        <ele>396</ele>
        <time>2015-08-20T13:43:03.000Z</time>
      </trkpt>
      <trkpt lat="47.48518" lon="6.64385">
        <ele>396</ele>
        <time>2015-08-20T13:43:04.000Z</time>
      </trkpt>
      <trkpt lat="47.48517" lon="6.64389">
        <ele>396</ele>
        <time>2015-08-20T13:43:07.000Z</time>
      </trkpt>
      <trkpt lat="47.48516" lon="6.64392">
        <ele>397</ele>
        <time>2015-08-20T13:43:08.000Z</time>
      </trkpt>
      <trkpt lat="47.48514" lon="6.64397">
        <ele>397</ele>
        <time>2015-08-20T13:43:11.000Z</time>
      </trkpt>
      <trkpt lat="47.48513" lon="6.64398">
        <ele>397</ele>
        <time>2015-08-20T13:43:12.000Z</time>
      </trkpt>
      <trkpt lat="47.48509" lon="6.64399">
        <ele>398</ele>
        <time>2015-08-20T13:43:15.000Z</time>
      </trkpt>
      <trkpt lat="47.48509" lon="6.64402">
        <ele>398</ele>
        <time>2015-08-20T13:43:16.000Z</time>
      </trkpt>
      <trkpt lat="47.48508" lon="6.64409">
        <ele>399</ele>
        <time>2015-08-20T13:43:18.000Z</time>
      </trkpt>
      <trkpt lat="47.48507" lon="6.64413">
        <ele>400</ele>
        <time>2015-08-20T13:43:19.000Z</time>
      </trkpt>
      <trkpt lat="47.48507" lon="6.64416">
        <ele>400</ele>
        <time>2015-08-20T13:43:20.000Z</time>
      </trkpt>
      <trkpt lat="47.48507" lon="6.64419">
        <ele>403</ele>
        <time>2015-08-20T13:43:21.000Z</time>
      </trkpt>
      <trkpt lat="47.48508" lon="6.64426">
        <ele>404</ele>
        <time>2015-08-20T13:43:24.001Z</time>
      </trkpt>
      <trkpt lat="47.48508" lon="6.64429">
        <ele>404</ele>
        <time>2015-08-20T13:43:25.000Z</time>
      </trkpt>
      <trkpt lat="47.48508" lon="6.64434">
        <ele>405</ele>
        <time>2015-08-20T13:43:27.001Z</time>
      </trkpt>
      <trkpt lat="47.48508" lon="6.64438">
        <ele>405</ele>
        <time>2015-08-20T13:43:28.000Z</time>
      </trkpt>
      <trkpt lat="47.48508" lon="6.64443">
        <ele>405</ele>
        <time>2015-08-20T13:43:30.000Z</time>
      </trkpt>
      <trkpt lat="47.48508" lon="6.64445">
        <ele>406</ele>
        <time>2015-08-20T13:43:31.000Z</time>
      </trkpt>
      <trkpt lat="47.48504" lon="6.64446">
        <ele>406</ele>
        <time>2015-08-20T13:43:34.000Z</time>
      </trkpt>
      <trkpt lat="47.48503" lon="6.64447">
        <ele>406</ele>
        <time>2015-08-20T13:43:35.000Z</time>
      </trkpt>
      <trkpt lat="47.485" lon="6.64449">
        <ele>407</ele>
        <time>2015-08-20T13:43:37.000Z</time>
      </trkpt>
      <trkpt lat="47.48499" lon="6.64449">
        <ele>407</ele>
        <time>2015-08-20T13:43:38.000Z</time>
      </trkpt>
      <trkpt lat="47.48496" lon="6.64451">
        <ele>408</ele>
        <time>2015-08-20T13:43:40.000Z</time>
      </trkpt>
      <trkpt lat="47.48495" lon="6.64452">
        <ele>408</ele>
        <time>2015-08-20T13:43:40.999Z</time>
      </trkpt>
      <trkpt lat="47.48492" lon="6.64451">
        <ele>408</ele>
        <time>2015-08-20T13:43:45.000Z</time>
      </trkpt>
      <trkpt lat="47.4849" lon="6.64452">
        <ele>408</ele>
        <time>2015-08-20T13:43:46.000Z</time>
      </trkpt>
      <trkpt lat="47.48488" lon="6.64452">
        <ele>408</ele>
        <time>2015-08-20T13:43:47.000Z</time>
      </trkpt>
      <trkpt lat="47.48485" lon="6.64452">
        <ele>408</ele>
        <time>2015-08-20T13:43:48.000Z</time>
      </trkpt>
      <trkpt lat="47.48481" lon="6.64454">
        <ele>408</ele>
        <time>2015-08-20T13:43:50.000Z</time>
      </trkpt>
      <trkpt lat="47.48479" lon="6.64455">
        <ele>408</ele>
        <time>2015-08-20T13:43:51.000Z</time>
      </trkpt>
      <trkpt lat="47.48477" lon="6.64456">
        <ele>408</ele>
        <time>2015-08-20T13:43:52.000Z</time>
      </trkpt>
      <trkpt lat="47.48474" lon="6.64457">
        <ele>408</ele>
        <time>2015-08-20T13:43:53.000Z</time>
      </trkpt>
      <trkpt lat="47.48472" lon="6.64457">
        <ele>408</ele>
        <time>2015-08-20T13:43:54.000Z</time>
      </trkpt>
      <trkpt lat="47.48469" lon="6.64458">
        <ele>408</ele>
        <time>2015-08-20T13:43:55.000Z</time>
      </trkpt>
      <trkpt lat="47.48466" lon="6.64458">
        <ele>408</ele>
        <time>2015-08-20T13:43:56.000Z</time>
      </trkpt>
      <trkpt lat="47.48464" lon="6.64458">
        <ele>408</ele>
        <time>2015-08-20T13:43:57.000Z</time>
      </trkpt>
      <trkpt lat="47.48461" lon="6.64459">
        <ele>409</ele>
        <time>2015-08-20T13:43:58.000Z</time>
      </trkpt>
      <trkpt lat="47.48457" lon="6.64459">
        <ele>409</ele>
        <time>2015-08-20T13:43:59.000Z</time>
      </trkpt>
      <trkpt lat="47.48454" lon="6.6446">
        <ele>409</ele>
        <time>2015-08-20T13:44:00.000Z</time>
      </trkpt>
      <trkpt lat="47.4845" lon="6.6446">
        <ele>409</ele>
        <time>2015-08-20T13:44:01.000Z</time>
      </trkpt>
      <trkpt lat="47.48446" lon="6.6446">
        <ele>409</ele>
        <time>2015-08-20T13:44:02.000Z</time>
      </trkpt>
      <trkpt lat="47.48441" lon="6.6446">
        <ele>409</ele>
        <time>2015-08-20T13:44:03.000Z</time>
      </trkpt>
      <trkpt lat="47.48436" lon="6.6446">
        <ele>409</ele>
        <time>2015-08-20T13:44:04.000Z</time>
      </trkpt>
      <trkpt lat="47.48431" lon="6.64459">
        <ele>409</ele>
        <time>2015-08-20T13:44:05.000Z</time>
      </trkpt>
      <trkpt lat="47.48425" lon="6.64459">
        <ele>409</ele>
        <time>2015-08-20T13:44:06.000Z</time>
      </trkpt>
      <trkpt lat="47.48419" lon="6.64458">
        <ele>409</ele>
        <time>2015-08-20T13:44:07.000Z</time>
      </trkpt>
      <trkpt lat="47.48402" lon="6.64453">
        <ele>407</ele>
        <time>2015-08-20T13:44:08.000Z</time>
      </trkpt>
      <trkpt lat="47.48396" lon="6.64449">
        <ele>406</ele>
        <time>2015-08-20T13:44:09.000Z</time>
      </trkpt>
      <trkpt lat="47.48392" lon="6.64453">
        <ele>407</ele>
        <time>2015-08-20T13:44:10.000Z</time>
      </trkpt>
      <trkpt lat="47.48387" lon="6.64451">
        <ele>406</ele>
        <time>2015-08-20T13:44:11.000Z</time>
      </trkpt>
      <trkpt lat="47.48382" lon="6.6445">
        <ele>406</ele>
        <time>2015-08-20T13:44:12.000Z</time>
      </trkpt>
      <trkpt lat="47.48378" lon="6.6445">
        <ele>406</ele>
        <time>2015-08-20T13:44:13.001Z</time>
      </trkpt>
      <trkpt lat="47.48371" lon="6.64449">
        <ele>406</ele>
        <time>2015-08-20T13:44:14.000Z</time>
      </trkpt>
      <trkpt lat="47.48364" lon="6.64448">
        <ele>406</ele>
        <time>2015-08-20T13:44:15.000Z</time>
      </trkpt>
      <trkpt lat="47.48355" lon="6.64447">
        <ele>405</ele>
        <time>2015-08-20T13:44:16.000Z</time>
      </trkpt>
      <trkpt lat="47.48351" lon="6.64447">
        <ele>405</ele>
        <time>2015-08-20T13:44:17.000Z</time>
      </trkpt>
      <trkpt lat="47.48343" lon="6.64447">
        <ele>405</ele>
        <time>2015-08-20T13:44:18.000Z</time>
      </trkpt>
      <trkpt lat="47.48338" lon="6.64446">
        <ele>404</ele>
        <time>2015-08-20T13:44:19.001Z</time>
      </trkpt>
      <trkpt lat="47.48333" lon="6.64442">
        <ele>401</ele>
        <time>2015-08-20T13:44:20.000Z</time>
      </trkpt>
      <trkpt lat="47.48329" lon="6.64441">
        <ele>401</ele>
        <time>2015-08-20T13:44:20.999Z</time>
      </trkpt>
      <trkpt lat="47.48318" lon="6.64441">
        <ele>401</ele>
        <time>2015-08-20T13:44:22.000Z</time>
      </trkpt>
      <trkpt lat="47.48312" lon="6.64439">
        <ele>401</ele>
        <time>2015-08-20T13:44:23.000Z</time>
      </trkpt>
      <trkpt lat="47.48309" lon="6.64437">
        <ele>401</ele>
        <time>2015-08-20T13:44:24.000Z</time>
      </trkpt>
      <trkpt lat="47.48305" lon="6.64437">
        <ele>400</ele>
        <time>2015-08-20T13:44:25.000Z</time>
      </trkpt>
      <trkpt lat="47.48304" lon="6.64437">
        <ele>400</ele>
        <time>2015-08-20T13:44:26.000Z</time>
      </trkpt>
      <trkpt lat="47.483" lon="6.64437">
        <ele>400</ele>
        <time>2015-08-20T13:44:27.000Z</time>
      </trkpt>
      <trkpt lat="47.48297" lon="6.64436">
        <ele>400</ele>
        <time>2015-08-20T13:44:28.000Z</time>
      </trkpt>
      <trkpt lat="47.48293" lon="6.64434">
        <ele>400</ele>
        <time>2015-08-20T13:44:29.000Z</time>
      </trkpt>
      <trkpt lat="47.48286" lon="6.64432">
        <ele>399</ele>
        <time>2015-08-20T13:44:30.000Z</time>
      </trkpt>
      <trkpt lat="47.4828" lon="6.64431">
        <ele>399</ele>
        <time>2015-08-20T13:44:31.000Z</time>
      </trkpt>
      <trkpt lat="47.48276" lon="6.6443">
        <ele>399</ele>
        <time>2015-08-20T13:44:32.000Z</time>
      </trkpt>
      <trkpt lat="47.48272" lon="6.64429">
        <ele>398</ele>
        <time>2015-08-20T13:44:33.000Z</time>
      </trkpt>
      <trkpt lat="47.48268" lon="6.64427">
        <ele>397</ele>
        <time>2015-08-20T13:44:34.000Z</time>
      </trkpt>
      <trkpt lat="47.48264" lon="6.64426">
        <ele>397</ele>
        <time>2015-08-20T13:44:35.000Z</time>
      </trkpt>
      <trkpt lat="47.48261" lon="6.64424">
        <ele>396</ele>
        <time>2015-08-20T13:44:36.000Z</time>
      </trkpt>
      <trkpt lat="47.48257" lon="6.64422">
        <ele>395</ele>
        <time>2015-08-20T13:44:37.000Z</time>
      </trkpt>
      <trkpt lat="47.48253" lon="6.64421">
        <ele>394</ele>
        <time>2015-08-20T13:44:38.000Z</time>
      </trkpt>
      <trkpt lat="47.4825" lon="6.64419">
        <ele>393</ele>
        <time>2015-08-20T13:44:39.000Z</time>
      </trkpt>
      <trkpt lat="47.48246" lon="6.64418">
        <ele>393</ele>
        <time>2015-08-20T13:44:40.000Z</time>
      </trkpt>
      <trkpt lat="47.48241" lon="6.64416">
        <ele>391</ele>
        <time>2015-08-20T13:44:41.000Z</time>
      </trkpt>
      <trkpt lat="47.48225" lon="6.64415">
        <ele>390</ele>
        <time>2015-08-20T13:44:42.000Z</time>
      </trkpt>
      <trkpt lat="47.48219" lon="6.64414">
        <ele>390</ele>
        <time>2015-08-20T13:44:43.000Z</time>
      </trkpt>
      <trkpt lat="47.48213" lon="6.64412">
        <ele>390</ele>
        <time>2015-08-20T13:44:44.000Z</time>
      </trkpt>
      <trkpt lat="47.4821" lon="6.64412">
        <ele>390</ele>
        <time>2015-08-20T13:44:46.000Z</time>
      </trkpt>
      <trkpt lat="47.48208" lon="6.64412">
        <ele>390</ele>
        <time>2015-08-20T13:44:47.000Z</time>
      </trkpt>
      <trkpt lat="47.48206" lon="6.64411">
        <ele>390</ele>
        <time>2015-08-20T13:44:48.000Z</time>
      </trkpt>
      <trkpt lat="47.48202" lon="6.64408">
        <ele>391</ele>
        <time>2015-08-20T13:44:49.000Z</time>
      </trkpt>
      <trkpt lat="47.48198" lon="6.64406">
        <ele>391</ele>
        <time>2015-08-20T13:44:50.000Z</time>
      </trkpt>
      <trkpt lat="47.48194" lon="6.64405">
        <ele>391</ele>
        <time>2015-08-20T13:44:51.000Z</time>
      </trkpt>
      <trkpt lat="47.4819" lon="6.64404">
        <ele>391</ele>
        <time>2015-08-20T13:44:52.000Z</time>
      </trkpt>
      <trkpt lat="47.48184" lon="6.64404">
        <ele>391</ele>
        <time>2015-08-20T13:44:53.000Z</time>
      </trkpt>
      <trkpt lat="47.4818" lon="6.64403">
        <ele>392</ele>
        <time>2015-08-20T13:44:54.000Z</time>
      </trkpt>
      <trkpt lat="47.48176" lon="6.64402">
        <ele>392</ele>
        <time>2015-08-20T13:44:55.000Z</time>
      </trkpt>
      <trkpt lat="47.48171" lon="6.64401">
        <ele>392</ele>
        <time>2015-08-20T13:44:56.000Z</time>
      </trkpt>
      <trkpt lat="47.48167" lon="6.644">
        <ele>392</ele>
        <time>2015-08-20T13:44:57.000Z</time>
      </trkpt>
      <trkpt lat="47.48163" lon="6.64398">
        <ele>391</ele>
        <time>2015-08-20T13:44:58.000Z</time>
      </trkpt>
      <trkpt lat="47.48159" lon="6.64397">
        <ele>391</ele>
        <time>2015-08-20T13:44:59.000Z</time>
      </trkpt>
      <trkpt lat="47.48156" lon="6.64396">
        <ele>391</ele>
        <time>2015-08-20T13:45:00.000Z</time>
      </trkpt>
      <trkpt lat="47.48153" lon="6.64396">
        <ele>391</ele>
        <time>2015-08-20T13:45:01.000Z</time>
      </trkpt>
      <trkpt lat="47.4815" lon="6.64396">
        <ele>391</ele>
        <time>2015-08-20T13:45:02.000Z</time>
      </trkpt>
      <trkpt lat="47.48147" lon="6.64397">
        <ele>391</ele>
        <time>2015-08-20T13:45:03.000Z</time>
      </trkpt>
      <trkpt lat="47.48144" lon="6.64399">
        <ele>391</ele>
        <time>2015-08-20T13:45:04.000Z</time>
      </trkpt>
      <trkpt lat="47.48141" lon="6.644">
        <ele>391</ele>
        <time>2015-08-20T13:45:05.000Z</time>
      </trkpt>
      <trkpt lat="47.48137" lon="6.644">
        <ele>390</ele>
        <time>2015-08-20T13:45:06.000Z</time>
      </trkpt>
      <trkpt lat="47.48133" lon="6.64401">
        <ele>390</ele>
        <time>2015-08-20T13:45:07.000Z</time>
      </trkpt>
      <trkpt lat="47.48129" lon="6.644">
        <ele>390</ele>
        <time>2015-08-20T13:45:08.000Z</time>
      </trkpt>
      <trkpt lat="47.48126" lon="6.644">
        <ele>390</ele>
        <time>2015-08-20T13:45:09.000Z</time>
      </trkpt>
      <trkpt lat="47.48122" lon="6.64399">
        <ele>390</ele>
        <time>2015-08-20T13:45:10.000Z</time>
      </trkpt>
      <trkpt lat="47.48118" lon="6.64399">
        <ele>390</ele>
        <time>2015-08-20T13:45:11.000Z</time>
      </trkpt>
      <trkpt lat="47.48115" lon="6.64399">
        <ele>390</ele>
        <time>2015-08-20T13:45:12.000Z</time>
      </trkpt>
      <trkpt lat="47.48112" lon="6.64399">
        <ele>390</ele>
        <time>2015-08-20T13:45:13.000Z</time>
      </trkpt>
      <trkpt lat="47.48109" lon="6.64399">
        <ele>390</ele>
        <time>2015-08-20T13:45:14.000Z</time>
      </trkpt>
      <trkpt lat="47.48106" lon="6.64398">
        <ele>390</ele>
        <time>2015-08-20T13:45:15.000Z</time>
      </trkpt>
      <trkpt lat="47.48103" lon="6.64397">
        <ele>390</ele>
        <time>2015-08-20T13:45:16.000Z</time>
      </trkpt>
      <trkpt lat="47.481" lon="6.64397">
        <ele>390</ele>
        <time>2015-08-20T13:45:17.000Z</time>
      </trkpt>
      <trkpt lat="47.48096" lon="6.64396">
        <ele>390</ele>
        <time>2015-08-20T13:45:18.000Z</time>
      </trkpt>
      <trkpt lat="47.48093" lon="6.64396">
        <ele>391</ele>
        <time>2015-08-20T13:45:19.000Z</time>
      </trkpt>
      <trkpt lat="47.4809" lon="6.64396">
        <ele>391</ele>
        <time>2015-08-20T13:45:20.000Z</time>
      </trkpt>
      <trkpt lat="47.48087" lon="6.64396">
        <ele>391</ele>
        <time>2015-08-20T13:45:21.000Z</time>
      </trkpt>
      <trkpt lat="47.48084" lon="6.64396">
        <ele>391</ele>
        <time>2015-08-20T13:45:22.000Z</time>
      </trkpt>
      <trkpt lat="47.48081" lon="6.64396">
        <ele>391</ele>
        <time>2015-08-20T13:45:23.000Z</time>
      </trkpt>
      <trkpt lat="47.48078" lon="6.64396">
        <ele>391</ele>
        <time>2015-08-20T13:45:24.000Z</time>
      </trkpt>
      <trkpt lat="47.48074" lon="6.64397">
        <ele>391</ele>
        <time>2015-08-20T13:45:25.000Z</time>
      </trkpt>
      <trkpt lat="47.48071" lon="6.64397">
        <ele>391</ele>
        <time>2015-08-20T13:45:26.000Z</time>
      </trkpt>
      <trkpt lat="47.48067" lon="6.64397">
        <ele>391</ele>
        <time>2015-08-20T13:45:27.000Z</time>
      </trkpt>
      <trkpt lat="47.48064" lon="6.64397">
        <ele>390</ele>
        <time>2015-08-20T13:45:28.000Z</time>
      </trkpt>
      <trkpt lat="47.48061" lon="6.64397">
        <ele>390</ele>
        <time>2015-08-20T13:45:29.000Z</time>
      </trkpt>
      <trkpt lat="47.48057" lon="6.64398">
        <ele>390</ele>
        <time>2015-08-20T13:45:30.000Z</time>
      </trkpt>
      <trkpt lat="47.48054" lon="6.64398">
        <ele>390</ele>
        <time>2015-08-20T13:45:31.000Z</time>
      </trkpt>
      <trkpt lat="47.48049" lon="6.64399">
        <ele>390</ele>
        <time>2015-08-20T13:45:32.000Z</time>
      </trkpt>
      <trkpt lat="47.48045" lon="6.644">
        <ele>390</ele>
        <time>2015-08-20T13:45:33.000Z</time>
      </trkpt>
      <trkpt lat="47.48041" lon="6.64401">
        <ele>391</ele>
        <time>2015-08-20T13:45:34.000Z</time>
      </trkpt>
      <trkpt lat="47.48036" lon="6.64401">
        <ele>391</ele>
        <time>2015-08-20T13:45:35.000Z</time>
      </trkpt>
      <trkpt lat="47.48031" lon="6.64402">
        <ele>391</ele>
        <time>2015-08-20T13:45:36.000Z</time>
      </trkpt>
      <trkpt lat="47.48027" lon="6.64403">
        <ele>391</ele>
        <time>2015-08-20T13:45:37.000Z</time>
      </trkpt>
      <trkpt lat="47.48023" lon="6.64403">
        <ele>391</ele>
        <time>2015-08-20T13:45:38.000Z</time>
      </trkpt>
      <trkpt lat="47.48019" lon="6.64404">
        <ele>392</ele>
        <time>2015-08-20T13:45:39.000Z</time>
      </trkpt>
      <trkpt lat="47.48016" lon="6.64404">
        <ele>392</ele>
        <time>2015-08-20T13:45:40.000Z</time>
      </trkpt>
      <trkpt lat="47.48012" lon="6.64404">
        <ele>392</ele>
        <time>2015-08-20T13:45:41.000Z</time>
      </trkpt>
      <trkpt lat="47.48008" lon="6.64403">
        <ele>392</ele>
        <time>2015-08-20T13:45:42.000Z</time>
      </trkpt>
      <trkpt lat="47.48004" lon="6.64402">
        <ele>393</ele>
        <time>2015-08-20T13:45:43.000Z</time>
      </trkpt>
      <trkpt lat="47.48" lon="6.64402">
        <ele>394</ele>
        <time>2015-08-20T13:45:44.000Z</time>
      </trkpt>
      <trkpt lat="47.47996" lon="6.64402">
        <ele>394</ele>
        <time>2015-08-20T13:45:45.000Z</time>
      </trkpt>
      <trkpt lat="47.47992" lon="6.64402">
        <ele>393</ele>
        <time>2015-08-20T13:45:46.000Z</time>
      </trkpt>
      <trkpt lat="47.47987" lon="6.64403">
        <ele>393</ele>
        <time>2015-08-20T13:45:47.000Z</time>
      </trkpt>
      <trkpt lat="47.47983" lon="6.64403">
        <ele>393</ele>
        <time>2015-08-20T13:45:48.000Z</time>
      </trkpt>
      <trkpt lat="47.47979" lon="6.64403">
        <ele>393</ele>
        <time>2015-08-20T13:45:49.000Z</time>
      </trkpt>
      <trkpt lat="47.47975" lon="6.64404">
        <ele>393</ele>
        <time>2015-08-20T13:45:50.000Z</time>
      </trkpt>
      <trkpt lat="47.47971" lon="6.64404">
        <ele>393</ele>
        <time>2015-08-20T13:45:51.000Z</time>
      </trkpt>
      <trkpt lat="47.47966" lon="6.64405">
        <ele>393</ele>
        <time>2015-08-20T13:45:52.000Z</time>
      </trkpt>
      <trkpt lat="47.47962" lon="6.64406">
        <ele>393</ele>
        <time>2015-08-20T13:45:53.000Z</time>
      </trkpt>
      <trkpt lat="47.47957" lon="6.64407">
        <ele>393</ele>
        <time>2015-08-20T13:45:54.000Z</time>
      </trkpt>
      <trkpt lat="47.47952" lon="6.6441">
        <ele>393</ele>
        <time>2015-08-20T13:45:55.000Z</time>
      </trkpt>
      <trkpt lat="47.47948" lon="6.64413">
        <ele>393</ele>
        <time>2015-08-20T13:45:56.000Z</time>
      </trkpt>
      <trkpt lat="47.47944" lon="6.64418">
        <ele>400</ele>
        <time>2015-08-20T13:45:57.000Z</time>
      </trkpt>
      <trkpt lat="47.4794" lon="6.64422">
        <ele>400</ele>
        <time>2015-08-20T13:45:58.000Z</time>
      </trkpt>
      <trkpt lat="47.47937" lon="6.64427">
        <ele>400</ele>
        <time>2015-08-20T13:45:59.000Z</time>
      </trkpt>
      <trkpt lat="47.47935" lon="6.64431">
        <ele>400</ele>
        <time>2015-08-20T13:46:00.000Z</time>
      </trkpt>
      <trkpt lat="47.47932" lon="6.64436">
        <ele>400</ele>
        <time>2015-08-20T13:46:01.000Z</time>
      </trkpt>
      <trkpt lat="47.4793" lon="6.6444">
        <ele>401</ele>
        <time>2015-08-20T13:46:02.000Z</time>
      </trkpt>
      <trkpt lat="47.47928" lon="6.64444">
        <ele>401</ele>
        <time>2015-08-20T13:46:03.000Z</time>
      </trkpt>
      <trkpt lat="47.47925" lon="6.64447">
        <ele>401</ele>
        <time>2015-08-20T13:46:04.000Z</time>
      </trkpt>
      <trkpt lat="47.47923" lon="6.6445">
        <ele>401</ele>
        <time>2015-08-20T13:46:05.000Z</time>
      </trkpt>
      <trkpt lat="47.47921" lon="6.64453">
        <ele>402</ele>
        <time>2015-08-20T13:46:06.000Z</time>
      </trkpt>
      <trkpt lat="47.47919" lon="6.64454">
        <ele>402</ele>
        <time>2015-08-20T13:46:07.000Z</time>
      </trkpt>
      <trkpt lat="47.47917" lon="6.64449">
        <ele>401</ele>
        <time>2015-08-20T13:46:11.000Z</time>
      </trkpt>
      <trkpt lat="47.47917" lon="6.64446">
        <ele>401</ele>
        <time>2015-08-20T13:46:12.000Z</time>
      </trkpt>
      <trkpt lat="47.47917" lon="6.64442">
        <ele>401</ele>
        <time>2015-08-20T13:46:13.000Z</time>
      </trkpt>
      <trkpt lat="47.47917" lon="6.64439">
        <ele>400</ele>
        <time>2015-08-20T13:46:14.000Z</time>
      </trkpt>
      <trkpt lat="47.47916" lon="6.64435">
        <ele>402</ele>
        <time>2015-08-20T13:46:15.000Z</time>
      </trkpt>
      <trkpt lat="47.47915" lon="6.64432">
        <ele>401</ele>
        <time>2015-08-20T13:46:16.000Z</time>
      </trkpt>
      <trkpt lat="47.47914" lon="6.64428">
        <ele>401</ele>
        <time>2015-08-20T13:46:17.000Z</time>
      </trkpt>
      <trkpt lat="47.47913" lon="6.64424">
        <ele>400</ele>
        <time>2015-08-20T13:46:18.000Z</time>
      </trkpt>
      <trkpt lat="47.47911" lon="6.64421">
        <ele>400</ele>
        <time>2015-08-20T13:46:19.000Z</time>
      </trkpt>
      <trkpt lat="47.47908" lon="6.64419">
        <ele>400</ele>
        <time>2015-08-20T13:46:20.000Z</time>
      </trkpt>
      <trkpt lat="47.47905" lon="6.64417">
        <ele>401</ele>
        <time>2015-08-20T13:46:21.000Z</time>
      </trkpt>
      <trkpt lat="47.47902" lon="6.64415">
        <ele>398</ele>
        <time>2015-08-20T13:46:22.000Z</time>
      </trkpt>
      <trkpt lat="47.47899" lon="6.64414">
        <ele>398</ele>
        <time>2015-08-20T13:46:23.001Z</time>
      </trkpt>
      <trkpt lat="47.47897" lon="6.64412">
        <ele>398</ele>
        <time>2015-08-20T13:46:24.000Z</time>
      </trkpt>
      <trkpt lat="47.47894" lon="6.6441">
        <ele>398</ele>
        <time>2015-08-20T13:46:25.000Z</time>
      </trkpt>
      <trkpt lat="47.47891" lon="6.64408">
        <ele>398</ele>
        <time>2015-08-20T13:46:26.000Z</time>
      </trkpt>
      <trkpt lat="47.47888" lon="6.64406">
        <ele>398</ele>
        <time>2015-08-20T13:46:27.000Z</time>
      </trkpt>
      <trkpt lat="47.47886" lon="6.64404">
        <ele>398</ele>
        <time>2015-08-20T13:46:28.000Z</time>
      </trkpt>
      <trkpt lat="47.47884" lon="6.64402">
        <ele>398</ele>
        <time>2015-08-20T13:46:29.000Z</time>
      </trkpt>
      <trkpt lat="47.47882" lon="6.644">
        <ele>399</ele>
        <time>2015-08-20T13:46:30.000Z</time>
      </trkpt>
      <trkpt lat="47.4788" lon="6.64398">
        <ele>399</ele>
        <time>2015-08-20T13:46:31.000Z</time>
      </trkpt>
      <trkpt lat="47.47878" lon="6.64396">
        <ele>399</ele>
        <time>2015-08-20T13:46:32.000Z</time>
      </trkpt>
      <trkpt lat="47.47874" lon="6.64394">
        <ele>399</ele>
        <time>2015-08-20T13:46:34.000Z</time>
      </trkpt>
      <trkpt lat="47.47872" lon="6.64393">
        <ele>399</ele>
        <time>2015-08-20T13:46:35.000Z</time>
      </trkpt>
      <trkpt lat="47.47868" lon="6.64391">
        <ele>399</ele>
        <time>2015-08-20T13:46:38.000Z</time>
      </trkpt>
      <trkpt lat="47.47867" lon="6.64389">
        <ele>399</ele>
        <time>2015-08-20T13:46:39.000Z</time>
      </trkpt>
      <trkpt lat="47.47863" lon="6.64388">
        <ele>399</ele>
        <time>2015-08-20T13:46:41.000Z</time>
      </trkpt>
      <trkpt lat="47.47862" lon="6.64387">
        <ele>400</ele>
        <time>2015-08-20T13:46:42.000Z</time>
      </trkpt>
      <trkpt lat="47.47858" lon="6.64384">
        <ele>400</ele>
        <time>2015-08-20T13:46:47.000Z</time>
      </trkpt>
      <trkpt lat="47.47856" lon="6.64382">
        <ele>400</ele>
        <time>2015-08-20T13:46:48.000Z</time>
      </trkpt>
      <trkpt lat="47.47853" lon="6.6438">
        <ele>400</ele>
        <time>2015-08-20T13:46:49.000Z</time>
      </trkpt>
      <trkpt lat="47.47851" lon="6.64379">
        <ele>400</ele>
        <time>2015-08-20T13:46:50.000Z</time>
      </trkpt>
      <trkpt lat="47.47848" lon="6.64375">
        <ele>400</ele>
        <time>2015-08-20T13:46:52.000Z</time>
      </trkpt>
      <trkpt lat="47.47848" lon="6.64374">
        <ele>400</ele>
        <time>2015-08-20T13:46:53.000Z</time>
      </trkpt>
      <trkpt lat="47.47844" lon="6.64369">
        <ele>399</ele>
        <time>2015-08-20T13:46:57.000Z</time>
      </trkpt>
      <trkpt lat="47.47843" lon="6.64368">
        <ele>399</ele>
        <time>2015-08-20T13:46:58.000Z</time>
      </trkpt>
      <trkpt lat="47.4784" lon="6.64364">
        <ele>399</ele>
        <time>2015-08-20T13:47:01.000Z</time>
      </trkpt>
      <trkpt lat="47.47839" lon="6.64363">
        <ele>399</ele>
        <time>2015-08-20T13:47:02.000Z</time>
      </trkpt>
      <trkpt lat="47.47836" lon="6.6436">
        <ele>399</ele>
        <time>2015-08-20T13:47:05.000Z</time>
      </trkpt>
      <trkpt lat="47.47835" lon="6.64359">
        <ele>399</ele>
        <time>2015-08-20T13:47:06.000Z</time>
      </trkpt>
      <trkpt lat="47.47831" lon="6.64355">
        <ele>404</ele>
        <time>2015-08-20T13:47:09.000Z</time>
      </trkpt>
      <trkpt lat="47.4783" lon="6.64354">
        <ele>403</ele>
        <time>2015-08-20T13:47:10.000Z</time>
      </trkpt>
      <trkpt lat="47.47827" lon="6.64353">
        <ele>403</ele>
        <time>2015-08-20T13:47:12.000Z</time>
      </trkpt>
      <trkpt lat="47.47825" lon="6.64352">
        <ele>403</ele>
        <time>2015-08-20T13:47:13.000Z</time>
      </trkpt>
      <trkpt lat="47.47822" lon="6.64351">
        <ele>403</ele>
        <time>2015-08-20T13:47:15.000Z</time>
      </trkpt>
      <trkpt lat="47.47821" lon="6.6435">
        <ele>404</ele>
        <time>2015-08-20T13:47:16.000Z</time>
      </trkpt>
      <trkpt lat="47.47819" lon="6.6435">
        <ele>404</ele>
        <time>2015-08-20T13:47:17.000Z</time>
      </trkpt>
      <trkpt lat="47.47816" lon="6.6435">
        <ele>404</ele>
        <time>2015-08-20T13:47:18.000Z</time>
      </trkpt>
      <trkpt lat="47.47814" lon="6.6435">
        <ele>404</ele>
        <time>2015-08-20T13:47:19.000Z</time>
      </trkpt>
      <trkpt lat="47.47811" lon="6.6435">
        <ele>404</ele>
        <time>2015-08-20T13:47:20.000Z</time>
      </trkpt>
      <trkpt lat="47.47808" lon="6.6435">
        <ele>404</ele>
        <time>2015-08-20T13:47:21.000Z</time>
      </trkpt>
      <trkpt lat="47.47805" lon="6.6435">
        <ele>405</ele>
        <time>2015-08-20T13:47:22.000Z</time>
      </trkpt>
      <trkpt lat="47.47802" lon="6.64351">
        <ele>405</ele>
        <time>2015-08-20T13:47:23.000Z</time>
      </trkpt>
      <trkpt lat="47.47799" lon="6.64352">
        <ele>405</ele>
        <time>2015-08-20T13:47:24.000Z</time>
      </trkpt>
      <trkpt lat="47.47796" lon="6.64352">
        <ele>405</ele>
        <time>2015-08-20T13:47:25.000Z</time>
      </trkpt>
      <trkpt lat="47.47794" lon="6.64353">
        <ele>405</ele>
        <time>2015-08-20T13:47:26.000Z</time>
      </trkpt>
      <trkpt lat="47.47791" lon="6.64355">
        <ele>406</ele>
        <time>2015-08-20T13:47:28.000Z</time>
      </trkpt>
      <trkpt lat="47.47789" lon="6.64356">
        <ele>406</ele>
        <time>2015-08-20T13:47:29.000Z</time>
      </trkpt>
      <trkpt lat="47.47785" lon="6.64357">
        <ele>406</ele>
        <time>2015-08-20T13:47:33.000Z</time>
      </trkpt>
      <trkpt lat="47.47784" lon="6.64358">
        <ele>406</ele>
        <time>2015-08-20T13:47:34.000Z</time>
      </trkpt>
      <trkpt lat="47.47781" lon="6.64361">
        <ele>406</ele>
        <time>2015-08-20T13:47:38.000Z</time>
      </trkpt>
      <trkpt lat="47.4778" lon="6.64362">
        <ele>406</ele>
        <time>2015-08-20T13:47:39.000Z</time>
      </trkpt>
      <trkpt lat="47.47777" lon="6.6436">
        <ele>406</ele>
        <time>2015-08-20T13:47:49.000Z</time>
      </trkpt>
      <trkpt lat="47.47775" lon="6.64359">
        <ele>406</ele>
        <time>2015-08-20T13:47:50.000Z</time>
      </trkpt>
      <trkpt lat="47.47773" lon="6.64355">
        <ele>406</ele>
        <time>2015-08-20T13:52:49.000Z</time>
      </trkpt>
      <trkpt lat="47.47772" lon="6.64355">
        <ele>406</ele>
        <time>2015-08-20T13:52:50.001Z</time>
      </trkpt>
      <trkpt lat="47.47767" lon="6.64357">
        <ele>407</ele>
        <time>2015-08-20T13:53:02.000Z</time>
      </trkpt>
      <trkpt lat="47.47767" lon="6.64358">
        <ele>407</ele>
        <time>2015-08-20T13:53:03.000Z</time>
      </trkpt>
      <trkpt lat="47.47764" lon="6.64363">
        <ele>407</ele>
        <time>2015-08-20T13:53:07.000Z</time>
      </trkpt>
      <trkpt lat="47.47763" lon="6.64363">
        <ele>407</ele>
        <time>2015-08-20T13:53:08.000Z</time>
      </trkpt>
      <trkpt lat="47.4776" lon="6.64364">
        <ele>407</ele>
        <time>2015-08-20T13:53:09.000Z</time>
      </trkpt>
      <trkpt lat="47.47757" lon="6.64366">
        <ele>407</ele>
        <time>2015-08-20T13:53:10.000Z</time>
      </trkpt>
      <trkpt lat="47.47753" lon="6.64367">
        <ele>407</ele>
        <time>2015-08-20T13:53:11.000Z</time>
      </trkpt>
      <trkpt lat="47.4775" lon="6.64368">
        <ele>406</ele>
        <time>2015-08-20T13:53:12.000Z</time>
      </trkpt>
      <trkpt lat="47.47746" lon="6.64369">
        <ele>406</ele>
        <time>2015-08-20T13:53:13.000Z</time>
      </trkpt>
      <trkpt lat="47.47742" lon="6.6437">
        <ele>406</ele>
        <time>2015-08-20T13:53:14.000Z</time>
      </trkpt>
      <trkpt lat="47.47739" lon="6.6437">
        <ele>406</ele>
        <time>2015-08-20T13:53:15.000Z</time>
      </trkpt>
      <trkpt lat="47.47735" lon="6.6437">
        <ele>406</ele>
        <time>2015-08-20T13:53:16.000Z</time>
      </trkpt>
      <trkpt lat="47.47732" lon="6.6437">
        <ele>406</ele>
        <time>2015-08-20T13:53:17.000Z</time>
      </trkpt>
      <trkpt lat="47.47728" lon="6.6437">
        <ele>406</ele>
        <time>2015-08-20T13:53:18.000Z</time>
      </trkpt>
      <trkpt lat="47.47724" lon="6.64369">
        <ele>406</ele>
        <time>2015-08-20T13:53:19.000Z</time>
      </trkpt>
      <trkpt lat="47.47719" lon="6.6437">
        <ele>406</ele>
        <time>2015-08-20T13:53:20.000Z</time>
      </trkpt>
      <trkpt lat="47.47714" lon="6.6437">
        <ele>406</ele>
        <time>2015-08-20T13:53:21.000Z</time>
      </trkpt>
      <trkpt lat="47.47709" lon="6.64371">
        <ele>405</ele>
        <time>2015-08-20T13:53:22.000Z</time>
      </trkpt>
      <trkpt lat="47.47704" lon="6.64372">
        <ele>405</ele>
        <time>2015-08-20T13:53:23.000Z</time>
      </trkpt>
      <trkpt lat="47.47693" lon="6.64374">
        <ele>405</ele>
        <time>2015-08-20T13:53:24.000Z</time>
      </trkpt>
      <trkpt lat="47.47685" lon="6.64377">
        <ele>404</ele>
        <time>2015-08-20T13:53:25.000Z</time>
      </trkpt>
      <trkpt lat="47.47678" lon="6.64378">
        <ele>404</ele>
        <time>2015-08-20T13:53:26.000Z</time>
      </trkpt>
      <trkpt lat="47.47671" lon="6.64382">
        <ele>404</ele>
        <time>2015-08-20T13:53:27.000Z</time>
      </trkpt>
      <trkpt lat="47.47667" lon="6.64382">
        <ele>404</ele>
        <time>2015-08-20T13:53:27.999Z</time>
      </trkpt>
      <trkpt lat="47.47661" lon="6.64386">
        <ele>400</ele>
        <time>2015-08-20T13:53:29.000Z</time>
      </trkpt>
      <trkpt lat="47.47656" lon="6.64389">
        <ele>400</ele>
        <time>2015-08-20T13:53:29.999Z</time>
      </trkpt>
      <trkpt lat="47.47647" lon="6.64389">
        <ele>399</ele>
        <time>2015-08-20T13:53:31.000Z</time>
      </trkpt>
      <trkpt lat="47.4764" lon="6.64394">
        <ele>399</ele>
        <time>2015-08-20T13:53:32.000Z</time>
      </trkpt>
      <trkpt lat="47.47634" lon="6.64398">
        <ele>399</ele>
        <time>2015-08-20T13:53:33.000Z</time>
      </trkpt>
      <trkpt lat="47.47629" lon="6.64401">
        <ele>399</ele>
        <time>2015-08-20T13:53:34.000Z</time>
      </trkpt>
      <trkpt lat="47.47622" lon="6.6441">
        <ele>398</ele>
        <time>2015-08-20T13:53:35.000Z</time>
      </trkpt>
      <trkpt lat="47.47616" lon="6.64414">
        <ele>398</ele>
        <time>2015-08-20T13:53:36.000Z</time>
      </trkpt>
      <trkpt lat="47.47608" lon="6.64418">
        <ele>398</ele>
        <time>2015-08-20T13:53:37.000Z</time>
      </trkpt>
      <trkpt lat="47.47601" lon="6.64424">
        <ele>397</ele>
        <time>2015-08-20T13:53:38.000Z</time>
      </trkpt>
      <trkpt lat="47.47595" lon="6.64429">
        <ele>397</ele>
        <time>2015-08-20T13:53:39.000Z</time>
      </trkpt>
      <trkpt lat="47.47589" lon="6.64432">
        <ele>397</ele>
        <time>2015-08-20T13:53:40.000Z</time>
      </trkpt>
      <trkpt lat="47.47583" lon="6.64434">
        <ele>394</ele>
        <time>2015-08-20T13:53:41.000Z</time>
      </trkpt>
      <trkpt lat="47.4758" lon="6.64437">
        <ele>394</ele>
        <time>2015-08-20T13:53:42.000Z</time>
      </trkpt>
      <trkpt lat="47.47576" lon="6.64437">
        <ele>394</ele>
        <time>2015-08-20T13:53:43.000Z</time>
      </trkpt>
      <trkpt lat="47.47572" lon="6.64441">
        <ele>394</ele>
        <time>2015-08-20T13:53:44.000Z</time>
      </trkpt>
      <trkpt lat="47.47569" lon="6.6444">
        <ele>393</ele>
        <time>2015-08-20T13:53:45.000Z</time>
      </trkpt>
      <trkpt lat="47.47566" lon="6.6444">
        <ele>393</ele>
        <time>2015-08-20T13:53:46.000Z</time>
      </trkpt>
      <trkpt lat="47.47565" lon="6.64443">
        <ele>393</ele>
        <time>2015-08-20T13:53:47.000Z</time>
      </trkpt>
      <trkpt lat="47.47564" lon="6.64446">
        <ele>393</ele>
        <time>2015-08-20T13:53:47.999Z</time>
      </trkpt>
      <trkpt lat="47.4756" lon="6.64445">
        <ele>393</ele>
        <time>2015-08-20T13:53:49.000Z</time>
      </trkpt>
      <trkpt lat="47.47558" lon="6.64445">
        <ele>393</ele>
        <time>2015-08-20T13:53:50.000Z</time>
      </trkpt>
      <trkpt lat="47.47556" lon="6.64448">
        <ele>393</ele>
        <time>2015-08-20T13:53:51.000Z</time>
      </trkpt>
      <trkpt lat="47.47554" lon="6.64451">
        <ele>393</ele>
        <time>2015-08-20T13:53:52.000Z</time>
      </trkpt>
      <trkpt lat="47.47551" lon="6.64453">
        <ele>393</ele>
        <time>2015-08-20T13:53:54.000Z</time>
      </trkpt>
      <trkpt lat="47.47549" lon="6.64454">
        <ele>393</ele>
        <time>2015-08-20T13:53:55.000Z</time>
      </trkpt>
      <trkpt lat="47.47544" lon="6.64455">
        <ele>393</ele>
        <time>2015-08-20T13:53:57.000Z</time>
      </trkpt>
      <trkpt lat="47.47542" lon="6.64455">
        <ele>393</ele>
        <time>2015-08-20T13:53:58.000Z</time>
      </trkpt>
      <trkpt lat="47.4754" lon="6.64455">
        <ele>392</ele>
        <time>2015-08-20T13:53:59.000Z</time>
      </trkpt>
      <trkpt lat="47.47537" lon="6.64455">
        <ele>392</ele>
        <time>2015-08-20T13:54:00.000Z</time>
      </trkpt>
      <trkpt lat="47.47534" lon="6.64456">
        <ele>392</ele>
        <time>2015-08-20T13:54:01.000Z</time>
      </trkpt>
      <trkpt lat="47.47529" lon="6.64457">
        <ele>392</ele>
        <time>2015-08-20T13:54:02.000Z</time>
      </trkpt>
      <trkpt lat="47.47525" lon="6.6446">
        <ele>392</ele>
        <time>2015-08-20T13:54:03.000Z</time>
      </trkpt>
      <trkpt lat="47.4752" lon="6.64463">
        <ele>392</ele>
        <time>2015-08-20T13:54:04.000Z</time>
      </trkpt>
      <trkpt lat="47.47516" lon="6.64467">
        <ele>392</ele>
        <time>2015-08-20T13:54:05.000Z</time>
      </trkpt>
      <trkpt lat="47.47511" lon="6.64471">
        <ele>392</ele>
        <time>2015-08-20T13:54:06.000Z</time>
      </trkpt>
      <trkpt lat="47.47506" lon="6.64485">
        <ele>392</ele>
        <time>2015-08-20T13:54:07.000Z</time>
      </trkpt>
      <trkpt lat="47.47503" lon="6.6449">
        <ele>392</ele>
        <time>2015-08-20T13:54:08.000Z</time>
      </trkpt>
      <trkpt lat="47.47502" lon="6.64494">
        <ele>392</ele>
        <time>2015-08-20T13:54:09.000Z</time>
      </trkpt>
      <trkpt lat="47.475" lon="6.645">
        <ele>392</ele>
        <time>2015-08-20T13:54:10.000Z</time>
      </trkpt>
      <trkpt lat="47.47498" lon="6.64505">
        <ele>393</ele>
        <time>2015-08-20T13:54:11.000Z</time>
      </trkpt>
      <trkpt lat="47.47496" lon="6.6451">
        <ele>393</ele>
        <time>2015-08-20T13:54:12.000Z</time>
      </trkpt>
      <trkpt lat="47.47495" lon="6.64516">
        <ele>394</ele>
        <time>2015-08-20T13:54:13.000Z</time>
      </trkpt>
      <trkpt lat="47.47493" lon="6.64521">
        <ele>394</ele>
        <time>2015-08-20T13:54:14.000Z</time>
      </trkpt>
      <trkpt lat="47.47491" lon="6.64526">
        <ele>395</ele>
        <time>2015-08-20T13:54:15.000Z</time>
      </trkpt>
      <trkpt lat="47.4749" lon="6.6453">
        <ele>395</ele>
        <time>2015-08-20T13:54:16.000Z</time>
      </trkpt>
      <trkpt lat="47.47487" lon="6.64532">
        <ele>395</ele>
        <time>2015-08-20T13:54:17.000Z</time>
      </trkpt>
      <trkpt lat="47.47486" lon="6.64535">
        <ele>396</ele>
        <time>2015-08-20T13:54:18.000Z</time>
      </trkpt>
      <trkpt lat="47.47483" lon="6.64538">
        <ele>396</ele>
        <time>2015-08-20T13:54:19.000Z</time>
      </trkpt>
      <trkpt lat="47.47481" lon="6.6454">
        <ele>396</ele>
        <time>2015-08-20T13:54:20.000Z</time>
      </trkpt>
      <trkpt lat="47.47479" lon="6.64541">
        <ele>396</ele>
        <time>2015-08-20T13:54:21.000Z</time>
      </trkpt>
      <trkpt lat="47.47477" lon="6.64543">
        <ele>396</ele>
        <time>2015-08-20T13:54:22.000Z</time>
      </trkpt>
      <trkpt lat="47.47475" lon="6.64544">
        <ele>396</ele>
        <time>2015-08-20T13:54:23.000Z</time>
      </trkpt>
      <trkpt lat="47.47473" lon="6.64546">
        <ele>396</ele>
        <time>2015-08-20T13:54:24.000Z</time>
      </trkpt>
      <trkpt lat="47.4747" lon="6.64548">
        <ele>396</ele>
        <time>2015-08-20T13:54:25.000Z</time>
      </trkpt>
      <trkpt lat="47.47467" lon="6.64549">
        <ele>396</ele>
        <time>2015-08-20T13:54:26.000Z</time>
      </trkpt>
      <trkpt lat="47.47464" lon="6.6455">
        <ele>396</ele>
        <time>2015-08-20T13:54:27.000Z</time>
      </trkpt>
      <trkpt lat="47.47462" lon="6.6455">
        <ele>396</ele>
        <time>2015-08-20T13:54:28.000Z</time>
      </trkpt>
      <trkpt lat="47.47458" lon="6.64549">
        <ele>396</ele>
        <time>2015-08-20T13:54:30.000Z</time>
      </trkpt>
      <trkpt lat="47.47456" lon="6.64548">
        <ele>396</ele>
        <time>2015-08-20T13:54:31.000Z</time>
      </trkpt>
      <trkpt lat="47.47453" lon="6.64547">
        <ele>396</ele>
        <time>2015-08-20T13:54:32.000Z</time>
      </trkpt>
      <trkpt lat="47.47451" lon="6.64545">
        <ele>396</ele>
        <time>2015-08-20T13:54:33.000Z</time>
      </trkpt>
      <trkpt lat="47.47448" lon="6.64543">
        <ele>395</ele>
        <time>2015-08-20T13:54:34.000Z</time>
      </trkpt>
      <trkpt lat="47.47445" lon="6.64542">
        <ele>395</ele>
        <time>2015-08-20T13:54:35.000Z</time>
      </trkpt>
      <trkpt lat="47.47443" lon="6.6454">
        <ele>395</ele>
        <time>2015-08-20T13:54:35.999Z</time>
      </trkpt>
      <trkpt lat="47.4744" lon="6.64539">
        <ele>395</ele>
        <time>2015-08-20T13:54:37.000Z</time>
      </trkpt>
      <trkpt lat="47.47438" lon="6.64539">
        <ele>395</ele>
        <time>2015-08-20T13:54:38.000Z</time>
      </trkpt>
      <trkpt lat="47.47436" lon="6.64538">
        <ele>395</ele>
        <time>2015-08-20T13:54:38.999Z</time>
      </trkpt>
      <trkpt lat="47.47432" lon="6.64538">
        <ele>394</ele>
        <time>2015-08-20T13:54:41.000Z</time>
      </trkpt>
      <trkpt lat="47.47429" lon="6.64538">
        <ele>394</ele>
        <time>2015-08-20T13:54:42.000Z</time>
      </trkpt>
      <trkpt lat="47.47425" lon="6.64539">
        <ele>394</ele>
        <time>2015-08-20T13:54:44.000Z</time>
      </trkpt>
      <trkpt lat="47.47423" lon="6.64539">
        <ele>394</ele>
        <time>2015-08-20T13:54:45.000Z</time>
      </trkpt>
      <trkpt lat="47.47421" lon="6.6454">
        <ele>394</ele>
        <time>2015-08-20T13:54:46.000Z</time>
      </trkpt>
      <trkpt lat="47.47418" lon="6.64541">
        <ele>394</ele>
        <time>2015-08-20T13:54:47.000Z</time>
      </trkpt>
      <trkpt lat="47.47414" lon="6.64542">
        <ele>394</ele>
        <time>2015-08-20T13:54:48.999Z</time>
      </trkpt>
      <trkpt lat="47.47412" lon="6.64546">
        <ele>395</ele>
        <time>2015-08-20T13:54:50.000Z</time>
      </trkpt>
      <trkpt lat="47.47411" lon="6.64549">
        <ele>395</ele>
        <time>2015-08-20T13:54:51.000Z</time>
      </trkpt>
      <trkpt lat="47.4741" lon="6.64553">
        <ele>396</ele>
        <time>2015-08-20T13:54:52.000Z</time>
      </trkpt>
      <trkpt lat="47.47409" lon="6.64556">
        <ele>396</ele>
        <time>2015-08-20T13:54:53.000Z</time>
      </trkpt>
      <trkpt lat="47.47408" lon="6.6456">
        <ele>396</ele>
        <time>2015-08-20T13:54:54.000Z</time>
      </trkpt>
      <trkpt lat="47.47407" lon="6.64563">
        <ele>396</ele>
        <time>2015-08-20T13:54:55.000Z</time>
      </trkpt>
      <trkpt lat="47.47406" lon="6.64567">
        <ele>397</ele>
        <time>2015-08-20T13:54:56.000Z</time>
      </trkpt>
      <trkpt lat="47.47406" lon="6.64572">
        <ele>397</ele>
        <time>2015-08-20T13:54:57.000Z</time>
      </trkpt>
      <trkpt lat="47.47406" lon="6.64576">
        <ele>397</ele>
        <time>2015-08-20T13:54:58.000Z</time>
      </trkpt>
      <trkpt lat="47.47406" lon="6.6458">
        <ele>398</ele>
        <time>2015-08-20T13:54:59.000Z</time>
      </trkpt>
      <trkpt lat="47.47406" lon="6.64584">
        <ele>400</ele>
        <time>2015-08-20T13:55:00.000Z</time>
      </trkpt>
      <trkpt lat="47.47406" lon="6.64588">
        <ele>400</ele>
        <time>2015-08-20T13:55:01.000Z</time>
      </trkpt>
      <trkpt lat="47.47407" lon="6.64591">
        <ele>400</ele>
        <time>2015-08-20T13:55:02.000Z</time>
      </trkpt>
      <trkpt lat="47.47407" lon="6.64595">
        <ele>400</ele>
        <time>2015-08-20T13:55:03.000Z</time>
      </trkpt>
      <trkpt lat="47.47408" lon="6.64598">
        <ele>400</ele>
        <time>2015-08-20T13:55:04.000Z</time>
      </trkpt>
      <trkpt lat="47.47409" lon="6.64602">
        <ele>401</ele>
        <time>2015-08-20T13:55:05.000Z</time>
      </trkpt>
      <trkpt lat="47.4741" lon="6.64606">
        <ele>401</ele>
        <time>2015-08-20T13:55:06.000Z</time>
      </trkpt>
      <trkpt lat="47.4741" lon="6.64609">
        <ele>401</ele>
        <time>2015-08-20T13:55:06.999Z</time>
      </trkpt>
      <trkpt lat="47.47411" lon="6.64612">
        <ele>401</ele>
        <time>2015-08-20T13:55:08.000Z</time>
      </trkpt>
      <trkpt lat="47.47412" lon="6.64615">
        <ele>401</ele>
        <time>2015-08-20T13:55:09.000Z</time>
      </trkpt>
      <trkpt lat="47.47414" lon="6.64618">
        <ele>401</ele>
        <time>2015-08-20T13:55:10.000Z</time>
      </trkpt>
      <trkpt lat="47.47416" lon="6.64621">
        <ele>402</ele>
        <time>2015-08-20T13:55:11.000Z</time>
      </trkpt>
      <trkpt lat="47.47418" lon="6.64623">
        <ele>403</ele>
        <time>2015-08-20T13:55:12.000Z</time>
      </trkpt>
      <trkpt lat="47.47419" lon="6.64625">
        <ele>403</ele>
        <time>2015-08-20T13:55:13.000Z</time>
      </trkpt>
      <trkpt lat="47.47421" lon="6.64628">
        <ele>403</ele>
        <time>2015-08-20T13:55:14.000Z</time>
      </trkpt>
      <trkpt lat="47.47422" lon="6.64631">
        <ele>403</ele>
        <time>2015-08-20T13:55:15.000Z</time>
      </trkpt>
      <trkpt lat="47.47423" lon="6.64634">
        <ele>403</ele>
        <time>2015-08-20T13:55:16.000Z</time>
      </trkpt>
      <trkpt lat="47.47425" lon="6.64639">
        <ele>403</ele>
        <time>2015-08-20T13:55:18.000Z</time>
      </trkpt>
      <trkpt lat="47.47426" lon="6.64641">
        <ele>404</ele>
        <time>2015-08-20T13:55:19.000Z</time>
      </trkpt>
      <trkpt lat="47.47428" lon="6.64646">
        <ele>404</ele>
        <time>2015-08-20T13:55:21.000Z</time>
      </trkpt>
      <trkpt lat="47.47429" lon="6.64648">
        <ele>404</ele>
        <time>2015-08-20T13:55:21.999Z</time>
      </trkpt>
      <trkpt lat="47.4743" lon="6.64651">
        <ele>404</ele>
        <time>2015-08-20T13:55:23.000Z</time>
      </trkpt>
      <trkpt lat="47.47431" lon="6.64654">
        <ele>404</ele>
        <time>2015-08-20T13:55:24.000Z</time>
      </trkpt>
      <trkpt lat="47.47433" lon="6.6466">
        <ele>404</ele>
        <time>2015-08-20T13:55:26.000Z</time>
      </trkpt>
      <trkpt lat="47.47434" lon="6.64662">
        <ele>404</ele>
        <time>2015-08-20T13:55:27.000Z</time>
      </trkpt>
      <trkpt lat="47.47436" lon="6.64667">
        <ele>406</ele>
        <time>2015-08-20T13:55:29.000Z</time>
      </trkpt>
      <trkpt lat="47.47437" lon="6.64669">
        <ele>406</ele>
        <time>2015-08-20T13:55:30.000Z</time>
      </trkpt>
      <trkpt lat="47.47438" lon="6.64675">
        <ele>406</ele>
        <time>2015-08-20T13:55:32.000Z</time>
      </trkpt>
      <trkpt lat="47.4744" lon="6.64678">
        <ele>406</ele>
        <time>2015-08-20T13:55:33.000Z</time>
      </trkpt>
      <trkpt lat="47.47442" lon="6.64682">
        <ele>406</ele>
        <time>2015-08-20T13:55:34.999Z</time>
      </trkpt>
      <trkpt lat="47.47444" lon="6.64685">
        <ele>406</ele>
        <time>2015-08-20T13:55:36.000Z</time>
      </trkpt>
      <trkpt lat="47.47445" lon="6.64688">
        <ele>406</ele>
        <time>2015-08-20T13:55:37.000Z</time>
      </trkpt>
      <trkpt lat="47.47446" lon="6.64691">
        <ele>407</ele>
        <time>2015-08-20T13:55:38.000Z</time>
      </trkpt>
      <trkpt lat="47.47448" lon="6.64695">
        <ele>407</ele>
        <time>2015-08-20T13:55:39.000Z</time>
      </trkpt>
      <trkpt lat="47.47449" lon="6.64698">
        <ele>407</ele>
        <time>2015-08-20T13:55:40.000Z</time>
      </trkpt>
      <trkpt lat="47.47451" lon="6.64701">
        <ele>407</ele>
        <time>2015-08-20T13:55:41.000Z</time>
      </trkpt>
      <trkpt lat="47.47452" lon="6.64704">
        <ele>407</ele>
        <time>2015-08-20T13:55:42.000Z</time>
      </trkpt>
      <trkpt lat="47.47454" lon="6.64709">
        <ele>407</ele>
        <time>2015-08-20T13:55:44.000Z</time>
      </trkpt>
      <trkpt lat="47.47455" lon="6.64712">
        <ele>407</ele>
        <time>2015-08-20T13:55:45.000Z</time>
      </trkpt>
      <trkpt lat="47.47457" lon="6.64717">
        <ele>407</ele>
        <time>2015-08-20T13:55:47.000Z</time>
      </trkpt>
      <trkpt lat="47.47458" lon="6.6472">
        <ele>407</ele>
        <time>2015-08-20T13:55:48.000Z</time>
      </trkpt>
      <trkpt lat="47.47459" lon="6.64723">
        <ele>407</ele>
        <time>2015-08-20T13:55:49.000Z</time>
      </trkpt>
      <trkpt lat="47.4746" lon="6.64727">
        <ele>407</ele>
        <time>2015-08-20T13:55:50.000Z</time>
      </trkpt>
      <trkpt lat="47.47461" lon="6.64731">
        <ele>407</ele>
        <time>2015-08-20T13:55:51.000Z</time>
      </trkpt>
      <trkpt lat="47.47462" lon="6.64734">
        <ele>408</ele>
        <time>2015-08-20T13:55:52.000Z</time>
      </trkpt>
      <trkpt lat="47.47465" lon="6.64739">
        <ele>408</ele>
        <time>2015-08-20T13:55:54.000Z</time>
      </trkpt>
      <trkpt lat="47.47466" lon="6.64742">
        <ele>408</ele>
        <time>2015-08-20T13:55:55.000Z</time>
      </trkpt>
      <trkpt lat="47.47467" lon="6.64745">
        <ele>408</ele>
        <time>2015-08-20T13:55:56.000Z</time>
      </trkpt>
      <trkpt lat="47.47468" lon="6.64748">
        <ele>408</ele>
        <time>2015-08-20T13:55:57.000Z</time>
      </trkpt>
      <trkpt lat="47.4747" lon="6.64754">
        <ele>410</ele>
        <time>2015-08-20T13:55:59.000Z</time>
      </trkpt>
      <trkpt lat="47.47471" lon="6.64756">
        <ele>410</ele>
        <time>2015-08-20T13:56:00.000Z</time>
      </trkpt>
      <trkpt lat="47.47473" lon="6.64761">
        <ele>410</ele>
        <time>2015-08-20T13:56:02.000Z</time>
      </trkpt>
      <trkpt lat="47.47474" lon="6.64765">
        <ele>410</ele>
        <time>2015-08-20T13:56:03.000Z</time>
      </trkpt>
      <trkpt lat="47.47475" lon="6.64768">
        <ele>410</ele>
        <time>2015-08-20T13:56:04.000Z</time>
      </trkpt>
      <trkpt lat="47.47476" lon="6.64772">
        <ele>410</ele>
        <time>2015-08-20T13:56:05.000Z</time>
      </trkpt>
      <trkpt lat="47.47477" lon="6.64776">
        <ele>410</ele>
        <time>2015-08-20T13:56:06.000Z</time>
      </trkpt>
      <trkpt lat="47.47478" lon="6.6478">
        <ele>410</ele>
        <time>2015-08-20T13:56:07.000Z</time>
      </trkpt>
      <trkpt lat="47.47479" lon="6.64783">
        <ele>410</ele>
        <time>2015-08-20T13:56:08.000Z</time>
      </trkpt>
      <trkpt lat="47.4748" lon="6.64787">
        <ele>410</ele>
        <time>2015-08-20T13:56:09.000Z</time>
      </trkpt>
      <trkpt lat="47.47481" lon="6.6479">
        <ele>411</ele>
        <time>2015-08-20T13:56:10.000Z</time>
      </trkpt>
      <trkpt lat="47.47483" lon="6.64793">
        <ele>411</ele>
        <time>2015-08-20T13:56:11.000Z</time>
      </trkpt>
      <trkpt lat="47.47484" lon="6.64796">
        <ele>411</ele>
        <time>2015-08-20T13:56:12.000Z</time>
      </trkpt>
      <trkpt lat="47.47486" lon="6.64799">
        <ele>411</ele>
        <time>2015-08-20T13:56:13.000Z</time>
      </trkpt>
      <trkpt lat="47.47487" lon="6.64802">
        <ele>411</ele>
        <time>2015-08-20T13:56:14.000Z</time>
      </trkpt>
      <trkpt lat="47.47488" lon="6.64805">
        <ele>411</ele>
        <time>2015-08-20T13:56:15.000Z</time>
      </trkpt>
      <trkpt lat="47.47489" lon="6.64808">
        <ele>411</ele>
        <time>2015-08-20T13:56:16.000Z</time>
      </trkpt>
      <trkpt lat="47.47491" lon="6.64811">
        <ele>411</ele>
        <time>2015-08-20T13:56:17.000Z</time>
      </trkpt>
      <trkpt lat="47.47492" lon="6.64814">
        <ele>412</ele>
        <time>2015-08-20T13:56:18.000Z</time>
      </trkpt>
      <trkpt lat="47.47493" lon="6.64817">
        <ele>412</ele>
        <time>2015-08-20T13:56:19.000Z</time>
      </trkpt>
      <trkpt lat="47.47495" lon="6.6482">
        <ele>412</ele>
        <time>2015-08-20T13:56:20.000Z</time>
      </trkpt>
      <trkpt lat="47.47496" lon="6.64823">
        <ele>412</ele>
        <time>2015-08-20T13:56:21.000Z</time>
      </trkpt>
      <trkpt lat="47.47499" lon="6.64827">
        <ele>412</ele>
        <time>2015-08-20T13:56:23.000Z</time>
      </trkpt>
      <trkpt lat="47.475" lon="6.64829">
        <ele>413</ele>
        <time>2015-08-20T13:56:24.000Z</time>
      </trkpt>
      <trkpt lat="47.47503" lon="6.64833">
        <ele>413</ele>
        <time>2015-08-20T13:56:26.000Z</time>
      </trkpt>
      <trkpt lat="47.47504" lon="6.64835">
        <ele>413</ele>
        <time>2015-08-20T13:56:27.000Z</time>
      </trkpt>
      <trkpt lat="47.47507" lon="6.64839">
        <ele>414</ele>
        <time>2015-08-20T13:56:29.000Z</time>
      </trkpt>
      <trkpt lat="47.47509" lon="6.64841">
        <ele>414</ele>
        <time>2015-08-20T13:56:30.000Z</time>
      </trkpt>
      <trkpt lat="47.4751" lon="6.64844">
        <ele>414</ele>
        <time>2015-08-20T13:56:31.000Z</time>
      </trkpt>
      <trkpt lat="47.47511" lon="6.64847">
        <ele>414</ele>
        <time>2015-08-20T13:56:32.000Z</time>
      </trkpt>
      <trkpt lat="47.47511" lon="6.64851">
        <ele>414</ele>
        <time>2015-08-20T13:56:33.000Z</time>
      </trkpt>
      <trkpt lat="47.47512" lon="6.64854">
        <ele>414</ele>
        <time>2015-08-20T13:56:34.000Z</time>
      </trkpt>
      <trkpt lat="47.47513" lon="6.64858">
        <ele>414</ele>
        <time>2015-08-20T13:56:35.000Z</time>
      </trkpt>
      <trkpt lat="47.47513" lon="6.64861">
        <ele>414</ele>
        <time>2015-08-20T13:56:36.000Z</time>
      </trkpt>
      <trkpt lat="47.47514" lon="6.64864">
        <ele>414</ele>
        <time>2015-08-20T13:56:37.000Z</time>
      </trkpt>
      <trkpt lat="47.47515" lon="6.64868">
        <ele>414</ele>
        <time>2015-08-20T13:56:38.000Z</time>
      </trkpt>
      <trkpt lat="47.47517" lon="6.64871">
        <ele>414</ele>
        <time>2015-08-20T13:56:39.000Z</time>
      </trkpt>
      <trkpt lat="47.47518" lon="6.64873">
        <ele>414</ele>
        <time>2015-08-20T13:56:40.000Z</time>
      </trkpt>
      <trkpt lat="47.47521" lon="6.64878">
        <ele>414</ele>
        <time>2015-08-20T13:56:42.000Z</time>
      </trkpt>
      <trkpt lat="47.47522" lon="6.64881">
        <ele>415</ele>
        <time>2015-08-20T13:56:43.000Z</time>
      </trkpt>
      <trkpt lat="47.47524" lon="6.64884">
        <ele>415</ele>
        <time>2015-08-20T13:56:44.000Z</time>
      </trkpt>
      <trkpt lat="47.47526" lon="6.64886">
        <ele>415</ele>
        <time>2015-08-20T13:56:45.000Z</time>
      </trkpt>
      <trkpt lat="47.47528" lon="6.64889">
        <ele>415</ele>
        <time>2015-08-20T13:56:46.000Z</time>
      </trkpt>
      <trkpt lat="47.47529" lon="6.64891">
        <ele>415</ele>
        <time>2015-08-20T13:56:47.000Z</time>
      </trkpt>
      <trkpt lat="47.47531" lon="6.64894">
        <ele>415</ele>
        <time>2015-08-20T13:56:48.000Z</time>
      </trkpt>
      <trkpt lat="47.47532" lon="6.64897">
        <ele>415</ele>
        <time>2015-08-20T13:56:49.000Z</time>
      </trkpt>
      <trkpt lat="47.47533" lon="6.649">
        <ele>415</ele>
        <time>2015-08-20T13:56:50.000Z</time>
      </trkpt>
      <trkpt lat="47.47534" lon="6.64904">
        <ele>415</ele>
        <time>2015-08-20T13:56:51.000Z</time>
      </trkpt>
      <trkpt lat="47.47536" lon="6.64907">
        <ele>415</ele>
        <time>2015-08-20T13:56:52.000Z</time>
      </trkpt>
      <trkpt lat="47.47538" lon="6.64911">
        <ele>415</ele>
        <time>2015-08-20T13:56:53.000Z</time>
      </trkpt>
      <trkpt lat="47.47539" lon="6.64915">
        <ele>415</ele>
        <time>2015-08-20T13:56:54.000Z</time>
      </trkpt>
      <trkpt lat="47.4754" lon="6.64919">
        <ele>416</ele>
        <time>2015-08-20T13:56:55.000Z</time>
      </trkpt>
      <trkpt lat="47.47541" lon="6.64922">
        <ele>416</ele>
        <time>2015-08-20T13:56:56.000Z</time>
      </trkpt>
      <trkpt lat="47.47543" lon="6.64925">
        <ele>416</ele>
        <time>2015-08-20T13:56:57.000Z</time>
      </trkpt>
      <trkpt lat="47.47544" lon="6.64928">
        <ele>416</ele>
        <time>2015-08-20T13:56:58.000Z</time>
      </trkpt>
      <trkpt lat="47.47546" lon="6.6493">
        <ele>416</ele>
        <time>2015-08-20T13:56:59.000Z</time>
      </trkpt>
      <trkpt lat="47.47548" lon="6.64933">
        <ele>416</ele>
        <time>2015-08-20T13:57:00.000Z</time>
      </trkpt>
      <trkpt lat="47.47549" lon="6.64935">
        <ele>416</ele>
        <time>2015-08-20T13:57:01.000Z</time>
      </trkpt>
      <trkpt lat="47.47551" lon="6.64938">
        <ele>416</ele>
        <time>2015-08-20T13:57:02.000Z</time>
      </trkpt>
      <trkpt lat="47.47553" lon="6.64941">
        <ele>416</ele>
        <time>2015-08-20T13:57:03.000Z</time>
      </trkpt>
      <trkpt lat="47.47555" lon="6.64944">
        <ele>416</ele>
        <time>2015-08-20T13:57:04.000Z</time>
      </trkpt>
      <trkpt lat="47.47557" lon="6.64947">
        <ele>416</ele>
        <time>2015-08-20T13:57:05.000Z</time>
      </trkpt>
      <trkpt lat="47.47559" lon="6.64949">
        <ele>416</ele>
        <time>2015-08-20T13:57:06.000Z</time>
      </trkpt>
      <trkpt lat="47.4756" lon="6.64952">
        <ele>416</ele>
        <time>2015-08-20T13:57:07.000Z</time>
      </trkpt>
      <trkpt lat="47.47562" lon="6.64955">
        <ele>416</ele>
        <time>2015-08-20T13:57:08.000Z</time>
      </trkpt>
      <trkpt lat="47.47563" lon="6.64957">
        <ele>416</ele>
        <time>2015-08-20T13:57:09.000Z</time>
      </trkpt>
      <trkpt lat="47.47566" lon="6.64963">
        <ele>416</ele>
        <time>2015-08-20T13:57:11.000Z</time>
      </trkpt>
      <trkpt lat="47.47567" lon="6.64965">
        <ele>416</ele>
        <time>2015-08-20T13:57:12.000Z</time>
      </trkpt>
      <trkpt lat="47.4757" lon="6.64969">
        <ele>417</ele>
        <time>2015-08-20T13:57:14.000Z</time>
      </trkpt>
      <trkpt lat="47.47572" lon="6.6497">
        <ele>417</ele>
        <time>2015-08-20T13:57:15.000Z</time>
      </trkpt>
      <trkpt lat="47.47576" lon="6.64973">
        <ele>417</ele>
        <time>2015-08-20T13:57:17.000Z</time>
      </trkpt>
      <trkpt lat="47.47578" lon="6.64974">
        <ele>417</ele>
        <time>2015-08-20T13:57:18.000Z</time>
      </trkpt>
      <trkpt lat="47.4758" lon="6.64975">
        <ele>417</ele>
        <time>2015-08-20T13:57:19.000Z</time>
      </trkpt>
      <trkpt lat="47.47582" lon="6.64976">
        <ele>417</ele>
        <time>2015-08-20T13:57:20.000Z</time>
      </trkpt>
      <trkpt lat="47.47585" lon="6.64978">
        <ele>419</ele>
        <time>2015-08-20T13:57:21.000Z</time>
      </trkpt>
      <trkpt lat="47.47586" lon="6.64979">
        <ele>419</ele>
        <time>2015-08-20T13:57:22.000Z</time>
      </trkpt>
      <trkpt lat="47.47589" lon="6.64984">
        <ele>419</ele>
        <time>2015-08-20T13:57:24.000Z</time>
      </trkpt>
      <trkpt lat="47.4759" lon="6.64986">
        <ele>419</ele>
        <time>2015-08-20T13:57:25.000Z</time>
      </trkpt>
      <trkpt lat="47.47593" lon="6.6499">
        <ele>419</ele>
        <time>2015-08-20T13:57:28.000Z</time>
      </trkpt>
      <trkpt lat="47.47593" lon="6.64991">
        <ele>419</ele>
        <time>2015-08-20T13:57:29.000Z</time>
      </trkpt>
      <trkpt lat="47.47597" lon="6.64994">
        <ele>419</ele>
        <time>2015-08-20T13:58:03.000Z</time>
      </trkpt>
      <trkpt lat="47.47598" lon="6.64994">
        <ele>419</ele>
        <time>2015-08-20T13:58:04.000Z</time>
      </trkpt>
      <trkpt lat="47.47601" lon="6.64997">
        <ele>419</ele>
        <time>2015-08-20T13:58:07.000Z</time>
      </trkpt>
      <trkpt lat="47.47603" lon="6.64999">
        <ele>419</ele>
        <time>2015-08-20T13:58:08.000Z</time>
      </trkpt>
      <trkpt lat="47.47605" lon="6.65001">
        <ele>419</ele>
        <time>2015-08-20T13:58:09.000Z</time>
      </trkpt>
      <trkpt lat="47.47607" lon="6.65003">
        <ele>419</ele>
        <time>2015-08-20T13:58:10.000Z</time>
      </trkpt>
      <trkpt lat="47.4761" lon="6.65006">
        <ele>419</ele>
        <time>2015-08-20T13:58:11.000Z</time>
      </trkpt>
      <trkpt lat="47.47612" lon="6.65009">
        <ele>419</ele>
        <time>2015-08-20T13:58:12.000Z</time>
      </trkpt>
      <trkpt lat="47.47614" lon="6.65012">
        <ele>419</ele>
        <time>2015-08-20T13:58:13.000Z</time>
      </trkpt>
      <trkpt lat="47.47616" lon="6.65014">
        <ele>419</ele>
        <time>2015-08-20T13:58:14.000Z</time>
      </trkpt>
      <trkpt lat="47.47618" lon="6.65017">
        <ele>419</ele>
        <time>2015-08-20T13:58:15.000Z</time>
      </trkpt>
      <trkpt lat="47.4762" lon="6.6502">
        <ele>419</ele>
        <time>2015-08-20T13:58:16.000Z</time>
      </trkpt>
      <trkpt lat="47.47622" lon="6.65023">
        <ele>420</ele>
        <time>2015-08-20T13:58:17.000Z</time>
      </trkpt>
      <trkpt lat="47.47623" lon="6.65026">
        <ele>420</ele>
        <time>2015-08-20T13:58:18.000Z</time>
      </trkpt>
      <trkpt lat="47.47627" lon="6.6503">
        <ele>420</ele>
        <time>2015-08-20T13:58:20.000Z</time>
      </trkpt>
      <trkpt lat="47.47629" lon="6.65031">
        <ele>420</ele>
        <time>2015-08-20T13:58:21.000Z</time>
      </trkpt>
      <trkpt lat="47.47631" lon="6.65032">
        <ele>420</ele>
        <time>2015-08-20T13:58:22.000Z</time>
      </trkpt>
      <trkpt lat="47.47633" lon="6.65034">
        <ele>420</ele>
        <time>2015-08-20T13:58:23.000Z</time>
      </trkpt>
      <trkpt lat="47.47635" lon="6.65036">
        <ele>420</ele>
        <time>2015-08-20T13:58:24.000Z</time>
      </trkpt>
      <trkpt lat="47.47638" lon="6.65038">
        <ele>420</ele>
        <time>2015-08-20T13:58:25.000Z</time>
      </trkpt>
      <trkpt lat="47.4764" lon="6.6504">
        <ele>420</ele>
        <time>2015-08-20T13:58:26.000Z</time>
      </trkpt>
      <trkpt lat="47.47643" lon="6.65041">
        <ele>420</ele>
        <time>2015-08-20T13:58:27.000Z</time>
      </trkpt>
      <trkpt lat="47.47646" lon="6.65042">
        <ele>420</ele>
        <time>2015-08-20T13:58:28.000Z</time>
      </trkpt>
      <trkpt lat="47.47648" lon="6.65043">
        <ele>420</ele>
        <time>2015-08-20T13:58:29.000Z</time>
      </trkpt>
      <trkpt lat="47.47651" lon="6.65044">
        <ele>420</ele>
        <time>2015-08-20T13:58:30.000Z</time>
      </trkpt>
      <trkpt lat="47.47653" lon="6.65046">
        <ele>420</ele>
        <time>2015-08-20T13:58:31.000Z</time>
      </trkpt>
      <trkpt lat="47.47655" lon="6.65048">
        <ele>420</ele>
        <time>2015-08-20T13:58:32.000Z</time>
      </trkpt>
      <trkpt lat="47.47658" lon="6.6505">
        <ele>420</ele>
        <time>2015-08-20T13:58:33.000Z</time>
      </trkpt>
      <trkpt lat="47.47661" lon="6.65052">
        <ele>420</ele>
        <time>2015-08-20T13:58:34.000Z</time>
      </trkpt>
      <trkpt lat="47.47664" lon="6.65054">
        <ele>420</ele>
        <time>2015-08-20T13:58:35.000Z</time>
      </trkpt>
      <trkpt lat="47.47666" lon="6.65056">
        <ele>420</ele>
        <time>2015-08-20T13:58:36.000Z</time>
      </trkpt>
      <trkpt lat="47.47669" lon="6.65058">
        <ele>423</ele>
        <time>2015-08-20T13:58:37.000Z</time>
      </trkpt>
      <trkpt lat="47.47672" lon="6.6506">
        <ele>423</ele>
        <time>2015-08-20T13:58:38.000Z</time>
      </trkpt>
      <trkpt lat="47.47674" lon="6.65062">
        <ele>423</ele>
        <time>2015-08-20T13:58:39.000Z</time>
      </trkpt>
      <trkpt lat="47.47677" lon="6.65063">
        <ele>423</ele>
        <time>2015-08-20T13:58:40.000Z</time>
      </trkpt>
      <trkpt lat="47.47679" lon="6.65065">
        <ele>423</ele>
        <time>2015-08-20T13:58:41.000Z</time>
      </trkpt>
      <trkpt lat="47.47682" lon="6.65067">
        <ele>423</ele>
        <time>2015-08-20T13:58:42.000Z</time>
      </trkpt>
      <trkpt lat="47.47685" lon="6.65068">
        <ele>423</ele>
        <time>2015-08-20T13:58:43.000Z</time>
      </trkpt>
      <trkpt lat="47.47687" lon="6.6507">
        <ele>423</ele>
        <time>2015-08-20T13:58:44.000Z</time>
      </trkpt>
      <trkpt lat="47.4769" lon="6.65071">
        <ele>423</ele>
        <time>2015-08-20T13:58:45.000Z</time>
      </trkpt>
      <trkpt lat="47.47692" lon="6.65073">
        <ele>423</ele>
        <time>2015-08-20T13:58:46.000Z</time>
      </trkpt>
      <trkpt lat="47.47694" lon="6.65074">
        <ele>423</ele>
        <time>2015-08-20T13:58:47.000Z</time>
      </trkpt>
      <trkpt lat="47.47696" lon="6.65076">
        <ele>423</ele>
        <time>2015-08-20T13:58:48.000Z</time>
      </trkpt>
      <trkpt lat="47.47699" lon="6.65077">
        <ele>423</ele>
        <time>2015-08-20T13:58:49.000Z</time>
      </trkpt>
      <trkpt lat="47.47702" lon="6.65079">
        <ele>424</ele>
        <time>2015-08-20T13:58:50.000Z</time>
      </trkpt>
      <trkpt lat="47.47705" lon="6.6508">
        <ele>424</ele>
        <time>2015-08-20T13:58:51.000Z</time>
      </trkpt>
      <trkpt lat="47.47708" lon="6.65082">
        <ele>424</ele>
        <time>2015-08-20T13:58:52.000Z</time>
      </trkpt>
      <trkpt lat="47.47711" lon="6.65083">
        <ele>424</ele>
        <time>2015-08-20T13:58:53.000Z</time>
      </trkpt>
      <trkpt lat="47.47713" lon="6.65085">
        <ele>424</ele>
        <time>2015-08-20T13:58:54.000Z</time>
      </trkpt>
      <trkpt lat="47.47716" lon="6.65086">
        <ele>424</ele>
        <time>2015-08-20T13:58:55.000Z</time>
      </trkpt>
      <trkpt lat="47.47718" lon="6.65088">
        <ele>424</ele>
        <time>2015-08-20T13:58:56.000Z</time>
      </trkpt>
      <trkpt lat="47.47721" lon="6.65089">
        <ele>424</ele>
        <time>2015-08-20T13:58:57.000Z</time>
      </trkpt>
      <trkpt lat="47.47723" lon="6.65091">
        <ele>424</ele>
        <time>2015-08-20T13:58:58.000Z</time>
      </trkpt>
      <trkpt lat="47.47726" lon="6.65093">
        <ele>424</ele>
        <time>2015-08-20T13:58:59.000Z</time>
      </trkpt>
      <trkpt lat="47.47728" lon="6.65095">
        <ele>424</ele>
        <time>2015-08-20T13:59:00.000Z</time>
      </trkpt>
      <trkpt lat="47.4773" lon="6.65097">
        <ele>424</ele>
        <time>2015-08-20T13:59:01.000Z</time>
      </trkpt>
      <trkpt lat="47.47733" lon="6.65099">
        <ele>424</ele>
        <time>2015-08-20T13:59:02.000Z</time>
      </trkpt>
      <trkpt lat="47.47736" lon="6.65101">
        <ele>425</ele>
        <time>2015-08-20T13:59:03.000Z</time>
      </trkpt>
      <trkpt lat="47.47739" lon="6.65102">
        <ele>425</ele>
        <time>2015-08-20T13:59:04.000Z</time>
      </trkpt>
      <trkpt lat="47.47741" lon="6.65104">
        <ele>425</ele>
        <time>2015-08-20T13:59:05.000Z</time>
      </trkpt>
      <trkpt lat="47.47744" lon="6.65106">
        <ele>425</ele>
        <time>2015-08-20T13:59:06.000Z</time>
      </trkpt>
      <trkpt lat="47.47746" lon="6.65108">
        <ele>425</ele>
        <time>2015-08-20T13:59:07.000Z</time>
      </trkpt>
      <trkpt lat="47.47749" lon="6.65109">
        <ele>425</ele>
        <time>2015-08-20T13:59:08.000Z</time>
      </trkpt>
      <trkpt lat="47.47751" lon="6.65111">
        <ele>428</ele>
        <time>2015-08-20T13:59:09.000Z</time>
      </trkpt>
      <trkpt lat="47.47753" lon="6.65113">
        <ele>429</ele>
        <time>2015-08-20T13:59:10.000Z</time>
      </trkpt>
      <trkpt lat="47.47756" lon="6.65115">
        <ele>429</ele>
        <time>2015-08-20T13:59:11.000Z</time>
      </trkpt>
      <trkpt lat="47.47758" lon="6.65116">
        <ele>429</ele>
        <time>2015-08-20T13:59:12.000Z</time>
      </trkpt>
      <trkpt lat="47.47761" lon="6.65118">
        <ele>429</ele>
        <time>2015-08-20T13:59:13.000Z</time>
      </trkpt>
      <trkpt lat="47.47763" lon="6.65119">
        <ele>429</ele>
        <time>2015-08-20T13:59:14.000Z</time>
      </trkpt>
      <trkpt lat="47.47767" lon="6.6512">
        <ele>429</ele>
        <time>2015-08-20T13:59:15.000Z</time>
      </trkpt>
      <trkpt lat="47.4777" lon="6.65121">
        <ele>429</ele>
        <time>2015-08-20T13:59:16.000Z</time>
      </trkpt>
      <trkpt lat="47.47773" lon="6.65122">
        <ele>429</ele>
        <time>2015-08-20T13:59:17.000Z</time>
      </trkpt>
      <trkpt lat="47.47776" lon="6.65123">
        <ele>429</ele>
        <time>2015-08-20T13:59:18.000Z</time>
      </trkpt>
      <trkpt lat="47.47778" lon="6.65124">
        <ele>430</ele>
        <time>2015-08-20T13:59:19.000Z</time>
      </trkpt>
      <trkpt lat="47.47781" lon="6.65125">
        <ele>430</ele>
        <time>2015-08-20T13:59:20.000Z</time>
      </trkpt>
      <trkpt lat="47.47783" lon="6.65127">
        <ele>430</ele>
        <time>2015-08-20T13:59:21.000Z</time>
      </trkpt>
      <trkpt lat="47.47786" lon="6.65128">
        <ele>430</ele>
        <time>2015-08-20T13:59:22.000Z</time>
      </trkpt>
      <trkpt lat="47.47788" lon="6.6513">
        <ele>430</ele>
        <time>2015-08-20T13:59:23.000Z</time>
      </trkpt>
      <trkpt lat="47.4779" lon="6.65132">
        <ele>430</ele>
        <time>2015-08-20T13:59:24.000Z</time>
      </trkpt>
      <trkpt lat="47.47793" lon="6.65133">
        <ele>430</ele>
        <time>2015-08-20T13:59:25.000Z</time>
      </trkpt>
      <trkpt lat="47.47795" lon="6.65134">
        <ele>430</ele>
        <time>2015-08-20T13:59:26.000Z</time>
      </trkpt>
      <trkpt lat="47.47797" lon="6.65135">
        <ele>431</ele>
        <time>2015-08-20T13:59:27.000Z</time>
      </trkpt>
      <trkpt lat="47.478" lon="6.65137">
        <ele>431</ele>
        <time>2015-08-20T13:59:28.000Z</time>
      </trkpt>
      <trkpt lat="47.47802" lon="6.65138">
        <ele>431</ele>
        <time>2015-08-20T13:59:29.000Z</time>
      </trkpt>
      <trkpt lat="47.47805" lon="6.6514">
        <ele>431</ele>
        <time>2015-08-20T13:59:30.000Z</time>
      </trkpt>
      <trkpt lat="47.47807" lon="6.65142">
        <ele>431</ele>
        <time>2015-08-20T13:59:31.000Z</time>
      </trkpt>
      <trkpt lat="47.47809" lon="6.65143">
        <ele>431</ele>
        <time>2015-08-20T13:59:32.000Z</time>
      </trkpt>
      <trkpt lat="47.47811" lon="6.65145">
        <ele>431</ele>
        <time>2015-08-20T13:59:33.000Z</time>
      </trkpt>
      <trkpt lat="47.47813" lon="6.65146">
        <ele>431</ele>
        <time>2015-08-20T13:59:34.000Z</time>
      </trkpt>
      <trkpt lat="47.47815" lon="6.65146">
        <ele>432</ele>
        <time>2015-08-20T13:59:35.000Z</time>
      </trkpt>
      <trkpt lat="47.4782" lon="6.65148">
        <ele>432</ele>
        <time>2015-08-20T13:59:37.000Z</time>
      </trkpt>
      <trkpt lat="47.47822" lon="6.65149">
        <ele>432</ele>
        <time>2015-08-20T13:59:38.000Z</time>
      </trkpt>
      <trkpt lat="47.47824" lon="6.6515">
        <ele>432</ele>
        <time>2015-08-20T13:59:39.000Z</time>
      </trkpt>
      <trkpt lat="47.47826" lon="6.65151">
        <ele>432</ele>
        <time>2015-08-20T13:59:40.000Z</time>
      </trkpt>
      <trkpt lat="47.47829" lon="6.65152">
        <ele>432</ele>
        <time>2015-08-20T13:59:41.000Z</time>
      </trkpt>
      <trkpt lat="47.47831" lon="6.65153">
        <ele>433</ele>
        <time>2015-08-20T13:59:42.000Z</time>
      </trkpt>
      <trkpt lat="47.47833" lon="6.65154">
        <ele>433</ele>
        <time>2015-08-20T13:59:43.000Z</time>
      </trkpt>
      <trkpt lat="47.47836" lon="6.65155">
        <ele>436</ele>
        <time>2015-08-20T13:59:44.000Z</time>
      </trkpt>
      <trkpt lat="47.47838" lon="6.65156">
        <ele>436</ele>
        <time>2015-08-20T13:59:45.000Z</time>
      </trkpt>
      <trkpt lat="47.4784" lon="6.65157">
        <ele>436</ele>
        <time>2015-08-20T13:59:46.000Z</time>
      </trkpt>
      <trkpt lat="47.47844" lon="6.65159">
        <ele>436</ele>
        <time>2015-08-20T13:59:48.000Z</time>
      </trkpt>
      <trkpt lat="47.47846" lon="6.6516">
        <ele>437</ele>
        <time>2015-08-20T13:59:49.000Z</time>
      </trkpt>
      <trkpt lat="47.4785" lon="6.65162">
        <ele>437</ele>
        <time>2015-08-20T13:59:51.000Z</time>
      </trkpt>
      <trkpt lat="47.47852" lon="6.65163">
        <ele>437</ele>
        <time>2015-08-20T13:59:52.000Z</time>
      </trkpt>
      <trkpt lat="47.47855" lon="6.65165">
        <ele>437</ele>
        <time>2015-08-20T13:59:54.000Z</time>
      </trkpt>
      <trkpt lat="47.47857" lon="6.65167">
        <ele>438</ele>
        <time>2015-08-20T13:59:55.000Z</time>
      </trkpt>
      <trkpt lat="47.4786" lon="6.65169">
        <ele>437</ele>
        <time>2015-08-20T13:59:57.000Z</time>
      </trkpt>
      <trkpt lat="47.47862" lon="6.6517">
        <ele>437</ele>
        <time>2015-08-20T13:59:58.000Z</time>
      </trkpt>
      <trkpt lat="47.47865" lon="6.65172">
        <ele>437</ele>
        <time>2015-08-20T14:00:00.000Z</time>
      </trkpt>
      <trkpt lat="47.47866" lon="6.65174">
        <ele>437</ele>
        <time>2015-08-20T14:00:01.000Z</time>
      </trkpt>
      <trkpt lat="47.47869" lon="6.65178">
        <ele>437</ele>
        <time>2015-08-20T14:00:03.000Z</time>
      </trkpt>
      <trkpt lat="47.47871" lon="6.65181">
        <ele>437</ele>
        <time>2015-08-20T14:00:04.000Z</time>
      </trkpt>
      <trkpt lat="47.47872" lon="6.65183">
        <ele>437</ele>
        <time>2015-08-20T14:00:05.000Z</time>
      </trkpt>
      <trkpt lat="47.47874" lon="6.65186">
        <ele>437</ele>
        <time>2015-08-20T14:00:06.000Z</time>
      </trkpt>
      <trkpt lat="47.47876" lon="6.65188">
        <ele>437</ele>
        <time>2015-08-20T14:00:07.000Z</time>
      </trkpt>
      <trkpt lat="47.47878" lon="6.6519">
        <ele>438</ele>
        <time>2015-08-20T14:00:08.000Z</time>
      </trkpt>
      <trkpt lat="47.4788" lon="6.65192">
        <ele>438</ele>
        <time>2015-08-20T14:00:09.000Z</time>
      </trkpt>
      <trkpt lat="47.47882" lon="6.65194">
        <ele>438</ele>
        <time>2015-08-20T14:00:10.000Z</time>
      </trkpt>
      <trkpt lat="47.47885" lon="6.65198">
        <ele>438</ele>
        <time>2015-08-20T14:00:12.000Z</time>
      </trkpt>
      <trkpt lat="47.47886" lon="6.65201">
        <ele>438</ele>
        <time>2015-08-20T14:00:13.000Z</time>
      </trkpt>
      <trkpt lat="47.47888" lon="6.65203">
        <ele>438</ele>
        <time>2015-08-20T14:00:14.000Z</time>
      </trkpt>
      <trkpt lat="47.4789" lon="6.65206">
        <ele>438</ele>
        <time>2015-08-20T14:00:15.000Z</time>
      </trkpt>
      <trkpt lat="47.47891" lon="6.65209">
        <ele>438</ele>
        <time>2015-08-20T14:00:16.000Z</time>
      </trkpt>
      <trkpt lat="47.47892" lon="6.65212">
        <ele>438</ele>
        <time>2015-08-20T14:00:17.000Z</time>
      </trkpt>
      <trkpt lat="47.47893" lon="6.65215">
        <ele>438</ele>
        <time>2015-08-20T14:00:18.000Z</time>
      </trkpt>
      <trkpt lat="47.47894" lon="6.65218">
        <ele>438</ele>
        <time>2015-08-20T14:00:19.000Z</time>
      </trkpt>
      <trkpt lat="47.47897" lon="6.65223">
        <ele>438</ele>
        <time>2015-08-20T14:00:20.999Z</time>
      </trkpt>
      <trkpt lat="47.47899" lon="6.65224">
        <ele>438</ele>
        <time>2015-08-20T14:00:22.001Z</time>
      </trkpt>
      <trkpt lat="47.47902" lon="6.65226">
        <ele>438</ele>
        <time>2015-08-20T14:00:24.000Z</time>
      </trkpt>
      <trkpt lat="47.47904" lon="6.65227">
        <ele>438</ele>
        <time>2015-08-20T14:00:25.000Z</time>
      </trkpt>
      <trkpt lat="47.47906" lon="6.65229">
        <ele>439</ele>
        <time>2015-08-20T14:00:26.000Z</time>
      </trkpt>
      <trkpt lat="47.47909" lon="6.6523">
        <ele>439</ele>
        <time>2015-08-20T14:00:27.000Z</time>
      </trkpt>
      <trkpt lat="47.47911" lon="6.6523">
        <ele>439</ele>
        <time>2015-08-20T14:00:28.000Z</time>
      </trkpt>
      <trkpt lat="47.47914" lon="6.6523">
        <ele>439</ele>
        <time>2015-08-20T14:00:29.000Z</time>
      </trkpt>
      <trkpt lat="47.47916" lon="6.65229">
        <ele>439</ele>
        <time>2015-08-20T14:00:30.000Z</time>
      </trkpt>
      <trkpt lat="47.47918" lon="6.65229">
        <ele>443</ele>
        <time>2015-08-20T14:00:31.000Z</time>
      </trkpt>
      <trkpt lat="47.47922" lon="6.65228">
        <ele>443</ele>
        <time>2015-08-20T14:00:33.000Z</time>
      </trkpt>
      <trkpt lat="47.47924" lon="6.65228">
        <ele>443</ele>
        <time>2015-08-20T14:00:34.000Z</time>
      </trkpt>
      <trkpt lat="47.47928" lon="6.6523">
        <ele>443</ele>
        <time>2015-08-20T14:00:36.000Z</time>
      </trkpt>
      <trkpt lat="47.4793" lon="6.65231">
        <ele>443</ele>
        <time>2015-08-20T14:00:37.000Z</time>
      </trkpt>
      <trkpt lat="47.47932" lon="6.65232">
        <ele>443</ele>
        <time>2015-08-20T14:00:38.000Z</time>
      </trkpt>
      <trkpt lat="47.47935" lon="6.65232">
        <ele>443</ele>
        <time>2015-08-20T14:00:39.001Z</time>
      </trkpt>
      <trkpt lat="47.47937" lon="6.65232">
        <ele>443</ele>
        <time>2015-08-20T14:00:40.001Z</time>
      </trkpt>
      <trkpt lat="47.4794" lon="6.65231">
        <ele>443</ele>
        <time>2015-08-20T14:00:41.000Z</time>
      </trkpt>
      <trkpt lat="47.47942" lon="6.65232">
        <ele>444</ele>
        <time>2015-08-20T14:00:42.000Z</time>
      </trkpt>
      <trkpt lat="47.47945" lon="6.65233">
        <ele>444</ele>
        <time>2015-08-20T14:00:43.000Z</time>
      </trkpt>
      <trkpt lat="47.47947" lon="6.65233">
        <ele>444</ele>
        <time>2015-08-20T14:00:44.000Z</time>
      </trkpt>
      <trkpt lat="47.4795" lon="6.65234">
        <ele>444</ele>
        <time>2015-08-20T14:00:45.000Z</time>
      </trkpt>
      <trkpt lat="47.47953" lon="6.65234">
        <ele>444</ele>
        <time>2015-08-20T14:00:46.000Z</time>
      </trkpt>
      <trkpt lat="47.47955" lon="6.65233">
        <ele>444</ele>
        <time>2015-08-20T14:00:47.000Z</time>
      </trkpt>
      <trkpt lat="47.47959" lon="6.65233">
        <ele>445</ele>
        <time>2015-08-20T14:00:49.000Z</time>
      </trkpt>
      <trkpt lat="47.47961" lon="6.65234">
        <ele>445</ele>
        <time>2015-08-20T14:00:49.999Z</time>
      </trkpt>
      <trkpt lat="47.47963" lon="6.65237">
        <ele>445</ele>
        <time>2015-08-20T14:00:52.001Z</time>
      </trkpt>
      <trkpt lat="47.47964" lon="6.6524">
        <ele>445</ele>
        <time>2015-08-20T14:00:53.000Z</time>
      </trkpt>
      <trkpt lat="47.47968" lon="6.65241">
        <ele>445</ele>
        <time>2015-08-20T14:00:55.000Z</time>
      </trkpt>
      <trkpt lat="47.4797" lon="6.65241">
        <ele>445</ele>
        <time>2015-08-20T14:00:56.000Z</time>
      </trkpt>
      <trkpt lat="47.47974" lon="6.65242">
        <ele>446</ele>
        <time>2015-08-20T14:00:58.000Z</time>
      </trkpt>
      <trkpt lat="47.47977" lon="6.65242">
        <ele>446</ele>
        <time>2015-08-20T14:00:59.000Z</time>
      </trkpt>
      <trkpt lat="47.47979" lon="6.65242">
        <ele>446</ele>
        <time>2015-08-20T14:00:59.999Z</time>
      </trkpt>
      <trkpt lat="47.47981" lon="6.65244">
        <ele>446</ele>
        <time>2015-08-20T14:01:01.000Z</time>
      </trkpt>
      <trkpt lat="47.47985" lon="6.65246">
        <ele>446</ele>
        <time>2015-08-20T14:01:03.000Z</time>
      </trkpt>
      <trkpt lat="47.47987" lon="6.65247">
        <ele>447</ele>
        <time>2015-08-20T14:01:04.000Z</time>
      </trkpt>
      <trkpt lat="47.47991" lon="6.65248">
        <ele>447</ele>
        <time>2015-08-20T14:01:06.000Z</time>
      </trkpt>
      <trkpt lat="47.47993" lon="6.65248">
        <ele>447</ele>
        <time>2015-08-20T14:01:07.000Z</time>
      </trkpt>
      <trkpt lat="47.47996" lon="6.65248">
        <ele>447</ele>
        <time>2015-08-20T14:01:08.000Z</time>
      </trkpt>
      <trkpt lat="47.47998" lon="6.65248">
        <ele>448</ele>
        <time>2015-08-20T14:01:09.000Z</time>
      </trkpt>
      <trkpt lat="47.48" lon="6.65249">
        <ele>448</ele>
        <time>2015-08-20T14:01:10.000Z</time>
      </trkpt>
      <trkpt lat="47.48003" lon="6.65249">
        <ele>449</ele>
        <time>2015-08-20T14:01:11.000Z</time>
      </trkpt>
      <trkpt lat="47.48005" lon="6.6525">
        <ele>449</ele>
        <time>2015-08-20T14:01:12.000Z</time>
      </trkpt>
      <trkpt lat="47.48008" lon="6.6525">
        <ele>450</ele>
        <time>2015-08-20T14:01:13.000Z</time>
      </trkpt>
      <trkpt lat="47.4801" lon="6.6525">
        <ele>450</ele>
        <time>2015-08-20T14:01:14.000Z</time>
      </trkpt>
      <trkpt lat="47.48013" lon="6.65251">
        <ele>451</ele>
        <time>2015-08-20T14:01:15.000Z</time>
      </trkpt>
      <trkpt lat="47.48015" lon="6.6525">
        <ele>451</ele>
        <time>2015-08-20T14:01:16.000Z</time>
      </trkpt>
      <trkpt lat="47.48018" lon="6.6525">
        <ele>451</ele>
        <time>2015-08-20T14:01:17.000Z</time>
      </trkpt>
      <trkpt lat="47.4802" lon="6.6525">
        <ele>451</ele>
        <time>2015-08-20T14:01:18.000Z</time>
      </trkpt>
      <trkpt lat="47.48022" lon="6.6525">
        <ele>452</ele>
        <time>2015-08-20T14:01:19.000Z</time>
      </trkpt>
      <trkpt lat="47.48025" lon="6.6525">
        <ele>452</ele>
        <time>2015-08-20T14:01:20.000Z</time>
      </trkpt>
      <trkpt lat="47.48027" lon="6.65251">
        <ele>453</ele>
        <time>2015-08-20T14:01:21.000Z</time>
      </trkpt>
      <trkpt lat="47.4803" lon="6.65252">
        <ele>453</ele>
        <time>2015-08-20T14:01:22.000Z</time>
      </trkpt>
      <trkpt lat="47.48033" lon="6.65252">
        <ele>453</ele>
        <time>2015-08-20T14:01:23.000Z</time>
      </trkpt>
      <trkpt lat="47.48036" lon="6.65253">
        <ele>454</ele>
        <time>2015-08-20T14:01:24.000Z</time>
      </trkpt>
      <trkpt lat="47.48039" lon="6.65253">
        <ele>454</ele>
        <time>2015-08-20T14:01:25.000Z</time>
      </trkpt>
      <trkpt lat="47.48043" lon="6.65254">
        <ele>454</ele>
        <time>2015-08-20T14:01:26.000Z</time>
      </trkpt>
      <trkpt lat="47.48045" lon="6.65255">
        <ele>455</ele>
        <time>2015-08-20T14:01:27.000Z</time>
      </trkpt>
      <trkpt lat="47.48047" lon="6.65256">
        <ele>455</ele>
        <time>2015-08-20T14:01:28.000Z</time>
      </trkpt>
      <trkpt lat="47.4805" lon="6.65256">
        <ele>455</ele>
        <time>2015-08-20T14:01:29.000Z</time>
      </trkpt>
      <trkpt lat="47.48053" lon="6.65253">
        <ele>455</ele>
        <time>2015-08-20T14:01:32.001Z</time>
      </trkpt>
      <trkpt lat="47.48054" lon="6.65252">
        <ele>455</ele>
        <time>2015-08-20T14:01:33.000Z</time>
      </trkpt>
      <trkpt lat="47.48058" lon="6.65252">
        <ele>456</ele>
        <time>2015-08-20T14:01:35.000Z</time>
      </trkpt>
      <trkpt lat="47.4806" lon="6.65252">
        <ele>456</ele>
        <time>2015-08-20T14:01:36.000Z</time>
      </trkpt>
      <trkpt lat="47.48064" lon="6.65252">
        <ele>457</ele>
        <time>2015-08-20T14:01:37.998Z</time>
      </trkpt>
      <trkpt lat="47.48067" lon="6.65253">
        <ele>457</ele>
        <time>2015-08-20T14:01:39.000Z</time>
      </trkpt>
      <trkpt lat="47.4807" lon="6.65254">
        <ele>457</ele>
        <time>2015-08-20T14:01:40.000Z</time>
      </trkpt>
      <trkpt lat="47.48073" lon="6.65255">
        <ele>458</ele>
        <time>2015-08-20T14:01:41.000Z</time>
      </trkpt>
      <trkpt lat="47.48076" lon="6.65256">
        <ele>458</ele>
        <time>2015-08-20T14:01:42.000Z</time>
      </trkpt>
      <trkpt lat="47.48079" lon="6.65256">
        <ele>459</ele>
        <time>2015-08-20T14:01:43.000Z</time>
      </trkpt>
      <trkpt lat="47.48083" lon="6.65259">
        <ele>458</ele>
        <time>2015-08-20T14:01:44.000Z</time>
      </trkpt>
      <trkpt lat="47.48085" lon="6.65261">
        <ele>461</ele>
        <time>2015-08-20T14:01:45.000Z</time>
      </trkpt>
      <trkpt lat="47.48088" lon="6.65263">
        <ele>461</ele>
        <time>2015-08-20T14:01:45.998Z</time>
      </trkpt>
      <trkpt lat="47.4809" lon="6.65266">
        <ele>461</ele>
        <time>2015-08-20T14:01:47.000Z</time>
      </trkpt>
      <trkpt lat="47.48092" lon="6.65268">
        <ele>462</ele>
        <time>2015-08-20T14:01:48.000Z</time>
      </trkpt>
      <trkpt lat="47.48094" lon="6.65269">
        <ele>462</ele>
        <time>2015-08-20T14:01:49.000Z</time>
      </trkpt>
      <trkpt lat="47.48097" lon="6.65273">
        <ele>462</ele>
        <time>2015-08-20T14:01:51.000Z</time>
      </trkpt>
      <trkpt lat="47.48099" lon="6.65275">
        <ele>462</ele>
        <time>2015-08-20T14:01:52.000Z</time>
      </trkpt>
      <trkpt lat="47.48101" lon="6.6528">
        <ele>462</ele>
        <time>2015-08-20T14:01:54.000Z</time>
      </trkpt>
      <trkpt lat="47.48102" lon="6.65284">
        <ele>462</ele>
        <time>2015-08-20T14:01:55.000Z</time>
      </trkpt>
      <trkpt lat="47.48103" lon="6.65288">
        <ele>462</ele>
        <time>2015-08-20T14:01:56.000Z</time>
      </trkpt>
      <trkpt lat="47.48103" lon="6.65293">
        <ele>462</ele>
        <time>2015-08-20T14:01:57.000Z</time>
      </trkpt>
      <trkpt lat="47.48104" lon="6.65298">
        <ele>462</ele>
        <time>2015-08-20T14:01:58.000Z</time>
      </trkpt>
      <trkpt lat="47.48105" lon="6.65302">
        <ele>462</ele>
        <time>2015-08-20T14:01:59.000Z</time>
      </trkpt>
      <trkpt lat="47.48107" lon="6.65306">
        <ele>462</ele>
        <time>2015-08-20T14:02:00.000Z</time>
      </trkpt>
      <trkpt lat="47.48108" lon="6.65311">
        <ele>462</ele>
        <time>2015-08-20T14:02:01.000Z</time>
      </trkpt>
      <trkpt lat="47.4811" lon="6.65315">
        <ele>462</ele>
        <time>2015-08-20T14:02:02.000Z</time>
      </trkpt>
      <trkpt lat="47.48112" lon="6.65319">
        <ele>462</ele>
        <time>2015-08-20T14:02:03.000Z</time>
      </trkpt>
      <trkpt lat="47.48115" lon="6.65322">
        <ele>462</ele>
        <time>2015-08-20T14:02:04.000Z</time>
      </trkpt>
      <trkpt lat="47.48119" lon="6.65325">
        <ele>462</ele>
        <time>2015-08-20T14:02:05.000Z</time>
      </trkpt>
      <trkpt lat="47.48122" lon="6.65329">
        <ele>462</ele>
        <time>2015-08-20T14:02:06.000Z</time>
      </trkpt>
      <trkpt lat="47.48126" lon="6.65332">
        <ele>462</ele>
        <time>2015-08-20T14:02:07.000Z</time>
      </trkpt>
      <trkpt lat="47.48129" lon="6.65335">
        <ele>461</ele>
        <time>2015-08-20T14:02:08.000Z</time>
      </trkpt>
      <trkpt lat="47.48132" lon="6.65339">
        <ele>461</ele>
        <time>2015-08-20T14:02:09.000Z</time>
      </trkpt>
      <trkpt lat="47.48135" lon="6.65344">
        <ele>461</ele>
        <time>2015-08-20T14:02:10.000Z</time>
      </trkpt>
      <trkpt lat="47.48137" lon="6.65349">
        <ele>461</ele>
        <time>2015-08-20T14:02:11.000Z</time>
      </trkpt>
      <trkpt lat="47.48139" lon="6.65354">
        <ele>461</ele>
        <time>2015-08-20T14:02:12.000Z</time>
      </trkpt>
      <trkpt lat="47.4814" lon="6.6536">
        <ele>461</ele>
        <time>2015-08-20T14:02:13.000Z</time>
      </trkpt>
      <trkpt lat="47.48142" lon="6.65365">
        <ele>461</ele>
        <time>2015-08-20T14:02:14.000Z</time>
      </trkpt>
      <trkpt lat="47.48144" lon="6.65369">
        <ele>461</ele>
        <time>2015-08-20T14:02:15.000Z</time>
      </trkpt>
      <trkpt lat="47.48147" lon="6.65373">
        <ele>461</ele>
        <time>2015-08-20T14:02:16.000Z</time>
      </trkpt>
      <trkpt lat="47.48149" lon="6.65377">
        <ele>461</ele>
        <time>2015-08-20T14:02:17.000Z</time>
      </trkpt>
      <trkpt lat="47.4815" lon="6.65381">
        <ele>461</ele>
        <time>2015-08-20T14:02:18.000Z</time>
      </trkpt>
      <trkpt lat="47.48152" lon="6.65383">
        <ele>461</ele>
        <time>2015-08-20T14:02:19.000Z</time>
      </trkpt>
      <trkpt lat="47.48155" lon="6.65387">
        <ele>461</ele>
        <time>2015-08-20T14:02:21.000Z</time>
      </trkpt>
      <trkpt lat="47.48158" lon="6.65389">
        <ele>461</ele>
        <time>2015-08-20T14:02:22.000Z</time>
      </trkpt>
      <trkpt lat="47.48161" lon="6.65391">
        <ele>461</ele>
        <time>2015-08-20T14:02:23.000Z</time>
      </trkpt>
      <trkpt lat="47.48164" lon="6.65393">
        <ele>461</ele>
        <time>2015-08-20T14:02:24.000Z</time>
      </trkpt>
      <trkpt lat="47.48166" lon="6.65396">
        <ele>461</ele>
        <time>2015-08-20T14:02:25.000Z</time>
      </trkpt>
      <trkpt lat="47.48169" lon="6.65399">
        <ele>462</ele>
        <time>2015-08-20T14:02:26.000Z</time>
      </trkpt>
      <trkpt lat="47.48171" lon="6.65402">
        <ele>461</ele>
        <time>2015-08-20T14:02:27.000Z</time>
      </trkpt>
      <trkpt lat="47.48177" lon="6.65407">
        <ele>461</ele>
        <time>2015-08-20T14:02:29.000Z</time>
      </trkpt>
      <trkpt lat="47.4818" lon="6.6541">
        <ele>461</ele>
        <time>2015-08-20T14:02:30.000Z</time>
      </trkpt>
      <trkpt lat="47.48183" lon="6.65413">
        <ele>462</ele>
        <time>2015-08-20T14:02:31.000Z</time>
      </trkpt>
      <trkpt lat="47.48186" lon="6.65416">
        <ele>462</ele>
        <time>2015-08-20T14:02:32.000Z</time>
      </trkpt>
      <trkpt lat="47.48189" lon="6.6542">
        <ele>460</ele>
        <time>2015-08-20T14:02:33.000Z</time>
      </trkpt>
      <trkpt lat="47.48192" lon="6.65423">
        <ele>460</ele>
        <time>2015-08-20T14:02:34.000Z</time>
      </trkpt>
      <trkpt lat="47.48195" lon="6.65426">
        <ele>460</ele>
        <time>2015-08-20T14:02:35.000Z</time>
      </trkpt>
      <trkpt lat="47.48199" lon="6.65429">
        <ele>460</ele>
        <time>2015-08-20T14:02:36.000Z</time>
      </trkpt>
      <trkpt lat="47.48202" lon="6.65432">
        <ele>460</ele>
        <time>2015-08-20T14:02:37.000Z</time>
      </trkpt>
      <trkpt lat="47.48205" lon="6.65435">
        <ele>460</ele>
        <time>2015-08-20T14:02:38.000Z</time>
      </trkpt>
      <trkpt lat="47.48207" lon="6.65439">
        <ele>460</ele>
        <time>2015-08-20T14:02:39.000Z</time>
      </trkpt>
      <trkpt lat="47.48209" lon="6.65442">
        <ele>460</ele>
        <time>2015-08-20T14:02:40.000Z</time>
      </trkpt>
      <trkpt lat="47.48211" lon="6.65447">
        <ele>460</ele>
        <time>2015-08-20T14:02:41.000Z</time>
      </trkpt>
      <trkpt lat="47.48212" lon="6.65452">
        <ele>459</ele>
        <time>2015-08-20T14:02:42.000Z</time>
      </trkpt>
      <trkpt lat="47.48213" lon="6.65457">
        <ele>459</ele>
        <time>2015-08-20T14:02:43.000Z</time>
      </trkpt>
      <trkpt lat="47.48214" lon="6.65462">
        <ele>459</ele>
        <time>2015-08-20T14:02:44.000Z</time>
      </trkpt>
      <trkpt lat="47.48214" lon="6.65467">
        <ele>459</ele>
        <time>2015-08-20T14:02:45.000Z</time>
      </trkpt>
      <trkpt lat="47.48215" lon="6.65471">
        <ele>459</ele>
        <time>2015-08-20T14:02:46.000Z</time>
      </trkpt>
      <trkpt lat="47.48216" lon="6.65475">
        <ele>459</ele>
        <time>2015-08-20T14:02:47.000Z</time>
      </trkpt>
      <trkpt lat="47.48218" lon="6.6548">
        <ele>459</ele>
        <time>2015-08-20T14:02:48.000Z</time>
      </trkpt>
      <trkpt lat="47.4822" lon="6.65484">
        <ele>459</ele>
        <time>2015-08-20T14:02:49.000Z</time>
      </trkpt>
      <trkpt lat="47.48223" lon="6.65488">
        <ele>459</ele>
        <time>2015-08-20T14:02:50.000Z</time>
      </trkpt>
      <trkpt lat="47.48226" lon="6.65492">
        <ele>459</ele>
        <time>2015-08-20T14:02:51.000Z</time>
      </trkpt>
      <trkpt lat="47.48228" lon="6.65495">
        <ele>459</ele>
        <time>2015-08-20T14:02:52.000Z</time>
      </trkpt>
      <trkpt lat="47.4823" lon="6.655">
        <ele>459</ele>
        <time>2015-08-20T14:02:53.000Z</time>
      </trkpt>
      <trkpt lat="47.48234" lon="6.65505">
        <ele>457</ele>
        <time>2015-08-20T14:02:54.000Z</time>
      </trkpt>
      <trkpt lat="47.48237" lon="6.65511">
        <ele>457</ele>
        <time>2015-08-20T14:02:55.000Z</time>
      </trkpt>
      <trkpt lat="47.4824" lon="6.65517">
        <ele>457</ele>
        <time>2015-08-20T14:02:56.000Z</time>
      </trkpt>
      <trkpt lat="47.48243" lon="6.65523">
        <ele>456</ele>
        <time>2015-08-20T14:02:57.000Z</time>
      </trkpt>
      <trkpt lat="47.48245" lon="6.6553">
        <ele>456</ele>
        <time>2015-08-20T14:02:58.000Z</time>
      </trkpt>
      <trkpt lat="47.48248" lon="6.65537">
        <ele>456</ele>
        <time>2015-08-20T14:02:59.000Z</time>
      </trkpt>
      <trkpt lat="47.48249" lon="6.65544">
        <ele>456</ele>
        <time>2015-08-20T14:03:00.000Z</time>
      </trkpt>
      <trkpt lat="47.4825" lon="6.6555">
        <ele>455</ele>
        <time>2015-08-20T14:03:01.000Z</time>
      </trkpt>
      <trkpt lat="47.4825" lon="6.65556">
        <ele>455</ele>
        <time>2015-08-20T14:03:02.000Z</time>
      </trkpt>
      <trkpt lat="47.48249" lon="6.65563">
        <ele>455</ele>
        <time>2015-08-20T14:03:03.000Z</time>
      </trkpt>
      <trkpt lat="47.48247" lon="6.65568">
        <ele>455</ele>
        <time>2015-08-20T14:03:04.000Z</time>
      </trkpt>
      <trkpt lat="47.48245" lon="6.65573">
        <ele>455</ele>
        <time>2015-08-20T14:03:05.000Z</time>
      </trkpt>
      <trkpt lat="47.48243" lon="6.65578">
        <ele>455</ele>
        <time>2015-08-20T14:03:06.000Z</time>
      </trkpt>
      <trkpt lat="47.4824" lon="6.65583">
        <ele>455</ele>
        <time>2015-08-20T14:03:07.000Z</time>
      </trkpt>
      <trkpt lat="47.48239" lon="6.65597">
        <ele>454</ele>
        <time>2015-08-20T14:03:08.000Z</time>
      </trkpt>
      <trkpt lat="47.48238" lon="6.65612">
        <ele>454</ele>
        <time>2015-08-20T14:03:09.000Z</time>
      </trkpt>
      <trkpt lat="47.48237" lon="6.65618">
        <ele>454</ele>
        <time>2015-08-20T14:03:10.000Z</time>
      </trkpt>
      <trkpt lat="47.48236" lon="6.65628">
        <ele>454</ele>
        <time>2015-08-20T14:03:11.000Z</time>
      </trkpt>
      <trkpt lat="47.48233" lon="6.65632">
        <ele>454</ele>
        <time>2015-08-20T14:03:12.000Z</time>
      </trkpt>
      <trkpt lat="47.4823" lon="6.65635">
        <ele>454</ele>
        <time>2015-08-20T14:03:13.000Z</time>
      </trkpt>
      <trkpt lat="47.48231" lon="6.65641">
        <ele>454</ele>
        <time>2015-08-20T14:03:15.000Z</time>
      </trkpt>
      <trkpt lat="47.48232" lon="6.65643">
        <ele>454</ele>
        <time>2015-08-20T14:03:16.000Z</time>
      </trkpt>
      <trkpt lat="47.48231" lon="6.65649">
        <ele>454</ele>
        <time>2015-08-20T14:03:18.000Z</time>
      </trkpt>
      <trkpt lat="47.4823" lon="6.6565">
        <ele>454</ele>
        <time>2015-08-20T14:03:19.000Z</time>
      </trkpt>
      <trkpt lat="47.48227" lon="6.65653">
        <ele>454</ele>
        <time>2015-08-20T14:03:22.000Z</time>
      </trkpt>
      <trkpt lat="47.48226" lon="6.65654">
        <ele>454</ele>
        <time>2015-08-20T14:03:23.000Z</time>
      </trkpt>
      <trkpt lat="47.48222" lon="6.65656">
        <ele>454</ele>
        <time>2015-08-20T14:03:25.000Z</time>
      </trkpt>
      <trkpt lat="47.4822" lon="6.65656">
        <ele>454</ele>
        <time>2015-08-20T14:03:26.000Z</time>
      </trkpt>
      <trkpt lat="47.48218" lon="6.65657">
        <ele>454</ele>
        <time>2015-08-20T14:03:27.000Z</time>
      </trkpt>
      <trkpt lat="47.48215" lon="6.65659">
        <ele>453</ele>
        <time>2015-08-20T14:03:28.000Z</time>
      </trkpt>
      <trkpt lat="47.48213" lon="6.65662">
        <ele>453</ele>
        <time>2015-08-20T14:03:29.000Z</time>
      </trkpt>
      <trkpt lat="47.48211" lon="6.65667">
        <ele>454</ele>
        <time>2015-08-20T14:03:30.000Z</time>
      </trkpt>
      <trkpt lat="47.48209" lon="6.65673">
        <ele>454</ele>
        <time>2015-08-20T14:03:31.000Z</time>
      </trkpt>
      <trkpt lat="47.48208" lon="6.65679">
        <ele>454</ele>
        <time>2015-08-20T14:03:32.000Z</time>
      </trkpt>
      <trkpt lat="47.48207" lon="6.65686">
        <ele>454</ele>
        <time>2015-08-20T14:03:33.000Z</time>
      </trkpt>
      <trkpt lat="47.48206" lon="6.65692">
        <ele>454</ele>
        <time>2015-08-20T14:03:34.000Z</time>
      </trkpt>
      <trkpt lat="47.48204" lon="6.65698">
        <ele>453</ele>
        <time>2015-08-20T14:03:35.000Z</time>
      </trkpt>
      <trkpt lat="47.48201" lon="6.65703">
        <ele>453</ele>
        <time>2015-08-20T14:03:36.000Z</time>
      </trkpt>
      <trkpt lat="47.48198" lon="6.65708">
        <ele>453</ele>
        <time>2015-08-20T14:03:37.000Z</time>
      </trkpt>
      <trkpt lat="47.48195" lon="6.65713">
        <ele>453</ele>
        <time>2015-08-20T14:03:38.000Z</time>
      </trkpt>
      <trkpt lat="47.48192" lon="6.65718">
        <ele>453</ele>
        <time>2015-08-20T14:03:39.000Z</time>
      </trkpt>
      <trkpt lat="47.4819" lon="6.65723">
        <ele>453</ele>
        <time>2015-08-20T14:03:40.000Z</time>
      </trkpt>
      <trkpt lat="47.48187" lon="6.65728">
        <ele>453</ele>
        <time>2015-08-20T14:03:41.000Z</time>
      </trkpt>
      <trkpt lat="47.48184" lon="6.65748">
        <ele>453</ele>
        <time>2015-08-20T14:03:42.000Z</time>
      </trkpt>
      <trkpt lat="47.48181" lon="6.65762">
        <ele>453</ele>
        <time>2015-08-20T14:03:43.000Z</time>
      </trkpt>
      <trkpt lat="47.48178" lon="6.6577">
        <ele>453</ele>
        <time>2015-08-20T14:03:44.000Z</time>
      </trkpt>
      <trkpt lat="47.48175" lon="6.65776">
        <ele>453</ele>
        <time>2015-08-20T14:03:45.000Z</time>
      </trkpt>
      <trkpt lat="47.48171" lon="6.65782">
        <ele>453</ele>
        <time>2015-08-20T14:03:46.000Z</time>
      </trkpt>
      <trkpt lat="47.48169" lon="6.65789">
        <ele>453</ele>
        <time>2015-08-20T14:03:47.000Z</time>
      </trkpt>
      <trkpt lat="47.48167" lon="6.65794">
        <ele>450</ele>
        <time>2015-08-20T14:03:48.000Z</time>
      </trkpt>
      <trkpt lat="47.48163" lon="6.658">
        <ele>450</ele>
        <time>2015-08-20T14:03:49.000Z</time>
      </trkpt>
      <trkpt lat="47.48158" lon="6.65807">
        <ele>450</ele>
        <time>2015-08-20T14:03:50.000Z</time>
      </trkpt>
      <trkpt lat="47.48155" lon="6.65815">
        <ele>450</ele>
        <time>2015-08-20T14:03:51.000Z</time>
      </trkpt>
      <trkpt lat="47.48153" lon="6.65824">
        <ele>451</ele>
        <time>2015-08-20T14:03:52.000Z</time>
      </trkpt>
      <trkpt lat="47.4815" lon="6.65829">
        <ele>450</ele>
        <time>2015-08-20T14:03:53.000Z</time>
      </trkpt>
      <trkpt lat="47.48147" lon="6.65834">
        <ele>450</ele>
        <time>2015-08-20T14:03:54.000Z</time>
      </trkpt>
      <trkpt lat="47.48144" lon="6.65838">
        <ele>450</ele>
        <time>2015-08-20T14:03:55.000Z</time>
      </trkpt>
      <trkpt lat="47.4814" lon="6.65842">
        <ele>450</ele>
        <time>2015-08-20T14:03:56.000Z</time>
      </trkpt>
      <trkpt lat="47.48137" lon="6.65846">
        <ele>450</ele>
        <time>2015-08-20T14:03:57.000Z</time>
      </trkpt>
      <trkpt lat="47.48128" lon="6.65855">
        <ele>449</ele>
        <time>2015-08-20T14:03:58.000Z</time>
      </trkpt>
      <trkpt lat="47.48124" lon="6.65862">
        <ele>449</ele>
        <time>2015-08-20T14:03:59.000Z</time>
      </trkpt>
      <trkpt lat="47.4812" lon="6.65873">
        <ele>449</ele>
        <time>2015-08-20T14:04:00.000Z</time>
      </trkpt>
      <trkpt lat="47.48115" lon="6.65877">
        <ele>449</ele>
        <time>2015-08-20T14:04:01.000Z</time>
      </trkpt>
      <trkpt lat="47.48109" lon="6.6588">
        <ele>449</ele>
        <time>2015-08-20T14:04:02.000Z</time>
      </trkpt>
      <trkpt lat="47.48103" lon="6.65882">
        <ele>449</ele>
        <time>2015-08-20T14:04:03.000Z</time>
      </trkpt>
      <trkpt lat="47.48097" lon="6.65886">
        <ele>449</ele>
        <time>2015-08-20T14:04:04.000Z</time>
      </trkpt>
      <trkpt lat="47.48095" lon="6.65894">
        <ele>449</ele>
        <time>2015-08-20T14:04:05.000Z</time>
      </trkpt>
      <trkpt lat="47.4809" lon="6.65901">
        <ele>449</ele>
        <time>2015-08-20T14:04:06.000Z</time>
      </trkpt>
      <trkpt lat="47.4808" lon="6.65909">
        <ele>447</ele>
        <time>2015-08-20T14:04:07.000Z</time>
      </trkpt>
      <trkpt lat="47.48074" lon="6.65915">
        <ele>447</ele>
        <time>2015-08-20T14:04:08.000Z</time>
      </trkpt>
      <trkpt lat="47.4807" lon="6.65922">
        <ele>447</ele>
        <time>2015-08-20T14:04:09.000Z</time>
      </trkpt>
      <trkpt lat="47.48067" lon="6.65931">
        <ele>447</ele>
        <time>2015-08-20T14:04:10.000Z</time>
      </trkpt>
      <trkpt lat="47.48064" lon="6.65936">
        <ele>447</ele>
        <time>2015-08-20T14:04:11.000Z</time>
      </trkpt>
      <trkpt lat="47.48062" lon="6.65938">
        <ele>447</ele>
        <time>2015-08-20T14:04:12.000Z</time>
      </trkpt>
      <trkpt lat="47.48059" lon="6.65942">
        <ele>447</ele>
        <time>2015-08-20T14:04:13.000Z</time>
      </trkpt>
      <trkpt lat="47.48056" lon="6.65951">
        <ele>446</ele>
        <time>2015-08-20T14:04:14.000Z</time>
      </trkpt>
      <trkpt lat="47.48052" lon="6.65956">
        <ele>446</ele>
        <time>2015-08-20T14:04:15.000Z</time>
      </trkpt>
      <trkpt lat="47.48048" lon="6.65963">
        <ele>446</ele>
        <time>2015-08-20T14:04:16.000Z</time>
      </trkpt>
      <trkpt lat="47.48043" lon="6.65968">
        <ele>446</ele>
        <time>2015-08-20T14:04:17.000Z</time>
      </trkpt>
      <trkpt lat="47.48039" lon="6.65971">
        <ele>446</ele>
        <time>2015-08-20T14:04:18.000Z</time>
      </trkpt>
      <trkpt lat="47.48037" lon="6.65978">
        <ele>446</ele>
        <time>2015-08-20T14:04:19.000Z</time>
      </trkpt>
      <trkpt lat="47.48031" lon="6.65983">
        <ele>446</ele>
        <time>2015-08-20T14:04:20.000Z</time>
      </trkpt>
      <trkpt lat="47.48028" lon="6.65989">
        <ele>446</ele>
        <time>2015-08-20T14:04:21.000Z</time>
      </trkpt>
      <trkpt lat="47.48026" lon="6.65995">
        <ele>446</ele>
        <time>2015-08-20T14:04:22.000Z</time>
      </trkpt>
      <trkpt lat="47.48021" lon="6.66001">
        <ele>446</ele>
        <time>2015-08-20T14:04:23.000Z</time>
      </trkpt>
      <trkpt lat="47.48014" lon="6.66007">
        <ele>446</ele>
        <time>2015-08-20T14:04:24.000Z</time>
      </trkpt>
      <trkpt lat="47.4801" lon="6.66013">
        <ele>446</ele>
        <time>2015-08-20T14:04:25.000Z</time>
      </trkpt>
      <trkpt lat="47.48005" lon="6.66017">
        <ele>446</ele>
        <time>2015-08-20T14:04:26.000Z</time>
      </trkpt>
      <trkpt lat="47.48001" lon="6.66026">
        <ele>446</ele>
        <time>2015-08-20T14:04:27.000Z</time>
      </trkpt>
      <trkpt lat="47.47998" lon="6.66035">
        <ele>443</ele>
        <time>2015-08-20T14:04:28.000Z</time>
      </trkpt>
      <trkpt lat="47.47996" lon="6.66045">
        <ele>442</ele>
        <time>2015-08-20T14:04:29.000Z</time>
      </trkpt>
      <trkpt lat="47.47997" lon="6.66064">
        <ele>443</ele>
        <time>2015-08-20T14:04:30.000Z</time>
      </trkpt>
      <trkpt lat="47.47998" lon="6.66081">
        <ele>444</ele>
        <time>2015-08-20T14:04:31.000Z</time>
      </trkpt>
      <trkpt lat="47.47996" lon="6.66097">
        <ele>442</ele>
        <time>2015-08-20T14:04:32.000Z</time>
      </trkpt>
      <trkpt lat="47.47993" lon="6.66113">
        <ele>441</ele>
        <time>2015-08-20T14:04:33.000Z</time>
      </trkpt>
      <trkpt lat="47.47995" lon="6.66132">
        <ele>441</ele>
        <time>2015-08-20T14:04:34.000Z</time>
      </trkpt>
      <trkpt lat="47.47997" lon="6.66152">
        <ele>442</ele>
        <time>2015-08-20T14:04:35.000Z</time>
      </trkpt>
      <trkpt lat="47.47997" lon="6.66167">
        <ele>443</ele>
        <time>2015-08-20T14:04:36.000Z</time>
      </trkpt>
      <trkpt lat="47.47995" lon="6.66182">
        <ele>441</ele>
        <time>2015-08-20T14:04:37.000Z</time>
      </trkpt>
      <trkpt lat="47.47992" lon="6.66193">
        <ele>441</ele>
        <time>2015-08-20T14:04:38.000Z</time>
      </trkpt>
      <trkpt lat="47.47988" lon="6.66205">
        <ele>440</ele>
        <time>2015-08-20T14:04:39.000Z</time>
      </trkpt>
      <trkpt lat="47.47981" lon="6.66212">
        <ele>440</ele>
        <time>2015-08-20T14:04:40.000Z</time>
      </trkpt>
      <trkpt lat="47.47973" lon="6.66218">
        <ele>440</ele>
        <time>2015-08-20T14:04:41.000Z</time>
      </trkpt>
      <trkpt lat="47.47966" lon="6.66226">
        <ele>440</ele>
        <time>2015-08-20T14:04:42.000Z</time>
      </trkpt>
      <trkpt lat="47.47963" lon="6.66235">
        <ele>440</ele>
        <time>2015-08-20T14:04:43.000Z</time>
      </trkpt>
      <trkpt lat="47.4796" lon="6.66244">
        <ele>440</ele>
        <time>2015-08-20T14:04:44.000Z</time>
      </trkpt>
      <trkpt lat="47.47956" lon="6.6626">
        <ele>439</ele>
        <time>2015-08-20T14:04:45.000Z</time>
      </trkpt>
      <trkpt lat="47.47953" lon="6.66269">
        <ele>439</ele>
        <time>2015-08-20T14:04:46.000Z</time>
      </trkpt>
      <trkpt lat="47.47949" lon="6.66281">
        <ele>439</ele>
        <time>2015-08-20T14:04:47.000Z</time>
      </trkpt>
      <trkpt lat="47.47945" lon="6.66292">
        <ele>439</ele>
        <time>2015-08-20T14:04:48.000Z</time>
      </trkpt>
      <trkpt lat="47.4794" lon="6.66306">
        <ele>438</ele>
        <time>2015-08-20T14:04:49.000Z</time>
      </trkpt>
      <trkpt lat="47.47936" lon="6.66319">
        <ele>438</ele>
        <time>2015-08-20T14:04:50.000Z</time>
      </trkpt>
      <trkpt lat="47.4793" lon="6.66329">
        <ele>438</ele>
        <time>2015-08-20T14:04:51.000Z</time>
      </trkpt>
      <trkpt lat="47.47923" lon="6.66337">
        <ele>437</ele>
        <time>2015-08-20T14:04:52.000Z</time>
      </trkpt>
      <trkpt lat="47.47917" lon="6.66346">
        <ele>436</ele>
        <time>2015-08-20T14:04:53.000Z</time>
      </trkpt>
      <trkpt lat="47.47912" lon="6.66353">
        <ele>435</ele>
        <time>2015-08-20T14:04:54.000Z</time>
      </trkpt>
      <trkpt lat="47.47907" lon="6.66364">
        <ele>435</ele>
        <time>2015-08-20T14:04:55.000Z</time>
      </trkpt>
      <trkpt lat="47.47903" lon="6.66374">
        <ele>435</ele>
        <time>2015-08-20T14:04:56.000Z</time>
      </trkpt>
      <trkpt lat="47.47901" lon="6.66394">
        <ele>435</ele>
        <time>2015-08-20T14:04:57.000Z</time>
      </trkpt>
      <trkpt lat="47.47902" lon="6.6641">
        <ele>436</ele>
        <time>2015-08-20T14:04:58.000Z</time>
      </trkpt>
      <trkpt lat="47.47902" lon="6.66422">
        <ele>437</ele>
        <time>2015-08-20T14:04:59.000Z</time>
      </trkpt>
      <trkpt lat="47.479" lon="6.66429">
        <ele>437</ele>
        <time>2015-08-20T14:05:00.000Z</time>
      </trkpt>
      <trkpt lat="47.47896" lon="6.66434">
        <ele>437</ele>
        <time>2015-08-20T14:05:01.000Z</time>
      </trkpt>
      <trkpt lat="47.47891" lon="6.6644">
        <ele>436</ele>
        <time>2015-08-20T14:05:02.000Z</time>
      </trkpt>
      <trkpt lat="47.4789" lon="6.66445">
        <ele>436</ele>
        <time>2015-08-20T14:05:03.000Z</time>
      </trkpt>
      <trkpt lat="47.4789" lon="6.66452">
        <ele>436</ele>
        <time>2015-08-20T14:05:04.000Z</time>
      </trkpt>
      <trkpt lat="47.47889" lon="6.6646">
        <ele>436</ele>
        <time>2015-08-20T14:05:05.000Z</time>
      </trkpt>
      <trkpt lat="47.47888" lon="6.66467">
        <ele>437</ele>
        <time>2015-08-20T14:05:06.000Z</time>
      </trkpt>
      <trkpt lat="47.47889" lon="6.66473">
        <ele>437</ele>
        <time>2015-08-20T14:05:07.000Z</time>
      </trkpt>
      <trkpt lat="47.4789" lon="6.66482">
        <ele>437</ele>
        <time>2015-08-20T14:05:08.000Z</time>
      </trkpt>
      <trkpt lat="47.47892" lon="6.6649">
        <ele>438</ele>
        <time>2015-08-20T14:05:09.000Z</time>
      </trkpt>
      <trkpt lat="47.47892" lon="6.66497">
        <ele>438</ele>
        <time>2015-08-20T14:05:10.000Z</time>
      </trkpt>
      <trkpt lat="47.47891" lon="6.66503">
        <ele>440</ele>
        <time>2015-08-20T14:05:11.000Z</time>
      </trkpt>
      <trkpt lat="47.47891" lon="6.66507">
        <ele>440</ele>
        <time>2015-08-20T14:05:12.000Z</time>
      </trkpt>
      <trkpt lat="47.47891" lon="6.66512">
        <ele>440</ele>
        <time>2015-08-20T14:05:13.000Z</time>
      </trkpt>
      <trkpt lat="47.47891" lon="6.66516">
        <ele>440</ele>
        <time>2015-08-20T14:05:14.000Z</time>
      </trkpt>
      <trkpt lat="47.47891" lon="6.6652">
        <ele>440</ele>
        <time>2015-08-20T14:05:15.000Z</time>
      </trkpt>
      <trkpt lat="47.47892" lon="6.66526">
        <ele>440</ele>
        <time>2015-08-20T14:05:16.000Z</time>
      </trkpt>
      <trkpt lat="47.47892" lon="6.66533">
        <ele>440</ele>
        <time>2015-08-20T14:05:17.000Z</time>
      </trkpt>
      <trkpt lat="47.47894" lon="6.6654">
        <ele>440</ele>
        <time>2015-08-20T14:05:18.000Z</time>
      </trkpt>
      <trkpt lat="47.47895" lon="6.66547">
        <ele>440</ele>
        <time>2015-08-20T14:05:19.000Z</time>
      </trkpt>
      <trkpt lat="47.47896" lon="6.66553">
        <ele>441</ele>
        <time>2015-08-20T14:05:20.000Z</time>
      </trkpt>
      <trkpt lat="47.47897" lon="6.66558">
        <ele>441</ele>
        <time>2015-08-20T14:05:21.000Z</time>
      </trkpt>
      <trkpt lat="47.47898" lon="6.66563">
        <ele>441</ele>
        <time>2015-08-20T14:05:22.000Z</time>
      </trkpt>
      <trkpt lat="47.47899" lon="6.66567">
        <ele>442</ele>
        <time>2015-08-20T14:05:23.000Z</time>
      </trkpt>
      <trkpt lat="47.47899" lon="6.66572">
        <ele>442</ele>
        <time>2015-08-20T14:05:24.000Z</time>
      </trkpt>
      <trkpt lat="47.479" lon="6.66579">
        <ele>443</ele>
        <time>2015-08-20T14:05:25.000Z</time>
      </trkpt>
      <trkpt lat="47.47901" lon="6.66586">
        <ele>444</ele>
        <time>2015-08-20T14:05:26.000Z</time>
      </trkpt>
      <trkpt lat="47.47901" lon="6.66593">
        <ele>444</ele>
        <time>2015-08-20T14:05:27.000Z</time>
      </trkpt>
      <trkpt lat="47.47902" lon="6.666">
        <ele>444</ele>
        <time>2015-08-20T14:05:28.000Z</time>
      </trkpt>
      <trkpt lat="47.47903" lon="6.66607">
        <ele>444</ele>
        <time>2015-08-20T14:05:29.000Z</time>
      </trkpt>
      <trkpt lat="47.47904" lon="6.66613">
        <ele>444</ele>
        <time>2015-08-20T14:05:30.000Z</time>
      </trkpt>
      <trkpt lat="47.47906" lon="6.66619">
        <ele>444</ele>
        <time>2015-08-20T14:05:31.000Z</time>
      </trkpt>
      <trkpt lat="47.47907" lon="6.66625">
        <ele>444</ele>
        <time>2015-08-20T14:05:32.000Z</time>
      </trkpt>
      <trkpt lat="47.47909" lon="6.66631">
        <ele>444</ele>
        <time>2015-08-20T14:05:33.000Z</time>
      </trkpt>
      <trkpt lat="47.4791" lon="6.66636">
        <ele>444</ele>
        <time>2015-08-20T14:05:34.000Z</time>
      </trkpt>
      <trkpt lat="47.4791" lon="6.66641">
        <ele>445</ele>
        <time>2015-08-20T14:05:35.000Z</time>
      </trkpt>
      <trkpt lat="47.47909" lon="6.66646">
        <ele>445</ele>
        <time>2015-08-20T14:05:36.000Z</time>
      </trkpt>
      <trkpt lat="47.47908" lon="6.66651">
        <ele>446</ele>
        <time>2015-08-20T14:05:37.000Z</time>
      </trkpt>
      <trkpt lat="47.47908" lon="6.66657">
        <ele>446</ele>
        <time>2015-08-20T14:05:38.000Z</time>
      </trkpt>
      <trkpt lat="47.47907" lon="6.66663">
        <ele>447</ele>
        <time>2015-08-20T14:05:39.000Z</time>
      </trkpt>
      <trkpt lat="47.47907" lon="6.6667">
        <ele>447</ele>
        <time>2015-08-20T14:05:40.000Z</time>
      </trkpt>
      <trkpt lat="47.47906" lon="6.66677">
        <ele>447</ele>
        <time>2015-08-20T14:05:41.000Z</time>
      </trkpt>
      <trkpt lat="47.47906" lon="6.66685">
        <ele>446</ele>
        <time>2015-08-20T14:05:42.000Z</time>
      </trkpt>
      <trkpt lat="47.47907" lon="6.66693">
        <ele>446</ele>
        <time>2015-08-20T14:05:43.000Z</time>
      </trkpt>
      <trkpt lat="47.47907" lon="6.66701">
        <ele>446</ele>
        <time>2015-08-20T14:05:44.000Z</time>
      </trkpt>
      <trkpt lat="47.47907" lon="6.6671">
        <ele>446</ele>
        <time>2015-08-20T14:05:45.000Z</time>
      </trkpt>
      <trkpt lat="47.47907" lon="6.66718">
        <ele>446</ele>
        <time>2015-08-20T14:05:46.000Z</time>
      </trkpt>
      <trkpt lat="47.47907" lon="6.6674">
        <ele>447</ele>
        <time>2015-08-20T14:05:47.000Z</time>
      </trkpt>
      <trkpt lat="47.47907" lon="6.66751">
        <ele>448</ele>
        <time>2015-08-20T14:05:48.000Z</time>
      </trkpt>
      <trkpt lat="47.47908" lon="6.66764">
        <ele>448</ele>
        <time>2015-08-20T14:05:49.000Z</time>
      </trkpt>
      <trkpt lat="47.4791" lon="6.66775">
        <ele>447</ele>
        <time>2015-08-20T14:05:50.000Z</time>
      </trkpt>
      <trkpt lat="47.47912" lon="6.66789">
        <ele>447</ele>
        <time>2015-08-20T14:05:51.000Z</time>
      </trkpt>
      <trkpt lat="47.47913" lon="6.66799">
        <ele>448</ele>
        <time>2015-08-20T14:05:52.000Z</time>
      </trkpt>
      <trkpt lat="47.47914" lon="6.66808">
        <ele>448</ele>
        <time>2015-08-20T14:05:53.000Z</time>
      </trkpt>
      <trkpt lat="47.47912" lon="6.66819">
        <ele>448</ele>
        <time>2015-08-20T14:05:54.000Z</time>
      </trkpt>
      <trkpt lat="47.47911" lon="6.66828">
        <ele>449</ele>
        <time>2015-08-20T14:05:55.000Z</time>
      </trkpt>
      <trkpt lat="47.4791" lon="6.66837">
        <ele>449</ele>
        <time>2015-08-20T14:05:56.000Z</time>
      </trkpt>
      <trkpt lat="47.4791" lon="6.66844">
        <ele>449</ele>
        <time>2015-08-20T14:05:57.000Z</time>
      </trkpt>
      <trkpt lat="47.47912" lon="6.66851">
        <ele>449</ele>
        <time>2015-08-20T14:05:58.000Z</time>
      </trkpt>
      <trkpt lat="47.4791" lon="6.66859">
        <ele>449</ele>
        <time>2015-08-20T14:05:59.000Z</time>
      </trkpt>
      <trkpt lat="47.47908" lon="6.66863">
        <ele>449</ele>
        <time>2015-08-20T14:06:00.000Z</time>
      </trkpt>
      <trkpt lat="47.47906" lon="6.66867">
        <ele>448</ele>
        <time>2015-08-20T14:06:01.000Z</time>
      </trkpt>
      <trkpt lat="47.47905" lon="6.66871">
        <ele>448</ele>
        <time>2015-08-20T14:06:02.000Z</time>
      </trkpt>
      <trkpt lat="47.47905" lon="6.66877">
        <ele>448</ele>
        <time>2015-08-20T14:06:03.000Z</time>
      </trkpt>
      <trkpt lat="47.47904" lon="6.66879">
        <ele>448</ele>
        <time>2015-08-20T14:06:04.000Z</time>
      </trkpt>
      <trkpt lat="47.47903" lon="6.66884">
        <ele>448</ele>
        <time>2015-08-20T14:06:05.000Z</time>
      </trkpt>
      <trkpt lat="47.47903" lon="6.66888">
        <ele>449</ele>
        <time>2015-08-20T14:06:06.000Z</time>
      </trkpt>
      <trkpt lat="47.47901" lon="6.6689">
        <ele>449</ele>
        <time>2015-08-20T14:06:07.000Z</time>
      </trkpt>
      <trkpt lat="47.47899" lon="6.66894">
        <ele>449</ele>
        <time>2015-08-20T14:06:08.000Z</time>
      </trkpt>
      <trkpt lat="47.47898" lon="6.66897">
        <ele>449</ele>
        <time>2015-08-20T14:06:09.000Z</time>
      </trkpt>
      <trkpt lat="47.47896" lon="6.66901">
        <ele>449</ele>
        <time>2015-08-20T14:06:10.000Z</time>
      </trkpt>
      <trkpt lat="47.47895" lon="6.66904">
        <ele>449</ele>
        <time>2015-08-20T14:06:11.000Z</time>
      </trkpt>
      <trkpt lat="47.47893" lon="6.66907">
        <ele>449</ele>
        <time>2015-08-20T14:06:12.000Z</time>
      </trkpt>
      <trkpt lat="47.47891" lon="6.66912">
        <ele>449</ele>
        <time>2015-08-20T14:06:13.000Z</time>
      </trkpt>
      <trkpt lat="47.47889" lon="6.66917">
        <ele>448</ele>
        <time>2015-08-20T14:06:14.000Z</time>
      </trkpt>
      <trkpt lat="47.47887" lon="6.66922">
        <ele>450</ele>
        <time>2015-08-20T14:06:15.000Z</time>
      </trkpt>
      <trkpt lat="47.47885" lon="6.66927">
        <ele>450</ele>
        <time>2015-08-20T14:06:16.000Z</time>
      </trkpt>
      <trkpt lat="47.47883" lon="6.66933">
        <ele>450</ele>
        <time>2015-08-20T14:06:17.000Z</time>
      </trkpt>
      <trkpt lat="47.47882" lon="6.66938">
        <ele>450</ele>
        <time>2015-08-20T14:06:18.000Z</time>
      </trkpt>
      <trkpt lat="47.4788" lon="6.66943">
        <ele>450</ele>
        <time>2015-08-20T14:06:19.000Z</time>
      </trkpt>
      <trkpt lat="47.47878" lon="6.66947">
        <ele>450</ele>
        <time>2015-08-20T14:06:20.000Z</time>
      </trkpt>
      <trkpt lat="47.47877" lon="6.66951">
        <ele>450</ele>
        <time>2015-08-20T14:06:21.000Z</time>
      </trkpt>
      <trkpt lat="47.47875" lon="6.66956">
        <ele>450</ele>
        <time>2015-08-20T14:06:22.000Z</time>
      </trkpt>
      <trkpt lat="47.47875" lon="6.66962">
        <ele>450</ele>
        <time>2015-08-20T14:06:23.000Z</time>
      </trkpt>
      <trkpt lat="47.47875" lon="6.66968">
        <ele>450</ele>
        <time>2015-08-20T14:06:24.000Z</time>
      </trkpt>
      <trkpt lat="47.47875" lon="6.66976">
        <ele>450</ele>
        <time>2015-08-20T14:06:25.000Z</time>
      </trkpt>
      <trkpt lat="47.47876" lon="6.66984">
        <ele>450</ele>
        <time>2015-08-20T14:06:26.000Z</time>
      </trkpt>
      <trkpt lat="47.47877" lon="6.66993">
        <ele>451</ele>
        <time>2015-08-20T14:06:27.000Z</time>
      </trkpt>
      <trkpt lat="47.47877" lon="6.67001">
        <ele>451</ele>
        <time>2015-08-20T14:06:28.000Z</time>
      </trkpt>
      <trkpt lat="47.47878" lon="6.67009">
        <ele>450</ele>
        <time>2015-08-20T14:06:29.000Z</time>
      </trkpt>
      <trkpt lat="47.47877" lon="6.67016">
        <ele>450</ele>
        <time>2015-08-20T14:06:30.000Z</time>
      </trkpt>
      <trkpt lat="47.47877" lon="6.67022">
        <ele>450</ele>
        <time>2015-08-20T14:06:31.000Z</time>
      </trkpt>
      <trkpt lat="47.47875" lon="6.67028">
        <ele>450</ele>
        <time>2015-08-20T14:06:32.000Z</time>
      </trkpt>
      <trkpt lat="47.47873" lon="6.67034">
        <ele>450</ele>
        <time>2015-08-20T14:06:33.000Z</time>
      </trkpt>
      <trkpt lat="47.47871" lon="6.67041">
        <ele>450</ele>
        <time>2015-08-20T14:06:34.000Z</time>
      </trkpt>
      <trkpt lat="47.47869" lon="6.67047">
        <ele>449</ele>
        <time>2015-08-20T14:06:35.000Z</time>
      </trkpt>
      <trkpt lat="47.47867" lon="6.67054">
        <ele>449</ele>
        <time>2015-08-20T14:06:36.000Z</time>
      </trkpt>
      <trkpt lat="47.47866" lon="6.6706">
        <ele>449</ele>
        <time>2015-08-20T14:06:37.000Z</time>
      </trkpt>
      <trkpt lat="47.47865" lon="6.67067">
        <ele>449</ele>
        <time>2015-08-20T14:06:38.000Z</time>
      </trkpt>
      <trkpt lat="47.47863" lon="6.67073">
        <ele>449</ele>
        <time>2015-08-20T14:06:39.000Z</time>
      </trkpt>
      <trkpt lat="47.47861" lon="6.67079">
        <ele>448</ele>
        <time>2015-08-20T14:06:40.000Z</time>
      </trkpt>
      <trkpt lat="47.47859" lon="6.67084">
        <ele>446</ele>
        <time>2015-08-20T14:06:41.000Z</time>
      </trkpt>
      <trkpt lat="47.47858" lon="6.6709">
        <ele>446</ele>
        <time>2015-08-20T14:06:42.000Z</time>
      </trkpt>
      <trkpt lat="47.47857" lon="6.67095">
        <ele>446</ele>
        <time>2015-08-20T14:06:43.000Z</time>
      </trkpt>
      <trkpt lat="47.47856" lon="6.67101">
        <ele>446</ele>
        <time>2015-08-20T14:06:44.000Z</time>
      </trkpt>
      <trkpt lat="47.47856" lon="6.67107">
        <ele>446</ele>
        <time>2015-08-20T14:06:45.000Z</time>
      </trkpt>
      <trkpt lat="47.47856" lon="6.67112">
        <ele>446</ele>
        <time>2015-08-20T14:06:46.000Z</time>
      </trkpt>
      <trkpt lat="47.47856" lon="6.67119">
        <ele>445</ele>
        <time>2015-08-20T14:06:47.000Z</time>
      </trkpt>
      <trkpt lat="47.47857" lon="6.6715">
        <ele>444</ele>
        <time>2015-08-20T14:06:48.000Z</time>
      </trkpt>
      <trkpt lat="47.47856" lon="6.6716">
        <ele>444</ele>
        <time>2015-08-20T14:06:49.000Z</time>
      </trkpt>
      <trkpt lat="47.47856" lon="6.67169">
        <ele>442</ele>
        <time>2015-08-20T14:06:50.000Z</time>
      </trkpt>
      <trkpt lat="47.47858" lon="6.67179">
        <ele>443</ele>
        <time>2015-08-20T14:06:51.000Z</time>
      </trkpt>
      <trkpt lat="47.47857" lon="6.67187">
        <ele>443</ele>
        <time>2015-08-20T14:06:52.000Z</time>
      </trkpt>
      <trkpt lat="47.47857" lon="6.67195">
        <ele>443</ele>
        <time>2015-08-20T14:06:53.000Z</time>
      </trkpt>
      <trkpt lat="47.47856" lon="6.67203">
        <ele>443</ele>
        <time>2015-08-20T14:06:54.000Z</time>
      </trkpt>
      <trkpt lat="47.47855" lon="6.67214">
        <ele>443</ele>
        <time>2015-08-20T14:06:55.000Z</time>
      </trkpt>
      <trkpt lat="47.47855" lon="6.67223">
        <ele>443</ele>
        <time>2015-08-20T14:06:56.000Z</time>
      </trkpt>
      <trkpt lat="47.47853" lon="6.67232">
        <ele>442</ele>
        <time>2015-08-20T14:06:57.000Z</time>
      </trkpt>
      <trkpt lat="47.47851" lon="6.67238">
        <ele>442</ele>
        <time>2015-08-20T14:06:58.000Z</time>
      </trkpt>
      <trkpt lat="47.4785" lon="6.67245">
        <ele>442</ele>
        <time>2015-08-20T14:06:59.000Z</time>
      </trkpt>
      <trkpt lat="47.47849" lon="6.67254">
        <ele>442</ele>
        <time>2015-08-20T14:07:00.000Z</time>
      </trkpt>
      <trkpt lat="47.47853" lon="6.67281">
        <ele>442</ele>
        <time>2015-08-20T14:07:01.000Z</time>
      </trkpt>
      <trkpt lat="47.47853" lon="6.67295">
        <ele>443</ele>
        <time>2015-08-20T14:07:02.000Z</time>
      </trkpt>
      <trkpt lat="47.47853" lon="6.67306">
        <ele>443</ele>
        <time>2015-08-20T14:07:03.000Z</time>
      </trkpt>
      <trkpt lat="47.47852" lon="6.67316">
        <ele>443</ele>
        <time>2015-08-20T14:07:04.000Z</time>
      </trkpt>
      <trkpt lat="47.47851" lon="6.67326">
        <ele>442</ele>
        <time>2015-08-20T14:07:05.000Z</time>
      </trkpt>
      <trkpt lat="47.47851" lon="6.67335">
        <ele>443</ele>
        <time>2015-08-20T14:07:06.000Z</time>
      </trkpt>
      <trkpt lat="47.47852" lon="6.67342">
        <ele>443</ele>
        <time>2015-08-20T14:07:07.000Z</time>
      </trkpt>
      <trkpt lat="47.47851" lon="6.67349">
        <ele>443</ele>
        <time>2015-08-20T14:07:08.000Z</time>
      </trkpt>
      <trkpt lat="47.47851" lon="6.67357">
        <ele>443</ele>
        <time>2015-08-20T14:07:09.000Z</time>
      </trkpt>
      <trkpt lat="47.4785" lon="6.67363">
        <ele>443</ele>
        <time>2015-08-20T14:07:10.000Z</time>
      </trkpt>
      <trkpt lat="47.47848" lon="6.6737">
        <ele>443</ele>
        <time>2015-08-20T14:07:11.000Z</time>
      </trkpt>
      <trkpt lat="47.47848" lon="6.67374">
        <ele>443</ele>
        <time>2015-08-20T14:07:12.000Z</time>
      </trkpt>
      <trkpt lat="47.47845" lon="6.67381">
        <ele>443</ele>
        <time>2015-08-20T14:07:13.000Z</time>
      </trkpt>
      <trkpt lat="47.47846" lon="6.67386">
        <ele>444</ele>
        <time>2015-08-20T14:07:47.000Z</time>
      </trkpt>
      <trkpt lat="47.47847" lon="6.67388">
        <ele>444</ele>
        <time>2015-08-20T14:07:48.000Z</time>
      </trkpt>
      <trkpt lat="47.47849" lon="6.67393">
        <ele>444</ele>
        <time>2015-08-20T14:07:57.000Z</time>
      </trkpt>
      <trkpt lat="47.4785" lon="6.67394">
        <ele>444</ele>
        <time>2015-08-20T14:07:58.000Z</time>
      </trkpt>
      <trkpt lat="47.47847" lon="6.67398">
        <ele>444</ele>
        <time>2015-08-20T14:09:02.000Z</time>
      </trkpt>
      <trkpt lat="47.47847" lon="6.67399">
        <ele>444</ele>
        <time>2015-08-20T14:09:03.000Z</time>
      </trkpt>
      <trkpt lat="47.47845" lon="6.67403">
        <ele>444</ele>
        <time>2015-08-20T14:09:05.000Z</time>
      </trkpt>
      <trkpt lat="47.47844" lon="6.67405">
        <ele>444</ele>
        <time>2015-08-20T14:09:06.000Z</time>
      </trkpt>
      <trkpt lat="47.47843" lon="6.67409">
        <ele>445</ele>
        <time>2015-08-20T14:09:07.000Z</time>
      </trkpt>
      <trkpt lat="47.47842" lon="6.67413">
        <ele>445</ele>
        <time>2015-08-20T14:09:08.000Z</time>
      </trkpt>
      <trkpt lat="47.4784" lon="6.67417">
        <ele>445</ele>
        <time>2015-08-20T14:09:09.000Z</time>
      </trkpt>
      <trkpt lat="47.47839" lon="6.67422">
        <ele>445</ele>
        <time>2015-08-20T14:09:10.000Z</time>
      </trkpt>
      <trkpt lat="47.47837" lon="6.67428">
        <ele>445</ele>
        <time>2015-08-20T14:09:11.000Z</time>
      </trkpt>
      <trkpt lat="47.47835" lon="6.67434">
        <ele>444</ele>
        <time>2015-08-20T14:09:12.000Z</time>
      </trkpt>
      <trkpt lat="47.47834" lon="6.67441">
        <ele>444</ele>
        <time>2015-08-20T14:09:13.000Z</time>
      </trkpt>
      <trkpt lat="47.47833" lon="6.67448">
        <ele>445</ele>
        <time>2015-08-20T14:09:14.000Z</time>
      </trkpt>
      <trkpt lat="47.47831" lon="6.67456">
        <ele>445</ele>
        <time>2015-08-20T14:09:15.000Z</time>
      </trkpt>
      <trkpt lat="47.47829" lon="6.67479">
        <ele>445</ele>
        <time>2015-08-20T14:09:16.000Z</time>
      </trkpt>
      <trkpt lat="47.47829" lon="6.6749">
        <ele>445</ele>
        <time>2015-08-20T14:09:17.000Z</time>
      </trkpt>
      <trkpt lat="47.47828" lon="6.67494">
        <ele>446</ele>
        <time>2015-08-20T14:09:18.000Z</time>
      </trkpt>
      <trkpt lat="47.47828" lon="6.675">
        <ele>446</ele>
        <time>2015-08-20T14:09:19.000Z</time>
      </trkpt>
      <trkpt lat="47.47828" lon="6.67507">
        <ele>446</ele>
        <time>2015-08-20T14:09:20.000Z</time>
      </trkpt>
      <trkpt lat="47.47827" lon="6.67512">
        <ele>446</ele>
        <time>2015-08-20T14:09:21.000Z</time>
      </trkpt>
      <trkpt lat="47.47826" lon="6.67517">
        <ele>446</ele>
        <time>2015-08-20T14:09:22.000Z</time>
      </trkpt>
      <trkpt lat="47.47825" lon="6.67525">
        <ele>446</ele>
        <time>2015-08-20T14:09:23.000Z</time>
      </trkpt>
      <trkpt lat="47.47823" lon="6.67535">
        <ele>445</ele>
        <time>2015-08-20T14:09:24.000Z</time>
      </trkpt>
      <trkpt lat="47.4782" lon="6.67543">
        <ele>445</ele>
        <time>2015-08-20T14:09:25.000Z</time>
      </trkpt>
      <trkpt lat="47.47821" lon="6.67553">
        <ele>445</ele>
        <time>2015-08-20T14:09:26.000Z</time>
      </trkpt>
      <trkpt lat="47.4782" lon="6.6756">
        <ele>445</ele>
        <time>2015-08-20T14:09:27.000Z</time>
      </trkpt>
      <trkpt lat="47.47819" lon="6.67563">
        <ele>445</ele>
        <time>2015-08-20T14:09:28.000Z</time>
      </trkpt>
      <trkpt lat="47.47821" lon="6.67567">
        <ele>445</ele>
        <time>2015-08-20T14:09:31.000Z</time>
      </trkpt>
      <trkpt lat="47.47821" lon="6.67569">
        <ele>445</ele>
        <time>2015-08-20T14:09:32.000Z</time>
      </trkpt>
      <trkpt lat="47.47823" lon="6.67574">
        <ele>445</ele>
        <time>2015-08-20T14:09:39.000Z</time>
      </trkpt>
      <trkpt lat="47.47823" lon="6.67575">
        <ele>445</ele>
        <time>2015-08-20T14:09:40.000Z</time>
      </trkpt>
      <trkpt lat="47.47822" lon="6.67581">
        <ele>445</ele>
        <time>2015-08-20T14:09:46.000Z</time>
      </trkpt>
      <trkpt lat="47.47822" lon="6.67583">
        <ele>445</ele>
        <time>2015-08-20T14:09:47.000Z</time>
      </trkpt>
      <trkpt lat="47.47821" lon="6.67586">
        <ele>445</ele>
        <time>2015-08-20T14:09:48.000Z</time>
      </trkpt>
      <trkpt lat="47.4782" lon="6.6759">
        <ele>445</ele>
        <time>2015-08-20T14:09:49.000Z</time>
      </trkpt>
      <trkpt lat="47.4782" lon="6.67594">
        <ele>445</ele>
        <time>2015-08-20T14:09:50.000Z</time>
      </trkpt>
      <trkpt lat="47.4782" lon="6.67599">
        <ele>445</ele>
        <time>2015-08-20T14:09:51.000Z</time>
      </trkpt>
      <trkpt lat="47.47819" lon="6.67604">
        <ele>445</ele>
        <time>2015-08-20T14:09:52.000Z</time>
      </trkpt>
      <trkpt lat="47.47818" lon="6.67609">
        <ele>445</ele>
        <time>2015-08-20T14:09:53.000Z</time>
      </trkpt>
      <trkpt lat="47.47817" lon="6.67615">
        <ele>445</ele>
        <time>2015-08-20T14:09:54.000Z</time>
      </trkpt>
      <trkpt lat="47.47816" lon="6.67622">
        <ele>445</ele>
        <time>2015-08-20T14:09:55.000Z</time>
      </trkpt>
      <trkpt lat="47.47811" lon="6.67645">
        <ele>445</ele>
        <time>2015-08-20T14:09:56.000Z</time>
      </trkpt>
      <trkpt lat="47.4781" lon="6.67654">
        <ele>444</ele>
        <time>2015-08-20T14:09:57.000Z</time>
      </trkpt>
      <trkpt lat="47.47808" lon="6.67662">
        <ele>444</ele>
        <time>2015-08-20T14:09:58.000Z</time>
      </trkpt>
      <trkpt lat="47.47807" lon="6.67674">
        <ele>444</ele>
        <time>2015-08-20T14:09:59.000Z</time>
      </trkpt>
      <trkpt lat="47.47806" lon="6.67684">
        <ele>444</ele>
        <time>2015-08-20T14:10:00.000Z</time>
      </trkpt>
      <trkpt lat="47.47806" lon="6.67697">
        <ele>444</ele>
        <time>2015-08-20T14:10:01.000Z</time>
      </trkpt>
      <trkpt lat="47.47806" lon="6.67711">
        <ele>444</ele>
        <time>2015-08-20T14:10:02.000Z</time>
      </trkpt>
      <trkpt lat="47.47806" lon="6.67721">
        <ele>444</ele>
        <time>2015-08-20T14:10:03.000Z</time>
      </trkpt>
      <trkpt lat="47.47806" lon="6.67736">
        <ele>444</ele>
        <time>2015-08-20T14:10:04.000Z</time>
      </trkpt>
      <trkpt lat="47.47807" lon="6.67747">
        <ele>444</ele>
        <time>2015-08-20T14:10:05.000Z</time>
      </trkpt>
      <trkpt lat="47.47806" lon="6.67758">
        <ele>442</ele>
        <time>2015-08-20T14:10:06.000Z</time>
      </trkpt>
      <trkpt lat="47.47805" lon="6.67768">
        <ele>442</ele>
        <time>2015-08-20T14:10:07.000Z</time>
      </trkpt>
      <trkpt lat="47.47803" lon="6.67778">
        <ele>442</ele>
        <time>2015-08-20T14:10:08.000Z</time>
      </trkpt>
      <trkpt lat="47.47804" lon="6.67788">
        <ele>442</ele>
        <time>2015-08-20T14:10:09.000Z</time>
      </trkpt>
      <trkpt lat="47.47804" lon="6.67798">
        <ele>441</ele>
        <time>2015-08-20T14:10:10.000Z</time>
      </trkpt>
      <trkpt lat="47.47805" lon="6.67806">
        <ele>441</ele>
        <time>2015-08-20T14:10:11.000Z</time>
      </trkpt>
      <trkpt lat="47.47806" lon="6.67812">
        <ele>441</ele>
        <time>2015-08-20T14:10:12.000Z</time>
      </trkpt>
      <trkpt lat="47.47806" lon="6.67817">
        <ele>440</ele>
        <time>2015-08-20T14:10:13.000Z</time>
      </trkpt>
      <trkpt lat="47.47807" lon="6.67823">
        <ele>440</ele>
        <time>2015-08-20T14:10:14.000Z</time>
      </trkpt>
      <trkpt lat="47.47808" lon="6.6783">
        <ele>440</ele>
        <time>2015-08-20T14:10:15.000Z</time>
      </trkpt>
      <trkpt lat="47.47809" lon="6.67837">
        <ele>436</ele>
        <time>2015-08-20T14:10:16.000Z</time>
      </trkpt>
      <trkpt lat="47.47811" lon="6.67841">
        <ele>436</ele>
        <time>2015-08-20T14:10:17.000Z</time>
      </trkpt>
      <trkpt lat="47.47813" lon="6.67849">
        <ele>436</ele>
        <time>2015-08-20T14:10:18.000Z</time>
      </trkpt>
      <trkpt lat="47.47813" lon="6.67859">
        <ele>436</ele>
        <time>2015-08-20T14:10:19.000Z</time>
      </trkpt>
      <trkpt lat="47.47815" lon="6.67872">
        <ele>435</ele>
        <time>2015-08-20T14:10:20.000Z</time>
      </trkpt>
      <trkpt lat="47.47817" lon="6.67885">
        <ele>434</ele>
        <time>2015-08-20T14:10:21.000Z</time>
      </trkpt>
      <trkpt lat="47.47817" lon="6.67894">
        <ele>433</ele>
        <time>2015-08-20T14:10:22.000Z</time>
      </trkpt>
      <trkpt lat="47.47817" lon="6.679">
        <ele>432</ele>
        <time>2015-08-20T14:10:23.000Z</time>
      </trkpt>
      <trkpt lat="47.47817" lon="6.67907">
        <ele>431</ele>
        <time>2015-08-20T14:10:24.000Z</time>
      </trkpt>
      <trkpt lat="47.47818" lon="6.67913">
        <ele>430</ele>
        <time>2015-08-20T14:10:25.000Z</time>
      </trkpt>
      <trkpt lat="47.47819" lon="6.67919">
        <ele>427</ele>
        <time>2015-08-20T14:10:26.000Z</time>
      </trkpt>
      <trkpt lat="47.47821" lon="6.67926">
        <ele>427</ele>
        <time>2015-08-20T14:10:27.000Z</time>
      </trkpt>
      <trkpt lat="47.47823" lon="6.67933">
        <ele>427</ele>
        <time>2015-08-20T14:10:28.000Z</time>
      </trkpt>
      <trkpt lat="47.47821" lon="6.67937">
        <ele>427</ele>
        <time>2015-08-20T14:10:29.000Z</time>
      </trkpt>
      <trkpt lat="47.47821" lon="6.67942">
        <ele>427</ele>
        <time>2015-08-20T14:10:30.000Z</time>
      </trkpt>
      <trkpt lat="47.47822" lon="6.67948">
        <ele>427</ele>
        <time>2015-08-20T14:10:31.000Z</time>
      </trkpt>
      <trkpt lat="47.47822" lon="6.67955">
        <ele>427</ele>
        <time>2015-08-20T14:10:32.000Z</time>
      </trkpt>
      <trkpt lat="47.47823" lon="6.67962">
        <ele>426</ele>
        <time>2015-08-20T14:10:33.000Z</time>
      </trkpt>
      <trkpt lat="47.47836" lon="6.67975">
        <ele>413</ele>
        <time>2015-08-20T14:10:34.000Z</time>
      </trkpt>
      <trkpt lat="47.47843" lon="6.67983">
        <ele>414</ele>
        <time>2015-08-20T14:10:35.000Z</time>
      </trkpt>
      <trkpt lat="47.47846" lon="6.67988">
        <ele>414</ele>
        <time>2015-08-20T14:10:36.000Z</time>
      </trkpt>
      <trkpt lat="47.47847" lon="6.67993">
        <ele>414</ele>
        <time>2015-08-20T14:10:37.000Z</time>
      </trkpt>
      <trkpt lat="47.4785" lon="6.67998">
        <ele>413</ele>
        <time>2015-08-20T14:10:38.000Z</time>
      </trkpt>
      <trkpt lat="47.4785" lon="6.68002">
        <ele>411</ele>
        <time>2015-08-20T14:10:39.000Z</time>
      </trkpt>
      <trkpt lat="47.47853" lon="6.68009">
        <ele>410</ele>
        <time>2015-08-20T14:10:40.000Z</time>
      </trkpt>
      <trkpt lat="47.47858" lon="6.68015">
        <ele>409</ele>
        <time>2015-08-20T14:10:41.000Z</time>
      </trkpt>
      <trkpt lat="47.47863" lon="6.68025">
        <ele>407</ele>
        <time>2015-08-20T14:10:42.000Z</time>
      </trkpt>
      <trkpt lat="47.47869" lon="6.68034">
        <ele>406</ele>
        <time>2015-08-20T14:10:43.000Z</time>
      </trkpt>
      <trkpt lat="47.47875" lon="6.68044">
        <ele>405</ele>
        <time>2015-08-20T14:10:44.000Z</time>
      </trkpt>
      <trkpt lat="47.47881" lon="6.68053">
        <ele>404</ele>
        <time>2015-08-20T14:10:45.000Z</time>
      </trkpt>
      <trkpt lat="47.47888" lon="6.68061">
        <ele>403</ele>
        <time>2015-08-20T14:10:46.000Z</time>
      </trkpt>
      <trkpt lat="47.47891" lon="6.68066">
        <ele>402</ele>
        <time>2015-08-20T14:10:47.000Z</time>
      </trkpt>
      <trkpt lat="47.47894" lon="6.68072">
        <ele>402</ele>
        <time>2015-08-20T14:10:48.000Z</time>
      </trkpt>
      <trkpt lat="47.47896" lon="6.68076">
        <ele>401</ele>
        <time>2015-08-20T14:10:50.000Z</time>
      </trkpt>
      <trkpt lat="47.47895" lon="6.68088">
        <ele>398</ele>
        <time>2015-08-20T14:10:51.000Z</time>
      </trkpt>
      <trkpt lat="47.47898" lon="6.68099">
        <ele>398</ele>
        <time>2015-08-20T14:10:52.000Z</time>
      </trkpt>
      <trkpt lat="47.479" lon="6.68111">
        <ele>398</ele>
        <time>2015-08-20T14:10:53.000Z</time>
      </trkpt>
      <trkpt lat="47.479" lon="6.68122">
        <ele>398</ele>
        <time>2015-08-20T14:10:54.000Z</time>
      </trkpt>
      <trkpt lat="47.47903" lon="6.6814">
        <ele>396</ele>
        <time>2015-08-20T14:10:55.000Z</time>
      </trkpt>
      <trkpt lat="47.47901" lon="6.68153">
        <ele>395</ele>
        <time>2015-08-20T14:10:56.000Z</time>
      </trkpt>
      <trkpt lat="47.47901" lon="6.68165">
        <ele>394</ele>
        <time>2015-08-20T14:10:57.000Z</time>
      </trkpt>
      <trkpt lat="47.47901" lon="6.68175">
        <ele>389</ele>
        <time>2015-08-20T14:10:58.000Z</time>
      </trkpt>
      <trkpt lat="47.47899" lon="6.68185">
        <ele>388</ele>
        <time>2015-08-20T14:10:59.000Z</time>
      </trkpt>
      <trkpt lat="47.47897" lon="6.68193">
        <ele>388</ele>
        <time>2015-08-20T14:11:00.000Z</time>
      </trkpt>
      <trkpt lat="47.4789" lon="6.68202">
        <ele>387</ele>
        <time>2015-08-20T14:11:01.000Z</time>
      </trkpt>
      <trkpt lat="47.47888" lon="6.68209">
        <ele>387</ele>
        <time>2015-08-20T14:11:02.000Z</time>
      </trkpt>
      <trkpt lat="47.47883" lon="6.68212">
        <ele>387</ele>
        <time>2015-08-20T14:11:03.000Z</time>
      </trkpt>
      <trkpt lat="47.47882" lon="6.68223">
        <ele>386</ele>
        <time>2015-08-20T14:11:04.000Z</time>
      </trkpt>
      <trkpt lat="47.4788" lon="6.68229">
        <ele>386</ele>
        <time>2015-08-20T14:11:05.000Z</time>
      </trkpt>
      <trkpt lat="47.4788" lon="6.6824">
        <ele>385</ele>
        <time>2015-08-20T14:11:06.000Z</time>
      </trkpt>
      <trkpt lat="47.47879" lon="6.68251">
        <ele>376</ele>
        <time>2015-08-20T14:11:07.000Z</time>
      </trkpt>
      <trkpt lat="47.4788" lon="6.68267">
        <ele>375</ele>
        <time>2015-08-20T14:11:08.000Z</time>
      </trkpt>
      <trkpt lat="47.4788" lon="6.68279">
        <ele>374</ele>
        <time>2015-08-20T14:11:09.000Z</time>
      </trkpt>
      <trkpt lat="47.47881" lon="6.68287">
        <ele>374</ele>
        <time>2015-08-20T14:11:10.000Z</time>
      </trkpt>
      <trkpt lat="47.47882" lon="6.68295">
        <ele>373</ele>
        <time>2015-08-20T14:11:11.000Z</time>
      </trkpt>
      <trkpt lat="47.47881" lon="6.68302">
        <ele>373</ele>
        <time>2015-08-20T14:11:12.000Z</time>
      </trkpt>
      <trkpt lat="47.47881" lon="6.68311">
        <ele>372</ele>
        <time>2015-08-20T14:11:13.000Z</time>
      </trkpt>
      <trkpt lat="47.47879" lon="6.6832">
        <ele>372</ele>
        <time>2015-08-20T14:11:14.000Z</time>
      </trkpt>
      <trkpt lat="47.47878" lon="6.6833">
        <ele>371</ele>
        <time>2015-08-20T14:11:15.000Z</time>
      </trkpt>
      <trkpt lat="47.47875" lon="6.68337">
        <ele>366</ele>
        <time>2015-08-20T14:11:16.000Z</time>
      </trkpt>
      <trkpt lat="47.47873" lon="6.68344">
        <ele>366</ele>
        <time>2015-08-20T14:11:17.000Z</time>
      </trkpt>
      <trkpt lat="47.47872" lon="6.68349">
        <ele>366</ele>
        <time>2015-08-20T14:11:18.000Z</time>
      </trkpt>
      <trkpt lat="47.47872" lon="6.68357">
        <ele>366</ele>
        <time>2015-08-20T14:11:19.000Z</time>
      </trkpt>
      <trkpt lat="47.47872" lon="6.68363">
        <ele>366</ele>
        <time>2015-08-20T14:11:21.000Z</time>
      </trkpt>
      <trkpt lat="47.47874" lon="6.68364">
        <ele>366</ele>
        <time>2015-08-20T14:11:22.000Z</time>
      </trkpt>
      <trkpt lat="47.47873" lon="6.6837">
        <ele>366</ele>
        <time>2015-08-20T14:11:36.000Z</time>
      </trkpt>
      <trkpt lat="47.47874" lon="6.68371">
        <ele>366</ele>
        <time>2015-08-20T14:11:37.000Z</time>
      </trkpt>
      <trkpt lat="47.47875" lon="6.68375">
        <ele>366</ele>
        <time>2015-08-20T14:11:39.000Z</time>
      </trkpt>
      <trkpt lat="47.47876" lon="6.68377">
        <ele>365</ele>
        <time>2015-08-20T14:11:40.000Z</time>
      </trkpt>
      <trkpt lat="47.47879" lon="6.68381">
        <ele>365</ele>
        <time>2015-08-20T14:11:58.000Z</time>
      </trkpt>
      <trkpt lat="47.4788" lon="6.6838">
        <ele>365</ele>
        <time>2015-08-20T14:11:59.000Z</time>
      </trkpt>
      <trkpt lat="47.47883" lon="6.68376">
        <ele>365</ele>
        <time>2015-08-20T14:12:02.000Z</time>
      </trkpt>
      <trkpt lat="47.47884" lon="6.68375">
        <ele>365</ele>
        <time>2015-08-20T14:12:03.000Z</time>
      </trkpt>
      <trkpt lat="47.47887" lon="6.68378">
        <ele>365</ele>
        <time>2015-08-20T14:12:06.000Z</time>
      </trkpt>
      <trkpt lat="47.47888" lon="6.68381">
        <ele>365</ele>
        <time>2015-08-20T14:12:07.000Z</time>
      </trkpt>
      <trkpt lat="47.4789" lon="6.68387">
        <ele>365</ele>
        <time>2015-08-20T14:12:09.000Z</time>
      </trkpt>
      <trkpt lat="47.47891" lon="6.68389">
        <ele>365</ele>
        <time>2015-08-20T14:12:10.000Z</time>
      </trkpt>
      <trkpt lat="47.47893" lon="6.68392">
        <ele>365</ele>
        <time>2015-08-20T14:12:12.000Z</time>
      </trkpt>
      <trkpt lat="47.47894" lon="6.68394">
        <ele>364</ele>
        <time>2015-08-20T14:12:13.000Z</time>
      </trkpt>
      <trkpt lat="47.47896" lon="6.68399">
        <ele>364</ele>
        <time>2015-08-20T14:12:15.000Z</time>
      </trkpt>
      <trkpt lat="47.47898" lon="6.68402">
        <ele>364</ele>
        <time>2015-08-20T14:12:16.000Z</time>
      </trkpt>
      <trkpt lat="47.479" lon="6.68406">
        <ele>364</ele>
        <time>2015-08-20T14:12:18.000Z</time>
      </trkpt>
      <trkpt lat="47.47902" lon="6.68408">
        <ele>364</ele>
        <time>2015-08-20T14:12:19.000Z</time>
      </trkpt>
      <trkpt lat="47.47906" lon="6.68409">
        <ele>363</ele>
        <time>2015-08-20T14:12:21.000Z</time>
      </trkpt>
      <trkpt lat="47.47909" lon="6.68409">
        <ele>363</ele>
        <time>2015-08-20T14:12:22.000Z</time>
      </trkpt>
      <trkpt lat="47.47913" lon="6.6841">
        <ele>363</ele>
        <time>2015-08-20T14:12:24.000Z</time>
      </trkpt>
      <trkpt lat="47.47915" lon="6.6841">
        <ele>363</ele>
        <time>2015-08-20T14:12:25.000Z</time>
      </trkpt>
      <trkpt lat="47.47919" lon="6.68408">
        <ele>363</ele>
        <time>2015-08-20T14:12:27.000Z</time>
      </trkpt>
      <trkpt lat="47.47921" lon="6.68407">
        <ele>363</ele>
        <time>2015-08-20T14:12:28.000Z</time>
      </trkpt>
      <trkpt lat="47.47923" lon="6.68405">
        <ele>364</ele>
        <time>2015-08-20T14:12:29.000Z</time>
      </trkpt>
      <trkpt lat="47.47925" lon="6.68404">
        <ele>364</ele>
        <time>2015-08-20T14:12:30.000Z</time>
      </trkpt>
      <trkpt lat="47.47929" lon="6.68401">
        <ele>364</ele>
        <time>2015-08-20T14:12:32.000Z</time>
      </trkpt>
      <trkpt lat="47.47931" lon="6.684">
        <ele>364</ele>
        <time>2015-08-20T14:12:33.000Z</time>
      </trkpt>
      <trkpt lat="47.47935" lon="6.68399">
        <ele>364</ele>
        <time>2015-08-20T14:12:35.000Z</time>
      </trkpt>
      <trkpt lat="47.47937" lon="6.68398">
        <ele>365</ele>
        <time>2015-08-20T14:12:36.000Z</time>
      </trkpt>
      <trkpt lat="47.4794" lon="6.68399">
        <ele>365</ele>
        <time>2015-08-20T14:12:38.000Z</time>
      </trkpt>
      <trkpt lat="47.47942" lon="6.68397">
        <ele>365</ele>
        <time>2015-08-20T14:12:39.000Z</time>
      </trkpt>
      <trkpt lat="47.47945" lon="6.68395">
        <ele>365</ele>
        <time>2015-08-20T14:12:42.000Z</time>
      </trkpt>
      <trkpt lat="47.47946" lon="6.68394">
        <ele>365</ele>
        <time>2015-08-20T14:12:43.000Z</time>
      </trkpt>
      <trkpt lat="47.47949" lon="6.68391">
        <ele>365</ele>
        <time>2015-08-20T14:12:46.000Z</time>
      </trkpt>
      <trkpt lat="47.47951" lon="6.6839">
        <ele>365</ele>
        <time>2015-08-20T14:12:47.000Z</time>
      </trkpt>
      <trkpt lat="47.47954" lon="6.68386">
        <ele>366</ele>
        <time>2015-08-20T14:12:50.000Z</time>
      </trkpt>
      <trkpt lat="47.47955" lon="6.68385">
        <ele>366</ele>
        <time>2015-08-20T14:12:51.000Z</time>
      </trkpt>
      <trkpt lat="47.47957" lon="6.68382">
        <ele>366</ele>
        <time>2015-08-20T14:12:53.000Z</time>
      </trkpt>
      <trkpt lat="47.47958" lon="6.6838">
        <ele>366</ele>
        <time>2015-08-20T14:12:54.000Z</time>
      </trkpt>
      <trkpt lat="47.47961" lon="6.68376">
        <ele>366</ele>
        <time>2015-08-20T14:12:57.000Z</time>
      </trkpt>
      <trkpt lat="47.47962" lon="6.68375">
        <ele>366</ele>
        <time>2015-08-20T14:12:58.000Z</time>
      </trkpt>
      <trkpt lat="47.47964" lon="6.68372">
        <ele>366</ele>
        <time>2015-08-20T14:13:01.000Z</time>
      </trkpt>
      <trkpt lat="47.47965" lon="6.68371">
        <ele>366</ele>
        <time>2015-08-20T14:13:02.000Z</time>
      </trkpt>
      <trkpt lat="47.47969" lon="6.68371">
        <ele>367</ele>
        <time>2015-08-20T14:13:09.000Z</time>
      </trkpt>
      <trkpt lat="47.4797" lon="6.68371">
        <ele>367</ele>
        <time>2015-08-20T14:13:10.000Z</time>
      </trkpt>
      <trkpt lat="47.47974" lon="6.6837">
        <ele>367</ele>
        <time>2015-08-20T14:13:13.000Z</time>
      </trkpt>
      <trkpt lat="47.47976" lon="6.68369">
        <ele>367</ele>
        <time>2015-08-20T14:13:14.000Z</time>
      </trkpt>
      <trkpt lat="47.4798" lon="6.68367">
        <ele>367</ele>
        <time>2015-08-20T14:13:16.000Z</time>
      </trkpt>
      <trkpt lat="47.47982" lon="6.68366">
        <ele>367</ele>
        <time>2015-08-20T14:13:17.000Z</time>
      </trkpt>
      <trkpt lat="47.47985" lon="6.68368">
        <ele>367</ele>
        <time>2015-08-20T14:13:20.000Z</time>
      </trkpt>
      <trkpt lat="47.47986" lon="6.68369">
        <ele>367</ele>
        <time>2015-08-20T14:13:21.000Z</time>
      </trkpt>
      <trkpt lat="47.4799" lon="6.6837">
        <ele>367</ele>
        <time>2015-08-20T14:13:25.000Z</time>
      </trkpt>
      <trkpt lat="47.47991" lon="6.6837">
        <ele>367</ele>
        <time>2015-08-20T14:13:26.000Z</time>
      </trkpt>
      <trkpt lat="47.47995" lon="6.6837">
        <ele>367</ele>
        <time>2015-08-20T14:13:39.000Z</time>
      </trkpt>
      <trkpt lat="47.47995" lon="6.6837">
        <ele>367</ele>
        <time>2015-08-20T14:13:40.000Z</time>
      </trkpt>
      <trkpt lat="47.47999" lon="6.68369">
        <ele>367</ele>
        <time>2015-08-20T14:13:52.000Z</time>
      </trkpt>
      <trkpt lat="47.48" lon="6.68369">
        <ele>367</ele>
        <time>2015-08-20T14:13:53.000Z</time>
      </trkpt>
      <trkpt lat="47.48003" lon="6.68367">
        <ele>372</ele>
        <time>2015-08-20T14:14:07.000Z</time>
      </trkpt>
      <trkpt lat="47.48005" lon="6.68368">
        <ele>372</ele>
        <time>2015-08-20T14:14:08.000Z</time>
      </trkpt>
      <trkpt lat="47.48009" lon="6.68368">
        <ele>372</ele>
        <time>2015-08-20T14:14:14.000Z</time>
      </trkpt>
      <trkpt lat="47.4801" lon="6.68368">
        <ele>372</ele>
        <time>2015-08-20T14:14:15.000Z</time>
      </trkpt>
      <trkpt lat="47.48012" lon="6.68363">
        <ele>372</ele>
        <time>2015-08-20T14:14:23.000Z</time>
      </trkpt>
      <trkpt lat="47.48013" lon="6.68362">
        <ele>372</ele>
        <time>2015-08-20T14:14:24.000Z</time>
      </trkpt>
      <trkpt lat="47.48016" lon="6.68358">
        <ele>372</ele>
        <time>2015-08-20T14:15:08.000Z</time>
      </trkpt>
      <trkpt lat="47.48017" lon="6.68357">
        <ele>372</ele>
        <time>2015-08-20T14:15:09.000Z</time>
      </trkpt>
      <trkpt lat="47.48021" lon="6.68357">
        <ele>373</ele>
        <time>2015-08-20T14:15:21.000Z</time>
      </trkpt>
      <trkpt lat="47.48021" lon="6.68357">
        <ele>373</ele>
        <time>2015-08-20T14:15:22.000Z</time>
      </trkpt>
      <trkpt lat="47.48022" lon="6.6836">
        <ele>373</ele>
        <time>2015-08-20T14:15:51.000Z</time>
      </trkpt>
      <trkpt lat="47.48021" lon="6.68364">
        <ele>372</ele>
        <time>2015-08-20T14:15:52.000Z</time>
      </trkpt>
      <trkpt lat="47.48023" lon="6.68369">
        <ele>372</ele>
        <time>2015-08-20T14:15:56.000Z</time>
      </trkpt>
      <trkpt lat="47.48025" lon="6.6837">
        <ele>372</ele>
        <time>2015-08-20T14:15:57.000Z</time>
      </trkpt>
      <trkpt lat="47.48028" lon="6.68372">
        <ele>372</ele>
        <time>2015-08-20T14:15:58.000Z</time>
      </trkpt>
      <trkpt lat="47.48031" lon="6.68374">
        <ele>372</ele>
        <time>2015-08-20T14:15:59.000Z</time>
      </trkpt>
      <trkpt lat="47.48032" lon="6.68376">
        <ele>372</ele>
        <time>2015-08-20T14:16:00.000Z</time>
      </trkpt>
      <trkpt lat="47.48034" lon="6.68379">
        <ele>372</ele>
        <time>2015-08-20T14:16:01.000Z</time>
      </trkpt>
      <trkpt lat="47.48034" lon="6.68383">
        <ele>372</ele>
        <time>2015-08-20T14:16:02.000Z</time>
      </trkpt>
      <trkpt lat="47.48034" lon="6.68387">
        <ele>372</ele>
        <time>2015-08-20T14:16:03.000Z</time>
      </trkpt>
      <trkpt lat="47.48034" lon="6.68391">
        <ele>372</ele>
        <time>2015-08-20T14:16:04.000Z</time>
      </trkpt>
      <trkpt lat="47.48034" lon="6.68394">
        <ele>371</ele>
        <time>2015-08-20T14:16:05.000Z</time>
      </trkpt>
      <trkpt lat="47.48035" lon="6.684">
        <ele>371</ele>
        <time>2015-08-20T14:16:09.000Z</time>
      </trkpt>
      <trkpt lat="47.48035" lon="6.68401">
        <ele>371</ele>
        <time>2015-08-20T14:16:10.000Z</time>
      </trkpt>
      <trkpt lat="47.48037" lon="6.68396">
        <ele>372</ele>
        <time>2015-08-20T14:16:17.000Z</time>
      </trkpt>
      <trkpt lat="47.48037" lon="6.68395">
        <ele>372</ele>
        <time>2015-08-20T14:16:18.000Z</time>
      </trkpt>
      <trkpt lat="47.48036" lon="6.68388">
        <ele>372</ele>
        <time>2015-08-20T14:16:22.000Z</time>
      </trkpt>
      <trkpt lat="47.48036" lon="6.68387">
        <ele>372</ele>
        <time>2015-08-20T14:16:23.000Z</time>
      </trkpt>
      <trkpt lat="47.48038" lon="6.68392">
        <ele>372</ele>
        <time>2015-08-20T14:16:34.000Z</time>
      </trkpt>
      <trkpt lat="47.48038" lon="6.68393">
        <ele>372</ele>
        <time>2015-08-20T14:16:35.000Z</time>
      </trkpt>
      <trkpt lat="47.48037" lon="6.68397">
        <ele>371</ele>
        <time>2015-08-20T14:16:37.000Z</time>
      </trkpt>
      <trkpt lat="47.48038" lon="6.684">
        <ele>371</ele>
        <time>2015-08-20T14:16:38.000Z</time>
      </trkpt>
      <trkpt lat="47.48038" lon="6.68406">
        <ele>371</ele>
        <time>2015-08-20T14:16:43.000Z</time>
      </trkpt>
      <trkpt lat="47.48038" lon="6.68407">
        <ele>371</ele>
        <time>2015-08-20T14:16:44.000Z</time>
      </trkpt>
      <trkpt lat="47.48038" lon="6.68402">
        <ele>371</ele>
        <time>2015-08-20T14:17:22.000Z</time>
      </trkpt>
      <trkpt lat="47.48039" lon="6.684">
        <ele>371</ele>
        <time>2015-08-20T14:17:23.000Z</time>
      </trkpt>
      <trkpt lat="47.48039" lon="6.68394">
        <ele>372</ele>
        <time>2015-08-20T14:17:26.000Z</time>
      </trkpt>
      <trkpt lat="47.48039" lon="6.68392">
        <ele>372</ele>
        <time>2015-08-20T14:17:27.000Z</time>
      </trkpt>
      <trkpt lat="47.4804" lon="6.68388">
        <ele>372</ele>
        <time>2015-08-20T14:17:29.000Z</time>
      </trkpt>
      <trkpt lat="47.4804" lon="6.68386">
        <ele>372</ele>
        <time>2015-08-20T14:17:30.000Z</time>
      </trkpt>
      <trkpt lat="47.48043" lon="6.68382">
        <ele>372</ele>
        <time>2015-08-20T14:17:35.000Z</time>
      </trkpt>
      <trkpt lat="47.48044" lon="6.68382">
        <ele>372</ele>
        <time>2015-08-20T14:17:36.000Z</time>
      </trkpt>
      <trkpt lat="47.4804" lon="6.68381">
        <ele>372</ele>
        <time>2015-08-20T14:17:57.000Z</time>
      </trkpt>
      <trkpt lat="47.48038" lon="6.68381">
        <ele>372</ele>
        <time>2015-08-20T14:17:58.000Z</time>
      </trkpt>
      <trkpt lat="47.48035" lon="6.68384">
        <ele>372</ele>
        <time>2015-08-20T14:18:00.000Z</time>
      </trkpt>
      <trkpt lat="47.48035" lon="6.68386">
        <ele>372</ele>
        <time>2015-08-20T14:18:01.000Z</time>
      </trkpt>
      <trkpt lat="47.48034" lon="6.68391">
        <ele>372</ele>
        <time>2015-08-20T14:18:04.000Z</time>
      </trkpt>
      <trkpt lat="47.48034" lon="6.68393">
        <ele>372</ele>
        <time>2015-08-20T14:18:05.000Z</time>
      </trkpt>
      <trkpt lat="47.48035" lon="6.68397">
        <ele>371</ele>
        <time>2015-08-20T14:18:07.000Z</time>
      </trkpt>
      <trkpt lat="47.48036" lon="6.684">
        <ele>371</ele>
        <time>2015-08-20T14:18:08.000Z</time>
      </trkpt>
      <trkpt lat="47.48037" lon="6.68404">
        <ele>371</ele>
        <time>2015-08-20T14:18:10.000Z</time>
      </trkpt>
      <trkpt lat="47.48038" lon="6.68406">
        <ele>371</ele>
        <time>2015-08-20T14:18:11.000Z</time>
      </trkpt>
      <trkpt lat="47.4804" lon="6.68409">
        <ele>371</ele>
        <time>2015-08-20T14:18:13.000Z</time>
      </trkpt>
      <trkpt lat="47.48041" lon="6.68411">
        <ele>371</ele>
        <time>2015-08-20T14:18:14.000Z</time>
      </trkpt>
      <trkpt lat="47.48045" lon="6.68414">
        <ele>371</ele>
        <time>2015-08-20T14:18:16.000Z</time>
      </trkpt>
      <trkpt lat="47.48047" lon="6.68416">
        <ele>371</ele>
        <time>2015-08-20T14:18:17.000Z</time>
      </trkpt>
      <trkpt lat="47.48049" lon="6.68417">
        <ele>367</ele>
        <time>2015-08-20T14:18:18.000Z</time>
      </trkpt>
      <trkpt lat="47.48051" lon="6.68419">
        <ele>367</ele>
        <time>2015-08-20T14:18:19.000Z</time>
      </trkpt>
      <trkpt lat="47.48053" lon="6.6842">
        <ele>367</ele>
        <time>2015-08-20T14:18:20.000Z</time>
      </trkpt>
      <trkpt lat="47.48055" lon="6.68421">
        <ele>367</ele>
        <time>2015-08-20T14:18:21.000Z</time>
      </trkpt>
      <trkpt lat="47.48057" lon="6.68422">
        <ele>367</ele>
        <time>2015-08-20T14:18:22.000Z</time>
      </trkpt>
      <trkpt lat="47.48059" lon="6.68423">
        <ele>368</ele>
        <time>2015-08-20T14:18:23.000Z</time>
      </trkpt>
      <trkpt lat="47.48062" lon="6.68424">
        <ele>368</ele>
        <time>2015-08-20T14:18:24.000Z</time>
      </trkpt>
      <trkpt lat="47.48064" lon="6.68425">
        <ele>368</ele>
        <time>2015-08-20T14:18:25.000Z</time>
      </trkpt>
      <trkpt lat="47.48068" lon="6.68426">
        <ele>368</ele>
        <time>2015-08-20T14:18:27.000Z</time>
      </trkpt>
      <trkpt lat="47.4807" lon="6.68427">
        <ele>368</ele>
        <time>2015-08-20T14:18:28.000Z</time>
      </trkpt>
      <trkpt lat="47.48074" lon="6.68428">
        <ele>369</ele>
        <time>2015-08-20T14:18:30.000Z</time>
      </trkpt>
      <trkpt lat="47.48076" lon="6.68428">
        <ele>369</ele>
        <time>2015-08-20T14:18:31.000Z</time>
      </trkpt>
      <trkpt lat="47.4808" lon="6.68428">
        <ele>369</ele>
        <time>2015-08-20T14:18:33.000Z</time>
      </trkpt>
      <trkpt lat="47.48082" lon="6.68429">
        <ele>369</ele>
        <time>2015-08-20T14:18:34.000Z</time>
      </trkpt>
      <trkpt lat="47.48085" lon="6.6843">
        <ele>372</ele>
        <time>2015-08-20T14:18:36.000Z</time>
      </trkpt>
      <trkpt lat="47.48086" lon="6.6843">
        <ele>372</ele>
        <time>2015-08-20T14:18:37.000Z</time>
      </trkpt>
      <trkpt lat="47.4809" lon="6.68432">
        <ele>372</ele>
        <time>2015-08-20T14:18:39.000Z</time>
      </trkpt>
      <trkpt lat="47.48091" lon="6.68433">
        <ele>372</ele>
        <time>2015-08-20T14:18:40.000Z</time>
      </trkpt>
      <trkpt lat="47.48095" lon="6.68435">
        <ele>372</ele>
        <time>2015-08-20T14:18:42.000Z</time>
      </trkpt>
      <trkpt lat="47.48096" lon="6.68436">
        <ele>372</ele>
        <time>2015-08-20T14:18:43.000Z</time>
      </trkpt>
      <trkpt lat="47.481" lon="6.68439">
        <ele>372</ele>
        <time>2015-08-20T14:18:45.000Z</time>
      </trkpt>
      <trkpt lat="47.48101" lon="6.6844">
        <ele>372</ele>
        <time>2015-08-20T14:18:46.000Z</time>
      </trkpt>
      <trkpt lat="47.48104" lon="6.68441">
        <ele>372</ele>
        <time>2015-08-20T14:18:48.000Z</time>
      </trkpt>
      <trkpt lat="47.48106" lon="6.68441">
        <ele>372</ele>
        <time>2015-08-20T14:18:49.000Z</time>
      </trkpt>
      <trkpt lat="47.4811" lon="6.68441">
        <ele>373</ele>
        <time>2015-08-20T14:18:51.000Z</time>
      </trkpt>
      <trkpt lat="47.48112" lon="6.68441">
        <ele>373</ele>
        <time>2015-08-20T14:18:52.000Z</time>
      </trkpt>
      <trkpt lat="47.48116" lon="6.6844">
        <ele>373</ele>
        <time>2015-08-20T14:18:54.000Z</time>
      </trkpt>
      <trkpt lat="47.48118" lon="6.6844">
        <ele>373</ele>
        <time>2015-08-20T14:18:55.000Z</time>
      </trkpt>
      <trkpt lat="47.48122" lon="6.68441">
        <ele>374</ele>
        <time>2015-08-20T14:18:57.000Z</time>
      </trkpt>
      <trkpt lat="47.48123" lon="6.68442">
        <ele>374</ele>
        <time>2015-08-20T14:18:58.000Z</time>
      </trkpt>
      <trkpt lat="47.48127" lon="6.68443">
        <ele>374</ele>
        <time>2015-08-20T14:19:00.000Z</time>
      </trkpt>
      <trkpt lat="47.48129" lon="6.68442">
        <ele>374</ele>
        <time>2015-08-20T14:19:01.000Z</time>
      </trkpt>
      <trkpt lat="47.48132" lon="6.68442">
        <ele>374</ele>
        <time>2015-08-20T14:19:03.000Z</time>
      </trkpt>
      <trkpt lat="47.48134" lon="6.68441">
        <ele>375</ele>
        <time>2015-08-20T14:19:04.000Z</time>
      </trkpt>
      <trkpt lat="47.48136" lon="6.68441">
        <ele>375</ele>
        <time>2015-08-20T14:19:05.000Z</time>
      </trkpt>
      <trkpt lat="47.48139" lon="6.68441">
        <ele>375</ele>
        <time>2015-08-20T14:19:06.000Z</time>
      </trkpt>
      <trkpt lat="47.48143" lon="6.6844">
        <ele>375</ele>
        <time>2015-08-20T14:19:08.000Z</time>
      </trkpt>
      <trkpt lat="47.48145" lon="6.6844">
        <ele>376</ele>
        <time>2015-08-20T14:19:09.000Z</time>
      </trkpt>
      <trkpt lat="47.48149" lon="6.6844">
        <ele>376</ele>
        <time>2015-08-20T14:19:11.000Z</time>
      </trkpt>
      <trkpt lat="47.4815" lon="6.6844">
        <ele>376</ele>
        <time>2015-08-20T14:19:12.000Z</time>
      </trkpt>
      <trkpt lat="47.48154" lon="6.68441">
        <ele>376</ele>
        <time>2015-08-20T14:19:14.000Z</time>
      </trkpt>
      <trkpt lat="47.48156" lon="6.68441">
        <ele>376</ele>
        <time>2015-08-20T14:19:15.000Z</time>
      </trkpt>
      <trkpt lat="47.48159" lon="6.68442">
        <ele>377</ele>
        <time>2015-08-20T14:19:17.000Z</time>
      </trkpt>
      <trkpt lat="47.4816" lon="6.68443">
        <ele>377</ele>
        <time>2015-08-20T14:19:18.000Z</time>
      </trkpt>
      <trkpt lat="47.48164" lon="6.68444">
        <ele>376</ele>
        <time>2015-08-20T14:19:20.000Z</time>
      </trkpt>
      <trkpt lat="47.48166" lon="6.68445">
        <ele>377</ele>
        <time>2015-08-20T14:19:21.000Z</time>
      </trkpt>
      <trkpt lat="47.48171" lon="6.68444">
        <ele>382</ele>
        <time>2015-08-20T14:19:23.000Z</time>
      </trkpt>
      <trkpt lat="47.48173" lon="6.68444">
        <ele>382</ele>
        <time>2015-08-20T14:19:24.000Z</time>
      </trkpt>
      <trkpt lat="47.48175" lon="6.68443">
        <ele>382</ele>
        <time>2015-08-20T14:19:25.000Z</time>
      </trkpt>
      <trkpt lat="47.48177" lon="6.68444">
        <ele>382</ele>
        <time>2015-08-20T14:19:26.000Z</time>
      </trkpt>
      <trkpt lat="47.4818" lon="6.68444">
        <ele>382</ele>
        <time>2015-08-20T14:19:27.000Z</time>
      </trkpt>
      <trkpt lat="47.48182" lon="6.68444">
        <ele>382</ele>
        <time>2015-08-20T14:19:28.000Z</time>
      </trkpt>
      <trkpt lat="47.48184" lon="6.68444">
        <ele>382</ele>
        <time>2015-08-20T14:19:29.000Z</time>
      </trkpt>
      <trkpt lat="47.48186" lon="6.68444">
        <ele>382</ele>
        <time>2015-08-20T14:19:30.000Z</time>
      </trkpt>
      <trkpt lat="47.48191" lon="6.68444">
        <ele>382</ele>
        <time>2015-08-20T14:19:32.000Z</time>
      </trkpt>
      <trkpt lat="47.48193" lon="6.68444">
        <ele>382</ele>
        <time>2015-08-20T14:19:33.000Z</time>
      </trkpt>
      <trkpt lat="47.48197" lon="6.68445">
        <ele>382</ele>
        <time>2015-08-20T14:19:35.000Z</time>
      </trkpt>
      <trkpt lat="47.48199" lon="6.68445">
        <ele>382</ele>
        <time>2015-08-20T14:19:36.000Z</time>
      </trkpt>
      <trkpt lat="47.48203" lon="6.68447">
        <ele>382</ele>
        <time>2015-08-20T14:19:38.000Z</time>
      </trkpt>
      <trkpt lat="47.48204" lon="6.68448">
        <ele>382</ele>
        <time>2015-08-20T14:19:39.000Z</time>
      </trkpt>
      <trkpt lat="47.48208" lon="6.6845">
        <ele>382</ele>
        <time>2015-08-20T14:19:41.000Z</time>
      </trkpt>
      <trkpt lat="47.48209" lon="6.6845">
        <ele>382</ele>
        <time>2015-08-20T14:19:42.000Z</time>
      </trkpt>
      <trkpt lat="47.48212" lon="6.68453">
        <ele>382</ele>
        <time>2015-08-20T14:19:47.000Z</time>
      </trkpt>
      <trkpt lat="47.48213" lon="6.68454">
        <ele>382</ele>
        <time>2015-08-20T14:19:48.000Z</time>
      </trkpt>
      <trkpt lat="47.48216" lon="6.68457">
        <ele>382</ele>
        <time>2015-08-20T14:19:50.000Z</time>
      </trkpt>
      <trkpt lat="47.48218" lon="6.68458">
        <ele>382</ele>
        <time>2015-08-20T14:19:51.000Z</time>
      </trkpt>
      <trkpt lat="47.4822" lon="6.6846">
        <ele>382</ele>
        <time>2015-08-20T14:19:52.000Z</time>
      </trkpt>
      <trkpt lat="47.48222" lon="6.68461">
        <ele>382</ele>
        <time>2015-08-20T14:19:53.000Z</time>
      </trkpt>
      <trkpt lat="47.48224" lon="6.68463">
        <ele>382</ele>
        <time>2015-08-20T14:19:54.000Z</time>
      </trkpt>
      <trkpt lat="47.48226" lon="6.68464">
        <ele>382</ele>
        <time>2015-08-20T14:19:55.000Z</time>
      </trkpt>
      <trkpt lat="47.4823" lon="6.68466">
        <ele>382</ele>
        <time>2015-08-20T14:19:57.000Z</time>
      </trkpt>
      <trkpt lat="47.48232" lon="6.68467">
        <ele>382</ele>
        <time>2015-08-20T14:19:58.000Z</time>
      </trkpt>
      <trkpt lat="47.48236" lon="6.6847">
        <ele>382</ele>
        <time>2015-08-20T14:20:00.000Z</time>
      </trkpt>
      <trkpt lat="47.48238" lon="6.68471">
        <ele>382</ele>
        <time>2015-08-20T14:20:01.000Z</time>
      </trkpt>
      <trkpt lat="47.48241" lon="6.68473">
        <ele>382</ele>
        <time>2015-08-20T14:20:03.000Z</time>
      </trkpt>
      <trkpt lat="47.48243" lon="6.68473">
        <ele>382</ele>
        <time>2015-08-20T14:20:04.000Z</time>
      </trkpt>
      <trkpt lat="47.48245" lon="6.68473">
        <ele>382</ele>
        <time>2015-08-20T14:20:05.000Z</time>
      </trkpt>
      <trkpt lat="47.48248" lon="6.68474">
        <ele>382</ele>
        <time>2015-08-20T14:20:06.000Z</time>
      </trkpt>
      <trkpt lat="47.4825" lon="6.68475">
        <ele>384</ele>
        <time>2015-08-20T14:20:07.000Z</time>
      </trkpt>
      <trkpt lat="47.48253" lon="6.68476">
        <ele>384</ele>
        <time>2015-08-20T14:20:08.000Z</time>
      </trkpt>
      <trkpt lat="47.48255" lon="6.68477">
        <ele>384</ele>
        <time>2015-08-20T14:20:09.000Z</time>
      </trkpt>
      <trkpt lat="47.48258" lon="6.68478">
        <ele>384</ele>
        <time>2015-08-20T14:20:10.000Z</time>
      </trkpt>
      <trkpt lat="47.4826" lon="6.68479">
        <ele>384</ele>
        <time>2015-08-20T14:20:11.000Z</time>
      </trkpt>
      <trkpt lat="47.48262" lon="6.6848">
        <ele>384</ele>
        <time>2015-08-20T14:20:12.000Z</time>
      </trkpt>
      <trkpt lat="47.48264" lon="6.68482">
        <ele>384</ele>
        <time>2015-08-20T14:20:13.000Z</time>
      </trkpt>
      <trkpt lat="47.48267" lon="6.68484">
        <ele>384</ele>
        <time>2015-08-20T14:20:14.000Z</time>
      </trkpt>
      <trkpt lat="47.48269" lon="6.68486">
        <ele>384</ele>
        <time>2015-08-20T14:20:15.000Z</time>
      </trkpt>
      <trkpt lat="47.48272" lon="6.68487">
        <ele>384</ele>
        <time>2015-08-20T14:20:16.000Z</time>
      </trkpt>
      <trkpt lat="47.48274" lon="6.68489">
        <ele>384</ele>
        <time>2015-08-20T14:20:17.000Z</time>
      </trkpt>
      <trkpt lat="47.48277" lon="6.6849">
        <ele>384</ele>
        <time>2015-08-20T14:20:18.000Z</time>
      </trkpt>
      <trkpt lat="47.48279" lon="6.68491">
        <ele>384</ele>
        <time>2015-08-20T14:20:19.000Z</time>
      </trkpt>
      <trkpt lat="47.48282" lon="6.68492">
        <ele>384</ele>
        <time>2015-08-20T14:20:20.000Z</time>
      </trkpt>
      <trkpt lat="47.48284" lon="6.68493">
        <ele>384</ele>
        <time>2015-08-20T14:20:21.000Z</time>
      </trkpt>
      <trkpt lat="47.48287" lon="6.68495">
        <ele>384</ele>
        <time>2015-08-20T14:20:22.000Z</time>
      </trkpt>
      <trkpt lat="47.48289" lon="6.68496">
        <ele>384</ele>
        <time>2015-08-20T14:20:23.000Z</time>
      </trkpt>
      <trkpt lat="47.48292" lon="6.68498">
        <ele>384</ele>
        <time>2015-08-20T14:20:24.000Z</time>
      </trkpt>
      <trkpt lat="47.48294" lon="6.68499">
        <ele>384</ele>
        <time>2015-08-20T14:20:25.000Z</time>
      </trkpt>
      <trkpt lat="47.48297" lon="6.68501">
        <ele>372</ele>
        <time>2015-08-20T14:20:26.000Z</time>
      </trkpt>
      <trkpt lat="47.483" lon="6.68503">
        <ele>372</ele>
        <time>2015-08-20T14:20:27.000Z</time>
      </trkpt>
      <trkpt lat="47.48303" lon="6.68504">
        <ele>372</ele>
        <time>2015-08-20T14:20:28.000Z</time>
      </trkpt>
      <trkpt lat="47.48306" lon="6.68506">
        <ele>372</ele>
        <time>2015-08-20T14:20:29.000Z</time>
      </trkpt>
      <trkpt lat="47.48309" lon="6.68508">
        <ele>372</ele>
        <time>2015-08-20T14:20:30.000Z</time>
      </trkpt>
      <trkpt lat="47.48312" lon="6.68509">
        <ele>372</ele>
        <time>2015-08-20T14:20:31.000Z</time>
      </trkpt>
      <trkpt lat="47.48315" lon="6.6851">
        <ele>373</ele>
        <time>2015-08-20T14:20:32.000Z</time>
      </trkpt>
      <trkpt lat="47.48319" lon="6.6851">
        <ele>373</ele>
        <time>2015-08-20T14:20:33.000Z</time>
      </trkpt>
      <trkpt lat="47.48323" lon="6.6851">
        <ele>374</ele>
        <time>2015-08-20T14:20:34.000Z</time>
      </trkpt>
      <trkpt lat="47.48327" lon="6.6851">
        <ele>374</ele>
        <time>2015-08-20T14:20:35.000Z</time>
      </trkpt>
      <trkpt lat="47.4833" lon="6.6851">
        <ele>375</ele>
        <time>2015-08-20T14:20:36.000Z</time>
      </trkpt>
      <trkpt lat="47.48333" lon="6.6851">
        <ele>375</ele>
        <time>2015-08-20T14:20:37.000Z</time>
      </trkpt>
      <trkpt lat="47.48335" lon="6.6851">
        <ele>372</ele>
        <time>2015-08-20T14:20:38.000Z</time>
      </trkpt>
      <trkpt lat="47.48338" lon="6.68511">
        <ele>371</ele>
        <time>2015-08-20T14:20:39.000Z</time>
      </trkpt>
      <trkpt lat="47.48341" lon="6.68512">
        <ele>370</ele>
        <time>2015-08-20T14:20:40.000Z</time>
      </trkpt>
      <trkpt lat="47.48344" lon="6.68513">
        <ele>369</ele>
        <time>2015-08-20T14:20:41.000Z</time>
      </trkpt>
      <trkpt lat="47.48347" lon="6.68515">
        <ele>368</ele>
        <time>2015-08-20T14:20:42.000Z</time>
      </trkpt>
      <trkpt lat="47.4835" lon="6.68517">
        <ele>366</ele>
        <time>2015-08-20T14:20:43.000Z</time>
      </trkpt>
      <trkpt lat="47.48354" lon="6.68519">
        <ele>365</ele>
        <time>2015-08-20T14:20:44.000Z</time>
      </trkpt>
      <trkpt lat="47.48358" lon="6.68521">
        <ele>364</ele>
        <time>2015-08-20T14:20:45.000Z</time>
      </trkpt>
      <trkpt lat="47.48362" lon="6.68522">
        <ele>363</ele>
        <time>2015-08-20T14:20:46.000Z</time>
      </trkpt>
      <trkpt lat="47.48366" lon="6.68523">
        <ele>362</ele>
        <time>2015-08-20T14:20:47.000Z</time>
      </trkpt>
      <trkpt lat="47.4837" lon="6.68523">
        <ele>362</ele>
        <time>2015-08-20T14:20:48.000Z</time>
      </trkpt>
      <trkpt lat="47.48374" lon="6.68524">
        <ele>361</ele>
        <time>2015-08-20T14:20:49.000Z</time>
      </trkpt>
      <trkpt lat="47.48378" lon="6.68523">
        <ele>361</ele>
        <time>2015-08-20T14:20:50.000Z</time>
      </trkpt>
      <trkpt lat="47.48383" lon="6.68522">
        <ele>360</ele>
        <time>2015-08-20T14:20:51.000Z</time>
      </trkpt>
      <trkpt lat="47.48387" lon="6.6852">
        <ele>360</ele>
        <time>2015-08-20T14:20:52.000Z</time>
      </trkpt>
      <trkpt lat="47.48391" lon="6.68517">
        <ele>360</ele>
        <time>2015-08-20T14:20:53.000Z</time>
      </trkpt>
      <trkpt lat="47.48396" lon="6.68514">
        <ele>360</ele>
        <time>2015-08-20T14:20:54.000Z</time>
      </trkpt>
      <trkpt lat="47.48399" lon="6.68513">
        <ele>360</ele>
        <time>2015-08-20T14:20:55.019Z</time>
      </trkpt>
      <trkpt lat="47.48405" lon="6.68507">
        <ele>360</ele>
        <time>2015-08-20T14:20:56.000Z</time>
      </trkpt>
      <trkpt lat="47.48408" lon="6.68503">
        <ele>361</ele>
        <time>2015-08-20T14:20:57.000Z</time>
      </trkpt>
      <trkpt lat="47.48411" lon="6.685">
        <ele>361</ele>
        <time>2015-08-20T14:20:58.000Z</time>
      </trkpt>
      <trkpt lat="47.48414" lon="6.68497">
        <ele>364</ele>
        <time>2015-08-20T14:20:59.000Z</time>
      </trkpt>
      <trkpt lat="47.48416" lon="6.68494">
        <ele>364</ele>
        <time>2015-08-20T14:21:00.000Z</time>
      </trkpt>
      <trkpt lat="47.48419" lon="6.68491">
        <ele>361</ele>
        <time>2015-08-20T14:21:01.000Z</time>
      </trkpt>
      <trkpt lat="47.48423" lon="6.68487">
        <ele>360</ele>
        <time>2015-08-20T14:21:02.000Z</time>
      </trkpt>
      <trkpt lat="47.48426" lon="6.68483">
        <ele>360</ele>
        <time>2015-08-20T14:21:03.000Z</time>
      </trkpt>
      <trkpt lat="47.48429" lon="6.68478">
        <ele>360</ele>
        <time>2015-08-20T14:21:04.000Z</time>
      </trkpt>
      <trkpt lat="47.48433" lon="6.68473">
        <ele>360</ele>
        <time>2015-08-20T14:21:05.000Z</time>
      </trkpt>
      <trkpt lat="47.48436" lon="6.68468">
        <ele>360</ele>
        <time>2015-08-20T14:21:06.000Z</time>
      </trkpt>
      <trkpt lat="47.48439" lon="6.68464">
        <ele>360</ele>
        <time>2015-08-20T14:21:07.000Z</time>
      </trkpt>
      <trkpt lat="47.48441" lon="6.68461">
        <ele>360</ele>
        <time>2015-08-20T14:21:08.000Z</time>
      </trkpt>
      <trkpt lat="47.48443" lon="6.68457">
        <ele>361</ele>
        <time>2015-08-20T14:21:09.000Z</time>
      </trkpt>
      <trkpt lat="47.48445" lon="6.68453">
        <ele>361</ele>
        <time>2015-08-20T14:21:10.000Z</time>
      </trkpt>
      <trkpt lat="47.48447" lon="6.68449">
        <ele>361</ele>
        <time>2015-08-20T14:21:11.000Z</time>
      </trkpt>
      <trkpt lat="47.48449" lon="6.68445">
        <ele>361</ele>
        <time>2015-08-20T14:21:12.000Z</time>
      </trkpt>
      <trkpt lat="47.48451" lon="6.68442">
        <ele>361</ele>
        <time>2015-08-20T14:21:13.000Z</time>
      </trkpt>
      <trkpt lat="47.48453" lon="6.68438">
        <ele>360</ele>
        <time>2015-08-20T14:21:14.000Z</time>
      </trkpt>
      <trkpt lat="47.48454" lon="6.68433">
        <ele>360</ele>
        <time>2015-08-20T14:21:15.000Z</time>
      </trkpt>
      <trkpt lat="47.48455" lon="6.68428">
        <ele>360</ele>
        <time>2015-08-20T14:21:16.000Z</time>
      </trkpt>
      <trkpt lat="47.48457" lon="6.68422">
        <ele>360</ele>
        <time>2015-08-20T14:21:17.000Z</time>
      </trkpt>
      <trkpt lat="47.4846" lon="6.68416">
        <ele>363</ele>
        <time>2015-08-20T14:21:18.000Z</time>
      </trkpt>
      <trkpt lat="47.48463" lon="6.6841">
        <ele>363</ele>
        <time>2015-08-20T14:21:19.000Z</time>
      </trkpt>
      <trkpt lat="47.48466" lon="6.68405">
        <ele>362</ele>
        <time>2015-08-20T14:21:20.000Z</time>
      </trkpt>
      <trkpt lat="47.4847" lon="6.68401">
        <ele>361</ele>
        <time>2015-08-20T14:21:21.000Z</time>
      </trkpt>
      <trkpt lat="47.48474" lon="6.68397">
        <ele>361</ele>
        <time>2015-08-20T14:21:22.000Z</time>
      </trkpt>
      <trkpt lat="47.48478" lon="6.68394">
        <ele>360</ele>
        <time>2015-08-20T14:21:23.000Z</time>
      </trkpt>
      <trkpt lat="47.48482" lon="6.68393">
        <ele>359</ele>
        <time>2015-08-20T14:21:24.000Z</time>
      </trkpt>
      <trkpt lat="47.48487" lon="6.68393">
        <ele>359</ele>
        <time>2015-08-20T14:21:25.000Z</time>
      </trkpt>
      <trkpt lat="47.48491" lon="6.68395">
        <ele>358</ele>
        <time>2015-08-20T14:21:26.000Z</time>
      </trkpt>
      <trkpt lat="47.48506" lon="6.68403">
        <ele>348</ele>
        <time>2015-08-20T14:21:27.000Z</time>
      </trkpt>
      <trkpt lat="47.48512" lon="6.68409">
        <ele>348</ele>
        <time>2015-08-20T14:21:28.000Z</time>
      </trkpt>
      <trkpt lat="47.48518" lon="6.68412">
        <ele>348</ele>
        <time>2015-08-20T14:21:29.000Z</time>
      </trkpt>
      <trkpt lat="47.48524" lon="6.68413">
        <ele>348</ele>
        <time>2015-08-20T14:21:30.000Z</time>
      </trkpt>
      <trkpt lat="47.48531" lon="6.68414">
        <ele>348</ele>
        <time>2015-08-20T14:21:31.000Z</time>
      </trkpt>
      <trkpt lat="47.48536" lon="6.68416">
        <ele>348</ele>
        <time>2015-08-20T14:21:32.000Z</time>
      </trkpt>
      <trkpt lat="47.4854" lon="6.68417">
        <ele>348</ele>
        <time>2015-08-20T14:21:33.000Z</time>
      </trkpt>
      <trkpt lat="47.48545" lon="6.68418">
        <ele>348</ele>
        <time>2015-08-20T14:21:34.000Z</time>
      </trkpt>
      <trkpt lat="47.48548" lon="6.68421">
        <ele>348</ele>
        <time>2015-08-20T14:21:35.000Z</time>
      </trkpt>
      <trkpt lat="47.4855" lon="6.68424">
        <ele>348</ele>
        <time>2015-08-20T14:21:36.000Z</time>
      </trkpt>
      <trkpt lat="47.48552" lon="6.68427">
        <ele>348</ele>
        <time>2015-08-20T14:21:37.000Z</time>
      </trkpt>
      <trkpt lat="47.48555" lon="6.68429">
        <ele>348</ele>
        <time>2015-08-20T14:21:38.000Z</time>
      </trkpt>
      <trkpt lat="47.48558" lon="6.68434">
        <ele>348</ele>
        <time>2015-08-20T14:21:39.000Z</time>
      </trkpt>
      <trkpt lat="47.48561" lon="6.68438">
        <ele>348</ele>
        <time>2015-08-20T14:21:40.000Z</time>
      </trkpt>
      <trkpt lat="47.48563" lon="6.68441">
        <ele>348</ele>
        <time>2015-08-20T14:21:41.000Z</time>
      </trkpt>
      <trkpt lat="47.48565" lon="6.68446">
        <ele>348</ele>
        <time>2015-08-20T14:21:42.000Z</time>
      </trkpt>
      <trkpt lat="47.48568" lon="6.6845">
        <ele>348</ele>
        <time>2015-08-20T14:21:43.000Z</time>
      </trkpt>
      <trkpt lat="47.4857" lon="6.68455">
        <ele>348</ele>
        <time>2015-08-20T14:21:44.000Z</time>
      </trkpt>
      <trkpt lat="47.48571" lon="6.6846">
        <ele>348</ele>
        <time>2015-08-20T14:21:45.000Z</time>
      </trkpt>
      <trkpt lat="47.48573" lon="6.68465">
        <ele>348</ele>
        <time>2015-08-20T14:21:46.000Z</time>
      </trkpt>
      <trkpt lat="47.48574" lon="6.68471">
        <ele>348</ele>
        <time>2015-08-20T14:21:47.000Z</time>
      </trkpt>
      <trkpt lat="47.48575" lon="6.68476">
        <ele>349</ele>
        <time>2015-08-20T14:21:48.000Z</time>
      </trkpt>
      <trkpt lat="47.48577" lon="6.68481">
        <ele>349</ele>
        <time>2015-08-20T14:21:49.000Z</time>
      </trkpt>
      <trkpt lat="47.48578" lon="6.68487">
        <ele>349</ele>
        <time>2015-08-20T14:21:50.000Z</time>
      </trkpt>
      <trkpt lat="47.48578" lon="6.68497">
        <ele>349</ele>
        <time>2015-08-20T14:21:51.000Z</time>
      </trkpt>
      <trkpt lat="47.48579" lon="6.68505">
        <ele>349</ele>
        <time>2015-08-20T14:21:52.000Z</time>
      </trkpt>
      <trkpt lat="47.48579" lon="6.68514">
        <ele>348</ele>
        <time>2015-08-20T14:21:53.000Z</time>
      </trkpt>
      <trkpt lat="47.48579" lon="6.6852">
        <ele>348</ele>
        <time>2015-08-20T14:21:54.000Z</time>
      </trkpt>
      <trkpt lat="47.48579" lon="6.68527">
        <ele>348</ele>
        <time>2015-08-20T14:21:55.000Z</time>
      </trkpt>
      <trkpt lat="47.4858" lon="6.68536">
        <ele>347</ele>
        <time>2015-08-20T14:21:56.000Z</time>
      </trkpt>
      <trkpt lat="47.48581" lon="6.68545">
        <ele>347</ele>
        <time>2015-08-20T14:21:57.000Z</time>
      </trkpt>
      <trkpt lat="47.48584" lon="6.68556">
        <ele>347</ele>
        <time>2015-08-20T14:21:58.000Z</time>
      </trkpt>
      <trkpt lat="47.48584" lon="6.68566">
        <ele>347</ele>
        <time>2015-08-20T14:21:59.000Z</time>
      </trkpt>
      <trkpt lat="47.48582" lon="6.68573">
        <ele>346</ele>
        <time>2015-08-20T14:22:00.000Z</time>
      </trkpt>
      <trkpt lat="47.48577" lon="6.68578">
        <ele>346</ele>
        <time>2015-08-20T14:22:01.000Z</time>
      </trkpt>
      <trkpt lat="47.48573" lon="6.68584">
        <ele>345</ele>
        <time>2015-08-20T14:22:02.000Z</time>
      </trkpt>
      <trkpt lat="47.48568" lon="6.68591">
        <ele>344</ele>
        <time>2015-08-20T14:22:03.000Z</time>
      </trkpt>
      <trkpt lat="47.48563" lon="6.68598">
        <ele>344</ele>
        <time>2015-08-20T14:22:04.000Z</time>
      </trkpt>
      <trkpt lat="47.48557" lon="6.68603">
        <ele>343</ele>
        <time>2015-08-20T14:22:05.000Z</time>
      </trkpt>
      <trkpt lat="47.48551" lon="6.68607">
        <ele>343</ele>
        <time>2015-08-20T14:22:06.000Z</time>
      </trkpt>
      <trkpt lat="47.48545" lon="6.68614">
        <ele>343</ele>
        <time>2015-08-20T14:22:07.000Z</time>
      </trkpt>
      <trkpt lat="47.48542" lon="6.68621">
        <ele>342</ele>
        <time>2015-08-20T14:22:08.000Z</time>
      </trkpt>
      <trkpt lat="47.48541" lon="6.68632">
        <ele>342</ele>
        <time>2015-08-20T14:22:09.000Z</time>
      </trkpt>
      <trkpt lat="47.48544" lon="6.6864">
        <ele>342</ele>
        <time>2015-08-20T14:22:10.000Z</time>
      </trkpt>
      <trkpt lat="47.48546" lon="6.68648">
        <ele>342</ele>
        <time>2015-08-20T14:22:11.000Z</time>
      </trkpt>
      <trkpt lat="47.48547" lon="6.68653">
        <ele>342</ele>
        <time>2015-08-20T14:22:52.000Z</time>
      </trkpt>
      <trkpt lat="47.48546" lon="6.68655">
        <ele>342</ele>
        <time>2015-08-20T14:22:53.000Z</time>
      </trkpt>
      <trkpt lat="47.48546" lon="6.68661">
        <ele>342</ele>
        <time>2015-08-20T14:22:55.000Z</time>
      </trkpt>
      <trkpt lat="47.48546" lon="6.68664">
        <ele>342</ele>
        <time>2015-08-20T14:22:56.000Z</time>
      </trkpt>
      <trkpt lat="47.48548" lon="6.68667">
        <ele>342</ele>
        <time>2015-08-20T14:22:58.000Z</time>
      </trkpt>
      <trkpt lat="47.48549" lon="6.68668">
        <ele>342</ele>
        <time>2015-08-20T14:22:59.000Z</time>
      </trkpt>
      <trkpt lat="47.48551" lon="6.68672">
        <ele>342</ele>
        <time>2015-08-20T14:23:01.000Z</time>
      </trkpt>
      <trkpt lat="47.48552" lon="6.68675">
        <ele>342</ele>
        <time>2015-08-20T14:23:02.000Z</time>
      </trkpt>
      <trkpt lat="47.48554" lon="6.68679">
        <ele>342</ele>
        <time>2015-08-20T14:23:03.000Z</time>
      </trkpt>
      <trkpt lat="47.48555" lon="6.68684">
        <ele>342</ele>
        <time>2015-08-20T14:23:04.000Z</time>
      </trkpt>
      <trkpt lat="47.48557" lon="6.68689">
        <ele>342</ele>
        <time>2015-08-20T14:23:05.000Z</time>
      </trkpt>
      <trkpt lat="47.48559" lon="6.68695">
        <ele>342</ele>
        <time>2015-08-20T14:23:06.000Z</time>
      </trkpt>
      <trkpt lat="47.4856" lon="6.68701">
        <ele>342</ele>
        <time>2015-08-20T14:23:07.000Z</time>
      </trkpt>
      <trkpt lat="47.48562" lon="6.68707">
        <ele>342</ele>
        <time>2015-08-20T14:23:08.000Z</time>
      </trkpt>
      <trkpt lat="47.48565" lon="6.68713">
        <ele>342</ele>
        <time>2015-08-20T14:23:09.000Z</time>
      </trkpt>
      <trkpt lat="47.48567" lon="6.68719">
        <ele>342</ele>
        <time>2015-08-20T14:23:10.000Z</time>
      </trkpt>
      <trkpt lat="47.4857" lon="6.68725">
        <ele>342</ele>
        <time>2015-08-20T14:23:11.000Z</time>
      </trkpt>
      <trkpt lat="47.48572" lon="6.68731">
        <ele>343</ele>
        <time>2015-08-20T14:23:12.000Z</time>
      </trkpt>
      <trkpt lat="47.48574" lon="6.68737">
        <ele>343</ele>
        <time>2015-08-20T14:23:13.000Z</time>
      </trkpt>
      <trkpt lat="47.48576" lon="6.68743">
        <ele>343</ele>
        <time>2015-08-20T14:23:14.000Z</time>
      </trkpt>
      <trkpt lat="47.48578" lon="6.68749">
        <ele>343</ele>
        <time>2015-08-20T14:23:15.000Z</time>
      </trkpt>
      <trkpt lat="47.4858" lon="6.68755">
        <ele>344</ele>
        <time>2015-08-20T14:23:16.000Z</time>
      </trkpt>
      <trkpt lat="47.48581" lon="6.68761">
        <ele>344</ele>
        <time>2015-08-20T14:23:17.000Z</time>
      </trkpt>
      <trkpt lat="47.48583" lon="6.68767">
        <ele>344</ele>
        <time>2015-08-20T14:23:18.000Z</time>
      </trkpt>
      <trkpt lat="47.48585" lon="6.68773">
        <ele>344</ele>
        <time>2015-08-20T14:23:19.000Z</time>
      </trkpt>
      <trkpt lat="47.48588" lon="6.68778">
        <ele>344</ele>
        <time>2015-08-20T14:23:20.000Z</time>
      </trkpt>
      <trkpt lat="47.48591" lon="6.68783">
        <ele>344</ele>
        <time>2015-08-20T14:23:21.000Z</time>
      </trkpt>
      <trkpt lat="47.48595" lon="6.68787">
        <ele>344</ele>
        <time>2015-08-20T14:23:22.000Z</time>
      </trkpt>
      <trkpt lat="47.48599" lon="6.68792">
        <ele>345</ele>
        <time>2015-08-20T14:23:23.000Z</time>
      </trkpt>
      <trkpt lat="47.48603" lon="6.68796">
        <ele>345</ele>
        <time>2015-08-20T14:23:24.000Z</time>
      </trkpt>
      <trkpt lat="47.48606" lon="6.68801">
        <ele>345</ele>
        <time>2015-08-20T14:23:25.000Z</time>
      </trkpt>
      <trkpt lat="47.4861" lon="6.68806">
        <ele>345</ele>
        <time>2015-08-20T14:23:26.000Z</time>
      </trkpt>
      <trkpt lat="47.48616" lon="6.68811">
        <ele>345</ele>
        <time>2015-08-20T14:23:27.000Z</time>
      </trkpt>
      <trkpt lat="47.4862" lon="6.68815">
        <ele>345</ele>
        <time>2015-08-20T14:23:28.000Z</time>
      </trkpt>
      <trkpt lat="47.48622" lon="6.6882">
        <ele>345</ele>
        <time>2015-08-20T14:23:29.000Z</time>
      </trkpt>
      <trkpt lat="47.48625" lon="6.68825">
        <ele>345</ele>
        <time>2015-08-20T14:23:30.000Z</time>
      </trkpt>
      <trkpt lat="47.48628" lon="6.6883">
        <ele>345</ele>
        <time>2015-08-20T14:23:31.000Z</time>
      </trkpt>
      <trkpt lat="47.48631" lon="6.68833">
        <ele>345</ele>
        <time>2015-08-20T14:23:32.000Z</time>
      </trkpt>
      <trkpt lat="47.48634" lon="6.68838">
        <ele>345</ele>
        <time>2015-08-20T14:23:33.000Z</time>
      </trkpt>
      <trkpt lat="47.48636" lon="6.68842">
        <ele>345</ele>
        <time>2015-08-20T14:23:34.000Z</time>
      </trkpt>
      <trkpt lat="47.4864" lon="6.68846">
        <ele>345</ele>
        <time>2015-08-20T14:23:35.000Z</time>
      </trkpt>
      <trkpt lat="47.48644" lon="6.6885">
        <ele>345</ele>
        <time>2015-08-20T14:23:36.000Z</time>
      </trkpt>
      <trkpt lat="47.48646" lon="6.68856">
        <ele>345</ele>
        <time>2015-08-20T14:23:37.000Z</time>
      </trkpt>
      <trkpt lat="47.48649" lon="6.68861">
        <ele>345</ele>
        <time>2015-08-20T14:23:38.000Z</time>
      </trkpt>
      <trkpt lat="47.48652" lon="6.68866">
        <ele>345</ele>
        <time>2015-08-20T14:23:39.000Z</time>
      </trkpt>
      <trkpt lat="47.48654" lon="6.68871">
        <ele>345</ele>
        <time>2015-08-20T14:23:40.000Z</time>
      </trkpt>
      <trkpt lat="47.48657" lon="6.68876">
        <ele>345</ele>
        <time>2015-08-20T14:23:41.000Z</time>
      </trkpt>
      <trkpt lat="47.48658" lon="6.68882">
        <ele>345</ele>
        <time>2015-08-20T14:23:42.000Z</time>
      </trkpt>
      <trkpt lat="47.4866" lon="6.68887">
        <ele>345</ele>
        <time>2015-08-20T14:23:43.000Z</time>
      </trkpt>
      <trkpt lat="47.48662" lon="6.68893">
        <ele>345</ele>
        <time>2015-08-20T14:23:44.000Z</time>
      </trkpt>
      <trkpt lat="47.48664" lon="6.68898">
        <ele>344</ele>
        <time>2015-08-20T14:23:45.000Z</time>
      </trkpt>
      <trkpt lat="47.48667" lon="6.68903">
        <ele>344</ele>
        <time>2015-08-20T14:23:46.000Z</time>
      </trkpt>
      <trkpt lat="47.4867" lon="6.68908">
        <ele>344</ele>
        <time>2015-08-20T14:23:47.000Z</time>
      </trkpt>
      <trkpt lat="47.48673" lon="6.68913">
        <ele>343</ele>
        <time>2015-08-20T14:23:48.000Z</time>
      </trkpt>
      <trkpt lat="47.48675" lon="6.68918">
        <ele>343</ele>
        <time>2015-08-20T14:23:49.000Z</time>
      </trkpt>
      <trkpt lat="47.48677" lon="6.68922">
        <ele>342</ele>
        <time>2015-08-20T14:23:50.000Z</time>
      </trkpt>
      <trkpt lat="47.4868" lon="6.68927">
        <ele>342</ele>
        <time>2015-08-20T14:23:51.000Z</time>
      </trkpt>
      <trkpt lat="47.48682" lon="6.68931">
        <ele>342</ele>
        <time>2015-08-20T14:23:52.000Z</time>
      </trkpt>
      <trkpt lat="47.48685" lon="6.68935">
        <ele>342</ele>
        <time>2015-08-20T14:23:53.000Z</time>
      </trkpt>
      <trkpt lat="47.48687" lon="6.68938">
        <ele>342</ele>
        <time>2015-08-20T14:23:54.000Z</time>
      </trkpt>
      <trkpt lat="47.4869" lon="6.68941">
        <ele>342</ele>
        <time>2015-08-20T14:23:55.000Z</time>
      </trkpt>
      <trkpt lat="47.48693" lon="6.68943">
        <ele>342</ele>
        <time>2015-08-20T14:23:56.000Z</time>
      </trkpt>
      <trkpt lat="47.48695" lon="6.68945">
        <ele>342</ele>
        <time>2015-08-20T14:23:57.000Z</time>
      </trkpt>
      <trkpt lat="47.48692" lon="6.68945">
        <ele>342</ele>
        <time>2015-08-20T14:24:02.000Z</time>
      </trkpt>
      <trkpt lat="47.48689" lon="6.68944">
        <ele>342</ele>
        <time>2015-08-20T14:24:03.000Z</time>
      </trkpt>
      <trkpt lat="47.48686" lon="6.68942">
        <ele>342</ele>
        <time>2015-08-20T14:24:04.000Z</time>
      </trkpt>
      <trkpt lat="47.48684" lon="6.68942">
        <ele>342</ele>
        <time>2015-08-20T14:24:05.000Z</time>
      </trkpt>
      <trkpt lat="47.4868" lon="6.68939">
        <ele>342</ele>
        <time>2015-08-20T14:24:08.000Z</time>
      </trkpt>
      <trkpt lat="47.48679" lon="6.68938">
        <ele>342</ele>
        <time>2015-08-20T14:24:09.000Z</time>
      </trkpt>
      <trkpt lat="47.48677" lon="6.68933">
        <ele>342</ele>
        <time>2015-08-20T14:24:13.000Z</time>
      </trkpt>
      <trkpt lat="47.48676" lon="6.68931">
        <ele>342</ele>
        <time>2015-08-20T14:24:14.000Z</time>
      </trkpt>
      <trkpt lat="47.48672" lon="6.68927">
        <ele>342</ele>
        <time>2015-08-20T14:24:16.000Z</time>
      </trkpt>
      <trkpt lat="47.48671" lon="6.68925">
        <ele>343</ele>
        <time>2015-08-20T14:24:17.000Z</time>
      </trkpt>
      <trkpt lat="47.48668" lon="6.68921">
        <ele>343</ele>
        <time>2015-08-20T14:24:19.000Z</time>
      </trkpt>
      <trkpt lat="47.48668" lon="6.68918">
        <ele>343</ele>
        <time>2015-08-20T14:24:20.000Z</time>
      </trkpt>
      <trkpt lat="47.48665" lon="6.68913">
        <ele>343</ele>
        <time>2015-08-20T14:24:22.000Z</time>
      </trkpt>
      <trkpt lat="47.48663" lon="6.68911">
        <ele>344</ele>
        <time>2015-08-20T14:24:23.000Z</time>
      </trkpt>
      <trkpt lat="47.48659" lon="6.68908">
        <ele>344</ele>
        <time>2015-08-20T14:24:25.000Z</time>
      </trkpt>
      <trkpt lat="47.48658" lon="6.68907">
        <ele>344</ele>
        <time>2015-08-20T14:24:26.000Z</time>
      </trkpt>
      <trkpt lat="47.48654" lon="6.68904">
        <ele>345</ele>
        <time>2015-08-20T14:24:29.000Z</time>
      </trkpt>
      <trkpt lat="47.48653" lon="6.68903">
        <ele>345</ele>
        <time>2015-08-20T14:24:30.000Z</time>
      </trkpt>
      <trkpt lat="47.4865" lon="6.68898">
        <ele>345</ele>
        <time>2015-08-20T14:24:33.000Z</time>
      </trkpt>
      <trkpt lat="47.48649" lon="6.68896">
        <ele>345</ele>
        <time>2015-08-20T14:24:34.000Z</time>
      </trkpt>
      <trkpt lat="47.48646" lon="6.68894">
        <ele>345</ele>
        <time>2015-08-20T14:24:36.000Z</time>
      </trkpt>
      <trkpt lat="47.48644" lon="6.68892">
        <ele>345</ele>
        <time>2015-08-20T14:24:37.000Z</time>
      </trkpt>
      <trkpt lat="47.48641" lon="6.68889">
        <ele>345</ele>
        <time>2015-08-20T14:24:39.000Z</time>
      </trkpt>
      <trkpt lat="47.48639" lon="6.68887">
        <ele>345</ele>
        <time>2015-08-20T14:24:40.000Z</time>
      </trkpt>
      <trkpt lat="47.48636" lon="6.68883">
        <ele>345</ele>
        <time>2015-08-20T14:24:42.000Z</time>
      </trkpt>
      <trkpt lat="47.48634" lon="6.68881">
        <ele>346</ele>
        <time>2015-08-20T14:24:43.000Z</time>
      </trkpt>
      <trkpt lat="47.48631" lon="6.68878">
        <ele>346</ele>
        <time>2015-08-20T14:24:44.000Z</time>
      </trkpt>
      <trkpt lat="47.48629" lon="6.68875">
        <ele>346</ele>
        <time>2015-08-20T14:24:45.000Z</time>
      </trkpt>
      <trkpt lat="47.48626" lon="6.68872">
        <ele>346</ele>
        <time>2015-08-20T14:24:46.000Z</time>
      </trkpt>
      <trkpt lat="47.48623" lon="6.68869">
        <ele>346</ele>
        <time>2015-08-20T14:24:47.000Z</time>
      </trkpt>
      <trkpt lat="47.48621" lon="6.68867">
        <ele>346</ele>
        <time>2015-08-20T14:24:48.000Z</time>
      </trkpt>
      <trkpt lat="47.48619" lon="6.68864">
        <ele>346</ele>
        <time>2015-08-20T14:24:49.000Z</time>
      </trkpt>
      <trkpt lat="47.48617" lon="6.6886">
        <ele>346</ele>
        <time>2015-08-20T14:24:51.000Z</time>
      </trkpt>
      <trkpt lat="47.48615" lon="6.68858">
        <ele>346</ele>
        <time>2015-08-20T14:24:52.000Z</time>
      </trkpt>
      <trkpt lat="47.48613" lon="6.68855">
        <ele>346</ele>
        <time>2015-08-20T14:24:54.000Z</time>
      </trkpt>
      <trkpt lat="47.48611" lon="6.68853">
        <ele>346</ele>
        <time>2015-08-20T14:24:55.000Z</time>
      </trkpt>
      <trkpt lat="47.48609" lon="6.68851">
        <ele>346</ele>
        <time>2015-08-20T14:24:56.000Z</time>
      </trkpt>
      <trkpt lat="47.48607" lon="6.68849">
        <ele>346</ele>
        <time>2015-08-20T14:24:57.000Z</time>
      </trkpt>
      <trkpt lat="47.48604" lon="6.68847">
        <ele>346</ele>
        <time>2015-08-20T14:24:58.000Z</time>
      </trkpt>
      <trkpt lat="47.48603" lon="6.68845">
        <ele>346</ele>
        <time>2015-08-20T14:24:59.000Z</time>
      </trkpt>
      <trkpt lat="47.48599" lon="6.68842">
        <ele>346</ele>
        <time>2015-08-20T14:25:01.000Z</time>
      </trkpt>
      <trkpt lat="47.48598" lon="6.6884">
        <ele>346</ele>
        <time>2015-08-20T14:25:02.000Z</time>
      </trkpt>
      <trkpt lat="47.48595" lon="6.68838">
        <ele>346</ele>
        <time>2015-08-20T14:25:03.000Z</time>
      </trkpt>
      <trkpt lat="47.48593" lon="6.68836">
        <ele>346</ele>
        <time>2015-08-20T14:25:04.000Z</time>
      </trkpt>
      <trkpt lat="47.48591" lon="6.68834">
        <ele>346</ele>
        <time>2015-08-20T14:25:05.000Z</time>
      </trkpt>
      <trkpt lat="47.48589" lon="6.68832">
        <ele>346</ele>
        <time>2015-08-20T14:25:06.000Z</time>
      </trkpt>
      <trkpt lat="47.48586" lon="6.6883">
        <ele>346</ele>
        <time>2015-08-20T14:25:07.000Z</time>
      </trkpt>
      <trkpt lat="47.48584" lon="6.68829">
        <ele>346</ele>
        <time>2015-08-20T14:25:08.000Z</time>
      </trkpt>
      <trkpt lat="47.48581" lon="6.68824">
        <ele>346</ele>
        <time>2015-08-20T14:25:11.000Z</time>
      </trkpt>
      <trkpt lat="47.4858" lon="6.68822">
        <ele>346</ele>
        <time>2015-08-20T14:25:12.000Z</time>
      </trkpt>
      <trkpt lat="47.48577" lon="6.68818">
        <ele>346</ele>
        <time>2015-08-20T14:25:15.000Z</time>
      </trkpt>
      <trkpt lat="47.48576" lon="6.68816">
        <ele>346</ele>
        <time>2015-08-20T14:25:16.000Z</time>
      </trkpt>
      <trkpt lat="47.48573" lon="6.68813">
        <ele>346</ele>
        <time>2015-08-20T14:25:18.000Z</time>
      </trkpt>
      <trkpt lat="47.48571" lon="6.68811">
        <ele>346</ele>
        <time>2015-08-20T14:25:19.000Z</time>
      </trkpt>
      <trkpt lat="47.48567" lon="6.68808">
        <ele>346</ele>
        <time>2015-08-20T14:25:21.000Z</time>
      </trkpt>
      <trkpt lat="47.48565" lon="6.68807">
        <ele>346</ele>
        <time>2015-08-20T14:25:22.000Z</time>
      </trkpt>
      <trkpt lat="47.48563" lon="6.68805">
        <ele>346</ele>
        <time>2015-08-20T14:25:23.000Z</time>
      </trkpt>
      <trkpt lat="47.48561" lon="6.68804">
        <ele>346</ele>
        <time>2015-08-20T14:25:24.000Z</time>
      </trkpt>
      <trkpt lat="47.48559" lon="6.68802">
        <ele>346</ele>
        <time>2015-08-20T14:25:25.000Z</time>
      </trkpt>
      <trkpt lat="47.48556" lon="6.688">
        <ele>346</ele>
        <time>2015-08-20T14:25:26.000Z</time>
      </trkpt>
      <trkpt lat="47.48554" lon="6.68798">
        <ele>345</ele>
        <time>2015-08-20T14:25:27.000Z</time>
      </trkpt>
      <trkpt lat="47.48552" lon="6.68796">
        <ele>345</ele>
        <time>2015-08-20T14:25:28.000Z</time>
      </trkpt>
      <trkpt lat="47.48549" lon="6.68793">
        <ele>345</ele>
        <time>2015-08-20T14:25:29.103Z</time>
      </trkpt>
      <trkpt lat="47.48545" lon="6.6879">
        <ele>345</ele>
        <time>2015-08-20T14:25:31.000Z</time>
      </trkpt>
      <trkpt lat="47.48542" lon="6.68788">
        <ele>345</ele>
        <time>2015-08-20T14:25:32.000Z</time>
      </trkpt>
      <trkpt lat="47.4854" lon="6.68786">
        <ele>345</ele>
        <time>2015-08-20T14:25:33.000Z</time>
      </trkpt>
      <trkpt lat="47.48537" lon="6.68784">
        <ele>345</ele>
        <time>2015-08-20T14:25:34.000Z</time>
      </trkpt>
      <trkpt lat="47.48534" lon="6.68782">
        <ele>345</ele>
        <time>2015-08-20T14:25:35.000Z</time>
      </trkpt>
      <trkpt lat="47.48531" lon="6.68779">
        <ele>345</ele>
        <time>2015-08-20T14:25:36.000Z</time>
      </trkpt>
      <trkpt lat="47.48528" lon="6.68777">
        <ele>345</ele>
        <time>2015-08-20T14:25:37.000Z</time>
      </trkpt>
      <trkpt lat="47.48525" lon="6.68775">
        <ele>345</ele>
        <time>2015-08-20T14:25:38.000Z</time>
      </trkpt>
      <trkpt lat="47.48523" lon="6.68773">
        <ele>345</ele>
        <time>2015-08-20T14:25:39.000Z</time>
      </trkpt>
      <trkpt lat="47.48521" lon="6.68771">
        <ele>345</ele>
        <time>2015-08-20T14:25:40.000Z</time>
      </trkpt>
      <trkpt lat="47.48519" lon="6.68769">
        <ele>345</ele>
        <time>2015-08-20T14:25:41.000Z</time>
      </trkpt>
      <trkpt lat="47.48516" lon="6.68764">
        <ele>345</ele>
        <time>2015-08-20T14:25:43.000Z</time>
      </trkpt>
      <trkpt lat="47.48515" lon="6.68762">
        <ele>345</ele>
        <time>2015-08-20T14:25:44.000Z</time>
      </trkpt>
      <trkpt lat="47.48512" lon="6.68758">
        <ele>345</ele>
        <time>2015-08-20T14:25:46.000Z</time>
      </trkpt>
      <trkpt lat="47.4851" lon="6.68757">
        <ele>345</ele>
        <time>2015-08-20T14:25:47.000Z</time>
      </trkpt>
      <trkpt lat="47.48508" lon="6.68756">
        <ele>345</ele>
        <time>2015-08-20T14:25:48.000Z</time>
      </trkpt>
      <trkpt lat="47.48506" lon="6.68756">
        <ele>344</ele>
        <time>2015-08-20T14:25:49.000Z</time>
      </trkpt>
      <trkpt lat="47.48503" lon="6.68755">
        <ele>344</ele>
        <time>2015-08-20T14:25:50.000Z</time>
      </trkpt>
      <trkpt lat="47.48501" lon="6.68755">
        <ele>344</ele>
        <time>2015-08-20T14:25:51.000Z</time>
      </trkpt>
      <trkpt lat="47.48497" lon="6.68755">
        <ele>345</ele>
        <time>2015-08-20T14:25:53.000Z</time>
      </trkpt>
      <trkpt lat="47.48495" lon="6.68756">
        <ele>345</ele>
        <time>2015-08-20T14:25:54.000Z</time>
      </trkpt>
      <trkpt lat="47.48492" lon="6.68757">
        <ele>345</ele>
        <time>2015-08-20T14:25:56.000Z</time>
      </trkpt>
      <trkpt lat="47.48489" lon="6.68759">
        <ele>345</ele>
        <time>2015-08-20T14:25:57.000Z</time>
      </trkpt>
      <trkpt lat="47.48486" lon="6.6876">
        <ele>345</ele>
        <time>2015-08-20T14:25:58.000Z</time>
      </trkpt>
      <trkpt lat="47.48484" lon="6.68762">
        <ele>346</ele>
        <time>2015-08-20T14:25:59.000Z</time>
      </trkpt>
      <trkpt lat="47.48481" lon="6.68763">
        <ele>346</ele>
        <time>2015-08-20T14:26:00.000Z</time>
      </trkpt>
      <trkpt lat="47.48478" lon="6.68765">
        <ele>346</ele>
        <time>2015-08-20T14:26:01.000Z</time>
      </trkpt>
      <trkpt lat="47.48474" lon="6.68767">
        <ele>346</ele>
        <time>2015-08-20T14:26:02.000Z</time>
      </trkpt>
      <trkpt lat="47.48471" lon="6.68769">
        <ele>346</ele>
        <time>2015-08-20T14:26:03.000Z</time>
      </trkpt>
      <trkpt lat="47.48468" lon="6.68771">
        <ele>346</ele>
        <time>2015-08-20T14:26:04.000Z</time>
      </trkpt>
      <trkpt lat="47.48465" lon="6.68773">
        <ele>346</ele>
        <time>2015-08-20T14:26:05.000Z</time>
      </trkpt>
      <trkpt lat="47.48462" lon="6.68776">
        <ele>347</ele>
        <time>2015-08-20T14:26:06.000Z</time>
      </trkpt>
      <trkpt lat="47.4846" lon="6.68778">
        <ele>347</ele>
        <time>2015-08-20T14:26:07.000Z</time>
      </trkpt>
      <trkpt lat="47.48458" lon="6.68782">
        <ele>347</ele>
        <time>2015-08-20T14:26:08.000Z</time>
      </trkpt>
      <trkpt lat="47.48457" lon="6.68786">
        <ele>347</ele>
        <time>2015-08-20T14:26:09.000Z</time>
      </trkpt>
      <trkpt lat="47.48456" lon="6.6879">
        <ele>347</ele>
        <time>2015-08-20T14:26:10.000Z</time>
      </trkpt>
      <trkpt lat="47.48454" lon="6.68793">
        <ele>347</ele>
        <time>2015-08-20T14:26:11.000Z</time>
      </trkpt>
      <trkpt lat="47.48452" lon="6.68798">
        <ele>347</ele>
        <time>2015-08-20T14:26:13.000Z</time>
      </trkpt>
      <trkpt lat="47.48451" lon="6.688">
        <ele>347</ele>
        <time>2015-08-20T14:26:14.000Z</time>
      </trkpt>
      <trkpt lat="47.48449" lon="6.68806">
        <ele>347</ele>
        <time>2015-08-20T14:26:16.000Z</time>
      </trkpt>
      <trkpt lat="47.48448" lon="6.68809">
        <ele>348</ele>
        <time>2015-08-20T14:26:17.000Z</time>
      </trkpt>
      <trkpt lat="47.48448" lon="6.68815">
        <ele>348</ele>
        <time>2015-08-20T14:26:19.000Z</time>
      </trkpt>
      <trkpt lat="47.48448" lon="6.68818">
        <ele>348</ele>
        <time>2015-08-20T14:26:20.000Z</time>
      </trkpt>
      <trkpt lat="47.48448" lon="6.68823">
        <ele>348</ele>
        <time>2015-08-20T14:26:23.000Z</time>
      </trkpt>
      <trkpt lat="47.48448" lon="6.68824">
        <ele>348</ele>
        <time>2015-08-20T14:26:24.000Z</time>
      </trkpt>
      <trkpt lat="47.48446" lon="6.68829">
        <ele>348</ele>
        <time>2015-08-20T14:26:26.000Z</time>
      </trkpt>
      <trkpt lat="47.48445" lon="6.68832">
        <ele>348</ele>
        <time>2015-08-20T14:26:27.000Z</time>
      </trkpt>
      <trkpt lat="47.48444" lon="6.68835">
        <ele>350</ele>
        <time>2015-08-20T14:26:28.000Z</time>
      </trkpt>
      <trkpt lat="47.48443" lon="6.68839">
        <ele>350</ele>
        <time>2015-08-20T14:26:29.000Z</time>
      </trkpt>
      <trkpt lat="47.48443" lon="6.68843">
        <ele>350</ele>
        <time>2015-08-20T14:26:30.000Z</time>
      </trkpt>
      <trkpt lat="47.48442" lon="6.68847">
        <ele>350</ele>
        <time>2015-08-20T14:26:31.000Z</time>
      </trkpt>
      <trkpt lat="47.48442" lon="6.68852">
        <ele>350</ele>
        <time>2015-08-20T14:26:32.000Z</time>
      </trkpt>
      <trkpt lat="47.48442" lon="6.68855">
        <ele>350</ele>
        <time>2015-08-20T14:26:33.000Z</time>
      </trkpt>
      <trkpt lat="47.48441" lon="6.6886">
        <ele>350</ele>
        <time>2015-08-20T14:26:35.000Z</time>
      </trkpt>
      <trkpt lat="47.48441" lon="6.68862">
        <ele>350</ele>
        <time>2015-08-20T14:26:36.000Z</time>
      </trkpt>
      <trkpt lat="47.48441" lon="6.68868">
        <ele>351</ele>
        <time>2015-08-20T14:26:39.000Z</time>
      </trkpt>
      <trkpt lat="47.48441" lon="6.6887">
        <ele>351</ele>
        <time>2015-08-20T14:26:40.000Z</time>
      </trkpt>
      <trkpt lat="47.48443" lon="6.68876">
        <ele>351</ele>
        <time>2015-08-20T14:26:42.000Z</time>
      </trkpt>
      <trkpt lat="47.48445" lon="6.68879">
        <ele>351</ele>
        <time>2015-08-20T14:26:43.000Z</time>
      </trkpt>
      <trkpt lat="47.48447" lon="6.6888">
        <ele>351</ele>
        <time>2015-08-20T14:26:44.000Z</time>
      </trkpt>
      <trkpt lat="47.4845" lon="6.68881">
        <ele>351</ele>
        <time>2015-08-20T14:26:45.000Z</time>
      </trkpt>
      <trkpt lat="47.48452" lon="6.68883">
        <ele>351</ele>
        <time>2015-08-20T14:26:46.000Z</time>
      </trkpt>
      <trkpt lat="47.48454" lon="6.68884">
        <ele>351</ele>
        <time>2015-08-20T14:26:47.000Z</time>
      </trkpt>
      <trkpt lat="47.48456" lon="6.68885">
        <ele>351</ele>
        <time>2015-08-20T14:26:48.000Z</time>
      </trkpt>
      <trkpt lat="47.48458" lon="6.68888">
        <ele>351</ele>
        <time>2015-08-20T14:26:49.000Z</time>
      </trkpt>
      <trkpt lat="47.4846" lon="6.6889">
        <ele>351</ele>
        <time>2015-08-20T14:26:50.000Z</time>
      </trkpt>
      <trkpt lat="47.48463" lon="6.68893">
        <ele>351</ele>
        <time>2015-08-20T14:26:51.000Z</time>
      </trkpt>
      <trkpt lat="47.48465" lon="6.68896">
        <ele>351</ele>
        <time>2015-08-20T14:26:52.000Z</time>
      </trkpt>
      <trkpt lat="47.48467" lon="6.689">
        <ele>351</ele>
        <time>2015-08-20T14:26:53.000Z</time>
      </trkpt>
      <trkpt lat="47.4847" lon="6.68904">
        <ele>351</ele>
        <time>2015-08-20T14:26:54.000Z</time>
      </trkpt>
      <trkpt lat="47.48472" lon="6.68908">
        <ele>351</ele>
        <time>2015-08-20T14:26:55.000Z</time>
      </trkpt>
      <trkpt lat="47.48474" lon="6.68912">
        <ele>351</ele>
        <time>2015-08-20T14:26:56.000Z</time>
      </trkpt>
      <trkpt lat="47.48476" lon="6.68916">
        <ele>351</ele>
        <time>2015-08-20T14:26:57.000Z</time>
      </trkpt>
      <trkpt lat="47.48478" lon="6.6892">
        <ele>354</ele>
        <time>2015-08-20T14:26:58.000Z</time>
      </trkpt>
      <trkpt lat="47.4848" lon="6.68923">
        <ele>354</ele>
        <time>2015-08-20T14:26:59.000Z</time>
      </trkpt>
      <trkpt lat="47.48482" lon="6.68926">
        <ele>354</ele>
        <time>2015-08-20T14:27:00.000Z</time>
      </trkpt>
      <trkpt lat="47.48484" lon="6.68929">
        <ele>354</ele>
        <time>2015-08-20T14:27:01.000Z</time>
      </trkpt>
      <trkpt lat="47.48486" lon="6.68932">
        <ele>354</ele>
        <time>2015-08-20T14:27:02.000Z</time>
      </trkpt>
      <trkpt lat="47.48488" lon="6.68935">
        <ele>354</ele>
        <time>2015-08-20T14:27:03.000Z</time>
      </trkpt>
      <trkpt lat="47.4849" lon="6.68938">
        <ele>354</ele>
        <time>2015-08-20T14:27:04.000Z</time>
      </trkpt>
      <trkpt lat="47.48492" lon="6.6894">
        <ele>354</ele>
        <time>2015-08-20T14:27:05.000Z</time>
      </trkpt>
      <trkpt lat="47.48494" lon="6.68943">
        <ele>354</ele>
        <time>2015-08-20T14:27:06.000Z</time>
      </trkpt>
      <trkpt lat="47.48496" lon="6.68945">
        <ele>354</ele>
        <time>2015-08-20T14:27:07.000Z</time>
      </trkpt>
      <trkpt lat="47.48499" lon="6.68949">
        <ele>355</ele>
        <time>2015-08-20T14:27:08.000Z</time>
      </trkpt>
      <trkpt lat="47.48501" lon="6.68953">
        <ele>353</ele>
        <time>2015-08-20T14:27:09.000Z</time>
      </trkpt>
      <trkpt lat="47.48505" lon="6.68957">
        <ele>354</ele>
        <time>2015-08-20T14:27:10.000Z</time>
      </trkpt>
      <trkpt lat="47.48508" lon="6.68962">
        <ele>354</ele>
        <time>2015-08-20T14:27:11.000Z</time>
      </trkpt>
      <trkpt lat="47.4851" lon="6.68966">
        <ele>354</ele>
        <time>2015-08-20T14:27:12.000Z</time>
      </trkpt>
      <trkpt lat="47.48513" lon="6.68969">
        <ele>354</ele>
        <time>2015-08-20T14:27:13.000Z</time>
      </trkpt>
      <trkpt lat="47.48515" lon="6.68972">
        <ele>354</ele>
        <time>2015-08-20T14:27:14.000Z</time>
      </trkpt>
      <trkpt lat="47.48516" lon="6.68975">
        <ele>355</ele>
        <time>2015-08-20T14:27:15.000Z</time>
      </trkpt>
      <trkpt lat="47.48518" lon="6.68978">
        <ele>355</ele>
        <time>2015-08-20T14:27:16.000Z</time>
      </trkpt>
      <trkpt lat="47.4852" lon="6.68981">
        <ele>355</ele>
        <time>2015-08-20T14:27:17.000Z</time>
      </trkpt>
      <trkpt lat="47.48522" lon="6.68984">
        <ele>355</ele>
        <time>2015-08-20T14:27:18.000Z</time>
      </trkpt>
      <trkpt lat="47.48524" lon="6.68987">
        <ele>355</ele>
        <time>2015-08-20T14:27:19.000Z</time>
      </trkpt>
      <trkpt lat="47.48526" lon="6.6899">
        <ele>355</ele>
        <time>2015-08-20T14:27:20.000Z</time>
      </trkpt>
      <trkpt lat="47.48528" lon="6.68993">
        <ele>355</ele>
        <time>2015-08-20T14:27:21.000Z</time>
      </trkpt>
      <trkpt lat="47.4853" lon="6.68998">
        <ele>355</ele>
        <time>2015-08-20T14:27:22.000Z</time>
      </trkpt>
      <trkpt lat="47.48533" lon="6.69002">
        <ele>357</ele>
        <time>2015-08-20T14:27:23.000Z</time>
      </trkpt>
      <trkpt lat="47.48535" lon="6.69006">
        <ele>357</ele>
        <time>2015-08-20T14:27:24.000Z</time>
      </trkpt>
      <trkpt lat="47.48537" lon="6.69011">
        <ele>357</ele>
        <time>2015-08-20T14:27:25.000Z</time>
      </trkpt>
      <trkpt lat="47.4854" lon="6.69015">
        <ele>357</ele>
        <time>2015-08-20T14:27:26.000Z</time>
      </trkpt>
      <trkpt lat="47.48542" lon="6.6902">
        <ele>357</ele>
        <time>2015-08-20T14:27:27.000Z</time>
      </trkpt>
      <trkpt lat="47.48543" lon="6.69023">
        <ele>357</ele>
        <time>2015-08-20T14:27:28.000Z</time>
      </trkpt>
      <trkpt lat="47.48544" lon="6.69027">
        <ele>357</ele>
        <time>2015-08-20T14:27:29.000Z</time>
      </trkpt>
      <trkpt lat="47.48545" lon="6.69032">
        <ele>357</ele>
        <time>2015-08-20T14:27:31.000Z</time>
      </trkpt>
      <trkpt lat="47.48545" lon="6.69034">
        <ele>357</ele>
        <time>2015-08-20T14:27:32.000Z</time>
      </trkpt>
      <trkpt lat="47.48548" lon="6.69036">
        <ele>357</ele>
        <time>2015-08-20T14:27:35.000Z</time>
      </trkpt>
      <trkpt lat="47.48549" lon="6.69038">
        <ele>357</ele>
        <time>2015-08-20T14:27:36.000Z</time>
      </trkpt>
      <trkpt lat="47.48552" lon="6.69043">
        <ele>357</ele>
        <time>2015-08-20T14:27:38.000Z</time>
      </trkpt>
      <trkpt lat="47.48553" lon="6.69045">
        <ele>357</ele>
        <time>2015-08-20T14:27:39.000Z</time>
      </trkpt>
      <trkpt lat="47.48555" lon="6.69047">
        <ele>357</ele>
        <time>2015-08-20T14:27:40.000Z</time>
      </trkpt>
      <trkpt lat="47.48556" lon="6.69049">
        <ele>357</ele>
        <time>2015-08-20T14:27:41.000Z</time>
      </trkpt>
      <trkpt lat="47.48559" lon="6.69051">
        <ele>357</ele>
        <time>2015-08-20T14:27:42.000Z</time>
      </trkpt>
      <trkpt lat="47.48562" lon="6.69052">
        <ele>356</ele>
        <time>2015-08-20T14:27:43.000Z</time>
      </trkpt>
      <trkpt lat="47.48564" lon="6.69053">
        <ele>356</ele>
        <time>2015-08-20T14:27:44.000Z</time>
      </trkpt>
      <trkpt lat="47.48568" lon="6.69055">
        <ele>356</ele>
        <time>2015-08-20T14:27:45.000Z</time>
      </trkpt>
      <trkpt lat="47.48571" lon="6.69058">
        <ele>356</ele>
        <time>2015-08-20T14:27:46.000Z</time>
      </trkpt>
      <trkpt lat="47.48574" lon="6.69061">
        <ele>356</ele>
        <time>2015-08-20T14:27:47.000Z</time>
      </trkpt>
      <trkpt lat="47.48577" lon="6.69066">
        <ele>355</ele>
        <time>2015-08-20T14:27:48.000Z</time>
      </trkpt>
      <trkpt lat="47.4858" lon="6.69071">
        <ele>355</ele>
        <time>2015-08-20T14:27:49.000Z</time>
      </trkpt>
      <trkpt lat="47.48583" lon="6.69077">
        <ele>354</ele>
        <time>2015-08-20T14:27:50.000Z</time>
      </trkpt>
      <trkpt lat="47.48586" lon="6.69082">
        <ele>352</ele>
        <time>2015-08-20T14:27:51.000Z</time>
      </trkpt>
      <trkpt lat="47.48589" lon="6.69086">
        <ele>353</ele>
        <time>2015-08-20T14:27:52.000Z</time>
      </trkpt>
      <trkpt lat="47.48591" lon="6.6909">
        <ele>353</ele>
        <time>2015-08-20T14:27:53.000Z</time>
      </trkpt>
      <trkpt lat="47.48594" lon="6.69092">
        <ele>353</ele>
        <time>2015-08-20T14:27:54.000Z</time>
      </trkpt>
      <trkpt lat="47.48597" lon="6.69095">
        <ele>353</ele>
        <time>2015-08-20T14:27:55.000Z</time>
      </trkpt>
      <trkpt lat="47.486" lon="6.69096">
        <ele>353</ele>
        <time>2015-08-20T14:27:56.000Z</time>
      </trkpt>
      <trkpt lat="47.48602" lon="6.69098">
        <ele>353</ele>
        <time>2015-08-20T14:27:57.000Z</time>
      </trkpt>
      <trkpt lat="47.48605" lon="6.691">
        <ele>352</ele>
        <time>2015-08-20T14:27:58.000Z</time>
      </trkpt>
      <trkpt lat="47.48606" lon="6.69102">
        <ele>352</ele>
        <time>2015-08-20T14:27:59.000Z</time>
      </trkpt>
      <trkpt lat="47.48609" lon="6.69105">
        <ele>352</ele>
        <time>2015-08-20T14:28:01.000Z</time>
      </trkpt>
      <trkpt lat="47.4861" lon="6.69107">
        <ele>352</ele>
        <time>2015-08-20T14:28:02.000Z</time>
      </trkpt>
      <trkpt lat="47.48613" lon="6.69111">
        <ele>352</ele>
        <time>2015-08-20T14:28:05.000Z</time>
      </trkpt>
      <trkpt lat="47.48614" lon="6.69112">
        <ele>352</ele>
        <time>2015-08-20T14:28:06.000Z</time>
      </trkpt>
      <trkpt lat="47.48617" lon="6.69116">
        <ele>352</ele>
        <time>2015-08-20T14:28:09.000Z</time>
      </trkpt>
      <trkpt lat="47.48619" lon="6.69117">
        <ele>352</ele>
        <time>2015-08-20T14:28:10.000Z</time>
      </trkpt>
      <trkpt lat="47.48622" lon="6.69119">
        <ele>352</ele>
        <time>2015-08-20T14:28:12.000Z</time>
      </trkpt>
      <trkpt lat="47.48623" lon="6.69121">
        <ele>352</ele>
        <time>2015-08-20T14:28:13.000Z</time>
      </trkpt>
      <trkpt lat="47.48627" lon="6.69124">
        <ele>352</ele>
        <time>2015-08-20T14:28:15.000Z</time>
      </trkpt>
      <trkpt lat="47.48629" lon="6.69125">
        <ele>352</ele>
        <time>2015-08-20T14:28:16.000Z</time>
      </trkpt>
      <trkpt lat="47.48632" lon="6.69128">
        <ele>352</ele>
        <time>2015-08-20T14:28:18.000Z</time>
      </trkpt>
      <trkpt lat="47.48634" lon="6.6913">
        <ele>352</ele>
        <time>2015-08-20T14:28:19.000Z</time>
      </trkpt>
      <trkpt lat="47.48637" lon="6.69134">
        <ele>353</ele>
        <time>2015-08-20T14:28:21.000Z</time>
      </trkpt>
      <trkpt lat="47.48638" lon="6.69136">
        <ele>353</ele>
        <time>2015-08-20T14:28:22.000Z</time>
      </trkpt>
      <trkpt lat="47.4864" lon="6.69138">
        <ele>353</ele>
        <time>2015-08-20T14:28:23.000Z</time>
      </trkpt>
      <trkpt lat="47.48641" lon="6.69141">
        <ele>353</ele>
        <time>2015-08-20T14:28:24.000Z</time>
      </trkpt>
      <trkpt lat="47.48643" lon="6.69144">
        <ele>353</ele>
        <time>2015-08-20T14:28:25.000Z</time>
      </trkpt>
      <trkpt lat="47.48645" lon="6.69147">
        <ele>353</ele>
        <time>2015-08-20T14:28:26.000Z</time>
      </trkpt>
      <trkpt lat="47.48648" lon="6.6915">
        <ele>353</ele>
        <time>2015-08-20T14:28:27.000Z</time>
      </trkpt>
      <trkpt lat="47.48649" lon="6.69153">
        <ele>353</ele>
        <time>2015-08-20T14:28:28.000Z</time>
      </trkpt>
      <trkpt lat="47.48651" lon="6.69158">
        <ele>353</ele>
        <time>2015-08-20T14:28:30.000Z</time>
      </trkpt>
      <trkpt lat="47.48652" lon="6.6916">
        <ele>353</ele>
        <time>2015-08-20T14:28:31.000Z</time>
      </trkpt>
      <trkpt lat="47.48655" lon="6.69164">
        <ele>353</ele>
        <time>2015-08-20T14:28:34.000Z</time>
      </trkpt>
      <trkpt lat="47.48657" lon="6.69166">
        <ele>354</ele>
        <time>2015-08-20T14:28:35.000Z</time>
      </trkpt>
      <trkpt lat="47.48658" lon="6.69168">
        <ele>355</ele>
        <time>2015-08-20T14:28:36.000Z</time>
      </trkpt>
      <trkpt lat="47.4866" lon="6.6917">
        <ele>355</ele>
        <time>2015-08-20T14:28:37.000Z</time>
      </trkpt>
      <trkpt lat="47.48663" lon="6.69172">
        <ele>355</ele>
        <time>2015-08-20T14:28:38.000Z</time>
      </trkpt>
      <trkpt lat="47.48665" lon="6.69174">
        <ele>355</ele>
        <time>2015-08-20T14:28:39.000Z</time>
      </trkpt>
      <trkpt lat="47.48668" lon="6.69176">
        <ele>354</ele>
        <time>2015-08-20T14:28:40.000Z</time>
      </trkpt>
      <trkpt lat="47.48669" lon="6.69178">
        <ele>355</ele>
        <time>2015-08-20T14:28:41.000Z</time>
      </trkpt>
      <trkpt lat="47.48672" lon="6.69181">
        <ele>355</ele>
        <time>2015-08-20T14:28:43.000Z</time>
      </trkpt>
      <trkpt lat="47.48674" lon="6.69183">
        <ele>355</ele>
        <time>2015-08-20T14:28:44.000Z</time>
      </trkpt>
      <trkpt lat="47.48676" lon="6.69185">
        <ele>355</ele>
        <time>2015-08-20T14:28:45.000Z</time>
      </trkpt>
      <trkpt lat="47.48678" lon="6.69188">
        <ele>355</ele>
        <time>2015-08-20T14:28:46.000Z</time>
      </trkpt>
      <trkpt lat="47.48681" lon="6.69191">
        <ele>355</ele>
        <time>2015-08-20T14:28:47.000Z</time>
      </trkpt>
      <trkpt lat="47.48684" lon="6.69194">
        <ele>355</ele>
        <time>2015-08-20T14:28:48.000Z</time>
      </trkpt>
      <trkpt lat="47.48687" lon="6.69198">
        <ele>355</ele>
        <time>2015-08-20T14:28:49.000Z</time>
      </trkpt>
      <trkpt lat="47.4869" lon="6.69202">
        <ele>355</ele>
        <time>2015-08-20T14:28:50.000Z</time>
      </trkpt>
      <trkpt lat="47.48693" lon="6.69206">
        <ele>355</ele>
        <time>2015-08-20T14:28:51.000Z</time>
      </trkpt>
      <trkpt lat="47.48695" lon="6.69209">
        <ele>356</ele>
        <time>2015-08-20T14:28:52.000Z</time>
      </trkpt>
      <trkpt lat="47.48698" lon="6.69213">
        <ele>356</ele>
        <time>2015-08-20T14:28:53.000Z</time>
      </trkpt>
      <trkpt lat="47.487" lon="6.69216">
        <ele>356</ele>
        <time>2015-08-20T14:28:54.000Z</time>
      </trkpt>
      <trkpt lat="47.48702" lon="6.69219">
        <ele>356</ele>
        <time>2015-08-20T14:28:55.000Z</time>
      </trkpt>
      <trkpt lat="47.48703" lon="6.69222">
        <ele>356</ele>
        <time>2015-08-20T14:28:56.000Z</time>
      </trkpt>
      <trkpt lat="47.48705" lon="6.69225">
        <ele>356</ele>
        <time>2015-08-20T14:28:57.000Z</time>
      </trkpt>
      <trkpt lat="47.48707" lon="6.69228">
        <ele>356</ele>
        <time>2015-08-20T14:28:58.000Z</time>
      </trkpt>
      <trkpt lat="47.48709" lon="6.69231">
        <ele>356</ele>
        <time>2015-08-20T14:28:59.000Z</time>
      </trkpt>
      <trkpt lat="47.48712" lon="6.69234">
        <ele>356</ele>
        <time>2015-08-20T14:29:00.000Z</time>
      </trkpt>
      <trkpt lat="47.48715" lon="6.69237">
        <ele>356</ele>
        <time>2015-08-20T14:29:01.000Z</time>
      </trkpt>
      <trkpt lat="47.48718" lon="6.6924">
        <ele>356</ele>
        <time>2015-08-20T14:29:02.000Z</time>
      </trkpt>
      <trkpt lat="47.48721" lon="6.69243">
        <ele>356</ele>
        <time>2015-08-20T14:29:03.000Z</time>
      </trkpt>
      <trkpt lat="47.48724" lon="6.69246">
        <ele>356</ele>
        <time>2015-08-20T14:29:04.000Z</time>
      </trkpt>
      <trkpt lat="47.48728" lon="6.69249">
        <ele>356</ele>
        <time>2015-08-20T14:29:05.000Z</time>
      </trkpt>
      <trkpt lat="47.4873" lon="6.69251">
        <ele>360</ele>
        <time>2015-08-20T14:29:06.000Z</time>
      </trkpt>
      <trkpt lat="47.48733" lon="6.69255">
        <ele>359</ele>
        <time>2015-08-20T14:29:08.000Z</time>
      </trkpt>
      <trkpt lat="47.48734" lon="6.69256">
        <ele>359</ele>
        <time>2015-08-20T14:29:09.000Z</time>
      </trkpt>
      <trkpt lat="47.48738" lon="6.6926">
        <ele>359</ele>
        <time>2015-08-20T14:29:12.000Z</time>
      </trkpt>
      <trkpt lat="47.48739" lon="6.69261">
        <ele>359</ele>
        <time>2015-08-20T14:29:13.000Z</time>
      </trkpt>
      <trkpt lat="47.48742" lon="6.69263">
        <ele>359</ele>
        <time>2015-08-20T14:29:15.000Z</time>
      </trkpt>
      <trkpt lat="47.48744" lon="6.69264">
        <ele>359</ele>
        <time>2015-08-20T14:29:16.000Z</time>
      </trkpt>
      <trkpt lat="47.48748" lon="6.69267">
        <ele>359</ele>
        <time>2015-08-20T14:29:18.000Z</time>
      </trkpt>
      <trkpt lat="47.4875" lon="6.69268">
        <ele>357</ele>
        <time>2015-08-20T14:29:19.000Z</time>
      </trkpt>
      <trkpt lat="47.48754" lon="6.69271">
        <ele>357</ele>
        <time>2015-08-20T14:29:21.000Z</time>
      </trkpt>
      <trkpt lat="47.48756" lon="6.69272">
        <ele>357</ele>
        <time>2015-08-20T14:29:22.000Z</time>
      </trkpt>
      <trkpt lat="47.4876" lon="6.69273">
        <ele>357</ele>
        <time>2015-08-20T14:29:24.000Z</time>
      </trkpt>
      <trkpt lat="47.48762" lon="6.69273">
        <ele>357</ele>
        <time>2015-08-20T14:29:25.000Z</time>
      </trkpt>
      <trkpt lat="47.48766" lon="6.69274">
        <ele>357</ele>
        <time>2015-08-20T14:29:27.000Z</time>
      </trkpt>
      <trkpt lat="47.48769" lon="6.69275">
        <ele>357</ele>
        <time>2015-08-20T14:29:28.000Z</time>
      </trkpt>
      <trkpt lat="47.48772" lon="6.69276">
        <ele>357</ele>
        <time>2015-08-20T14:29:29.000Z</time>
      </trkpt>
      <trkpt lat="47.48776" lon="6.69277">
        <ele>357</ele>
        <time>2015-08-20T14:29:30.000Z</time>
      </trkpt>
      <trkpt lat="47.48779" lon="6.69278">
        <ele>357</ele>
        <time>2015-08-20T14:29:31.000Z</time>
      </trkpt>
      <trkpt lat="47.48782" lon="6.69278">
        <ele>357</ele>
        <time>2015-08-20T14:29:32.000Z</time>
      </trkpt>
      <trkpt lat="47.48785" lon="6.6928">
        <ele>357</ele>
        <time>2015-08-20T14:29:33.000Z</time>
      </trkpt>
      <trkpt lat="47.48788" lon="6.69281">
        <ele>357</ele>
        <time>2015-08-20T14:29:34.000Z</time>
      </trkpt>
      <trkpt lat="47.48791" lon="6.69283">
        <ele>357</ele>
        <time>2015-08-20T14:29:35.000Z</time>
      </trkpt>
      <trkpt lat="47.48794" lon="6.69285">
        <ele>357</ele>
        <time>2015-08-20T14:29:36.000Z</time>
      </trkpt>
      <trkpt lat="47.48797" lon="6.69287">
        <ele>357</ele>
        <time>2015-08-20T14:29:37.000Z</time>
      </trkpt>
      <trkpt lat="47.48801" lon="6.69289">
        <ele>357</ele>
        <time>2015-08-20T14:29:38.000Z</time>
      </trkpt>
      <trkpt lat="47.48804" lon="6.6929">
        <ele>357</ele>
        <time>2015-08-20T14:29:39.000Z</time>
      </trkpt>
      <trkpt lat="47.48807" lon="6.69292">
        <ele>357</ele>
        <time>2015-08-20T14:29:40.000Z</time>
      </trkpt>
      <trkpt lat="47.48811" lon="6.69293">
        <ele>357</ele>
        <time>2015-08-20T14:29:41.000Z</time>
      </trkpt>
      <trkpt lat="47.48815" lon="6.69295">
        <ele>357</ele>
        <time>2015-08-20T14:29:42.000Z</time>
      </trkpt>
      <trkpt lat="47.48819" lon="6.69296">
        <ele>357</ele>
        <time>2015-08-20T14:29:43.000Z</time>
      </trkpt>
      <trkpt lat="47.48823" lon="6.69296">
        <ele>357</ele>
        <time>2015-08-20T14:29:44.000Z</time>
      </trkpt>
      <trkpt lat="47.48827" lon="6.69297">
        <ele>357</ele>
        <time>2015-08-20T14:29:45.000Z</time>
      </trkpt>
      <trkpt lat="47.48832" lon="6.69299">
        <ele>357</ele>
        <time>2015-08-20T14:29:46.000Z</time>
      </trkpt>
      <trkpt lat="47.48838" lon="6.69301">
        <ele>354</ele>
        <time>2015-08-20T14:29:47.000Z</time>
      </trkpt>
      <trkpt lat="47.48843" lon="6.69304">
        <ele>354</ele>
        <time>2015-08-20T14:29:48.000Z</time>
      </trkpt>
      <trkpt lat="47.48848" lon="6.69307">
        <ele>354</ele>
        <time>2015-08-20T14:29:49.000Z</time>
      </trkpt>
      <trkpt lat="47.48852" lon="6.6931">
        <ele>354</ele>
        <time>2015-08-20T14:29:50.000Z</time>
      </trkpt>
      <trkpt lat="47.48857" lon="6.69313">
        <ele>354</ele>
        <time>2015-08-20T14:29:51.000Z</time>
      </trkpt>
      <trkpt lat="47.48862" lon="6.69316">
        <ele>354</ele>
        <time>2015-08-20T14:29:52.000Z</time>
      </trkpt>
      <trkpt lat="47.48866" lon="6.69318">
        <ele>354</ele>
        <time>2015-08-20T14:29:53.000Z</time>
      </trkpt>
      <trkpt lat="47.48869" lon="6.6932">
        <ele>354</ele>
        <time>2015-08-20T14:29:54.000Z</time>
      </trkpt>
      <trkpt lat="47.48873" lon="6.69321">
        <ele>354</ele>
        <time>2015-08-20T14:29:55.000Z</time>
      </trkpt>
      <trkpt lat="47.48876" lon="6.69323">
        <ele>353</ele>
        <time>2015-08-20T14:29:56.000Z</time>
      </trkpt>
      <trkpt lat="47.48878" lon="6.69326">
        <ele>353</ele>
        <time>2015-08-20T14:29:57.000Z</time>
      </trkpt>
      <trkpt lat="47.48881" lon="6.69328">
        <ele>353</ele>
        <time>2015-08-20T14:29:58.000Z</time>
      </trkpt>
      <trkpt lat="47.48883" lon="6.69329">
        <ele>353</ele>
        <time>2015-08-20T14:29:59.000Z</time>
      </trkpt>
      <trkpt lat="47.48885" lon="6.6933">
        <ele>353</ele>
        <time>2015-08-20T14:30:00.000Z</time>
      </trkpt>
      <trkpt lat="47.48887" lon="6.69331">
        <ele>353</ele>
        <time>2015-08-20T14:30:01.000Z</time>
      </trkpt>
      <trkpt lat="47.48889" lon="6.69332">
        <ele>353</ele>
        <time>2015-08-20T14:30:02.000Z</time>
      </trkpt>
      <trkpt lat="47.48892" lon="6.69332">
        <ele>353</ele>
        <time>2015-08-20T14:30:03.000Z</time>
      </trkpt>
      <trkpt lat="47.48896" lon="6.69332">
        <ele>353</ele>
        <time>2015-08-20T14:30:04.000Z</time>
      </trkpt>
      <trkpt lat="47.489" lon="6.69332">
        <ele>353</ele>
        <time>2015-08-20T14:30:05.000Z</time>
      </trkpt>
      <trkpt lat="47.48904" lon="6.69332">
        <ele>353</ele>
        <time>2015-08-20T14:30:06.000Z</time>
      </trkpt>
      <trkpt lat="47.48908" lon="6.69332">
        <ele>353</ele>
        <time>2015-08-20T14:30:07.000Z</time>
      </trkpt>
      <trkpt lat="47.48911" lon="6.69332">
        <ele>353</ele>
        <time>2015-08-20T14:30:08.000Z</time>
      </trkpt>
      <trkpt lat="47.48915" lon="6.69332">
        <ele>353</ele>
        <time>2015-08-20T14:30:09.000Z</time>
      </trkpt>
      <trkpt lat="47.48918" lon="6.69332">
        <ele>353</ele>
        <time>2015-08-20T14:30:10.000Z</time>
      </trkpt>
      <trkpt lat="47.48922" lon="6.69332">
        <ele>353</ele>
        <time>2015-08-20T14:30:11.000Z</time>
      </trkpt>
      <trkpt lat="47.48927" lon="6.69331">
        <ele>352</ele>
        <time>2015-08-20T14:30:12.000Z</time>
      </trkpt>
      <trkpt lat="47.48931" lon="6.6933">
        <ele>352</ele>
        <time>2015-08-20T14:30:13.000Z</time>
      </trkpt>
      <trkpt lat="47.48936" lon="6.69328">
        <ele>352</ele>
        <time>2015-08-20T14:30:14.000Z</time>
      </trkpt>
      <trkpt lat="47.48941" lon="6.69327">
        <ele>352</ele>
        <time>2015-08-20T14:30:15.000Z</time>
      </trkpt>
      <trkpt lat="47.48946" lon="6.69326">
        <ele>352</ele>
        <time>2015-08-20T14:30:16.000Z</time>
      </trkpt>
      <trkpt lat="47.48952" lon="6.69325">
        <ele>352</ele>
        <time>2015-08-20T14:30:17.000Z</time>
      </trkpt>
      <trkpt lat="47.48958" lon="6.69325">
        <ele>352</ele>
        <time>2015-08-20T14:30:18.000Z</time>
      </trkpt>
      <trkpt lat="47.48964" lon="6.69324">
        <ele>352</ele>
        <time>2015-08-20T14:30:19.000Z</time>
      </trkpt>
      <trkpt lat="47.4897" lon="6.69324">
        <ele>352</ele>
        <time>2015-08-20T14:30:20.000Z</time>
      </trkpt>
      <trkpt lat="47.48975" lon="6.69324">
        <ele>352</ele>
        <time>2015-08-20T14:30:21.000Z</time>
      </trkpt>
      <trkpt lat="47.48981" lon="6.69323">
        <ele>352</ele>
        <time>2015-08-20T14:30:22.000Z</time>
      </trkpt>
      <trkpt lat="47.48987" lon="6.69321">
        <ele>352</ele>
        <time>2015-08-20T14:30:23.000Z</time>
      </trkpt>
      <trkpt lat="47.48992" lon="6.6932">
        <ele>352</ele>
        <time>2015-08-20T14:30:24.000Z</time>
      </trkpt>
      <trkpt lat="47.48996" lon="6.69319">
        <ele>352</ele>
        <time>2015-08-20T14:30:25.000Z</time>
      </trkpt>
      <trkpt lat="47.48999" lon="6.69319">
        <ele>352</ele>
        <time>2015-08-20T14:30:26.000Z</time>
      </trkpt>
      <trkpt lat="47.49001" lon="6.69325">
        <ele>352</ele>
        <time>2015-08-20T14:30:31.000Z</time>
      </trkpt>
      <trkpt lat="47.49" lon="6.69326">
        <ele>352</ele>
        <time>2015-08-20T14:30:32.000Z</time>
      </trkpt>
      <trkpt lat="47.48997" lon="6.69329">
        <ele>353</ele>
        <time>2015-08-20T14:30:37.000Z</time>
      </trkpt>
      <trkpt lat="47.48996" lon="6.6933">
        <ele>353</ele>
        <time>2015-08-20T14:30:38.000Z</time>
      </trkpt>
      <trkpt lat="47.48994" lon="6.69334">
        <ele>354</ele>
        <time>2015-08-20T14:30:40.000Z</time>
      </trkpt>
      <trkpt lat="47.48994" lon="6.69336">
        <ele>354</ele>
        <time>2015-08-20T14:30:41.000Z</time>
      </trkpt>
      <trkpt lat="47.48995" lon="6.69342">
        <ele>354</ele>
        <time>2015-08-20T14:30:43.000Z</time>
      </trkpt>
      <trkpt lat="47.48995" lon="6.69345">
        <ele>354</ele>
        <time>2015-08-20T14:30:44.000Z</time>
      </trkpt>
      <trkpt lat="47.48996" lon="6.69351">
        <ele>355</ele>
        <time>2015-08-20T14:30:46.000Z</time>
      </trkpt>
      <trkpt lat="47.48997" lon="6.69354">
        <ele>355</ele>
        <time>2015-08-20T14:30:47.000Z</time>
      </trkpt>
      <trkpt lat="47.48999" lon="6.69359">
        <ele>355</ele>
        <time>2015-08-20T14:30:49.000Z</time>
      </trkpt>
      <trkpt lat="47.49" lon="6.69362">
        <ele>355</ele>
        <time>2015-08-20T14:30:50.000Z</time>
      </trkpt>
      <trkpt lat="47.49001" lon="6.69368">
        <ele>355</ele>
        <time>2015-08-20T14:30:52.000Z</time>
      </trkpt>
      <trkpt lat="47.49002" lon="6.69371">
        <ele>355</ele>
        <time>2015-08-20T14:30:53.000Z</time>
      </trkpt>
      <trkpt lat="47.49003" lon="6.69374">
        <ele>355</ele>
        <time>2015-08-20T14:30:54.000Z</time>
      </trkpt>
      <trkpt lat="47.49004" lon="6.69377">
        <ele>355</ele>
        <time>2015-08-20T14:30:55.000Z</time>
      </trkpt>
      <trkpt lat="47.49006" lon="6.6938">
        <ele>355</ele>
        <time>2015-08-20T14:30:56.000Z</time>
      </trkpt>
      <trkpt lat="47.49007" lon="6.69383">
        <ele>355</ele>
        <time>2015-08-20T14:30:57.000Z</time>
      </trkpt>
      <trkpt lat="47.49009" lon="6.69386">
        <ele>356</ele>
        <time>2015-08-20T14:30:58.000Z</time>
      </trkpt>
      <trkpt lat="47.49011" lon="6.69388">
        <ele>356</ele>
        <time>2015-08-20T14:30:59.000Z</time>
      </trkpt>
      <trkpt lat="47.49014" lon="6.69392">
        <ele>356</ele>
        <time>2015-08-20T14:31:01.000Z</time>
      </trkpt>
      <trkpt lat="47.49015" lon="6.69395">
        <ele>356</ele>
        <time>2015-08-20T14:31:02.000Z</time>
      </trkpt>
      <trkpt lat="47.49016" lon="6.69398">
        <ele>356</ele>
        <time>2015-08-20T14:31:03.000Z</time>
      </trkpt>
      <trkpt lat="47.49017" lon="6.69401">
        <ele>356</ele>
        <time>2015-08-20T14:31:04.000Z</time>
      </trkpt>
      <trkpt lat="47.49019" lon="6.69405">
        <ele>356</ele>
        <time>2015-08-20T14:31:05.000Z</time>
      </trkpt>
      <trkpt lat="47.49021" lon="6.69408">
        <ele>356</ele>
        <time>2015-08-20T14:31:06.000Z</time>
      </trkpt>
      <trkpt lat="47.49023" lon="6.69411">
        <ele>356</ele>
        <time>2015-08-20T14:31:07.000Z</time>
      </trkpt>
      <trkpt lat="47.49024" lon="6.69414">
        <ele>356</ele>
        <time>2015-08-20T14:31:08.000Z</time>
      </trkpt>
      <trkpt lat="47.49026" lon="6.69417">
        <ele>359</ele>
        <time>2015-08-20T14:31:09.000Z</time>
      </trkpt>
      <trkpt lat="47.49028" lon="6.6942">
        <ele>359</ele>
        <time>2015-08-20T14:31:10.000Z</time>
      </trkpt>
      <trkpt lat="47.4903" lon="6.69423">
        <ele>359</ele>
        <time>2015-08-20T14:31:11.000Z</time>
      </trkpt>
      <trkpt lat="47.49031" lon="6.69426">
        <ele>359</ele>
        <time>2015-08-20T14:31:12.000Z</time>
      </trkpt>
      <trkpt lat="47.49033" lon="6.6943">
        <ele>359</ele>
        <time>2015-08-20T14:31:13.000Z</time>
      </trkpt>
      <trkpt lat="47.49035" lon="6.69433">
        <ele>359</ele>
        <time>2015-08-20T14:31:14.000Z</time>
      </trkpt>
      <trkpt lat="47.49036" lon="6.69436">
        <ele>359</ele>
        <time>2015-08-20T14:31:15.000Z</time>
      </trkpt>
      <trkpt lat="47.49038" lon="6.69438">
        <ele>359</ele>
        <time>2015-08-20T14:31:16.000Z</time>
      </trkpt>
      <trkpt lat="47.4904" lon="6.69441">
        <ele>359</ele>
        <time>2015-08-20T14:31:17.000Z</time>
      </trkpt>
      <trkpt lat="47.49042" lon="6.69444">
        <ele>359</ele>
        <time>2015-08-20T14:31:18.000Z</time>
      </trkpt>
      <trkpt lat="47.49045" lon="6.69447">
        <ele>359</ele>
        <time>2015-08-20T14:31:19.000Z</time>
      </trkpt>
      <trkpt lat="47.49046" lon="6.69449">
        <ele>359</ele>
        <time>2015-08-20T14:31:20.000Z</time>
      </trkpt>
      <trkpt lat="47.49049" lon="6.69453">
        <ele>359</ele>
        <time>2015-08-20T14:31:22.000Z</time>
      </trkpt>
      <trkpt lat="47.4905" lon="6.69456">
        <ele>359</ele>
        <time>2015-08-20T14:31:23.000Z</time>
      </trkpt>
      <trkpt lat="47.49052" lon="6.69458">
        <ele>359</ele>
        <time>2015-08-20T14:31:24.000Z</time>
      </trkpt>
      <trkpt lat="47.49053" lon="6.69462">
        <ele>359</ele>
        <time>2015-08-20T14:31:25.000Z</time>
      </trkpt>
      <trkpt lat="47.49055" lon="6.69465">
        <ele>359</ele>
        <time>2015-08-20T14:31:26.000Z</time>
      </trkpt>
      <trkpt lat="47.49057" lon="6.69469">
        <ele>359</ele>
        <time>2015-08-20T14:31:27.000Z</time>
      </trkpt>
      <trkpt lat="47.49058" lon="6.69473">
        <ele>360</ele>
        <time>2015-08-20T14:31:28.000Z</time>
      </trkpt>
      <trkpt lat="47.4906" lon="6.69476">
        <ele>360</ele>
        <time>2015-08-20T14:31:29.000Z</time>
      </trkpt>
      <trkpt lat="47.49062" lon="6.6948">
        <ele>360</ele>
        <time>2015-08-20T14:31:30.000Z</time>
      </trkpt>
      <trkpt lat="47.49064" lon="6.69483">
        <ele>359</ele>
        <time>2015-08-20T14:31:31.000Z</time>
      </trkpt>
      <trkpt lat="47.49066" lon="6.69487">
        <ele>359</ele>
        <time>2015-08-20T14:31:32.000Z</time>
      </trkpt>
      <trkpt lat="47.49069" lon="6.6949">
        <ele>359</ele>
        <time>2015-08-20T14:31:33.000Z</time>
      </trkpt>
      <trkpt lat="47.49072" lon="6.69493">
        <ele>359</ele>
        <time>2015-08-20T14:31:34.000Z</time>
      </trkpt>
      <trkpt lat="47.49075" lon="6.69496">
        <ele>359</ele>
        <time>2015-08-20T14:31:35.000Z</time>
      </trkpt>
      <trkpt lat="47.49077" lon="6.69498">
        <ele>359</ele>
        <time>2015-08-20T14:31:36.000Z</time>
      </trkpt>
      <trkpt lat="47.49079" lon="6.695">
        <ele>359</ele>
        <time>2015-08-20T14:31:37.000Z</time>
      </trkpt>
      <trkpt lat="47.49082" lon="6.69504">
        <ele>360</ele>
        <time>2015-08-20T14:31:39.000Z</time>
      </trkpt>
      <trkpt lat="47.49084" lon="6.69506">
        <ele>359</ele>
        <time>2015-08-20T14:31:40.000Z</time>
      </trkpt>
      <trkpt lat="47.49086" lon="6.69511">
        <ele>359</ele>
        <time>2015-08-20T14:31:42.000Z</time>
      </trkpt>
      <trkpt lat="47.49087" lon="6.69513">
        <ele>359</ele>
        <time>2015-08-20T14:31:43.000Z</time>
      </trkpt>
      <trkpt lat="47.49089" lon="6.69518">
        <ele>359</ele>
        <time>2015-08-20T14:31:46.000Z</time>
      </trkpt>
      <trkpt lat="47.4909" lon="6.69519">
        <ele>359</ele>
        <time>2015-08-20T14:31:47.000Z</time>
      </trkpt>
      <trkpt lat="47.49093" lon="6.69522">
        <ele>359</ele>
        <time>2015-08-20T14:31:50.000Z</time>
      </trkpt>
      <trkpt lat="47.49094" lon="6.69523">
        <ele>359</ele>
        <time>2015-08-20T14:31:51.000Z</time>
      </trkpt>
      <trkpt lat="47.49097" lon="6.69527">
        <ele>359</ele>
        <time>2015-08-20T14:31:54.000Z</time>
      </trkpt>
      <trkpt lat="47.49098" lon="6.69529">
        <ele>359</ele>
        <time>2015-08-20T14:31:55.000Z</time>
      </trkpt>
      <trkpt lat="47.491" lon="6.69532">
        <ele>359</ele>
        <time>2015-08-20T14:31:57.000Z</time>
      </trkpt>
      <trkpt lat="47.49102" lon="6.69536">
        <ele>359</ele>
        <time>2015-08-20T14:31:58.000Z</time>
      </trkpt>
      <trkpt lat="47.49105" lon="6.69541">
        <ele>359</ele>
        <time>2015-08-20T14:31:59.000Z</time>
      </trkpt>
      <trkpt lat="47.49109" lon="6.69545">
        <ele>359</ele>
        <time>2015-08-20T14:32:00.000Z</time>
      </trkpt>
      <trkpt lat="47.49112" lon="6.6955">
        <ele>359</ele>
        <time>2015-08-20T14:32:01.000Z</time>
      </trkpt>
      <trkpt lat="47.49115" lon="6.69553">
        <ele>359</ele>
        <time>2015-08-20T14:32:02.000Z</time>
      </trkpt>
      <trkpt lat="47.49118" lon="6.69556">
        <ele>359</ele>
        <time>2015-08-20T14:32:03.000Z</time>
      </trkpt>
      <trkpt lat="47.49122" lon="6.69559">
        <ele>359</ele>
        <time>2015-08-20T14:32:04.000Z</time>
      </trkpt>
      <trkpt lat="47.49127" lon="6.6956">
        <ele>359</ele>
        <time>2015-08-20T14:32:05.000Z</time>
      </trkpt>
      <trkpt lat="47.49132" lon="6.69562">
        <ele>359</ele>
        <time>2015-08-20T14:32:06.000Z</time>
      </trkpt>
      <trkpt lat="47.49137" lon="6.69565">
        <ele>359</ele>
        <time>2015-08-20T14:32:07.000Z</time>
      </trkpt>
      <trkpt lat="47.49141" lon="6.69568">
        <ele>359</ele>
        <time>2015-08-20T14:32:08.000Z</time>
      </trkpt>
      <trkpt lat="47.49144" lon="6.69572">
        <ele>359</ele>
        <time>2015-08-20T14:32:09.000Z</time>
      </trkpt>
      <trkpt lat="47.49147" lon="6.69577">
        <ele>359</ele>
        <time>2015-08-20T14:32:10.000Z</time>
      </trkpt>
      <trkpt lat="47.4915" lon="6.69582">
        <ele>359</ele>
        <time>2015-08-20T14:32:11.000Z</time>
      </trkpt>
      <trkpt lat="47.49153" lon="6.69587">
        <ele>361</ele>
        <time>2015-08-20T14:32:12.000Z</time>
      </trkpt>
      <trkpt lat="47.49156" lon="6.69591">
        <ele>361</ele>
        <time>2015-08-20T14:32:13.000Z</time>
      </trkpt>
      <trkpt lat="47.49159" lon="6.69595">
        <ele>361</ele>
        <time>2015-08-20T14:32:14.000Z</time>
      </trkpt>
      <trkpt lat="47.49162" lon="6.69599">
        <ele>362</ele>
        <time>2015-08-20T14:32:15.000Z</time>
      </trkpt>
      <trkpt lat="47.49165" lon="6.69602">
        <ele>362</ele>
        <time>2015-08-20T14:32:16.000Z</time>
      </trkpt>
      <trkpt lat="47.49168" lon="6.69606">
        <ele>361</ele>
        <time>2015-08-20T14:32:17.000Z</time>
      </trkpt>
      <trkpt lat="47.49171" lon="6.69609">
        <ele>361</ele>
        <time>2015-08-20T14:32:18.000Z</time>
      </trkpt>
      <trkpt lat="47.49174" lon="6.69613">
        <ele>362</ele>
        <time>2015-08-20T14:32:19.000Z</time>
      </trkpt>
      <trkpt lat="47.49177" lon="6.69616">
        <ele>362</ele>
        <time>2015-08-20T14:32:20.000Z</time>
      </trkpt>
      <trkpt lat="47.49179" lon="6.69619">
        <ele>362</ele>
        <time>2015-08-20T14:32:21.000Z</time>
      </trkpt>
      <trkpt lat="47.49182" lon="6.69623">
        <ele>363</ele>
        <time>2015-08-20T14:32:22.000Z</time>
      </trkpt>
      <trkpt lat="47.49184" lon="6.69627">
        <ele>363</ele>
        <time>2015-08-20T14:32:23.000Z</time>
      </trkpt>
      <trkpt lat="47.49187" lon="6.69632">
        <ele>363</ele>
        <time>2015-08-20T14:32:24.000Z</time>
      </trkpt>
      <trkpt lat="47.49189" lon="6.69635">
        <ele>363</ele>
        <time>2015-08-20T14:32:25.000Z</time>
      </trkpt>
      <trkpt lat="47.4919" lon="6.69639">
        <ele>363</ele>
        <time>2015-08-20T14:32:26.000Z</time>
      </trkpt>
      <trkpt lat="47.49193" lon="6.69644">
        <ele>364</ele>
        <time>2015-08-20T14:32:30.000Z</time>
      </trkpt>
      <trkpt lat="47.49193" lon="6.69645">
        <ele>364</ele>
        <time>2015-08-20T14:32:31.000Z</time>
      </trkpt>
      <trkpt lat="47.49195" lon="6.69649">
        <ele>364</ele>
        <time>2015-08-20T14:32:33.000Z</time>
      </trkpt>
      <trkpt lat="47.49196" lon="6.69652">
        <ele>364</ele>
        <time>2015-08-20T14:32:34.000Z</time>
      </trkpt>
      <trkpt lat="47.49198" lon="6.69656">
        <ele>364</ele>
        <time>2015-08-20T14:32:35.000Z</time>
      </trkpt>
      <trkpt lat="47.492" lon="6.69659">
        <ele>364</ele>
        <time>2015-08-20T14:32:36.000Z</time>
      </trkpt>
      <trkpt lat="47.49202" lon="6.69663">
        <ele>364</ele>
        <time>2015-08-20T14:32:37.000Z</time>
      </trkpt>
      <trkpt lat="47.49204" lon="6.69667">
        <ele>367</ele>
        <time>2015-08-20T14:32:38.000Z</time>
      </trkpt>
      <trkpt lat="47.49205" lon="6.69671">
        <ele>367</ele>
        <time>2015-08-20T14:32:39.000Z</time>
      </trkpt>
      <trkpt lat="47.49207" lon="6.69675">
        <ele>368</ele>
        <time>2015-08-20T14:32:40.000Z</time>
      </trkpt>
      <trkpt lat="47.49208" lon="6.6968">
        <ele>368</ele>
        <time>2015-08-20T14:32:42.000Z</time>
      </trkpt>
      <trkpt lat="47.4921" lon="6.69681">
        <ele>368</ele>
        <time>2015-08-20T14:32:43.002Z</time>
      </trkpt>
      <trkpt lat="47.49213" lon="6.69685">
        <ele>368</ele>
        <time>2015-08-20T14:32:45.000Z</time>
      </trkpt>
      <trkpt lat="47.49214" lon="6.69687">
        <ele>368</ele>
        <time>2015-08-20T14:32:46.000Z</time>
      </trkpt>
      <trkpt lat="47.49216" lon="6.6969">
        <ele>368</ele>
        <time>2015-08-20T14:32:47.000Z</time>
      </trkpt>
      <trkpt lat="47.49217" lon="6.69691">
        <ele>368</ele>
        <time>2015-08-20T14:32:48.001Z</time>
      </trkpt>
      <trkpt lat="47.4922" lon="6.69694">
        <ele>368</ele>
        <time>2015-08-20T14:32:49.000Z</time>
      </trkpt>
      <trkpt lat="47.49221" lon="6.69697">
        <ele>368</ele>
        <time>2015-08-20T14:32:50.000Z</time>
      </trkpt>
      <trkpt lat="47.49223" lon="6.69701">
        <ele>368</ele>
        <time>2015-08-20T14:32:51.000Z</time>
      </trkpt>
      <trkpt lat="47.49224" lon="6.69705">
        <ele>368</ele>
        <time>2015-08-20T14:32:52.000Z</time>
      </trkpt>
      <trkpt lat="47.49226" lon="6.69709">
        <ele>368</ele>
        <time>2015-08-20T14:32:53.000Z</time>
      </trkpt>
      <trkpt lat="47.49227" lon="6.69713">
        <ele>369</ele>
        <time>2015-08-20T14:32:54.000Z</time>
      </trkpt>
      <trkpt lat="47.49229" lon="6.69717">
        <ele>369</ele>
        <time>2015-08-20T14:32:55.000Z</time>
      </trkpt>
      <trkpt lat="47.49232" lon="6.69719">
        <ele>369</ele>
        <time>2015-08-20T14:32:56.000Z</time>
      </trkpt>
      <trkpt lat="47.49235" lon="6.69722">
        <ele>369</ele>
        <time>2015-08-20T14:32:58.000Z</time>
      </trkpt>
      <trkpt lat="47.49237" lon="6.69723">
        <ele>369</ele>
        <time>2015-08-20T14:32:59.000Z</time>
      </trkpt>
      <trkpt lat="47.49239" lon="6.69725">
        <ele>369</ele>
        <time>2015-08-20T14:33:00.000Z</time>
      </trkpt>
      <trkpt lat="47.49241" lon="6.69727">
        <ele>369</ele>
        <time>2015-08-20T14:33:01.000Z</time>
      </trkpt>
      <trkpt lat="47.49243" lon="6.69729">
        <ele>369</ele>
        <time>2015-08-20T14:33:02.000Z</time>
      </trkpt>
      <trkpt lat="47.49245" lon="6.69732">
        <ele>369</ele>
        <time>2015-08-20T14:33:03.000Z</time>
      </trkpt>
      <trkpt lat="47.49247" lon="6.69735">
        <ele>369</ele>
        <time>2015-08-20T14:33:04.000Z</time>
      </trkpt>
      <trkpt lat="47.49249" lon="6.69738">
        <ele>369</ele>
        <time>2015-08-20T14:33:05.000Z</time>
      </trkpt>
      <trkpt lat="47.49251" lon="6.6974">
        <ele>369</ele>
        <time>2015-08-20T14:33:06.000Z</time>
      </trkpt>
      <trkpt lat="47.49253" lon="6.69743">
        <ele>369</ele>
        <time>2015-08-20T14:33:07.000Z</time>
      </trkpt>
      <trkpt lat="47.49255" lon="6.69745">
        <ele>370</ele>
        <time>2015-08-20T14:33:08.000Z</time>
      </trkpt>
      <trkpt lat="47.49258" lon="6.69746">
        <ele>369</ele>
        <time>2015-08-20T14:33:09.000Z</time>
      </trkpt>
      <trkpt lat="47.4926" lon="6.69748">
        <ele>369</ele>
        <time>2015-08-20T14:33:10.000Z</time>
      </trkpt>
      <trkpt lat="47.49263" lon="6.6975">
        <ele>369</ele>
        <time>2015-08-20T14:33:11.000Z</time>
      </trkpt>
      <trkpt lat="47.49266" lon="6.69752">
        <ele>373</ele>
        <time>2015-08-20T14:33:11.999Z</time>
      </trkpt>
      <trkpt lat="47.49267" lon="6.69755">
        <ele>373</ele>
        <time>2015-08-20T14:33:13.000Z</time>
      </trkpt>
      <trkpt lat="47.49268" lon="6.69761">
        <ele>374</ele>
        <time>2015-08-20T14:33:15.000Z</time>
      </trkpt>
      <trkpt lat="47.49268" lon="6.69763">
        <ele>374</ele>
        <time>2015-08-20T14:33:16.000Z</time>
      </trkpt>
      <trkpt lat="47.49269" lon="6.69769">
        <ele>374</ele>
        <time>2015-08-20T14:33:19.001Z</time>
      </trkpt>
      <trkpt lat="47.4927" lon="6.69771">
        <ele>374</ele>
        <time>2015-08-20T14:33:20.000Z</time>
      </trkpt>
      <trkpt lat="47.49272" lon="6.69776">
        <ele>375</ele>
        <time>2015-08-20T14:33:22.999Z</time>
      </trkpt>
      <trkpt lat="47.49273" lon="6.69778">
        <ele>375</ele>
        <time>2015-08-20T14:33:24.000Z</time>
      </trkpt>
      <trkpt lat="47.49276" lon="6.69781">
        <ele>375</ele>
        <time>2015-08-20T14:33:27.000Z</time>
      </trkpt>
      <trkpt lat="47.49276" lon="6.69782">
        <ele>375</ele>
        <time>2015-08-20T14:33:28.000Z</time>
      </trkpt>
      <trkpt lat="47.49277" lon="6.69788">
        <ele>376</ele>
        <time>2015-08-20T14:33:31.000Z</time>
      </trkpt>
      <trkpt lat="47.49277" lon="6.6979">
        <ele>376</ele>
        <time>2015-08-20T14:33:32.000Z</time>
      </trkpt>
      <trkpt lat="47.49277" lon="6.69795">
        <ele>376</ele>
        <time>2015-08-20T14:33:34.000Z</time>
      </trkpt>
      <trkpt lat="47.49277" lon="6.69798">
        <ele>377</ele>
        <time>2015-08-20T14:33:35.000Z</time>
      </trkpt>
      <trkpt lat="47.49278" lon="6.69803">
        <ele>377</ele>
        <time>2015-08-20T14:33:37.000Z</time>
      </trkpt>
      <trkpt lat="47.49278" lon="6.69806">
        <ele>377</ele>
        <time>2015-08-20T14:33:38.000Z</time>
      </trkpt>
      <trkpt lat="47.49278" lon="6.69811">
        <ele>378</ele>
        <time>2015-08-20T14:33:40.000Z</time>
      </trkpt>
      <trkpt lat="47.49278" lon="6.69814">
        <ele>378</ele>
        <time>2015-08-20T14:33:41.000Z</time>
      </trkpt>
      <trkpt lat="47.49278" lon="6.6982">
        <ele>378</ele>
        <time>2015-08-20T14:33:43.000Z</time>
      </trkpt>
      <trkpt lat="47.49279" lon="6.69822">
        <ele>378</ele>
        <time>2015-08-20T14:33:44.000Z</time>
      </trkpt>
      <trkpt lat="47.49279" lon="6.69828">
        <ele>378</ele>
        <time>2015-08-20T14:33:47.000Z</time>
      </trkpt>
      <trkpt lat="47.49279" lon="6.6983">
        <ele>378</ele>
        <time>2015-08-20T14:33:48.000Z</time>
      </trkpt>
      <trkpt lat="47.49279" lon="6.69835">
        <ele>384</ele>
        <time>2015-08-20T14:33:51.000Z</time>
      </trkpt>
      <trkpt lat="47.4928" lon="6.69838">
        <ele>384</ele>
        <time>2015-08-20T14:33:52.000Z</time>
      </trkpt>
      <trkpt lat="47.49281" lon="6.69844">
        <ele>385</ele>
        <time>2015-08-20T14:33:54.000Z</time>
      </trkpt>
      <trkpt lat="47.49282" lon="6.69846">
        <ele>385</ele>
        <time>2015-08-20T14:33:55.000Z</time>
      </trkpt>
      <trkpt lat="47.49283" lon="6.69852">
        <ele>385</ele>
        <time>2015-08-20T14:33:58.000Z</time>
      </trkpt>
      <trkpt lat="47.49284" lon="6.69854">
        <ele>385</ele>
        <time>2015-08-20T14:33:59.000Z</time>
      </trkpt>
      <trkpt lat="47.49284" lon="6.69859">
        <ele>385</ele>
        <time>2015-08-20T14:34:02.000Z</time>
      </trkpt>
      <trkpt lat="47.49284" lon="6.69861">
        <ele>386</ele>
        <time>2015-08-20T14:34:03.000Z</time>
      </trkpt>
      <trkpt lat="47.49284" lon="6.69867">
        <ele>386</ele>
        <time>2015-08-20T14:34:06.000Z</time>
      </trkpt>
      <trkpt lat="47.49285" lon="6.69869">
        <ele>386</ele>
        <time>2015-08-20T14:34:07.000Z</time>
      </trkpt>
      <trkpt lat="47.49286" lon="6.69874">
        <ele>386</ele>
        <time>2015-08-20T14:34:09.000Z</time>
      </trkpt>
      <trkpt lat="47.49287" lon="6.69876">
        <ele>386</ele>
        <time>2015-08-20T14:34:10.000Z</time>
      </trkpt>
      <trkpt lat="47.49288" lon="6.69881">
        <ele>387</ele>
        <time>2015-08-20T14:34:12.000Z</time>
      </trkpt>
      <trkpt lat="47.49288" lon="6.69884">
        <ele>387</ele>
        <time>2015-08-20T14:34:13.000Z</time>
      </trkpt>
      <trkpt lat="47.49289" lon="6.69889">
        <ele>387</ele>
        <time>2015-08-20T14:34:15.000Z</time>
      </trkpt>
      <trkpt lat="47.4929" lon="6.69892">
        <ele>387</ele>
        <time>2015-08-20T14:34:16.000Z</time>
      </trkpt>
      <trkpt lat="47.49291" lon="6.69897">
        <ele>387</ele>
        <time>2015-08-20T14:34:19.000Z</time>
      </trkpt>
      <trkpt lat="47.49292" lon="6.69899">
        <ele>387</ele>
        <time>2015-08-20T14:34:20.000Z</time>
      </trkpt>
      <trkpt lat="47.49294" lon="6.69904">
        <ele>388</ele>
        <time>2015-08-20T14:34:22.000Z</time>
      </trkpt>
      <trkpt lat="47.49295" lon="6.69906">
        <ele>388</ele>
        <time>2015-08-20T14:34:23.000Z</time>
      </trkpt>
      <trkpt lat="47.49296" lon="6.6991">
        <ele>388</ele>
        <time>2015-08-20T14:34:24.000Z</time>
      </trkpt>
      <trkpt lat="47.49296" lon="6.69913">
        <ele>388</ele>
        <time>2015-08-20T14:34:25.000Z</time>
      </trkpt>
      <trkpt lat="47.49297" lon="6.69919">
        <ele>394</ele>
        <time>2015-08-20T14:34:27.000Z</time>
      </trkpt>
      <trkpt lat="47.49298" lon="6.69922">
        <ele>394</ele>
        <time>2015-08-20T14:34:28.000Z</time>
      </trkpt>
      <trkpt lat="47.49299" lon="6.69927">
        <ele>394</ele>
        <time>2015-08-20T14:34:31.000Z</time>
      </trkpt>
      <trkpt lat="47.49298" lon="6.69932">
        <ele>395</ele>
        <time>2015-08-20T14:34:32.000Z</time>
      </trkpt>
      <trkpt lat="47.49299" lon="6.69936">
        <ele>395</ele>
        <time>2015-08-20T14:34:33.000Z</time>
      </trkpt>
      <trkpt lat="47.493" lon="6.69939">
        <ele>395</ele>
        <time>2015-08-20T14:34:34.000Z</time>
      </trkpt>
      <trkpt lat="47.49302" lon="6.69943">
        <ele>395</ele>
        <time>2015-08-20T14:34:35.000Z</time>
      </trkpt>
      <trkpt lat="47.49304" lon="6.69946">
        <ele>395</ele>
        <time>2015-08-20T14:34:36.000Z</time>
      </trkpt>
      <trkpt lat="47.49307" lon="6.69948">
        <ele>395</ele>
        <time>2015-08-20T14:34:37.000Z</time>
      </trkpt>
      <trkpt lat="47.49309" lon="6.6995">
        <ele>395</ele>
        <time>2015-08-20T14:34:38.001Z</time>
      </trkpt>
      <trkpt lat="47.49313" lon="6.69951">
        <ele>395</ele>
        <time>2015-08-20T14:34:39.000Z</time>
      </trkpt>
      <trkpt lat="47.49315" lon="6.69953">
        <ele>395</ele>
        <time>2015-08-20T14:34:40.000Z</time>
      </trkpt>
      <trkpt lat="47.49316" lon="6.69958">
        <ele>396</ele>
        <time>2015-08-20T14:34:43.000Z</time>
      </trkpt>
      <trkpt lat="47.49316" lon="6.69959">
        <ele>396</ele>
        <time>2015-08-20T14:34:44.000Z</time>
      </trkpt>
      <trkpt lat="47.49318" lon="6.69965">
        <ele>396</ele>
        <time>2015-08-20T14:34:47.000Z</time>
      </trkpt>
      <trkpt lat="47.49319" lon="6.69968">
        <ele>396</ele>
        <time>2015-08-20T14:34:48.000Z</time>
      </trkpt>
      <trkpt lat="47.49322" lon="6.69972">
        <ele>397</ele>
        <time>2015-08-20T14:34:50.000Z</time>
      </trkpt>
      <trkpt lat="47.49323" lon="6.69975">
        <ele>397</ele>
        <time>2015-08-20T14:34:51.000Z</time>
      </trkpt>
      <trkpt lat="47.49324" lon="6.6998">
        <ele>397</ele>
        <time>2015-08-20T14:34:53.000Z</time>
      </trkpt>
      <trkpt lat="47.49325" lon="6.69983">
        <ele>397</ele>
        <time>2015-08-20T14:34:54.000Z</time>
      </trkpt>
      <trkpt lat="47.49326" lon="6.69986">
        <ele>397</ele>
        <time>2015-08-20T14:34:55.000Z</time>
      </trkpt>
      <trkpt lat="47.49327" lon="6.69989">
        <ele>397</ele>
        <time>2015-08-20T14:34:56.000Z</time>
      </trkpt>
      <trkpt lat="47.4933" lon="6.69994">
        <ele>398</ele>
        <time>2015-08-20T14:34:58.000Z</time>
      </trkpt>
      <trkpt lat="47.49331" lon="6.69996">
        <ele>398</ele>
        <time>2015-08-20T14:34:59.000Z</time>
      </trkpt>
      <trkpt lat="47.49333" lon="6.69999">
        <ele>398</ele>
        <time>2015-08-20T14:35:01.000Z</time>
      </trkpt>
      <trkpt lat="47.49334" lon="6.70001">
        <ele>398</ele>
        <time>2015-08-20T14:35:02.000Z</time>
      </trkpt>
      <trkpt lat="47.49337" lon="6.70006">
        <ele>398</ele>
        <time>2015-08-20T14:35:04.000Z</time>
      </trkpt>
      <trkpt lat="47.49338" lon="6.70008">
        <ele>397</ele>
        <time>2015-08-20T14:35:05.000Z</time>
      </trkpt>
      <trkpt lat="47.4934" lon="6.70011">
        <ele>397</ele>
        <time>2015-08-20T14:35:06.000Z</time>
      </trkpt>
      <trkpt lat="47.49343" lon="6.70014">
        <ele>397</ele>
        <time>2015-08-20T14:35:07.000Z</time>
      </trkpt>
      <trkpt lat="47.49354" lon="6.70023">
        <ele>397</ele>
        <time>2015-08-20T14:35:08.000Z</time>
      </trkpt>
      <trkpt lat="47.49356" lon="6.70027">
        <ele>397</ele>
        <time>2015-08-20T14:35:09.000Z</time>
      </trkpt>
      <trkpt lat="47.49359" lon="6.70031">
        <ele>397</ele>
        <time>2015-08-20T14:35:10.000Z</time>
      </trkpt>
      <trkpt lat="47.49362" lon="6.70035">
        <ele>397</ele>
        <time>2015-08-20T14:35:11.000Z</time>
      </trkpt>
      <trkpt lat="47.49362" lon="6.7004">
        <ele>397</ele>
        <time>2015-08-20T14:35:12.000Z</time>
      </trkpt>
      <trkpt lat="47.49364" lon="6.70045">
        <ele>397</ele>
        <time>2015-08-20T14:35:13.000Z</time>
      </trkpt>
      <trkpt lat="47.49367" lon="6.70049">
        <ele>397</ele>
        <time>2015-08-20T14:35:14.000Z</time>
      </trkpt>
      <trkpt lat="47.4937" lon="6.70052">
        <ele>397</ele>
        <time>2015-08-20T14:35:15.000Z</time>
      </trkpt>
      <trkpt lat="47.49372" lon="6.70055">
        <ele>397</ele>
        <time>2015-08-20T14:35:16.000Z</time>
      </trkpt>
      <trkpt lat="47.49374" lon="6.70058">
        <ele>397</ele>
        <time>2015-08-20T14:35:17.000Z</time>
      </trkpt>
      <trkpt lat="47.49375" lon="6.70061">
        <ele>397</ele>
        <time>2015-08-20T14:35:18.000Z</time>
      </trkpt>
      <trkpt lat="47.49376" lon="6.70064">
        <ele>397</ele>
        <time>2015-08-20T14:35:19.000Z</time>
      </trkpt>
      <trkpt lat="47.49377" lon="6.70068">
        <ele>397</ele>
        <time>2015-08-20T14:35:20.000Z</time>
      </trkpt>
      <trkpt lat="47.49379" lon="6.7007">
        <ele>397</ele>
        <time>2015-08-20T14:35:21.000Z</time>
      </trkpt>
      <trkpt lat="47.49381" lon="6.70071">
        <ele>396</ele>
        <time>2015-08-20T14:35:22.000Z</time>
      </trkpt>
      <trkpt lat="47.49384" lon="6.70072">
        <ele>396</ele>
        <time>2015-08-20T14:35:24.000Z</time>
      </trkpt>
      <trkpt lat="47.49386" lon="6.70073">
        <ele>396</ele>
        <time>2015-08-20T14:35:25.000Z</time>
      </trkpt>
      <trkpt lat="47.49388" lon="6.70078">
        <ele>396</ele>
        <time>2015-08-20T14:35:28.001Z</time>
      </trkpt>
      <trkpt lat="47.49389" lon="6.70079">
        <ele>396</ele>
        <time>2015-08-20T14:35:28.999Z</time>
      </trkpt>
      <trkpt lat="47.4939" lon="6.70085">
        <ele>399</ele>
        <time>2015-08-20T14:35:31.000Z</time>
      </trkpt>
      <trkpt lat="47.49391" lon="6.70088">
        <ele>399</ele>
        <time>2015-08-20T14:35:32.000Z</time>
      </trkpt>
      <trkpt lat="47.49392" lon="6.70092">
        <ele>399</ele>
        <time>2015-08-20T14:35:33.000Z</time>
      </trkpt>
      <trkpt lat="47.49394" lon="6.70095">
        <ele>399</ele>
        <time>2015-08-20T14:35:34.001Z</time>
      </trkpt>
      <trkpt lat="47.49396" lon="6.701">
        <ele>399</ele>
        <time>2015-08-20T14:35:35.000Z</time>
      </trkpt>
      <trkpt lat="47.49398" lon="6.70103">
        <ele>399</ele>
        <time>2015-08-20T14:35:36.000Z</time>
      </trkpt>
      <trkpt lat="47.494" lon="6.70107">
        <ele>399</ele>
        <time>2015-08-20T14:35:38.000Z</time>
      </trkpt>
      <trkpt lat="47.49401" lon="6.70109">
        <ele>399</ele>
        <time>2015-08-20T14:35:38.999Z</time>
      </trkpt>
      <trkpt lat="47.49403" lon="6.70114">
        <ele>400</ele>
        <time>2015-08-20T14:35:41.000Z</time>
      </trkpt>
      <trkpt lat="47.49403" lon="6.70116">
        <ele>400</ele>
        <time>2015-08-20T14:35:42.000Z</time>
      </trkpt>
      <trkpt lat="47.49404" lon="6.70122">
        <ele>400</ele>
        <time>2015-08-20T14:35:45.000Z</time>
      </trkpt>
      <trkpt lat="47.49405" lon="6.70124">
        <ele>401</ele>
        <time>2015-08-20T14:35:46.000Z</time>
      </trkpt>
      <trkpt lat="47.49407" lon="6.70129">
        <ele>401</ele>
        <time>2015-08-20T14:35:48.000Z</time>
      </trkpt>
      <trkpt lat="47.49409" lon="6.70133">
        <ele>401</ele>
        <time>2015-08-20T14:35:49.000Z</time>
      </trkpt>
      <trkpt lat="47.49412" lon="6.70138">
        <ele>401</ele>
        <time>2015-08-20T14:35:50.000Z</time>
      </trkpt>
      <trkpt lat="47.49416" lon="6.70143">
        <ele>401</ele>
        <time>2015-08-20T14:35:51.000Z</time>
      </trkpt>
      <trkpt lat="47.4942" lon="6.70148">
        <ele>394</ele>
        <time>2015-08-20T14:35:52.000Z</time>
      </trkpt>
      <trkpt lat="47.49423" lon="6.70153">
        <ele>395</ele>
        <time>2015-08-20T14:35:53.000Z</time>
      </trkpt>
      <trkpt lat="47.49426" lon="6.70157">
        <ele>395</ele>
        <time>2015-08-20T14:35:54.000Z</time>
      </trkpt>
      <trkpt lat="47.49429" lon="6.70161">
        <ele>395</ele>
        <time>2015-08-20T14:35:55.000Z</time>
      </trkpt>
      <trkpt lat="47.49431" lon="6.70163">
        <ele>395</ele>
        <time>2015-08-20T14:35:56.000Z</time>
      </trkpt>
      <trkpt lat="47.49433" lon="6.70166">
        <ele>395</ele>
        <time>2015-08-20T14:35:57.000Z</time>
      </trkpt>
      <trkpt lat="47.49435" lon="6.7017">
        <ele>399</ele>
        <time>2015-08-20T14:35:59.000Z</time>
      </trkpt>
      <trkpt lat="47.49437" lon="6.70172">
        <ele>399</ele>
        <time>2015-08-20T14:36:00.000Z</time>
      </trkpt>
      <trkpt lat="47.49439" lon="6.70177">
        <ele>398</ele>
        <time>2015-08-20T14:36:02.000Z</time>
      </trkpt>
      <trkpt lat="47.49441" lon="6.7018">
        <ele>398</ele>
        <time>2015-08-20T14:36:03.000Z</time>
      </trkpt>
      <trkpt lat="47.49442" lon="6.70183">
        <ele>398</ele>
        <time>2015-08-20T14:36:04.000Z</time>
      </trkpt>
      <trkpt lat="47.49444" lon="6.70185">
        <ele>398</ele>
        <time>2015-08-20T14:36:05.000Z</time>
      </trkpt>
      <trkpt lat="47.49447" lon="6.70189">
        <ele>398</ele>
        <time>2015-08-20T14:36:07.000Z</time>
      </trkpt>
      <trkpt lat="47.49449" lon="6.7019">
        <ele>398</ele>
        <time>2015-08-20T14:36:08.000Z</time>
      </trkpt>
      <trkpt lat="47.4945" lon="6.70193">
        <ele>397</ele>
        <time>2015-08-20T14:36:09.000Z</time>
      </trkpt>
      <trkpt lat="47.49452" lon="6.70195">
        <ele>397</ele>
        <time>2015-08-20T14:36:10.000Z</time>
      </trkpt>
      <trkpt lat="47.49455" lon="6.70199">
        <ele>397</ele>
        <time>2015-08-20T14:36:12.000Z</time>
      </trkpt>
      <trkpt lat="47.49456" lon="6.70201">
        <ele>397</ele>
        <time>2015-08-20T14:36:13.000Z</time>
      </trkpt>
      <trkpt lat="47.49457" lon="6.70205">
        <ele>397</ele>
        <time>2015-08-20T14:36:15.000Z</time>
      </trkpt>
      <trkpt lat="47.49459" lon="6.70207">
        <ele>397</ele>
        <time>2015-08-20T14:36:16.000Z</time>
      </trkpt>
      <trkpt lat="47.4946" lon="6.7021">
        <ele>397</ele>
        <time>2015-08-20T14:36:17.000Z</time>
      </trkpt>
      <trkpt lat="47.49461" lon="6.70214">
        <ele>398</ele>
        <time>2015-08-20T14:36:18.000Z</time>
      </trkpt>
      <trkpt lat="47.49462" lon="6.70217">
        <ele>398</ele>
        <time>2015-08-20T14:36:19.000Z</time>
      </trkpt>
      <trkpt lat="47.49464" lon="6.7022">
        <ele>398</ele>
        <time>2015-08-20T14:36:20.000Z</time>
      </trkpt>
      <trkpt lat="47.49465" lon="6.70224">
        <ele>398</ele>
        <time>2015-08-20T14:36:21.000Z</time>
      </trkpt>
      <trkpt lat="47.49467" lon="6.70227">
        <ele>398</ele>
        <time>2015-08-20T14:36:22.000Z</time>
      </trkpt>
      <trkpt lat="47.49468" lon="6.7023">
        <ele>398</ele>
        <time>2015-08-20T14:36:23.000Z</time>
      </trkpt>
      <trkpt lat="47.4947" lon="6.70234">
        <ele>398</ele>
        <time>2015-08-20T14:36:24.000Z</time>
      </trkpt>
      <trkpt lat="47.49471" lon="6.70238">
        <ele>398</ele>
        <time>2015-08-20T14:36:25.000Z</time>
      </trkpt>
      <trkpt lat="47.49472" lon="6.70243">
        <ele>398</ele>
        <time>2015-08-20T14:36:26.000Z</time>
      </trkpt>
      <trkpt lat="47.49473" lon="6.70247">
        <ele>398</ele>
        <time>2015-08-20T14:36:27.000Z</time>
      </trkpt>
      <trkpt lat="47.49474" lon="6.70252">
        <ele>402</ele>
        <time>2015-08-20T14:36:28.000Z</time>
      </trkpt>
      <trkpt lat="47.49475" lon="6.70257">
        <ele>402</ele>
        <time>2015-08-20T14:36:29.000Z</time>
      </trkpt>
      <trkpt lat="47.49477" lon="6.70261">
        <ele>402</ele>
        <time>2015-08-20T14:36:30.000Z</time>
      </trkpt>
      <trkpt lat="47.49479" lon="6.70266">
        <ele>403</ele>
        <time>2015-08-20T14:36:31.000Z</time>
      </trkpt>
      <trkpt lat="47.4948" lon="6.70271">
        <ele>403</ele>
        <time>2015-08-20T14:36:32.000Z</time>
      </trkpt>
      <trkpt lat="47.49482" lon="6.70275">
        <ele>403</ele>
        <time>2015-08-20T14:36:33.000Z</time>
      </trkpt>
      <trkpt lat="47.49483" lon="6.7028">
        <ele>403</ele>
        <time>2015-08-20T14:36:34.000Z</time>
      </trkpt>
      <trkpt lat="47.49484" lon="6.70283">
        <ele>404</ele>
        <time>2015-08-20T14:36:35.000Z</time>
      </trkpt>
      <trkpt lat="47.49486" lon="6.70287">
        <ele>404</ele>
        <time>2015-08-20T14:36:36.000Z</time>
      </trkpt>
      <trkpt lat="47.49487" lon="6.7029">
        <ele>404</ele>
        <time>2015-08-20T14:36:37.000Z</time>
      </trkpt>
      <trkpt lat="47.49488" lon="6.70294">
        <ele>404</ele>
        <time>2015-08-20T14:36:38.000Z</time>
      </trkpt>
      <trkpt lat="47.49489" lon="6.70297">
        <ele>404</ele>
        <time>2015-08-20T14:36:39.000Z</time>
      </trkpt>
      <trkpt lat="47.4949" lon="6.70301">
        <ele>404</ele>
        <time>2015-08-20T14:36:40.000Z</time>
      </trkpt>
      <trkpt lat="47.4949" lon="6.70304">
        <ele>404</ele>
        <time>2015-08-20T14:36:41.000Z</time>
      </trkpt>
      <trkpt lat="47.49491" lon="6.70308">
        <ele>404</ele>
        <time>2015-08-20T14:36:42.000Z</time>
      </trkpt>
      <trkpt lat="47.49492" lon="6.70311">
        <ele>404</ele>
        <time>2015-08-20T14:36:43.000Z</time>
      </trkpt>
      <trkpt lat="47.49493" lon="6.70315">
        <ele>404</ele>
        <time>2015-08-20T14:36:44.000Z</time>
      </trkpt>
      <trkpt lat="47.49495" lon="6.70318">
        <ele>404</ele>
        <time>2015-08-20T14:36:45.000Z</time>
      </trkpt>
      <trkpt lat="47.49496" lon="6.70322">
        <ele>404</ele>
        <time>2015-08-20T14:36:46.000Z</time>
      </trkpt>
      <trkpt lat="47.49497" lon="6.70325">
        <ele>404</ele>
        <time>2015-08-20T14:36:47.000Z</time>
      </trkpt>
      <trkpt lat="47.49498" lon="6.70329">
        <ele>404</ele>
        <time>2015-08-20T14:36:48.000Z</time>
      </trkpt>
      <trkpt lat="47.49499" lon="6.70332">
        <ele>403</ele>
        <time>2015-08-20T14:36:49.000Z</time>
      </trkpt>
      <trkpt lat="47.495" lon="6.70335">
        <ele>402</ele>
        <time>2015-08-20T14:36:50.000Z</time>
      </trkpt>
      <trkpt lat="47.49502" lon="6.7034">
        <ele>402</ele>
        <time>2015-08-20T14:36:51.000Z</time>
      </trkpt>
      <trkpt lat="47.49503" lon="6.70344">
        <ele>401</ele>
        <time>2015-08-20T14:36:52.000Z</time>
      </trkpt>
      <trkpt lat="47.49505" lon="6.70347">
        <ele>400</ele>
        <time>2015-08-20T14:36:53.000Z</time>
      </trkpt>
      <trkpt lat="47.49506" lon="6.70351">
        <ele>400</ele>
        <time>2015-08-20T14:36:54.000Z</time>
      </trkpt>
      <trkpt lat="47.49509" lon="6.70355">
        <ele>400</ele>
        <time>2015-08-20T14:36:56.000Z</time>
      </trkpt>
      <trkpt lat="47.4951" lon="6.70358">
        <ele>399</ele>
        <time>2015-08-20T14:36:57.000Z</time>
      </trkpt>
      <trkpt lat="47.49511" lon="6.70364">
        <ele>399</ele>
        <time>2015-08-20T14:36:59.000Z</time>
      </trkpt>
      <trkpt lat="47.49512" lon="6.70367">
        <ele>399</ele>
        <time>2015-08-20T14:37:00.000Z</time>
      </trkpt>
      <trkpt lat="47.49513" lon="6.70371">
        <ele>399</ele>
        <time>2015-08-20T14:37:01.000Z</time>
      </trkpt>
      <trkpt lat="47.49514" lon="6.70376">
        <ele>400</ele>
        <time>2015-08-20T14:37:02.000Z</time>
      </trkpt>
      <trkpt lat="47.49515" lon="6.7038">
        <ele>400</ele>
        <time>2015-08-20T14:37:03.000Z</time>
      </trkpt>
      <trkpt lat="47.49516" lon="6.70384">
        <ele>400</ele>
        <time>2015-08-20T14:37:04.000Z</time>
      </trkpt>
      <trkpt lat="47.49517" lon="6.70388">
        <ele>400</ele>
        <time>2015-08-20T14:37:05.000Z</time>
      </trkpt>
      <trkpt lat="47.49518" lon="6.70392">
        <ele>401</ele>
        <time>2015-08-20T14:37:06.000Z</time>
      </trkpt>
      <trkpt lat="47.49519" lon="6.70395">
        <ele>401</ele>
        <time>2015-08-20T14:37:07.000Z</time>
      </trkpt>
      <trkpt lat="47.4952" lon="6.70399">
        <ele>401</ele>
        <time>2015-08-20T14:37:08.000Z</time>
      </trkpt>
      <trkpt lat="47.49521" lon="6.70402">
        <ele>402</ele>
        <time>2015-08-20T14:37:09.000Z</time>
      </trkpt>
      <trkpt lat="47.49523" lon="6.70405">
        <ele>402</ele>
        <time>2015-08-20T14:37:10.000Z</time>
      </trkpt>
      <trkpt lat="47.49524" lon="6.70409">
        <ele>402</ele>
        <time>2015-08-20T14:37:11.000Z</time>
      </trkpt>
      <trkpt lat="47.49525" lon="6.70412">
        <ele>401</ele>
        <time>2015-08-20T14:37:12.000Z</time>
      </trkpt>
      <trkpt lat="47.49528" lon="6.70418">
        <ele>406</ele>
        <time>2015-08-20T14:37:14.000Z</time>
      </trkpt>
      <trkpt lat="47.49528" lon="6.7042">
        <ele>406</ele>
        <time>2015-08-20T14:37:15.000Z</time>
      </trkpt>
      <trkpt lat="47.4953" lon="6.70424">
        <ele>405</ele>
        <time>2015-08-20T14:37:16.000Z</time>
      </trkpt>
      <trkpt lat="47.4953" lon="6.70427">
        <ele>405</ele>
        <time>2015-08-20T14:37:17.000Z</time>
      </trkpt>
      <trkpt lat="47.49531" lon="6.7043">
        <ele>405</ele>
        <time>2015-08-20T14:37:18.000Z</time>
      </trkpt>
      <trkpt lat="47.49532" lon="6.70433">
        <ele>405</ele>
        <time>2015-08-20T14:37:19.000Z</time>
      </trkpt>
      <trkpt lat="47.49532" lon="6.70436">
        <ele>405</ele>
        <time>2015-08-20T14:37:20.000Z</time>
      </trkpt>
      <trkpt lat="47.49533" lon="6.70439">
        <ele>405</ele>
        <time>2015-08-20T14:37:21.000Z</time>
      </trkpt>
      <trkpt lat="47.49535" lon="6.70442">
        <ele>405</ele>
        <time>2015-08-20T14:37:22.000Z</time>
      </trkpt>
      <trkpt lat="47.49536" lon="6.70445">
        <ele>405</ele>
        <time>2015-08-20T14:37:23.000Z</time>
      </trkpt>
      <trkpt lat="47.49538" lon="6.70448">
        <ele>405</ele>
        <time>2015-08-20T14:37:24.000Z</time>
      </trkpt>
      <trkpt lat="47.4954" lon="6.70451">
        <ele>404</ele>
        <time>2015-08-20T14:37:25.000Z</time>
      </trkpt>
      <trkpt lat="47.49542" lon="6.70455">
        <ele>404</ele>
        <time>2015-08-20T14:37:26.000Z</time>
      </trkpt>
      <trkpt lat="47.49544" lon="6.70459">
        <ele>404</ele>
        <time>2015-08-20T14:37:27.000Z</time>
      </trkpt>
      <trkpt lat="47.49546" lon="6.70463">
        <ele>404</ele>
        <time>2015-08-20T14:37:28.000Z</time>
      </trkpt>
      <trkpt lat="47.49548" lon="6.70468">
        <ele>404</ele>
        <time>2015-08-20T14:37:29.000Z</time>
      </trkpt>
      <trkpt lat="47.4955" lon="6.70473">
        <ele>404</ele>
        <time>2015-08-20T14:37:30.000Z</time>
      </trkpt>
      <trkpt lat="47.49551" lon="6.70478">
        <ele>404</ele>
        <time>2015-08-20T14:37:31.000Z</time>
      </trkpt>
      <trkpt lat="47.49553" lon="6.70482">
        <ele>404</ele>
        <time>2015-08-20T14:37:32.000Z</time>
      </trkpt>
      <trkpt lat="47.49555" lon="6.70486">
        <ele>403</ele>
        <time>2015-08-20T14:37:33.000Z</time>
      </trkpt>
      <trkpt lat="47.49557" lon="6.70489">
        <ele>403</ele>
        <time>2015-08-20T14:37:34.000Z</time>
      </trkpt>
      <trkpt lat="47.49558" lon="6.70492">
        <ele>403</ele>
        <time>2015-08-20T14:37:35.000Z</time>
      </trkpt>
      <trkpt lat="47.4956" lon="6.70496">
        <ele>403</ele>
        <time>2015-08-20T14:37:36.000Z</time>
      </trkpt>
      <trkpt lat="47.49561" lon="6.70499">
        <ele>403</ele>
        <time>2015-08-20T14:37:37.000Z</time>
      </trkpt>
      <trkpt lat="47.49562" lon="6.70502">
        <ele>406</ele>
        <time>2015-08-20T14:37:38.000Z</time>
      </trkpt>
      <trkpt lat="47.49563" lon="6.70505">
        <ele>406</ele>
        <time>2015-08-20T14:37:39.000Z</time>
      </trkpt>
      <trkpt lat="47.49565" lon="6.70508">
        <ele>406</ele>
        <time>2015-08-20T14:37:40.000Z</time>
      </trkpt>
      <trkpt lat="47.49567" lon="6.70511">
        <ele>406</ele>
        <time>2015-08-20T14:37:41.000Z</time>
      </trkpt>
      <trkpt lat="47.49569" lon="6.70514">
        <ele>406</ele>
        <time>2015-08-20T14:37:42.000Z</time>
      </trkpt>
      <trkpt lat="47.49571" lon="6.70517">
        <ele>406</ele>
        <time>2015-08-20T14:37:43.000Z</time>
      </trkpt>
      <trkpt lat="47.49573" lon="6.7052">
        <ele>406</ele>
        <time>2015-08-20T14:37:44.000Z</time>
      </trkpt>
      <trkpt lat="47.49575" lon="6.70524">
        <ele>407</ele>
        <time>2015-08-20T14:37:45.000Z</time>
      </trkpt>
      <trkpt lat="47.49576" lon="6.70527">
        <ele>407</ele>
        <time>2015-08-20T14:37:46.000Z</time>
      </trkpt>
      <trkpt lat="47.49577" lon="6.70531">
        <ele>408</ele>
        <time>2015-08-20T14:37:47.000Z</time>
      </trkpt>
      <trkpt lat="47.49578" lon="6.70535">
        <ele>408</ele>
        <time>2015-08-20T14:37:48.000Z</time>
      </trkpt>
      <trkpt lat="47.4958" lon="6.70539">
        <ele>408</ele>
        <time>2015-08-20T14:37:49.000Z</time>
      </trkpt>
      <trkpt lat="47.49581" lon="6.70544">
        <ele>409</ele>
        <time>2015-08-20T14:37:50.000Z</time>
      </trkpt>
      <trkpt lat="47.49582" lon="6.70549">
        <ele>409</ele>
        <time>2015-08-20T14:37:51.000Z</time>
      </trkpt>
      <trkpt lat="47.49583" lon="6.70554">
        <ele>409</ele>
        <time>2015-08-20T14:37:52.000Z</time>
      </trkpt>
      <trkpt lat="47.49584" lon="6.70559">
        <ele>398</ele>
        <time>2015-08-20T14:37:53.000Z</time>
      </trkpt>
      <trkpt lat="47.49585" lon="6.70564">
        <ele>400</ele>
        <time>2015-08-20T14:37:54.000Z</time>
      </trkpt>
      <trkpt lat="47.49586" lon="6.70569">
        <ele>401</ele>
        <time>2015-08-20T14:37:55.000Z</time>
      </trkpt>
      <trkpt lat="47.49587" lon="6.70574">
        <ele>403</ele>
        <time>2015-08-20T14:37:56.000Z</time>
      </trkpt>
      <trkpt lat="47.49588" lon="6.70578">
        <ele>404</ele>
        <time>2015-08-20T14:37:57.000Z</time>
      </trkpt>
      <trkpt lat="47.49589" lon="6.70581">
        <ele>404</ele>
        <time>2015-08-20T14:37:58.000Z</time>
      </trkpt>
      <trkpt lat="47.4959" lon="6.70584">
        <ele>406</ele>
        <time>2015-08-20T14:37:59.000Z</time>
      </trkpt>
      <trkpt lat="47.49592" lon="6.70588">
        <ele>406</ele>
        <time>2015-08-20T14:38:00.000Z</time>
      </trkpt>
      <trkpt lat="47.49593" lon="6.70591">
        <ele>405</ele>
        <time>2015-08-20T14:38:01.000Z</time>
      </trkpt>
      <trkpt lat="47.49595" lon="6.70595">
        <ele>404</ele>
        <time>2015-08-20T14:38:02.000Z</time>
      </trkpt>
      <trkpt lat="47.49596" lon="6.70598">
        <ele>404</ele>
        <time>2015-08-20T14:38:03.000Z</time>
      </trkpt>
      <trkpt lat="47.49598" lon="6.70601">
        <ele>403</ele>
        <time>2015-08-20T14:38:04.000Z</time>
      </trkpt>
      <trkpt lat="47.496" lon="6.70604">
        <ele>403</ele>
        <time>2015-08-20T14:38:05.000Z</time>
      </trkpt>
      <trkpt lat="47.49602" lon="6.70607">
        <ele>403</ele>
        <time>2015-08-20T14:38:06.000Z</time>
      </trkpt>
      <trkpt lat="47.49604" lon="6.70611">
        <ele>403</ele>
        <time>2015-08-20T14:38:07.000Z</time>
      </trkpt>
      <trkpt lat="47.49605" lon="6.70614">
        <ele>402</ele>
        <time>2015-08-20T14:38:08.000Z</time>
      </trkpt>
      <trkpt lat="47.49607" lon="6.70618">
        <ele>402</ele>
        <time>2015-08-20T14:38:09.000Z</time>
      </trkpt>
      <trkpt lat="47.49608" lon="6.70621">
        <ele>402</ele>
        <time>2015-08-20T14:38:10.000Z</time>
      </trkpt>
      <trkpt lat="47.49609" lon="6.70624">
        <ele>402</ele>
        <time>2015-08-20T14:38:11.000Z</time>
      </trkpt>
      <trkpt lat="47.49611" lon="6.70628">
        <ele>402</ele>
        <time>2015-08-20T14:38:12.000Z</time>
      </trkpt>
      <trkpt lat="47.49613" lon="6.70631">
        <ele>402</ele>
        <time>2015-08-20T14:38:13.000Z</time>
      </trkpt>
      <trkpt lat="47.49614" lon="6.70634">
        <ele>402</ele>
        <time>2015-08-20T14:38:14.000Z</time>
      </trkpt>
      <trkpt lat="47.49615" lon="6.70637">
        <ele>402</ele>
        <time>2015-08-20T14:38:15.000Z</time>
      </trkpt>
      <trkpt lat="47.49616" lon="6.70641">
        <ele>402</ele>
        <time>2015-08-20T14:38:16.000Z</time>
      </trkpt>
      <trkpt lat="47.49617" lon="6.70643">
        <ele>402</ele>
        <time>2015-08-20T14:38:17.000Z</time>
      </trkpt>
      <trkpt lat="47.49619" lon="6.70649">
        <ele>402</ele>
        <time>2015-08-20T14:38:19.000Z</time>
      </trkpt>
      <trkpt lat="47.4962" lon="6.70652">
        <ele>402</ele>
        <time>2015-08-20T14:38:20.000Z</time>
      </trkpt>
      <trkpt lat="47.49621" lon="6.70658">
        <ele>402</ele>
        <time>2015-08-20T14:38:23.000Z</time>
      </trkpt>
      <trkpt lat="47.49621" lon="6.70659">
        <ele>402</ele>
        <time>2015-08-20T14:38:24.000Z</time>
      </trkpt>
      <trkpt lat="47.49621" lon="6.70665">
        <ele>403</ele>
        <time>2015-08-20T14:38:35.000Z</time>
      </trkpt>
      <trkpt lat="47.49621" lon="6.70666">
        <ele>403</ele>
        <time>2015-08-20T14:38:36.000Z</time>
      </trkpt>
      <trkpt lat="47.49618" lon="6.70671">
        <ele>408</ele>
        <time>2015-08-20T14:39:32.000Z</time>
      </trkpt>
      <trkpt lat="47.49619" lon="6.70674">
        <ele>407</ele>
        <time>2015-08-20T14:39:33.000Z</time>
      </trkpt>
      <trkpt lat="47.49619" lon="6.70677">
        <ele>407</ele>
        <time>2015-08-20T14:39:34.000Z</time>
      </trkpt>
      <trkpt lat="47.4962" lon="6.7068">
        <ele>407</ele>
        <time>2015-08-20T14:39:35.000Z</time>
      </trkpt>
      <trkpt lat="47.49622" lon="6.70684">
        <ele>407</ele>
        <time>2015-08-20T14:39:36.000Z</time>
      </trkpt>
      <trkpt lat="47.49623" lon="6.70688">
        <ele>407</ele>
        <time>2015-08-20T14:39:37.000Z</time>
      </trkpt>
      <trkpt lat="47.49625" lon="6.70693">
        <ele>407</ele>
        <time>2015-08-20T14:39:38.000Z</time>
      </trkpt>
      <trkpt lat="47.49627" lon="6.70698">
        <ele>407</ele>
        <time>2015-08-20T14:39:39.000Z</time>
      </trkpt>
      <trkpt lat="47.4963" lon="6.70703">
        <ele>406</ele>
        <time>2015-08-20T14:39:40.000Z</time>
      </trkpt>
      <trkpt lat="47.49633" lon="6.7071">
        <ele>406</ele>
        <time>2015-08-20T14:39:41.000Z</time>
      </trkpt>
      <trkpt lat="47.49642" lon="6.70726">
        <ele>405</ele>
        <time>2015-08-20T14:39:42.000Z</time>
      </trkpt>
      <trkpt lat="47.49646" lon="6.70732">
        <ele>404</ele>
        <time>2015-08-20T14:39:43.001Z</time>
      </trkpt>
      <trkpt lat="47.4965" lon="6.70738">
        <ele>403</ele>
        <time>2015-08-20T14:39:44.000Z</time>
      </trkpt>
      <trkpt lat="47.49654" lon="6.70747">
        <ele>402</ele>
        <time>2015-08-20T14:39:45.000Z</time>
      </trkpt>
      <trkpt lat="47.49657" lon="6.70753">
        <ele>404</ele>
        <time>2015-08-20T14:39:46.000Z</time>
      </trkpt>
      <trkpt lat="47.49666" lon="6.70756">
        <ele>401</ele>
        <time>2015-08-20T14:39:47.000Z</time>
      </trkpt>
      <trkpt lat="47.49669" lon="6.70763">
        <ele>396</ele>
        <time>2015-08-20T14:39:48.000Z</time>
      </trkpt>
      <trkpt lat="47.4967" lon="6.70769">
        <ele>395</ele>
        <time>2015-08-20T14:39:49.000Z</time>
      </trkpt>
      <trkpt lat="47.49674" lon="6.70776">
        <ele>395</ele>
        <time>2015-08-20T14:39:50.000Z</time>
      </trkpt>
      <trkpt lat="47.49678" lon="6.7078">
        <ele>394</ele>
        <time>2015-08-20T14:39:51.000Z</time>
      </trkpt>
      <trkpt lat="47.49683" lon="6.70785">
        <ele>394</ele>
        <time>2015-08-20T14:39:52.000Z</time>
      </trkpt>
      <trkpt lat="47.49684" lon="6.7079">
        <ele>394</ele>
        <time>2015-08-20T14:39:54.000Z</time>
      </trkpt>
      <trkpt lat="47.49685" lon="6.70793">
        <ele>394</ele>
        <time>2015-08-20T14:39:55.000Z</time>
      </trkpt>
      <trkpt lat="47.49686" lon="6.70797">
        <ele>394</ele>
        <time>2015-08-20T14:39:56.000Z</time>
      </trkpt>
      <trkpt lat="47.49688" lon="6.70801">
        <ele>394</ele>
        <time>2015-08-20T14:39:57.000Z</time>
      </trkpt>
      <trkpt lat="47.49688" lon="6.70805">
        <ele>395</ele>
        <time>2015-08-20T14:39:58.000Z</time>
      </trkpt>
      <trkpt lat="47.49689" lon="6.70808">
        <ele>395</ele>
        <time>2015-08-20T14:39:59.000Z</time>
      </trkpt>
      <trkpt lat="47.49689" lon="6.70814">
        <ele>395</ele>
        <time>2015-08-20T14:40:01.000Z</time>
      </trkpt>
      <trkpt lat="47.49689" lon="6.70817">
        <ele>396</ele>
        <time>2015-08-20T14:40:02.000Z</time>
      </trkpt>
      <trkpt lat="47.4969" lon="6.70821">
        <ele>396</ele>
        <time>2015-08-20T14:40:03.000Z</time>
      </trkpt>
      <trkpt lat="47.49691" lon="6.70825">
        <ele>396</ele>
        <time>2015-08-20T14:40:04.000Z</time>
      </trkpt>
      <trkpt lat="47.49692" lon="6.7083">
        <ele>396</ele>
        <time>2015-08-20T14:40:05.000Z</time>
      </trkpt>
      <trkpt lat="47.49694" lon="6.70845">
        <ele>398</ele>
        <time>2015-08-20T14:40:06.000Z</time>
      </trkpt>
      <trkpt lat="47.49694" lon="6.70852">
        <ele>397</ele>
        <time>2015-08-20T14:40:07.000Z</time>
      </trkpt>
      <trkpt lat="47.49695" lon="6.70859">
        <ele>397</ele>
        <time>2015-08-20T14:40:08.001Z</time>
      </trkpt>
      <trkpt lat="47.49697" lon="6.70864">
        <ele>397</ele>
        <time>2015-08-20T14:40:10.000Z</time>
      </trkpt>
      <trkpt lat="47.49697" lon="6.70867">
        <ele>397</ele>
        <time>2015-08-20T14:40:11.000Z</time>
      </trkpt>
      <trkpt lat="47.49699" lon="6.70872">
        <ele>397</ele>
        <time>2015-08-20T14:40:13.001Z</time>
      </trkpt>
      <trkpt lat="47.49701" lon="6.7088">
        <ele>397</ele>
        <time>2015-08-20T14:40:14.000Z</time>
      </trkpt>
      <trkpt lat="47.49702" lon="6.70888">
        <ele>397</ele>
        <time>2015-08-20T14:40:14.999Z</time>
      </trkpt>
      <trkpt lat="47.49706" lon="6.70898">
        <ele>396</ele>
        <time>2015-08-20T14:40:16.000Z</time>
      </trkpt>
      <trkpt lat="47.49707" lon="6.70903">
        <ele>396</ele>
        <time>2015-08-20T14:40:17.000Z</time>
      </trkpt>
      <trkpt lat="47.49708" lon="6.70908">
        <ele>396</ele>
        <time>2015-08-20T14:40:18.000Z</time>
      </trkpt>
      <trkpt lat="47.4971" lon="6.70913">
        <ele>396</ele>
        <time>2015-08-20T14:40:19.000Z</time>
      </trkpt>
      <trkpt lat="47.49711" lon="6.70918">
        <ele>399</ele>
        <time>2015-08-20T14:40:20.000Z</time>
      </trkpt>
      <trkpt lat="47.49713" lon="6.70922">
        <ele>398</ele>
        <time>2015-08-20T14:40:21.000Z</time>
      </trkpt>
      <trkpt lat="47.49714" lon="6.70928">
        <ele>398</ele>
        <time>2015-08-20T14:40:22.000Z</time>
      </trkpt>
      <trkpt lat="47.49716" lon="6.70935">
        <ele>398</ele>
        <time>2015-08-20T14:40:23.000Z</time>
      </trkpt>
      <trkpt lat="47.49717" lon="6.70942">
        <ele>398</ele>
        <time>2015-08-20T14:40:24.000Z</time>
      </trkpt>
      <trkpt lat="47.49718" lon="6.70949">
        <ele>399</ele>
        <time>2015-08-20T14:40:25.000Z</time>
      </trkpt>
      <trkpt lat="47.4972" lon="6.70964">
        <ele>399</ele>
        <time>2015-08-20T14:40:26.000Z</time>
      </trkpt>
      <trkpt lat="47.49722" lon="6.70974">
        <ele>399</ele>
        <time>2015-08-20T14:40:27.000Z</time>
      </trkpt>
      <trkpt lat="47.49721" lon="6.70981">
        <ele>399</ele>
        <time>2015-08-20T14:40:28.000Z</time>
      </trkpt>
      <trkpt lat="47.4972" lon="6.70988">
        <ele>399</ele>
        <time>2015-08-20T14:40:29.000Z</time>
      </trkpt>
      <trkpt lat="47.4972" lon="6.70994">
        <ele>399</ele>
        <time>2015-08-20T14:40:30.000Z</time>
      </trkpt>
      <trkpt lat="47.4972" lon="6.70999">
        <ele>399</ele>
        <time>2015-08-20T14:40:31.000Z</time>
      </trkpt>
      <trkpt lat="47.49721" lon="6.71008">
        <ele>402</ele>
        <time>2015-08-20T14:40:32.000Z</time>
      </trkpt>
      <trkpt lat="47.49721" lon="6.71014">
        <ele>403</ele>
        <time>2015-08-20T14:40:33.000Z</time>
      </trkpt>
      <trkpt lat="47.4972" lon="6.7102">
        <ele>404</ele>
        <time>2015-08-20T14:40:34.000Z</time>
      </trkpt>
      <trkpt lat="47.49719" lon="6.71026">
        <ele>404</ele>
        <time>2015-08-20T14:40:35.000Z</time>
      </trkpt>
      <trkpt lat="47.49717" lon="6.71034">
        <ele>405</ele>
        <time>2015-08-20T14:40:36.000Z</time>
      </trkpt>
      <trkpt lat="47.49716" lon="6.71041">
        <ele>405</ele>
        <time>2015-08-20T14:40:37.000Z</time>
      </trkpt>
      <trkpt lat="47.49716" lon="6.71047">
        <ele>406</ele>
        <time>2015-08-20T14:40:38.000Z</time>
      </trkpt>
      <trkpt lat="47.49716" lon="6.71053">
        <ele>406</ele>
        <time>2015-08-20T14:40:39.000Z</time>
      </trkpt>
      <trkpt lat="47.49717" lon="6.71057">
        <ele>406</ele>
        <time>2015-08-20T14:40:40.000Z</time>
      </trkpt>
      <trkpt lat="47.49717" lon="6.71061">
        <ele>405</ele>
        <time>2015-08-20T14:40:41.000Z</time>
      </trkpt>
      <trkpt lat="47.49718" lon="6.71066">
        <ele>405</ele>
        <time>2015-08-20T14:40:42.000Z</time>
      </trkpt>
      <trkpt lat="47.49718" lon="6.71071">
        <ele>405</ele>
        <time>2015-08-20T14:40:43.000Z</time>
      </trkpt>
      <trkpt lat="47.49719" lon="6.71076">
        <ele>405</ele>
        <time>2015-08-20T14:40:44.000Z</time>
      </trkpt>
      <trkpt lat="47.4972" lon="6.71082">
        <ele>404</ele>
        <time>2015-08-20T14:40:45.000Z</time>
      </trkpt>
      <trkpt lat="47.49721" lon="6.71087">
        <ele>406</ele>
        <time>2015-08-20T14:40:46.000Z</time>
      </trkpt>
      <trkpt lat="47.49722" lon="6.71093">
        <ele>406</ele>
        <time>2015-08-20T14:40:47.000Z</time>
      </trkpt>
      <trkpt lat="47.49723" lon="6.71098">
        <ele>406</ele>
        <time>2015-08-20T14:40:48.000Z</time>
      </trkpt>
      <trkpt lat="47.49724" lon="6.71104">
        <ele>406</ele>
        <time>2015-08-20T14:40:49.000Z</time>
      </trkpt>
      <trkpt lat="47.49725" lon="6.71109">
        <ele>407</ele>
        <time>2015-08-20T14:40:50.000Z</time>
      </trkpt>
      <trkpt lat="47.49726" lon="6.71114">
        <ele>407</ele>
        <time>2015-08-20T14:40:51.000Z</time>
      </trkpt>
      <trkpt lat="47.49728" lon="6.71119">
        <ele>407</ele>
        <time>2015-08-20T14:40:52.000Z</time>
      </trkpt>
      <trkpt lat="47.49731" lon="6.71123">
        <ele>407</ele>
        <time>2015-08-20T14:40:53.000Z</time>
      </trkpt>
      <trkpt lat="47.49735" lon="6.71126">
        <ele>406</ele>
        <time>2015-08-20T14:40:54.000Z</time>
      </trkpt>
      <trkpt lat="47.49738" lon="6.7113">
        <ele>406</ele>
        <time>2015-08-20T14:40:55.000Z</time>
      </trkpt>
      <trkpt lat="47.49741" lon="6.71134">
        <ele>405</ele>
        <time>2015-08-20T14:40:56.000Z</time>
      </trkpt>
      <trkpt lat="47.49742" lon="6.7114">
        <ele>405</ele>
        <time>2015-08-20T14:40:57.000Z</time>
      </trkpt>
      <trkpt lat="47.49742" lon="6.71147">
        <ele>404</ele>
        <time>2015-08-20T14:40:58.000Z</time>
      </trkpt>
      <trkpt lat="47.49741" lon="6.71154">
        <ele>402</ele>
        <time>2015-08-20T14:40:59.000Z</time>
      </trkpt>
      <trkpt lat="47.49741" lon="6.71161">
        <ele>401</ele>
        <time>2015-08-20T14:41:00.000Z</time>
      </trkpt>
      <trkpt lat="47.4974" lon="6.71167">
        <ele>402</ele>
        <time>2015-08-20T14:41:01.000Z</time>
      </trkpt>
      <trkpt lat="47.49739" lon="6.71174">
        <ele>403</ele>
        <time>2015-08-20T14:41:02.000Z</time>
      </trkpt>
      <trkpt lat="47.49738" lon="6.71179">
        <ele>405</ele>
        <time>2015-08-20T14:41:03.000Z</time>
      </trkpt>
      <trkpt lat="47.49736" lon="6.71184">
        <ele>407</ele>
        <time>2015-08-20T14:41:04.000Z</time>
      </trkpt>
      <trkpt lat="47.49734" lon="6.71189">
        <ele>408</ele>
        <time>2015-08-20T14:41:05.000Z</time>
      </trkpt>
      <trkpt lat="47.49732" lon="6.71193">
        <ele>409</ele>
        <time>2015-08-20T14:41:06.000Z</time>
      </trkpt>
      <trkpt lat="47.49731" lon="6.71196">
        <ele>410</ele>
        <time>2015-08-20T14:41:07.000Z</time>
      </trkpt>
      <trkpt lat="47.4973" lon="6.712">
        <ele>411</ele>
        <time>2015-08-20T14:41:08.000Z</time>
      </trkpt>
      <trkpt lat="47.49729" lon="6.71204">
        <ele>411</ele>
        <time>2015-08-20T14:41:09.000Z</time>
      </trkpt>
      <trkpt lat="47.4973" lon="6.71208">
        <ele>411</ele>
        <time>2015-08-20T14:41:10.000Z</time>
      </trkpt>
      <trkpt lat="47.49731" lon="6.71213">
        <ele>411</ele>
        <time>2015-08-20T14:41:11.000Z</time>
      </trkpt>
      <trkpt lat="47.49733" lon="6.71218">
        <ele>411</ele>
        <time>2015-08-20T14:41:12.000Z</time>
      </trkpt>
      <trkpt lat="47.49735" lon="6.71223">
        <ele>410</ele>
        <time>2015-08-20T14:41:13.000Z</time>
      </trkpt>
      <trkpt lat="47.49737" lon="6.71228">
        <ele>409</ele>
        <time>2015-08-20T14:41:14.000Z</time>
      </trkpt>
      <trkpt lat="47.49739" lon="6.71233">
        <ele>408</ele>
        <time>2015-08-20T14:41:15.000Z</time>
      </trkpt>
      <trkpt lat="47.49741" lon="6.71239">
        <ele>407</ele>
        <time>2015-08-20T14:41:16.000Z</time>
      </trkpt>
      <trkpt lat="47.49743" lon="6.71245">
        <ele>405</ele>
        <time>2015-08-20T14:41:17.000Z</time>
      </trkpt>
      <trkpt lat="47.49744" lon="6.71251">
        <ele>406</ele>
        <time>2015-08-20T14:41:18.000Z</time>
      </trkpt>
      <trkpt lat="47.49744" lon="6.71257">
        <ele>407</ele>
        <time>2015-08-20T14:41:19.000Z</time>
      </trkpt>
      <trkpt lat="47.49744" lon="6.71263">
        <ele>409</ele>
        <time>2015-08-20T14:41:20.000Z</time>
      </trkpt>
      <trkpt lat="47.49745" lon="6.71268">
        <ele>411</ele>
        <time>2015-08-20T14:41:21.000Z</time>
      </trkpt>
      <trkpt lat="47.49746" lon="6.71274">
        <ele>412</ele>
        <time>2015-08-20T14:41:22.000Z</time>
      </trkpt>
      <trkpt lat="47.49746" lon="6.71279">
        <ele>413</ele>
        <time>2015-08-20T14:41:23.000Z</time>
      </trkpt>
      <trkpt lat="47.49747" lon="6.71283">
        <ele>414</ele>
        <time>2015-08-20T14:41:24.000Z</time>
      </trkpt>
      <trkpt lat="47.49749" lon="6.71287">
        <ele>414</ele>
        <time>2015-08-20T14:41:25.000Z</time>
      </trkpt>
      <trkpt lat="47.4975" lon="6.71291">
        <ele>415</ele>
        <time>2015-08-20T14:41:26.000Z</time>
      </trkpt>
      <trkpt lat="47.4975" lon="6.71296">
        <ele>396</ele>
        <time>2015-08-20T14:41:27.000Z</time>
      </trkpt>
      <trkpt lat="47.49751" lon="6.713">
        <ele>397</ele>
        <time>2015-08-20T14:41:28.000Z</time>
      </trkpt>
      <trkpt lat="47.49751" lon="6.71305">
        <ele>397</ele>
        <time>2015-08-20T14:41:29.000Z</time>
      </trkpt>
      <trkpt lat="47.49752" lon="6.71309">
        <ele>398</ele>
        <time>2015-08-20T14:41:30.000Z</time>
      </trkpt>
      <trkpt lat="47.49753" lon="6.71314">
        <ele>399</ele>
        <time>2015-08-20T14:41:31.000Z</time>
      </trkpt>
      <trkpt lat="47.49753" lon="6.71319">
        <ele>400</ele>
        <time>2015-08-20T14:41:32.000Z</time>
      </trkpt>
      <trkpt lat="47.49753" lon="6.71325">
        <ele>403</ele>
        <time>2015-08-20T14:41:33.000Z</time>
      </trkpt>
      <trkpt lat="47.49753" lon="6.71331">
        <ele>405</ele>
        <time>2015-08-20T14:41:34.000Z</time>
      </trkpt>
      <trkpt lat="47.49754" lon="6.71337">
        <ele>405</ele>
        <time>2015-08-20T14:41:35.000Z</time>
      </trkpt>
      <trkpt lat="47.49754" lon="6.71343">
        <ele>403</ele>
        <time>2015-08-20T14:41:36.000Z</time>
      </trkpt>
      <trkpt lat="47.49754" lon="6.71349">
        <ele>401</ele>
        <time>2015-08-20T14:41:37.000Z</time>
      </trkpt>
      <trkpt lat="47.49754" lon="6.71354">
        <ele>400</ele>
        <time>2015-08-20T14:41:38.000Z</time>
      </trkpt>
      <trkpt lat="47.49754" lon="6.7136">
        <ele>399</ele>
        <time>2015-08-20T14:41:39.000Z</time>
      </trkpt>
      <trkpt lat="47.49754" lon="6.71364">
        <ele>398</ele>
        <time>2015-08-20T14:41:40.000Z</time>
      </trkpt>
      <trkpt lat="47.49755" lon="6.71368">
        <ele>398</ele>
        <time>2015-08-20T14:41:41.000Z</time>
      </trkpt>
      <trkpt lat="47.49756" lon="6.71372">
        <ele>397</ele>
        <time>2015-08-20T14:41:42.000Z</time>
      </trkpt>
      <trkpt lat="47.49756" lon="6.71376">
        <ele>397</ele>
        <time>2015-08-20T14:41:43.000Z</time>
      </trkpt>
      <trkpt lat="47.49757" lon="6.71381">
        <ele>397</ele>
        <time>2015-08-20T14:41:44.000Z</time>
      </trkpt>
      <trkpt lat="47.49757" lon="6.71384">
        <ele>397</ele>
        <time>2015-08-20T14:41:45.000Z</time>
      </trkpt>
      <trkpt lat="47.49756" lon="6.71388">
        <ele>398</ele>
        <time>2015-08-20T14:41:46.000Z</time>
      </trkpt>
      <trkpt lat="47.49756" lon="6.71392">
        <ele>398</ele>
        <time>2015-08-20T14:41:47.000Z</time>
      </trkpt>
      <trkpt lat="47.49756" lon="6.71396">
        <ele>399</ele>
        <time>2015-08-20T14:41:47.999Z</time>
      </trkpt>
      <trkpt lat="47.49756" lon="6.71401">
        <ele>400</ele>
        <time>2015-08-20T14:41:49.000Z</time>
      </trkpt>
      <trkpt lat="47.49757" lon="6.71406">
        <ele>401</ele>
        <time>2015-08-20T14:41:50.000Z</time>
      </trkpt>
      <trkpt lat="47.49758" lon="6.71411">
        <ele>402</ele>
        <time>2015-08-20T14:41:51.000Z</time>
      </trkpt>
      <trkpt lat="47.49759" lon="6.71416">
        <ele>402</ele>
        <time>2015-08-20T14:41:52.000Z</time>
      </trkpt>
      <trkpt lat="47.4976" lon="6.7142">
        <ele>401</ele>
        <time>2015-08-20T14:41:53.001Z</time>
      </trkpt>
      <trkpt lat="47.49761" lon="6.71426">
        <ele>399</ele>
        <time>2015-08-20T14:41:54.000Z</time>
      </trkpt>
      <trkpt lat="47.49761" lon="6.71431">
        <ele>398</ele>
        <time>2015-08-20T14:41:55.000Z</time>
      </trkpt>
      <trkpt lat="47.49761" lon="6.71436">
        <ele>397</ele>
        <time>2015-08-20T14:41:56.000Z</time>
      </trkpt>
      <trkpt lat="47.4976" lon="6.7144">
        <ele>396</ele>
        <time>2015-08-20T14:41:57.000Z</time>
      </trkpt>
      <trkpt lat="47.49759" lon="6.71444">
        <ele>396</ele>
        <time>2015-08-20T14:41:58.000Z</time>
      </trkpt>
      <trkpt lat="47.49756" lon="6.71447">
        <ele>395</ele>
        <time>2015-08-20T14:41:59.000Z</time>
      </trkpt>
      <trkpt lat="47.49754" lon="6.7145">
        <ele>395</ele>
        <time>2015-08-20T14:42:00.000Z</time>
      </trkpt>
      <trkpt lat="47.49752" lon="6.71453">
        <ele>395</ele>
        <time>2015-08-20T14:42:01.000Z</time>
      </trkpt>
      <trkpt lat="47.4975" lon="6.71456">
        <ele>414</ele>
        <time>2015-08-20T14:42:02.000Z</time>
      </trkpt>
      <trkpt lat="47.49747" lon="6.7146">
        <ele>414</ele>
        <time>2015-08-20T14:42:03.000Z</time>
      </trkpt>
      <trkpt lat="47.49745" lon="6.71463">
        <ele>413</ele>
        <time>2015-08-20T14:42:04.000Z</time>
      </trkpt>
      <trkpt lat="47.49744" lon="6.71467">
        <ele>413</ele>
        <time>2015-08-20T14:42:05.000Z</time>
      </trkpt>
      <trkpt lat="47.49743" lon="6.71472">
        <ele>413</ele>
        <time>2015-08-20T14:42:06.000Z</time>
      </trkpt>
      <trkpt lat="47.49742" lon="6.71477">
        <ele>412</ele>
        <time>2015-08-20T14:42:07.000Z</time>
      </trkpt>
      <trkpt lat="47.49743" lon="6.71483">
        <ele>410</ele>
        <time>2015-08-20T14:42:08.000Z</time>
      </trkpt>
      <trkpt lat="47.49743" lon="6.71489">
        <ele>408</ele>
        <time>2015-08-20T14:42:09.000Z</time>
      </trkpt>
      <trkpt lat="47.49744" lon="6.71495">
        <ele>406</ele>
        <time>2015-08-20T14:42:10.000Z</time>
      </trkpt>
      <trkpt lat="47.49743" lon="6.71502">
        <ele>404</ele>
        <time>2015-08-20T14:42:11.000Z</time>
      </trkpt>
      <trkpt lat="47.49742" lon="6.71508">
        <ele>405</ele>
        <time>2015-08-20T14:42:12.000Z</time>
      </trkpt>
      <trkpt lat="47.4974" lon="6.71515">
        <ele>406</ele>
        <time>2015-08-20T14:42:13.000Z</time>
      </trkpt>
      <trkpt lat="47.49732" lon="6.71526">
        <ele>408</ele>
        <time>2015-08-20T14:42:14.000Z</time>
      </trkpt>
      <trkpt lat="47.49729" lon="6.7153">
        <ele>409</ele>
        <time>2015-08-20T14:42:15.000Z</time>
      </trkpt>
      <trkpt lat="47.49727" lon="6.71534">
        <ele>409</ele>
        <time>2015-08-20T14:42:16.000Z</time>
      </trkpt>
      <trkpt lat="47.49726" lon="6.71542">
        <ele>409</ele>
        <time>2015-08-20T14:42:17.000Z</time>
      </trkpt>
      <trkpt lat="47.49724" lon="6.7155">
        <ele>408</ele>
        <time>2015-08-20T14:42:18.000Z</time>
      </trkpt>
      <trkpt lat="47.49722" lon="6.71558">
        <ele>408</ele>
        <time>2015-08-20T14:42:19.000Z</time>
      </trkpt>
      <trkpt lat="47.49719" lon="6.71564">
        <ele>408</ele>
        <time>2015-08-20T14:42:20.000Z</time>
      </trkpt>
      <trkpt lat="47.49715" lon="6.71573">
        <ele>408</ele>
        <time>2015-08-20T14:42:21.000Z</time>
      </trkpt>
      <trkpt lat="47.49714" lon="6.7158">
        <ele>409</ele>
        <time>2015-08-20T14:42:22.000Z</time>
      </trkpt>
      <trkpt lat="47.49711" lon="6.71586">
        <ele>405</ele>
        <time>2015-08-20T14:42:23.000Z</time>
      </trkpt>
      <trkpt lat="47.49709" lon="6.71592">
        <ele>405</ele>
        <time>2015-08-20T14:42:24.000Z</time>
      </trkpt>
      <trkpt lat="47.49707" lon="6.71596">
        <ele>406</ele>
        <time>2015-08-20T14:42:25.000Z</time>
      </trkpt>
      <trkpt lat="47.49706" lon="6.71601">
        <ele>406</ele>
        <time>2015-08-20T14:42:26.000Z</time>
      </trkpt>
      <trkpt lat="47.49704" lon="6.71605">
        <ele>406</ele>
        <time>2015-08-20T14:42:27.000Z</time>
      </trkpt>
      <trkpt lat="47.49702" lon="6.71609">
        <ele>406</ele>
        <time>2015-08-20T14:42:28.000Z</time>
      </trkpt>
      <trkpt lat="47.49701" lon="6.71614">
        <ele>406</ele>
        <time>2015-08-20T14:42:29.000Z</time>
      </trkpt>
      <trkpt lat="47.49701" lon="6.7162">
        <ele>406</ele>
        <time>2015-08-20T14:42:30.000Z</time>
      </trkpt>
      <trkpt lat="47.497" lon="6.71625">
        <ele>406</ele>
        <time>2015-08-20T14:42:31.000Z</time>
      </trkpt>
      <trkpt lat="47.497" lon="6.71631">
        <ele>406</ele>
        <time>2015-08-20T14:42:32.000Z</time>
      </trkpt>
      <trkpt lat="47.49701" lon="6.71638">
        <ele>406</ele>
        <time>2015-08-20T14:42:33.000Z</time>
      </trkpt>
      <trkpt lat="47.49701" lon="6.71644">
        <ele>405</ele>
        <time>2015-08-20T14:42:34.000Z</time>
      </trkpt>
      <trkpt lat="47.49701" lon="6.7165">
        <ele>405</ele>
        <time>2015-08-20T14:42:35.000Z</time>
      </trkpt>
      <trkpt lat="47.497" lon="6.71656">
        <ele>406</ele>
        <time>2015-08-20T14:42:36.000Z</time>
      </trkpt>
      <trkpt lat="47.49699" lon="6.71661">
        <ele>406</ele>
        <time>2015-08-20T14:42:37.000Z</time>
      </trkpt>
      <trkpt lat="47.49697" lon="6.71666">
        <ele>406</ele>
        <time>2015-08-20T14:42:38.000Z</time>
      </trkpt>
      <trkpt lat="47.49696" lon="6.71671">
        <ele>403</ele>
        <time>2015-08-20T14:42:39.000Z</time>
      </trkpt>
      <trkpt lat="47.49695" lon="6.71676">
        <ele>403</ele>
        <time>2015-08-20T14:42:40.000Z</time>
      </trkpt>
      <trkpt lat="47.49694" lon="6.71681">
        <ele>403</ele>
        <time>2015-08-20T14:42:41.000Z</time>
      </trkpt>
      <trkpt lat="47.49694" lon="6.71686">
        <ele>402</ele>
        <time>2015-08-20T14:42:42.000Z</time>
      </trkpt>
      <trkpt lat="47.49693" lon="6.71691">
        <ele>402</ele>
        <time>2015-08-20T14:42:43.000Z</time>
      </trkpt>
      <trkpt lat="47.49693" lon="6.71695">
        <ele>402</ele>
        <time>2015-08-20T14:42:44.000Z</time>
      </trkpt>
      <trkpt lat="47.49692" lon="6.71699">
        <ele>402</ele>
        <time>2015-08-20T14:42:45.000Z</time>
      </trkpt>
      <trkpt lat="47.49691" lon="6.71704">
        <ele>401</ele>
        <time>2015-08-20T14:42:46.000Z</time>
      </trkpt>
      <trkpt lat="47.4969" lon="6.71708">
        <ele>401</ele>
        <time>2015-08-20T14:42:47.000Z</time>
      </trkpt>
      <trkpt lat="47.4969" lon="6.71712">
        <ele>401</ele>
        <time>2015-08-20T14:42:48.000Z</time>
      </trkpt>
      <trkpt lat="47.49689" lon="6.71716">
        <ele>401</ele>
        <time>2015-08-20T14:42:49.000Z</time>
      </trkpt>
      <trkpt lat="47.49689" lon="6.71721">
        <ele>401</ele>
        <time>2015-08-20T14:42:50.000Z</time>
      </trkpt>
      <trkpt lat="47.49689" lon="6.71725">
        <ele>401</ele>
        <time>2015-08-20T14:42:51.000Z</time>
      </trkpt>
      <trkpt lat="47.49688" lon="6.7173">
        <ele>401</ele>
        <time>2015-08-20T14:42:52.000Z</time>
      </trkpt>
      <trkpt lat="47.49686" lon="6.71734">
        <ele>402</ele>
        <time>2015-08-20T14:42:53.000Z</time>
      </trkpt>
      <trkpt lat="47.49684" lon="6.71738">
        <ele>402</ele>
        <time>2015-08-20T14:42:54.000Z</time>
      </trkpt>
      <trkpt lat="47.49682" lon="6.71743">
        <ele>403</ele>
        <time>2015-08-20T14:42:55.000Z</time>
      </trkpt>
      <trkpt lat="47.49679" lon="6.71747">
        <ele>404</ele>
        <time>2015-08-20T14:42:56.000Z</time>
      </trkpt>
      <trkpt lat="47.49677" lon="6.71751">
        <ele>402</ele>
        <time>2015-08-20T14:42:57.000Z</time>
      </trkpt>
      <trkpt lat="47.49676" lon="6.71755">
        <ele>402</ele>
        <time>2015-08-20T14:42:58.000Z</time>
      </trkpt>
      <trkpt lat="47.49675" lon="6.7176">
        <ele>402</ele>
        <time>2015-08-20T14:42:59.000Z</time>
      </trkpt>
      <trkpt lat="47.49674" lon="6.71765">
        <ele>401</ele>
        <time>2015-08-20T14:43:00.000Z</time>
      </trkpt>
      <trkpt lat="47.49674" lon="6.7177">
        <ele>400</ele>
        <time>2015-08-20T14:43:01.000Z</time>
      </trkpt>
      <trkpt lat="47.49675" lon="6.71775">
        <ele>399</ele>
        <time>2015-08-20T14:43:02.000Z</time>
      </trkpt>
      <trkpt lat="47.49675" lon="6.7178">
        <ele>398</ele>
        <time>2015-08-20T14:43:03.000Z</time>
      </trkpt>
      <trkpt lat="47.49676" lon="6.71784">
        <ele>398</ele>
        <time>2015-08-20T14:43:04.000Z</time>
      </trkpt>
      <trkpt lat="47.49676" lon="6.71789">
        <ele>397</ele>
        <time>2015-08-20T14:43:05.000Z</time>
      </trkpt>
      <trkpt lat="47.49676" lon="6.71792">
        <ele>397</ele>
        <time>2015-08-20T14:43:06.000Z</time>
      </trkpt>
      <trkpt lat="47.49676" lon="6.71796">
        <ele>397</ele>
        <time>2015-08-20T14:43:07.000Z</time>
      </trkpt>
      <trkpt lat="47.49676" lon="6.718">
        <ele>397</ele>
        <time>2015-08-20T14:43:08.000Z</time>
      </trkpt>
      <trkpt lat="47.49675" lon="6.71804">
        <ele>397</ele>
        <time>2015-08-20T14:43:09.000Z</time>
      </trkpt>
      <trkpt lat="47.49675" lon="6.71809">
        <ele>397</ele>
        <time>2015-08-20T14:43:10.000Z</time>
      </trkpt>
      <trkpt lat="47.49675" lon="6.71814">
        <ele>397</ele>
        <time>2015-08-20T14:43:11.000Z</time>
      </trkpt>
      <trkpt lat="47.49675" lon="6.7182">
        <ele>398</ele>
        <time>2015-08-20T14:43:12.000Z</time>
      </trkpt>
      <trkpt lat="47.49674" lon="6.71825">
        <ele>398</ele>
        <time>2015-08-20T14:43:13.000Z</time>
      </trkpt>
      <trkpt lat="47.49674" lon="6.7183">
        <ele>399</ele>
        <time>2015-08-20T14:43:14.000Z</time>
      </trkpt>
      <trkpt lat="47.49674" lon="6.71834">
        <ele>398</ele>
        <time>2015-08-20T14:43:15.000Z</time>
      </trkpt>
      <trkpt lat="47.49675" lon="6.71838">
        <ele>398</ele>
        <time>2015-08-20T14:43:16.000Z</time>
      </trkpt>
      <trkpt lat="47.49675" lon="6.71842">
        <ele>397</ele>
        <time>2015-08-20T14:43:17.000Z</time>
      </trkpt>
      <trkpt lat="47.49675" lon="6.71846">
        <ele>396</ele>
        <time>2015-08-20T14:43:18.000Z</time>
      </trkpt>
      <trkpt lat="47.49674" lon="6.7185">
        <ele>396</ele>
        <time>2015-08-20T14:43:19.000Z</time>
      </trkpt>
      <trkpt lat="47.49674" lon="6.71854">
        <ele>395</ele>
        <time>2015-08-20T14:43:20.000Z</time>
      </trkpt>
      <trkpt lat="47.49674" lon="6.71857">
        <ele>395</ele>
        <time>2015-08-20T14:43:21.000Z</time>
      </trkpt>
      <trkpt lat="47.49674" lon="6.71863">
        <ele>394</ele>
        <time>2015-08-20T14:43:23.000Z</time>
      </trkpt>
      <trkpt lat="47.49674" lon="6.71866">
        <ele>394</ele>
        <time>2015-08-20T14:43:24.000Z</time>
      </trkpt>
      <trkpt lat="47.49674" lon="6.71869">
        <ele>394</ele>
        <time>2015-08-20T14:43:25.000Z</time>
      </trkpt>
      <trkpt lat="47.49674" lon="6.71873">
        <ele>394</ele>
        <time>2015-08-20T14:43:26.000Z</time>
      </trkpt>
      <trkpt lat="47.49673" lon="6.71878">
        <ele>393</ele>
        <time>2015-08-20T14:43:27.000Z</time>
      </trkpt>
      <trkpt lat="47.49673" lon="6.71882">
        <ele>393</ele>
        <time>2015-08-20T14:43:28.000Z</time>
      </trkpt>
      <trkpt lat="47.49672" lon="6.71887">
        <ele>393</ele>
        <time>2015-08-20T14:43:29.000Z</time>
      </trkpt>
      <trkpt lat="47.49672" lon="6.71893">
        <ele>394</ele>
        <time>2015-08-20T14:43:30.000Z</time>
      </trkpt>
      <trkpt lat="47.49671" lon="6.71898">
        <ele>394</ele>
        <time>2015-08-20T14:43:31.000Z</time>
      </trkpt>
      <trkpt lat="47.4967" lon="6.71904">
        <ele>395</ele>
        <time>2015-08-20T14:43:32.000Z</time>
      </trkpt>
      <trkpt lat="47.49669" lon="6.71909">
        <ele>395</ele>
        <time>2015-08-20T14:43:33.000Z</time>
      </trkpt>
      <trkpt lat="47.49668" lon="6.71915">
        <ele>396</ele>
        <time>2015-08-20T14:43:34.000Z</time>
      </trkpt>
      <trkpt lat="47.49667" lon="6.71921">
        <ele>396</ele>
        <time>2015-08-20T14:43:35.000Z</time>
      </trkpt>
      <trkpt lat="47.49666" lon="6.71926">
        <ele>401</ele>
        <time>2015-08-20T14:43:36.000Z</time>
      </trkpt>
      <trkpt lat="47.49666" lon="6.71932">
        <ele>402</ele>
        <time>2015-08-20T14:43:37.000Z</time>
      </trkpt>
      <trkpt lat="47.49665" lon="6.71937">
        <ele>403</ele>
        <time>2015-08-20T14:43:38.000Z</time>
      </trkpt>
      <trkpt lat="47.49664" lon="6.71943">
        <ele>403</ele>
        <time>2015-08-20T14:43:39.000Z</time>
      </trkpt>
      <trkpt lat="47.49663" lon="6.71949">
        <ele>404</ele>
        <time>2015-08-20T14:43:40.000Z</time>
      </trkpt>
      <trkpt lat="47.49662" lon="6.71956">
        <ele>404</ele>
        <time>2015-08-20T14:43:41.000Z</time>
      </trkpt>
      <trkpt lat="47.49661" lon="6.71963">
        <ele>404</ele>
        <time>2015-08-20T14:43:42.000Z</time>
      </trkpt>
      <trkpt lat="47.49661" lon="6.71972">
        <ele>403</ele>
        <time>2015-08-20T14:43:43.000Z</time>
      </trkpt>
      <trkpt lat="47.49661" lon="6.71979">
        <ele>402</ele>
        <time>2015-08-20T14:43:44.000Z</time>
      </trkpt>
      <trkpt lat="47.49662" lon="6.71987">
        <ele>400</ele>
        <time>2015-08-20T14:43:45.000Z</time>
      </trkpt>
      <trkpt lat="47.49662" lon="6.71994">
        <ele>398</ele>
        <time>2015-08-20T14:43:46.000Z</time>
      </trkpt>
      <trkpt lat="47.49662" lon="6.72002">
        <ele>396</ele>
        <time>2015-08-20T14:43:47.000Z</time>
      </trkpt>
      <trkpt lat="47.49663" lon="6.72008">
        <ele>397</ele>
        <time>2015-08-20T14:43:48.000Z</time>
      </trkpt>
      <trkpt lat="47.49664" lon="6.72013">
        <ele>398</ele>
        <time>2015-08-20T14:43:49.000Z</time>
      </trkpt>
      <trkpt lat="47.49666" lon="6.72017">
        <ele>399</ele>
        <time>2015-08-20T14:43:50.000Z</time>
      </trkpt>
      <trkpt lat="47.49667" lon="6.72022">
        <ele>388</ele>
        <time>2015-08-20T14:43:51.000Z</time>
      </trkpt>
      <trkpt lat="47.49666" lon="6.7204">
        <ele>400</ele>
        <time>2015-08-20T14:43:52.000Z</time>
      </trkpt>
      <trkpt lat="47.49665" lon="6.7205">
        <ele>399</ele>
        <time>2015-08-20T14:43:53.000Z</time>
      </trkpt>
      <trkpt lat="47.49664" lon="6.72059">
        <ele>398</ele>
        <time>2015-08-20T14:43:54.000Z</time>
      </trkpt>
      <trkpt lat="47.49664" lon="6.72066">
        <ele>396</ele>
        <time>2015-08-20T14:43:55.001Z</time>
      </trkpt>
      <trkpt lat="47.49663" lon="6.72085">
        <ele>390</ele>
        <time>2015-08-20T14:43:56.000Z</time>
      </trkpt>
      <trkpt lat="47.4966" lon="6.72101">
        <ele>394</ele>
        <time>2015-08-20T14:43:57.000Z</time>
      </trkpt>
      <trkpt lat="47.49657" lon="6.72113">
        <ele>394</ele>
        <time>2015-08-20T14:43:58.000Z</time>
      </trkpt>
      <trkpt lat="47.49653" lon="6.72128">
        <ele>394</ele>
        <time>2015-08-20T14:43:59.000Z</time>
      </trkpt>
      <trkpt lat="47.4965" lon="6.72143">
        <ele>392</ele>
        <time>2015-08-20T14:44:00.000Z</time>
      </trkpt>
      <trkpt lat="47.49649" lon="6.72157">
        <ele>390</ele>
        <time>2015-08-20T14:44:01.000Z</time>
      </trkpt>
      <trkpt lat="47.49647" lon="6.72166">
        <ele>390</ele>
        <time>2015-08-20T14:44:02.000Z</time>
      </trkpt>
      <trkpt lat="47.49646" lon="6.72179">
        <ele>387</ele>
        <time>2015-08-20T14:44:03.000Z</time>
      </trkpt>
      <trkpt lat="47.49645" lon="6.72189">
        <ele>388</ele>
        <time>2015-08-20T14:44:04.000Z</time>
      </trkpt>
      <trkpt lat="47.49639" lon="6.722">
        <ele>389</ele>
        <time>2015-08-20T14:44:05.000Z</time>
      </trkpt>
      <trkpt lat="47.49638" lon="6.72206">
        <ele>389</ele>
        <time>2015-08-20T14:44:06.000Z</time>
      </trkpt>
      <trkpt lat="47.49637" lon="6.72209">
        <ele>389</ele>
        <time>2015-08-20T14:44:06.999Z</time>
      </trkpt>
      <trkpt lat="47.49634" lon="6.72211">
        <ele>389</ele>
        <time>2015-08-20T14:44:08.000Z</time>
      </trkpt>
      <trkpt lat="47.49632" lon="6.72221">
        <ele>389</ele>
        <time>2015-08-20T14:44:09.000Z</time>
      </trkpt>
      <trkpt lat="47.4963" lon="6.72226">
        <ele>389</ele>
        <time>2015-08-20T14:44:10.000Z</time>
      </trkpt>
      <trkpt lat="47.49627" lon="6.72229">
        <ele>390</ele>
        <time>2015-08-20T14:44:11.000Z</time>
      </trkpt>
      <trkpt lat="47.49625" lon="6.72233">
        <ele>390</ele>
        <time>2015-08-20T14:44:12.001Z</time>
      </trkpt>
      <trkpt lat="47.49622" lon="6.72243">
        <ele>390</ele>
        <time>2015-08-20T14:44:13.999Z</time>
      </trkpt>
      <trkpt lat="47.49621" lon="6.72256">
        <ele>387</ele>
        <time>2015-08-20T14:44:15.000Z</time>
      </trkpt>
      <trkpt lat="47.4962" lon="6.72264">
        <ele>387</ele>
        <time>2015-08-20T14:44:16.000Z</time>
      </trkpt>
      <trkpt lat="47.49618" lon="6.72278">
        <ele>387</ele>
        <time>2015-08-20T14:44:17.000Z</time>
      </trkpt>
      <trkpt lat="47.49616" lon="6.72286">
        <ele>387</ele>
        <time>2015-08-20T14:44:18.000Z</time>
      </trkpt>
      <trkpt lat="47.49616" lon="6.723">
        <ele>387</ele>
        <time>2015-08-20T14:44:19.000Z</time>
      </trkpt>
      <trkpt lat="47.49616" lon="6.72314">
        <ele>387</ele>
        <time>2015-08-20T14:44:20.000Z</time>
      </trkpt>
      <trkpt lat="47.49613" lon="6.72322">
        <ele>387</ele>
        <time>2015-08-20T14:44:21.000Z</time>
      </trkpt>
      <trkpt lat="47.49615" lon="6.72333">
        <ele>387</ele>
        <time>2015-08-20T14:44:22.000Z</time>
      </trkpt>
      <trkpt lat="47.49617" lon="6.72344">
        <ele>383</ele>
        <time>2015-08-20T14:44:23.000Z</time>
      </trkpt>
      <trkpt lat="47.49618" lon="6.72353">
        <ele>382</ele>
        <time>2015-08-20T14:44:24.000Z</time>
      </trkpt>
      <trkpt lat="47.49618" lon="6.72363">
        <ele>382</ele>
        <time>2015-08-20T14:44:25.000Z</time>
      </trkpt>
      <trkpt lat="47.49619" lon="6.72373">
        <ele>381</ele>
        <time>2015-08-20T14:44:26.000Z</time>
      </trkpt>
      <trkpt lat="47.49619" lon="6.72383">
        <ele>381</ele>
        <time>2015-08-20T14:44:27.000Z</time>
      </trkpt>
      <trkpt lat="47.4962" lon="6.72397">
        <ele>381</ele>
        <time>2015-08-20T14:44:28.000Z</time>
      </trkpt>
      <trkpt lat="47.4962" lon="6.72408">
        <ele>380</ele>
        <time>2015-08-20T14:44:29.000Z</time>
      </trkpt>
      <trkpt lat="47.49617" lon="6.72416">
        <ele>381</ele>
        <time>2015-08-20T14:44:30.000Z</time>
      </trkpt>
      <trkpt lat="47.49615" lon="6.72423">
        <ele>377</ele>
        <time>2015-08-20T14:44:31.000Z</time>
      </trkpt>
      <trkpt lat="47.49612" lon="6.72427">
        <ele>377</ele>
        <time>2015-08-20T14:44:32.000Z</time>
      </trkpt>
      <trkpt lat="47.49606" lon="6.7243">
        <ele>378</ele>
        <time>2015-08-20T14:44:33.000Z</time>
      </trkpt>
      <trkpt lat="47.49599" lon="6.72432">
        <ele>379</ele>
        <time>2015-08-20T14:44:34.000Z</time>
      </trkpt>
      <trkpt lat="47.49593" lon="6.72436">
        <ele>379</ele>
        <time>2015-08-20T14:44:35.000Z</time>
      </trkpt>
      <trkpt lat="47.49587" lon="6.72439">
        <ele>380</ele>
        <time>2015-08-20T14:44:36.000Z</time>
      </trkpt>
      <trkpt lat="47.49582" lon="6.72444">
        <ele>387</ele>
        <time>2015-08-20T14:44:37.000Z</time>
      </trkpt>
      <trkpt lat="47.49578" lon="6.72448">
        <ele>387</ele>
        <time>2015-08-20T14:44:38.000Z</time>
      </trkpt>
      <trkpt lat="47.49573" lon="6.72451">
        <ele>387</ele>
        <time>2015-08-20T14:44:39.000Z</time>
      </trkpt>
      <trkpt lat="47.49568" lon="6.72454">
        <ele>387</ele>
        <time>2015-08-20T14:44:40.000Z</time>
      </trkpt>
      <trkpt lat="47.49562" lon="6.72458">
        <ele>387</ele>
        <time>2015-08-20T14:44:41.000Z</time>
      </trkpt>
      <trkpt lat="47.49559" lon="6.72465">
        <ele>387</ele>
        <time>2015-08-20T14:44:42.000Z</time>
      </trkpt>
      <trkpt lat="47.49556" lon="6.72469">
        <ele>387</ele>
        <time>2015-08-20T14:44:43.000Z</time>
      </trkpt>
      <trkpt lat="47.49555" lon="6.72474">
        <ele>386</ele>
        <time>2015-08-20T14:44:44.000Z</time>
      </trkpt>
      <trkpt lat="47.49551" lon="6.72479">
        <ele>386</ele>
        <time>2015-08-20T14:44:45.000Z</time>
      </trkpt>
      <trkpt lat="47.49551" lon="6.72485">
        <ele>386</ele>
        <time>2015-08-20T14:44:46.000Z</time>
      </trkpt>
      <trkpt lat="47.49552" lon="6.72495">
        <ele>385</ele>
        <time>2015-08-20T14:44:47.000Z</time>
      </trkpt>
      <trkpt lat="47.49551" lon="6.72502">
        <ele>381</ele>
        <time>2015-08-20T14:44:48.000Z</time>
      </trkpt>
      <trkpt lat="47.4955" lon="6.72509">
        <ele>381</ele>
        <time>2015-08-20T14:44:49.000Z</time>
      </trkpt>
      <trkpt lat="47.49551" lon="6.72519">
        <ele>380</ele>
        <time>2015-08-20T14:44:50.000Z</time>
      </trkpt>
      <trkpt lat="47.49551" lon="6.72525">
        <ele>380</ele>
        <time>2015-08-20T14:44:51.000Z</time>
      </trkpt>
      <trkpt lat="47.49558" lon="6.7254">
        <ele>379</ele>
        <time>2015-08-20T14:44:52.000Z</time>
      </trkpt>
      <trkpt lat="47.49563" lon="6.72552">
        <ele>378</ele>
        <time>2015-08-20T14:44:53.000Z</time>
      </trkpt>
      <trkpt lat="47.49563" lon="6.72561">
        <ele>378</ele>
        <time>2015-08-20T14:44:54.000Z</time>
      </trkpt>
      <trkpt lat="47.49564" lon="6.72568">
        <ele>377</ele>
        <time>2015-08-20T14:44:55.000Z</time>
      </trkpt>
      <trkpt lat="47.49564" lon="6.72574">
        <ele>376</ele>
        <time>2015-08-20T14:44:56.000Z</time>
      </trkpt>
      <trkpt lat="47.49565" lon="6.72581">
        <ele>376</ele>
        <time>2015-08-20T14:44:57.000Z</time>
      </trkpt>
      <trkpt lat="47.49565" lon="6.72589">
        <ele>374</ele>
        <time>2015-08-20T14:44:58.000Z</time>
      </trkpt>
      <trkpt lat="47.49566" lon="6.72596">
        <ele>374</ele>
        <time>2015-08-20T14:44:59.000Z</time>
      </trkpt>
      <trkpt lat="47.49564" lon="6.72601">
        <ele>375</ele>
        <time>2015-08-20T14:45:00.000Z</time>
      </trkpt>
      <trkpt lat="47.49564" lon="6.72606">
        <ele>375</ele>
        <time>2015-08-20T14:45:01.000Z</time>
      </trkpt>
      <trkpt lat="47.49563" lon="6.7261">
        <ele>375</ele>
        <time>2015-08-20T14:45:02.000Z</time>
      </trkpt>
      <trkpt lat="47.49562" lon="6.72615">
        <ele>375</ele>
        <time>2015-08-20T14:45:03.000Z</time>
      </trkpt>
      <trkpt lat="47.49561" lon="6.72619">
        <ele>375</ele>
        <time>2015-08-20T14:45:04.000Z</time>
      </trkpt>
      <trkpt lat="47.4956" lon="6.72622">
        <ele>375</ele>
        <time>2015-08-20T14:45:05.000Z</time>
      </trkpt>
      <trkpt lat="47.49558" lon="6.72626">
        <ele>375</ele>
        <time>2015-08-20T14:45:06.000Z</time>
      </trkpt>
      <trkpt lat="47.49557" lon="6.7263">
        <ele>375</ele>
        <time>2015-08-20T14:45:07.000Z</time>
      </trkpt>
      <trkpt lat="47.49555" lon="6.72634">
        <ele>375</ele>
        <time>2015-08-20T14:45:08.000Z</time>
      </trkpt>
      <trkpt lat="47.49554" lon="6.72638">
        <ele>375</ele>
        <time>2015-08-20T14:45:09.000Z</time>
      </trkpt>
      <trkpt lat="47.49553" lon="6.72642">
        <ele>375</ele>
        <time>2015-08-20T14:45:10.000Z</time>
      </trkpt>
      <trkpt lat="47.49552" lon="6.72646">
        <ele>375</ele>
        <time>2015-08-20T14:45:11.000Z</time>
      </trkpt>
      <trkpt lat="47.49551" lon="6.72651">
        <ele>375</ele>
        <time>2015-08-20T14:45:12.000Z</time>
      </trkpt>
      <trkpt lat="47.4955" lon="6.72655">
        <ele>376</ele>
        <time>2015-08-20T14:45:13.000Z</time>
      </trkpt>
      <trkpt lat="47.49549" lon="6.7266">
        <ele>376</ele>
        <time>2015-08-20T14:45:14.000Z</time>
      </trkpt>
      <trkpt lat="47.49547" lon="6.72666">
        <ele>376</ele>
        <time>2015-08-20T14:45:15.000Z</time>
      </trkpt>
      <trkpt lat="47.49546" lon="6.72671">
        <ele>375</ele>
        <time>2015-08-20T14:45:16.000Z</time>
      </trkpt>
      <trkpt lat="47.49545" lon="6.72677">
        <ele>375</ele>
        <time>2015-08-20T14:45:17.000Z</time>
      </trkpt>
      <trkpt lat="47.49544" lon="6.72682">
        <ele>375</ele>
        <time>2015-08-20T14:45:18.000Z</time>
      </trkpt>
      <trkpt lat="47.49544" lon="6.72687">
        <ele>375</ele>
        <time>2015-08-20T14:45:19.000Z</time>
      </trkpt>
      <trkpt lat="47.49544" lon="6.72692">
        <ele>375</ele>
        <time>2015-08-20T14:45:20.000Z</time>
      </trkpt>
      <trkpt lat="47.49544" lon="6.72698">
        <ele>375</ele>
        <time>2015-08-20T14:45:21.000Z</time>
      </trkpt>
      <trkpt lat="47.49544" lon="6.72703">
        <ele>375</ele>
        <time>2015-08-20T14:45:22.000Z</time>
      </trkpt>
      <trkpt lat="47.49543" lon="6.72707">
        <ele>375</ele>
        <time>2015-08-20T14:45:23.000Z</time>
      </trkpt>
      <trkpt lat="47.49542" lon="6.72711">
        <ele>375</ele>
        <time>2015-08-20T14:45:24.000Z</time>
      </trkpt>
      <trkpt lat="47.4954" lon="6.72715">
        <ele>375</ele>
        <time>2015-08-20T14:45:25.000Z</time>
      </trkpt>
      <trkpt lat="47.49539" lon="6.72718">
        <ele>375</ele>
        <time>2015-08-20T14:45:26.000Z</time>
      </trkpt>
      <trkpt lat="47.49537" lon="6.72721">
        <ele>375</ele>
        <time>2015-08-20T14:45:27.000Z</time>
      </trkpt>
      <trkpt lat="47.49535" lon="6.72724">
        <ele>376</ele>
        <time>2015-08-20T14:45:28.000Z</time>
      </trkpt>
      <trkpt lat="47.49534" lon="6.72728">
        <ele>376</ele>
        <time>2015-08-20T14:45:29.000Z</time>
      </trkpt>
      <trkpt lat="47.49533" lon="6.72732">
        <ele>376</ele>
        <time>2015-08-20T14:45:30.000Z</time>
      </trkpt>
      <trkpt lat="47.49532" lon="6.72736">
        <ele>376</ele>
        <time>2015-08-20T14:45:31.000Z</time>
      </trkpt>
      <trkpt lat="47.49531" lon="6.72741">
        <ele>376</ele>
        <time>2015-08-20T14:45:32.000Z</time>
      </trkpt>
      <trkpt lat="47.4953" lon="6.72745">
        <ele>376</ele>
        <time>2015-08-20T14:45:33.000Z</time>
      </trkpt>
      <trkpt lat="47.49529" lon="6.72751">
        <ele>373</ele>
        <time>2015-08-20T14:45:34.000Z</time>
      </trkpt>
      <trkpt lat="47.49527" lon="6.72756">
        <ele>373</ele>
        <time>2015-08-20T14:45:35.000Z</time>
      </trkpt>
      <trkpt lat="47.49526" lon="6.72762">
        <ele>373</ele>
        <time>2015-08-20T14:45:36.000Z</time>
      </trkpt>
      <trkpt lat="47.49524" lon="6.72767">
        <ele>373</ele>
        <time>2015-08-20T14:45:37.000Z</time>
      </trkpt>
      <trkpt lat="47.49522" lon="6.72773">
        <ele>373</ele>
        <time>2015-08-20T14:45:38.000Z</time>
      </trkpt>
      <trkpt lat="47.49521" lon="6.72778">
        <ele>373</ele>
        <time>2015-08-20T14:45:39.000Z</time>
      </trkpt>
      <trkpt lat="47.49519" lon="6.72783">
        <ele>372</ele>
        <time>2015-08-20T14:45:40.000Z</time>
      </trkpt>
      <trkpt lat="47.49518" lon="6.72788">
        <ele>372</ele>
        <time>2015-08-20T14:45:41.000Z</time>
      </trkpt>
      <trkpt lat="47.49517" lon="6.72793">
        <ele>372</ele>
        <time>2015-08-20T14:45:42.000Z</time>
      </trkpt>
      <trkpt lat="47.49515" lon="6.72797">
        <ele>372</ele>
        <time>2015-08-20T14:45:43.000Z</time>
      </trkpt>
      <trkpt lat="47.49515" lon="6.72801">
        <ele>372</ele>
        <time>2015-08-20T14:45:44.000Z</time>
      </trkpt>
      <trkpt lat="47.49514" lon="6.72806">
        <ele>372</ele>
        <time>2015-08-20T14:45:45.000Z</time>
      </trkpt>
      <trkpt lat="47.49513" lon="6.7281">
        <ele>372</ele>
        <time>2015-08-20T14:45:46.000Z</time>
      </trkpt>
      <trkpt lat="47.49513" lon="6.72815">
        <ele>372</ele>
        <time>2015-08-20T14:45:47.000Z</time>
      </trkpt>
      <trkpt lat="47.49513" lon="6.7282">
        <ele>372</ele>
        <time>2015-08-20T14:45:48.000Z</time>
      </trkpt>
      <trkpt lat="47.49513" lon="6.72824">
        <ele>373</ele>
        <time>2015-08-20T14:45:49.000Z</time>
      </trkpt>
      <trkpt lat="47.49513" lon="6.72829">
        <ele>373</ele>
        <time>2015-08-20T14:45:50.000Z</time>
      </trkpt>
      <trkpt lat="47.49513" lon="6.72835">
        <ele>370</ele>
        <time>2015-08-20T14:45:51.000Z</time>
      </trkpt>
      <trkpt lat="47.49511" lon="6.72845">
        <ele>369</ele>
        <time>2015-08-20T14:45:52.000Z</time>
      </trkpt>
      <trkpt lat="47.4951" lon="6.72852">
        <ele>368</ele>
        <time>2015-08-20T14:45:53.000Z</time>
      </trkpt>
      <trkpt lat="47.49508" lon="6.72859">
        <ele>367</ele>
        <time>2015-08-20T14:45:54.000Z</time>
      </trkpt>
      <trkpt lat="47.49506" lon="6.72869">
        <ele>366</ele>
        <time>2015-08-20T14:45:55.000Z</time>
      </trkpt>
      <trkpt lat="47.49503" lon="6.72877">
        <ele>365</ele>
        <time>2015-08-20T14:45:56.000Z</time>
      </trkpt>
      <trkpt lat="47.495" lon="6.72887">
        <ele>365</ele>
        <time>2015-08-20T14:45:57.000Z</time>
      </trkpt>
      <trkpt lat="47.495" lon="6.72897">
        <ele>374</ele>
        <time>2015-08-20T14:45:58.000Z</time>
      </trkpt>
      <trkpt lat="47.49499" lon="6.72905">
        <ele>372</ele>
        <time>2015-08-20T14:45:59.000Z</time>
      </trkpt>
      <trkpt lat="47.49498" lon="6.72915">
        <ele>370</ele>
        <time>2015-08-20T14:46:00.000Z</time>
      </trkpt>
      <trkpt lat="47.49504" lon="6.72929">
        <ele>364</ele>
        <time>2015-08-20T14:46:01.000Z</time>
      </trkpt>
      <trkpt lat="47.49506" lon="6.72941">
        <ele>362</ele>
        <time>2015-08-20T14:46:02.000Z</time>
      </trkpt>
      <trkpt lat="47.49511" lon="6.7295">
        <ele>361</ele>
        <time>2015-08-20T14:46:03.000Z</time>
      </trkpt>
      <trkpt lat="47.49518" lon="6.72962">
        <ele>360</ele>
        <time>2015-08-20T14:46:04.000Z</time>
      </trkpt>
      <trkpt lat="47.49523" lon="6.72971">
        <ele>359</ele>
        <time>2015-08-20T14:46:05.000Z</time>
      </trkpt>
      <trkpt lat="47.49527" lon="6.72979">
        <ele>359</ele>
        <time>2015-08-20T14:46:06.000Z</time>
      </trkpt>
      <trkpt lat="47.49531" lon="6.72987">
        <ele>358</ele>
        <time>2015-08-20T14:46:07.000Z</time>
      </trkpt>
      <trkpt lat="47.49535" lon="6.72998">
        <ele>358</ele>
        <time>2015-08-20T14:46:08.000Z</time>
      </trkpt>
      <trkpt lat="47.49537" lon="6.73004">
        <ele>357</ele>
        <time>2015-08-20T14:46:09.000Z</time>
      </trkpt>
      <trkpt lat="47.49536" lon="6.73011">
        <ele>357</ele>
        <time>2015-08-20T14:46:10.000Z</time>
      </trkpt>
      <trkpt lat="47.49535" lon="6.73018">
        <ele>357</ele>
        <time>2015-08-20T14:46:21.000Z</time>
      </trkpt>
      <trkpt lat="47.49535" lon="6.73018">
        <ele>357</ele>
        <time>2015-08-20T14:46:22.000Z</time>
      </trkpt>
      <trkpt lat="47.49538" lon="6.73019">
        <ele>357</ele>
        <time>2015-08-20T14:46:36.001Z</time>
      </trkpt>
      <trkpt lat="47.49541" lon="6.73016">
        <ele>357</ele>
        <time>2015-08-20T14:46:37.000Z</time>
      </trkpt>
      <trkpt lat="47.49545" lon="6.73015">
        <ele>356</ele>
        <time>2015-08-20T14:46:38.000Z</time>
      </trkpt>
      <trkpt lat="47.4955" lon="6.73013">
        <ele>355</ele>
        <time>2015-08-20T14:46:39.001Z</time>
      </trkpt>
      <trkpt lat="47.49555" lon="6.73011">
        <ele>355</ele>
        <time>2015-08-20T14:46:40.000Z</time>
      </trkpt>
      <trkpt lat="47.49564" lon="6.73008">
        <ele>353</ele>
        <time>2015-08-20T14:46:41.000Z</time>
      </trkpt>
      <trkpt lat="47.4957" lon="6.73006">
        <ele>352</ele>
        <time>2015-08-20T14:46:42.000Z</time>
      </trkpt>
      <trkpt lat="47.49577" lon="6.73005">
        <ele>350</ele>
        <time>2015-08-20T14:46:43.000Z</time>
      </trkpt>
      <trkpt lat="47.49583" lon="6.73003">
        <ele>349</ele>
        <time>2015-08-20T14:46:44.000Z</time>
      </trkpt>
      <trkpt lat="47.4959" lon="6.73001">
        <ele>348</ele>
        <time>2015-08-20T14:46:45.000Z</time>
      </trkpt>
      <trkpt lat="47.49596" lon="6.73">
        <ele>347</ele>
        <time>2015-08-20T14:46:46.000Z</time>
      </trkpt>
      <trkpt lat="47.49603" lon="6.72998">
        <ele>347</ele>
        <time>2015-08-20T14:46:47.000Z</time>
      </trkpt>
      <trkpt lat="47.49609" lon="6.72997">
        <ele>347</ele>
        <time>2015-08-20T14:46:48.000Z</time>
      </trkpt>
      <trkpt lat="47.49615" lon="6.72995">
        <ele>347</ele>
        <time>2015-08-20T14:46:49.000Z</time>
      </trkpt>
      <trkpt lat="47.4962" lon="6.72992">
        <ele>347</ele>
        <time>2015-08-20T14:46:50.000Z</time>
      </trkpt>
      <trkpt lat="47.49626" lon="6.7299">
        <ele>347</ele>
        <time>2015-08-20T14:46:51.000Z</time>
      </trkpt>
      <trkpt lat="47.49631" lon="6.72989">
        <ele>347</ele>
        <time>2015-08-20T14:46:52.000Z</time>
      </trkpt>
      <trkpt lat="47.49634" lon="6.72985">
        <ele>347</ele>
        <time>2015-08-20T14:46:53.000Z</time>
      </trkpt>
      <trkpt lat="47.49637" lon="6.72983">
        <ele>347</ele>
        <time>2015-08-20T14:46:54.000Z</time>
      </trkpt>
      <trkpt lat="47.49641" lon="6.7298">
        <ele>347</ele>
        <time>2015-08-20T14:46:55.000Z</time>
      </trkpt>
      <trkpt lat="47.49644" lon="6.72978">
        <ele>347</ele>
        <time>2015-08-20T14:46:56.000Z</time>
      </trkpt>
      <trkpt lat="47.49646" lon="6.72977">
        <ele>347</ele>
        <time>2015-08-20T14:46:57.000Z</time>
      </trkpt>
      <trkpt lat="47.49649" lon="6.72973">
        <ele>347</ele>
        <time>2015-08-20T14:46:58.000Z</time>
      </trkpt>
      <trkpt lat="47.49653" lon="6.72972">
        <ele>347</ele>
        <time>2015-08-20T14:46:59.000Z</time>
      </trkpt>
      <trkpt lat="47.49657" lon="6.72968">
        <ele>347</ele>
        <time>2015-08-20T14:47:00.000Z</time>
      </trkpt>
      <trkpt lat="47.49658" lon="6.72965">
        <ele>347</ele>
        <time>2015-08-20T14:47:01.000Z</time>
      </trkpt>
      <trkpt lat="47.49659" lon="6.72961">
        <ele>347</ele>
        <time>2015-08-20T14:47:02.000Z</time>
      </trkpt>
      <trkpt lat="47.49661" lon="6.72957">
        <ele>347</ele>
        <time>2015-08-20T14:47:03.000Z</time>
      </trkpt>
      <trkpt lat="47.49663" lon="6.72953">
        <ele>347</ele>
        <time>2015-08-20T14:47:04.000Z</time>
      </trkpt>
      <trkpt lat="47.49665" lon="6.72948">
        <ele>347</ele>
        <time>2015-08-20T14:47:05.000Z</time>
      </trkpt>
      <trkpt lat="47.49667" lon="6.72944">
        <ele>347</ele>
        <time>2015-08-20T14:47:06.000Z</time>
      </trkpt>
      <trkpt lat="47.49669" lon="6.72939">
        <ele>347</ele>
        <time>2015-08-20T14:47:07.000Z</time>
      </trkpt>
      <trkpt lat="47.49672" lon="6.72936">
        <ele>347</ele>
        <time>2015-08-20T14:47:08.000Z</time>
      </trkpt>
      <trkpt lat="47.49674" lon="6.72933">
        <ele>347</ele>
        <time>2015-08-20T14:47:09.000Z</time>
      </trkpt>
      <trkpt lat="47.49677" lon="6.72931">
        <ele>347</ele>
        <time>2015-08-20T14:47:10.000Z</time>
      </trkpt>
      <trkpt lat="47.4968" lon="6.72931">
        <ele>347</ele>
        <time>2015-08-20T14:47:11.000Z</time>
      </trkpt>
      <trkpt lat="47.49682" lon="6.72933">
        <ele>347</ele>
        <time>2015-08-20T14:47:12.000Z</time>
      </trkpt>
      <trkpt lat="47.49685" lon="6.72936">
        <ele>347</ele>
        <time>2015-08-20T14:47:13.000Z</time>
      </trkpt>
      <trkpt lat="47.49687" lon="6.7294">
        <ele>347</ele>
        <time>2015-08-20T14:47:14.000Z</time>
      </trkpt>
      <trkpt lat="47.49689" lon="6.72944">
        <ele>347</ele>
        <time>2015-08-20T14:47:15.000Z</time>
      </trkpt>
      <trkpt lat="47.49691" lon="6.72949">
        <ele>347</ele>
        <time>2015-08-20T14:47:16.000Z</time>
      </trkpt>
      <trkpt lat="47.49694" lon="6.72952">
        <ele>347</ele>
        <time>2015-08-20T14:47:17.000Z</time>
      </trkpt>
      <trkpt lat="47.49697" lon="6.72956">
        <ele>347</ele>
        <time>2015-08-20T14:47:18.000Z</time>
      </trkpt>
      <trkpt lat="47.497" lon="6.72959">
        <ele>346</ele>
        <time>2015-08-20T14:47:19.000Z</time>
      </trkpt>
      <trkpt lat="47.49703" lon="6.72962">
        <ele>346</ele>
        <time>2015-08-20T14:47:20.000Z</time>
      </trkpt>
      <trkpt lat="47.49706" lon="6.72965">
        <ele>346</ele>
        <time>2015-08-20T14:47:21.000Z</time>
      </trkpt>
      <trkpt lat="47.49709" lon="6.72968">
        <ele>346</ele>
        <time>2015-08-20T14:47:22.000Z</time>
      </trkpt>
      <trkpt lat="47.49712" lon="6.72971">
        <ele>346</ele>
        <time>2015-08-20T14:47:23.000Z</time>
      </trkpt>
      <trkpt lat="47.49715" lon="6.72975">
        <ele>346</ele>
        <time>2015-08-20T14:47:24.000Z</time>
      </trkpt>
      <trkpt lat="47.49718" lon="6.72978">
        <ele>346</ele>
        <time>2015-08-20T14:47:25.000Z</time>
      </trkpt>
      <trkpt lat="47.49721" lon="6.72981">
        <ele>346</ele>
        <time>2015-08-20T14:47:26.000Z</time>
      </trkpt>
      <trkpt lat="47.49725" lon="6.72984">
        <ele>346</ele>
        <time>2015-08-20T14:47:27.000Z</time>
      </trkpt>
      <trkpt lat="47.49728" lon="6.72986">
        <ele>346</ele>
        <time>2015-08-20T14:47:28.000Z</time>
      </trkpt>
      <trkpt lat="47.49732" lon="6.72989">
        <ele>345</ele>
        <time>2015-08-20T14:47:29.000Z</time>
      </trkpt>
      <trkpt lat="47.49735" lon="6.72992">
        <ele>345</ele>
        <time>2015-08-20T14:47:30.000Z</time>
      </trkpt>
      <trkpt lat="47.49739" lon="6.72995">
        <ele>345</ele>
        <time>2015-08-20T14:47:31.000Z</time>
      </trkpt>
      <trkpt lat="47.49742" lon="6.72997">
        <ele>345</ele>
        <time>2015-08-20T14:47:32.000Z</time>
      </trkpt>
      <trkpt lat="47.49745" lon="6.73">
        <ele>344</ele>
        <time>2015-08-20T14:47:33.000Z</time>
      </trkpt>
      <trkpt lat="47.49749" lon="6.73002">
        <ele>344</ele>
        <time>2015-08-20T14:47:34.000Z</time>
      </trkpt>
      <trkpt lat="47.49753" lon="6.73005">
        <ele>344</ele>
        <time>2015-08-20T14:47:35.000Z</time>
      </trkpt>
      <trkpt lat="47.49756" lon="6.73008">
        <ele>343</ele>
        <time>2015-08-20T14:47:36.000Z</time>
      </trkpt>
      <trkpt lat="47.4976" lon="6.73011">
        <ele>343</ele>
        <time>2015-08-20T14:47:37.000Z</time>
      </trkpt>
      <trkpt lat="47.49764" lon="6.73014">
        <ele>343</ele>
        <time>2015-08-20T14:47:38.000Z</time>
      </trkpt>
      <trkpt lat="47.49768" lon="6.73016">
        <ele>343</ele>
        <time>2015-08-20T14:47:39.000Z</time>
      </trkpt>
      <trkpt lat="47.49772" lon="6.73019">
        <ele>343</ele>
        <time>2015-08-20T14:47:40.000Z</time>
      </trkpt>
      <trkpt lat="47.49775" lon="6.73021">
        <ele>343</ele>
        <time>2015-08-20T14:47:41.000Z</time>
      </trkpt>
      <trkpt lat="47.49779" lon="6.73024">
        <ele>342</ele>
        <time>2015-08-20T14:47:42.000Z</time>
      </trkpt>
      <trkpt lat="47.49783" lon="6.73026">
        <ele>342</ele>
        <time>2015-08-20T14:47:43.000Z</time>
      </trkpt>
      <trkpt lat="47.49786" lon="6.73029">
        <ele>342</ele>
        <time>2015-08-20T14:47:44.000Z</time>
      </trkpt>
      <trkpt lat="47.4979" lon="6.73032">
        <ele>342</ele>
        <time>2015-08-20T14:47:45.000Z</time>
      </trkpt>
      <trkpt lat="47.49794" lon="6.73035">
        <ele>342</ele>
        <time>2015-08-20T14:47:46.000Z</time>
      </trkpt>
      <trkpt lat="47.49798" lon="6.73038">
        <ele>342</ele>
        <time>2015-08-20T14:47:47.000Z</time>
      </trkpt>
      <trkpt lat="47.49801" lon="6.7304">
        <ele>342</ele>
        <time>2015-08-20T14:47:48.000Z</time>
      </trkpt>
      <trkpt lat="47.49805" lon="6.73042">
        <ele>342</ele>
        <time>2015-08-20T14:47:49.000Z</time>
      </trkpt>
      <trkpt lat="47.49808" lon="6.73046">
        <ele>342</ele>
        <time>2015-08-20T14:47:50.000Z</time>
      </trkpt>
      <trkpt lat="47.49811" lon="6.73049">
        <ele>342</ele>
        <time>2015-08-20T14:47:51.000Z</time>
      </trkpt>
      <trkpt lat="47.49814" lon="6.73052">
        <ele>342</ele>
        <time>2015-08-20T14:47:52.000Z</time>
      </trkpt>
      <trkpt lat="47.49818" lon="6.73053">
        <ele>342</ele>
        <time>2015-08-20T14:47:53.000Z</time>
      </trkpt>
      <trkpt lat="47.49821" lon="6.73055">
        <ele>341</ele>
        <time>2015-08-20T14:47:54.000Z</time>
      </trkpt>
      <trkpt lat="47.49825" lon="6.73058">
        <ele>341</ele>
        <time>2015-08-20T14:47:55.000Z</time>
      </trkpt>
      <trkpt lat="47.49828" lon="6.7306">
        <ele>341</ele>
        <time>2015-08-20T14:47:56.000Z</time>
      </trkpt>
      <trkpt lat="47.49831" lon="6.73062">
        <ele>341</ele>
        <time>2015-08-20T14:47:57.000Z</time>
      </trkpt>
      <trkpt lat="47.49834" lon="6.73063">
        <ele>340</ele>
        <time>2015-08-20T14:47:58.000Z</time>
      </trkpt>
      <trkpt lat="47.49836" lon="6.73065">
        <ele>340</ele>
        <time>2015-08-20T14:47:59.000Z</time>
      </trkpt>
      <trkpt lat="47.49839" lon="6.7307">
        <ele>340</ele>
        <time>2015-08-20T14:48:01.000Z</time>
      </trkpt>
      <trkpt lat="47.4984" lon="6.73072">
        <ele>340</ele>
        <time>2015-08-20T14:48:02.000Z</time>
      </trkpt>
      <trkpt lat="47.49841" lon="6.73076">
        <ele>340</ele>
        <time>2015-08-20T14:48:03.000Z</time>
      </trkpt>
      <trkpt lat="47.4984" lon="6.73079">
        <ele>340</ele>
        <time>2015-08-20T14:48:04.000Z</time>
      </trkpt>
      <trkpt lat="47.49839" lon="6.73082">
        <ele>340</ele>
        <time>2015-08-20T14:48:05.000Z</time>
      </trkpt>
      <trkpt lat="47.49838" lon="6.73086">
        <ele>340</ele>
        <time>2015-08-20T14:48:06.000Z</time>
      </trkpt>
      <trkpt lat="47.49836" lon="6.73089">
        <ele>339</ele>
        <time>2015-08-20T14:48:07.000Z</time>
      </trkpt>
      <trkpt lat="47.49835" lon="6.73092">
        <ele>339</ele>
        <time>2015-08-20T14:48:08.000Z</time>
      </trkpt>
      <trkpt lat="47.49833" lon="6.73095">
        <ele>340</ele>
        <time>2015-08-20T14:48:09.000Z</time>
      </trkpt>
      <trkpt lat="47.49832" lon="6.73099">
        <ele>340</ele>
        <time>2015-08-20T14:48:10.000Z</time>
      </trkpt>
      <trkpt lat="47.49831" lon="6.73104">
        <ele>339</ele>
        <time>2015-08-20T14:48:11.000Z</time>
      </trkpt>
      <trkpt lat="47.49829" lon="6.73109">
        <ele>339</ele>
        <time>2015-08-20T14:48:12.000Z</time>
      </trkpt>
      <trkpt lat="47.49827" lon="6.73118">
        <ele>339</ele>
        <time>2015-08-20T14:48:13.000Z</time>
      </trkpt>
      <trkpt lat="47.49825" lon="6.73124">
        <ele>339</ele>
        <time>2015-08-20T14:48:14.000Z</time>
      </trkpt>
      <trkpt lat="47.49824" lon="6.73132">
        <ele>339</ele>
        <time>2015-08-20T14:48:15.000Z</time>
      </trkpt>
      <trkpt lat="47.49822" lon="6.7314">
        <ele>339</ele>
        <time>2015-08-20T14:48:16.000Z</time>
      </trkpt>
      <trkpt lat="47.4982" lon="6.73148">
        <ele>338</ele>
        <time>2015-08-20T14:48:17.000Z</time>
      </trkpt>
      <trkpt lat="47.49818" lon="6.73156">
        <ele>338</ele>
        <time>2015-08-20T14:48:18.000Z</time>
      </trkpt>
      <trkpt lat="47.49815" lon="6.73165">
        <ele>338</ele>
        <time>2015-08-20T14:48:19.000Z</time>
      </trkpt>
      <trkpt lat="47.49813" lon="6.73174">
        <ele>337</ele>
        <time>2015-08-20T14:48:20.000Z</time>
      </trkpt>
      <trkpt lat="47.49811" lon="6.73182">
        <ele>337</ele>
        <time>2015-08-20T14:48:21.000Z</time>
      </trkpt>
      <trkpt lat="47.4981" lon="6.73191">
        <ele>337</ele>
        <time>2015-08-20T14:48:22.000Z</time>
      </trkpt>
      <trkpt lat="47.49806" lon="6.732">
        <ele>337</ele>
        <time>2015-08-20T14:48:23.000Z</time>
      </trkpt>
      <trkpt lat="47.49803" lon="6.73209">
        <ele>337</ele>
        <time>2015-08-20T14:48:24.000Z</time>
      </trkpt>
      <trkpt lat="47.498" lon="6.73217">
        <ele>337</ele>
        <time>2015-08-20T14:48:25.000Z</time>
      </trkpt>
      <trkpt lat="47.49797" lon="6.73226">
        <ele>337</ele>
        <time>2015-08-20T14:48:26.000Z</time>
      </trkpt>
      <trkpt lat="47.49793" lon="6.73233">
        <ele>337</ele>
        <time>2015-08-20T14:48:27.000Z</time>
      </trkpt>
      <trkpt lat="47.4979" lon="6.7324">
        <ele>337</ele>
        <time>2015-08-20T14:48:28.000Z</time>
      </trkpt>
      <trkpt lat="47.49787" lon="6.73249">
        <ele>337</ele>
        <time>2015-08-20T14:48:29.000Z</time>
      </trkpt>
      <trkpt lat="47.49784" lon="6.73258">
        <ele>335</ele>
        <time>2015-08-20T14:48:30.000Z</time>
      </trkpt>
      <trkpt lat="47.4978" lon="6.73266">
        <ele>335</ele>
        <time>2015-08-20T14:48:31.000Z</time>
      </trkpt>
      <trkpt lat="47.49778" lon="6.73273">
        <ele>335</ele>
        <time>2015-08-20T14:48:32.000Z</time>
      </trkpt>
      <trkpt lat="47.49774" lon="6.73281">
        <ele>334</ele>
        <time>2015-08-20T14:48:33.000Z</time>
      </trkpt>
      <trkpt lat="47.4977" lon="6.73289">
        <ele>334</ele>
        <time>2015-08-20T14:48:34.000Z</time>
      </trkpt>
      <trkpt lat="47.49765" lon="6.73297">
        <ele>334</ele>
        <time>2015-08-20T14:48:35.000Z</time>
      </trkpt>
      <trkpt lat="47.49761" lon="6.73304">
        <ele>334</ele>
        <time>2015-08-20T14:48:36.000Z</time>
      </trkpt>
      <trkpt lat="47.49756" lon="6.73311">
        <ele>333</ele>
        <time>2015-08-20T14:48:37.000Z</time>
      </trkpt>
      <trkpt lat="47.4975" lon="6.73319">
        <ele>333</ele>
        <time>2015-08-20T14:48:38.000Z</time>
      </trkpt>
      <trkpt lat="47.49745" lon="6.73323">
        <ele>334</ele>
        <time>2015-08-20T14:48:39.000Z</time>
      </trkpt>
      <trkpt lat="47.4974" lon="6.73329">
        <ele>334</ele>
        <time>2015-08-20T14:48:40.000Z</time>
      </trkpt>
      <trkpt lat="47.49736" lon="6.73336">
        <ele>333</ele>
        <time>2015-08-20T14:48:41.000Z</time>
      </trkpt>
      <trkpt lat="47.49732" lon="6.73343">
        <ele>333</ele>
        <time>2015-08-20T14:48:42.000Z</time>
      </trkpt>
      <trkpt lat="47.49728" lon="6.7335">
        <ele>333</ele>
        <time>2015-08-20T14:48:43.000Z</time>
      </trkpt>
      <trkpt lat="47.49724" lon="6.73355">
        <ele>334</ele>
        <time>2015-08-20T14:48:44.000Z</time>
      </trkpt>
      <trkpt lat="47.4972" lon="6.73361">
        <ele>334</ele>
        <time>2015-08-20T14:48:45.000Z</time>
      </trkpt>
      <trkpt lat="47.49715" lon="6.73367">
        <ele>334</ele>
        <time>2015-08-20T14:48:46.000Z</time>
      </trkpt>
      <trkpt lat="47.49712" lon="6.73372">
        <ele>334</ele>
        <time>2015-08-20T14:48:47.000Z</time>
      </trkpt>
      <trkpt lat="47.49708" lon="6.73377">
        <ele>334</ele>
        <time>2015-08-20T14:48:48.000Z</time>
      </trkpt>
      <trkpt lat="47.49704" lon="6.73385">
        <ele>334</ele>
        <time>2015-08-20T14:48:49.000Z</time>
      </trkpt>
      <trkpt lat="47.49699" lon="6.73392">
        <ele>334</ele>
        <time>2015-08-20T14:48:50.000Z</time>
      </trkpt>
      <trkpt lat="47.49695" lon="6.73398">
        <ele>334</ele>
        <time>2015-08-20T14:48:51.000Z</time>
      </trkpt>
      <trkpt lat="47.49691" lon="6.73403">
        <ele>334</ele>
        <time>2015-08-20T14:48:52.000Z</time>
      </trkpt>
      <trkpt lat="47.49686" lon="6.73409">
        <ele>334</ele>
        <time>2015-08-20T14:48:53.000Z</time>
      </trkpt>
      <trkpt lat="47.49682" lon="6.73417">
        <ele>334</ele>
        <time>2015-08-20T14:48:54.000Z</time>
      </trkpt>
      <trkpt lat="47.49677" lon="6.73424">
        <ele>334</ele>
        <time>2015-08-20T14:48:55.000Z</time>
      </trkpt>
      <trkpt lat="47.49673" lon="6.73429">
        <ele>334</ele>
        <time>2015-08-20T14:48:56.000Z</time>
      </trkpt>
      <trkpt lat="47.49669" lon="6.73435">
        <ele>333</ele>
        <time>2015-08-20T14:48:57.000Z</time>
      </trkpt>
      <trkpt lat="47.49664" lon="6.73441">
        <ele>334</ele>
        <time>2015-08-20T14:48:58.000Z</time>
      </trkpt>
      <trkpt lat="47.4966" lon="6.73447">
        <ele>334</ele>
        <time>2015-08-20T14:48:59.000Z</time>
      </trkpt>
      <trkpt lat="47.49655" lon="6.73452">
        <ele>334</ele>
        <time>2015-08-20T14:49:00.000Z</time>
      </trkpt>
      <trkpt lat="47.49651" lon="6.73459">
        <ele>334</ele>
        <time>2015-08-20T14:49:01.000Z</time>
      </trkpt>
      <trkpt lat="47.49647" lon="6.73464">
        <ele>334</ele>
        <time>2015-08-20T14:49:02.000Z</time>
      </trkpt>
      <trkpt lat="47.49643" lon="6.73469">
        <ele>334</ele>
        <time>2015-08-20T14:49:03.000Z</time>
      </trkpt>
      <trkpt lat="47.49639" lon="6.73475">
        <ele>334</ele>
        <time>2015-08-20T14:49:04.000Z</time>
      </trkpt>
      <trkpt lat="47.49635" lon="6.7348">
        <ele>334</ele>
        <time>2015-08-20T14:49:05.000Z</time>
      </trkpt>
      <trkpt lat="47.49632" lon="6.73485">
        <ele>333</ele>
        <time>2015-08-20T14:49:06.000Z</time>
      </trkpt>
      <trkpt lat="47.49628" lon="6.73489">
        <ele>333</ele>
        <time>2015-08-20T14:49:07.000Z</time>
      </trkpt>
      <trkpt lat="47.49624" lon="6.73494">
        <ele>333</ele>
        <time>2015-08-20T14:49:08.000Z</time>
      </trkpt>
      <trkpt lat="47.49619" lon="6.73497">
        <ele>333</ele>
        <time>2015-08-20T14:49:09.000Z</time>
      </trkpt>
      <trkpt lat="47.49616" lon="6.73501">
        <ele>332</ele>
        <time>2015-08-20T14:49:10.000Z</time>
      </trkpt>
      <trkpt lat="47.49611" lon="6.73506">
        <ele>332</ele>
        <time>2015-08-20T14:49:11.000Z</time>
      </trkpt>
      <trkpt lat="47.49608" lon="6.7351">
        <ele>332</ele>
        <time>2015-08-20T14:49:12.000Z</time>
      </trkpt>
      <trkpt lat="47.49602" lon="6.73514">
        <ele>332</ele>
        <time>2015-08-20T14:49:13.000Z</time>
      </trkpt>
      <trkpt lat="47.49599" lon="6.73519">
        <ele>332</ele>
        <time>2015-08-20T14:49:14.000Z</time>
      </trkpt>
      <trkpt lat="47.49596" lon="6.73522">
        <ele>332</ele>
        <time>2015-08-20T14:49:15.000Z</time>
      </trkpt>
      <trkpt lat="47.49592" lon="6.73524">
        <ele>332</ele>
        <time>2015-08-20T14:49:16.000Z</time>
      </trkpt>
      <trkpt lat="47.49586" lon="6.73529">
        <ele>332</ele>
        <time>2015-08-20T14:49:17.000Z</time>
      </trkpt>
      <trkpt lat="47.49582" lon="6.73532">
        <ele>333</ele>
        <time>2015-08-20T14:49:18.000Z</time>
      </trkpt>
      <trkpt lat="47.49577" lon="6.7354">
        <ele>333</ele>
        <time>2015-08-20T14:49:19.000Z</time>
      </trkpt>
      <trkpt lat="47.49572" lon="6.73544">
        <ele>333</ele>
        <time>2015-08-20T14:49:20.000Z</time>
      </trkpt>
      <trkpt lat="47.49568" lon="6.73548">
        <ele>333</ele>
        <time>2015-08-20T14:49:21.000Z</time>
      </trkpt>
      <trkpt lat="47.49562" lon="6.73553">
        <ele>333</ele>
        <time>2015-08-20T14:49:22.000Z</time>
      </trkpt>
      <trkpt lat="47.49558" lon="6.73557">
        <ele>333</ele>
        <time>2015-08-20T14:49:23.000Z</time>
      </trkpt>
      <trkpt lat="47.49553" lon="6.7356">
        <ele>333</ele>
        <time>2015-08-20T14:49:24.000Z</time>
      </trkpt>
      <trkpt lat="47.49547" lon="6.73563">
        <ele>334</ele>
        <time>2015-08-20T14:49:25.000Z</time>
      </trkpt>
      <trkpt lat="47.49543" lon="6.73568">
        <ele>334</ele>
        <time>2015-08-20T14:49:26.000Z</time>
      </trkpt>
      <trkpt lat="47.49539" lon="6.73573">
        <ele>334</ele>
        <time>2015-08-20T14:49:27.000Z</time>
      </trkpt>
      <trkpt lat="47.49535" lon="6.73579">
        <ele>334</ele>
        <time>2015-08-20T14:49:28.000Z</time>
      </trkpt>
      <trkpt lat="47.49532" lon="6.73583">
        <ele>334</ele>
        <time>2015-08-20T14:49:29.000Z</time>
      </trkpt>
      <trkpt lat="47.49528" lon="6.73589">
        <ele>332</ele>
        <time>2015-08-20T14:49:30.001Z</time>
      </trkpt>
      <trkpt lat="47.49523" lon="6.73594">
        <ele>332</ele>
        <time>2015-08-20T14:49:31.000Z</time>
      </trkpt>
      <trkpt lat="47.49519" lon="6.73598">
        <ele>332</ele>
        <time>2015-08-20T14:49:32.000Z</time>
      </trkpt>
      <trkpt lat="47.49515" lon="6.73604">
        <ele>332</ele>
        <time>2015-08-20T14:49:33.000Z</time>
      </trkpt>
      <trkpt lat="47.49511" lon="6.73609">
        <ele>332</ele>
        <time>2015-08-20T14:49:34.000Z</time>
      </trkpt>
      <trkpt lat="47.49507" lon="6.73615">
        <ele>332</ele>
        <time>2015-08-20T14:49:35.000Z</time>
      </trkpt>
      <trkpt lat="47.49503" lon="6.7362">
        <ele>332</ele>
        <time>2015-08-20T14:49:36.000Z</time>
      </trkpt>
      <trkpt lat="47.495" lon="6.73626">
        <ele>337</ele>
        <time>2015-08-20T14:49:37.000Z</time>
      </trkpt>
      <trkpt lat="47.49496" lon="6.73634">
        <ele>336</ele>
        <time>2015-08-20T14:49:38.000Z</time>
      </trkpt>
      <trkpt lat="47.49493" lon="6.73641">
        <ele>336</ele>
        <time>2015-08-20T14:49:39.000Z</time>
      </trkpt>
      <trkpt lat="47.4949" lon="6.73648">
        <ele>336</ele>
        <time>2015-08-20T14:49:40.000Z</time>
      </trkpt>
      <trkpt lat="47.49487" lon="6.73655">
        <ele>335</ele>
        <time>2015-08-20T14:49:41.000Z</time>
      </trkpt>
      <trkpt lat="47.49485" lon="6.73662">
        <ele>335</ele>
        <time>2015-08-20T14:49:42.000Z</time>
      </trkpt>
      <trkpt lat="47.49482" lon="6.73669">
        <ele>335</ele>
        <time>2015-08-20T14:49:43.000Z</time>
      </trkpt>
      <trkpt lat="47.49479" lon="6.73676">
        <ele>336</ele>
        <time>2015-08-20T14:49:44.000Z</time>
      </trkpt>
      <trkpt lat="47.49477" lon="6.73682">
        <ele>336</ele>
        <time>2015-08-20T14:49:45.000Z</time>
      </trkpt>
      <trkpt lat="47.49475" lon="6.73688">
        <ele>337</ele>
        <time>2015-08-20T14:49:46.000Z</time>
      </trkpt>
      <trkpt lat="47.49472" lon="6.73694">
        <ele>337</ele>
        <time>2015-08-20T14:49:47.000Z</time>
      </trkpt>
      <trkpt lat="47.4947" lon="6.73699">
        <ele>337</ele>
        <time>2015-08-20T14:49:48.000Z</time>
      </trkpt>
      <trkpt lat="47.49469" lon="6.73705">
        <ele>338</ele>
        <time>2015-08-20T14:49:49.000Z</time>
      </trkpt>
      <trkpt lat="47.49467" lon="6.73711">
        <ele>338</ele>
        <time>2015-08-20T14:49:50.000Z</time>
      </trkpt>
      <trkpt lat="47.49464" lon="6.73717">
        <ele>338</ele>
        <time>2015-08-20T14:49:51.000Z</time>
      </trkpt>
      <trkpt lat="47.49462" lon="6.73722">
        <ele>338</ele>
        <time>2015-08-20T14:49:52.000Z</time>
      </trkpt>
      <trkpt lat="47.49459" lon="6.73728">
        <ele>338</ele>
        <time>2015-08-20T14:49:53.000Z</time>
      </trkpt>
      <trkpt lat="47.49456" lon="6.73731">
        <ele>339</ele>
        <time>2015-08-20T14:49:54.000Z</time>
      </trkpt>
      <trkpt lat="47.49453" lon="6.73736">
        <ele>339</ele>
        <time>2015-08-20T14:49:55.000Z</time>
      </trkpt>
      <trkpt lat="47.4945" lon="6.73739">
        <ele>339</ele>
        <time>2015-08-20T14:49:56.000Z</time>
      </trkpt>
      <trkpt lat="47.49446" lon="6.73743">
        <ele>340</ele>
        <time>2015-08-20T14:49:57.000Z</time>
      </trkpt>
      <trkpt lat="47.49444" lon="6.73746">
        <ele>340</ele>
        <time>2015-08-20T14:49:58.000Z</time>
      </trkpt>
      <trkpt lat="47.49441" lon="6.7375">
        <ele>340</ele>
        <time>2015-08-20T14:49:59.000Z</time>
      </trkpt>
      <trkpt lat="47.49438" lon="6.73755">
        <ele>341</ele>
        <time>2015-08-20T14:50:00.000Z</time>
      </trkpt>
      <trkpt lat="47.49435" lon="6.73759">
        <ele>341</ele>
        <time>2015-08-20T14:50:01.000Z</time>
      </trkpt>
      <trkpt lat="47.49432" lon="6.73763">
        <ele>341</ele>
        <time>2015-08-20T14:50:02.000Z</time>
      </trkpt>
      <trkpt lat="47.49429" lon="6.73767">
        <ele>341</ele>
        <time>2015-08-20T14:50:03.000Z</time>
      </trkpt>
      <trkpt lat="47.49426" lon="6.73771">
        <ele>341</ele>
        <time>2015-08-20T14:50:04.000Z</time>
      </trkpt>
      <trkpt lat="47.49423" lon="6.73776">
        <ele>341</ele>
        <time>2015-08-20T14:50:05.000Z</time>
      </trkpt>
      <trkpt lat="47.4942" lon="6.7378">
        <ele>341</ele>
        <time>2015-08-20T14:50:06.000Z</time>
      </trkpt>
      <trkpt lat="47.49418" lon="6.73787">
        <ele>341</ele>
        <time>2015-08-20T14:50:07.000Z</time>
      </trkpt>
      <trkpt lat="47.49417" lon="6.73792">
        <ele>341</ele>
        <time>2015-08-20T14:50:08.000Z</time>
      </trkpt>
      <trkpt lat="47.49415" lon="6.73797">
        <ele>348</ele>
        <time>2015-08-20T14:50:09.000Z</time>
      </trkpt>
      <trkpt lat="47.49414" lon="6.73801">
        <ele>348</ele>
        <time>2015-08-20T14:50:10.000Z</time>
      </trkpt>
      <trkpt lat="47.49413" lon="6.73806">
        <ele>347</ele>
        <time>2015-08-20T14:50:11.000Z</time>
      </trkpt>
      <trkpt lat="47.49412" lon="6.73811">
        <ele>347</ele>
        <time>2015-08-20T14:50:12.000Z</time>
      </trkpt>
      <trkpt lat="47.49411" lon="6.73816">
        <ele>347</ele>
        <time>2015-08-20T14:50:13.000Z</time>
      </trkpt>
      <trkpt lat="47.4941" lon="6.73822">
        <ele>346</ele>
        <time>2015-08-20T14:50:14.000Z</time>
      </trkpt>
      <trkpt lat="47.4941" lon="6.73828">
        <ele>346</ele>
        <time>2015-08-20T14:50:15.000Z</time>
      </trkpt>
      <trkpt lat="47.4941" lon="6.73834">
        <ele>346</ele>
        <time>2015-08-20T14:50:16.000Z</time>
      </trkpt>
      <trkpt lat="47.4941" lon="6.73842">
        <ele>346</ele>
        <time>2015-08-20T14:50:17.000Z</time>
      </trkpt>
      <trkpt lat="47.49411" lon="6.7385">
        <ele>347</ele>
        <time>2015-08-20T14:50:18.000Z</time>
      </trkpt>
      <trkpt lat="47.49412" lon="6.73858">
        <ele>348</ele>
        <time>2015-08-20T14:50:19.000Z</time>
      </trkpt>
      <trkpt lat="47.49413" lon="6.73866">
        <ele>348</ele>
        <time>2015-08-20T14:50:20.000Z</time>
      </trkpt>
      <trkpt lat="47.49413" lon="6.73874">
        <ele>349</ele>
        <time>2015-08-20T14:50:21.000Z</time>
      </trkpt>
      <trkpt lat="47.49414" lon="6.73882">
        <ele>349</ele>
        <time>2015-08-20T14:50:22.000Z</time>
      </trkpt>
      <trkpt lat="47.49415" lon="6.7389">
        <ele>349</ele>
        <time>2015-08-20T14:50:23.000Z</time>
      </trkpt>
      <trkpt lat="47.49415" lon="6.73898">
        <ele>348</ele>
        <time>2015-08-20T14:50:24.000Z</time>
      </trkpt>
      <trkpt lat="47.49415" lon="6.73905">
        <ele>348</ele>
        <time>2015-08-20T14:50:25.000Z</time>
      </trkpt>
      <trkpt lat="47.49415" lon="6.73912">
        <ele>347</ele>
        <time>2015-08-20T14:50:26.000Z</time>
      </trkpt>
      <trkpt lat="47.49415" lon="6.73918">
        <ele>347</ele>
        <time>2015-08-20T14:50:27.000Z</time>
      </trkpt>
      <trkpt lat="47.49415" lon="6.73924">
        <ele>348</ele>
        <time>2015-08-20T14:50:28.000Z</time>
      </trkpt>
      <trkpt lat="47.49415" lon="6.7393">
        <ele>349</ele>
        <time>2015-08-20T14:50:29.000Z</time>
      </trkpt>
      <trkpt lat="47.49415" lon="6.73935">
        <ele>350</ele>
        <time>2015-08-20T14:50:30.000Z</time>
      </trkpt>
      <trkpt lat="47.49415" lon="6.73939">
        <ele>350</ele>
        <time>2015-08-20T14:50:31.000Z</time>
      </trkpt>
      <trkpt lat="47.49416" lon="6.73944">
        <ele>351</ele>
        <time>2015-08-20T14:50:32.000Z</time>
      </trkpt>
      <trkpt lat="47.49416" lon="6.73949">
        <ele>351</ele>
        <time>2015-08-20T14:50:33.000Z</time>
      </trkpt>
      <trkpt lat="47.49417" lon="6.73954">
        <ele>347</ele>
        <time>2015-08-20T14:50:34.000Z</time>
      </trkpt>
      <trkpt lat="47.49416" lon="6.73958">
        <ele>352</ele>
        <time>2015-08-20T14:50:35.000Z</time>
      </trkpt>
      <trkpt lat="47.49415" lon="6.73963">
        <ele>352</ele>
        <time>2015-08-20T14:50:36.000Z</time>
      </trkpt>
      <trkpt lat="47.49412" lon="6.73967">
        <ele>352</ele>
        <time>2015-08-20T14:50:37.000Z</time>
      </trkpt>
      <trkpt lat="47.4941" lon="6.73971">
        <ele>352</ele>
        <time>2015-08-20T14:50:38.000Z</time>
      </trkpt>
      <trkpt lat="47.49407" lon="6.73975">
        <ele>352</ele>
        <time>2015-08-20T14:50:39.000Z</time>
      </trkpt>
      <trkpt lat="47.49405" lon="6.73978">
        <ele>352</ele>
        <time>2015-08-20T14:50:40.000Z</time>
      </trkpt>
      <trkpt lat="47.49404" lon="6.73982">
        <ele>352</ele>
        <time>2015-08-20T14:50:41.000Z</time>
      </trkpt>
      <trkpt lat="47.49403" lon="6.73985">
        <ele>352</ele>
        <time>2015-08-20T14:50:42.000Z</time>
      </trkpt>
      <trkpt lat="47.49401" lon="6.73988">
        <ele>352</ele>
        <time>2015-08-20T14:50:43.000Z</time>
      </trkpt>
      <trkpt lat="47.494" lon="6.73993">
        <ele>352</ele>
        <time>2015-08-20T14:50:44.000Z</time>
      </trkpt>
      <trkpt lat="47.49398" lon="6.73998">
        <ele>352</ele>
        <time>2015-08-20T14:50:45.000Z</time>
      </trkpt>
      <trkpt lat="47.49397" lon="6.74002">
        <ele>353</ele>
        <time>2015-08-20T14:50:46.000Z</time>
      </trkpt>
      <trkpt lat="47.49396" lon="6.74006">
        <ele>353</ele>
        <time>2015-08-20T14:50:47.000Z</time>
      </trkpt>
      <trkpt lat="47.49395" lon="6.7401">
        <ele>354</ele>
        <time>2015-08-20T14:50:48.000Z</time>
      </trkpt>
      <trkpt lat="47.49393" lon="6.74014">
        <ele>354</ele>
        <time>2015-08-20T14:50:52.000Z</time>
      </trkpt>
      <trkpt lat="47.49393" lon="6.74016">
        <ele>354</ele>
        <time>2015-08-20T14:50:53.000Z</time>
      </trkpt>
      <trkpt lat="47.49393" lon="6.7402">
        <ele>354</ele>
        <time>2015-08-20T14:50:54.000Z</time>
      </trkpt>
      <trkpt lat="47.49393" lon="6.74024">
        <ele>354</ele>
        <time>2015-08-20T14:50:55.000Z</time>
      </trkpt>
      <trkpt lat="47.49393" lon="6.74028">
        <ele>354</ele>
        <time>2015-08-20T14:50:56.000Z</time>
      </trkpt>
      <trkpt lat="47.49393" lon="6.74033">
        <ele>354</ele>
        <time>2015-08-20T14:50:57.000Z</time>
      </trkpt>
      <trkpt lat="47.49393" lon="6.74038">
        <ele>355</ele>
        <time>2015-08-20T14:50:58.000Z</time>
      </trkpt>
      <trkpt lat="47.49392" lon="6.74043">
        <ele>355</ele>
        <time>2015-08-20T14:50:59.000Z</time>
      </trkpt>
      <trkpt lat="47.4939" lon="6.74048">
        <ele>355</ele>
        <time>2015-08-20T14:51:00.000Z</time>
      </trkpt>
      <trkpt lat="47.49389" lon="6.74053">
        <ele>355</ele>
        <time>2015-08-20T14:51:01.000Z</time>
      </trkpt>
      <trkpt lat="47.49388" lon="6.74058">
        <ele>355</ele>
        <time>2015-08-20T14:51:02.000Z</time>
      </trkpt>
      <trkpt lat="47.49387" lon="6.74062">
        <ele>355</ele>
        <time>2015-08-20T14:51:03.000Z</time>
      </trkpt>
      <trkpt lat="47.49386" lon="6.74067">
        <ele>355</ele>
        <time>2015-08-20T14:51:04.000Z</time>
      </trkpt>
      <trkpt lat="47.49386" lon="6.74071">
        <ele>355</ele>
        <time>2015-08-20T14:51:05.000Z</time>
      </trkpt>
      <trkpt lat="47.49385" lon="6.74075">
        <ele>355</ele>
        <time>2015-08-20T14:51:06.000Z</time>
      </trkpt>
      <trkpt lat="47.49384" lon="6.74079">
        <ele>355</ele>
        <time>2015-08-20T14:51:07.000Z</time>
      </trkpt>
      <trkpt lat="47.49383" lon="6.74082">
        <ele>355</ele>
        <time>2015-08-20T14:51:08.000Z</time>
      </trkpt>
      <trkpt lat="47.49383" lon="6.74086">
        <ele>356</ele>
        <time>2015-08-20T14:51:09.000Z</time>
      </trkpt>
      <trkpt lat="47.49382" lon="6.74089">
        <ele>356</ele>
        <time>2015-08-20T14:51:10.000Z</time>
      </trkpt>
      <trkpt lat="47.49381" lon="6.74093">
        <ele>356</ele>
        <time>2015-08-20T14:51:11.000Z</time>
      </trkpt>
      <trkpt lat="47.49382" lon="6.74098">
        <ele>356</ele>
        <time>2015-08-20T14:51:12.000Z</time>
      </trkpt>
      <trkpt lat="47.49383" lon="6.74103">
        <ele>356</ele>
        <time>2015-08-20T14:51:13.000Z</time>
      </trkpt>
      <trkpt lat="47.49384" lon="6.74109">
        <ele>356</ele>
        <time>2015-08-20T14:51:14.000Z</time>
      </trkpt>
      <trkpt lat="47.49385" lon="6.74113">
        <ele>356</ele>
        <time>2015-08-20T14:51:15.000Z</time>
      </trkpt>
      <trkpt lat="47.49385" lon="6.74118">
        <ele>356</ele>
        <time>2015-08-20T14:51:16.000Z</time>
      </trkpt>
      <trkpt lat="47.49385" lon="6.74122">
        <ele>356</ele>
        <time>2015-08-20T14:51:17.000Z</time>
      </trkpt>
      <trkpt lat="47.49384" lon="6.74126">
        <ele>357</ele>
        <time>2015-08-20T14:51:18.000Z</time>
      </trkpt>
      <trkpt lat="47.49383" lon="6.74129">
        <ele>357</ele>
        <time>2015-08-20T14:51:19.000Z</time>
      </trkpt>
      <trkpt lat="47.49381" lon="6.74133">
        <ele>357</ele>
        <time>2015-08-20T14:51:20.000Z</time>
      </trkpt>
      <trkpt lat="47.4938" lon="6.74136">
        <ele>357</ele>
        <time>2015-08-20T14:51:21.000Z</time>
      </trkpt>
      <trkpt lat="47.49379" lon="6.74139">
        <ele>357</ele>
        <time>2015-08-20T14:51:22.000Z</time>
      </trkpt>
      <trkpt lat="47.49378" lon="6.74142">
        <ele>357</ele>
        <time>2015-08-20T14:51:23.000Z</time>
      </trkpt>
      <trkpt lat="47.49378" lon="6.74148">
        <ele>357</ele>
        <time>2015-08-20T14:51:25.000Z</time>
      </trkpt>
      <trkpt lat="47.49378" lon="6.74152">
        <ele>357</ele>
        <time>2015-08-20T14:51:26.000Z</time>
      </trkpt>
      <trkpt lat="47.49377" lon="6.74158">
        <ele>357</ele>
        <time>2015-08-20T14:51:28.000Z</time>
      </trkpt>
      <trkpt lat="47.49377" lon="6.74161">
        <ele>358</ele>
        <time>2015-08-20T14:51:29.000Z</time>
      </trkpt>
      <trkpt lat="47.49376" lon="6.74164">
        <ele>358</ele>
        <time>2015-08-20T14:51:30.000Z</time>
      </trkpt>
      <trkpt lat="47.49374" lon="6.74167">
        <ele>358</ele>
        <time>2015-08-20T14:51:31.000Z</time>
      </trkpt>
      <trkpt lat="47.49372" lon="6.7417">
        <ele>359</ele>
        <time>2015-08-20T14:51:32.000Z</time>
      </trkpt>
      <trkpt lat="47.49369" lon="6.74172">
        <ele>359</ele>
        <time>2015-08-20T14:51:33.000Z</time>
      </trkpt>
      <trkpt lat="47.49367" lon="6.74174">
        <ele>360</ele>
        <time>2015-08-20T14:51:34.000Z</time>
      </trkpt>
      <trkpt lat="47.49365" lon="6.74176">
        <ele>360</ele>
        <time>2015-08-20T14:51:35.000Z</time>
      </trkpt>
      <trkpt lat="47.49363" lon="6.7418">
        <ele>361</ele>
        <time>2015-08-20T14:51:37.000Z</time>
      </trkpt>
      <trkpt lat="47.49363" lon="6.74183">
        <ele>360</ele>
        <time>2015-08-20T14:51:38.000Z</time>
      </trkpt>
      <trkpt lat="47.49364" lon="6.74187">
        <ele>360</ele>
        <time>2015-08-20T14:51:40.000Z</time>
      </trkpt>
      <trkpt lat="47.49363" lon="6.7419">
        <ele>360</ele>
        <time>2015-08-20T14:51:41.000Z</time>
      </trkpt>
      <trkpt lat="47.49361" lon="6.74195">
        <ele>360</ele>
        <time>2015-08-20T14:51:43.000Z</time>
      </trkpt>
      <trkpt lat="47.49359" lon="6.74197">
        <ele>361</ele>
        <time>2015-08-20T14:51:44.000Z</time>
      </trkpt>
      <trkpt lat="47.49356" lon="6.74199">
        <ele>361</ele>
        <time>2015-08-20T14:51:45.000Z</time>
      </trkpt>
      <trkpt lat="47.49353" lon="6.742">
        <ele>361</ele>
        <time>2015-08-20T14:51:46.000Z</time>
      </trkpt>
      <trkpt lat="47.4935" lon="6.74205">
        <ele>361</ele>
        <time>2015-08-20T14:51:49.000Z</time>
      </trkpt>
      <trkpt lat="47.49351" lon="6.74207">
        <ele>361</ele>
        <time>2015-08-20T14:51:50.000Z</time>
      </trkpt>
      <trkpt lat="47.49352" lon="6.74212">
        <ele>361</ele>
        <time>2015-08-20T14:51:52.000Z</time>
      </trkpt>
      <trkpt lat="47.49353" lon="6.74218">
        <ele>361</ele>
        <time>2015-08-20T14:51:53.000Z</time>
      </trkpt>
      <trkpt lat="47.49354" lon="6.74222">
        <ele>361</ele>
        <time>2015-08-20T14:51:54.000Z</time>
      </trkpt>
      <trkpt lat="47.49354" lon="6.74225">
        <ele>361</ele>
        <time>2015-08-20T14:51:55.000Z</time>
      </trkpt>
      <trkpt lat="47.49355" lon="6.7423">
        <ele>361</ele>
        <time>2015-08-20T14:51:56.002Z</time>
      </trkpt>
      <trkpt lat="47.49355" lon="6.74234">
        <ele>362</ele>
        <time>2015-08-20T14:51:57.000Z</time>
      </trkpt>
      <trkpt lat="47.49354" lon="6.74239">
        <ele>362</ele>
        <time>2015-08-20T14:51:59.001Z</time>
      </trkpt>
      <trkpt lat="47.49352" lon="6.74243">
        <ele>363</ele>
        <time>2015-08-20T14:52:00.000Z</time>
      </trkpt>
      <trkpt lat="47.49351" lon="6.74247">
        <ele>363</ele>
        <time>2015-08-20T14:52:01.000Z</time>
      </trkpt>
      <trkpt lat="47.49349" lon="6.74255">
        <ele>363</ele>
        <time>2015-08-20T14:52:02.000Z</time>
      </trkpt>
      <trkpt lat="47.49348" lon="6.74264">
        <ele>362</ele>
        <time>2015-08-20T14:52:03.000Z</time>
      </trkpt>
      <trkpt lat="47.49347" lon="6.74272">
        <ele>362</ele>
        <time>2015-08-20T14:52:04.000Z</time>
      </trkpt>
      <trkpt lat="47.49347" lon="6.7428">
        <ele>361</ele>
        <time>2015-08-20T14:52:05.000Z</time>
      </trkpt>
      <trkpt lat="47.49346" lon="6.74288">
        <ele>360</ele>
        <time>2015-08-20T14:52:06.000Z</time>
      </trkpt>
      <trkpt lat="47.49346" lon="6.74295">
        <ele>360</ele>
        <time>2015-08-20T14:52:07.000Z</time>
      </trkpt>
      <trkpt lat="47.49346" lon="6.74301">
        <ele>360</ele>
        <time>2015-08-20T14:52:08.000Z</time>
      </trkpt>
      <trkpt lat="47.49345" lon="6.74306">
        <ele>361</ele>
        <time>2015-08-20T14:52:09.000Z</time>
      </trkpt>
      <trkpt lat="47.49345" lon="6.74312">
        <ele>361</ele>
        <time>2015-08-20T14:52:10.001Z</time>
      </trkpt>
      <trkpt lat="47.49345" lon="6.74317">
        <ele>361</ele>
        <time>2015-08-20T14:52:11.000Z</time>
      </trkpt>
      <trkpt lat="47.49345" lon="6.74321">
        <ele>362</ele>
        <time>2015-08-20T14:52:12.000Z</time>
      </trkpt>
      <trkpt lat="47.49345" lon="6.74328">
        <ele>363</ele>
        <time>2015-08-20T14:52:13.000Z</time>
      </trkpt>
      <trkpt lat="47.49344" lon="6.74332">
        <ele>363</ele>
        <time>2015-08-20T14:52:14.000Z</time>
      </trkpt>
      <trkpt lat="47.49344" lon="6.74336">
        <ele>363</ele>
        <time>2015-08-20T14:52:15.001Z</time>
      </trkpt>
      <trkpt lat="47.49343" lon="6.7434">
        <ele>363</ele>
        <time>2015-08-20T14:52:16.000Z</time>
      </trkpt>
      <trkpt lat="47.49342" lon="6.74344">
        <ele>362</ele>
        <time>2015-08-20T14:52:17.000Z</time>
      </trkpt>
      <trkpt lat="47.49341" lon="6.74348">
        <ele>362</ele>
        <time>2015-08-20T14:52:18.000Z</time>
      </trkpt>
      <trkpt lat="47.49341" lon="6.74353">
        <ele>361</ele>
        <time>2015-08-20T14:52:19.000Z</time>
      </trkpt>
      <trkpt lat="47.49342" lon="6.74359">
        <ele>360</ele>
        <time>2015-08-20T14:52:20.000Z</time>
      </trkpt>
      <trkpt lat="47.49342" lon="6.74364">
        <ele>359</ele>
        <time>2015-08-20T14:52:21.000Z</time>
      </trkpt>
      <trkpt lat="47.49342" lon="6.74371">
        <ele>359</ele>
        <time>2015-08-20T14:52:22.000Z</time>
      </trkpt>
      <trkpt lat="47.49342" lon="6.74378">
        <ele>359</ele>
        <time>2015-08-20T14:52:23.000Z</time>
      </trkpt>
      <trkpt lat="47.49342" lon="6.74385">
        <ele>359</ele>
        <time>2015-08-20T14:52:24.000Z</time>
      </trkpt>
      <trkpt lat="47.49342" lon="6.74392">
        <ele>359</ele>
        <time>2015-08-20T14:52:25.000Z</time>
      </trkpt>
      <trkpt lat="47.49342" lon="6.74398">
        <ele>360</ele>
        <time>2015-08-20T14:52:26.000Z</time>
      </trkpt>
      <trkpt lat="47.49341" lon="6.74404">
        <ele>360</ele>
        <time>2015-08-20T14:52:27.000Z</time>
      </trkpt>
      <trkpt lat="47.49341" lon="6.74409">
        <ele>361</ele>
        <time>2015-08-20T14:52:28.000Z</time>
      </trkpt>
      <trkpt lat="47.49341" lon="6.74415">
        <ele>362</ele>
        <time>2015-08-20T14:52:29.000Z</time>
      </trkpt>
      <trkpt lat="47.49341" lon="6.7442">
        <ele>361</ele>
        <time>2015-08-20T14:52:30.000Z</time>
      </trkpt>
      <trkpt lat="47.49341" lon="6.74425">
        <ele>361</ele>
        <time>2015-08-20T14:52:31.000Z</time>
      </trkpt>
      <trkpt lat="47.4934" lon="6.7443">
        <ele>360</ele>
        <time>2015-08-20T14:52:32.000Z</time>
      </trkpt>
      <trkpt lat="47.4934" lon="6.74435">
        <ele>359</ele>
        <time>2015-08-20T14:52:33.000Z</time>
      </trkpt>
      <trkpt lat="47.4934" lon="6.74439">
        <ele>359</ele>
        <time>2015-08-20T14:52:34.000Z</time>
      </trkpt>
      <trkpt lat="47.49339" lon="6.74444">
        <ele>358</ele>
        <time>2015-08-20T14:52:35.000Z</time>
      </trkpt>
      <trkpt lat="47.49338" lon="6.74447">
        <ele>358</ele>
        <time>2015-08-20T14:52:36.000Z</time>
      </trkpt>
      <trkpt lat="47.49337" lon="6.74451">
        <ele>358</ele>
        <time>2015-08-20T14:52:37.000Z</time>
      </trkpt>
      <trkpt lat="47.49336" lon="6.74454">
        <ele>358</ele>
        <time>2015-08-20T14:52:38.000Z</time>
      </trkpt>
      <trkpt lat="47.49335" lon="6.74458">
        <ele>358</ele>
        <time>2015-08-20T14:52:39.000Z</time>
      </trkpt>
      <trkpt lat="47.49334" lon="6.74462">
        <ele>358</ele>
        <time>2015-08-20T14:52:40.000Z</time>
      </trkpt>
      <trkpt lat="47.49334" lon="6.74467">
        <ele>358</ele>
        <time>2015-08-20T14:52:41.000Z</time>
      </trkpt>
      <trkpt lat="47.49334" lon="6.74471">
        <ele>358</ele>
        <time>2015-08-20T14:52:42.000Z</time>
      </trkpt>
      <trkpt lat="47.49334" lon="6.74476">
        <ele>358</ele>
        <time>2015-08-20T14:52:43.000Z</time>
      </trkpt>
      <trkpt lat="47.49333" lon="6.74482">
        <ele>368</ele>
        <time>2015-08-20T14:52:44.000Z</time>
      </trkpt>
      <trkpt lat="47.49333" lon="6.74488">
        <ele>366</ele>
        <time>2015-08-20T14:52:45.000Z</time>
      </trkpt>
      <trkpt lat="47.49333" lon="6.74494">
        <ele>365</ele>
        <time>2015-08-20T14:52:46.000Z</time>
      </trkpt>
      <trkpt lat="47.49333" lon="6.74501">
        <ele>363</ele>
        <time>2015-08-20T14:52:47.000Z</time>
      </trkpt>
      <trkpt lat="47.49332" lon="6.74508">
        <ele>365</ele>
        <time>2015-08-20T14:52:48.000Z</time>
      </trkpt>
      <trkpt lat="47.49332" lon="6.74515">
        <ele>366</ele>
        <time>2015-08-20T14:52:49.000Z</time>
      </trkpt>
      <trkpt lat="47.49331" lon="6.74521">
        <ele>367</ele>
        <time>2015-08-20T14:52:50.000Z</time>
      </trkpt>
      <trkpt lat="47.4933" lon="6.74528">
        <ele>368</ele>
        <time>2015-08-20T14:52:51.000Z</time>
      </trkpt>
      <trkpt lat="47.4933" lon="6.74535">
        <ele>368</ele>
        <time>2015-08-20T14:52:52.000Z</time>
      </trkpt>
      <trkpt lat="47.49329" lon="6.7454">
        <ele>369</ele>
        <time>2015-08-20T14:52:53.000Z</time>
      </trkpt>
      <trkpt lat="47.49328" lon="6.74545">
        <ele>368</ele>
        <time>2015-08-20T14:52:54.000Z</time>
      </trkpt>
      <trkpt lat="47.49327" lon="6.7455">
        <ele>368</ele>
        <time>2015-08-20T14:52:55.000Z</time>
      </trkpt>
      <trkpt lat="47.49326" lon="6.74555">
        <ele>368</ele>
        <time>2015-08-20T14:52:56.000Z</time>
      </trkpt>
      <trkpt lat="47.49325" lon="6.74559">
        <ele>368</ele>
        <time>2015-08-20T14:52:57.000Z</time>
      </trkpt>
      <trkpt lat="47.49324" lon="6.74563">
        <ele>367</ele>
        <time>2015-08-20T14:52:58.000Z</time>
      </trkpt>
      <trkpt lat="47.49324" lon="6.74567">
        <ele>367</ele>
        <time>2015-08-20T14:52:59.000Z</time>
      </trkpt>
      <trkpt lat="47.49323" lon="6.74571">
        <ele>366</ele>
        <time>2015-08-20T14:53:00.001Z</time>
      </trkpt>
      <trkpt lat="47.49324" lon="6.74576">
        <ele>365</ele>
        <time>2015-08-20T14:53:01.000Z</time>
      </trkpt>
      <trkpt lat="47.49325" lon="6.74582">
        <ele>364</ele>
        <time>2015-08-20T14:53:02.000Z</time>
      </trkpt>
      <trkpt lat="47.49326" lon="6.74589">
        <ele>364</ele>
        <time>2015-08-20T14:53:03.000Z</time>
      </trkpt>
      <trkpt lat="47.49327" lon="6.74596">
        <ele>365</ele>
        <time>2015-08-20T14:53:04.000Z</time>
      </trkpt>
      <trkpt lat="47.49327" lon="6.74604">
        <ele>366</ele>
        <time>2015-08-20T14:53:05.000Z</time>
      </trkpt>
      <trkpt lat="47.49327" lon="6.74611">
        <ele>367</ele>
        <time>2015-08-20T14:53:06.000Z</time>
      </trkpt>
      <trkpt lat="47.49328" lon="6.7463">
        <ele>367</ele>
        <time>2015-08-20T14:53:07.000Z</time>
      </trkpt>
      <trkpt lat="47.49326" lon="6.74638">
        <ele>367</ele>
        <time>2015-08-20T14:53:08.000Z</time>
      </trkpt>
      <trkpt lat="47.49326" lon="6.74646">
        <ele>366</ele>
        <time>2015-08-20T14:53:09.000Z</time>
      </trkpt>
      <trkpt lat="47.49326" lon="6.74654">
        <ele>365</ele>
        <time>2015-08-20T14:53:10.000Z</time>
      </trkpt>
      <trkpt lat="47.49326" lon="6.74664">
        <ele>363</ele>
        <time>2015-08-20T14:53:11.000Z</time>
      </trkpt>
      <trkpt lat="47.49325" lon="6.74674">
        <ele>363</ele>
        <time>2015-08-20T14:53:12.000Z</time>
      </trkpt>
      <trkpt lat="47.49325" lon="6.74685">
        <ele>364</ele>
        <time>2015-08-20T14:53:13.000Z</time>
      </trkpt>
      <trkpt lat="47.49327" lon="6.74698">
        <ele>365</ele>
        <time>2015-08-20T14:53:14.000Z</time>
      </trkpt>
      <trkpt lat="47.4933" lon="6.74713">
        <ele>364</ele>
        <time>2015-08-20T14:53:15.000Z</time>
      </trkpt>
      <trkpt lat="47.4933" lon="6.74721">
        <ele>363</ele>
        <time>2015-08-20T14:53:16.000Z</time>
      </trkpt>
      <trkpt lat="47.49329" lon="6.74725">
        <ele>363</ele>
        <time>2015-08-20T14:53:17.000Z</time>
      </trkpt>
      <trkpt lat="47.49328" lon="6.74733">
        <ele>361</ele>
        <time>2015-08-20T14:53:18.000Z</time>
      </trkpt>
      <trkpt lat="47.49327" lon="6.74742">
        <ele>359</ele>
        <time>2015-08-20T14:53:19.000Z</time>
      </trkpt>
      <trkpt lat="47.49328" lon="6.7475">
        <ele>357</ele>
        <time>2015-08-20T14:53:20.000Z</time>
      </trkpt>
      <trkpt lat="47.49329" lon="6.74763">
        <ele>358</ele>
        <time>2015-08-20T14:53:21.000Z</time>
      </trkpt>
      <trkpt lat="47.49328" lon="6.74773">
        <ele>359</ele>
        <time>2015-08-20T14:53:22.000Z</time>
      </trkpt>
      <trkpt lat="47.49327" lon="6.74785">
        <ele>360</ele>
        <time>2015-08-20T14:53:23.000Z</time>
      </trkpt>
      <trkpt lat="47.49325" lon="6.74796">
        <ele>359</ele>
        <time>2015-08-20T14:53:24.000Z</time>
      </trkpt>
      <trkpt lat="47.49323" lon="6.74806">
        <ele>358</ele>
        <time>2015-08-20T14:53:25.000Z</time>
      </trkpt>
      <trkpt lat="47.49324" lon="6.74816">
        <ele>357</ele>
        <time>2015-08-20T14:53:26.000Z</time>
      </trkpt>
      <trkpt lat="47.49323" lon="6.74825">
        <ele>355</ele>
        <time>2015-08-20T14:53:27.000Z</time>
      </trkpt>
      <trkpt lat="47.49323" lon="6.74832">
        <ele>354</ele>
        <time>2015-08-20T14:53:28.000Z</time>
      </trkpt>
      <trkpt lat="47.49327" lon="6.74843">
        <ele>353</ele>
        <time>2015-08-20T14:53:29.000Z</time>
      </trkpt>
      <trkpt lat="47.49326" lon="6.74858">
        <ele>355</ele>
        <time>2015-08-20T14:53:30.000Z</time>
      </trkpt>
      <trkpt lat="47.49324" lon="6.74874">
        <ele>356</ele>
        <time>2015-08-20T14:53:31.000Z</time>
      </trkpt>
      <trkpt lat="47.49326" lon="6.74888">
        <ele>355</ele>
        <time>2015-08-20T14:53:32.000Z</time>
      </trkpt>
      <trkpt lat="47.49329" lon="6.74904">
        <ele>353</ele>
        <time>2015-08-20T14:53:33.000Z</time>
      </trkpt>
      <trkpt lat="47.4933" lon="6.74914">
        <ele>350</ele>
        <time>2015-08-20T14:53:34.000Z</time>
      </trkpt>
      <trkpt lat="47.4933" lon="6.74923">
        <ele>350</ele>
        <time>2015-08-20T14:53:35.000Z</time>
      </trkpt>
      <trkpt lat="47.49331" lon="6.74931">
        <ele>351</ele>
        <time>2015-08-20T14:53:36.000Z</time>
      </trkpt>
      <trkpt lat="47.49332" lon="6.74944">
        <ele>352</ele>
        <time>2015-08-20T14:53:37.000Z</time>
      </trkpt>
      <trkpt lat="47.49331" lon="6.74958">
        <ele>352</ele>
        <time>2015-08-20T14:53:38.000Z</time>
      </trkpt>
      <trkpt lat="47.49331" lon="6.74971">
        <ele>351</ele>
        <time>2015-08-20T14:53:39.000Z</time>
      </trkpt>
      <trkpt lat="47.49331" lon="6.74986">
        <ele>348</ele>
        <time>2015-08-20T14:53:40.000Z</time>
      </trkpt>
      <trkpt lat="47.4933" lon="6.75002">
        <ele>344</ele>
        <time>2015-08-20T14:53:41.000Z</time>
      </trkpt>
      <trkpt lat="47.49328" lon="6.75014">
        <ele>346</ele>
        <time>2015-08-20T14:53:42.000Z</time>
      </trkpt>
      <trkpt lat="47.49326" lon="6.75025">
        <ele>347</ele>
        <time>2015-08-20T14:53:43.000Z</time>
      </trkpt>
      <trkpt lat="47.49315" lon="6.7503">
        <ele>348</ele>
        <time>2015-08-20T14:53:44.000Z</time>
      </trkpt>
      <trkpt lat="47.49312" lon="6.7504">
        <ele>348</ele>
        <time>2015-08-20T14:53:45.000Z</time>
      </trkpt>
      <trkpt lat="47.49309" lon="6.75046">
        <ele>349</ele>
        <time>2015-08-20T14:53:46.000Z</time>
      </trkpt>
      <trkpt lat="47.49303" lon="6.75053">
        <ele>349</ele>
        <time>2015-08-20T14:53:47.000Z</time>
      </trkpt>
      <trkpt lat="47.49297" lon="6.7506">
        <ele>349</ele>
        <time>2015-08-20T14:53:48.000Z</time>
      </trkpt>
      <trkpt lat="47.49294" lon="6.75067">
        <ele>350</ele>
        <time>2015-08-20T14:53:49.000Z</time>
      </trkpt>
      <trkpt lat="47.49289" lon="6.75072">
        <ele>351</ele>
        <time>2015-08-20T14:53:50.000Z</time>
      </trkpt>
      <trkpt lat="47.4929" lon="6.75077">
        <ele>350</ele>
        <time>2015-08-20T14:53:51.000Z</time>
      </trkpt>
      <trkpt lat="47.49291" lon="6.75084">
        <ele>348</ele>
        <time>2015-08-20T14:53:52.000Z</time>
      </trkpt>
      <trkpt lat="47.4929" lon="6.75088">
        <ele>348</ele>
        <time>2015-08-20T14:53:53.000Z</time>
      </trkpt>
      <trkpt lat="47.4929" lon="6.75096">
        <ele>348</ele>
        <time>2015-08-20T14:53:54.000Z</time>
      </trkpt>
      <trkpt lat="47.49289" lon="6.75103">
        <ele>348</ele>
        <time>2015-08-20T14:53:55.000Z</time>
      </trkpt>
      <trkpt lat="47.49289" lon="6.75108">
        <ele>348</ele>
        <time>2015-08-20T14:53:56.000Z</time>
      </trkpt>
      <trkpt lat="47.49288" lon="6.75113">
        <ele>348</ele>
        <time>2015-08-20T14:53:57.000Z</time>
      </trkpt>
      <trkpt lat="47.49286" lon="6.75116">
        <ele>348</ele>
        <time>2015-08-20T14:53:58.000Z</time>
      </trkpt>
      <trkpt lat="47.49285" lon="6.75121">
        <ele>348</ele>
        <time>2015-08-20T14:53:59.000Z</time>
      </trkpt>
      <trkpt lat="47.49286" lon="6.75127">
        <ele>348</ele>
        <time>2015-08-20T14:54:01.000Z</time>
      </trkpt>
      <trkpt lat="47.49287" lon="6.75131">
        <ele>347</ele>
        <time>2015-08-20T14:54:02.000Z</time>
      </trkpt>
      <trkpt lat="47.49288" lon="6.75136">
        <ele>347</ele>
        <time>2015-08-20T14:54:03.000Z</time>
      </trkpt>
      <trkpt lat="47.4929" lon="6.75142">
        <ele>347</ele>
        <time>2015-08-20T14:54:04.000Z</time>
      </trkpt>
      <trkpt lat="47.49291" lon="6.75147">
        <ele>347</ele>
        <time>2015-08-20T14:54:05.000Z</time>
      </trkpt>
      <trkpt lat="47.49292" lon="6.75153">
        <ele>346</ele>
        <time>2015-08-20T14:54:06.000Z</time>
      </trkpt>
      <trkpt lat="47.49293" lon="6.75159">
        <ele>346</ele>
        <time>2015-08-20T14:54:07.000Z</time>
      </trkpt>
      <trkpt lat="47.49293" lon="6.75165">
        <ele>346</ele>
        <time>2015-08-20T14:54:08.000Z</time>
      </trkpt>
      <trkpt lat="47.49291" lon="6.7518">
        <ele>344</ele>
        <time>2015-08-20T14:54:09.000Z</time>
      </trkpt>
      <trkpt lat="47.49289" lon="6.75187">
        <ele>344</ele>
        <time>2015-08-20T14:54:10.000Z</time>
      </trkpt>
      <trkpt lat="47.49288" lon="6.75195">
        <ele>344</ele>
        <time>2015-08-20T14:54:11.000Z</time>
      </trkpt>
      <trkpt lat="47.49288" lon="6.75206">
        <ele>343</ele>
        <time>2015-08-20T14:54:12.000Z</time>
      </trkpt>
      <trkpt lat="47.49288" lon="6.75216">
        <ele>343</ele>
        <time>2015-08-20T14:54:13.000Z</time>
      </trkpt>
      <trkpt lat="47.49289" lon="6.7523">
        <ele>343</ele>
        <time>2015-08-20T14:54:14.000Z</time>
      </trkpt>
      <trkpt lat="47.49287" lon="6.75238">
        <ele>343</ele>
        <time>2015-08-20T14:54:15.000Z</time>
      </trkpt>
      <trkpt lat="47.49287" lon="6.75248">
        <ele>343</ele>
        <time>2015-08-20T14:54:16.000Z</time>
      </trkpt>
      <trkpt lat="47.49288" lon="6.75259">
        <ele>341</ele>
        <time>2015-08-20T14:54:17.000Z</time>
      </trkpt>
      <trkpt lat="47.49288" lon="6.75269">
        <ele>340</ele>
        <time>2015-08-20T14:54:18.000Z</time>
      </trkpt>
      <trkpt lat="47.49287" lon="6.75279">
        <ele>340</ele>
        <time>2015-08-20T14:54:19.000Z</time>
      </trkpt>
      <trkpt lat="47.49288" lon="6.75293">
        <ele>340</ele>
        <time>2015-08-20T14:54:20.000Z</time>
      </trkpt>
      <trkpt lat="47.49287" lon="6.75301">
        <ele>340</ele>
        <time>2015-08-20T14:54:21.000Z</time>
      </trkpt>
      <trkpt lat="47.49284" lon="6.75309">
        <ele>341</ele>
        <time>2015-08-20T14:54:22.000Z</time>
      </trkpt>
      <trkpt lat="47.49283" lon="6.7532">
        <ele>341</ele>
        <time>2015-08-20T14:54:23.000Z</time>
      </trkpt>
      <trkpt lat="47.49281" lon="6.75327">
        <ele>341</ele>
        <time>2015-08-20T14:54:24.000Z</time>
      </trkpt>
      <trkpt lat="47.49279" lon="6.75334">
        <ele>341</ele>
        <time>2015-08-20T14:54:25.000Z</time>
      </trkpt>
      <trkpt lat="47.49276" lon="6.75339">
        <ele>341</ele>
        <time>2015-08-20T14:54:26.000Z</time>
      </trkpt>
      <trkpt lat="47.49273" lon="6.75346">
        <ele>341</ele>
        <time>2015-08-20T14:54:27.000Z</time>
      </trkpt>
      <trkpt lat="47.49269" lon="6.75353">
        <ele>341</ele>
        <time>2015-08-20T14:54:28.000Z</time>
      </trkpt>
      <trkpt lat="47.49263" lon="6.7536">
        <ele>341</ele>
        <time>2015-08-20T14:54:29.000Z</time>
      </trkpt>
      <trkpt lat="47.49263" lon="6.75371">
        <ele>341</ele>
        <time>2015-08-20T14:54:30.000Z</time>
      </trkpt>
      <trkpt lat="47.49262" lon="6.7538">
        <ele>341</ele>
        <time>2015-08-20T14:54:31.000Z</time>
      </trkpt>
      <trkpt lat="47.49258" lon="6.75388">
        <ele>341</ele>
        <time>2015-08-20T14:54:32.000Z</time>
      </trkpt>
      <trkpt lat="47.49255" lon="6.75397">
        <ele>341</ele>
        <time>2015-08-20T14:54:33.000Z</time>
      </trkpt>
      <trkpt lat="47.49259" lon="6.75409">
        <ele>342</ele>
        <time>2015-08-20T14:54:34.000Z</time>
      </trkpt>
      <trkpt lat="47.49261" lon="6.75421">
        <ele>341</ele>
        <time>2015-08-20T14:54:35.000Z</time>
      </trkpt>
      <trkpt lat="47.4926" lon="6.75427">
        <ele>340</ele>
        <time>2015-08-20T14:54:36.000Z</time>
      </trkpt>
      <trkpt lat="47.4926" lon="6.7543">
        <ele>340</ele>
        <time>2015-08-20T14:54:37.000Z</time>
      </trkpt>
      <trkpt lat="47.49262" lon="6.75438">
        <ele>338</ele>
        <time>2015-08-20T14:54:38.000Z</time>
      </trkpt>
      <trkpt lat="47.49261" lon="6.7544">
        <ele>338</ele>
        <time>2015-08-20T14:54:39.000Z</time>
      </trkpt>
      <trkpt lat="47.4926" lon="6.75444">
        <ele>338</ele>
        <time>2015-08-20T14:54:40.000Z</time>
      </trkpt>
      <trkpt lat="47.49259" lon="6.75447">
        <ele>338</ele>
        <time>2015-08-20T14:54:41.000Z</time>
      </trkpt>
      <trkpt lat="47.49257" lon="6.7545">
        <ele>338</ele>
        <time>2015-08-20T14:54:42.000Z</time>
      </trkpt>
      <trkpt lat="47.49257" lon="6.75453">
        <ele>337</ele>
        <time>2015-08-20T14:54:43.000Z</time>
      </trkpt>
      <trkpt lat="47.49257" lon="6.75457">
        <ele>337</ele>
        <time>2015-08-20T14:54:44.000Z</time>
      </trkpt>
      <trkpt lat="47.49256" lon="6.75463">
        <ele>337</ele>
        <time>2015-08-20T14:54:46.000Z</time>
      </trkpt>
      <trkpt lat="47.49256" lon="6.75466">
        <ele>337</ele>
        <time>2015-08-20T14:54:47.000Z</time>
      </trkpt>
      <trkpt lat="47.49256" lon="6.75471">
        <ele>337</ele>
        <time>2015-08-20T14:54:49.000Z</time>
      </trkpt>
      <trkpt lat="47.49256" lon="6.75473">
        <ele>337</ele>
        <time>2015-08-20T14:54:50.000Z</time>
      </trkpt>
      <trkpt lat="47.49256" lon="6.75479">
        <ele>337</ele>
        <time>2015-08-20T14:54:53.000Z</time>
      </trkpt>
      <trkpt lat="47.49255" lon="6.75481">
        <ele>337</ele>
        <time>2015-08-20T14:54:54.000Z</time>
      </trkpt>
      <trkpt lat="47.49256" lon="6.75485">
        <ele>337</ele>
        <time>2015-08-20T14:54:57.000Z</time>
      </trkpt>
      <trkpt lat="47.49257" lon="6.75488">
        <ele>337</ele>
        <time>2015-08-20T14:54:58.000Z</time>
      </trkpt>
      <trkpt lat="47.49256" lon="6.75495">
        <ele>338</ele>
        <time>2015-08-20T14:55:30.000Z</time>
      </trkpt>
      <trkpt lat="47.49256" lon="6.75495">
        <ele>338</ele>
        <time>2015-08-20T14:55:31.000Z</time>
      </trkpt>
      <trkpt lat="47.49259" lon="6.75499">
        <ele>338</ele>
        <time>2015-08-20T14:59:19.000Z</time>
      </trkpt>
      <trkpt lat="47.49259" lon="6.75499">
        <ele>338</ele>
        <time>2015-08-20T14:59:20.000Z</time>
      </trkpt>
      <trkpt lat="47.49262" lon="6.75495">
        <ele>337</ele>
        <time>2015-08-20T15:00:03.000Z</time>
      </trkpt>
      <trkpt lat="47.49262" lon="6.75495">
        <ele>337</ele>
        <time>2015-08-20T15:00:04.000Z</time>
      </trkpt>
      <trkpt lat="47.49266" lon="6.75497">
        <ele>337</ele>
        <time>2015-08-20T15:01:07.000Z</time>
      </trkpt>
      <trkpt lat="47.49266" lon="6.75497">
        <ele>337</ele>
        <time>2015-08-20T15:01:08.000Z</time>
      </trkpt>
      <trkpt lat="47.49269" lon="6.75501">
        <ele>334</ele>
        <time>2015-08-20T15:05:02.000Z</time>
      </trkpt>
      <trkpt lat="47.4927" lon="6.75502">
        <ele>333</ele>
        <time>2015-08-20T15:05:03.000Z</time>
      </trkpt>
      <trkpt lat="47.49272" lon="6.75507">
        <ele>333</ele>
        <time>2015-08-20T15:05:54.000Z</time>
      </trkpt>
      <trkpt lat="47.49275" lon="6.75508">
        <ele>332</ele>
        <time>2015-08-20T15:05:55.000Z</time>
      </trkpt>
      <trkpt lat="47.49278" lon="6.75508">
        <ele>332</ele>
        <time>2015-08-20T15:05:56.000Z</time>
      </trkpt>
      <trkpt lat="47.49281" lon="6.75507">
        <ele>331</ele>
        <time>2015-08-20T15:05:57.000Z</time>
      </trkpt>
      <trkpt lat="47.49285" lon="6.75506">
        <ele>331</ele>
        <time>2015-08-20T15:05:58.000Z</time>
      </trkpt>
      <trkpt lat="47.49289" lon="6.75504">
        <ele>330</ele>
        <time>2015-08-20T15:05:59.000Z</time>
      </trkpt>
      <trkpt lat="47.49294" lon="6.75503">
        <ele>330</ele>
        <time>2015-08-20T15:06:00.000Z</time>
      </trkpt>
      <trkpt lat="47.49298" lon="6.75502">
        <ele>329</ele>
        <time>2015-08-20T15:06:01.000Z</time>
      </trkpt>
      <trkpt lat="47.49302" lon="6.75501">
        <ele>329</ele>
        <time>2015-08-20T15:06:02.000Z</time>
      </trkpt>
      <trkpt lat="47.49306" lon="6.75501">
        <ele>328</ele>
        <time>2015-08-20T15:06:03.000Z</time>
      </trkpt>
      <trkpt lat="47.49309" lon="6.75502">
        <ele>328</ele>
        <time>2015-08-20T15:06:04.000Z</time>
      </trkpt>
      <trkpt lat="47.49311" lon="6.75502">
        <ele>328</ele>
        <time>2015-08-20T15:06:05.000Z</time>
      </trkpt>
      <trkpt lat="47.49314" lon="6.75503">
        <ele>328</ele>
        <time>2015-08-20T15:06:06.000Z</time>
      </trkpt>
      <trkpt lat="47.49317" lon="6.75505">
        <ele>327</ele>
        <time>2015-08-20T15:06:07.000Z</time>
      </trkpt>
      <trkpt lat="47.49319" lon="6.75508">
        <ele>327</ele>
        <time>2015-08-20T15:06:08.000Z</time>
      </trkpt>
      <trkpt lat="47.4932" lon="6.75512">
        <ele>327</ele>
        <time>2015-08-20T15:06:09.000Z</time>
      </trkpt>
      <trkpt lat="47.49321" lon="6.75517">
        <ele>327</ele>
        <time>2015-08-20T15:06:10.000Z</time>
      </trkpt>
      <trkpt lat="47.49321" lon="6.75523">
        <ele>327</ele>
        <time>2015-08-20T15:06:11.000Z</time>
      </trkpt>
      <trkpt lat="47.49322" lon="6.7553">
        <ele>327</ele>
        <time>2015-08-20T15:06:12.000Z</time>
      </trkpt>
      <trkpt lat="47.49322" lon="6.75537">
        <ele>327</ele>
        <time>2015-08-20T15:06:13.000Z</time>
      </trkpt>
      <trkpt lat="47.49322" lon="6.75545">
        <ele>327</ele>
        <time>2015-08-20T15:06:14.000Z</time>
      </trkpt>
      <trkpt lat="47.49323" lon="6.75552">
        <ele>326</ele>
        <time>2015-08-20T15:06:15.000Z</time>
      </trkpt>
      <trkpt lat="47.49324" lon="6.75559">
        <ele>325</ele>
        <time>2015-08-20T15:06:16.000Z</time>
      </trkpt>
      <trkpt lat="47.49325" lon="6.75565">
        <ele>324</ele>
        <time>2015-08-20T15:06:17.000Z</time>
      </trkpt>
      <trkpt lat="47.49326" lon="6.75572">
        <ele>323</ele>
        <time>2015-08-20T15:06:18.000Z</time>
      </trkpt>
      <trkpt lat="47.49327" lon="6.75578">
        <ele>322</ele>
        <time>2015-08-20T15:06:19.000Z</time>
      </trkpt>
      <trkpt lat="47.49328" lon="6.75584">
        <ele>320</ele>
        <time>2015-08-20T15:06:20.000Z</time>
      </trkpt>
      <trkpt lat="47.49329" lon="6.7559">
        <ele>320</ele>
        <time>2015-08-20T15:06:21.000Z</time>
      </trkpt>
      <trkpt lat="47.49331" lon="6.75596">
        <ele>321</ele>
        <time>2015-08-20T15:06:22.000Z</time>
      </trkpt>
      <trkpt lat="47.49332" lon="6.75603">
        <ele>321</ele>
        <time>2015-08-20T15:06:23.000Z</time>
      </trkpt>
      <trkpt lat="47.49333" lon="6.75609">
        <ele>321</ele>
        <time>2015-08-20T15:06:24.000Z</time>
      </trkpt>
      <trkpt lat="47.49334" lon="6.75615">
        <ele>319</ele>
        <time>2015-08-20T15:06:25.000Z</time>
      </trkpt>
      <trkpt lat="47.49336" lon="6.75621">
        <ele>319</ele>
        <time>2015-08-20T15:06:26.000Z</time>
      </trkpt>
      <trkpt lat="47.49337" lon="6.75626">
        <ele>319</ele>
        <time>2015-08-20T15:06:27.000Z</time>
      </trkpt>
      <trkpt lat="47.49339" lon="6.75632">
        <ele>319</ele>
        <time>2015-08-20T15:06:28.000Z</time>
      </trkpt>
      <trkpt lat="47.4934" lon="6.75637">
        <ele>319</ele>
        <time>2015-08-20T15:06:29.000Z</time>
      </trkpt>
      <trkpt lat="47.49342" lon="6.75642">
        <ele>319</ele>
        <time>2015-08-20T15:06:30.000Z</time>
      </trkpt>
      <trkpt lat="47.49343" lon="6.75648">
        <ele>319</ele>
        <time>2015-08-20T15:06:31.000Z</time>
      </trkpt>
      <trkpt lat="47.49344" lon="6.75653">
        <ele>319</ele>
        <time>2015-08-20T15:06:32.000Z</time>
      </trkpt>
      <trkpt lat="47.49345" lon="6.75658">
        <ele>318</ele>
        <time>2015-08-20T15:06:33.000Z</time>
      </trkpt>
      <trkpt lat="47.49346" lon="6.75663">
        <ele>318</ele>
        <time>2015-08-20T15:06:34.000Z</time>
      </trkpt>
      <trkpt lat="47.49347" lon="6.75668">
        <ele>318</ele>
        <time>2015-08-20T15:06:35.000Z</time>
      </trkpt>
      <trkpt lat="47.49348" lon="6.75673">
        <ele>318</ele>
        <time>2015-08-20T15:06:36.000Z</time>
      </trkpt>
      <trkpt lat="47.49349" lon="6.75678">
        <ele>318</ele>
        <time>2015-08-20T15:06:37.000Z</time>
      </trkpt>
      <trkpt lat="47.49351" lon="6.75683">
        <ele>318</ele>
        <time>2015-08-20T15:06:38.000Z</time>
      </trkpt>
      <trkpt lat="47.49353" lon="6.75689">
        <ele>318</ele>
        <time>2015-08-20T15:06:39.000Z</time>
      </trkpt>
      <trkpt lat="47.49354" lon="6.75694">
        <ele>319</ele>
        <time>2015-08-20T15:06:40.000Z</time>
      </trkpt>
      <trkpt lat="47.49355" lon="6.757">
        <ele>319</ele>
        <time>2015-08-20T15:06:41.000Z</time>
      </trkpt>
      <trkpt lat="47.49356" lon="6.75705">
        <ele>319</ele>
        <time>2015-08-20T15:06:42.000Z</time>
      </trkpt>
      <trkpt lat="47.49358" lon="6.75711">
        <ele>319</ele>
        <time>2015-08-20T15:06:43.000Z</time>
      </trkpt>
      <trkpt lat="47.49359" lon="6.75716">
        <ele>319</ele>
        <time>2015-08-20T15:06:44.000Z</time>
      </trkpt>
      <trkpt lat="47.49361" lon="6.75719">
        <ele>319</ele>
        <time>2015-08-20T15:06:45.000Z</time>
      </trkpt>
      <trkpt lat="47.49363" lon="6.75722">
        <ele>319</ele>
        <time>2015-08-20T15:06:46.000Z</time>
      </trkpt>
      <trkpt lat="47.49365" lon="6.75722">
        <ele>319</ele>
        <time>2015-08-20T15:06:47.000Z</time>
      </trkpt>
      <trkpt lat="47.49367" lon="6.75721">
        <ele>319</ele>
        <time>2015-08-20T15:06:48.000Z</time>
      </trkpt>
      <trkpt lat="47.49369" lon="6.7572">
        <ele>319</ele>
        <time>2015-08-20T15:06:49.000Z</time>
      </trkpt>
      <trkpt lat="47.49372" lon="6.75718">
        <ele>319</ele>
        <time>2015-08-20T15:06:50.000Z</time>
      </trkpt>
      <trkpt lat="47.49375" lon="6.75716">
        <ele>319</ele>
        <time>2015-08-20T15:06:51.000Z</time>
      </trkpt>
      <trkpt lat="47.49379" lon="6.75713">
        <ele>319</ele>
        <time>2015-08-20T15:06:52.000Z</time>
      </trkpt>
      <trkpt lat="47.49383" lon="6.75709">
        <ele>319</ele>
        <time>2015-08-20T15:06:53.000Z</time>
      </trkpt>
      <trkpt lat="47.49389" lon="6.757">
        <ele>319</ele>
        <time>2015-08-20T15:06:54.000Z</time>
      </trkpt>
      <trkpt lat="47.49394" lon="6.75697">
        <ele>319</ele>
        <time>2015-08-20T15:06:55.000Z</time>
      </trkpt>
      <trkpt lat="47.494" lon="6.75694">
        <ele>319</ele>
        <time>2015-08-20T15:06:56.000Z</time>
      </trkpt>
      <trkpt lat="47.49404" lon="6.75691">
        <ele>319</ele>
        <time>2015-08-20T15:06:57.000Z</time>
      </trkpt>
      <trkpt lat="47.49408" lon="6.75689">
        <ele>319</ele>
        <time>2015-08-20T15:06:58.000Z</time>
      </trkpt>
      <trkpt lat="47.49413" lon="6.75686">
        <ele>319</ele>
        <time>2015-08-20T15:06:59.000Z</time>
      </trkpt>
      <trkpt lat="47.49416" lon="6.75683">
        <ele>319</ele>
        <time>2015-08-20T15:07:00.000Z</time>
      </trkpt>
      <trkpt lat="47.4942" lon="6.7568">
        <ele>320</ele>
        <time>2015-08-20T15:07:01.000Z</time>
      </trkpt>
      <trkpt lat="47.49424" lon="6.75677">
        <ele>320</ele>
        <time>2015-08-20T15:07:02.000Z</time>
      </trkpt>
      <trkpt lat="47.49428" lon="6.75673">
        <ele>320</ele>
        <time>2015-08-20T15:07:03.000Z</time>
      </trkpt>
      <trkpt lat="47.49432" lon="6.7567">
        <ele>320</ele>
        <time>2015-08-20T15:07:04.000Z</time>
      </trkpt>
      <trkpt lat="47.49435" lon="6.75673">
        <ele>320</ele>
        <time>2015-08-20T15:07:06.000Z</time>
      </trkpt>
      <trkpt lat="47.49437" lon="6.75675">
        <ele>320</ele>
        <time>2015-08-20T15:07:07.000Z</time>
      </trkpt>
      <trkpt lat="47.49438" lon="6.75679">
        <ele>320</ele>
        <time>2015-08-20T15:07:08.000Z</time>
      </trkpt>
      <trkpt lat="47.49439" lon="6.75684">
        <ele>320</ele>
        <time>2015-08-20T15:07:09.000Z</time>
      </trkpt>
      <trkpt lat="47.4944" lon="6.7569">
        <ele>320</ele>
        <time>2015-08-20T15:07:10.000Z</time>
      </trkpt>
      <trkpt lat="47.49441" lon="6.75696">
        <ele>321</ele>
        <time>2015-08-20T15:07:11.000Z</time>
      </trkpt>
      <trkpt lat="47.49442" lon="6.75702">
        <ele>321</ele>
        <time>2015-08-20T15:07:12.000Z</time>
      </trkpt>
      <trkpt lat="47.49443" lon="6.75708">
        <ele>321</ele>
        <time>2015-08-20T15:07:13.000Z</time>
      </trkpt>
      <trkpt lat="47.49443" lon="6.75714">
        <ele>321</ele>
        <time>2015-08-20T15:07:14.000Z</time>
      </trkpt>
      <trkpt lat="47.49444" lon="6.7572">
        <ele>321</ele>
        <time>2015-08-20T15:07:15.000Z</time>
      </trkpt>
      <trkpt lat="47.49445" lon="6.75727">
        <ele>321</ele>
        <time>2015-08-20T15:07:16.000Z</time>
      </trkpt>
      <trkpt lat="47.49445" lon="6.75733">
        <ele>321</ele>
        <time>2015-08-20T15:07:17.000Z</time>
      </trkpt>
      <trkpt lat="47.49446" lon="6.75738">
        <ele>321</ele>
        <time>2015-08-20T15:07:18.000Z</time>
      </trkpt>
      <trkpt lat="47.49449" lon="6.75741">
        <ele>321</ele>
        <time>2015-08-20T15:07:19.000Z</time>
      </trkpt>
      <trkpt lat="47.49452" lon="6.75743">
        <ele>321</ele>
        <time>2015-08-20T15:07:20.000Z</time>
      </trkpt>
      <trkpt lat="47.49456" lon="6.75743">
        <ele>321</ele>
        <time>2015-08-20T15:07:21.000Z</time>
      </trkpt>
      <trkpt lat="47.49461" lon="6.75743">
        <ele>321</ele>
        <time>2015-08-20T15:07:22.000Z</time>
      </trkpt>
      <trkpt lat="47.49466" lon="6.75743">
        <ele>322</ele>
        <time>2015-08-20T15:07:23.000Z</time>
      </trkpt>
      <trkpt lat="47.49471" lon="6.75743">
        <ele>322</ele>
        <time>2015-08-20T15:07:24.000Z</time>
      </trkpt>
      <trkpt lat="47.49476" lon="6.75743">
        <ele>322</ele>
        <time>2015-08-20T15:07:25.000Z</time>
      </trkpt>
      <trkpt lat="47.4948" lon="6.75743">
        <ele>322</ele>
        <time>2015-08-20T15:07:26.000Z</time>
      </trkpt>
      <trkpt lat="47.49484" lon="6.75743">
        <ele>322</ele>
        <time>2015-08-20T15:07:27.000Z</time>
      </trkpt>
      <trkpt lat="47.49488" lon="6.75743">
        <ele>323</ele>
        <time>2015-08-20T15:07:28.000Z</time>
      </trkpt>
      <trkpt lat="47.49492" lon="6.75743">
        <ele>323</ele>
        <time>2015-08-20T15:07:29.000Z</time>
      </trkpt>
      <trkpt lat="47.49496" lon="6.75742">
        <ele>323</ele>
        <time>2015-08-20T15:07:30.000Z</time>
      </trkpt>
      <trkpt lat="47.495" lon="6.75741">
        <ele>323</ele>
        <time>2015-08-20T15:07:31.000Z</time>
      </trkpt>
      <trkpt lat="47.49504" lon="6.75739">
        <ele>324</ele>
        <time>2015-08-20T15:07:32.000Z</time>
      </trkpt>
      <trkpt lat="47.4951" lon="6.75736">
        <ele>325</ele>
        <time>2015-08-20T15:07:33.000Z</time>
      </trkpt>
      <trkpt lat="47.49513" lon="6.75732">
        <ele>325</ele>
        <time>2015-08-20T15:07:34.000Z</time>
      </trkpt>
      <trkpt lat="47.49517" lon="6.75729">
        <ele>325</ele>
        <time>2015-08-20T15:07:35.000Z</time>
      </trkpt>
      <trkpt lat="47.49521" lon="6.75726">
        <ele>325</ele>
        <time>2015-08-20T15:07:36.000Z</time>
      </trkpt>
      <trkpt lat="47.49525" lon="6.75726">
        <ele>325</ele>
        <time>2015-08-20T15:07:37.000Z</time>
      </trkpt>
      <trkpt lat="47.49529" lon="6.75724">
        <ele>325</ele>
        <time>2015-08-20T15:07:38.000Z</time>
      </trkpt>
      <trkpt lat="47.49532" lon="6.75721">
        <ele>325</ele>
        <time>2015-08-20T15:07:39.000Z</time>
      </trkpt>
      <trkpt lat="47.49536" lon="6.75717">
        <ele>325</ele>
        <time>2015-08-20T15:07:40.000Z</time>
      </trkpt>
      <trkpt lat="47.49539" lon="6.75714">
        <ele>325</ele>
        <time>2015-08-20T15:07:41.000Z</time>
      </trkpt>
      <trkpt lat="47.49542" lon="6.75711">
        <ele>325</ele>
        <time>2015-08-20T15:07:42.000Z</time>
      </trkpt>
      <trkpt lat="47.49545" lon="6.75707">
        <ele>325</ele>
        <time>2015-08-20T15:07:43.000Z</time>
      </trkpt>
      <trkpt lat="47.49548" lon="6.75703">
        <ele>325</ele>
        <time>2015-08-20T15:07:44.000Z</time>
      </trkpt>
      <trkpt lat="47.49551" lon="6.75699">
        <ele>325</ele>
        <time>2015-08-20T15:07:45.000Z</time>
      </trkpt>
      <trkpt lat="47.49555" lon="6.75695">
        <ele>325</ele>
        <time>2015-08-20T15:07:46.000Z</time>
      </trkpt>
      <trkpt lat="47.49558" lon="6.7569">
        <ele>324</ele>
        <time>2015-08-20T15:07:47.000Z</time>
      </trkpt>
      <trkpt lat="47.49561" lon="6.75686">
        <ele>324</ele>
        <time>2015-08-20T15:07:48.000Z</time>
      </trkpt>
      <trkpt lat="47.49564" lon="6.75681">
        <ele>324</ele>
        <time>2015-08-20T15:07:49.000Z</time>
      </trkpt>
      <trkpt lat="47.49567" lon="6.75676">
        <ele>323</ele>
        <time>2015-08-20T15:07:50.000Z</time>
      </trkpt>
      <trkpt lat="47.49571" lon="6.75672">
        <ele>323</ele>
        <time>2015-08-20T15:07:51.000Z</time>
      </trkpt>
      <trkpt lat="47.49574" lon="6.75668">
        <ele>322</ele>
        <time>2015-08-20T15:07:52.000Z</time>
      </trkpt>
      <trkpt lat="47.49577" lon="6.75666">
        <ele>321</ele>
        <time>2015-08-20T15:07:53.000Z</time>
      </trkpt>
      <trkpt lat="47.4958" lon="6.75667">
        <ele>322</ele>
        <time>2015-08-20T15:07:54.000Z</time>
      </trkpt>
      <trkpt lat="47.49583" lon="6.7567">
        <ele>322</ele>
        <time>2015-08-20T15:07:55.000Z</time>
      </trkpt>
      <trkpt lat="47.49585" lon="6.75674">
        <ele>324</ele>
        <time>2015-08-20T15:07:56.000Z</time>
      </trkpt>
      <trkpt lat="47.49587" lon="6.75678">
        <ele>325</ele>
        <time>2015-08-20T15:07:57.000Z</time>
      </trkpt>
      <trkpt lat="47.49589" lon="6.75683">
        <ele>326</ele>
        <time>2015-08-20T15:07:58.000Z</time>
      </trkpt>
      <trkpt lat="47.49591" lon="6.75686">
        <ele>327</ele>
        <time>2015-08-20T15:07:59.000Z</time>
      </trkpt>
      <trkpt lat="47.49593" lon="6.75689">
        <ele>327</ele>
        <time>2015-08-20T15:08:00.000Z</time>
      </trkpt>
      <trkpt lat="47.49593" lon="6.75694">
        <ele>328</ele>
        <time>2015-08-20T15:08:03.000Z</time>
      </trkpt>
      <trkpt lat="47.49593" lon="6.75696">
        <ele>329</ele>
        <time>2015-08-20T15:08:04.000Z</time>
      </trkpt>
      <trkpt lat="47.49591" lon="6.75701">
        <ele>329</ele>
        <time>2015-08-20T15:08:06.000Z</time>
      </trkpt>
      <trkpt lat="47.4959" lon="6.75704">
        <ele>330</ele>
        <time>2015-08-20T15:08:07.000Z</time>
      </trkpt>
      <trkpt lat="47.49588" lon="6.75707">
        <ele>330</ele>
        <time>2015-08-20T15:08:08.000Z</time>
      </trkpt>
      <trkpt lat="47.49586" lon="6.7571">
        <ele>330</ele>
        <time>2015-08-20T15:08:09.000Z</time>
      </trkpt>
      <trkpt lat="47.49584" lon="6.75713">
        <ele>331</ele>
        <time>2015-08-20T15:08:10.000Z</time>
      </trkpt>
      <trkpt lat="47.49582" lon="6.75716">
        <ele>327</ele>
        <time>2015-08-20T15:08:11.000Z</time>
      </trkpt>
      <trkpt lat="47.4958" lon="6.75719">
        <ele>327</ele>
        <time>2015-08-20T15:08:12.000Z</time>
      </trkpt>
      <trkpt lat="47.49577" lon="6.75722">
        <ele>328</ele>
        <time>2015-08-20T15:08:13.000Z</time>
      </trkpt>
      <trkpt lat="47.49575" lon="6.75725">
        <ele>328</ele>
        <time>2015-08-20T15:08:14.000Z</time>
      </trkpt>
      <trkpt lat="47.49572" lon="6.75728">
        <ele>328</ele>
        <time>2015-08-20T15:08:15.000Z</time>
      </trkpt>
      <trkpt lat="47.4957" lon="6.75731">
        <ele>328</ele>
        <time>2015-08-20T15:08:16.000Z</time>
      </trkpt>
      <trkpt lat="47.49567" lon="6.75734">
        <ele>328</ele>
        <time>2015-08-20T15:08:17.000Z</time>
      </trkpt>
      <trkpt lat="47.49565" lon="6.75738">
        <ele>328</ele>
        <time>2015-08-20T15:08:18.000Z</time>
      </trkpt>
      <trkpt lat="47.49562" lon="6.75741">
        <ele>328</ele>
        <time>2015-08-20T15:08:19.000Z</time>
      </trkpt>
      <trkpt lat="47.4956" lon="6.75744">
        <ele>328</ele>
        <time>2015-08-20T15:08:20.000Z</time>
      </trkpt>
      <trkpt lat="47.49559" lon="6.75748">
        <ele>328</ele>
        <time>2015-08-20T15:08:21.000Z</time>
      </trkpt>
      <trkpt lat="47.49557" lon="6.75752">
        <ele>335</ele>
        <time>2015-08-20T15:08:22.000Z</time>
      </trkpt>
      <trkpt lat="47.49556" lon="6.75756">
        <ele>335</ele>
        <time>2015-08-20T15:08:23.000Z</time>
      </trkpt>
      <trkpt lat="47.49556" lon="6.7576">
        <ele>335</ele>
        <time>2015-08-20T15:08:24.000Z</time>
      </trkpt>
      <trkpt lat="47.49557" lon="6.75764">
        <ele>335</ele>
        <time>2015-08-20T15:08:25.000Z</time>
      </trkpt>
      <trkpt lat="47.49559" lon="6.75768">
        <ele>335</ele>
        <time>2015-08-20T15:08:26.000Z</time>
      </trkpt>
      <trkpt lat="47.49561" lon="6.7577">
        <ele>335</ele>
        <time>2015-08-20T15:08:27.000Z</time>
      </trkpt>
      <trkpt lat="47.49564" lon="6.75772">
        <ele>336</ele>
        <time>2015-08-20T15:08:31.000Z</time>
      </trkpt>
      <trkpt lat="47.49565" lon="6.75773">
        <ele>336</ele>
        <time>2015-08-20T15:08:32.000Z</time>
      </trkpt>
      <trkpt lat="47.49566" lon="6.75777">
        <ele>336</ele>
        <time>2015-08-20T15:08:37.000Z</time>
      </trkpt>
      <trkpt lat="47.49568" lon="6.75778">
        <ele>336</ele>
        <time>2015-08-20T15:08:38.000Z</time>
      </trkpt>
      <trkpt lat="47.49571" lon="6.7578">
        <ele>337</ele>
        <time>2015-08-20T15:08:40.000Z</time>
      </trkpt>
      <trkpt lat="47.49572" lon="6.75781">
        <ele>337</ele>
        <time>2015-08-20T15:08:41.000Z</time>
      </trkpt>
      <trkpt lat="47.49576" lon="6.75784">
        <ele>337</ele>
        <time>2015-08-20T15:08:44.000Z</time>
      </trkpt>
      <trkpt lat="47.49577" lon="6.75785">
        <ele>337</ele>
        <time>2015-08-20T15:08:45.000Z</time>
      </trkpt>
      <trkpt lat="47.4958" lon="6.75787">
        <ele>338</ele>
        <time>2015-08-20T15:08:48.000Z</time>
      </trkpt>
      <trkpt lat="47.49581" lon="6.75788">
        <ele>338</ele>
        <time>2015-08-20T15:08:49.000Z</time>
      </trkpt>
      <trkpt lat="47.49584" lon="6.75789">
        <ele>344</ele>
        <time>2015-08-20T15:08:50.000Z</time>
      </trkpt>
      <trkpt lat="47.49586" lon="6.7579">
        <ele>344</ele>
        <time>2015-08-20T15:08:51.000Z</time>
      </trkpt>
      <trkpt lat="47.49589" lon="6.75792">
        <ele>345</ele>
        <time>2015-08-20T15:08:53.000Z</time>
      </trkpt>
      <trkpt lat="47.49591" lon="6.75792">
        <ele>345</ele>
        <time>2015-08-20T15:08:54.000Z</time>
      </trkpt>
      <trkpt lat="47.49594" lon="6.75795">
        <ele>345</ele>
        <time>2015-08-20T15:08:56.000Z</time>
      </trkpt>
      <trkpt lat="47.49596" lon="6.75796">
        <ele>345</ele>
        <time>2015-08-20T15:08:57.000Z</time>
      </trkpt>
      <trkpt lat="47.49599" lon="6.75798">
        <ele>346</ele>
        <time>2015-08-20T15:08:59.000Z</time>
      </trkpt>
      <trkpt lat="47.496" lon="6.75798">
        <ele>346</ele>
        <time>2015-08-20T15:09:00.000Z</time>
      </trkpt>
      <trkpt lat="47.49604" lon="6.75798">
        <ele>346</ele>
        <time>2015-08-20T15:09:03.000Z</time>
      </trkpt>
      <trkpt lat="47.49605" lon="6.75798">
        <ele>346</ele>
        <time>2015-08-20T15:09:04.000Z</time>
      </trkpt>
      <trkpt lat="47.49608" lon="6.75798">
        <ele>346</ele>
        <time>2015-08-20T15:09:08.000Z</time>
      </trkpt>
      <trkpt lat="47.49609" lon="6.75798">
        <ele>346</ele>
        <time>2015-08-20T15:09:09.000Z</time>
      </trkpt>
      <trkpt lat="47.49614" lon="6.75797">
        <ele>346</ele>
        <time>2015-08-20T15:09:13.000Z</time>
      </trkpt>
      <trkpt lat="47.49615" lon="6.75797">
        <ele>346</ele>
        <time>2015-08-20T15:09:14.000Z</time>
      </trkpt>
      <trkpt lat="47.49618" lon="6.75795">
        <ele>346</ele>
        <time>2015-08-20T15:09:17.000Z</time>
      </trkpt>
      <trkpt lat="47.4962" lon="6.75796">
        <ele>346</ele>
        <time>2015-08-20T15:09:18.000Z</time>
      </trkpt>
      <trkpt lat="47.49623" lon="6.75794">
        <ele>346</ele>
        <time>2015-08-20T15:09:20.000Z</time>
      </trkpt>
      <trkpt lat="47.49624" lon="6.75794">
        <ele>346</ele>
        <time>2015-08-20T15:09:21.000Z</time>
      </trkpt>
      <trkpt lat="47.49628" lon="6.75793">
        <ele>347</ele>
        <time>2015-08-20T15:09:24.000Z</time>
      </trkpt>
      <trkpt lat="47.49629" lon="6.75793">
        <ele>347</ele>
        <time>2015-08-20T15:09:25.000Z</time>
      </trkpt>
      <trkpt lat="47.49631" lon="6.75794">
        <ele>347</ele>
        <time>2015-08-20T15:09:26.000Z</time>
      </trkpt>
      <trkpt lat="47.49634" lon="6.75795">
        <ele>347</ele>
        <time>2015-08-20T15:09:27.000Z</time>
      </trkpt>
      <trkpt lat="47.49636" lon="6.75796">
        <ele>347</ele>
        <time>2015-08-20T15:09:28.000Z</time>
      </trkpt>
      <trkpt lat="47.49638" lon="6.75797">
        <ele>348</ele>
        <time>2015-08-20T15:09:29.000Z</time>
      </trkpt>
      <trkpt lat="47.49641" lon="6.75799">
        <ele>348</ele>
        <time>2015-08-20T15:09:30.000Z</time>
      </trkpt>
      <trkpt lat="47.49643" lon="6.758">
        <ele>348</ele>
        <time>2015-08-20T15:09:31.000Z</time>
      </trkpt>
      <trkpt lat="47.49646" lon="6.75798">
        <ele>348</ele>
        <time>2015-08-20T15:09:34.000Z</time>
      </trkpt>
      <trkpt lat="47.49647" lon="6.75796">
        <ele>348</ele>
        <time>2015-08-20T15:09:35.000Z</time>
      </trkpt>
      <trkpt lat="47.49651" lon="6.75795">
        <ele>348</ele>
        <time>2015-08-20T15:09:38.000Z</time>
      </trkpt>
      <trkpt lat="47.49652" lon="6.75796">
        <ele>348</ele>
        <time>2015-08-20T15:09:39.000Z</time>
      </trkpt>
      <trkpt lat="47.49657" lon="6.75797">
        <ele>349</ele>
        <time>2015-08-20T15:09:41.000Z</time>
      </trkpt>
      <trkpt lat="47.49659" lon="6.75798">
        <ele>349</ele>
        <time>2015-08-20T15:09:42.000Z</time>
      </trkpt>
      <trkpt lat="47.49662" lon="6.75799">
        <ele>349</ele>
        <time>2015-08-20T15:09:43.000Z</time>
      </trkpt>
      <trkpt lat="47.49664" lon="6.75799">
        <ele>349</ele>
        <time>2015-08-20T15:09:44.000Z</time>
      </trkpt>
      <trkpt lat="47.49669" lon="6.75798">
        <ele>354</ele>
        <time>2015-08-20T15:09:46.000Z</time>
      </trkpt>
      <trkpt lat="47.49671" lon="6.75798">
        <ele>354</ele>
        <time>2015-08-20T15:09:47.000Z</time>
      </trkpt>
      <trkpt lat="47.49673" lon="6.75798">
        <ele>354</ele>
        <time>2015-08-20T15:09:48.000Z</time>
      </trkpt>
      <trkpt lat="47.49676" lon="6.75798">
        <ele>354</ele>
        <time>2015-08-20T15:09:49.000Z</time>
      </trkpt>
      <trkpt lat="47.49678" lon="6.75797">
        <ele>354</ele>
        <time>2015-08-20T15:09:50.000Z</time>
      </trkpt>
      <trkpt lat="47.49681" lon="6.75797">
        <ele>354</ele>
        <time>2015-08-20T15:09:51.000Z</time>
      </trkpt>
      <trkpt lat="47.49683" lon="6.75796">
        <ele>354</ele>
        <time>2015-08-20T15:09:52.000Z</time>
      </trkpt>
      <trkpt lat="47.49686" lon="6.75796">
        <ele>354</ele>
        <time>2015-08-20T15:09:53.000Z</time>
      </trkpt>
      <trkpt lat="47.49688" lon="6.75796">
        <ele>354</ele>
        <time>2015-08-20T15:09:54.000Z</time>
      </trkpt>
      <trkpt lat="47.49692" lon="6.75796">
        <ele>354</ele>
        <time>2015-08-20T15:09:55.000Z</time>
      </trkpt>
      <trkpt lat="47.49695" lon="6.75795">
        <ele>354</ele>
        <time>2015-08-20T15:09:56.000Z</time>
      </trkpt>
      <trkpt lat="47.49698" lon="6.75795">
        <ele>355</ele>
        <time>2015-08-20T15:09:57.000Z</time>
      </trkpt>
      <trkpt lat="47.49702" lon="6.75795">
        <ele>355</ele>
        <time>2015-08-20T15:09:58.000Z</time>
      </trkpt>
      <trkpt lat="47.49705" lon="6.75794">
        <ele>355</ele>
        <time>2015-08-20T15:09:59.000Z</time>
      </trkpt>
      <trkpt lat="47.49709" lon="6.75792">
        <ele>355</ele>
        <time>2015-08-20T15:10:00.000Z</time>
      </trkpt>
      <trkpt lat="47.49713" lon="6.7579">
        <ele>355</ele>
        <time>2015-08-20T15:10:01.000Z</time>
      </trkpt>
      <trkpt lat="47.49716" lon="6.75789">
        <ele>355</ele>
        <time>2015-08-20T15:10:02.000Z</time>
      </trkpt>
      <trkpt lat="47.4972" lon="6.75788">
        <ele>355</ele>
        <time>2015-08-20T15:10:03.000Z</time>
      </trkpt>
      <trkpt lat="47.49722" lon="6.75788">
        <ele>355</ele>
        <time>2015-08-20T15:10:04.000Z</time>
      </trkpt>
      <trkpt lat="47.49725" lon="6.75788">
        <ele>355</ele>
        <time>2015-08-20T15:10:05.000Z</time>
      </trkpt>
      <trkpt lat="47.49727" lon="6.75788">
        <ele>355</ele>
        <time>2015-08-20T15:10:06.000Z</time>
      </trkpt>
      <trkpt lat="47.4973" lon="6.75787">
        <ele>355</ele>
        <time>2015-08-20T15:10:07.000Z</time>
      </trkpt>
      <trkpt lat="47.49732" lon="6.75786">
        <ele>355</ele>
        <time>2015-08-20T15:10:08.000Z</time>
      </trkpt>
      <trkpt lat="47.49735" lon="6.75785">
        <ele>355</ele>
        <time>2015-08-20T15:10:09.000Z</time>
      </trkpt>
      <trkpt lat="47.49737" lon="6.75785">
        <ele>355</ele>
        <time>2015-08-20T15:10:10.000Z</time>
      </trkpt>
      <trkpt lat="47.4974" lon="6.75784">
        <ele>355</ele>
        <time>2015-08-20T15:10:11.000Z</time>
      </trkpt>
      <trkpt lat="47.49742" lon="6.75782">
        <ele>355</ele>
        <time>2015-08-20T15:10:12.000Z</time>
      </trkpt>
      <trkpt lat="47.49744" lon="6.75781">
        <ele>355</ele>
        <time>2015-08-20T15:10:13.000Z</time>
      </trkpt>
      <trkpt lat="47.49746" lon="6.7578">
        <ele>355</ele>
        <time>2015-08-20T15:10:14.000Z</time>
      </trkpt>
      <trkpt lat="47.49749" lon="6.75778">
        <ele>354</ele>
        <time>2015-08-20T15:10:15.000Z</time>
      </trkpt>
      <trkpt lat="47.49752" lon="6.75777">
        <ele>358</ele>
        <time>2015-08-20T15:10:16.000Z</time>
      </trkpt>
      <trkpt lat="47.49754" lon="6.75776">
        <ele>358</ele>
        <time>2015-08-20T15:10:17.000Z</time>
      </trkpt>
      <trkpt lat="47.49757" lon="6.75775">
        <ele>358</ele>
        <time>2015-08-20T15:10:18.000Z</time>
      </trkpt>
      <trkpt lat="47.49759" lon="6.75774">
        <ele>358</ele>
        <time>2015-08-20T15:10:19.000Z</time>
      </trkpt>
      <trkpt lat="47.49762" lon="6.75776">
        <ele>358</ele>
        <time>2015-08-20T15:10:21.000Z</time>
      </trkpt>
      <trkpt lat="47.49763" lon="6.75778">
        <ele>358</ele>
        <time>2015-08-20T15:10:22.000Z</time>
      </trkpt>
      <trkpt lat="47.49766" lon="6.75779">
        <ele>359</ele>
        <time>2015-08-20T15:10:24.000Z</time>
      </trkpt>
      <trkpt lat="47.49768" lon="6.75778">
        <ele>359</ele>
        <time>2015-08-20T15:10:25.000Z</time>
      </trkpt>
      <trkpt lat="47.4977" lon="6.75776">
        <ele>359</ele>
        <time>2015-08-20T15:10:26.000Z</time>
      </trkpt>
      <trkpt lat="47.49772" lon="6.75774">
        <ele>359</ele>
        <time>2015-08-20T15:10:27.000Z</time>
      </trkpt>
      <trkpt lat="47.49775" lon="6.75771">
        <ele>359</ele>
        <time>2015-08-20T15:10:29.000Z</time>
      </trkpt>
      <trkpt lat="47.49777" lon="6.75769">
        <ele>359</ele>
        <time>2015-08-20T15:10:30.000Z</time>
      </trkpt>
      <trkpt lat="47.4978" lon="6.75767">
        <ele>359</ele>
        <time>2015-08-20T15:10:32.000Z</time>
      </trkpt>
      <trkpt lat="47.49782" lon="6.75765">
        <ele>359</ele>
        <time>2015-08-20T15:10:33.000Z</time>
      </trkpt>
      <trkpt lat="47.49785" lon="6.75763">
        <ele>359</ele>
        <time>2015-08-20T15:10:35.000Z</time>
      </trkpt>
      <trkpt lat="47.49786" lon="6.75763">
        <ele>359</ele>
        <time>2015-08-20T15:10:36.000Z</time>
      </trkpt>
      <trkpt lat="47.49789" lon="6.75762">
        <ele>359</ele>
        <time>2015-08-20T15:10:38.000Z</time>
      </trkpt>
      <trkpt lat="47.49791" lon="6.75763">
        <ele>359</ele>
        <time>2015-08-20T15:10:39.000Z</time>
      </trkpt>
      <trkpt lat="47.49795" lon="6.75763">
        <ele>359</ele>
        <time>2015-08-20T15:10:42.000Z</time>
      </trkpt>
      <trkpt lat="47.49796" lon="6.75763">
        <ele>359</ele>
        <time>2015-08-20T15:10:43.000Z</time>
      </trkpt>
      <trkpt lat="47.49798" lon="6.75761">
        <ele>359</ele>
        <time>2015-08-20T15:10:45.000Z</time>
      </trkpt>
      <trkpt lat="47.498" lon="6.75759">
        <ele>359</ele>
        <time>2015-08-20T15:10:46.000Z</time>
      </trkpt>
      <trkpt lat="47.49803" lon="6.75755">
        <ele>359</ele>
        <time>2015-08-20T15:10:49.000Z</time>
      </trkpt>
      <trkpt lat="47.49804" lon="6.75754">
        <ele>359</ele>
        <time>2015-08-20T15:10:50.000Z</time>
      </trkpt>
      <trkpt lat="47.49807" lon="6.75752">
        <ele>359</ele>
        <time>2015-08-20T15:10:52.000Z</time>
      </trkpt>
      <trkpt lat="47.49808" lon="6.75751">
        <ele>359</ele>
        <time>2015-08-20T15:10:53.000Z</time>
      </trkpt>
      <trkpt lat="47.49811" lon="6.7575">
        <ele>354</ele>
        <time>2015-08-20T15:10:55.000Z</time>
      </trkpt>
      <trkpt lat="47.49813" lon="6.75749">
        <ele>354</ele>
        <time>2015-08-20T15:10:56.000Z</time>
      </trkpt>
      <trkpt lat="47.49816" lon="6.75749">
        <ele>355</ele>
        <time>2015-08-20T15:10:58.000Z</time>
      </trkpt>
      <trkpt lat="47.49818" lon="6.75748">
        <ele>355</ele>
        <time>2015-08-20T15:10:59.000Z</time>
      </trkpt>
      <trkpt lat="47.49821" lon="6.75747">
        <ele>356</ele>
        <time>2015-08-20T15:11:01.000Z</time>
      </trkpt>
      <trkpt lat="47.49823" lon="6.75747">
        <ele>356</ele>
        <time>2015-08-20T15:11:02.000Z</time>
      </trkpt>
      <trkpt lat="47.49827" lon="6.75746">
        <ele>357</ele>
        <time>2015-08-20T15:11:04.000Z</time>
      </trkpt>
      <trkpt lat="47.49829" lon="6.75745">
        <ele>357</ele>
        <time>2015-08-20T15:11:05.000Z</time>
      </trkpt>
      <trkpt lat="47.49833" lon="6.75743">
        <ele>357</ele>
        <time>2015-08-20T15:11:07.000Z</time>
      </trkpt>
      <trkpt lat="47.49835" lon="6.75742">
        <ele>360</ele>
        <time>2015-08-20T15:11:08.000Z</time>
      </trkpt>
      <trkpt lat="47.49838" lon="6.75741">
        <ele>360</ele>
        <time>2015-08-20T15:11:10.000Z</time>
      </trkpt>
      <trkpt lat="47.49839" lon="6.75739">
        <ele>360</ele>
        <time>2015-08-20T15:11:11.000Z</time>
      </trkpt>
      <trkpt lat="47.49842" lon="6.75737">
        <ele>360</ele>
        <time>2015-08-20T15:11:13.000Z</time>
      </trkpt>
      <trkpt lat="47.49843" lon="6.75737">
        <ele>361</ele>
        <time>2015-08-20T15:11:14.000Z</time>
      </trkpt>
      <trkpt lat="47.49847" lon="6.75736">
        <ele>361</ele>
        <time>2015-08-20T15:11:16.000Z</time>
      </trkpt>
      <trkpt lat="47.49849" lon="6.75735">
        <ele>361</ele>
        <time>2015-08-20T15:11:17.000Z</time>
      </trkpt>
      <trkpt lat="47.49852" lon="6.75735">
        <ele>361</ele>
        <time>2015-08-20T15:11:19.000Z</time>
      </trkpt>
      <trkpt lat="47.49855" lon="6.75736">
        <ele>361</ele>
        <time>2015-08-20T15:11:20.000Z</time>
      </trkpt>
      <trkpt lat="47.49857" lon="6.75736">
        <ele>362</ele>
        <time>2015-08-20T15:11:21.000Z</time>
      </trkpt>
      <trkpt lat="47.49859" lon="6.75737">
        <ele>362</ele>
        <time>2015-08-20T15:11:22.000Z</time>
      </trkpt>
      <trkpt lat="47.49863" lon="6.75737">
        <ele>362</ele>
        <time>2015-08-20T15:11:25.000Z</time>
      </trkpt>
      <trkpt lat="47.49865" lon="6.75736">
        <ele>362</ele>
        <time>2015-08-20T15:11:26.000Z</time>
      </trkpt>
      <trkpt lat="47.49868" lon="6.75734">
        <ele>362</ele>
        <time>2015-08-20T15:11:29.000Z</time>
      </trkpt>
      <trkpt lat="47.4987" lon="6.75734">
        <ele>362</ele>
        <time>2015-08-20T15:11:30.000Z</time>
      </trkpt>
      <trkpt lat="47.49873" lon="6.75734">
        <ele>363</ele>
        <time>2015-08-20T15:11:32.000Z</time>
      </trkpt>
      <trkpt lat="47.49875" lon="6.75734">
        <ele>363</ele>
        <time>2015-08-20T15:11:33.000Z</time>
      </trkpt>
      <trkpt lat="47.49878" lon="6.75734">
        <ele>363</ele>
        <time>2015-08-20T15:11:35.000Z</time>
      </trkpt>
      <trkpt lat="47.4988" lon="6.75734">
        <ele>363</ele>
        <time>2015-08-20T15:11:36.000Z</time>
      </trkpt>
      <trkpt lat="47.49882" lon="6.75733">
        <ele>363</ele>
        <time>2015-08-20T15:11:37.000Z</time>
      </trkpt>
      <trkpt lat="47.49884" lon="6.75732">
        <ele>364</ele>
        <time>2015-08-20T15:11:38.000Z</time>
      </trkpt>
      <trkpt lat="47.49888" lon="6.75732">
        <ele>364</ele>
        <time>2015-08-20T15:11:40.000Z</time>
      </trkpt>
      <trkpt lat="47.4989" lon="6.75732">
        <ele>364</ele>
        <time>2015-08-20T15:11:41.000Z</time>
      </trkpt>
      <trkpt lat="47.49894" lon="6.7573">
        <ele>364</ele>
        <time>2015-08-20T15:11:43.000Z</time>
      </trkpt>
      <trkpt lat="47.49896" lon="6.75729">
        <ele>365</ele>
        <time>2015-08-20T15:11:44.000Z</time>
      </trkpt>
      <trkpt lat="47.499" lon="6.75728">
        <ele>365</ele>
        <time>2015-08-20T15:11:46.000Z</time>
      </trkpt>
      <trkpt lat="47.49902" lon="6.75729">
        <ele>365</ele>
        <time>2015-08-20T15:11:47.000Z</time>
      </trkpt>
      <trkpt lat="47.49906" lon="6.75731">
        <ele>365</ele>
        <time>2015-08-20T15:11:50.000Z</time>
      </trkpt>
      <trkpt lat="47.49907" lon="6.75732">
        <ele>366</ele>
        <time>2015-08-20T15:11:51.000Z</time>
      </trkpt>
      <trkpt lat="47.4991" lon="6.75733">
        <ele>366</ele>
        <time>2015-08-20T15:11:54.000Z</time>
      </trkpt>
      <trkpt lat="47.49911" lon="6.75733">
        <ele>366</ele>
        <time>2015-08-20T15:11:55.000Z</time>
      </trkpt>
      <trkpt lat="47.49915" lon="6.75736">
        <ele>366</ele>
        <time>2015-08-20T15:11:59.000Z</time>
      </trkpt>
      <trkpt lat="47.49916" lon="6.75737">
        <ele>367</ele>
        <time>2015-08-20T15:12:00.000Z</time>
      </trkpt>
      <trkpt lat="47.49919" lon="6.7574">
        <ele>369</ele>
        <time>2015-08-20T15:12:05.001Z</time>
      </trkpt>
      <trkpt lat="47.49922" lon="6.75741">
        <ele>370</ele>
        <time>2015-08-20T15:12:06.000Z</time>
      </trkpt>
      <trkpt lat="47.49925" lon="6.75745">
        <ele>370</ele>
        <time>2015-08-20T15:12:12.000Z</time>
      </trkpt>
      <trkpt lat="47.49925" lon="6.75747">
        <ele>370</ele>
        <time>2015-08-20T15:12:13.000Z</time>
      </trkpt>
      <trkpt lat="47.49927" lon="6.75752">
        <ele>371</ele>
        <time>2015-08-20T15:12:15.000Z</time>
      </trkpt>
      <trkpt lat="47.49929" lon="6.75755">
        <ele>371</ele>
        <time>2015-08-20T15:12:16.000Z</time>
      </trkpt>
      <trkpt lat="47.49932" lon="6.75759">
        <ele>371</ele>
        <time>2015-08-20T15:12:18.000Z</time>
      </trkpt>
      <trkpt lat="47.49934" lon="6.75761">
        <ele>372</ele>
        <time>2015-08-20T15:12:19.000Z</time>
      </trkpt>
      <trkpt lat="47.49936" lon="6.75766">
        <ele>372</ele>
        <time>2015-08-20T15:12:20.999Z</time>
      </trkpt>
      <trkpt lat="47.49938" lon="6.75767">
        <ele>372</ele>
        <time>2015-08-20T15:12:22.000Z</time>
      </trkpt>
      <trkpt lat="47.4994" lon="6.75772">
        <ele>372</ele>
        <time>2015-08-20T15:12:27.000Z</time>
      </trkpt>
      <trkpt lat="47.49941" lon="6.75773">
        <ele>373</ele>
        <time>2015-08-20T15:12:28.000Z</time>
      </trkpt>
      <trkpt lat="47.49943" lon="6.75777">
        <ele>373</ele>
        <time>2015-08-20T15:12:31.000Z</time>
      </trkpt>
      <trkpt lat="47.49946" lon="6.75778">
        <ele>373</ele>
        <time>2015-08-20T15:12:32.000Z</time>
      </trkpt>
      <trkpt lat="47.49948" lon="6.75779">
        <ele>373</ele>
        <time>2015-08-20T15:12:33.000Z</time>
      </trkpt>
      <trkpt lat="47.49951" lon="6.7578">
        <ele>373</ele>
        <time>2015-08-20T15:12:34.000Z</time>
      </trkpt>
      <trkpt lat="47.49954" lon="6.75783">
        <ele>373</ele>
        <time>2015-08-20T15:12:36.000Z</time>
      </trkpt>
      <trkpt lat="47.49956" lon="6.75785">
        <ele>374</ele>
        <time>2015-08-20T15:12:36.999Z</time>
      </trkpt>
      <trkpt lat="47.49956" lon="6.75791">
        <ele>374</ele>
        <time>2015-08-20T15:12:39.000Z</time>
      </trkpt>
      <trkpt lat="47.49956" lon="6.75793">
        <ele>374</ele>
        <time>2015-08-20T15:12:40.001Z</time>
      </trkpt>
      <trkpt lat="47.49957" lon="6.758">
        <ele>374</ele>
        <time>2015-08-20T15:12:44.000Z</time>
      </trkpt>
      <trkpt lat="47.49957" lon="6.75802">
        <ele>374</ele>
        <time>2015-08-20T15:12:45.000Z</time>
      </trkpt>
      <trkpt lat="47.49959" lon="6.75808">
        <ele>374</ele>
        <time>2015-08-20T15:12:47.000Z</time>
      </trkpt>
      <trkpt lat="47.4996" lon="6.75811">
        <ele>374</ele>
        <time>2015-08-20T15:12:48.000Z</time>
      </trkpt>
      <trkpt lat="47.49962" lon="6.75814">
        <ele>374</ele>
        <time>2015-08-20T15:12:49.000Z</time>
      </trkpt>
      <trkpt lat="47.49964" lon="6.75816">
        <ele>374</ele>
        <time>2015-08-20T15:12:50.000Z</time>
      </trkpt>
      <trkpt lat="47.49967" lon="6.7582">
        <ele>375</ele>
        <time>2015-08-20T15:12:52.000Z</time>
      </trkpt>
      <trkpt lat="47.49968" lon="6.7582">
        <ele>375</ele>
        <time>2015-08-20T15:12:53.000Z</time>
      </trkpt>
      <trkpt lat="47.49968" lon="6.75821">
        <ele>375</ele>
        <time>2015-08-20T15:12:53.999Z</time>
      </trkpt>
      <trkpt lat="47.49981" lon="6.75821">
        <ele>376</ele>
        <time>2015-08-20T15:12:55.000Z</time>
      </trkpt>
      <trkpt lat="47.49984" lon="6.75821">
        <ele>376</ele>
        <time>2015-08-20T15:12:56.000Z</time>
      </trkpt>
      <trkpt lat="47.49986" lon="6.75821">
        <ele>376</ele>
        <time>2015-08-20T15:12:57.000Z</time>
      </trkpt>
      <trkpt lat="47.49988" lon="6.75822">
        <ele>376</ele>
        <time>2015-08-20T15:12:57.999Z</time>
      </trkpt>
      <trkpt lat="47.49992" lon="6.75824">
        <ele>377</ele>
        <time>2015-08-20T15:12:59.000Z</time>
      </trkpt>
      <trkpt lat="47.49993" lon="6.75829">
        <ele>377</ele>
        <time>2015-08-20T15:13:02.000Z</time>
      </trkpt>
      <trkpt lat="47.49991" lon="6.75833">
        <ele>377</ele>
        <time>2015-08-20T15:13:03.000Z</time>
      </trkpt>
      <trkpt lat="47.49991" lon="6.75838">
        <ele>378</ele>
        <time>2015-08-20T15:13:06.000Z</time>
      </trkpt>
      <trkpt lat="47.49991" lon="6.75841">
        <ele>378</ele>
        <time>2015-08-20T15:13:07.000Z</time>
      </trkpt>
      <trkpt lat="47.49991" lon="6.75847">
        <ele>378</ele>
        <time>2015-08-20T15:13:10.001Z</time>
      </trkpt>
      <trkpt lat="47.49991" lon="6.7585">
        <ele>377</ele>
        <time>2015-08-20T15:13:11.001Z</time>
      </trkpt>
      <trkpt lat="47.49992" lon="6.75855">
        <ele>377</ele>
        <time>2015-08-20T15:13:14.000Z</time>
      </trkpt>
      <trkpt lat="47.49993" lon="6.75856">
        <ele>377</ele>
        <time>2015-08-20T15:13:15.000Z</time>
      </trkpt>
      <trkpt lat="47.49996" lon="6.75858">
        <ele>377</ele>
        <time>2015-08-20T15:13:21.000Z</time>
      </trkpt>
      <trkpt lat="47.49997" lon="6.75858">
        <ele>377</ele>
        <time>2015-08-20T15:13:22.000Z</time>
      </trkpt>
      <trkpt lat="47.50001" lon="6.75858">
        <ele>377</ele>
        <time>2015-08-20T15:14:32.000Z</time>
      </trkpt>
      <trkpt lat="47.50002" lon="6.75858">
        <ele>377</ele>
        <time>2015-08-20T15:14:33.000Z</time>
      </trkpt>
      <trkpt lat="47.50005" lon="6.75861">
        <ele>377</ele>
        <time>2015-08-20T15:14:47.000Z</time>
      </trkpt>
      <trkpt lat="47.50006" lon="6.75861">
        <ele>377</ele>
        <time>2015-08-20T15:14:48.000Z</time>
      </trkpt>
      <trkpt lat="47.50007" lon="6.75867">
        <ele>377</ele>
        <time>2015-08-20T15:14:53.000Z</time>
      </trkpt>
      <trkpt lat="47.50008" lon="6.75868">
        <ele>377</ele>
        <time>2015-08-20T15:14:54.000Z</time>
      </trkpt>
      <trkpt lat="47.50009" lon="6.75874">
        <ele>377</ele>
        <time>2015-08-20T15:14:56.999Z</time>
      </trkpt>
      <trkpt lat="47.50009" lon="6.75878">
        <ele>377</ele>
        <time>2015-08-20T15:14:58.000Z</time>
      </trkpt>
      <trkpt lat="47.5001" lon="6.75884">
        <ele>377</ele>
        <time>2015-08-20T15:15:00.000Z</time>
      </trkpt>
      <trkpt lat="47.50012" lon="6.75887">
        <ele>377</ele>
        <time>2015-08-20T15:15:01.000Z</time>
      </trkpt>
      <trkpt lat="47.50013" lon="6.75889">
        <ele>377</ele>
        <time>2015-08-20T15:15:02.000Z</time>
      </trkpt>
      <trkpt lat="47.50015" lon="6.75892">
        <ele>377</ele>
        <time>2015-08-20T15:15:03.000Z</time>
      </trkpt>
      <trkpt lat="47.50017" lon="6.75895">
        <ele>377</ele>
        <time>2015-08-20T15:15:04.000Z</time>
      </trkpt>
      <trkpt lat="47.50019" lon="6.75899">
        <ele>377</ele>
        <time>2015-08-20T15:15:05.000Z</time>
      </trkpt>
      <trkpt lat="47.5002" lon="6.75902">
        <ele>377</ele>
        <time>2015-08-20T15:15:06.000Z</time>
      </trkpt>
      <trkpt lat="47.50022" lon="6.75905">
        <ele>377</ele>
        <time>2015-08-20T15:15:07.001Z</time>
      </trkpt>
      <trkpt lat="47.50024" lon="6.75908">
        <ele>377</ele>
        <time>2015-08-20T15:15:07.999Z</time>
      </trkpt>
      <trkpt lat="47.50025" lon="6.75911">
        <ele>377</ele>
        <time>2015-08-20T15:15:08.999Z</time>
      </trkpt>
      <trkpt lat="47.50028" lon="6.75913">
        <ele>377</ele>
        <time>2015-08-20T15:15:10.000Z</time>
      </trkpt>
      <trkpt lat="47.50029" lon="6.75915">
        <ele>376</ele>
        <time>2015-08-20T15:15:11.000Z</time>
      </trkpt>
      <trkpt lat="47.50033" lon="6.75917">
        <ele>378</ele>
        <time>2015-08-20T15:15:14.000Z</time>
      </trkpt>
      <trkpt lat="47.50035" lon="6.75919">
        <ele>378</ele>
        <time>2015-08-20T15:15:15.000Z</time>
      </trkpt>
      <trkpt lat="47.50037" lon="6.75922">
        <ele>378</ele>
        <time>2015-08-20T15:15:17.000Z</time>
      </trkpt>
      <trkpt lat="47.50038" lon="6.75924">
        <ele>378</ele>
        <time>2015-08-20T15:15:18.000Z</time>
      </trkpt>
      <trkpt lat="47.5004" lon="6.75928">
        <ele>378</ele>
        <time>2015-08-20T15:15:20.000Z</time>
      </trkpt>
      <trkpt lat="47.50042" lon="6.7593">
        <ele>378</ele>
        <time>2015-08-20T15:15:21.000Z</time>
      </trkpt>
      <trkpt lat="47.50043" lon="6.75932">
        <ele>378</ele>
        <time>2015-08-20T15:15:22.000Z</time>
      </trkpt>
      <trkpt lat="47.50046" lon="6.75934">
        <ele>378</ele>
        <time>2015-08-20T15:15:23.000Z</time>
      </trkpt>
      <trkpt lat="47.50048" lon="6.75936">
        <ele>378</ele>
        <time>2015-08-20T15:15:24.000Z</time>
      </trkpt>
      <trkpt lat="47.5005" lon="6.75939">
        <ele>378</ele>
        <time>2015-08-20T15:15:25.000Z</time>
      </trkpt>
      <trkpt lat="47.50053" lon="6.75942">
        <ele>378</ele>
        <time>2015-08-20T15:15:26.000Z</time>
      </trkpt>
      <trkpt lat="47.50055" lon="6.75945">
        <ele>378</ele>
        <time>2015-08-20T15:15:27.000Z</time>
      </trkpt>
      <trkpt lat="47.50057" lon="6.75948">
        <ele>378</ele>
        <time>2015-08-20T15:15:28.000Z</time>
      </trkpt>
      <trkpt lat="47.50059" lon="6.7595">
        <ele>378</ele>
        <time>2015-08-20T15:15:29.000Z</time>
      </trkpt>
      <trkpt lat="47.5006" lon="6.75956">
        <ele>378</ele>
        <time>2015-08-20T15:15:32.000Z</time>
      </trkpt>
      <trkpt lat="47.50059" lon="6.75957">
        <ele>378</ele>
        <time>2015-08-20T15:15:33.000Z</time>
      </trkpt>
      <trkpt lat="47.5006" lon="6.75961">
        <ele>378</ele>
        <time>2015-08-20T15:15:34.000Z</time>
      </trkpt>
      <trkpt lat="47.50061" lon="6.75965">
        <ele>379</ele>
        <time>2015-08-20T15:15:35.000Z</time>
      </trkpt>
      <trkpt lat="47.50061" lon="6.75967">
        <ele>379</ele>
        <time>2015-08-20T15:15:36.000Z</time>
      </trkpt>
      <trkpt lat="47.50063" lon="6.75972">
        <ele>379</ele>
        <time>2015-08-20T15:15:37.000Z</time>
      </trkpt>
      <trkpt lat="47.50064" lon="6.75977">
        <ele>379</ele>
        <time>2015-08-20T15:15:39.001Z</time>
      </trkpt>
      <trkpt lat="47.50065" lon="6.75981">
        <ele>379</ele>
        <time>2015-08-20T15:15:40.000Z</time>
      </trkpt>
      <trkpt lat="47.50066" lon="6.75985">
        <ele>379</ele>
        <time>2015-08-20T15:15:41.000Z</time>
      </trkpt>
      <trkpt lat="47.50067" lon="6.75988">
        <ele>379</ele>
        <time>2015-08-20T15:15:42.000Z</time>
      </trkpt>
      <trkpt lat="47.50068" lon="6.75991">
        <ele>379</ele>
        <time>2015-08-20T15:15:42.999Z</time>
      </trkpt>
      <trkpt lat="47.50071" lon="6.75994">
        <ele>379</ele>
        <time>2015-08-20T15:15:44.000Z</time>
      </trkpt>
      <trkpt lat="47.50072" lon="6.75996">
        <ele>380</ele>
        <time>2015-08-20T15:15:45.000Z</time>
      </trkpt>
      <trkpt lat="47.50074" lon="6.75999">
        <ele>380</ele>
        <time>2015-08-20T15:15:46.000Z</time>
      </trkpt>
      <trkpt lat="47.50075" lon="6.76003">
        <ele>382</ele>
        <time>2015-08-20T15:15:47.000Z</time>
      </trkpt>
      <trkpt lat="47.50076" lon="6.76006">
        <ele>382</ele>
        <time>2015-08-20T15:15:48.000Z</time>
      </trkpt>
      <trkpt lat="47.50079" lon="6.76011">
        <ele>383</ele>
        <time>2015-08-20T15:15:50.000Z</time>
      </trkpt>
      <trkpt lat="47.50079" lon="6.76014">
        <ele>383</ele>
        <time>2015-08-20T15:15:51.000Z</time>
      </trkpt>
      <trkpt lat="47.50082" lon="6.76019">
        <ele>384</ele>
        <time>2015-08-20T15:15:53.000Z</time>
      </trkpt>
      <trkpt lat="47.50083" lon="6.76023">
        <ele>380</ele>
        <time>2015-08-20T15:15:54.000Z</time>
      </trkpt>
      <trkpt lat="47.50091" lon="6.76036">
        <ele>380</ele>
        <time>2015-08-20T15:15:55.000Z</time>
      </trkpt>
      <trkpt lat="47.50092" lon="6.76041">
        <ele>380</ele>
        <time>2015-08-20T15:15:56.000Z</time>
      </trkpt>
      <trkpt lat="47.50093" lon="6.76044">
        <ele>381</ele>
        <time>2015-08-20T15:15:57.000Z</time>
      </trkpt>
      <trkpt lat="47.50093" lon="6.76046">
        <ele>381</ele>
        <time>2015-08-20T15:15:58.000Z</time>
      </trkpt>
      <trkpt lat="47.50094" lon="6.7605">
        <ele>381</ele>
        <time>2015-08-20T15:15:59.000Z</time>
      </trkpt>
      <trkpt lat="47.50094" lon="6.76055">
        <ele>382</ele>
        <time>2015-08-20T15:16:02.000Z</time>
      </trkpt>
      <trkpt lat="47.50095" lon="6.76057">
        <ele>382</ele>
        <time>2015-08-20T15:16:03.000Z</time>
      </trkpt>
      <trkpt lat="47.50097" lon="6.76061">
        <ele>382</ele>
        <time>2015-08-20T15:16:04.001Z</time>
      </trkpt>
      <trkpt lat="47.50097" lon="6.76065">
        <ele>383</ele>
        <time>2015-08-20T15:16:05.000Z</time>
      </trkpt>
      <trkpt lat="47.50098" lon="6.76069">
        <ele>383</ele>
        <time>2015-08-20T15:16:07.000Z</time>
      </trkpt>
      <trkpt lat="47.50099" lon="6.76071">
        <ele>383</ele>
        <time>2015-08-20T15:16:08.000Z</time>
      </trkpt>
      <trkpt lat="47.501" lon="6.76076">
        <ele>383</ele>
        <time>2015-08-20T15:16:10.000Z</time>
      </trkpt>
      <trkpt lat="47.50101" lon="6.7608">
        <ele>384</ele>
        <time>2015-08-20T15:16:11.000Z</time>
      </trkpt>
      <trkpt lat="47.50101" lon="6.76084">
        <ele>386</ele>
        <time>2015-08-20T15:16:12.000Z</time>
      </trkpt>
      <trkpt lat="47.50101" lon="6.76088">
        <ele>386</ele>
        <time>2015-08-20T15:16:13.000Z</time>
      </trkpt>
      <trkpt lat="47.50102" lon="6.76092">
        <ele>386</ele>
        <time>2015-08-20T15:16:14.000Z</time>
      </trkpt>
      <trkpt lat="47.50102" lon="6.76096">
        <ele>386</ele>
        <time>2015-08-20T15:16:15.000Z</time>
      </trkpt>
      <trkpt lat="47.50103" lon="6.761">
        <ele>386</ele>
        <time>2015-08-20T15:16:16.000Z</time>
      </trkpt>
      <trkpt lat="47.50103" lon="6.76104">
        <ele>386</ele>
        <time>2015-08-20T15:16:17.000Z</time>
      </trkpt>
      <trkpt lat="47.50104" lon="6.76107">
        <ele>386</ele>
        <time>2015-08-20T15:16:18.000Z</time>
      </trkpt>
      <trkpt lat="47.50105" lon="6.7611">
        <ele>386</ele>
        <time>2015-08-20T15:16:19.000Z</time>
      </trkpt>
      <trkpt lat="47.50106" lon="6.76116">
        <ele>386</ele>
        <time>2015-08-20T15:16:21.000Z</time>
      </trkpt>
      <trkpt lat="47.50106" lon="6.76119">
        <ele>386</ele>
        <time>2015-08-20T15:16:22.000Z</time>
      </trkpt>
      <trkpt lat="47.50107" lon="6.76125">
        <ele>386</ele>
        <time>2015-08-20T15:16:24.000Z</time>
      </trkpt>
      <trkpt lat="47.50108" lon="6.76127">
        <ele>386</ele>
        <time>2015-08-20T15:16:25.000Z</time>
      </trkpt>
      <trkpt lat="47.50109" lon="6.76133">
        <ele>386</ele>
        <time>2015-08-20T15:16:27.000Z</time>
      </trkpt>
      <trkpt lat="47.5011" lon="6.76136">
        <ele>386</ele>
        <time>2015-08-20T15:16:28.000Z</time>
      </trkpt>
      <trkpt lat="47.5011" lon="6.76139">
        <ele>386</ele>
        <time>2015-08-20T15:16:29.000Z</time>
      </trkpt>
      <trkpt lat="47.50111" lon="6.76143">
        <ele>386</ele>
        <time>2015-08-20T15:16:30.000Z</time>
      </trkpt>
      <trkpt lat="47.50112" lon="6.76149">
        <ele>387</ele>
        <time>2015-08-20T15:16:32.000Z</time>
      </trkpt>
      <trkpt lat="47.50112" lon="6.76151">
        <ele>387</ele>
        <time>2015-08-20T15:16:33.000Z</time>
      </trkpt>
      <trkpt lat="47.50112" lon="6.76156">
        <ele>387</ele>
        <time>2015-08-20T15:16:35.000Z</time>
      </trkpt>
      <trkpt lat="47.50112" lon="6.76158">
        <ele>387</ele>
        <time>2015-08-20T15:16:36.000Z</time>
      </trkpt>
      <trkpt lat="47.50112" lon="6.76161">
        <ele>387</ele>
        <time>2015-08-20T15:16:37.000Z</time>
      </trkpt>
      <trkpt lat="47.50113" lon="6.76165">
        <ele>387</ele>
        <time>2015-08-20T15:16:38.000Z</time>
      </trkpt>
      <trkpt lat="47.50113" lon="6.76169">
        <ele>391</ele>
        <time>2015-08-20T15:16:39.000Z</time>
      </trkpt>
      <trkpt lat="47.50114" lon="6.76173">
        <ele>391</ele>
        <time>2015-08-20T15:16:40.000Z</time>
      </trkpt>
      <trkpt lat="47.50114" lon="6.76177">
        <ele>391</ele>
        <time>2015-08-20T15:16:41.000Z</time>
      </trkpt>
      <trkpt lat="47.50114" lon="6.7618">
        <ele>391</ele>
        <time>2015-08-20T15:16:42.000Z</time>
      </trkpt>
      <trkpt lat="47.50114" lon="6.76186">
        <ele>391</ele>
        <time>2015-08-20T15:16:44.000Z</time>
      </trkpt>
      <trkpt lat="47.50115" lon="6.76189">
        <ele>391</ele>
        <time>2015-08-20T15:16:45.000Z</time>
      </trkpt>
      <trkpt lat="47.50115" lon="6.76193">
        <ele>391</ele>
        <time>2015-08-20T15:16:46.000Z</time>
      </trkpt>
      <trkpt lat="47.50116" lon="6.76196">
        <ele>391</ele>
        <time>2015-08-20T15:16:47.000Z</time>
      </trkpt>
      <trkpt lat="47.50117" lon="6.762">
        <ele>391</ele>
        <time>2015-08-20T15:16:48.000Z</time>
      </trkpt>
      <trkpt lat="47.50117" lon="6.76204">
        <ele>391</ele>
        <time>2015-08-20T15:16:49.000Z</time>
      </trkpt>
      <trkpt lat="47.50118" lon="6.76207">
        <ele>391</ele>
        <time>2015-08-20T15:16:50.000Z</time>
      </trkpt>
      <trkpt lat="47.50118" lon="6.7621">
        <ele>391</ele>
        <time>2015-08-20T15:16:51.000Z</time>
      </trkpt>
      <trkpt lat="47.50118" lon="6.76214">
        <ele>392</ele>
        <time>2015-08-20T15:16:52.000Z</time>
      </trkpt>
      <trkpt lat="47.50119" lon="6.76218">
        <ele>392</ele>
        <time>2015-08-20T15:16:53.000Z</time>
      </trkpt>
      <trkpt lat="47.50121" lon="6.76222">
        <ele>392</ele>
        <time>2015-08-20T15:16:54.000Z</time>
      </trkpt>
      <trkpt lat="47.50124" lon="6.76226">
        <ele>391</ele>
        <time>2015-08-20T15:16:55.000Z</time>
      </trkpt>
      <trkpt lat="47.50126" lon="6.7623">
        <ele>391</ele>
        <time>2015-08-20T15:16:56.000Z</time>
      </trkpt>
      <trkpt lat="47.50128" lon="6.76234">
        <ele>391</ele>
        <time>2015-08-20T15:16:57.000Z</time>
      </trkpt>
      <trkpt lat="47.5013" lon="6.76237">
        <ele>391</ele>
        <time>2015-08-20T15:16:58.000Z</time>
      </trkpt>
      <trkpt lat="47.50131" lon="6.76241">
        <ele>391</ele>
        <time>2015-08-20T15:16:59.000Z</time>
      </trkpt>
      <trkpt lat="47.50132" lon="6.76245">
        <ele>391</ele>
        <time>2015-08-20T15:17:00.000Z</time>
      </trkpt>
      <trkpt lat="47.50133" lon="6.76248">
        <ele>391</ele>
        <time>2015-08-20T15:17:01.000Z</time>
      </trkpt>
      <trkpt lat="47.50134" lon="6.76252">
        <ele>395</ele>
        <time>2015-08-20T15:17:02.000Z</time>
      </trkpt>
      <trkpt lat="47.50134" lon="6.76256">
        <ele>395</ele>
        <time>2015-08-20T15:17:03.000Z</time>
      </trkpt>
      <trkpt lat="47.50135" lon="6.76261">
        <ele>395</ele>
        <time>2015-08-20T15:17:04.000Z</time>
      </trkpt>
      <trkpt lat="47.50136" lon="6.76265">
        <ele>395</ele>
        <time>2015-08-20T15:17:05.000Z</time>
      </trkpt>
      <trkpt lat="47.50138" lon="6.7627">
        <ele>395</ele>
        <time>2015-08-20T15:17:06.000Z</time>
      </trkpt>
      <trkpt lat="47.50139" lon="6.76275">
        <ele>395</ele>
        <time>2015-08-20T15:17:07.000Z</time>
      </trkpt>
      <trkpt lat="47.50141" lon="6.7628">
        <ele>395</ele>
        <time>2015-08-20T15:17:08.000Z</time>
      </trkpt>
      <trkpt lat="47.50142" lon="6.76285">
        <ele>395</ele>
        <time>2015-08-20T15:17:09.000Z</time>
      </trkpt>
      <trkpt lat="47.50143" lon="6.7629">
        <ele>395</ele>
        <time>2015-08-20T15:17:10.000Z</time>
      </trkpt>
      <trkpt lat="47.50144" lon="6.76294">
        <ele>395</ele>
        <time>2015-08-20T15:17:11.000Z</time>
      </trkpt>
      <trkpt lat="47.50146" lon="6.76299">
        <ele>395</ele>
        <time>2015-08-20T15:17:12.000Z</time>
      </trkpt>
      <trkpt lat="47.50147" lon="6.76303">
        <ele>395</ele>
        <time>2015-08-20T15:17:13.000Z</time>
      </trkpt>
      <trkpt lat="47.50148" lon="6.76307">
        <ele>395</ele>
        <time>2015-08-20T15:17:14.000Z</time>
      </trkpt>
      <trkpt lat="47.50149" lon="6.7631">
        <ele>395</ele>
        <time>2015-08-20T15:17:15.000Z</time>
      </trkpt>
      <trkpt lat="47.5015" lon="6.76313">
        <ele>395</ele>
        <time>2015-08-20T15:17:16.000Z</time>
      </trkpt>
      <trkpt lat="47.50152" lon="6.76317">
        <ele>395</ele>
        <time>2015-08-20T15:17:17.000Z</time>
      </trkpt>
      <trkpt lat="47.50153" lon="6.7632">
        <ele>394</ele>
        <time>2015-08-20T15:17:18.000Z</time>
      </trkpt>
      <trkpt lat="47.50154" lon="6.76324">
        <ele>394</ele>
        <time>2015-08-20T15:17:19.000Z</time>
      </trkpt>
      <trkpt lat="47.50155" lon="6.76327">
        <ele>394</ele>
        <time>2015-08-20T15:17:20.000Z</time>
      </trkpt>
      <trkpt lat="47.50156" lon="6.7633">
        <ele>393</ele>
        <time>2015-08-20T15:17:21.000Z</time>
      </trkpt>
      <trkpt lat="47.50157" lon="6.76334">
        <ele>395</ele>
        <time>2015-08-20T15:17:22.000Z</time>
      </trkpt>
      <trkpt lat="47.50158" lon="6.76338">
        <ele>395</ele>
        <time>2015-08-20T15:17:23.000Z</time>
      </trkpt>
      <trkpt lat="47.50159" lon="6.76342">
        <ele>396</ele>
        <time>2015-08-20T15:17:24.000Z</time>
      </trkpt>
      <trkpt lat="47.5016" lon="6.76347">
        <ele>396</ele>
        <time>2015-08-20T15:17:25.000Z</time>
      </trkpt>
      <trkpt lat="47.50161" lon="6.76351">
        <ele>397</ele>
        <time>2015-08-20T15:17:26.000Z</time>
      </trkpt>
      <trkpt lat="47.50162" lon="6.76357">
        <ele>398</ele>
        <time>2015-08-20T15:17:27.000Z</time>
      </trkpt>
      <trkpt lat="47.50163" lon="6.76361">
        <ele>399</ele>
        <time>2015-08-20T15:17:28.000Z</time>
      </trkpt>
      <trkpt lat="47.50164" lon="6.76366">
        <ele>399</ele>
        <time>2015-08-20T15:17:29.000Z</time>
      </trkpt>
      <trkpt lat="47.50165" lon="6.76371">
        <ele>400</ele>
        <time>2015-08-20T15:17:30.000Z</time>
      </trkpt>
      <trkpt lat="47.50166" lon="6.76376">
        <ele>400</ele>
        <time>2015-08-20T15:17:31.000Z</time>
      </trkpt>
      <trkpt lat="47.50168" lon="6.76381">
        <ele>392</ele>
        <time>2015-08-20T15:17:32.000Z</time>
      </trkpt>
      <trkpt lat="47.50169" lon="6.76386">
        <ele>392</ele>
        <time>2015-08-20T15:17:33.000Z</time>
      </trkpt>
      <trkpt lat="47.5017" lon="6.7639">
        <ele>393</ele>
        <time>2015-08-20T15:17:34.000Z</time>
      </trkpt>
      <trkpt lat="47.50171" lon="6.76394">
        <ele>393</ele>
        <time>2015-08-20T15:17:35.000Z</time>
      </trkpt>
      <trkpt lat="47.50172" lon="6.76398">
        <ele>394</ele>
        <time>2015-08-20T15:17:36.000Z</time>
      </trkpt>
      <trkpt lat="47.50173" lon="6.76402">
        <ele>394</ele>
        <time>2015-08-20T15:17:37.000Z</time>
      </trkpt>
      <trkpt lat="47.50174" lon="6.76406">
        <ele>395</ele>
        <time>2015-08-20T15:17:38.000Z</time>
      </trkpt>
      <trkpt lat="47.50175" lon="6.7641">
        <ele>395</ele>
        <time>2015-08-20T15:17:39.000Z</time>
      </trkpt>
      <trkpt lat="47.50176" lon="6.76413">
        <ele>396</ele>
        <time>2015-08-20T15:17:40.000Z</time>
      </trkpt>
      <trkpt lat="47.50175" lon="6.76417">
        <ele>398</ele>
        <time>2015-08-20T15:17:41.000Z</time>
      </trkpt>
      <trkpt lat="47.50175" lon="6.76421">
        <ele>398</ele>
        <time>2015-08-20T15:17:42.000Z</time>
      </trkpt>
      <trkpt lat="47.50174" lon="6.76424">
        <ele>398</ele>
        <time>2015-08-20T15:17:43.000Z</time>
      </trkpt>
      <trkpt lat="47.50174" lon="6.76428">
        <ele>397</ele>
        <time>2015-08-20T15:17:44.000Z</time>
      </trkpt>
      <trkpt lat="47.50175" lon="6.76432">
        <ele>397</ele>
        <time>2015-08-20T15:17:45.000Z</time>
      </trkpt>
      <trkpt lat="47.50176" lon="6.76435">
        <ele>397</ele>
        <time>2015-08-20T15:17:46.000Z</time>
      </trkpt>
      <trkpt lat="47.50177" lon="6.76439">
        <ele>397</ele>
        <time>2015-08-20T15:17:47.000Z</time>
      </trkpt>
      <trkpt lat="47.50178" lon="6.76442">
        <ele>397</ele>
        <time>2015-08-20T15:17:48.000Z</time>
      </trkpt>
      <trkpt lat="47.5018" lon="6.76446">
        <ele>397</ele>
        <time>2015-08-20T15:17:49.000Z</time>
      </trkpt>
      <trkpt lat="47.50181" lon="6.7645">
        <ele>397</ele>
        <time>2015-08-20T15:17:50.000Z</time>
      </trkpt>
      <trkpt lat="47.50182" lon="6.76453">
        <ele>397</ele>
        <time>2015-08-20T15:17:51.000Z</time>
      </trkpt>
      <trkpt lat="47.50183" lon="6.76456">
        <ele>397</ele>
        <time>2015-08-20T15:17:52.000Z</time>
      </trkpt>
      <trkpt lat="47.50184" lon="6.7646">
        <ele>397</ele>
        <time>2015-08-20T15:17:53.000Z</time>
      </trkpt>
      <trkpt lat="47.50185" lon="6.76464">
        <ele>397</ele>
        <time>2015-08-20T15:17:54.000Z</time>
      </trkpt>
      <trkpt lat="47.50187" lon="6.76469">
        <ele>398</ele>
        <time>2015-08-20T15:17:55.000Z</time>
      </trkpt>
      <trkpt lat="47.50188" lon="6.76473">
        <ele>398</ele>
        <time>2015-08-20T15:17:56.000Z</time>
      </trkpt>
      <trkpt lat="47.5019" lon="6.76476">
        <ele>398</ele>
        <time>2015-08-20T15:17:57.000Z</time>
      </trkpt>
      <trkpt lat="47.50192" lon="6.76479">
        <ele>398</ele>
        <time>2015-08-20T15:17:58.000Z</time>
      </trkpt>
      <trkpt lat="47.50194" lon="6.76482">
        <ele>398</ele>
        <time>2015-08-20T15:17:59.000Z</time>
      </trkpt>
      <trkpt lat="47.50197" lon="6.76485">
        <ele>398</ele>
        <time>2015-08-20T15:18:00.000Z</time>
      </trkpt>
      <trkpt lat="47.50199" lon="6.76488">
        <ele>398</ele>
        <time>2015-08-20T15:18:01.000Z</time>
      </trkpt>
      <trkpt lat="47.50202" lon="6.76491">
        <ele>397</ele>
        <time>2015-08-20T15:18:02.000Z</time>
      </trkpt>
      <trkpt lat="47.50204" lon="6.76494">
        <ele>397</ele>
        <time>2015-08-20T15:18:03.000Z</time>
      </trkpt>
      <trkpt lat="47.50206" lon="6.76498">
        <ele>397</ele>
        <time>2015-08-20T15:18:04.000Z</time>
      </trkpt>
      <trkpt lat="47.50206" lon="6.76501">
        <ele>400</ele>
        <time>2015-08-20T15:18:05.000Z</time>
      </trkpt>
      <trkpt lat="47.50206" lon="6.76505">
        <ele>400</ele>
        <time>2015-08-20T15:18:06.000Z</time>
      </trkpt>
      <trkpt lat="47.50207" lon="6.76508">
        <ele>400</ele>
        <time>2015-08-20T15:18:07.000Z</time>
      </trkpt>
      <trkpt lat="47.50207" lon="6.76512">
        <ele>400</ele>
        <time>2015-08-20T15:18:08.000Z</time>
      </trkpt>
      <trkpt lat="47.50207" lon="6.76515">
        <ele>400</ele>
        <time>2015-08-20T15:18:09.000Z</time>
      </trkpt>
      <trkpt lat="47.50208" lon="6.76521">
        <ele>400</ele>
        <time>2015-08-20T15:18:11.000Z</time>
      </trkpt>
      <trkpt lat="47.50209" lon="6.76524">
        <ele>400</ele>
        <time>2015-08-20T15:18:12.000Z</time>
      </trkpt>
      <trkpt lat="47.50209" lon="6.7653">
        <ele>400</ele>
        <time>2015-08-20T15:18:14.000Z</time>
      </trkpt>
      <trkpt lat="47.5021" lon="6.76533">
        <ele>400</ele>
        <time>2015-08-20T15:18:15.000Z</time>
      </trkpt>
      <trkpt lat="47.50211" lon="6.76539">
        <ele>401</ele>
        <time>2015-08-20T15:18:17.000Z</time>
      </trkpt>
      <trkpt lat="47.50211" lon="6.76541">
        <ele>401</ele>
        <time>2015-08-20T15:18:18.000Z</time>
      </trkpt>
      <trkpt lat="47.50209" lon="6.76547">
        <ele>401</ele>
        <time>2015-08-20T15:18:21.000Z</time>
      </trkpt>
      <trkpt lat="47.50209" lon="6.76548">
        <ele>401</ele>
        <time>2015-08-20T15:18:22.000Z</time>
      </trkpt>
      <trkpt lat="47.50207" lon="6.76554">
        <ele>401</ele>
        <time>2015-08-20T15:18:32.000Z</time>
      </trkpt>
      <trkpt lat="47.50206" lon="6.76554">
        <ele>401</ele>
        <time>2015-08-20T15:18:33.000Z</time>
      </trkpt>
      <trkpt lat="47.50204" lon="6.76555">
        <ele>401</ele>
        <time>2015-08-20T15:18:35.000Z</time>
      </trkpt>
      <trkpt lat="47.50202" lon="6.76555">
        <ele>401</ele>
        <time>2015-08-20T15:18:36.000Z</time>
      </trkpt>
      <trkpt lat="47.50198" lon="6.76557">
        <ele>402</ele>
        <time>2015-08-20T15:18:38.000Z</time>
      </trkpt>
      <trkpt lat="47.50196" lon="6.76559">
        <ele>402</ele>
        <time>2015-08-20T15:18:39.000Z</time>
      </trkpt>
      <trkpt lat="47.50196" lon="6.76563">
        <ele>402</ele>
        <time>2015-08-20T15:18:40.000Z</time>
      </trkpt>
      <trkpt lat="47.50195" lon="6.76567">
        <ele>402</ele>
        <time>2015-08-20T15:18:41.000Z</time>
      </trkpt>
      <trkpt lat="47.50195" lon="6.76572">
        <ele>402</ele>
        <time>2015-08-20T15:18:42.000Z</time>
      </trkpt>
      <trkpt lat="47.50196" lon="6.76576">
        <ele>402</ele>
        <time>2015-08-20T15:18:43.000Z</time>
      </trkpt>
      <trkpt lat="47.50196" lon="6.7658">
        <ele>402</ele>
        <time>2015-08-20T15:18:44.000Z</time>
      </trkpt>
      <trkpt lat="47.50197" lon="6.76584">
        <ele>403</ele>
        <time>2015-08-20T15:18:45.000Z</time>
      </trkpt>
      <trkpt lat="47.50197" lon="6.76588">
        <ele>403</ele>
        <time>2015-08-20T15:18:46.000Z</time>
      </trkpt>
      <trkpt lat="47.50197" lon="6.76591">
        <ele>403</ele>
        <time>2015-08-20T15:18:47.000Z</time>
      </trkpt>
      <trkpt lat="47.50197" lon="6.76595">
        <ele>403</ele>
        <time>2015-08-20T15:18:48.000Z</time>
      </trkpt>
      <trkpt lat="47.50198" lon="6.76598">
        <ele>403</ele>
        <time>2015-08-20T15:18:49.000Z</time>
      </trkpt>
      <trkpt lat="47.50199" lon="6.76604">
        <ele>403</ele>
        <time>2015-08-20T15:18:51.000Z</time>
      </trkpt>
      <trkpt lat="47.50198" lon="6.76606">
        <ele>403</ele>
        <time>2015-08-20T15:18:52.000Z</time>
      </trkpt>
      <trkpt lat="47.50197" lon="6.76613">
        <ele>403</ele>
        <time>2015-08-20T15:19:42.000Z</time>
      </trkpt>
      <trkpt lat="47.50198" lon="6.76614">
        <ele>403</ele>
        <time>2015-08-20T15:19:43.000Z</time>
      </trkpt>
      <trkpt lat="47.502" lon="6.76619">
        <ele>402</ele>
        <time>2015-08-20T15:19:45.000Z</time>
      </trkpt>
      <trkpt lat="47.50201" lon="6.76623">
        <ele>402</ele>
        <time>2015-08-20T15:19:46.000Z</time>
      </trkpt>
      <trkpt lat="47.50202" lon="6.76627">
        <ele>402</ele>
        <time>2015-08-20T15:19:47.000Z</time>
      </trkpt>
      <trkpt lat="47.50203" lon="6.76631">
        <ele>402</ele>
        <time>2015-08-20T15:19:48.000Z</time>
      </trkpt>
      <trkpt lat="47.50205" lon="6.76636">
        <ele>402</ele>
        <time>2015-08-20T15:19:49.000Z</time>
      </trkpt>
      <trkpt lat="47.50206" lon="6.7664">
        <ele>402</ele>
        <time>2015-08-20T15:19:50.000Z</time>
      </trkpt>
      <trkpt lat="47.50207" lon="6.76644">
        <ele>402</ele>
        <time>2015-08-20T15:19:51.000Z</time>
      </trkpt>
      <trkpt lat="47.50208" lon="6.76648">
        <ele>402</ele>
        <time>2015-08-20T15:19:52.000Z</time>
      </trkpt>
      <trkpt lat="47.50209" lon="6.76652">
        <ele>402</ele>
        <time>2015-08-20T15:19:53.000Z</time>
      </trkpt>
      <trkpt lat="47.5021" lon="6.76656">
        <ele>402</ele>
        <time>2015-08-20T15:19:54.000Z</time>
      </trkpt>
      <trkpt lat="47.50211" lon="6.7666">
        <ele>402</ele>
        <time>2015-08-20T15:19:55.000Z</time>
      </trkpt>
      <trkpt lat="47.50213" lon="6.76664">
        <ele>402</ele>
        <time>2015-08-20T15:19:56.000Z</time>
      </trkpt>
      <trkpt lat="47.50214" lon="6.76669">
        <ele>402</ele>
        <time>2015-08-20T15:19:57.000Z</time>
      </trkpt>
      <trkpt lat="47.50215" lon="6.76673">
        <ele>402</ele>
        <time>2015-08-20T15:19:58.000Z</time>
      </trkpt>
      <trkpt lat="47.50216" lon="6.76677">
        <ele>402</ele>
        <time>2015-08-20T15:19:59.000Z</time>
      </trkpt>
      <trkpt lat="47.50217" lon="6.76681">
        <ele>402</ele>
        <time>2015-08-20T15:20:00.000Z</time>
      </trkpt>
      <trkpt lat="47.50218" lon="6.76685">
        <ele>402</ele>
        <time>2015-08-20T15:20:01.000Z</time>
      </trkpt>
      <trkpt lat="47.50219" lon="6.76689">
        <ele>402</ele>
        <time>2015-08-20T15:20:02.001Z</time>
      </trkpt>
      <trkpt lat="47.5022" lon="6.76693">
        <ele>402</ele>
        <time>2015-08-20T15:20:03.001Z</time>
      </trkpt>
      <trkpt lat="47.5022" lon="6.76698">
        <ele>402</ele>
        <time>2015-08-20T15:20:04.000Z</time>
      </trkpt>
      <trkpt lat="47.50222" lon="6.76702">
        <ele>402</ele>
        <time>2015-08-20T15:20:05.000Z</time>
      </trkpt>
      <trkpt lat="47.50223" lon="6.76706">
        <ele>402</ele>
        <time>2015-08-20T15:20:06.000Z</time>
      </trkpt>
      <trkpt lat="47.50224" lon="6.7671">
        <ele>402</ele>
        <time>2015-08-20T15:20:06.999Z</time>
      </trkpt>
      <trkpt lat="47.50226" lon="6.76713">
        <ele>402</ele>
        <time>2015-08-20T15:20:08.000Z</time>
      </trkpt>
      <trkpt lat="47.50227" lon="6.76716">
        <ele>402</ele>
        <time>2015-08-20T15:20:09.000Z</time>
      </trkpt>
      <trkpt lat="47.50228" lon="6.7672">
        <ele>402</ele>
        <time>2015-08-20T15:20:10.001Z</time>
      </trkpt>
      <trkpt lat="47.50231" lon="6.76723">
        <ele>402</ele>
        <time>2015-08-20T15:20:11.000Z</time>
      </trkpt>
      <trkpt lat="47.50233" lon="6.76726">
        <ele>402</ele>
        <time>2015-08-20T15:20:12.000Z</time>
      </trkpt>
      <trkpt lat="47.50235" lon="6.76729">
        <ele>401</ele>
        <time>2015-08-20T15:20:13.000Z</time>
      </trkpt>
      <trkpt lat="47.50238" lon="6.76732">
        <ele>401</ele>
        <time>2015-08-20T15:20:14.000Z</time>
      </trkpt>
      <trkpt lat="47.5024" lon="6.76735">
        <ele>401</ele>
        <time>2015-08-20T15:20:15.000Z</time>
      </trkpt>
      <trkpt lat="47.50243" lon="6.76738">
        <ele>401</ele>
        <time>2015-08-20T15:20:16.000Z</time>
      </trkpt>
      <trkpt lat="47.50246" lon="6.76741">
        <ele>401</ele>
        <time>2015-08-20T15:20:17.000Z</time>
      </trkpt>
      <trkpt lat="47.50249" lon="6.76743">
        <ele>401</ele>
        <time>2015-08-20T15:20:18.000Z</time>
      </trkpt>
      <trkpt lat="47.50252" lon="6.76745">
        <ele>400</ele>
        <time>2015-08-20T15:20:19.000Z</time>
      </trkpt>
      <trkpt lat="47.50256" lon="6.76745">
        <ele>400</ele>
        <time>2015-08-20T15:20:20.000Z</time>
      </trkpt>
      <trkpt lat="47.50259" lon="6.76745">
        <ele>399</ele>
        <time>2015-08-20T15:20:21.000Z</time>
      </trkpt>
      <trkpt lat="47.50263" lon="6.76744">
        <ele>399</ele>
        <time>2015-08-20T15:20:22.000Z</time>
      </trkpt>
      <trkpt lat="47.50266" lon="6.76742">
        <ele>399</ele>
        <time>2015-08-20T15:20:23.000Z</time>
      </trkpt>
      <trkpt lat="47.5027" lon="6.7674">
        <ele>399</ele>
        <time>2015-08-20T15:20:24.000Z</time>
      </trkpt>
      <trkpt lat="47.50273" lon="6.76739">
        <ele>399</ele>
        <time>2015-08-20T15:20:24.999Z</time>
      </trkpt>
      <trkpt lat="47.50277" lon="6.76737">
        <ele>399</ele>
        <time>2015-08-20T15:20:26.000Z</time>
      </trkpt>
      <trkpt lat="47.5028" lon="6.76736">
        <ele>399</ele>
        <time>2015-08-20T15:20:26.999Z</time>
      </trkpt>
      <trkpt lat="47.50284" lon="6.76735">
        <ele>399</ele>
        <time>2015-08-20T15:20:28.000Z</time>
      </trkpt>
      <trkpt lat="47.50288" lon="6.76733">
        <ele>399</ele>
        <time>2015-08-20T15:20:29.000Z</time>
      </trkpt>
      <trkpt lat="47.50292" lon="6.76732">
        <ele>399</ele>
        <time>2015-08-20T15:20:30.000Z</time>
      </trkpt>
      <trkpt lat="47.50296" lon="6.76731">
        <ele>399</ele>
        <time>2015-08-20T15:20:31.000Z</time>
      </trkpt>
      <trkpt lat="47.503" lon="6.76731">
        <ele>399</ele>
        <time>2015-08-20T15:20:32.000Z</time>
      </trkpt>
      <trkpt lat="47.50304" lon="6.7673">
        <ele>398</ele>
        <time>2015-08-20T15:20:33.000Z</time>
      </trkpt>
      <trkpt lat="47.50308" lon="6.7673">
        <ele>398</ele>
        <time>2015-08-20T15:20:33.999Z</time>
      </trkpt>
      <trkpt lat="47.50312" lon="6.7673">
        <ele>398</ele>
        <time>2015-08-20T15:20:35.000Z</time>
      </trkpt>
      <trkpt lat="47.50315" lon="6.76729">
        <ele>398</ele>
        <time>2015-08-20T15:20:36.000Z</time>
      </trkpt>
      <trkpt lat="47.50319" lon="6.76728">
        <ele>398</ele>
        <time>2015-08-20T15:20:37.000Z</time>
      </trkpt>
      <trkpt lat="47.50322" lon="6.76727">
        <ele>398</ele>
        <time>2015-08-20T15:20:38.000Z</time>
      </trkpt>
      <trkpt lat="47.50326" lon="6.76725">
        <ele>398</ele>
        <time>2015-08-20T15:20:39.000Z</time>
      </trkpt>
      <trkpt lat="47.50329" lon="6.76723">
        <ele>398</ele>
        <time>2015-08-20T15:20:40.000Z</time>
      </trkpt>
      <trkpt lat="47.50333" lon="6.76721">
        <ele>398</ele>
        <time>2015-08-20T15:20:41.000Z</time>
      </trkpt>
      <trkpt lat="47.50337" lon="6.7672">
        <ele>398</ele>
        <time>2015-08-20T15:20:42.000Z</time>
      </trkpt>
      <trkpt lat="47.5034" lon="6.76718">
        <ele>398</ele>
        <time>2015-08-20T15:20:43.000Z</time>
      </trkpt>
      <trkpt lat="47.50344" lon="6.76717">
        <ele>398</ele>
        <time>2015-08-20T15:20:44.000Z</time>
      </trkpt>
      <trkpt lat="47.50348" lon="6.76719">
        <ele>398</ele>
        <time>2015-08-20T15:20:45.000Z</time>
      </trkpt>
      <trkpt lat="47.50352" lon="6.76717">
        <ele>398</ele>
        <time>2015-08-20T15:20:46.000Z</time>
      </trkpt>
      <trkpt lat="47.50356" lon="6.76715">
        <ele>398</ele>
        <time>2015-08-20T15:20:47.000Z</time>
      </trkpt>
      <trkpt lat="47.50359" lon="6.76713">
        <ele>398</ele>
        <time>2015-08-20T15:20:48.000Z</time>
      </trkpt>
      <trkpt lat="47.50363" lon="6.76711">
        <ele>398</ele>
        <time>2015-08-20T15:20:49.000Z</time>
      </trkpt>
      <trkpt lat="47.50367" lon="6.76709">
        <ele>398</ele>
        <time>2015-08-20T15:20:50.000Z</time>
      </trkpt>
      <trkpt lat="47.50372" lon="6.76708">
        <ele>397</ele>
        <time>2015-08-20T15:20:51.000Z</time>
      </trkpt>
      <trkpt lat="47.50375" lon="6.76707">
        <ele>397</ele>
        <time>2015-08-20T15:20:52.000Z</time>
      </trkpt>
      <trkpt lat="47.50379" lon="6.76706">
        <ele>397</ele>
        <time>2015-08-20T15:20:53.000Z</time>
      </trkpt>
      <trkpt lat="47.50383" lon="6.76704">
        <ele>397</ele>
        <time>2015-08-20T15:20:54.000Z</time>
      </trkpt>
      <trkpt lat="47.50388" lon="6.76702">
        <ele>397</ele>
        <time>2015-08-20T15:20:55.000Z</time>
      </trkpt>
      <trkpt lat="47.50393" lon="6.767">
        <ele>397</ele>
        <time>2015-08-20T15:20:56.000Z</time>
      </trkpt>
      <trkpt lat="47.50397" lon="6.76698">
        <ele>397</ele>
        <time>2015-08-20T15:20:57.000Z</time>
      </trkpt>
      <trkpt lat="47.504" lon="6.76695">
        <ele>397</ele>
        <time>2015-08-20T15:20:58.000Z</time>
      </trkpt>
      <trkpt lat="47.50403" lon="6.76693">
        <ele>397</ele>
        <time>2015-08-20T15:20:59.000Z</time>
      </trkpt>
      <trkpt lat="47.50408" lon="6.76691">
        <ele>397</ele>
        <time>2015-08-20T15:21:00.000Z</time>
      </trkpt>
      <trkpt lat="47.50412" lon="6.76688">
        <ele>397</ele>
        <time>2015-08-20T15:21:01.001Z</time>
      </trkpt>
      <trkpt lat="47.50416" lon="6.76688">
        <ele>397</ele>
        <time>2015-08-20T15:21:02.000Z</time>
      </trkpt>
      <trkpt lat="47.5042" lon="6.76687">
        <ele>397</ele>
        <time>2015-08-20T15:21:03.000Z</time>
      </trkpt>
      <trkpt lat="47.50423" lon="6.76686">
        <ele>397</ele>
        <time>2015-08-20T15:21:04.000Z</time>
      </trkpt>
      <trkpt lat="47.50427" lon="6.76685">
        <ele>397</ele>
        <time>2015-08-20T15:21:05.000Z</time>
      </trkpt>
      <trkpt lat="47.5043" lon="6.76685">
        <ele>397</ele>
        <time>2015-08-20T15:21:06.000Z</time>
      </trkpt>
      <trkpt lat="47.50434" lon="6.76684">
        <ele>397</ele>
        <time>2015-08-20T15:21:07.000Z</time>
      </trkpt>
      <trkpt lat="47.50438" lon="6.76683">
        <ele>397</ele>
        <time>2015-08-20T15:21:08.000Z</time>
      </trkpt>
      <trkpt lat="47.50442" lon="6.76681">
        <ele>397</ele>
        <time>2015-08-20T15:21:09.000Z</time>
      </trkpt>
      <trkpt lat="47.50446" lon="6.76679">
        <ele>397</ele>
        <time>2015-08-20T15:21:10.000Z</time>
      </trkpt>
      <trkpt lat="47.50449" lon="6.76678">
        <ele>397</ele>
        <time>2015-08-20T15:21:11.000Z</time>
      </trkpt>
      <trkpt lat="47.50453" lon="6.76676">
        <ele>397</ele>
        <time>2015-08-20T15:21:12.000Z</time>
      </trkpt>
      <trkpt lat="47.50456" lon="6.76674">
        <ele>397</ele>
        <time>2015-08-20T15:21:13.000Z</time>
      </trkpt>
      <trkpt lat="47.5046" lon="6.76673">
        <ele>397</ele>
        <time>2015-08-20T15:21:14.000Z</time>
      </trkpt>
      <trkpt lat="47.50464" lon="6.76672">
        <ele>397</ele>
        <time>2015-08-20T15:21:15.000Z</time>
      </trkpt>
      <trkpt lat="47.50467" lon="6.76671">
        <ele>397</ele>
        <time>2015-08-20T15:21:16.000Z</time>
      </trkpt>
      <trkpt lat="47.50471" lon="6.76669">
        <ele>397</ele>
        <time>2015-08-20T15:21:16.999Z</time>
      </trkpt>
      <trkpt lat="47.50474" lon="6.76668">
        <ele>397</ele>
        <time>2015-08-20T15:21:18.000Z</time>
      </trkpt>
      <trkpt lat="47.50478" lon="6.76667">
        <ele>398</ele>
        <time>2015-08-20T15:21:19.000Z</time>
      </trkpt>
      <trkpt lat="47.50482" lon="6.76665">
        <ele>399</ele>
        <time>2015-08-20T15:21:20.000Z</time>
      </trkpt>
      <trkpt lat="47.50485" lon="6.76664">
        <ele>399</ele>
        <time>2015-08-20T15:21:21.000Z</time>
      </trkpt>
      <trkpt lat="47.50488" lon="6.76663">
        <ele>399</ele>
        <time>2015-08-20T15:21:22.000Z</time>
      </trkpt>
      <trkpt lat="47.50491" lon="6.76662">
        <ele>399</ele>
        <time>2015-08-20T15:21:23.000Z</time>
      </trkpt>
      <trkpt lat="47.50494" lon="6.76661">
        <ele>399</ele>
        <time>2015-08-20T15:21:24.000Z</time>
      </trkpt>
      <trkpt lat="47.50497" lon="6.7666">
        <ele>399</ele>
        <time>2015-08-20T15:21:25.000Z</time>
      </trkpt>
      <trkpt lat="47.505" lon="6.76658">
        <ele>399</ele>
        <time>2015-08-20T15:21:26.000Z</time>
      </trkpt>
      <trkpt lat="47.50503" lon="6.76656">
        <ele>399</ele>
        <time>2015-08-20T15:21:27.000Z</time>
      </trkpt>
      <trkpt lat="47.50506" lon="6.76655">
        <ele>399</ele>
        <time>2015-08-20T15:21:28.000Z</time>
      </trkpt>
      <trkpt lat="47.5051" lon="6.76653">
        <ele>399</ele>
        <time>2015-08-20T15:21:29.000Z</time>
      </trkpt>
      <trkpt lat="47.50513" lon="6.76652">
        <ele>399</ele>
        <time>2015-08-20T15:21:30.000Z</time>
      </trkpt>
      <trkpt lat="47.50517" lon="6.76651">
        <ele>399</ele>
        <time>2015-08-20T15:21:31.000Z</time>
      </trkpt>
      <trkpt lat="47.50521" lon="6.7665">
        <ele>399</ele>
        <time>2015-08-20T15:21:32.000Z</time>
      </trkpt>
      <trkpt lat="47.50524" lon="6.76648">
        <ele>399</ele>
        <time>2015-08-20T15:21:33.000Z</time>
      </trkpt>
      <trkpt lat="47.50528" lon="6.76646">
        <ele>399</ele>
        <time>2015-08-20T15:21:34.000Z</time>
      </trkpt>
      <trkpt lat="47.50531" lon="6.76645">
        <ele>399</ele>
        <time>2015-08-20T15:21:35.000Z</time>
      </trkpt>
      <trkpt lat="47.50536" lon="6.76646">
        <ele>399</ele>
        <time>2015-08-20T15:21:36.000Z</time>
      </trkpt>
      <trkpt lat="47.50541" lon="6.76645">
        <ele>399</ele>
        <time>2015-08-20T15:21:37.000Z</time>
      </trkpt>
      <trkpt lat="47.50544" lon="6.76644">
        <ele>399</ele>
        <time>2015-08-20T15:21:38.000Z</time>
      </trkpt>
      <trkpt lat="47.50548" lon="6.76644">
        <ele>399</ele>
        <time>2015-08-20T15:21:39.000Z</time>
      </trkpt>
      <trkpt lat="47.50552" lon="6.76643">
        <ele>399</ele>
        <time>2015-08-20T15:21:40.000Z</time>
      </trkpt>
      <trkpt lat="47.50556" lon="6.76642">
        <ele>399</ele>
        <time>2015-08-20T15:21:41.000Z</time>
      </trkpt>
      <trkpt lat="47.5056" lon="6.76641">
        <ele>399</ele>
        <time>2015-08-20T15:21:42.000Z</time>
      </trkpt>
      <trkpt lat="47.50563" lon="6.7664">
        <ele>399</ele>
        <time>2015-08-20T15:21:43.000Z</time>
      </trkpt>
      <trkpt lat="47.50566" lon="6.76639">
        <ele>399</ele>
        <time>2015-08-20T15:21:44.000Z</time>
      </trkpt>
      <trkpt lat="47.50569" lon="6.76637">
        <ele>399</ele>
        <time>2015-08-20T15:21:45.000Z</time>
      </trkpt>
      <trkpt lat="47.50572" lon="6.76636">
        <ele>399</ele>
        <time>2015-08-20T15:21:46.000Z</time>
      </trkpt>
      <trkpt lat="47.50576" lon="6.76635">
        <ele>399</ele>
        <time>2015-08-20T15:21:47.000Z</time>
      </trkpt>
      <trkpt lat="47.50579" lon="6.76634">
        <ele>399</ele>
        <time>2015-08-20T15:21:48.000Z</time>
      </trkpt>
      <trkpt lat="47.50584" lon="6.76632">
        <ele>398</ele>
        <time>2015-08-20T15:21:49.000Z</time>
      </trkpt>
      <trkpt lat="47.5059" lon="6.76629">
        <ele>398</ele>
        <time>2015-08-20T15:21:50.000Z</time>
      </trkpt>
      <trkpt lat="47.50594" lon="6.76627">
        <ele>398</ele>
        <time>2015-08-20T15:21:51.000Z</time>
      </trkpt>
      <trkpt lat="47.50599" lon="6.76625">
        <ele>398</ele>
        <time>2015-08-20T15:21:52.000Z</time>
      </trkpt>
      <trkpt lat="47.50604" lon="6.76623">
        <ele>398</ele>
        <time>2015-08-20T15:21:53.000Z</time>
      </trkpt>
      <trkpt lat="47.50608" lon="6.76622">
        <ele>398</ele>
        <time>2015-08-20T15:21:54.000Z</time>
      </trkpt>
      <trkpt lat="47.50613" lon="6.76618">
        <ele>397</ele>
        <time>2015-08-20T15:21:55.000Z</time>
      </trkpt>
      <trkpt lat="47.50618" lon="6.76616">
        <ele>397</ele>
        <time>2015-08-20T15:21:56.000Z</time>
      </trkpt>
      <trkpt lat="47.50623" lon="6.76613">
        <ele>397</ele>
        <time>2015-08-20T15:21:57.000Z</time>
      </trkpt>
      <trkpt lat="47.50627" lon="6.76611">
        <ele>397</ele>
        <time>2015-08-20T15:21:58.000Z</time>
      </trkpt>
      <trkpt lat="47.50632" lon="6.76607">
        <ele>397</ele>
        <time>2015-08-20T15:21:59.000Z</time>
      </trkpt>
      <trkpt lat="47.50636" lon="6.76604">
        <ele>397</ele>
        <time>2015-08-20T15:22:00.000Z</time>
      </trkpt>
      <trkpt lat="47.50641" lon="6.76601">
        <ele>397</ele>
        <time>2015-08-20T15:22:01.000Z</time>
      </trkpt>
      <trkpt lat="47.50646" lon="6.76599">
        <ele>397</ele>
        <time>2015-08-20T15:22:02.000Z</time>
      </trkpt>
      <trkpt lat="47.5065" lon="6.76597">
        <ele>397</ele>
        <time>2015-08-20T15:22:03.000Z</time>
      </trkpt>
      <trkpt lat="47.50655" lon="6.76598">
        <ele>397</ele>
        <time>2015-08-20T15:22:04.000Z</time>
      </trkpt>
      <trkpt lat="47.50659" lon="6.76596">
        <ele>397</ele>
        <time>2015-08-20T15:22:05.000Z</time>
      </trkpt>
      <trkpt lat="47.50663" lon="6.76594">
        <ele>397</ele>
        <time>2015-08-20T15:22:06.000Z</time>
      </trkpt>
      <trkpt lat="47.50668" lon="6.76592">
        <ele>396</ele>
        <time>2015-08-20T15:22:07.000Z</time>
      </trkpt>
      <trkpt lat="47.50672" lon="6.76591">
        <ele>396</ele>
        <time>2015-08-20T15:22:08.000Z</time>
      </trkpt>
      <trkpt lat="47.50677" lon="6.76592">
        <ele>396</ele>
        <time>2015-08-20T15:22:09.000Z</time>
      </trkpt>
      <trkpt lat="47.50682" lon="6.7659">
        <ele>396</ele>
        <time>2015-08-20T15:22:10.000Z</time>
      </trkpt>
      <trkpt lat="47.50689" lon="6.76591">
        <ele>395</ele>
        <time>2015-08-20T15:22:11.000Z</time>
      </trkpt>
      <trkpt lat="47.50693" lon="6.76592">
        <ele>395</ele>
        <time>2015-08-20T15:22:12.000Z</time>
      </trkpt>
      <trkpt lat="47.50697" lon="6.76591">
        <ele>395</ele>
        <time>2015-08-20T15:22:13.000Z</time>
      </trkpt>
      <trkpt lat="47.50702" lon="6.76589">
        <ele>395</ele>
        <time>2015-08-20T15:22:14.000Z</time>
      </trkpt>
      <trkpt lat="47.50705" lon="6.76592">
        <ele>395</ele>
        <time>2015-08-20T15:22:15.000Z</time>
      </trkpt>
      <trkpt lat="47.50711" lon="6.76592">
        <ele>395</ele>
        <time>2015-08-20T15:22:16.000Z</time>
      </trkpt>
      <trkpt lat="47.50717" lon="6.76594">
        <ele>394</ele>
        <time>2015-08-20T15:22:17.000Z</time>
      </trkpt>
      <trkpt lat="47.50721" lon="6.76596">
        <ele>394</ele>
        <time>2015-08-20T15:22:18.000Z</time>
      </trkpt>
      <trkpt lat="47.50726" lon="6.76597">
        <ele>394</ele>
        <time>2015-08-20T15:22:19.000Z</time>
      </trkpt>
      <trkpt lat="47.5073" lon="6.76597">
        <ele>394</ele>
        <time>2015-08-20T15:22:20.001Z</time>
      </trkpt>
      <trkpt lat="47.50736" lon="6.76598">
        <ele>394</ele>
        <time>2015-08-20T15:22:21.000Z</time>
      </trkpt>
      <trkpt lat="47.5074" lon="6.76599">
        <ele>394</ele>
        <time>2015-08-20T15:22:22.000Z</time>
      </trkpt>
      <trkpt lat="47.50744" lon="6.766">
        <ele>394</ele>
        <time>2015-08-20T15:22:23.000Z</time>
      </trkpt>
      <trkpt lat="47.50748" lon="6.766">
        <ele>394</ele>
        <time>2015-08-20T15:22:24.000Z</time>
      </trkpt>
      <trkpt lat="47.50752" lon="6.76601">
        <ele>392</ele>
        <time>2015-08-20T15:22:25.000Z</time>
      </trkpt>
      <trkpt lat="47.50756" lon="6.76602">
        <ele>392</ele>
        <time>2015-08-20T15:22:26.000Z</time>
      </trkpt>
      <trkpt lat="47.5076" lon="6.76602">
        <ele>392</ele>
        <time>2015-08-20T15:22:27.000Z</time>
      </trkpt>
      <trkpt lat="47.50764" lon="6.766">
        <ele>392</ele>
        <time>2015-08-20T15:22:28.000Z</time>
      </trkpt>
      <trkpt lat="47.50768" lon="6.76598">
        <ele>392</ele>
        <time>2015-08-20T15:22:29.000Z</time>
      </trkpt>
      <trkpt lat="47.50772" lon="6.76597">
        <ele>392</ele>
        <time>2015-08-20T15:22:30.000Z</time>
      </trkpt>
      <trkpt lat="47.50776" lon="6.76596">
        <ele>392</ele>
        <time>2015-08-20T15:22:31.000Z</time>
      </trkpt>
      <trkpt lat="47.50781" lon="6.76596">
        <ele>391</ele>
        <time>2015-08-20T15:22:32.000Z</time>
      </trkpt>
      <trkpt lat="47.50787" lon="6.76594">
        <ele>391</ele>
        <time>2015-08-20T15:22:33.000Z</time>
      </trkpt>
      <trkpt lat="47.50792" lon="6.76592">
        <ele>391</ele>
        <time>2015-08-20T15:22:34.000Z</time>
      </trkpt>
      <trkpt lat="47.50797" lon="6.7659">
        <ele>391</ele>
        <time>2015-08-20T15:22:35.000Z</time>
      </trkpt>
      <trkpt lat="47.50802" lon="6.76589">
        <ele>391</ele>
        <time>2015-08-20T15:22:36.000Z</time>
      </trkpt>
      <trkpt lat="47.50805" lon="6.76589">
        <ele>390</ele>
        <time>2015-08-20T15:22:37.000Z</time>
      </trkpt>
      <trkpt lat="47.50807" lon="6.76589">
        <ele>390</ele>
        <time>2015-08-20T15:22:37.999Z</time>
      </trkpt>
      <trkpt lat="47.5081" lon="6.76591">
        <ele>390</ele>
        <time>2015-08-20T15:22:39.000Z</time>
      </trkpt>
      <trkpt lat="47.5081" lon="6.76594">
        <ele>390</ele>
        <time>2015-08-20T15:22:40.000Z</time>
      </trkpt>
      <trkpt lat="47.50812" lon="6.76597">
        <ele>390</ele>
        <time>2015-08-20T15:22:41.000Z</time>
      </trkpt>
      <trkpt lat="47.50813" lon="6.76601">
        <ele>390</ele>
        <time>2015-08-20T15:22:42.000Z</time>
      </trkpt>
      <trkpt lat="47.50815" lon="6.76605">
        <ele>390</ele>
        <time>2015-08-20T15:22:43.000Z</time>
      </trkpt>
      <trkpt lat="47.50816" lon="6.7661">
        <ele>390</ele>
        <time>2015-08-20T15:22:43.999Z</time>
      </trkpt>
      <trkpt lat="47.50818" lon="6.76615">
        <ele>390</ele>
        <time>2015-08-20T15:22:45.000Z</time>
      </trkpt>
      <trkpt lat="47.50821" lon="6.7662">
        <ele>390</ele>
        <time>2015-08-20T15:22:46.000Z</time>
      </trkpt>
      <trkpt lat="47.50825" lon="6.76626">
        <ele>390</ele>
        <time>2015-08-20T15:22:47.000Z</time>
      </trkpt>
      <trkpt lat="47.50827" lon="6.76633">
        <ele>390</ele>
        <time>2015-08-20T15:22:48.000Z</time>
      </trkpt>
      <trkpt lat="47.5083" lon="6.7664">
        <ele>390</ele>
        <time>2015-08-20T15:22:49.000Z</time>
      </trkpt>
      <trkpt lat="47.50833" lon="6.76647">
        <ele>390</ele>
        <time>2015-08-20T15:22:50.000Z</time>
      </trkpt>
      <trkpt lat="47.50836" lon="6.76653">
        <ele>388</ele>
        <time>2015-08-20T15:22:51.000Z</time>
      </trkpt>
      <trkpt lat="47.50839" lon="6.76661">
        <ele>388</ele>
        <time>2015-08-20T15:22:52.000Z</time>
      </trkpt>
      <trkpt lat="47.50842" lon="6.76669">
        <ele>387</ele>
        <time>2015-08-20T15:22:53.000Z</time>
      </trkpt>
      <trkpt lat="47.50844" lon="6.76676">
        <ele>387</ele>
        <time>2015-08-20T15:22:54.000Z</time>
      </trkpt>
      <trkpt lat="47.50846" lon="6.76684">
        <ele>386</ele>
        <time>2015-08-20T15:22:55.000Z</time>
      </trkpt>
      <trkpt lat="47.50848" lon="6.76691">
        <ele>385</ele>
        <time>2015-08-20T15:22:56.000Z</time>
      </trkpt>
      <trkpt lat="47.5085" lon="6.76698">
        <ele>385</ele>
        <time>2015-08-20T15:22:57.000Z</time>
      </trkpt>
      <trkpt lat="47.50852" lon="6.76706">
        <ele>384</ele>
        <time>2015-08-20T15:22:58.000Z</time>
      </trkpt>
      <trkpt lat="47.50854" lon="6.76714">
        <ele>384</ele>
        <time>2015-08-20T15:22:59.000Z</time>
      </trkpt>
      <trkpt lat="47.50856" lon="6.76724">
        <ele>384</ele>
        <time>2015-08-20T15:23:00.000Z</time>
      </trkpt>
      <trkpt lat="47.50858" lon="6.76732">
        <ele>384</ele>
        <time>2015-08-20T15:23:01.000Z</time>
      </trkpt>
      <trkpt lat="47.50862" lon="6.76742">
        <ele>384</ele>
        <time>2015-08-20T15:23:02.000Z</time>
      </trkpt>
      <trkpt lat="47.50865" lon="6.7675">
        <ele>383</ele>
        <time>2015-08-20T15:23:03.000Z</time>
      </trkpt>
      <trkpt lat="47.50869" lon="6.76757">
        <ele>382</ele>
        <time>2015-08-20T15:23:04.000Z</time>
      </trkpt>
      <trkpt lat="47.50872" lon="6.76764">
        <ele>382</ele>
        <time>2015-08-20T15:23:05.000Z</time>
      </trkpt>
      <trkpt lat="47.50874" lon="6.76774">
        <ele>382</ele>
        <time>2015-08-20T15:23:06.000Z</time>
      </trkpt>
      <trkpt lat="47.50876" lon="6.76783">
        <ele>382</ele>
        <time>2015-08-20T15:23:07.000Z</time>
      </trkpt>
      <trkpt lat="47.5088" lon="6.7679">
        <ele>382</ele>
        <time>2015-08-20T15:23:08.000Z</time>
      </trkpt>
      <trkpt lat="47.50883" lon="6.76799">
        <ele>382</ele>
        <time>2015-08-20T15:23:09.000Z</time>
      </trkpt>
      <trkpt lat="47.50886" lon="6.76805">
        <ele>381</ele>
        <time>2015-08-20T15:23:10.000Z</time>
      </trkpt>
      <trkpt lat="47.5089" lon="6.76813">
        <ele>381</ele>
        <time>2015-08-20T15:23:11.000Z</time>
      </trkpt>
      <trkpt lat="47.50894" lon="6.76821">
        <ele>381</ele>
        <time>2015-08-20T15:23:12.000Z</time>
      </trkpt>
      <trkpt lat="47.50897" lon="6.76829">
        <ele>381</ele>
        <time>2015-08-20T15:23:13.000Z</time>
      </trkpt>
      <trkpt lat="47.509" lon="6.76837">
        <ele>380</ele>
        <time>2015-08-20T15:23:14.000Z</time>
      </trkpt>
      <trkpt lat="47.50904" lon="6.76844">
        <ele>380</ele>
        <time>2015-08-20T15:23:15.000Z</time>
      </trkpt>
      <trkpt lat="47.50908" lon="6.76852">
        <ele>380</ele>
        <time>2015-08-20T15:23:16.000Z</time>
      </trkpt>
      <trkpt lat="47.50913" lon="6.7686">
        <ele>379</ele>
        <time>2015-08-20T15:23:17.000Z</time>
      </trkpt>
      <trkpt lat="47.50917" lon="6.76866">
        <ele>378</ele>
        <time>2015-08-20T15:23:18.000Z</time>
      </trkpt>
      <trkpt lat="47.50921" lon="6.76871">
        <ele>378</ele>
        <time>2015-08-20T15:23:19.000Z</time>
      </trkpt>
      <trkpt lat="47.50927" lon="6.76876">
        <ele>378</ele>
        <time>2015-08-20T15:23:20.000Z</time>
      </trkpt>
      <trkpt lat="47.50932" lon="6.7688">
        <ele>378</ele>
        <time>2015-08-20T15:23:21.000Z</time>
      </trkpt>
      <trkpt lat="47.50937" lon="6.76886">
        <ele>378</ele>
        <time>2015-08-20T15:23:22.000Z</time>
      </trkpt>
      <trkpt lat="47.50943" lon="6.76892">
        <ele>378</ele>
        <time>2015-08-20T15:23:23.000Z</time>
      </trkpt>
      <trkpt lat="47.50948" lon="6.76898">
        <ele>378</ele>
        <time>2015-08-20T15:23:24.000Z</time>
      </trkpt>
      <trkpt lat="47.50952" lon="6.76903">
        <ele>377</ele>
        <time>2015-08-20T15:23:25.000Z</time>
      </trkpt>
      <trkpt lat="47.50957" lon="6.76909">
        <ele>377</ele>
        <time>2015-08-20T15:23:26.000Z</time>
      </trkpt>
      <trkpt lat="47.50961" lon="6.76916">
        <ele>377</ele>
        <time>2015-08-20T15:23:27.000Z</time>
      </trkpt>
      <trkpt lat="47.50963" lon="6.76924">
        <ele>374</ele>
        <time>2015-08-20T15:23:28.000Z</time>
      </trkpt>
      <trkpt lat="47.50965" lon="6.76932">
        <ele>374</ele>
        <time>2015-08-20T15:23:29.000Z</time>
      </trkpt>
      <trkpt lat="47.50968" lon="6.76938">
        <ele>374</ele>
        <time>2015-08-20T15:23:30.000Z</time>
      </trkpt>
      <trkpt lat="47.50974" lon="6.76942">
        <ele>374</ele>
        <time>2015-08-20T15:23:31.000Z</time>
      </trkpt>
      <trkpt lat="47.50981" lon="6.76943">
        <ele>374</ele>
        <time>2015-08-20T15:23:32.000Z</time>
      </trkpt>
      <trkpt lat="47.50986" lon="6.76942">
        <ele>374</ele>
        <time>2015-08-20T15:23:33.000Z</time>
      </trkpt>
      <trkpt lat="47.50993" lon="6.76941">
        <ele>374</ele>
        <time>2015-08-20T15:23:34.000Z</time>
      </trkpt>
      <trkpt lat="47.51" lon="6.7694">
        <ele>375</ele>
        <time>2015-08-20T15:23:35.000Z</time>
      </trkpt>
      <trkpt lat="47.51008" lon="6.7694">
        <ele>375</ele>
        <time>2015-08-20T15:23:36.000Z</time>
      </trkpt>
      <trkpt lat="47.51014" lon="6.76942">
        <ele>375</ele>
        <time>2015-08-20T15:23:37.001Z</time>
      </trkpt>
      <trkpt lat="47.51021" lon="6.76945">
        <ele>375</ele>
        <time>2015-08-20T15:23:37.999Z</time>
      </trkpt>
      <trkpt lat="47.51026" lon="6.76952">
        <ele>375</ele>
        <time>2015-08-20T15:23:39.000Z</time>
      </trkpt>
      <trkpt lat="47.51032" lon="6.76957">
        <ele>375</ele>
        <time>2015-08-20T15:23:40.000Z</time>
      </trkpt>
      <trkpt lat="47.51039" lon="6.76963">
        <ele>375</ele>
        <time>2015-08-20T15:23:41.000Z</time>
      </trkpt>
      <trkpt lat="47.51045" lon="6.76971">
        <ele>375</ele>
        <time>2015-08-20T15:23:42.000Z</time>
      </trkpt>
      <trkpt lat="47.5105" lon="6.76977">
        <ele>375</ele>
        <time>2015-08-20T15:23:43.000Z</time>
      </trkpt>
      <trkpt lat="47.51056" lon="6.76986">
        <ele>375</ele>
        <time>2015-08-20T15:23:44.000Z</time>
      </trkpt>
      <trkpt lat="47.51062" lon="6.7699">
        <ele>375</ele>
        <time>2015-08-20T15:23:45.000Z</time>
      </trkpt>
      <trkpt lat="47.51067" lon="6.76996">
        <ele>375</ele>
        <time>2015-08-20T15:23:46.000Z</time>
      </trkpt>
      <trkpt lat="47.51073" lon="6.77001">
        <ele>374</ele>
        <time>2015-08-20T15:23:47.000Z</time>
      </trkpt>
      <trkpt lat="47.51079" lon="6.77005">
        <ele>374</ele>
        <time>2015-08-20T15:23:48.000Z</time>
      </trkpt>
      <trkpt lat="47.51085" lon="6.77012">
        <ele>375</ele>
        <time>2015-08-20T15:23:49.000Z</time>
      </trkpt>
      <trkpt lat="47.5109" lon="6.77018">
        <ele>375</ele>
        <time>2015-08-20T15:23:50.000Z</time>
      </trkpt>
      <trkpt lat="47.51096" lon="6.77022">
        <ele>375</ele>
        <time>2015-08-20T15:23:51.000Z</time>
      </trkpt>
      <trkpt lat="47.51103" lon="6.77027">
        <ele>375</ele>
        <time>2015-08-20T15:23:52.000Z</time>
      </trkpt>
      <trkpt lat="47.51109" lon="6.77032">
        <ele>375</ele>
        <time>2015-08-20T15:23:53.000Z</time>
      </trkpt>
      <trkpt lat="47.51114" lon="6.77037">
        <ele>375</ele>
        <time>2015-08-20T15:23:54.000Z</time>
      </trkpt>
      <trkpt lat="47.51119" lon="6.7704">
        <ele>375</ele>
        <time>2015-08-20T15:23:55.000Z</time>
      </trkpt>
      <trkpt lat="47.51124" lon="6.77045">
        <ele>375</ele>
        <time>2015-08-20T15:23:56.000Z</time>
      </trkpt>
      <trkpt lat="47.51129" lon="6.7705">
        <ele>375</ele>
        <time>2015-08-20T15:23:57.000Z</time>
      </trkpt>
      <trkpt lat="47.51134" lon="6.77053">
        <ele>375</ele>
        <time>2015-08-20T15:23:58.000Z</time>
      </trkpt>
      <trkpt lat="47.51139" lon="6.77058">
        <ele>376</ele>
        <time>2015-08-20T15:23:59.000Z</time>
      </trkpt>
      <trkpt lat="47.51146" lon="6.77061">
        <ele>376</ele>
        <time>2015-08-20T15:24:00.000Z</time>
      </trkpt>
      <trkpt lat="47.51149" lon="6.77067">
        <ele>376</ele>
        <time>2015-08-20T15:24:01.000Z</time>
      </trkpt>
      <trkpt lat="47.51154" lon="6.77071">
        <ele>377</ele>
        <time>2015-08-20T15:24:02.000Z</time>
      </trkpt>
      <trkpt lat="47.5116" lon="6.77078">
        <ele>377</ele>
        <time>2015-08-20T15:24:03.000Z</time>
      </trkpt>
      <trkpt lat="47.51165" lon="6.77084">
        <ele>378</ele>
        <time>2015-08-20T15:24:04.000Z</time>
      </trkpt>
      <trkpt lat="47.5117" lon="6.77089">
        <ele>378</ele>
        <time>2015-08-20T15:24:05.000Z</time>
      </trkpt>
      <trkpt lat="47.51175" lon="6.77095">
        <ele>378</ele>
        <time>2015-08-20T15:24:06.000Z</time>
      </trkpt>
      <trkpt lat="47.51178" lon="6.77102">
        <ele>378</ele>
        <time>2015-08-20T15:24:07.000Z</time>
      </trkpt>
      <trkpt lat="47.51182" lon="6.77107">
        <ele>378</ele>
        <time>2015-08-20T15:24:08.000Z</time>
      </trkpt>
      <trkpt lat="47.51185" lon="6.77113">
        <ele>378</ele>
        <time>2015-08-20T15:24:09.000Z</time>
      </trkpt>
      <trkpt lat="47.51187" lon="6.77118">
        <ele>378</ele>
        <time>2015-08-20T15:24:10.000Z</time>
      </trkpt>
      <trkpt lat="47.5119" lon="6.77123">
        <ele>378</ele>
        <time>2015-08-20T15:24:10.999Z</time>
      </trkpt>
      <trkpt lat="47.51192" lon="6.77126">
        <ele>378</ele>
        <time>2015-08-20T15:24:12.000Z</time>
      </trkpt>
      <trkpt lat="47.51193" lon="6.77129">
        <ele>378</ele>
        <time>2015-08-20T15:24:13.000Z</time>
      </trkpt>
      <trkpt lat="47.51196" lon="6.77133">
        <ele>378</ele>
        <time>2015-08-20T15:24:14.000Z</time>
      </trkpt>
      <trkpt lat="47.51198" lon="6.77137">
        <ele>378</ele>
        <time>2015-08-20T15:24:15.000Z</time>
      </trkpt>
      <trkpt lat="47.512" lon="6.77141">
        <ele>378</ele>
        <time>2015-08-20T15:24:16.000Z</time>
      </trkpt>
      <trkpt lat="47.51202" lon="6.77145">
        <ele>378</ele>
        <time>2015-08-20T15:24:17.001Z</time>
      </trkpt>
      <trkpt lat="47.51204" lon="6.77149">
        <ele>378</ele>
        <time>2015-08-20T15:24:18.000Z</time>
      </trkpt>
      <trkpt lat="47.51206" lon="6.77152">
        <ele>378</ele>
        <time>2015-08-20T15:24:19.000Z</time>
      </trkpt>
      <trkpt lat="47.51209" lon="6.77156">
        <ele>378</ele>
        <time>2015-08-20T15:24:20.000Z</time>
      </trkpt>
      <trkpt lat="47.51211" lon="6.7716">
        <ele>378</ele>
        <time>2015-08-20T15:24:21.000Z</time>
      </trkpt>
      <trkpt lat="47.51213" lon="6.77164">
        <ele>378</ele>
        <time>2015-08-20T15:24:22.000Z</time>
      </trkpt>
      <trkpt lat="47.51215" lon="6.77168">
        <ele>376</ele>
        <time>2015-08-20T15:24:23.000Z</time>
      </trkpt>
      <trkpt lat="47.51217" lon="6.77172">
        <ele>376</ele>
        <time>2015-08-20T15:24:24.000Z</time>
      </trkpt>
      <trkpt lat="47.51219" lon="6.77176">
        <ele>376</ele>
        <time>2015-08-20T15:24:25.000Z</time>
      </trkpt>
      <trkpt lat="47.51221" lon="6.77181">
        <ele>376</ele>
        <time>2015-08-20T15:24:26.000Z</time>
      </trkpt>
      <trkpt lat="47.51223" lon="6.77185">
        <ele>376</ele>
        <time>2015-08-20T15:24:27.000Z</time>
      </trkpt>
      <trkpt lat="47.51225" lon="6.77189">
        <ele>376</ele>
        <time>2015-08-20T15:24:28.000Z</time>
      </trkpt>
      <trkpt lat="47.51228" lon="6.77194">
        <ele>376</ele>
        <time>2015-08-20T15:24:29.000Z</time>
      </trkpt>
      <trkpt lat="47.5123" lon="6.77198">
        <ele>376</ele>
        <time>2015-08-20T15:24:30.000Z</time>
      </trkpt>
      <trkpt lat="47.51233" lon="6.77203">
        <ele>376</ele>
        <time>2015-08-20T15:24:31.000Z</time>
      </trkpt>
      <trkpt lat="47.51236" lon="6.77208">
        <ele>376</ele>
        <time>2015-08-20T15:24:32.000Z</time>
      </trkpt>
      <trkpt lat="47.51239" lon="6.77212">
        <ele>376</ele>
        <time>2015-08-20T15:24:33.000Z</time>
      </trkpt>
      <trkpt lat="47.51241" lon="6.77217">
        <ele>376</ele>
        <time>2015-08-20T15:24:34.000Z</time>
      </trkpt>
      <trkpt lat="47.51243" lon="6.77223">
        <ele>376</ele>
        <time>2015-08-20T15:24:35.000Z</time>
      </trkpt>
      <trkpt lat="47.51245" lon="6.77227">
        <ele>376</ele>
        <time>2015-08-20T15:24:36.000Z</time>
      </trkpt>
      <trkpt lat="47.51247" lon="6.77234">
        <ele>377</ele>
        <time>2015-08-20T15:24:37.000Z</time>
      </trkpt>
      <trkpt lat="47.5125" lon="6.7724">
        <ele>379</ele>
        <time>2015-08-20T15:24:38.001Z</time>
      </trkpt>
      <trkpt lat="47.51251" lon="6.77243">
        <ele>379</ele>
        <time>2015-08-20T15:24:39.000Z</time>
      </trkpt>
      <trkpt lat="47.51252" lon="6.77247">
        <ele>379</ele>
        <time>2015-08-20T15:24:40.000Z</time>
      </trkpt>
      <trkpt lat="47.51254" lon="6.77252">
        <ele>379</ele>
        <time>2015-08-20T15:24:41.000Z</time>
      </trkpt>
      <trkpt lat="47.51257" lon="6.77256">
        <ele>378</ele>
        <time>2015-08-20T15:24:42.000Z</time>
      </trkpt>
      <trkpt lat="47.51261" lon="6.7726">
        <ele>378</ele>
        <time>2015-08-20T15:24:43.000Z</time>
      </trkpt>
      <trkpt lat="47.51266" lon="6.77263">
        <ele>377</ele>
        <time>2015-08-20T15:24:44.000Z</time>
      </trkpt>
      <trkpt lat="47.51271" lon="6.77266">
        <ele>377</ele>
        <time>2015-08-20T15:24:45.000Z</time>
      </trkpt>
      <trkpt lat="47.51274" lon="6.77268">
        <ele>377</ele>
        <time>2015-08-20T15:24:46.000Z</time>
      </trkpt>
      <trkpt lat="47.51278" lon="6.77272">
        <ele>377</ele>
        <time>2015-08-20T15:24:47.000Z</time>
      </trkpt>
      <trkpt lat="47.51282" lon="6.77273">
        <ele>377</ele>
        <time>2015-08-20T15:24:48.000Z</time>
      </trkpt>
      <trkpt lat="47.51286" lon="6.77276">
        <ele>377</ele>
        <time>2015-08-20T15:24:49.000Z</time>
      </trkpt>
      <trkpt lat="47.51291" lon="6.77279">
        <ele>377</ele>
        <time>2015-08-20T15:24:50.000Z</time>
      </trkpt>
      <trkpt lat="47.51297" lon="6.77283">
        <ele>377</ele>
        <time>2015-08-20T15:24:51.000Z</time>
      </trkpt>
      <trkpt lat="47.51302" lon="6.77284">
        <ele>377</ele>
        <time>2015-08-20T15:24:52.000Z</time>
      </trkpt>
      <trkpt lat="47.51308" lon="6.77287">
        <ele>377</ele>
        <time>2015-08-20T15:24:53.000Z</time>
      </trkpt>
      <trkpt lat="47.51315" lon="6.7729">
        <ele>377</ele>
        <time>2015-08-20T15:24:54.000Z</time>
      </trkpt>
      <trkpt lat="47.51323" lon="6.7729">
        <ele>378</ele>
        <time>2015-08-20T15:24:55.000Z</time>
      </trkpt>
      <trkpt lat="47.51329" lon="6.77288">
        <ele>378</ele>
        <time>2015-08-20T15:24:56.000Z</time>
      </trkpt>
      <trkpt lat="47.51335" lon="6.77284">
        <ele>378</ele>
        <time>2015-08-20T15:24:57.000Z</time>
      </trkpt>
      <trkpt lat="47.51342" lon="6.77281">
        <ele>378</ele>
        <time>2015-08-20T15:24:58.000Z</time>
      </trkpt>
      <trkpt lat="47.51348" lon="6.77276">
        <ele>378</ele>
        <time>2015-08-20T15:24:59.000Z</time>
      </trkpt>
      <trkpt lat="47.51355" lon="6.7727">
        <ele>378</ele>
        <time>2015-08-20T15:25:00.000Z</time>
      </trkpt>
      <trkpt lat="47.51361" lon="6.77263">
        <ele>378</ele>
        <time>2015-08-20T15:25:01.000Z</time>
      </trkpt>
      <trkpt lat="47.51369" lon="6.77257">
        <ele>378</ele>
        <time>2015-08-20T15:25:02.000Z</time>
      </trkpt>
      <trkpt lat="47.51377" lon="6.77252">
        <ele>377</ele>
        <time>2015-08-20T15:25:03.000Z</time>
      </trkpt>
      <trkpt lat="47.51384" lon="6.77247">
        <ele>376</ele>
        <time>2015-08-20T15:25:04.000Z</time>
      </trkpt>
      <trkpt lat="47.51392" lon="6.77242">
        <ele>376</ele>
        <time>2015-08-20T15:25:05.000Z</time>
      </trkpt>
      <trkpt lat="47.514" lon="6.77238">
        <ele>376</ele>
        <time>2015-08-20T15:25:06.000Z</time>
      </trkpt>
      <trkpt lat="47.51408" lon="6.77234">
        <ele>376</ele>
        <time>2015-08-20T15:25:07.000Z</time>
      </trkpt>
      <trkpt lat="47.51415" lon="6.77229">
        <ele>376</ele>
        <time>2015-08-20T15:25:08.000Z</time>
      </trkpt>
      <trkpt lat="47.51423" lon="6.77226">
        <ele>375</ele>
        <time>2015-08-20T15:25:09.000Z</time>
      </trkpt>
      <trkpt lat="47.51432" lon="6.77222">
        <ele>375</ele>
        <time>2015-08-20T15:25:10.000Z</time>
      </trkpt>
      <trkpt lat="47.51439" lon="6.77219">
        <ele>375</ele>
        <time>2015-08-20T15:25:11.000Z</time>
      </trkpt>
      <trkpt lat="47.51447" lon="6.77215">
        <ele>375</ele>
        <time>2015-08-20T15:25:12.000Z</time>
      </trkpt>
      <trkpt lat="47.51454" lon="6.77212">
        <ele>375</ele>
        <time>2015-08-20T15:25:13.000Z</time>
      </trkpt>
      <trkpt lat="47.51461" lon="6.77209">
        <ele>375</ele>
        <time>2015-08-20T15:25:13.999Z</time>
      </trkpt>
      <trkpt lat="47.51467" lon="6.77205">
        <ele>375</ele>
        <time>2015-08-20T15:25:15.000Z</time>
      </trkpt>
      <trkpt lat="47.51472" lon="6.77204">
        <ele>375</ele>
        <time>2015-08-20T15:25:16.000Z</time>
      </trkpt>
      <trkpt lat="47.51476" lon="6.77206">
        <ele>375</ele>
        <time>2015-08-20T15:25:17.000Z</time>
      </trkpt>
      <trkpt lat="47.51479" lon="6.77208">
        <ele>375</ele>
        <time>2015-08-20T15:25:18.000Z</time>
      </trkpt>
      <trkpt lat="47.51481" lon="6.77215">
        <ele>375</ele>
        <time>2015-08-20T15:25:19.000Z</time>
      </trkpt>
      <trkpt lat="47.51481" lon="6.77222">
        <ele>375</ele>
        <time>2015-08-20T15:25:20.000Z</time>
      </trkpt>
      <trkpt lat="47.51482" lon="6.7723">
        <ele>375</ele>
        <time>2015-08-20T15:25:21.000Z</time>
      </trkpt>
      <trkpt lat="47.51483" lon="6.77237">
        <ele>375</ele>
        <time>2015-08-20T15:25:22.000Z</time>
      </trkpt>
      <trkpt lat="47.51484" lon="6.77245">
        <ele>376</ele>
        <time>2015-08-20T15:25:23.000Z</time>
      </trkpt>
      <trkpt lat="47.51486" lon="6.77253">
        <ele>376</ele>
        <time>2015-08-20T15:25:24.000Z</time>
      </trkpt>
      <trkpt lat="47.51487" lon="6.7726">
        <ele>376</ele>
        <time>2015-08-20T15:25:25.000Z</time>
      </trkpt>
      <trkpt lat="47.51487" lon="6.77267">
        <ele>376</ele>
        <time>2015-08-20T15:25:26.000Z</time>
      </trkpt>
      <trkpt lat="47.51487" lon="6.77274">
        <ele>377</ele>
        <time>2015-08-20T15:25:27.000Z</time>
      </trkpt>
      <trkpt lat="47.51488" lon="6.77284">
        <ele>377</ele>
        <time>2015-08-20T15:25:28.000Z</time>
      </trkpt>
      <trkpt lat="47.51489" lon="6.77294">
        <ele>377</ele>
        <time>2015-08-20T15:25:29.000Z</time>
      </trkpt>
      <trkpt lat="47.51489" lon="6.77302">
        <ele>377</ele>
        <time>2015-08-20T15:25:30.000Z</time>
      </trkpt>
      <trkpt lat="47.51492" lon="6.77311">
        <ele>377</ele>
        <time>2015-08-20T15:25:31.000Z</time>
      </trkpt>
      <trkpt lat="47.51495" lon="6.77318">
        <ele>377</ele>
        <time>2015-08-20T15:25:32.000Z</time>
      </trkpt>
      <trkpt lat="47.51499" lon="6.77322">
        <ele>378</ele>
        <time>2015-08-20T15:25:33.000Z</time>
      </trkpt>
      <trkpt lat="47.51503" lon="6.77326">
        <ele>378</ele>
        <time>2015-08-20T15:25:34.000Z</time>
      </trkpt>
      <trkpt lat="47.51507" lon="6.7733">
        <ele>378</ele>
        <time>2015-08-20T15:25:35.000Z</time>
      </trkpt>
      <trkpt lat="47.51511" lon="6.77334">
        <ele>379</ele>
        <time>2015-08-20T15:25:36.000Z</time>
      </trkpt>
      <trkpt lat="47.51514" lon="6.77339">
        <ele>379</ele>
        <time>2015-08-20T15:25:37.000Z</time>
      </trkpt>
      <trkpt lat="47.51517" lon="6.77341">
        <ele>379</ele>
        <time>2015-08-20T15:25:38.000Z</time>
      </trkpt>
      <trkpt lat="47.5152" lon="6.77345">
        <ele>380</ele>
        <time>2015-08-20T15:25:39.000Z</time>
      </trkpt>
      <trkpt lat="47.51524" lon="6.77349">
        <ele>380</ele>
        <time>2015-08-20T15:25:40.000Z</time>
      </trkpt>
      <trkpt lat="47.51528" lon="6.77353">
        <ele>380</ele>
        <time>2015-08-20T15:25:41.000Z</time>
      </trkpt>
      <trkpt lat="47.51532" lon="6.77358">
        <ele>380</ele>
        <time>2015-08-20T15:25:42.000Z</time>
      </trkpt>
      <trkpt lat="47.51536" lon="6.77361">
        <ele>380</ele>
        <time>2015-08-20T15:25:43.000Z</time>
      </trkpt>
      <trkpt lat="47.51539" lon="6.77365">
        <ele>380</ele>
        <time>2015-08-20T15:25:44.000Z</time>
      </trkpt>
      <trkpt lat="47.51542" lon="6.77368">
        <ele>380</ele>
        <time>2015-08-20T15:25:45.000Z</time>
      </trkpt>
      <trkpt lat="47.51545" lon="6.77373">
        <ele>381</ele>
        <time>2015-08-20T15:25:46.000Z</time>
      </trkpt>
      <trkpt lat="47.51548" lon="6.77377">
        <ele>381</ele>
        <time>2015-08-20T15:25:47.000Z</time>
      </trkpt>
      <trkpt lat="47.51552" lon="6.7738">
        <ele>381</ele>
        <time>2015-08-20T15:25:48.000Z</time>
      </trkpt>
      <trkpt lat="47.51555" lon="6.77383">
        <ele>381</ele>
        <time>2015-08-20T15:25:49.000Z</time>
      </trkpt>
      <trkpt lat="47.51558" lon="6.77387">
        <ele>381</ele>
        <time>2015-08-20T15:25:50.000Z</time>
      </trkpt>
      <trkpt lat="47.5156" lon="6.7739">
        <ele>381</ele>
        <time>2015-08-20T15:25:51.001Z</time>
      </trkpt>
      <trkpt lat="47.51562" lon="6.77393">
        <ele>381</ele>
        <time>2015-08-20T15:25:52.000Z</time>
      </trkpt>
      <trkpt lat="47.51565" lon="6.77395">
        <ele>381</ele>
        <time>2015-08-20T15:25:53.000Z</time>
      </trkpt>
      <trkpt lat="47.51567" lon="6.77399">
        <ele>381</ele>
        <time>2015-08-20T15:25:54.000Z</time>
      </trkpt>
      <trkpt lat="47.5157" lon="6.77404">
        <ele>382</ele>
        <time>2015-08-20T15:25:55.000Z</time>
      </trkpt>
      <trkpt lat="47.51573" lon="6.77407">
        <ele>382</ele>
        <time>2015-08-20T15:25:56.000Z</time>
      </trkpt>
      <trkpt lat="47.51576" lon="6.77411">
        <ele>382</ele>
        <time>2015-08-20T15:25:57.000Z</time>
      </trkpt>
      <trkpt lat="47.51579" lon="6.77414">
        <ele>383</ele>
        <time>2015-08-20T15:25:58.000Z</time>
      </trkpt>
      <trkpt lat="47.51582" lon="6.77417">
        <ele>383</ele>
        <time>2015-08-20T15:25:59.000Z</time>
      </trkpt>
      <trkpt lat="47.51586" lon="6.7742">
        <ele>383</ele>
        <time>2015-08-20T15:26:00.000Z</time>
      </trkpt>
      <trkpt lat="47.51589" lon="6.77423">
        <ele>384</ele>
        <time>2015-08-20T15:26:01.000Z</time>
      </trkpt>
      <trkpt lat="47.51592" lon="6.77426">
        <ele>384</ele>
        <time>2015-08-20T15:26:02.000Z</time>
      </trkpt>
      <trkpt lat="47.51595" lon="6.77428">
        <ele>384</ele>
        <time>2015-08-20T15:26:03.000Z</time>
      </trkpt>
      <trkpt lat="47.51598" lon="6.7743">
        <ele>384</ele>
        <time>2015-08-20T15:26:04.000Z</time>
      </trkpt>
      <trkpt lat="47.516" lon="6.77433">
        <ele>385</ele>
        <time>2015-08-20T15:26:05.000Z</time>
      </trkpt>
      <trkpt lat="47.51603" lon="6.77436">
        <ele>385</ele>
        <time>2015-08-20T15:26:06.000Z</time>
      </trkpt>
      <trkpt lat="47.51605" lon="6.77439">
        <ele>385</ele>
        <time>2015-08-20T15:26:07.000Z</time>
      </trkpt>
      <trkpt lat="47.51608" lon="6.77441">
        <ele>385</ele>
        <time>2015-08-20T15:26:08.000Z</time>
      </trkpt>
      <trkpt lat="47.5161" lon="6.77444">
        <ele>385</ele>
        <time>2015-08-20T15:26:09.000Z</time>
      </trkpt>
      <trkpt lat="47.51612" lon="6.77447">
        <ele>385</ele>
        <time>2015-08-20T15:26:10.000Z</time>
      </trkpt>
      <trkpt lat="47.51615" lon="6.7745">
        <ele>385</ele>
        <time>2015-08-20T15:26:11.000Z</time>
      </trkpt>
      <trkpt lat="47.51617" lon="6.77453">
        <ele>386</ele>
        <time>2015-08-20T15:26:12.000Z</time>
      </trkpt>
      <trkpt lat="47.5162" lon="6.77455">
        <ele>386</ele>
        <time>2015-08-20T15:26:13.000Z</time>
      </trkpt>
      <trkpt lat="47.51623" lon="6.77457">
        <ele>386</ele>
        <time>2015-08-20T15:26:14.000Z</time>
      </trkpt>
      <trkpt lat="47.51625" lon="6.7746">
        <ele>386</ele>
        <time>2015-08-20T15:26:15.000Z</time>
      </trkpt>
      <trkpt lat="47.51627" lon="6.77462">
        <ele>386</ele>
        <time>2015-08-20T15:26:16.000Z</time>
      </trkpt>
      <trkpt lat="47.51629" lon="6.77466">
        <ele>386</ele>
        <time>2015-08-20T15:26:17.000Z</time>
      </trkpt>
      <trkpt lat="47.51631" lon="6.7747">
        <ele>386</ele>
        <time>2015-08-20T15:26:18.000Z</time>
      </trkpt>
      <trkpt lat="47.51633" lon="6.77473">
        <ele>386</ele>
        <time>2015-08-20T15:26:19.000Z</time>
      </trkpt>
      <trkpt lat="47.51635" lon="6.77477">
        <ele>386</ele>
        <time>2015-08-20T15:26:20.000Z</time>
      </trkpt>
      <trkpt lat="47.51638" lon="6.77481">
        <ele>386</ele>
        <time>2015-08-20T15:26:21.000Z</time>
      </trkpt>
      <trkpt lat="47.5164" lon="6.77485">
        <ele>387</ele>
        <time>2015-08-20T15:26:22.000Z</time>
      </trkpt>
      <trkpt lat="47.51642" lon="6.77488">
        <ele>387</ele>
        <time>2015-08-20T15:26:23.000Z</time>
      </trkpt>
      <trkpt lat="47.51644" lon="6.77494">
        <ele>387</ele>
        <time>2015-08-20T15:26:24.000Z</time>
      </trkpt>
      <trkpt lat="47.51646" lon="6.775">
        <ele>387</ele>
        <time>2015-08-20T15:26:25.000Z</time>
      </trkpt>
      <trkpt lat="47.51648" lon="6.77504">
        <ele>388</ele>
        <time>2015-08-20T15:26:26.001Z</time>
      </trkpt>
      <trkpt lat="47.5165" lon="6.77511">
        <ele>388</ele>
        <time>2015-08-20T15:26:27.000Z</time>
      </trkpt>
      <trkpt lat="47.51652" lon="6.77515">
        <ele>388</ele>
        <time>2015-08-20T15:26:28.000Z</time>
      </trkpt>
      <trkpt lat="47.51656" lon="6.77519">
        <ele>388</ele>
        <time>2015-08-20T15:26:29.000Z</time>
      </trkpt>
      <trkpt lat="47.51659" lon="6.77523">
        <ele>388</ele>
        <time>2015-08-20T15:26:30.000Z</time>
      </trkpt>
      <trkpt lat="47.51662" lon="6.77526">
        <ele>388</ele>
        <time>2015-08-20T15:26:30.999Z</time>
      </trkpt>
      <trkpt lat="47.51665" lon="6.77529">
        <ele>388</ele>
        <time>2015-08-20T15:26:32.000Z</time>
      </trkpt>
      <trkpt lat="47.51669" lon="6.77532">
        <ele>390</ele>
        <time>2015-08-20T15:26:33.000Z</time>
      </trkpt>
      <trkpt lat="47.51672" lon="6.77534">
        <ele>390</ele>
        <time>2015-08-20T15:26:34.000Z</time>
      </trkpt>
      <trkpt lat="47.51675" lon="6.77537">
        <ele>390</ele>
        <time>2015-08-20T15:26:35.000Z</time>
      </trkpt>
      <trkpt lat="47.51678" lon="6.77539">
        <ele>390</ele>
        <time>2015-08-20T15:26:36.001Z</time>
      </trkpt>
      <trkpt lat="47.5168" lon="6.77542">
        <ele>390</ele>
        <time>2015-08-20T15:26:37.000Z</time>
      </trkpt>
      <trkpt lat="47.51683" lon="6.77545">
        <ele>390</ele>
        <time>2015-08-20T15:26:38.000Z</time>
      </trkpt>
      <trkpt lat="47.51686" lon="6.77548">
        <ele>390</ele>
        <time>2015-08-20T15:26:39.000Z</time>
      </trkpt>
      <trkpt lat="47.51689" lon="6.77551">
        <ele>390</ele>
        <time>2015-08-20T15:26:40.000Z</time>
      </trkpt>
      <trkpt lat="47.51693" lon="6.77552">
        <ele>390</ele>
        <time>2015-08-20T15:26:41.000Z</time>
      </trkpt>
      <trkpt lat="47.51696" lon="6.77553">
        <ele>390</ele>
        <time>2015-08-20T15:26:42.000Z</time>
      </trkpt>
      <trkpt lat="47.51699" lon="6.77553">
        <ele>390</ele>
        <time>2015-08-20T15:26:43.000Z</time>
      </trkpt>
      <trkpt lat="47.51703" lon="6.77553">
        <ele>390</ele>
        <time>2015-08-20T15:26:44.000Z</time>
      </trkpt>
      <trkpt lat="47.51706" lon="6.77553">
        <ele>390</ele>
        <time>2015-08-20T15:26:45.000Z</time>
      </trkpt>
      <trkpt lat="47.51709" lon="6.77553">
        <ele>390</ele>
        <time>2015-08-20T15:26:45.999Z</time>
      </trkpt>
      <trkpt lat="47.51711" lon="6.77549">
        <ele>390</ele>
        <time>2015-08-20T15:26:47.000Z</time>
      </trkpt>
      <trkpt lat="47.51713" lon="6.77545">
        <ele>390</ele>
        <time>2015-08-20T15:26:48.000Z</time>
      </trkpt>
      <trkpt lat="47.51714" lon="6.7754">
        <ele>390</ele>
        <time>2015-08-20T15:26:49.000Z</time>
      </trkpt>
      <trkpt lat="47.51716" lon="6.77534">
        <ele>390</ele>
        <time>2015-08-20T15:26:50.000Z</time>
      </trkpt>
      <trkpt lat="47.51718" lon="6.77528">
        <ele>390</ele>
        <time>2015-08-20T15:26:51.000Z</time>
      </trkpt>
      <trkpt lat="47.5172" lon="6.77522">
        <ele>390</ele>
        <time>2015-08-20T15:26:52.000Z</time>
      </trkpt>
      <trkpt lat="47.51721" lon="6.77517">
        <ele>390</ele>
        <time>2015-08-20T15:26:53.000Z</time>
      </trkpt>
      <trkpt lat="47.51723" lon="6.77512">
        <ele>390</ele>
        <time>2015-08-20T15:26:54.000Z</time>
      </trkpt>
      <trkpt lat="47.51724" lon="6.77506">
        <ele>390</ele>
        <time>2015-08-20T15:26:55.000Z</time>
      </trkpt>
      <trkpt lat="47.51725" lon="6.77501">
        <ele>390</ele>
        <time>2015-08-20T15:26:56.000Z</time>
      </trkpt>
      <trkpt lat="47.51726" lon="6.77495">
        <ele>389</ele>
        <time>2015-08-20T15:26:57.000Z</time>
      </trkpt>
      <trkpt lat="47.51727" lon="6.7749">
        <ele>389</ele>
        <time>2015-08-20T15:26:58.000Z</time>
      </trkpt>
      <trkpt lat="47.51728" lon="6.77484">
        <ele>389</ele>
        <time>2015-08-20T15:26:59.000Z</time>
      </trkpt>
      <trkpt lat="47.5173" lon="6.7748">
        <ele>389</ele>
        <time>2015-08-20T15:27:00.000Z</time>
      </trkpt>
      <trkpt lat="47.51733" lon="6.77477">
        <ele>389</ele>
        <time>2015-08-20T15:27:01.000Z</time>
      </trkpt>
      <trkpt lat="47.51736" lon="6.77476">
        <ele>389</ele>
        <time>2015-08-20T15:27:02.000Z</time>
      </trkpt>
      <trkpt lat="47.51741" lon="6.77476">
        <ele>389</ele>
        <time>2015-08-20T15:27:03.000Z</time>
      </trkpt>
      <trkpt lat="47.51745" lon="6.77477">
        <ele>389</ele>
        <time>2015-08-20T15:27:04.000Z</time>
      </trkpt>
      <trkpt lat="47.5175" lon="6.77478">
        <ele>389</ele>
        <time>2015-08-20T15:27:05.000Z</time>
      </trkpt>
      <trkpt lat="47.51754" lon="6.77479">
        <ele>389</ele>
        <time>2015-08-20T15:27:06.000Z</time>
      </trkpt>
      <trkpt lat="47.51759" lon="6.7748">
        <ele>389</ele>
        <time>2015-08-20T15:27:07.000Z</time>
      </trkpt>
      <trkpt lat="47.51764" lon="6.77484">
        <ele>389</ele>
        <time>2015-08-20T15:27:08.000Z</time>
      </trkpt>
      <trkpt lat="47.51769" lon="6.77484">
        <ele>389</ele>
        <time>2015-08-20T15:27:09.000Z</time>
      </trkpt>
      <trkpt lat="47.51774" lon="6.77485">
        <ele>388</ele>
        <time>2015-08-20T15:27:10.000Z</time>
      </trkpt>
      <trkpt lat="47.51778" lon="6.77486">
        <ele>388</ele>
        <time>2015-08-20T15:27:11.000Z</time>
      </trkpt>
      <trkpt lat="47.51784" lon="6.77489">
        <ele>388</ele>
        <time>2015-08-20T15:27:12.000Z</time>
      </trkpt>
      <trkpt lat="47.51788" lon="6.77492">
        <ele>388</ele>
        <time>2015-08-20T15:27:13.000Z</time>
      </trkpt>
      <trkpt lat="47.51793" lon="6.77494">
        <ele>388</ele>
        <time>2015-08-20T15:27:14.000Z</time>
      </trkpt>
      <trkpt lat="47.51798" lon="6.77496">
        <ele>388</ele>
        <time>2015-08-20T15:27:15.000Z</time>
      </trkpt>
      <trkpt lat="47.51803" lon="6.77496">
        <ele>388</ele>
        <time>2015-08-20T15:27:16.000Z</time>
      </trkpt>
      <trkpt lat="47.51806" lon="6.77492">
        <ele>388</ele>
        <time>2015-08-20T15:27:17.000Z</time>
      </trkpt>
      <trkpt lat="47.51807" lon="6.7749">
        <ele>388</ele>
        <time>2015-08-20T15:27:18.000Z</time>
      </trkpt>
      <trkpt lat="47.51807" lon="6.77487">
        <ele>388</ele>
        <time>2015-08-20T15:27:19.000Z</time>
      </trkpt>
      <trkpt lat="47.51805" lon="6.77484">
        <ele>388</ele>
        <time>2015-08-20T15:27:20.000Z</time>
      </trkpt>
      <trkpt lat="47.51802" lon="6.77481">
        <ele>388</ele>
        <time>2015-08-20T15:27:20.999Z</time>
      </trkpt>
      <trkpt lat="47.518" lon="6.77478">
        <ele>388</ele>
        <time>2015-08-20T15:27:22.000Z</time>
      </trkpt>
      <trkpt lat="47.51799" lon="6.77474">
        <ele>388</ele>
        <time>2015-08-20T15:27:23.999Z</time>
      </trkpt>
      <trkpt lat="47.518" lon="6.77468">
        <ele>388</ele>
        <time>2015-08-20T15:27:24.999Z</time>
      </trkpt>
      <trkpt lat="47.51796" lon="6.77468">
        <ele>388</ele>
        <time>2015-08-20T15:27:35.000Z</time>
      </trkpt>
      <trkpt lat="47.51795" lon="6.77468">
        <ele>388</ele>
        <time>2015-08-20T15:27:35.998Z</time>
      </trkpt>
      <trkpt lat="47.51798" lon="6.77473">
        <ele>388</ele>
        <time>2015-08-20T15:28:40.000Z</time>
      </trkpt>
      <trkpt lat="47.51798" lon="6.77473">
        <ele>388</ele>
        <time>2015-08-20T15:28:41.001Z</time>
      </trkpt>
      <trkpt lat="47.518" lon="6.77477">
        <ele>388</ele>
        <time>2015-08-20T15:28:44.000Z</time>
      </trkpt>
      <trkpt lat="47.51801" lon="6.77479">
        <ele>388</ele>
        <time>2015-08-20T15:28:45.000Z</time>
      </trkpt>
      <trkpt lat="47.518" lon="6.77478">
        <ele>388</ele>
        <time>2015-08-20T15:34:22.000Z</time>
      </trkpt>
    </trkseg>
  </trk>
</gpx>